<?xml version='1.0' encoding='UTF-8'?><gpx version="1.1" creator="JPX - https://github.com/jenetics/jpx" xmlns="http://www.topografix.com/GPX/1/1"><trk><trkseg><trkpt lat="43.5790494" lon="11.2125001"><ele>175.0</ele><time>2026-04-02T09:28:20.907Z</time></trkpt><trkpt lat="43.5789359" lon="11.2125855"><ele>175.0</ele><time>2026-04-02T09:28:22.907Z</time></trkpt><trkpt lat="43.5788522" lon="11.2126353"><ele>175.0</ele><time>2026-04-02T09:28:23.907Z</time></trkpt><trkpt lat="43.5787528" lon="11.2126975"><ele>175.0</ele><time>2026-04-02T09:28:24.907Z</time></trkpt><trkpt lat="43.5786443" lon="11.2127757"><ele>175.25</ele><time>2026-04-02T09:28:25.907Z</time></trkpt><trkpt lat="43.5785389" lon="11.2128736"><ele>175.5</ele><time>2026-04-02T09:28:26.907Z</time></trkpt><trkpt lat="43.5784285" lon="11.2129928"><ele>175.75</ele><time>2026-04-02T09:28:27.907Z</time></trkpt><trkpt lat="43.5783174" lon="11.2131341"><ele>176.0</ele><time>2026-04-02T09:28:28.906Z</time></trkpt><trkpt lat="43.5782088" lon="11.2132849"><ele>176.0</ele><time>2026-04-02T09:28:29.907Z</time></trkpt><trkpt lat="43.5780977" lon="11.2134377"><ele>176.0</ele><time>2026-04-02T09:28:30.907Z</time></trkpt><trkpt lat="43.5779891" lon="11.2135922"><ele>176.0</ele><time>2026-04-02T09:28:31.907Z</time></trkpt><trkpt lat="43.5778731" lon="11.2137504"><ele>175.66666666666666</ele><time>2026-04-02T09:28:32.907Z</time></trkpt><trkpt lat="43.5777535" lon="11.2139096"><ele>175.33333333333334</ele><time>2026-04-02T09:28:33.907Z</time></trkpt><trkpt lat="43.5776373" lon="11.2140642"><ele>175.0</ele><time>2026-04-02T09:28:34.907Z</time></trkpt><trkpt lat="43.5775255" lon="11.2142072"><ele>175.0</ele><time>2026-04-02T09:28:35.907Z</time></trkpt><trkpt lat="43.5773988" lon="11.2143241"><ele>175.0</ele><time>2026-04-02T09:28:36.907Z</time></trkpt><trkpt lat="43.5772557" lon="11.2144203"><ele>175.0</ele><time>2026-04-02T09:28:37.907Z</time></trkpt><trkpt lat="43.5770973" lon="11.2145088"><ele>174.33333333333334</ele><time>2026-04-02T09:28:38.907Z</time></trkpt><trkpt lat="43.5769355" lon="11.2145903"><ele>173.66666666666666</ele><time>2026-04-02T09:28:39.907Z</time></trkpt><trkpt lat="43.5767854" lon="11.2146581"><ele>173.0</ele><time>2026-04-02T09:28:40.907Z</time></trkpt><trkpt lat="43.5766338" lon="11.2147291"><ele>173.0</ele><time>2026-04-02T09:28:41.907Z</time></trkpt><trkpt lat="43.5764799" lon="11.2147969"><ele>173.0</ele><time>2026-04-02T09:28:42.907Z</time></trkpt><trkpt lat="43.5763263" lon="11.2148659"><ele>173.0</ele><time>2026-04-02T09:28:43.906Z</time></trkpt><trkpt lat="43.5761614" lon="11.2149464"><ele>174.33333333333331</ele><time>2026-04-02T09:28:44.906Z</time></trkpt><trkpt lat="43.575986" lon="11.2150247"><ele>175.66666666666666</ele><time>2026-04-02T09:28:45.907Z</time></trkpt><trkpt lat="43.5758076" lon="11.215103"><ele>177.0</ele><time>2026-04-02T09:28:46.907Z</time></trkpt><trkpt lat="43.5756212" lon="11.2151858"><ele>177.0</ele><time>2026-04-02T09:28:47.907Z</time></trkpt><trkpt lat="43.57543" lon="11.2152698"><ele>177.0</ele><time>2026-04-02T09:28:48.907Z</time></trkpt><trkpt lat="43.5752358" lon="11.2153495"><ele>177.0</ele><time>2026-04-02T09:28:49.907Z</time></trkpt><trkpt lat="43.5750423" lon="11.2154239"><ele>176.66666666666666</ele><time>2026-04-02T09:28:50.907Z</time></trkpt><trkpt lat="43.5748505" lon="11.2155035"><ele>176.33333333333331</ele><time>2026-04-02T09:28:51.907Z</time></trkpt><trkpt lat="43.5746624" lon="11.2155737"><ele>176.0</ele><time>2026-04-02T09:28:52.907Z</time></trkpt><trkpt lat="43.5744862" lon="11.2156409"><ele>176.33333333333331</ele><time>2026-04-02T09:28:53.907Z</time></trkpt><trkpt lat="43.5743122" lon="11.2157113"><ele>176.66666666666666</ele><time>2026-04-02T09:28:54.907Z</time></trkpt><trkpt lat="43.5741436" lon="11.2157842"><ele>177.0</ele><time>2026-04-02T09:28:55.907Z</time></trkpt><trkpt lat="43.5739797" lon="11.2158592"><ele>177.0</ele><time>2026-04-02T09:28:56.907Z</time></trkpt><trkpt lat="43.5738116" lon="11.2159428"><ele>177.0</ele><time>2026-04-02T09:28:57.907Z</time></trkpt><trkpt lat="43.5736416" lon="11.2160459"><ele>177.0</ele><time>2026-04-02T09:28:58.907Z</time></trkpt><trkpt lat="43.5734796" lon="11.2161615"><ele>177.66666666666666</ele><time>2026-04-02T09:28:59.907Z</time></trkpt><trkpt lat="43.5733166" lon="11.216286"><ele>178.33333333333331</ele><time>2026-04-02T09:29:00.907Z</time></trkpt><trkpt lat="43.5731483" lon="11.216388"><ele>179.0</ele><time>2026-04-02T09:29:01.907Z</time></trkpt><trkpt lat="43.5729739" lon="11.2164726"><ele>181.0</ele><time>2026-04-02T09:29:02.906Z</time></trkpt><trkpt lat="43.5728072" lon="11.2165293"><ele>183.0</ele><time>2026-04-02T09:29:03.907Z</time></trkpt><trkpt lat="43.5726371" lon="11.2165494"><ele>185.0</ele><time>2026-04-02T09:29:04.907Z</time></trkpt><trkpt lat="43.5724707" lon="11.2165373"><ele>185.0</ele><time>2026-04-02T09:29:05.907Z</time></trkpt><trkpt lat="43.572311" lon="11.2164951"><ele>185.0</ele><time>2026-04-02T09:29:06.907Z</time></trkpt><trkpt lat="43.5721567" lon="11.2164198"><ele>185.0</ele><time>2026-04-02T09:29:07.907Z</time></trkpt><trkpt lat="43.5720132" lon="11.2163261"><ele>183.33333333333331</ele><time>2026-04-02T09:29:08.907Z</time></trkpt><trkpt lat="43.5718777" lon="11.2162094"><ele>181.66666666666666</ele><time>2026-04-02T09:29:09.907Z</time></trkpt><trkpt lat="43.5717523" lon="11.2160738"><ele>180.0</ele><time>2026-04-02T09:29:10.906Z</time></trkpt><trkpt lat="43.5716429" lon="11.2159293"><ele>180.0</ele><time>2026-04-02T09:29:11.907Z</time></trkpt><trkpt lat="43.5715374" lon="11.2157911"><ele>180.0</ele><time>2026-04-02T09:29:12.907Z</time></trkpt><trkpt lat="43.5714342" lon="11.2156536"><ele>180.0</ele><time>2026-04-02T09:29:13.907Z</time></trkpt><trkpt lat="43.5713395" lon="11.2155113"><ele>180.0</ele><time>2026-04-02T09:29:14.907Z</time></trkpt><trkpt lat="43.5712502" lon="11.2153779"><ele>180.5</ele><time>2026-04-02T09:29:15.907Z</time></trkpt><trkpt lat="43.5711489" lon="11.2152584"><ele>181.0</ele><time>2026-04-02T09:29:16.907Z</time></trkpt><trkpt lat="43.5710345" lon="11.2151436"><ele>181.5</ele><time>2026-04-02T09:29:17.907Z</time></trkpt><trkpt lat="43.5709157" lon="11.2150482"><ele>182.0</ele><time>2026-04-02T09:29:18.907Z</time></trkpt><trkpt lat="43.5707726" lon="11.2149855"><ele>182.0</ele><time>2026-04-02T09:29:19.907Z</time></trkpt><trkpt lat="43.5706121" lon="11.2149495"><ele>182.0</ele><time>2026-04-02T09:29:20.907Z</time></trkpt><trkpt lat="43.570435" lon="11.2149574"><ele>182.0</ele><time>2026-04-02T09:29:21.907Z</time></trkpt><trkpt lat="43.5702512" lon="11.2150047"><ele>183.33333333333331</ele><time>2026-04-02T09:29:22.907Z</time></trkpt><trkpt lat="43.5700631" lon="11.2150764"><ele>184.66666666666666</ele><time>2026-04-02T09:29:23.907Z</time></trkpt><trkpt lat="43.5698666" lon="11.2151585"><ele>186.0</ele><time>2026-04-02T09:29:24.907Z</time></trkpt><trkpt lat="43.569663" lon="11.2152385"><ele>189.66666666666669</ele><time>2026-04-02T09:29:25.907Z</time></trkpt><trkpt lat="43.5694601" lon="11.215321"><ele>193.33333333333334</ele><time>2026-04-02T09:29:26.907Z</time></trkpt><trkpt lat="43.5692521" lon="11.2154032"><ele>197.0</ele><time>2026-04-02T09:29:27.907Z</time></trkpt><trkpt lat="43.5690368" lon="11.215488"><ele>197.0</ele><time>2026-04-02T09:29:28.906Z</time></trkpt><trkpt lat="43.5688206" lon="11.2155724"><ele>197.0</ele><time>2026-04-02T09:29:29.907Z</time></trkpt><trkpt lat="43.5686178" lon="11.2156521"><ele>197.0</ele><time>2026-04-02T09:29:30.907Z</time></trkpt><trkpt lat="43.5684237" lon="11.215731"><ele>197.33333333333334</ele><time>2026-04-02T09:29:31.907Z</time></trkpt><trkpt lat="43.5682329" lon="11.215816"><ele>197.66666666666669</ele><time>2026-04-02T09:29:32.907Z</time></trkpt><trkpt lat="43.5680368" lon="11.215891"><ele>198.0</ele><time>2026-04-02T09:29:33.907Z</time></trkpt><trkpt lat="43.5678322" lon="11.2159617"><ele>198.0</ele><time>2026-04-02T09:29:34.907Z</time></trkpt><trkpt lat="43.5676285" lon="11.216019"><ele>198.0</ele><time>2026-04-02T09:29:35.906Z</time></trkpt><trkpt lat="43.5674195" lon="11.2160666"><ele>198.0</ele><time>2026-04-02T09:29:36.907Z</time></trkpt><trkpt lat="43.5672054" lon="11.21611"><ele>201.0</ele><time>2026-04-02T09:29:37.907Z</time></trkpt><trkpt lat="43.566989" lon="11.2161481"><ele>204.0</ele><time>2026-04-02T09:29:38.907Z</time></trkpt><trkpt lat="43.5667685" lon="11.216189"><ele>207.0</ele><time>2026-04-02T09:29:39.907Z</time></trkpt><trkpt lat="43.5665457" lon="11.2162416"><ele>207.0</ele><time>2026-04-02T09:29:40.907Z</time></trkpt><trkpt lat="43.5663224" lon="11.2163157"><ele>207.0</ele><time>2026-04-02T09:29:41.907Z</time></trkpt><trkpt lat="43.5660985" lon="11.216401"><ele>205.5</ele><time>2026-04-02T09:29:42.907Z</time></trkpt><trkpt lat="43.5658718" lon="11.2164906"><ele>204.0</ele><time>2026-04-02T09:29:43.907Z</time></trkpt><trkpt lat="43.5656552" lon="11.216581"><ele>204.0</ele><time>2026-04-02T09:29:44.907Z</time></trkpt><trkpt lat="43.5654525" lon="11.2166616"><ele>204.0</ele><time>2026-04-02T09:29:45.907Z</time></trkpt><trkpt lat="43.5652614" lon="11.2167432"><ele>204.0</ele><time>2026-04-02T09:29:46.907Z</time></trkpt><trkpt lat="43.5650811" lon="11.2168242"><ele>204.0</ele><time>2026-04-02T09:29:47.907Z</time></trkpt><trkpt lat="43.5649102" lon="11.2169276"><ele>204.0</ele><time>2026-04-02T09:29:48.906Z</time></trkpt><trkpt lat="43.5647596" lon="11.2170559"><ele>204.0</ele><time>2026-04-02T09:29:49.907Z</time></trkpt><trkpt lat="43.564631" lon="11.2172319"><ele>208.66666666666669</ele><time>2026-04-02T09:29:50.907Z</time></trkpt><trkpt lat="43.5645227" lon="11.2174439"><ele>213.33333333333334</ele><time>2026-04-02T09:29:51.907Z</time></trkpt><trkpt lat="43.5644437" lon="11.2176844"><ele>218.0</ele><time>2026-04-02T09:29:52.907Z</time></trkpt><trkpt lat="43.5643765" lon="11.2179449"><ele>218.0</ele><time>2026-04-02T09:29:53.907Z</time></trkpt><trkpt lat="43.5643098" lon="11.2182247"><ele>218.0</ele><time>2026-04-02T09:29:54.907Z</time></trkpt><trkpt lat="43.5642455" lon="11.2185097"><ele>218.0</ele><time>2026-04-02T09:29:55.907Z</time></trkpt><trkpt lat="43.5641729" lon="11.2188028"><ele>216.5</ele><time>2026-04-02T09:29:56.907Z</time></trkpt><trkpt lat="43.5641029" lon="11.2190937"><ele>215.0</ele><time>2026-04-02T09:29:57.907Z</time></trkpt><trkpt lat="43.5640263" lon="11.2193893"><ele>215.0</ele><time>2026-04-02T09:29:58.907Z</time></trkpt><trkpt lat="43.5639517" lon="11.2196832"><ele>215.0</ele><time>2026-04-02T09:29:59.907Z</time></trkpt><trkpt lat="43.5638797" lon="11.2199787"><ele>214.33333333333334</ele><time>2026-04-02T09:30:00.907Z</time></trkpt><trkpt lat="43.5638123" lon="11.22026"><ele>213.66666666666669</ele><time>2026-04-02T09:30:01.907Z</time></trkpt><trkpt lat="43.5637483" lon="11.2204886"><ele>213.0</ele><time>2026-04-02T09:30:02.907Z</time></trkpt><trkpt lat="43.5636752" lon="11.2206872"><ele>219.33333333333331</ele><time>2026-04-02T09:30:03.907Z</time></trkpt><trkpt lat="43.5635724" lon="11.220865"><ele>225.66666666666666</ele><time>2026-04-02T09:30:04.907Z</time></trkpt><trkpt lat="43.5634497" lon="11.2210015"><ele>232.0</ele><time>2026-04-02T09:30:05.907Z</time></trkpt><trkpt lat="43.5633303" lon="11.2211251"><ele>232.0</ele><time>2026-04-02T09:30:06.906Z</time></trkpt><trkpt lat="43.5631306" lon="11.2211632"><ele>232.0</ele><time>2026-04-02T09:30:07.907Z</time></trkpt><trkpt lat="43.5629456" lon="11.2212205"><ele>232.0</ele><time>2026-04-02T09:30:08.907Z</time></trkpt><trkpt lat="43.5627598" lon="11.221302"><ele>231.33333333333331</ele><time>2026-04-02T09:30:09.907Z</time></trkpt><trkpt lat="43.5625717" lon="11.2213751"><ele>230.66666666666669</ele><time>2026-04-02T09:30:10.906Z</time></trkpt><trkpt lat="43.5623638" lon="11.2214782"><ele>230.0</ele><time>2026-04-02T09:30:11.907Z</time></trkpt><trkpt lat="43.5621559" lon="11.2215733"><ele>233.66666666666669</ele><time>2026-04-02T09:30:12.907Z</time></trkpt><trkpt lat="43.5619576" lon="11.2216647"><ele>237.33333333333331</ele><time>2026-04-02T09:30:13.907Z</time></trkpt><trkpt lat="43.561777" lon="11.2217434"><ele>241.0</ele><time>2026-04-02T09:30:14.907Z</time></trkpt><trkpt lat="43.5616248" lon="11.2218138"><ele>241.0</ele><time>2026-04-02T09:30:15.907Z</time></trkpt><trkpt lat="43.5614872" lon="11.2218775"><ele>241.0</ele><time>2026-04-02T09:30:16.907Z</time></trkpt><trkpt lat="43.5613713" lon="11.2219492"><ele>241.0</ele><time>2026-04-02T09:30:17.907Z</time></trkpt><trkpt lat="43.5612918" lon="11.2220522"><ele>241.0</ele><time>2026-04-02T09:30:18.907Z</time></trkpt><trkpt lat="43.5612515" lon="11.2221936"><ele>240.8</ele><time>2026-04-02T09:30:19.907Z</time></trkpt><trkpt lat="43.5612534" lon="11.2223448"><ele>240.60000000000002</ele><time>2026-04-02T09:30:20.907Z</time></trkpt><trkpt lat="43.5612926" lon="11.2224683"><ele>240.4</ele><time>2026-04-02T09:30:21.907Z</time></trkpt><trkpt lat="43.5613698" lon="11.2225627"><ele>240.2</ele><time>2026-04-02T09:30:22.907Z</time></trkpt><trkpt lat="43.5614556" lon="11.2226559"><ele>240.0</ele><time>2026-04-02T09:30:23.906Z</time></trkpt><trkpt lat="43.5616305" lon="11.2226462"><ele>240.0</ele><time>2026-04-02T09:30:24.907Z</time></trkpt><trkpt lat="43.5617748" lon="11.222699"><ele>240.0</ele><time>2026-04-02T09:30:25.907Z</time></trkpt><trkpt lat="43.5619147" lon="11.2227891"><ele>240.0</ele><time>2026-04-02T09:30:26.907Z</time></trkpt><trkpt lat="43.5620277" lon="11.2228869"><ele>240.0</ele><time>2026-04-02T09:30:27.907Z</time></trkpt><trkpt lat="43.5621102" lon="11.222979"><ele>240.4</ele><time>2026-04-02T09:30:28.907Z</time></trkpt><trkpt lat="43.5621565" lon="11.2230772"><ele>240.8</ele><time>2026-04-02T09:30:29.907Z</time></trkpt><trkpt lat="43.5621573" lon="11.2231839"><ele>241.2</ele><time>2026-04-02T09:30:30.907Z</time></trkpt><trkpt lat="43.5621093" lon="11.2232734"><ele>241.6</ele><time>2026-04-02T09:30:31.907Z</time></trkpt><trkpt lat="43.5620297" lon="11.223341"><ele>242.0</ele><time>2026-04-02T09:30:32.906Z</time></trkpt><trkpt lat="43.5619159" lon="11.2234056"><ele>246.0</ele><time>2026-04-02T09:30:33.907Z</time></trkpt><trkpt lat="43.5617858" lon="11.2234982"><ele>250.0</ele><time>2026-04-02T09:30:34.907Z</time></trkpt><trkpt lat="43.5616562" lon="11.2235839"><ele>254.0</ele><time>2026-04-02T09:30:35.906Z</time></trkpt><trkpt lat="43.5615119" lon="11.223762"><ele>254.0</ele><time>2026-04-02T09:30:36.907Z</time></trkpt><trkpt lat="43.5613746" lon="11.2239308"><ele>254.0</ele><time>2026-04-02T09:30:37.907Z</time></trkpt><trkpt lat="43.5612458" lon="11.2240912"><ele>254.0</ele><time>2026-04-02T09:30:38.907Z</time></trkpt><trkpt lat="43.561106" lon="11.2242313"><ele>258.0</ele><time>2026-04-02T09:30:39.907Z</time></trkpt><trkpt lat="43.5609393" lon="11.2243548"><ele>262.0</ele><time>2026-04-02T09:30:40.907Z</time></trkpt><trkpt lat="43.5607632" lon="11.2244534"><ele>266.0</ele><time>2026-04-02T09:30:41.907Z</time></trkpt><trkpt lat="43.5605796" lon="11.2245415"><ele>266.0</ele><time>2026-04-02T09:30:42.907Z</time></trkpt><trkpt lat="43.560397" lon="11.2246363"><ele>266.0</ele><time>2026-04-02T09:30:43.907Z</time></trkpt><trkpt lat="43.5602189" lon="11.2247274"><ele>266.0</ele><time>2026-04-02T09:30:44.907Z</time></trkpt><trkpt lat="43.5600366" lon="11.2248186"><ele>268.0</ele><time>2026-04-02T09:30:45.907Z</time></trkpt><trkpt lat="43.5598551" lon="11.2249086"><ele>270.0</ele><time>2026-04-02T09:30:46.907Z</time></trkpt><trkpt lat="43.559693" lon="11.2249929"><ele>272.0</ele><time>2026-04-02T09:30:47.907Z</time></trkpt><trkpt lat="43.5595489" lon="11.2250603"><ele>274.25</ele><time>2026-04-02T09:30:48.907Z</time></trkpt><trkpt lat="43.5594204" lon="11.2251138"><ele>276.5</ele><time>2026-04-02T09:30:49.907Z</time></trkpt><trkpt lat="43.5592955" lon="11.2251331"><ele>278.75</ele><time>2026-04-02T09:30:50.907Z</time></trkpt><trkpt lat="43.5591748" lon="11.2251026"><ele>281.0</ele><time>2026-04-02T09:30:51.907Z</time></trkpt><trkpt lat="43.5590643" lon="11.2249982"><ele>281.0</ele><time>2026-04-02T09:30:52.907Z</time></trkpt><trkpt lat="43.5589515" lon="11.224877"><ele>281.0</ele><time>2026-04-02T09:30:53.907Z</time></trkpt><trkpt lat="43.5588335" lon="11.224751"><ele>281.0</ele><time>2026-04-02T09:30:54.907Z</time></trkpt><trkpt lat="43.5587113" lon="11.2246557"><ele>281.0</ele><time>2026-04-02T09:30:55.907Z</time></trkpt><trkpt lat="43.5585934" lon="11.2245843"><ele>284.25</ele><time>2026-04-02T09:30:56.906Z</time></trkpt><trkpt lat="43.5584565" lon="11.2245794"><ele>287.5</ele><time>2026-04-02T09:30:57.907Z</time></trkpt><trkpt lat="43.5583252" lon="11.2246072"><ele>290.75</ele><time>2026-04-02T09:30:58.907Z</time></trkpt><trkpt lat="43.5582046" lon="11.2246161"><ele>294.0</ele><time>2026-04-02T09:30:59.907Z</time></trkpt><trkpt lat="43.5580934" lon="11.2246007"><ele>294.0</ele><time>2026-04-02T09:31:00.907Z</time></trkpt><trkpt lat="43.5579913" lon="11.2245527"><ele>294.0</ele><time>2026-04-02T09:31:01.907Z</time></trkpt><trkpt lat="43.5579051" lon="11.2244344"><ele>294.0</ele><time>2026-04-02T09:31:02.907Z</time></trkpt><trkpt lat="43.5578213" lon="11.2242829"><ele>294.0</ele><time>2026-04-02T09:31:03.906Z</time></trkpt><trkpt lat="43.557724" lon="11.2241196"><ele>296.0</ele><time>2026-04-02T09:31:04.907Z</time></trkpt><trkpt lat="43.5576028" lon="11.2239563"><ele>298.0</ele><time>2026-04-02T09:31:05.907Z</time></trkpt><trkpt lat="43.5574704" lon="11.2238037"><ele>300.0</ele><time>2026-04-02T09:31:06.906Z</time></trkpt><trkpt lat="43.5573495" lon="11.2236753"><ele>300.0</ele><time>2026-04-02T09:31:07.907Z</time></trkpt><trkpt lat="43.5572577" lon="11.223541"><ele>300.0</ele><time>2026-04-02T09:31:08.907Z</time></trkpt><trkpt lat="43.5571852" lon="11.2233787"><ele>300.0</ele><time>2026-04-02T09:31:09.907Z</time></trkpt><trkpt lat="43.5571378" lon="11.2231967"><ele>300.0</ele><time>2026-04-02T09:31:10.907Z</time></trkpt><trkpt lat="43.5570807" lon="11.2230321"><ele>302.25</ele><time>2026-04-02T09:31:11.907Z</time></trkpt><trkpt lat="43.5569872" lon="11.2228846"><ele>304.5</ele><time>2026-04-02T09:31:12.907Z</time></trkpt><trkpt lat="43.5568764" lon="11.2227834"><ele>306.75</ele><time>2026-04-02T09:31:13.907Z</time></trkpt><trkpt lat="43.5567414" lon="11.2227373"><ele>309.0</ele><time>2026-04-02T09:31:14.907Z</time></trkpt><trkpt lat="43.5565975" lon="11.2227373"><ele>309.0</ele><time>2026-04-02T09:31:15.907Z</time></trkpt><trkpt lat="43.5564515" lon="11.2227794"><ele>309.0</ele><time>2026-04-02T09:31:16.907Z</time></trkpt><trkpt lat="43.5562982" lon="11.2227985"><ele>309.0</ele><time>2026-04-02T09:31:17.907Z</time></trkpt><trkpt lat="43.556139" lon="11.2227691"><ele>310.6666666666667</ele><time>2026-04-02T09:31:18.907Z</time></trkpt><trkpt lat="43.5559929" lon="11.2227121"><ele>312.33333333333337</ele><time>2026-04-02T09:31:19.907Z</time></trkpt><trkpt lat="43.5558353" lon="11.222669"><ele>314.0</ele><time>2026-04-02T09:31:20.907Z</time></trkpt><trkpt lat="43.5556813" lon="11.2226843"><ele>314.0</ele><time>2026-04-02T09:31:21.907Z</time></trkpt><trkpt lat="43.5555316" lon="11.2227541"><ele>314.0</ele><time>2026-04-02T09:31:22.907Z</time></trkpt><trkpt lat="43.5554052" lon="11.2228013"><ele>314.0</ele><time>2026-04-02T09:31:23.907Z</time></trkpt><trkpt lat="43.5552656" lon="11.2228021"><ele>314.0</ele><time>2026-04-02T09:31:24.907Z</time></trkpt><trkpt lat="43.5551128" lon="11.2227697"><ele>314.33333333333337</ele><time>2026-04-02T09:31:25.907Z</time></trkpt><trkpt lat="43.5549553" lon="11.2227034"><ele>314.6666666666667</ele><time>2026-04-02T09:31:26.907Z</time></trkpt><trkpt lat="43.5547862" lon="11.2226076"><ele>315.0</ele><time>2026-04-02T09:31:27.907Z</time></trkpt><trkpt lat="43.5546054" lon="11.2225142"><ele>317.6666666666667</ele><time>2026-04-02T09:31:28.907Z</time></trkpt><trkpt lat="43.5544191" lon="11.2224155"><ele>320.33333333333337</ele><time>2026-04-02T09:31:29.907Z</time></trkpt><trkpt lat="43.5542368" lon="11.2222919"><ele>323.0</ele><time>2026-04-02T09:31:30.907Z</time></trkpt><trkpt lat="43.5540557" lon="11.2221733"><ele>323.0</ele><time>2026-04-02T09:31:31.907Z</time></trkpt><trkpt lat="43.5539329" lon="11.2220145"><ele>323.0</ele><time>2026-04-02T09:31:32.907Z</time></trkpt><trkpt lat="43.5537823" lon="11.2218872"><ele>323.0</ele><time>2026-04-02T09:31:33.906Z</time></trkpt><trkpt lat="43.553598" lon="11.2218063"><ele>320.0</ele><time>2026-04-02T09:31:34.907Z</time></trkpt><trkpt lat="43.5534162" lon="11.2217266"><ele>317.0</ele><time>2026-04-02T09:31:35.907Z</time></trkpt><trkpt lat="43.5532486" lon="11.2216663"><ele>314.0</ele><time>2026-04-02T09:31:36.907Z</time></trkpt><trkpt lat="43.5530951" lon="11.2216037"><ele>314.0</ele><time>2026-04-02T09:31:37.907Z</time></trkpt><trkpt lat="43.5529321" lon="11.2215708"><ele>314.0</ele><time>2026-04-02T09:31:38.907Z</time></trkpt><trkpt lat="43.5527527" lon="11.2215729"><ele>314.0</ele><time>2026-04-02T09:31:39.907Z</time></trkpt><trkpt lat="43.5525717" lon="11.2215925"><ele>315.0</ele><time>2026-04-02T09:31:40.907Z</time></trkpt><trkpt lat="43.5523953" lon="11.2216375"><ele>316.0</ele><time>2026-04-02T09:31:41.907Z</time></trkpt><trkpt lat="43.5522317" lon="11.2216943"><ele>317.0</ele><time>2026-04-02T09:31:42.907Z</time></trkpt><trkpt lat="43.5520709" lon="11.2217662"><ele>320.33333333333337</ele><time>2026-04-02T09:31:43.907Z</time></trkpt><trkpt lat="43.5519136" lon="11.2218792"><ele>323.6666666666667</ele><time>2026-04-02T09:31:44.907Z</time></trkpt><trkpt lat="43.5517605" lon="11.2219884"><ele>327.0</ele><time>2026-04-02T09:31:45.907Z</time></trkpt><trkpt lat="43.5516227" lon="11.2221925"><ele>326.0</ele><time>2026-04-02T09:31:46.907Z</time></trkpt><trkpt lat="43.5514723" lon="11.2223502"><ele>325.0</ele><time>2026-04-02T09:31:47.907Z</time></trkpt><trkpt lat="43.5513262" lon="11.2225175"><ele>324.0</ele><time>2026-04-02T09:31:48.907Z</time></trkpt><trkpt lat="43.5511907" lon="11.2226674"><ele>327.25</ele><time>2026-04-02T09:31:49.907Z</time></trkpt><trkpt lat="43.551071" lon="11.222807"><ele>330.5</ele><time>2026-04-02T09:31:50.907Z</time></trkpt><trkpt lat="43.5509395" lon="11.2228886"><ele>333.75</ele><time>2026-04-02T09:31:51.907Z</time></trkpt><trkpt lat="43.5508012" lon="11.2229455"><ele>337.0</ele><time>2026-04-02T09:31:52.907Z</time></trkpt><trkpt lat="43.5506436" lon="11.2229674"><ele>337.0</ele><time>2026-04-02T09:31:53.907Z</time></trkpt><trkpt lat="43.5504669" lon="11.222999"><ele>337.0</ele><time>2026-04-02T09:31:54.907Z</time></trkpt><trkpt lat="43.5502806" lon="11.2230709"><ele>337.0</ele><time>2026-04-02T09:31:55.906Z</time></trkpt><trkpt lat="43.5500943" lon="11.2231877"><ele>335.3333333333333</ele><time>2026-04-02T09:31:56.907Z</time></trkpt><trkpt lat="43.5499013" lon="11.2233158"><ele>333.6666666666667</ele><time>2026-04-02T09:31:57.907Z</time></trkpt><trkpt lat="43.5497047" lon="11.223459"><ele>332.0</ele><time>2026-04-02T09:31:58.907Z</time></trkpt><trkpt lat="43.5494979" lon="11.2236167"><ele>338.5</ele><time>2026-04-02T09:31:59.907Z</time></trkpt><trkpt lat="43.5492896" lon="11.2237764"><ele>345.0</ele><time>2026-04-02T09:32:00.907Z</time></trkpt><trkpt lat="43.5490896" lon="11.2239296"><ele>345.0</ele><time>2026-04-02T09:32:01.907Z</time></trkpt><trkpt lat="43.5488917" lon="11.2240643"><ele>345.0</ele><time>2026-04-02T09:32:02.907Z</time></trkpt><trkpt lat="43.5487029" lon="11.2241861"><ele>345.0</ele><time>2026-04-02T09:32:03.907Z</time></trkpt><trkpt lat="43.5485296" lon="11.2243069"><ele>345.0</ele><time>2026-04-02T09:32:04.906Z</time></trkpt><trkpt lat="43.5483829" lon="11.2244245"><ele>345.0</ele><time>2026-04-02T09:32:05.907Z</time></trkpt><trkpt lat="43.5482471" lon="11.224561"><ele>345.0</ele><time>2026-04-02T09:32:06.907Z</time></trkpt><trkpt lat="43.5481482" lon="11.2247546"><ele>342.0</ele><time>2026-04-02T09:32:07.907Z</time></trkpt><trkpt lat="43.5480733" lon="11.2249761"><ele>339.0</ele><time>2026-04-02T09:32:08.907Z</time></trkpt><trkpt lat="43.548006" lon="11.2252088"><ele>336.0</ele><time>2026-04-02T09:32:09.907Z</time></trkpt><trkpt lat="43.5479212" lon="11.2254395"><ele>340.6666666666667</ele><time>2026-04-02T09:32:10.907Z</time></trkpt><trkpt lat="43.5478256" lon="11.2256667"><ele>345.33333333333337</ele><time>2026-04-02T09:32:11.907Z</time></trkpt><trkpt lat="43.5477272" lon="11.2258669"><ele>350.0</ele><time>2026-04-02T09:32:12.906Z</time></trkpt><trkpt lat="43.5476135" lon="11.2260535"><ele>350.0</ele><time>2026-04-02T09:32:13.906Z</time></trkpt><trkpt lat="43.5474858" lon="11.2262269"><ele>350.0</ele><time>2026-04-02T09:32:14.907Z</time></trkpt><trkpt lat="43.547355" lon="11.2263712"><ele>350.0</ele><time>2026-04-02T09:32:15.907Z</time></trkpt><trkpt lat="43.5472247" lon="11.2264939"><ele>350.0</ele><time>2026-04-02T09:32:16.907Z</time></trkpt><trkpt lat="43.5471342" lon="11.226566"><ele>350.0</ele><time>2026-04-02T09:32:17.907Z</time></trkpt><trkpt lat="43.5470253" lon="11.2266385"><ele>350.0</ele><time>2026-04-02T09:32:19.907Z</time></trkpt><trkpt lat="43.5469385" lon="11.2267119"><ele>350.0</ele><time>2026-04-02T09:32:20.907Z</time></trkpt><trkpt lat="43.54684" lon="11.2268208"><ele>350.0</ele><time>2026-04-02T09:32:21.907Z</time></trkpt><trkpt lat="43.5467126" lon="11.2269578"><ele>350.0</ele><time>2026-04-02T09:32:22.907Z</time></trkpt><trkpt lat="43.5465625" lon="11.2270856"><ele>350.0</ele><time>2026-04-02T09:32:23.906Z</time></trkpt><trkpt lat="43.546371" lon="11.2272384"><ele>350.6666666666667</ele><time>2026-04-02T09:32:24.907Z</time></trkpt><trkpt lat="43.5461873" lon="11.2273833"><ele>351.3333333333333</ele><time>2026-04-02T09:32:25.906Z</time></trkpt><trkpt lat="43.5460077" lon="11.2275237"><ele>352.0</ele><time>2026-04-02T09:32:26.907Z</time></trkpt><trkpt lat="43.5458245" lon="11.2276662"><ele>352.0</ele><time>2026-04-02T09:32:27.907Z</time></trkpt><trkpt lat="43.5456433" lon="11.2278078"><ele>352.0</ele><time>2026-04-02T09:32:28.907Z</time></trkpt><trkpt lat="43.545462" lon="11.2279464"><ele>352.0</ele><time>2026-04-02T09:32:29.907Z</time></trkpt><trkpt lat="43.5452791" lon="11.2280855"><ele>353.66666666666663</ele><time>2026-04-02T09:32:30.907Z</time></trkpt><trkpt lat="43.5450957" lon="11.2282261"><ele>355.3333333333333</ele><time>2026-04-02T09:32:31.907Z</time></trkpt><trkpt lat="43.5449181" lon="11.2283652"><ele>357.0</ele><time>2026-04-02T09:32:32.907Z</time></trkpt><trkpt lat="43.5447377" lon="11.2285033"><ele>357.0</ele><time>2026-04-02T09:32:33.906Z</time></trkpt><trkpt lat="43.5445631" lon="11.2286352"><ele>357.0</ele><time>2026-04-02T09:32:34.907Z</time></trkpt><trkpt lat="43.544394" lon="11.2287691"><ele>357.0</ele><time>2026-04-02T09:32:35.906Z</time></trkpt><trkpt lat="43.5442275" lon="11.2289015"><ele>359.0</ele><time>2026-04-02T09:32:36.907Z</time></trkpt><trkpt lat="43.5440558" lon="11.2290388"><ele>361.0</ele><time>2026-04-02T09:32:37.907Z</time></trkpt><trkpt lat="43.5438881" lon="11.2291755"><ele>363.0</ele><time>2026-04-02T09:32:38.907Z</time></trkpt><trkpt lat="43.5437183" lon="11.2293155"><ele>363.6666666666667</ele><time>2026-04-02T09:32:39.907Z</time></trkpt><trkpt lat="43.5435476" lon="11.2294527"><ele>364.33333333333337</ele><time>2026-04-02T09:32:40.907Z</time></trkpt><trkpt lat="43.5433759" lon="11.2295781"><ele>365.0</ele><time>2026-04-02T09:32:41.907Z</time></trkpt><trkpt lat="43.543208" lon="11.2296821"><ele>365.0</ele><time>2026-04-02T09:32:42.907Z</time></trkpt><trkpt lat="43.5430373" lon="11.2297655"><ele>365.0</ele><time>2026-04-02T09:32:43.907Z</time></trkpt><trkpt lat="43.5428543" lon="11.2298366"><ele>365.0</ele><time>2026-04-02T09:32:44.907Z</time></trkpt><trkpt lat="43.5426674" lon="11.2299099"><ele>365.0</ele><time>2026-04-02T09:32:45.907Z</time></trkpt><trkpt lat="43.5424795" lon="11.2299815"><ele>365.0</ele><time>2026-04-02T09:32:46.907Z</time></trkpt><trkpt lat="43.5422855" lon="11.2300557"><ele>365.0</ele><time>2026-04-02T09:32:47.907Z</time></trkpt><trkpt lat="43.5420894" lon="11.2301314"><ele>365.33333333333337</ele><time>2026-04-02T09:32:48.907Z</time></trkpt><trkpt lat="43.5418933" lon="11.2302034"><ele>365.6666666666667</ele><time>2026-04-02T09:32:49.907Z</time></trkpt><trkpt lat="43.5416923" lon="11.2302801"><ele>366.0</ele><time>2026-04-02T09:32:50.907Z</time></trkpt><trkpt lat="43.5414884" lon="11.2303568"><ele>366.0</ele><time>2026-04-02T09:32:51.907Z</time></trkpt><trkpt lat="43.5412811" lon="11.2304366"><ele>366.0</ele><time>2026-04-02T09:32:52.907Z</time></trkpt><trkpt lat="43.541067" lon="11.2305149"><ele>366.0</ele><time>2026-04-02T09:32:53.907Z</time></trkpt><trkpt lat="43.540846" lon="11.2306017"><ele>368.0</ele><time>2026-04-02T09:32:54.907Z</time></trkpt><trkpt lat="43.540622" lon="11.2307044"><ele>370.0</ele><time>2026-04-02T09:32:55.907Z</time></trkpt><trkpt lat="43.5403945" lon="11.2308187"><ele>371.5</ele><time>2026-04-02T09:32:56.907Z</time></trkpt><trkpt lat="43.5401669" lon="11.2309343"><ele>373.0</ele><time>2026-04-02T09:32:57.907Z</time></trkpt><trkpt lat="43.5399473" lon="11.2310451"><ele>373.0</ele><time>2026-04-02T09:32:58.906Z</time></trkpt><trkpt lat="43.5397425" lon="11.2311514"><ele>373.0</ele><time>2026-04-02T09:32:59.907Z</time></trkpt><trkpt lat="43.5395467" lon="11.2312506"><ele>373.0</ele><time>2026-04-02T09:33:00.907Z</time></trkpt><trkpt lat="43.5393633" lon="11.2313505"><ele>373.0</ele><time>2026-04-02T09:33:01.907Z</time></trkpt><trkpt lat="43.539192" lon="11.2314493"><ele>373.0</ele><time>2026-04-02T09:33:02.906Z</time></trkpt><trkpt lat="43.5390331" lon="11.2315513"><ele>373.0</ele><time>2026-04-02T09:33:03.907Z</time></trkpt><trkpt lat="43.5388842" lon="11.2316621"><ele>373.0</ele><time>2026-04-02T09:33:04.907Z</time></trkpt><trkpt lat="43.5387506" lon="11.231782"><ele>373.0</ele><time>2026-04-02T09:33:05.907Z</time></trkpt><trkpt lat="43.5386351" lon="11.2319318"><ele>373.0</ele><time>2026-04-02T09:33:06.907Z</time></trkpt><trkpt lat="43.5385407" lon="11.2321125"><ele>374.3333333333333</ele><time>2026-04-02T09:33:07.907Z</time></trkpt><trkpt lat="43.538468" lon="11.232311"><ele>375.6666666666667</ele><time>2026-04-02T09:33:08.907Z</time></trkpt><trkpt lat="43.5384181" lon="11.2325288"><ele>377.0</ele><time>2026-04-02T09:33:09.907Z</time></trkpt><trkpt lat="43.5383857" lon="11.2327663"><ele>377.0</ele><time>2026-04-02T09:33:10.907Z</time></trkpt><trkpt lat="43.5383717" lon="11.233028"><ele>377.0</ele><time>2026-04-02T09:33:11.907Z</time></trkpt><trkpt lat="43.5383716" lon="11.2333137"><ele>377.0</ele><time>2026-04-02T09:33:12.907Z</time></trkpt><trkpt lat="43.53837" lon="11.2336264"><ele>377.5</ele><time>2026-04-02T09:33:13.907Z</time></trkpt><trkpt lat="43.5383538" lon="11.233962"><ele>378.0</ele><time>2026-04-02T09:33:14.907Z</time></trkpt><trkpt lat="43.5383378" lon="11.2342943"><ele>380.33333333333337</ele><time>2026-04-02T09:33:15.907Z</time></trkpt><trkpt lat="43.5383268" lon="11.2345994"><ele>382.6666666666667</ele><time>2026-04-02T09:33:16.907Z</time></trkpt><trkpt lat="43.5383159" lon="11.2348788"><ele>385.0</ele><time>2026-04-02T09:33:17.907Z</time></trkpt><trkpt lat="43.5383045" lon="11.235145"><ele>387.33333333333337</ele><time>2026-04-02T09:33:18.907Z</time></trkpt><trkpt lat="43.5382826" lon="11.2353874"><ele>389.66666666666663</ele><time>2026-04-02T09:33:19.907Z</time></trkpt><trkpt lat="43.5382488" lon="11.2356038"><ele>392.0</ele><time>2026-04-02T09:33:20.907Z</time></trkpt><trkpt lat="43.5381938" lon="11.2358167"><ele>393.0</ele><time>2026-04-02T09:33:21.907Z</time></trkpt><trkpt lat="43.5381192" lon="11.2360229"><ele>394.0</ele><time>2026-04-02T09:33:22.907Z</time></trkpt><trkpt lat="43.5380145" lon="11.2362056"><ele>395.0</ele><time>2026-04-02T09:33:23.907Z</time></trkpt><trkpt lat="43.5378846" lon="11.2363567"><ele>395.0</ele><time>2026-04-02T09:33:24.907Z</time></trkpt><trkpt lat="43.5377433" lon="11.2364858"><ele>395.0</ele><time>2026-04-02T09:33:25.907Z</time></trkpt><trkpt lat="43.5376116" lon="11.2366044"><ele>395.0</ele><time>2026-04-02T09:33:26.907Z</time></trkpt><trkpt lat="43.5374798" lon="11.2367158"><ele>395.0</ele><time>2026-04-02T09:33:27.907Z</time></trkpt><trkpt lat="43.5373544" lon="11.2368256"><ele>395.0</ele><time>2026-04-02T09:33:28.907Z</time></trkpt><trkpt lat="43.5372281" lon="11.2369344"><ele>395.0</ele><time>2026-04-02T09:33:29.907Z</time></trkpt><trkpt lat="43.5371075" lon="11.2370516"><ele>395.0</ele><time>2026-04-02T09:33:30.907Z</time></trkpt><trkpt lat="43.5369909" lon="11.2371746"><ele>396.25</ele><time>2026-04-02T09:33:31.907Z</time></trkpt><trkpt lat="43.5368807" lon="11.2373134"><ele>397.5</ele><time>2026-04-02T09:33:32.907Z</time></trkpt><trkpt lat="43.5367778" lon="11.237468"><ele>398.75</ele><time>2026-04-02T09:33:33.907Z</time></trkpt><trkpt lat="43.5366907" lon="11.2376315"><ele>400.0</ele><time>2026-04-02T09:33:34.907Z</time></trkpt><trkpt lat="43.5366222" lon="11.2377895"><ele>400.0</ele><time>2026-04-02T09:33:35.907Z</time></trkpt><trkpt lat="43.5365654" lon="11.2379399"><ele>400.0</ele><time>2026-04-02T09:33:36.907Z</time></trkpt><trkpt lat="43.5365153" lon="11.2380923"><ele>400.0</ele><time>2026-04-02T09:33:37.907Z</time></trkpt><trkpt lat="43.5364764" lon="11.2382238"><ele>400.0</ele><time>2026-04-02T09:33:38.907Z</time></trkpt><trkpt lat="43.536437" lon="11.2383641"><ele>399.6</ele><time>2026-04-02T09:33:39.907Z</time></trkpt><trkpt lat="43.5363964" lon="11.238504"><ele>399.2</ele><time>2026-04-02T09:33:40.907Z</time></trkpt><trkpt lat="43.5363559" lon="11.2386429"><ele>398.79999999999995</ele><time>2026-04-02T09:33:41.907Z</time></trkpt><trkpt lat="43.5363197" lon="11.2387679"><ele>398.4</ele><time>2026-04-02T09:33:42.906Z</time></trkpt><trkpt lat="43.5362782" lon="11.2388833"><ele>398.0</ele><time>2026-04-02T09:33:43.907Z</time></trkpt><trkpt lat="43.5362364" lon="11.2390021"><ele>398.75</ele><time>2026-04-02T09:33:44.907Z</time></trkpt><trkpt lat="43.5362005" lon="11.2391277"><ele>399.5</ele><time>2026-04-02T09:33:45.907Z</time></trkpt><trkpt lat="43.5361519" lon="11.2392666"><ele>400.25</ele><time>2026-04-02T09:33:46.906Z</time></trkpt><trkpt lat="43.5360935" lon="11.2394147"><ele>401.0</ele><time>2026-04-02T09:33:47.907Z</time></trkpt><trkpt lat="43.5360246" lon="11.2395616"><ele>401.0</ele><time>2026-04-02T09:33:48.907Z</time></trkpt><trkpt lat="43.5359556" lon="11.2396953"><ele>401.0</ele><time>2026-04-02T09:33:49.906Z</time></trkpt><trkpt lat="43.5358829" lon="11.2398326"><ele>401.0</ele><time>2026-04-02T09:33:50.907Z</time></trkpt><trkpt lat="43.5358112" lon="11.239963"><ele>401.0</ele><time>2026-04-02T09:33:51.907Z</time></trkpt><trkpt lat="43.5357418" lon="11.2400895"><ele>399.75</ele><time>2026-04-02T09:33:52.907Z</time></trkpt><trkpt lat="43.5356682" lon="11.2402062"><ele>398.5</ele><time>2026-04-02T09:33:53.907Z</time></trkpt><trkpt lat="43.5355899" lon="11.2403183"><ele>397.25</ele><time>2026-04-02T09:33:54.907Z</time></trkpt><trkpt lat="43.5355042" lon="11.2404339"><ele>396.0</ele><time>2026-04-02T09:33:55.907Z</time></trkpt><trkpt lat="43.535416" lon="11.2405463"><ele>394.5</ele><time>2026-04-02T09:33:56.907Z</time></trkpt><trkpt lat="43.5353274" lon="11.2406475"><ele>393.0</ele><time>2026-04-02T09:33:57.907Z</time></trkpt><trkpt lat="43.5352332" lon="11.2407459"><ele>391.5</ele><time>2026-04-02T09:33:58.906Z</time></trkpt><trkpt lat="43.5351352" lon="11.2408396"><ele>390.0</ele><time>2026-04-02T09:33:59.907Z</time></trkpt><trkpt lat="43.5350403" lon="11.2409345"><ele>390.0</ele><time>2026-04-02T09:34:00.907Z</time></trkpt><trkpt lat="43.5349424" lon="11.2410193"><ele>390.0</ele><time>2026-04-02T09:34:01.907Z</time></trkpt><trkpt lat="43.5348532" lon="11.2410984"><ele>390.0</ele><time>2026-04-02T09:34:02.906Z</time></trkpt><trkpt lat="43.5347605" lon="11.241171"><ele>390.0</ele><time>2026-04-02T09:34:03.906Z</time></trkpt><trkpt lat="43.5346645" lon="11.2412442"><ele>390.0</ele><time>2026-04-02T09:34:04.907Z</time></trkpt><trkpt lat="43.5345759" lon="11.2413072"><ele>389.6666666666667</ele><time>2026-04-02T09:34:05.907Z</time></trkpt><trkpt lat="43.5345058" lon="11.2413579"><ele>389.33333333333337</ele><time>2026-04-02T09:34:06.906Z</time></trkpt><trkpt lat="43.5344381" lon="11.2414012"><ele>389.0</ele><time>2026-04-02T09:34:07.906Z</time></trkpt><trkpt lat="43.5343228" lon="11.2414725"><ele>388.6666666666667</ele><time>2026-04-02T09:34:09.907Z</time></trkpt><trkpt lat="43.5342612" lon="11.2415029"><ele>388.33333333333337</ele><time>2026-04-02T09:34:10.907Z</time></trkpt><trkpt lat="43.5341928" lon="11.2415421"><ele>388.0</ele><time>2026-04-02T09:34:11.907Z</time></trkpt><trkpt lat="43.5341209" lon="11.2415807"><ele>388.00000000000006</ele><time>2026-04-02T09:34:12.907Z</time></trkpt><trkpt lat="43.534048" lon="11.2416201"><ele>388.0</ele><time>2026-04-02T09:34:13.907Z</time></trkpt><trkpt lat="43.533963" lon="11.2416588"><ele>388.0</ele><time>2026-04-02T09:34:14.907Z</time></trkpt><trkpt lat="43.5338767" lon="11.2417002"><ele>388.0</ele><time>2026-04-02T09:34:15.907Z</time></trkpt><trkpt lat="43.5337863" lon="11.241733"><ele>388.00000000000006</ele><time>2026-04-02T09:34:16.907Z</time></trkpt><trkpt lat="43.5337048" lon="11.2417628"><ele>388.0</ele><time>2026-04-02T09:34:17.907Z</time></trkpt><trkpt lat="43.5336402" lon="11.2417872"><ele>387.59999999999997</ele><time>2026-04-02T09:34:18.907Z</time></trkpt><trkpt lat="43.5335277" lon="11.2418363"><ele>387.2</ele><time>2026-04-02T09:34:20.907Z</time></trkpt><trkpt lat="43.5334235" lon="11.2418892"><ele>386.8</ele><time>2026-04-02T09:34:22.907Z</time></trkpt><trkpt lat="43.5333449" lon="11.2419055"><ele>386.4</ele><time>2026-04-02T09:34:24.907Z</time></trkpt><trkpt lat="43.5332288" lon="11.2419565"><ele>386.0</ele><time>2026-04-02T09:34:31.907Z</time></trkpt><trkpt lat="43.5331498" lon="11.2419777"><ele>386.0</ele><time>2026-04-02T09:34:32.907Z</time></trkpt><trkpt lat="43.5330582" lon="11.241991"><ele>386.0</ele><time>2026-04-02T09:34:33.907Z</time></trkpt><trkpt lat="43.5329524" lon="11.2420011"><ele>386.0</ele><time>2026-04-02T09:34:34.907Z</time></trkpt><trkpt lat="43.5328323" lon="11.2420092"><ele>386.0</ele><time>2026-04-02T09:34:35.907Z</time></trkpt><trkpt lat="43.5327027" lon="11.242015"><ele>386.0</ele><time>2026-04-02T09:34:36.907Z</time></trkpt><trkpt lat="43.5325743" lon="11.2420051"><ele>386.5</ele><time>2026-04-02T09:34:37.907Z</time></trkpt><trkpt lat="43.5324402" lon="11.2420023"><ele>387.0</ele><time>2026-04-02T09:34:38.906Z</time></trkpt><trkpt lat="43.5323079" lon="11.2420012"><ele>387.5</ele><time>2026-04-02T09:34:39.907Z</time></trkpt><trkpt lat="43.5321756" lon="11.2420118"><ele>388.0</ele><time>2026-04-02T09:34:40.906Z</time></trkpt><trkpt lat="43.5320369" lon="11.2419981"><ele>389.6666666666667</ele><time>2026-04-02T09:34:41.907Z</time></trkpt><trkpt lat="43.5318936" lon="11.2419413"><ele>391.33333333333337</ele><time>2026-04-02T09:34:42.907Z</time></trkpt><trkpt lat="43.5317493" lon="11.2418634"><ele>393.0</ele><time>2026-04-02T09:34:43.907Z</time></trkpt><trkpt lat="43.531605" lon="11.2417633"><ele>393.0</ele><time>2026-04-02T09:34:44.907Z</time></trkpt><trkpt lat="43.5314668" lon="11.2416562"><ele>393.0</ele><time>2026-04-02T09:34:45.907Z</time></trkpt><trkpt lat="43.5313245" lon="11.241536"><ele>393.0</ele><time>2026-04-02T09:34:46.907Z</time></trkpt><trkpt lat="43.5311816" lon="11.2414195"><ele>394.25</ele><time>2026-04-02T09:34:47.907Z</time></trkpt><trkpt lat="43.5310537" lon="11.2413077"><ele>395.5</ele><time>2026-04-02T09:34:48.907Z</time></trkpt><trkpt lat="43.5309371" lon="11.2412088"><ele>396.75</ele><time>2026-04-02T09:34:49.907Z</time></trkpt><trkpt lat="43.5308228" lon="11.2411287"><ele>398.0</ele><time>2026-04-02T09:34:50.907Z</time></trkpt><trkpt lat="43.5307198" lon="11.2410613"><ele>398.0</ele><time>2026-04-02T09:34:51.907Z</time></trkpt><trkpt lat="43.5306237" lon="11.2409967"><ele>398.0</ele><time>2026-04-02T09:34:52.907Z</time></trkpt><trkpt lat="43.5305258" lon="11.2409407"><ele>398.0</ele><time>2026-04-02T09:34:53.907Z</time></trkpt><trkpt lat="43.5304155" lon="11.2408851"><ele>398.0</ele><time>2026-04-02T09:34:54.907Z</time></trkpt><trkpt lat="43.5302884" lon="11.2408295"><ele>398.66666666666663</ele><time>2026-04-02T09:34:55.907Z</time></trkpt><trkpt lat="43.5301503" lon="11.2407717"><ele>399.33333333333337</ele><time>2026-04-02T09:34:56.906Z</time></trkpt><trkpt lat="43.5298606" lon="11.2406795"><ele>400.0</ele><time>2026-04-02T09:34:58.907Z</time></trkpt><trkpt lat="43.5295559" lon="11.240586"><ele>397.33333333333337</ele><time>2026-04-02T09:35:00.907Z</time></trkpt><trkpt lat="43.5293969" lon="11.2405277"><ele>394.66666666666663</ele><time>2026-04-02T09:35:01.906Z</time></trkpt><trkpt lat="43.5292374" lon="11.2404486"><ele>392.0</ele><time>2026-04-02T09:35:02.907Z</time></trkpt><trkpt lat="43.5289046" lon="11.2402352"><ele>394.0</ele><time>2026-04-02T09:35:04.906Z</time></trkpt><trkpt lat="43.5287255" lon="11.2401148"><ele>396.0</ele><time>2026-04-02T09:35:05.907Z</time></trkpt><trkpt lat="43.5285479" lon="11.2399932"><ele>398.0</ele><time>2026-04-02T09:35:06.906Z</time></trkpt><trkpt lat="43.5283698" lon="11.2398678"><ele>399.0</ele><time>2026-04-02T09:35:07.907Z</time></trkpt><trkpt lat="43.5281951" lon="11.2397404"><ele>400.0</ele><time>2026-04-02T09:35:08.907Z</time></trkpt><trkpt lat="43.5280308" lon="11.2396243"><ele>401.0</ele><time>2026-04-02T09:35:09.907Z</time></trkpt><trkpt lat="43.5278667" lon="11.2395161"><ele>401.0</ele><time>2026-04-02T09:35:10.907Z</time></trkpt><trkpt lat="43.5276993" lon="11.239406"><ele>401.0</ele><time>2026-04-02T09:35:11.906Z</time></trkpt><trkpt lat="43.5275274" lon="11.2393004"><ele>401.0</ele><time>2026-04-02T09:35:12.907Z</time></trkpt><trkpt lat="43.5273407" lon="11.2392062"><ele>401.0</ele><time>2026-04-02T09:35:13.907Z</time></trkpt><trkpt lat="43.5271415" lon="11.2391257"><ele>401.0</ele><time>2026-04-02T09:35:14.907Z</time></trkpt><trkpt lat="43.5269319" lon="11.2390542"><ele>401.0</ele><time>2026-04-02T09:35:15.907Z</time></trkpt><trkpt lat="43.5267172" lon="11.2389888"><ele>401.3333333333333</ele><time>2026-04-02T09:35:16.907Z</time></trkpt><trkpt lat="43.5265095" lon="11.2389163"><ele>401.66666666666663</ele><time>2026-04-02T09:35:17.907Z</time></trkpt><trkpt lat="43.5263036" lon="11.2388394"><ele>402.0</ele><time>2026-04-02T09:35:18.907Z</time></trkpt><trkpt lat="43.5261011" lon="11.2387647"><ele>403.33333333333337</ele><time>2026-04-02T09:35:19.906Z</time></trkpt><trkpt lat="43.5259053" lon="11.2386866"><ele>404.6666666666667</ele><time>2026-04-02T09:35:20.907Z</time></trkpt><trkpt lat="43.5257253" lon="11.2386073"><ele>406.0</ele><time>2026-04-02T09:35:21.907Z</time></trkpt><trkpt lat="43.5255532" lon="11.2385331"><ele>406.0</ele><time>2026-04-02T09:35:22.907Z</time></trkpt><trkpt lat="43.5253957" lon="11.2384708"><ele>406.0</ele><time>2026-04-02T09:35:23.907Z</time></trkpt><trkpt lat="43.5252544" lon="11.2384291"><ele>406.0</ele><time>2026-04-02T09:35:24.907Z</time></trkpt><trkpt lat="43.5251124" lon="11.2384234"><ele>406.0</ele><time>2026-04-02T09:35:25.907Z</time></trkpt><trkpt lat="43.524964" lon="11.2384699"><ele>406.0</ele><time>2026-04-02T09:35:26.907Z</time></trkpt><trkpt lat="43.5248204" lon="11.2385672"><ele>406.0</ele><time>2026-04-02T09:35:27.907Z</time></trkpt><trkpt lat="43.5246851" lon="11.2387088"><ele>407.33333333333337</ele><time>2026-04-02T09:35:28.907Z</time></trkpt><trkpt lat="43.5245581" lon="11.2388769"><ele>408.66666666666663</ele><time>2026-04-02T09:35:29.907Z</time></trkpt><trkpt lat="43.5244458" lon="11.239067"><ele>410.0</ele><time>2026-04-02T09:35:30.907Z</time></trkpt><trkpt lat="43.5243579" lon="11.2392857"><ele>410.0</ele><time>2026-04-02T09:35:31.907Z</time></trkpt><trkpt lat="43.5242902" lon="11.2395143"><ele>410.0</ele><time>2026-04-02T09:35:32.907Z</time></trkpt><trkpt lat="43.5242085" lon="11.2397441"><ele>410.0</ele><time>2026-04-02T09:35:33.907Z</time></trkpt><trkpt lat="43.524102" lon="11.2399656"><ele>411.3333333333333</ele><time>2026-04-02T09:35:34.907Z</time></trkpt><trkpt lat="43.5239993" lon="11.2401686"><ele>412.66666666666663</ele><time>2026-04-02T09:35:35.907Z</time></trkpt><trkpt lat="43.5238866" lon="11.2403395"><ele>414.0</ele><time>2026-04-02T09:35:36.907Z</time></trkpt><trkpt lat="43.5237681" lon="11.2404849"><ele>415.33333333333337</ele><time>2026-04-02T09:35:37.906Z</time></trkpt><trkpt lat="43.5236382" lon="11.2406105"><ele>416.6666666666667</ele><time>2026-04-02T09:35:38.907Z</time></trkpt><trkpt lat="43.5234898" lon="11.2407179"><ele>418.0</ele><time>2026-04-02T09:35:39.907Z</time></trkpt><trkpt lat="43.5233199" lon="11.2407978"><ele>418.0</ele><time>2026-04-02T09:35:40.907Z</time></trkpt><trkpt lat="43.5231336" lon="11.2408818"><ele>418.0</ele><time>2026-04-02T09:35:41.907Z</time></trkpt><trkpt lat="43.5229567" lon="11.2410057"><ele>418.0</ele><time>2026-04-02T09:35:42.907Z</time></trkpt><trkpt lat="43.5227796" lon="11.2411613"><ele>417.6666666666667</ele><time>2026-04-02T09:35:43.907Z</time></trkpt><trkpt lat="43.5226188" lon="11.2413508"><ele>417.33333333333337</ele><time>2026-04-02T09:35:44.907Z</time></trkpt><trkpt lat="43.5224703" lon="11.2415669"><ele>417.0</ele><time>2026-04-02T09:35:45.907Z</time></trkpt><trkpt lat="43.5223381" lon="11.2417999"><ele>417.66666666666663</ele><time>2026-04-02T09:35:46.907Z</time></trkpt><trkpt lat="43.5222268" lon="11.242047"><ele>418.3333333333333</ele><time>2026-04-02T09:35:47.907Z</time></trkpt><trkpt lat="43.5221349" lon="11.2423065"><ele>419.0</ele><time>2026-04-02T09:35:48.907Z</time></trkpt><trkpt lat="43.5220569" lon="11.2425713"><ele>421.3333333333333</ele><time>2026-04-02T09:35:49.907Z</time></trkpt><trkpt lat="43.5219912" lon="11.2428408"><ele>423.66666666666663</ele><time>2026-04-02T09:35:50.907Z</time></trkpt><trkpt lat="43.5219294" lon="11.2431029"><ele>426.0</ele><time>2026-04-02T09:35:51.907Z</time></trkpt><trkpt lat="43.5218672" lon="11.2433674"><ele>427.0</ele><time>2026-04-02T09:35:52.907Z</time></trkpt><trkpt lat="43.5218069" lon="11.2436225"><ele>428.0</ele><time>2026-04-02T09:35:53.907Z</time></trkpt><trkpt lat="43.5217502" lon="11.2438824"><ele>429.0</ele><time>2026-04-02T09:35:54.907Z</time></trkpt><trkpt lat="43.5216961" lon="11.244142"><ele>429.0</ele><time>2026-04-02T09:35:55.907Z</time></trkpt><trkpt lat="43.521647" lon="11.2443994"><ele>429.0</ele><time>2026-04-02T09:35:56.907Z</time></trkpt><trkpt lat="43.5215896" lon="11.2446456"><ele>429.0</ele><time>2026-04-02T09:35:57.907Z</time></trkpt><trkpt lat="43.521518" lon="11.2448823"><ele>429.33333333333337</ele><time>2026-04-02T09:35:58.907Z</time></trkpt><trkpt lat="43.5214271" lon="11.2451058"><ele>429.6666666666667</ele><time>2026-04-02T09:35:59.907Z</time></trkpt><trkpt lat="43.5213106" lon="11.2453077"><ele>430.0</ele><time>2026-04-02T09:36:00.906Z</time></trkpt><trkpt lat="43.5211686" lon="11.2454924"><ele>429.0</ele><time>2026-04-02T09:36:01.907Z</time></trkpt><trkpt lat="43.5210051" lon="11.2456495"><ele>428.0</ele><time>2026-04-02T09:36:02.906Z</time></trkpt><trkpt lat="43.5208234" lon="11.245784"><ele>427.0</ele><time>2026-04-02T09:36:03.907Z</time></trkpt><trkpt lat="43.5206442" lon="11.2459052"><ele>427.0</ele><time>2026-04-02T09:36:04.907Z</time></trkpt><trkpt lat="43.5204796" lon="11.2460026"><ele>427.0</ele><time>2026-04-02T09:36:05.907Z</time></trkpt><trkpt lat="43.5203248" lon="11.2460891"><ele>427.0</ele><time>2026-04-02T09:36:06.907Z</time></trkpt><trkpt lat="43.5201642" lon="11.2461869"><ele>426.6666666666667</ele><time>2026-04-02T09:36:07.907Z</time></trkpt><trkpt lat="43.5200057" lon="11.2463143"><ele>426.33333333333337</ele><time>2026-04-02T09:36:08.907Z</time></trkpt><trkpt lat="43.5198534" lon="11.2464723"><ele>426.0</ele><time>2026-04-02T09:36:09.907Z</time></trkpt><trkpt lat="43.5197059" lon="11.2466479"><ele>424.0</ele><time>2026-04-02T09:36:10.907Z</time></trkpt><trkpt lat="43.5195469" lon="11.2468471"><ele>422.0</ele><time>2026-04-02T09:36:11.907Z</time></trkpt><trkpt lat="43.5193686" lon="11.2470407"><ele>420.0</ele><time>2026-04-02T09:36:12.906Z</time></trkpt><trkpt lat="43.5191747" lon="11.2472383"><ele>418.5</ele><time>2026-04-02T09:36:13.906Z</time></trkpt><trkpt lat="43.5189738" lon="11.2474336"><ele>417.0</ele><time>2026-04-02T09:36:14.907Z</time></trkpt><trkpt lat="43.5187679" lon="11.2476133"><ele>415.0</ele><time>2026-04-02T09:36:15.907Z</time></trkpt><trkpt lat="43.5185643" lon="11.2477676"><ele>413.0</ele><time>2026-04-02T09:36:16.907Z</time></trkpt><trkpt lat="43.5183585" lon="11.2478935"><ele>413.0</ele><time>2026-04-02T09:36:17.907Z</time></trkpt><trkpt lat="43.5181416" lon="11.2479872"><ele>413.0</ele><time>2026-04-02T09:36:18.907Z</time></trkpt><trkpt lat="43.5179203" lon="11.2480504"><ele>412.0</ele><time>2026-04-02T09:36:19.907Z</time></trkpt><trkpt lat="43.5176966" lon="11.2480811"><ele>411.0</ele><time>2026-04-02T09:36:20.907Z</time></trkpt><trkpt lat="43.5174794" lon="11.2480932"><ele>410.0</ele><time>2026-04-02T09:36:21.907Z</time></trkpt><trkpt lat="43.5172654" lon="11.2480803"><ele>412.66666666666663</ele><time>2026-04-02T09:36:22.907Z</time></trkpt><trkpt lat="43.5170585" lon="11.2480389"><ele>415.33333333333337</ele><time>2026-04-02T09:36:23.906Z</time></trkpt><trkpt lat="43.516865" lon="11.2479804"><ele>418.0</ele><time>2026-04-02T09:36:24.907Z</time></trkpt><trkpt lat="43.5166831" lon="11.2479147"><ele>418.0</ele><time>2026-04-02T09:36:25.907Z</time></trkpt><trkpt lat="43.5165085" lon="11.2478103"><ele>418.0</ele><time>2026-04-02T09:36:26.907Z</time></trkpt><trkpt lat="43.5163403" lon="11.2476655"><ele>418.0</ele><time>2026-04-02T09:36:27.907Z</time></trkpt><trkpt lat="43.516186" lon="11.2475023"><ele>420.0</ele><time>2026-04-02T09:36:28.907Z</time></trkpt><trkpt lat="43.5160269" lon="11.2473497"><ele>422.0</ele><time>2026-04-02T09:36:29.907Z</time></trkpt><trkpt lat="43.5158467" lon="11.2472192"><ele>424.0</ele><time>2026-04-02T09:36:30.906Z</time></trkpt><trkpt lat="43.5156534" lon="11.2471064"><ele>424.6666666666667</ele><time>2026-04-02T09:36:31.907Z</time></trkpt><trkpt lat="43.5154698" lon="11.2470065"><ele>425.33333333333337</ele><time>2026-04-02T09:36:32.907Z</time></trkpt><trkpt lat="43.515285" lon="11.246926"><ele>426.0</ele><time>2026-04-02T09:36:33.906Z</time></trkpt><trkpt lat="43.5150881" lon="11.2468841"><ele>428.66666666666663</ele><time>2026-04-02T09:36:34.906Z</time></trkpt><trkpt lat="43.5148918" lon="11.2468698"><ele>431.3333333333333</ele><time>2026-04-02T09:36:35.907Z</time></trkpt><trkpt lat="43.5146978" lon="11.2468682"><ele>434.0</ele><time>2026-04-02T09:36:36.906Z</time></trkpt><trkpt lat="43.5145183" lon="11.2468227"><ele>438.3333333333333</ele><time>2026-04-02T09:36:37.907Z</time></trkpt><trkpt lat="43.5143481" lon="11.2467196"><ele>442.66666666666663</ele><time>2026-04-02T09:36:38.907Z</time></trkpt><trkpt lat="43.514181" lon="11.2465812"><ele>447.0</ele><time>2026-04-02T09:36:39.907Z</time></trkpt><trkpt lat="43.5140296" lon="11.2464306"><ele>447.0</ele><time>2026-04-02T09:36:40.907Z</time></trkpt><trkpt lat="43.5139057" lon="11.2462674"><ele>447.0</ele><time>2026-04-02T09:36:41.907Z</time></trkpt><trkpt lat="43.5138176" lon="11.2460942"><ele>447.0</ele><time>2026-04-02T09:36:42.907Z</time></trkpt><trkpt lat="43.5137801" lon="11.2459139"><ele>447.0</ele><time>2026-04-02T09:36:43.907Z</time></trkpt><trkpt lat="43.5137864" lon="11.2457307"><ele>447.0</ele><time>2026-04-02T09:36:44.906Z</time></trkpt><trkpt lat="43.5138332" lon="11.2455425"><ele>447.0</ele><time>2026-04-02T09:36:45.907Z</time></trkpt><trkpt lat="43.5138805" lon="11.2453648"><ele>447.0</ele><time>2026-04-02T09:36:46.907Z</time></trkpt><trkpt lat="43.513891" lon="11.2451905"><ele>448.0</ele><time>2026-04-02T09:36:47.907Z</time></trkpt><trkpt lat="43.5138645" lon="11.2450186"><ele>449.0</ele><time>2026-04-02T09:36:48.907Z</time></trkpt><trkpt lat="43.5137957" lon="11.2448639"><ele>450.0</ele><time>2026-04-02T09:36:49.907Z</time></trkpt><trkpt lat="43.5136822" lon="11.2447258"><ele>451.0</ele><time>2026-04-02T09:36:50.907Z</time></trkpt><trkpt lat="43.5135331" lon="11.2446093"><ele>455.0</ele><time>2026-04-02T09:36:51.907Z</time></trkpt><trkpt lat="43.5133721" lon="11.2444732"><ele>459.0</ele><time>2026-04-02T09:36:52.906Z</time></trkpt><trkpt lat="43.5132162" lon="11.2443261"><ele>463.0</ele><time>2026-04-02T09:36:53.907Z</time></trkpt><trkpt lat="43.5130517" lon="11.2441614"><ele>465.33333333333337</ele><time>2026-04-02T09:36:54.906Z</time></trkpt><trkpt lat="43.512904" lon="11.244013"><ele>467.66666666666663</ele><time>2026-04-02T09:36:55.907Z</time></trkpt><trkpt lat="43.5127741" lon="11.2438859"><ele>470.0</ele><time>2026-04-02T09:36:56.907Z</time></trkpt><trkpt lat="43.5126469" lon="11.2437899"><ele>470.0</ele><time>2026-04-02T09:36:57.907Z</time></trkpt><trkpt lat="43.512514" lon="11.2437452"><ele>470.0</ele><time>2026-04-02T09:36:58.907Z</time></trkpt><trkpt lat="43.512364" lon="11.2437584"><ele>470.0</ele><time>2026-04-02T09:36:59.907Z</time></trkpt><trkpt lat="43.5122006" lon="11.2438153"><ele>469.66666666666663</ele><time>2026-04-02T09:37:00.907Z</time></trkpt><trkpt lat="43.5120116" lon="11.243908"><ele>469.33333333333337</ele><time>2026-04-02T09:37:01.907Z</time></trkpt><trkpt lat="43.5118079" lon="11.2439836"><ele>469.0</ele><time>2026-04-02T09:37:02.907Z</time></trkpt><trkpt lat="43.5115833" lon="11.2440632"><ele>474.0</ele><time>2026-04-02T09:37:03.907Z</time></trkpt><trkpt lat="43.5113587" lon="11.2441468"><ele>479.0</ele><time>2026-04-02T09:37:04.907Z</time></trkpt><trkpt lat="43.5111495" lon="11.2442141"><ele>484.0</ele><time>2026-04-02T09:37:05.906Z</time></trkpt><trkpt lat="43.5109477" lon="11.244251"><ele>484.6666666666667</ele><time>2026-04-02T09:37:06.907Z</time></trkpt><trkpt lat="43.5107476" lon="11.2442378"><ele>485.33333333333337</ele><time>2026-04-02T09:37:07.907Z</time></trkpt><trkpt lat="43.5105479" lon="11.2441904"><ele>486.0</ele><time>2026-04-02T09:37:08.907Z</time></trkpt><trkpt lat="43.5103684" lon="11.2441088"><ele>488.0</ele><time>2026-04-02T09:37:09.907Z</time></trkpt><trkpt lat="43.5101881" lon="11.2440233"><ele>490.0</ele><time>2026-04-02T09:37:10.907Z</time></trkpt><trkpt lat="43.5100609" lon="11.2438087"><ele>492.0</ele><time>2026-04-02T09:37:11.907Z</time></trkpt><trkpt lat="43.5099413" lon="11.2435983"><ele>492.0</ele><time>2026-04-02T09:37:12.907Z</time></trkpt><trkpt lat="43.5098424" lon="11.2433942"><ele>492.0</ele><time>2026-04-02T09:37:13.907Z</time></trkpt><trkpt lat="43.5097398" lon="11.2432201"><ele>492.0</ele><time>2026-04-02T09:37:14.907Z</time></trkpt><trkpt lat="43.5096" lon="11.243072"><ele>494.66666666666663</ele><time>2026-04-02T09:37:15.906Z</time></trkpt><trkpt lat="43.5094394" lon="11.2429612"><ele>497.3333333333333</ele><time>2026-04-02T09:37:16.907Z</time></trkpt><trkpt lat="43.5093039" lon="11.2428792"><ele>500.0</ele><time>2026-04-02T09:37:17.907Z</time></trkpt><trkpt lat="43.5091731" lon="11.2428285"><ele>500.0</ele><time>2026-04-02T09:37:18.907Z</time></trkpt><trkpt lat="43.5090368" lon="11.2428096"><ele>500.0</ele><time>2026-04-02T09:37:19.906Z</time></trkpt><trkpt lat="43.5088975" lon="11.2428323"><ele>500.0</ele><time>2026-04-02T09:37:20.906Z</time></trkpt><trkpt lat="43.5087476" lon="11.2429614"><ele>500.0</ele><time>2026-04-02T09:37:21.907Z</time></trkpt><trkpt lat="43.5085964" lon="11.243067"><ele>500.0</ele><time>2026-04-02T09:37:22.907Z</time></trkpt><trkpt lat="43.5084455" lon="11.2431741"><ele>500.0</ele><time>2026-04-02T09:37:23.907Z</time></trkpt><trkpt lat="43.5082602" lon="11.2431832"><ele>500.0</ele><time>2026-04-02T09:37:24.907Z</time></trkpt><trkpt lat="43.5080732" lon="11.2431927"><ele>500.0</ele><time>2026-04-02T09:37:25.906Z</time></trkpt><trkpt lat="43.5078754" lon="11.2431875"><ele>500.0</ele><time>2026-04-02T09:37:26.907Z</time></trkpt><trkpt lat="43.5076731" lon="11.2431847"><ele>500.0</ele><time>2026-04-02T09:37:27.906Z</time></trkpt><trkpt lat="43.5074752" lon="11.2432012"><ele>500.0</ele><time>2026-04-02T09:37:28.907Z</time></trkpt><trkpt lat="43.5072707" lon="11.2432487"><ele>500.0</ele><time>2026-04-02T09:37:29.906Z</time></trkpt><trkpt lat="43.5070714" lon="11.2433401"><ele>502.66666666666663</ele><time>2026-04-02T09:37:30.907Z</time></trkpt><trkpt lat="43.5068906" lon="11.2434526"><ele>505.33333333333337</ele><time>2026-04-02T09:37:31.907Z</time></trkpt><trkpt lat="43.5067371" lon="11.2435435"><ele>508.0</ele><time>2026-04-02T09:37:32.907Z</time></trkpt><trkpt lat="43.5065734" lon="11.2435935"><ele>508.0</ele><time>2026-04-02T09:37:33.907Z</time></trkpt><trkpt lat="43.5064079" lon="11.24359"><ele>508.0</ele><time>2026-04-02T09:37:34.907Z</time></trkpt><trkpt lat="43.506239" lon="11.2435348"><ele>508.0</ele><time>2026-04-02T09:37:35.907Z</time></trkpt><trkpt lat="43.5060657" lon="11.2434545"><ele>511.33333333333337</ele><time>2026-04-02T09:37:36.907Z</time></trkpt><trkpt lat="43.5058987" lon="11.243375"><ele>514.6666666666666</ele><time>2026-04-02T09:37:37.907Z</time></trkpt><trkpt lat="43.5057217" lon="11.2433209"><ele>518.0</ele><time>2026-04-02T09:37:38.907Z</time></trkpt><trkpt lat="43.5055325" lon="11.2433178"><ele>519.6666666666666</ele><time>2026-04-02T09:37:39.907Z</time></trkpt><trkpt lat="43.5053314" lon="11.2433697"><ele>521.3333333333334</ele><time>2026-04-02T09:37:40.907Z</time></trkpt><trkpt lat="43.5051461" lon="11.2434321"><ele>523.0</ele><time>2026-04-02T09:37:41.907Z</time></trkpt><trkpt lat="43.5049748" lon="11.2435196"><ele>523.0</ele><time>2026-04-02T09:37:42.907Z</time></trkpt><trkpt lat="43.5047953" lon="11.2436702"><ele>523.0</ele><time>2026-04-02T09:37:43.907Z</time></trkpt><trkpt lat="43.5046231" lon="11.2438515"><ele>523.0</ele><time>2026-04-02T09:37:44.907Z</time></trkpt><trkpt lat="43.504449" lon="11.2440391"><ele>523.6666666666667</ele><time>2026-04-02T09:37:45.907Z</time></trkpt><trkpt lat="43.5042821" lon="11.2442062"><ele>524.3333333333334</ele><time>2026-04-02T09:37:46.907Z</time></trkpt><trkpt lat="43.5041247" lon="11.2443681"><ele>525.0</ele><time>2026-04-02T09:37:47.907Z</time></trkpt><trkpt lat="43.5039805" lon="11.2445289"><ele>525.0</ele><time>2026-04-02T09:37:48.907Z</time></trkpt><trkpt lat="43.503842" lon="11.2447088"><ele>525.0</ele><time>2026-04-02T09:37:49.907Z</time></trkpt><trkpt lat="43.503716" lon="11.2449175"><ele>525.0</ele><time>2026-04-02T09:37:50.907Z</time></trkpt><trkpt lat="43.5036021" lon="11.245128"><ele>526.0</ele><time>2026-04-02T09:37:51.907Z</time></trkpt><trkpt lat="43.5034979" lon="11.2453228"><ele>527.0</ele><time>2026-04-02T09:37:52.907Z</time></trkpt><trkpt lat="43.5033856" lon="11.2455045"><ele>528.0</ele><time>2026-04-02T09:37:53.907Z</time></trkpt><trkpt lat="43.5032477" lon="11.2456804"><ele>528.0</ele><time>2026-04-02T09:37:54.907Z</time></trkpt><trkpt lat="43.5030959" lon="11.2458438"><ele>528.0</ele><time>2026-04-02T09:37:55.907Z</time></trkpt><trkpt lat="43.5029444" lon="11.246011"><ele>528.0</ele><time>2026-04-02T09:37:56.907Z</time></trkpt><trkpt lat="43.502812" lon="11.2461903"><ele>527.0</ele><time>2026-04-02T09:37:57.907Z</time></trkpt><trkpt lat="43.502701" lon="11.2463744"><ele>526.0</ele><time>2026-04-02T09:37:58.907Z</time></trkpt><trkpt lat="43.5026221" lon="11.2465322"><ele>525.0</ele><time>2026-04-02T09:37:59.907Z</time></trkpt><trkpt lat="43.5025742" lon="11.2466445"><ele>524.0</ele><time>2026-04-02T09:38:00.907Z</time></trkpt><trkpt lat="43.5025421" lon="11.2467246"><ele>524.0</ele><time>2026-04-02T09:38:01.907Z</time></trkpt><trkpt lat="43.502505" lon="11.2468302"><ele>524.0</ele><time>2026-04-02T09:38:03.907Z</time></trkpt><trkpt lat="43.5024863" lon="11.2469197"><ele>524.0</ele><time>2026-04-02T09:38:05.907Z</time></trkpt><trkpt lat="43.5024676" lon="11.2470154"><ele>524.0</ele><time>2026-04-02T09:38:07.907Z</time></trkpt><trkpt lat="43.5024553" lon="11.2471036"><ele>524.0</ele><time>2026-04-02T09:38:09.907Z</time></trkpt><trkpt lat="43.5025103" lon="11.2470422"><ele>524.0</ele><time>2026-04-02T09:38:13.907Z</time></trkpt><trkpt lat="43.5025342" lon="11.2468862"><ele>524.0</ele><time>2026-04-02T09:38:15.907Z</time></trkpt><trkpt lat="43.502572" lon="11.2467685"><ele>524.0</ele><time>2026-04-02T09:38:17.907Z</time></trkpt><trkpt lat="43.5025054" lon="11.246696"><ele>524.0</ele><time>2026-04-02T09:38:20.907Z</time></trkpt><trkpt lat="43.5024421" lon="11.2467589"><ele>524.0</ele><time>2026-04-02T09:38:22.907Z</time></trkpt><trkpt lat="43.5023433" lon="11.2468351"><ele>524.0</ele><time>2026-04-02T09:38:24.907Z</time></trkpt><trkpt lat="43.502271" lon="11.246867"><ele>524.0</ele><time>2026-04-02T09:38:25.907Z</time></trkpt><trkpt lat="43.5021956" lon="11.2468878"><ele>524.0</ele><time>2026-04-02T09:38:26.907Z</time></trkpt><trkpt lat="43.5021135" lon="11.2469085"><ele>524.0</ele><time>2026-04-02T09:38:27.907Z</time></trkpt><trkpt lat="43.502034" lon="11.2469043"><ele>524.0</ele><time>2026-04-02T09:38:28.907Z</time></trkpt><trkpt lat="43.5019646" lon="11.2468835"><ele>524.0</ele><time>2026-04-02T09:38:29.907Z</time></trkpt><trkpt lat="43.5018932" lon="11.2468526"><ele>524.0</ele><time>2026-04-02T09:38:30.907Z</time></trkpt><trkpt lat="43.501818" lon="11.2468391"><ele>524.0</ele><time>2026-04-02T09:38:31.907Z</time></trkpt><trkpt lat="43.5017366" lon="11.2468461"><ele>523.0</ele><time>2026-04-02T09:38:32.907Z</time></trkpt><trkpt lat="43.5016535" lon="11.2469048"><ele>522.0</ele><time>2026-04-02T09:38:33.907Z</time></trkpt><trkpt lat="43.5015671" lon="11.2469765"><ele>521.0</ele><time>2026-04-02T09:38:34.907Z</time></trkpt><trkpt lat="43.5014923" lon="11.2470451"><ele>520.0</ele><time>2026-04-02T09:38:35.907Z</time></trkpt><trkpt lat="43.5014477" lon="11.2471085"><ele>519.0</ele><time>2026-04-02T09:38:36.907Z</time></trkpt><trkpt lat="43.501396" lon="11.2471733"><ele>518.0</ele><time>2026-04-02T09:38:37.906Z</time></trkpt><trkpt lat="43.5013007" lon="11.2472776"><ele>519.5</ele><time>2026-04-02T09:38:39.906Z</time></trkpt><trkpt lat="43.5012402" lon="11.2473293"><ele>521.0</ele><time>2026-04-02T09:38:40.907Z</time></trkpt><trkpt lat="43.5011467" lon="11.2473446"><ele>522.5</ele><time>2026-04-02T09:38:41.907Z</time></trkpt><trkpt lat="43.5010517" lon="11.2473445"><ele>524.0</ele><time>2026-04-02T09:38:42.907Z</time></trkpt><trkpt lat="43.5009615" lon="11.2473327"><ele>525.5</ele><time>2026-04-02T09:38:43.907Z</time></trkpt><trkpt lat="43.5008783" lon="11.2473204"><ele>527.0</ele><time>2026-04-02T09:38:44.907Z</time></trkpt><trkpt lat="43.5008079" lon="11.2473093"><ele>525.3333333333333</ele><time>2026-04-02T09:38:45.907Z</time></trkpt><trkpt lat="43.5007378" lon="11.2472908"><ele>523.6666666666666</ele><time>2026-04-02T09:38:46.907Z</time></trkpt><trkpt lat="43.5006716" lon="11.2472451"><ele>522.0</ele><time>2026-04-02T09:38:47.907Z</time></trkpt><trkpt lat="43.5006275" lon="11.2471712"><ele>520.3333333333334</ele><time>2026-04-02T09:38:48.907Z</time></trkpt><trkpt lat="43.5005584" lon="11.2470855"><ele>518.6666666666667</ele><time>2026-04-02T09:38:49.907Z</time></trkpt><trkpt lat="43.5005092" lon="11.2469892"><ele>517.0</ele><time>2026-04-02T09:38:50.907Z</time></trkpt><trkpt lat="43.5004917" lon="11.2468303"><ele>517.0</ele><time>2026-04-02T09:38:51.907Z</time></trkpt><trkpt lat="43.5004759" lon="11.2467009"><ele>517.0</ele><time>2026-04-02T09:38:52.907Z</time></trkpt><trkpt lat="43.5004321" lon="11.2465701"><ele>517.0</ele><time>2026-04-02T09:38:53.907Z</time></trkpt><trkpt lat="43.5003833" lon="11.2464741"><ele>517.0</ele><time>2026-04-02T09:38:54.907Z</time></trkpt><trkpt lat="43.5003346" lon="11.2463737"><ele>517.0</ele><time>2026-04-02T09:38:55.907Z</time></trkpt><trkpt lat="43.5002529" lon="11.2462698"><ele>518.0</ele><time>2026-04-02T09:38:56.907Z</time></trkpt><trkpt lat="43.500188" lon="11.2461583"><ele>519.0</ele><time>2026-04-02T09:38:57.907Z</time></trkpt><trkpt lat="43.5001339" lon="11.2460242"><ele>520.0</ele><time>2026-04-02T09:38:58.907Z</time></trkpt><trkpt lat="43.5000848" lon="11.2458791"><ele>521.0</ele><time>2026-04-02T09:38:59.907Z</time></trkpt><trkpt lat="43.5000545" lon="11.245731"><ele>522.0</ele><time>2026-04-02T09:39:00.907Z</time></trkpt><trkpt lat="43.5000271" lon="11.2456027"><ele>520.1666666666666</ele><time>2026-04-02T09:39:01.906Z</time></trkpt><trkpt lat="43.5000044" lon="11.2454863"><ele>518.3333333333334</ele><time>2026-04-02T09:39:02.907Z</time></trkpt><trkpt lat="43.499985" lon="11.2453755"><ele>516.5</ele><time>2026-04-02T09:39:03.907Z</time></trkpt><trkpt lat="43.4999709" lon="11.2452806"><ele>514.6666666666667</ele><time>2026-04-02T09:39:04.907Z</time></trkpt><trkpt lat="43.4999656" lon="11.2451932"><ele>512.8333333333334</ele><time>2026-04-02T09:39:05.907Z</time></trkpt><trkpt lat="43.499915" lon="11.2450551"><ele>511.0</ele><time>2026-04-02T09:39:07.907Z</time></trkpt><trkpt lat="43.499819" lon="11.2450162"><ele>511.0</ele><time>2026-04-02T09:39:09.907Z</time></trkpt><trkpt lat="43.4996967" lon="11.2450583"><ele>511.0</ele><time>2026-04-02T09:39:11.907Z</time></trkpt><trkpt lat="43.4996219" lon="11.2451163"><ele>511.0</ele><time>2026-04-02T09:39:12.907Z</time></trkpt><trkpt lat="43.4995513" lon="11.2451811"><ele>511.0</ele><time>2026-04-02T09:39:13.907Z</time></trkpt><trkpt lat="43.4994738" lon="11.2452561"><ele>511.0</ele><time>2026-04-02T09:39:14.907Z</time></trkpt><trkpt lat="43.4993909" lon="11.245339"><ele>510.50000000000006</ele><time>2026-04-02T09:39:15.907Z</time></trkpt><trkpt lat="43.4993081" lon="11.2454173"><ele>510.0</ele><time>2026-04-02T09:39:16.907Z</time></trkpt><trkpt lat="43.4992323" lon="11.2455042"><ele>509.5</ele><time>2026-04-02T09:39:17.907Z</time></trkpt><trkpt lat="43.4991645" lon="11.2455773"><ele>509.0</ele><time>2026-04-02T09:39:18.907Z</time></trkpt><trkpt lat="43.4991019" lon="11.2456429"><ele>508.50000000000006</ele><time>2026-04-02T09:39:19.907Z</time></trkpt><trkpt lat="43.4990381" lon="11.2457138"><ele>508.0</ele><time>2026-04-02T09:39:20.907Z</time></trkpt><trkpt lat="43.4989772" lon="11.2457842"><ele>508.0</ele><time>2026-04-02T09:39:21.907Z</time></trkpt><trkpt lat="43.4989242" lon="11.2458507"><ele>508.0</ele><time>2026-04-02T09:39:22.907Z</time></trkpt><trkpt lat="43.4988689" lon="11.245916"><ele>508.0</ele><time>2026-04-02T09:39:23.907Z</time></trkpt><trkpt lat="43.4988112" lon="11.2459787"><ele>508.0</ele><time>2026-04-02T09:39:24.907Z</time></trkpt><trkpt lat="43.4987478" lon="11.2460414"><ele>508.0</ele><time>2026-04-02T09:39:25.907Z</time></trkpt><trkpt lat="43.4986925" lon="11.2461051"><ele>508.0</ele><time>2026-04-02T09:39:26.907Z</time></trkpt><trkpt lat="43.4986411" lon="11.2461687"><ele>508.0</ele><time>2026-04-02T09:39:27.907Z</time></trkpt><trkpt lat="43.4985881" lon="11.2462298"><ele>506.4</ele><time>2026-04-02T09:39:28.907Z</time></trkpt><trkpt lat="43.4985365" lon="11.2462937"><ele>504.79999999999995</ele><time>2026-04-02T09:39:29.907Z</time></trkpt><trkpt lat="43.498441" lon="11.2464033"><ele>503.2</ele><time>2026-04-02T09:39:31.907Z</time></trkpt><trkpt lat="43.4983263" lon="11.2464633"><ele>501.6</ele><time>2026-04-02T09:39:33.907Z</time></trkpt><trkpt lat="43.4982379" lon="11.2463972"><ele>500.0</ele><time>2026-04-02T09:39:35.907Z</time></trkpt><trkpt lat="43.4982041" lon="11.2463122"><ele>498.0</ele><time>2026-04-02T09:39:36.907Z</time></trkpt><trkpt lat="43.4981674" lon="11.246192"><ele>496.0</ele><time>2026-04-02T09:39:37.907Z</time></trkpt><trkpt lat="43.4981318" lon="11.2460591"><ele>494.0</ele><time>2026-04-02T09:39:38.907Z</time></trkpt><trkpt lat="43.4980945" lon="11.2459181"><ele>492.0</ele><time>2026-04-02T09:39:39.907Z</time></trkpt><trkpt lat="43.4980667" lon="11.2457745"><ele>490.0</ele><time>2026-04-02T09:39:40.907Z</time></trkpt><trkpt lat="43.4980464" lon="11.2456281"><ele>487.8</ele><time>2026-04-02T09:39:41.907Z</time></trkpt><trkpt lat="43.4980234" lon="11.2454818"><ele>485.6</ele><time>2026-04-02T09:39:42.907Z</time></trkpt><trkpt lat="43.4980013" lon="11.2453306"><ele>483.4</ele><time>2026-04-02T09:39:43.907Z</time></trkpt><trkpt lat="43.4979886" lon="11.2451877"><ele>481.2</ele><time>2026-04-02T09:39:44.907Z</time></trkpt><trkpt lat="43.4979798" lon="11.2450492"><ele>479.0</ele><time>2026-04-02T09:39:45.906Z</time></trkpt><trkpt lat="43.4979579" lon="11.2449121"><ele>478.66666666666663</ele><time>2026-04-02T09:39:46.907Z</time></trkpt><trkpt lat="43.497933" lon="11.2447891"><ele>478.3333333333333</ele><time>2026-04-02T09:39:47.907Z</time></trkpt><trkpt lat="43.497909" lon="11.2446783"><ele>478.0</ele><time>2026-04-02T09:39:48.907Z</time></trkpt><trkpt lat="43.4978755" lon="11.2445773"><ele>477.66666666666663</ele><time>2026-04-02T09:39:49.907Z</time></trkpt><trkpt lat="43.4978296" lon="11.2444818"><ele>477.3333333333333</ele><time>2026-04-02T09:39:50.907Z</time></trkpt><trkpt lat="43.4977723" lon="11.2443903"><ele>477.0</ele><time>2026-04-02T09:39:51.907Z</time></trkpt><trkpt lat="43.497706" lon="11.2443098"><ele>477.0</ele><time>2026-04-02T09:39:52.907Z</time></trkpt><trkpt lat="43.4976406" lon="11.2442399"><ele>477.0</ele><time>2026-04-02T09:39:53.907Z</time></trkpt><trkpt lat="43.4975728" lon="11.244185"><ele>477.0</ele><time>2026-04-02T09:39:54.907Z</time></trkpt><trkpt lat="43.4974991" lon="11.2441341"><ele>477.0</ele><time>2026-04-02T09:39:55.906Z</time></trkpt><trkpt lat="43.4974195" lon="11.2440952"><ele>477.0</ele><time>2026-04-02T09:39:56.907Z</time></trkpt><trkpt lat="43.49734" lon="11.2440724"><ele>477.0</ele><time>2026-04-02T09:39:57.907Z</time></trkpt><trkpt lat="43.4972615" lon="11.2440662"><ele>477.0</ele><time>2026-04-02T09:39:58.907Z</time></trkpt><trkpt lat="43.4971855" lon="11.2440715"><ele>477.0</ele><time>2026-04-02T09:39:59.907Z</time></trkpt><trkpt lat="43.4971083" lon="11.2440846"><ele>477.0</ele><time>2026-04-02T09:40:00.907Z</time></trkpt><trkpt lat="43.4970276" lon="11.2440946"><ele>477.0</ele><time>2026-04-02T09:40:01.907Z</time></trkpt><trkpt lat="43.4969371" lon="11.2441078"><ele>477.0</ele><time>2026-04-02T09:40:02.907Z</time></trkpt><trkpt lat="43.4968446" lon="11.2441023"><ele>477.0</ele><time>2026-04-02T09:40:03.906Z</time></trkpt><trkpt lat="43.4967531" lon="11.2440789"><ele>477.1666666666667</ele><time>2026-04-02T09:40:04.907Z</time></trkpt><trkpt lat="43.4966678" lon="11.2440278"><ele>477.33333333333337</ele><time>2026-04-02T09:40:05.907Z</time></trkpt><trkpt lat="43.4966006" lon="11.2439716"><ele>477.5</ele><time>2026-04-02T09:40:06.907Z</time></trkpt><trkpt lat="43.4965375" lon="11.243899"><ele>477.6666666666667</ele><time>2026-04-02T09:40:07.907Z</time></trkpt><trkpt lat="43.4964784" lon="11.243801"><ele>477.83333333333337</ele><time>2026-04-02T09:40:08.907Z</time></trkpt><trkpt lat="43.4964275" lon="11.243686"><ele>478.0</ele><time>2026-04-02T09:40:09.907Z</time></trkpt><trkpt lat="43.4963779" lon="11.2435798"><ele>475.6666666666667</ele><time>2026-04-02T09:40:10.907Z</time></trkpt><trkpt lat="43.4963237" lon="11.2434759"><ele>473.33333333333337</ele><time>2026-04-02T09:40:11.907Z</time></trkpt><trkpt lat="43.4962769" lon="11.2433785"><ele>471.0</ele><time>2026-04-02T09:40:12.907Z</time></trkpt><trkpt lat="43.4962303" lon="11.2432763"><ele>468.66666666666663</ele><time>2026-04-02T09:40:13.907Z</time></trkpt><trkpt lat="43.4961845" lon="11.2431668"><ele>466.3333333333333</ele><time>2026-04-02T09:40:14.907Z</time></trkpt><trkpt lat="43.49614" lon="11.2430559"><ele>464.0</ele><time>2026-04-02T09:40:15.907Z</time></trkpt><trkpt lat="43.4960976" lon="11.2429469"><ele>462.99999999999994</ele><time>2026-04-02T09:40:16.907Z</time></trkpt><trkpt lat="43.496055" lon="11.2428443"><ele>462.0</ele><time>2026-04-02T09:40:17.907Z</time></trkpt><trkpt lat="43.4960168" lon="11.2427472"><ele>461.0</ele><time>2026-04-02T09:40:18.907Z</time></trkpt><trkpt lat="43.4959731" lon="11.242651"><ele>460.0</ele><time>2026-04-02T09:40:19.907Z</time></trkpt><trkpt lat="43.4959341" lon="11.2425531"><ele>458.99999999999994</ele><time>2026-04-02T09:40:20.907Z</time></trkpt><trkpt lat="43.4958958" lon="11.2424489"><ele>458.0</ele><time>2026-04-02T09:40:21.907Z</time></trkpt><trkpt lat="43.4958683" lon="11.2423478"><ele>457.66666666666663</ele><time>2026-04-02T09:40:22.907Z</time></trkpt><trkpt lat="43.4958517" lon="11.2422464"><ele>457.3333333333333</ele><time>2026-04-02T09:40:23.907Z</time></trkpt><trkpt lat="43.4958497" lon="11.2421323"><ele>457.0</ele><time>2026-04-02T09:40:24.907Z</time></trkpt><trkpt lat="43.4958638" lon="11.2420173"><ele>456.66666666666663</ele><time>2026-04-02T09:40:25.907Z</time></trkpt><trkpt lat="43.4958864" lon="11.2418962"><ele>456.3333333333333</ele><time>2026-04-02T09:40:26.907Z</time></trkpt><trkpt lat="43.4959121" lon="11.2417816"><ele>456.0</ele><time>2026-04-02T09:40:27.907Z</time></trkpt><trkpt lat="43.4959319" lon="11.2416618"><ele>456.0</ele><time>2026-04-02T09:40:28.907Z</time></trkpt><trkpt lat="43.4959277" lon="11.2415421"><ele>456.0</ele><time>2026-04-02T09:40:29.907Z</time></trkpt><trkpt lat="43.4959287" lon="11.241435"><ele>456.0</ele><time>2026-04-02T09:40:30.907Z</time></trkpt><trkpt lat="43.4959272" lon="11.2413142"><ele>456.0</ele><time>2026-04-02T09:40:31.906Z</time></trkpt><trkpt lat="43.4959172" lon="11.2411675"><ele>456.0</ele><time>2026-04-02T09:40:32.906Z</time></trkpt><trkpt lat="43.495897" lon="11.2410143"><ele>456.20000000000005</ele><time>2026-04-02T09:40:33.907Z</time></trkpt><trkpt lat="43.4958722" lon="11.2408727"><ele>456.40000000000003</ele><time>2026-04-02T09:40:34.907Z</time></trkpt><trkpt lat="43.4958594" lon="11.2407251"><ele>456.6</ele><time>2026-04-02T09:40:35.907Z</time></trkpt><trkpt lat="43.4958655" lon="11.2405628"><ele>456.8</ele><time>2026-04-02T09:40:36.907Z</time></trkpt><trkpt lat="43.4958671" lon="11.2404109"><ele>457.0</ele><time>2026-04-02T09:40:37.907Z</time></trkpt><trkpt lat="43.4958595" lon="11.2402792"><ele>457.0</ele><time>2026-04-02T09:40:38.907Z</time></trkpt><trkpt lat="43.4958426" lon="11.2401509"><ele>457.00000000000006</ele><time>2026-04-02T09:40:39.907Z</time></trkpt><trkpt lat="43.4958221" lon="11.2400272"><ele>457.00000000000006</ele><time>2026-04-02T09:40:40.907Z</time></trkpt><trkpt lat="43.495791" lon="11.2399063"><ele>457.0</ele><time>2026-04-02T09:40:41.907Z</time></trkpt><trkpt lat="43.495758" lon="11.2397838"><ele>457.0</ele><time>2026-04-02T09:40:42.907Z</time></trkpt><trkpt lat="43.4957378" lon="11.2396564"><ele>458.20000000000005</ele><time>2026-04-02T09:40:43.907Z</time></trkpt><trkpt lat="43.4957401" lon="11.239516"><ele>459.40000000000003</ele><time>2026-04-02T09:40:44.907Z</time></trkpt><trkpt lat="43.4957417" lon="11.2393547"><ele>460.59999999999997</ele><time>2026-04-02T09:40:45.907Z</time></trkpt><trkpt lat="43.4957393" lon="11.2392019"><ele>461.79999999999995</ele><time>2026-04-02T09:40:46.907Z</time></trkpt><trkpt lat="43.4957426" lon="11.2390417"><ele>463.0</ele><time>2026-04-02T09:40:47.907Z</time></trkpt><trkpt lat="43.4957394" lon="11.2389121"><ele>463.0</ele><time>2026-04-02T09:40:48.907Z</time></trkpt><trkpt lat="43.4957497" lon="11.238794"><ele>462.99999999999994</ele><time>2026-04-02T09:40:49.907Z</time></trkpt><trkpt lat="43.4957518" lon="11.2386891"><ele>462.99999999999994</ele><time>2026-04-02T09:40:50.907Z</time></trkpt><trkpt lat="43.4957126" lon="11.2385148"><ele>463.0</ele><time>2026-04-02T09:40:52.907Z</time></trkpt><trkpt lat="43.4956791" lon="11.238435"><ele>463.0</ele><time>2026-04-02T09:40:53.907Z</time></trkpt><trkpt lat="43.4955799" lon="11.2383535"><ele>463.00000000000006</ele><time>2026-04-02T09:40:54.907Z</time></trkpt><trkpt lat="43.4955091" lon="11.2382862"><ele>463.0</ele><time>2026-04-02T09:40:55.907Z</time></trkpt><trkpt lat="43.4954458" lon="11.2382156"><ele>463.0</ele><time>2026-04-02T09:40:56.907Z</time></trkpt><trkpt lat="43.4954077" lon="11.2381192"><ele>463.0</ele><time>2026-04-02T09:40:57.907Z</time></trkpt><trkpt lat="43.4953639" lon="11.2380379"><ele>463.00000000000006</ele><time>2026-04-02T09:40:58.907Z</time></trkpt><trkpt lat="43.4953286" lon="11.237938"><ele>463.0</ele><time>2026-04-02T09:40:59.907Z</time></trkpt><trkpt lat="43.4952843" lon="11.2378242"><ele>461.83333333333337</ele><time>2026-04-02T09:41:00.907Z</time></trkpt><trkpt lat="43.4952451" lon="11.2377273"><ele>460.6666666666667</ele><time>2026-04-02T09:41:01.907Z</time></trkpt><trkpt lat="43.4952016" lon="11.2376333"><ele>459.5</ele><time>2026-04-02T09:41:02.907Z</time></trkpt><trkpt lat="43.4951541" lon="11.2375696"><ele>458.33333333333337</ele><time>2026-04-02T09:41:03.907Z</time></trkpt><trkpt lat="43.4951031" lon="11.2375008"><ele>457.1666666666667</ele><time>2026-04-02T09:41:04.907Z</time></trkpt><trkpt lat="43.4950501" lon="11.2374214"><ele>456.0</ele><time>2026-04-02T09:41:05.907Z</time></trkpt><trkpt lat="43.4949943" lon="11.2373399"><ele>454.3333333333333</ele><time>2026-04-02T09:41:06.907Z</time></trkpt><trkpt lat="43.4949303" lon="11.2372511"><ele>452.66666666666663</ele><time>2026-04-02T09:41:07.907Z</time></trkpt><trkpt lat="43.4948535" lon="11.2371794"><ele>451.0</ele><time>2026-04-02T09:41:08.907Z</time></trkpt><trkpt lat="43.4947913" lon="11.2370996"><ele>449.3333333333333</ele><time>2026-04-02T09:41:09.907Z</time></trkpt><trkpt lat="43.4947331" lon="11.2370192"><ele>447.66666666666663</ele><time>2026-04-02T09:41:10.907Z</time></trkpt><trkpt lat="43.4946725" lon="11.2369442"><ele>446.0</ele><time>2026-04-02T09:41:11.907Z</time></trkpt><trkpt lat="43.4946115" lon="11.236881"><ele>446.7142857142857</ele><time>2026-04-02T09:41:12.907Z</time></trkpt><trkpt lat="43.4945401" lon="11.2368401"><ele>447.42857142857144</ele><time>2026-04-02T09:41:13.906Z</time></trkpt><trkpt lat="43.4944728" lon="11.2368021"><ele>448.1428571428571</ele><time>2026-04-02T09:41:14.907Z</time></trkpt><trkpt lat="43.494412" lon="11.2367619"><ele>448.8571428571429</ele><time>2026-04-02T09:41:15.907Z</time></trkpt><trkpt lat="43.4943505" lon="11.2367253"><ele>449.5714285714286</ele><time>2026-04-02T09:41:16.907Z</time></trkpt><trkpt lat="43.4942857" lon="11.2366954"><ele>450.2857142857143</ele><time>2026-04-02T09:41:17.906Z</time></trkpt><trkpt lat="43.4942148" lon="11.2367045"><ele>451.0</ele><time>2026-04-02T09:41:18.907Z</time></trkpt><trkpt lat="43.4941461" lon="11.2367208"><ele>451.0</ele><time>2026-04-02T09:41:19.907Z</time></trkpt><trkpt lat="43.4940659" lon="11.2367494"><ele>451.0</ele><time>2026-04-02T09:41:20.907Z</time></trkpt><trkpt lat="43.4939749" lon="11.2367547"><ele>451.0</ele><time>2026-04-02T09:41:21.907Z</time></trkpt><trkpt lat="43.4938797" lon="11.2367547"><ele>451.0</ele><time>2026-04-02T09:41:22.907Z</time></trkpt><trkpt lat="43.493781" lon="11.2367451"><ele>451.0</ele><time>2026-04-02T09:41:23.907Z</time></trkpt><trkpt lat="43.4936797" lon="11.2367331"><ele>449.20000000000005</ele><time>2026-04-02T09:41:24.907Z</time></trkpt><trkpt lat="43.493583" lon="11.2367418"><ele>447.40000000000003</ele><time>2026-04-02T09:41:25.907Z</time></trkpt><trkpt lat="43.4934909" lon="11.2367834"><ele>445.6</ele><time>2026-04-02T09:41:26.907Z</time></trkpt><trkpt lat="43.4933944" lon="11.2368565"><ele>443.8</ele><time>2026-04-02T09:41:27.907Z</time></trkpt><trkpt lat="43.4932918" lon="11.2369398"><ele>442.0</ele><time>2026-04-02T09:41:28.907Z</time></trkpt><trkpt lat="43.4931833" lon="11.2370178"><ele>442.0</ele><time>2026-04-02T09:41:29.907Z</time></trkpt><trkpt lat="43.4930752" lon="11.2371"><ele>442.0</ele><time>2026-04-02T09:41:30.907Z</time></trkpt><trkpt lat="43.4929673" lon="11.2371818"><ele>442.0</ele><time>2026-04-02T09:41:31.907Z</time></trkpt><trkpt lat="43.4928661" lon="11.2372577"><ele>442.0</ele><time>2026-04-02T09:41:32.906Z</time></trkpt><trkpt lat="43.4927682" lon="11.2373275"><ele>438.6</ele><time>2026-04-02T09:41:33.907Z</time></trkpt><trkpt lat="43.4926737" lon="11.2373917"><ele>435.20000000000005</ele><time>2026-04-02T09:41:34.907Z</time></trkpt><trkpt lat="43.4925916" lon="11.2374552"><ele>431.8</ele><time>2026-04-02T09:41:35.907Z</time></trkpt><trkpt lat="43.4925116" lon="11.2375155"><ele>428.4</ele><time>2026-04-02T09:41:36.907Z</time></trkpt><trkpt lat="43.4924426" lon="11.2375673"><ele>425.0</ele><time>2026-04-02T09:41:37.907Z</time></trkpt><trkpt lat="43.4923612" lon="11.2376467"><ele>425.0</ele><time>2026-04-02T09:41:39.907Z</time></trkpt><trkpt lat="43.4923555" lon="11.2377561"><ele>425.0</ele><time>2026-04-02T09:41:42.907Z</time></trkpt><trkpt lat="43.4924593" lon="11.2378326"><ele>425.0</ele><time>2026-04-02T09:41:44.906Z</time></trkpt><trkpt lat="43.4925502" lon="11.2378742"><ele>425.0</ele><time>2026-04-02T09:41:45.907Z</time></trkpt><trkpt lat="43.4926617" lon="11.2379511"><ele>425.0</ele><time>2026-04-02T09:41:46.907Z</time></trkpt><trkpt lat="43.4927707" lon="11.2380486"><ele>425.66666666666663</ele><time>2026-04-02T09:41:47.907Z</time></trkpt><trkpt lat="43.4928868" lon="11.2381794"><ele>426.33333333333337</ele><time>2026-04-02T09:41:48.907Z</time></trkpt><trkpt lat="43.4929905" lon="11.2383431"><ele>427.0</ele><time>2026-04-02T09:41:49.907Z</time></trkpt><trkpt lat="43.4930704" lon="11.2385403"><ele>427.0</ele><time>2026-04-02T09:41:50.907Z</time></trkpt><trkpt lat="43.4931268" lon="11.2387683"><ele>427.0</ele><time>2026-04-02T09:41:51.907Z</time></trkpt><trkpt lat="43.4931514" lon="11.2389842"><ele>427.0</ele><time>2026-04-02T09:41:52.907Z</time></trkpt><trkpt lat="43.4931773" lon="11.2391693"><ele>426.0</ele><time>2026-04-02T09:41:53.907Z</time></trkpt><trkpt lat="43.4932396" lon="11.2393519"><ele>425.0</ele><time>2026-04-02T09:41:54.907Z</time></trkpt><trkpt lat="43.4933391" lon="11.2395335"><ele>424.0</ele><time>2026-04-02T09:41:55.906Z</time></trkpt><trkpt lat="43.4934664" lon="11.2397076"><ele>422.33333333333337</ele><time>2026-04-02T09:41:56.907Z</time></trkpt><trkpt lat="43.4936125" lon="11.2398872"><ele>420.66666666666663</ele><time>2026-04-02T09:41:57.907Z</time></trkpt><trkpt lat="43.4937535" lon="11.2400808"><ele>419.0</ele><time>2026-04-02T09:41:58.907Z</time></trkpt><trkpt lat="43.4938799" lon="11.240271"><ele>422.0</ele><time>2026-04-02T09:41:59.906Z</time></trkpt><trkpt lat="43.4939893" lon="11.2404592"><ele>425.0</ele><time>2026-04-02T09:42:00.907Z</time></trkpt><trkpt lat="43.4940792" lon="11.2406315"><ele>428.0</ele><time>2026-04-02T09:42:01.907Z</time></trkpt><trkpt lat="43.4941549" lon="11.2408022"><ele>428.0</ele><time>2026-04-02T09:42:02.907Z</time></trkpt><trkpt lat="43.4942106" lon="11.240973"><ele>428.0</ele><time>2026-04-02T09:42:03.907Z</time></trkpt><trkpt lat="43.4942488" lon="11.2411618"><ele>428.0</ele><time>2026-04-02T09:42:04.907Z</time></trkpt><trkpt lat="43.4942669" lon="11.2413658"><ele>428.0</ele><time>2026-04-02T09:42:05.907Z</time></trkpt><trkpt lat="43.4942769" lon="11.2415925"><ele>428.0</ele><time>2026-04-02T09:42:06.907Z</time></trkpt><trkpt lat="43.494283" lon="11.241837"><ele>428.0</ele><time>2026-04-02T09:42:07.907Z</time></trkpt><trkpt lat="43.4942896" lon="11.2420899"><ele>428.0</ele><time>2026-04-02T09:42:08.907Z</time></trkpt><trkpt lat="43.4942938" lon="11.2423531"><ele>428.0</ele><time>2026-04-02T09:42:09.907Z</time></trkpt><trkpt lat="43.4943001" lon="11.2426091"><ele>428.0</ele><time>2026-04-02T09:42:10.907Z</time></trkpt><trkpt lat="43.4943013" lon="11.2428498"><ele>428.0</ele><time>2026-04-02T09:42:11.907Z</time></trkpt><trkpt lat="43.4942884" lon="11.2430732"><ele>429.0</ele><time>2026-04-02T09:42:12.906Z</time></trkpt><trkpt lat="43.4942491" lon="11.2432958"><ele>430.0</ele><time>2026-04-02T09:42:13.907Z</time></trkpt><trkpt lat="43.4941971" lon="11.2435254"><ele>431.0</ele><time>2026-04-02T09:42:14.907Z</time></trkpt><trkpt lat="43.4941285" lon="11.2437471"><ele>431.0</ele><time>2026-04-02T09:42:15.907Z</time></trkpt><trkpt lat="43.4940684" lon="11.2439628"><ele>431.0</ele><time>2026-04-02T09:42:16.907Z</time></trkpt><trkpt lat="43.4940117" lon="11.2441773"><ele>431.0</ele><time>2026-04-02T09:42:17.907Z</time></trkpt><trkpt lat="43.4940193" lon="11.2443984"><ele>432.0</ele><time>2026-04-02T09:42:18.907Z</time></trkpt><trkpt lat="43.4940351" lon="11.2446306"><ele>433.0</ele><time>2026-04-02T09:42:19.907Z</time></trkpt><trkpt lat="43.4940622" lon="11.2448406"><ele>434.0</ele><time>2026-04-02T09:42:20.907Z</time></trkpt><trkpt lat="43.4940643" lon="11.2450302"><ele>434.75</ele><time>2026-04-02T09:42:21.907Z</time></trkpt><trkpt lat="43.4940328" lon="11.2452061"><ele>435.5</ele><time>2026-04-02T09:42:22.907Z</time></trkpt><trkpt lat="43.4939644" lon="11.2453653"><ele>436.25</ele><time>2026-04-02T09:42:23.907Z</time></trkpt><trkpt lat="43.4938524" lon="11.2454583"><ele>437.0</ele><time>2026-04-02T09:42:24.907Z</time></trkpt><trkpt lat="43.4937209" lon="11.2455095"><ele>437.5</ele><time>2026-04-02T09:42:25.907Z</time></trkpt><trkpt lat="43.4935772" lon="11.2455317"><ele>438.0</ele><time>2026-04-02T09:42:26.907Z</time></trkpt><trkpt lat="43.4934432" lon="11.2455805"><ele>438.5</ele><time>2026-04-02T09:42:27.906Z</time></trkpt><trkpt lat="43.4933182" lon="11.2456572"><ele>439.0</ele><time>2026-04-02T09:42:28.907Z</time></trkpt><trkpt lat="43.4931971" lon="11.2457778"><ele>439.0</ele><time>2026-04-02T09:42:29.907Z</time></trkpt><trkpt lat="43.4930822" lon="11.2459349"><ele>439.0</ele><time>2026-04-02T09:42:30.907Z</time></trkpt><trkpt lat="43.4929614" lon="11.2461167"><ele>439.0</ele><time>2026-04-02T09:42:31.907Z</time></trkpt><trkpt lat="43.4928383" lon="11.2463222"><ele>439.0</ele><time>2026-04-02T09:42:32.907Z</time></trkpt><trkpt lat="43.4927116" lon="11.2465428"><ele>439.0</ele><time>2026-04-02T09:42:33.907Z</time></trkpt><trkpt lat="43.492585" lon="11.2467738"><ele>439.0</ele><time>2026-04-02T09:42:34.907Z</time></trkpt><trkpt lat="43.4924707" lon="11.2470022"><ele>439.0</ele><time>2026-04-02T09:42:35.907Z</time></trkpt><trkpt lat="43.4923726" lon="11.2472133"><ele>439.0</ele><time>2026-04-02T09:42:36.907Z</time></trkpt><trkpt lat="43.4922858" lon="11.2474123"><ele>439.0</ele><time>2026-04-02T09:42:37.907Z</time></trkpt><trkpt lat="43.4922137" lon="11.24759"><ele>439.25</ele><time>2026-04-02T09:42:38.907Z</time></trkpt><trkpt lat="43.4921467" lon="11.2477431"><ele>439.5</ele><time>2026-04-02T09:42:39.907Z</time></trkpt><trkpt lat="43.4920713" lon="11.2478815"><ele>439.75</ele><time>2026-04-02T09:42:40.907Z</time></trkpt><trkpt lat="43.4919743" lon="11.2479819"><ele>440.0</ele><time>2026-04-02T09:42:41.907Z</time></trkpt><trkpt lat="43.4918609" lon="11.2480462"><ele>440.0</ele><time>2026-04-02T09:42:42.906Z</time></trkpt><trkpt lat="43.4917338" lon="11.2480662"><ele>440.0</ele><time>2026-04-02T09:42:43.907Z</time></trkpt><trkpt lat="43.4916093" lon="11.2480264"><ele>440.0</ele><time>2026-04-02T09:42:44.907Z</time></trkpt><trkpt lat="43.4914919" lon="11.2479505"><ele>440.0</ele><time>2026-04-02T09:42:45.907Z</time></trkpt><trkpt lat="43.4913792" lon="11.2478625"><ele>440.0</ele><time>2026-04-02T09:42:46.907Z</time></trkpt><trkpt lat="43.4912635" lon="11.2477787"><ele>440.0</ele><time>2026-04-02T09:42:47.907Z</time></trkpt><trkpt lat="43.4911501" lon="11.2476957"><ele>440.0</ele><time>2026-04-02T09:42:48.907Z</time></trkpt><trkpt lat="43.4910359" lon="11.2476175"><ele>440.0</ele><time>2026-04-02T09:42:49.907Z</time></trkpt><trkpt lat="43.4909082" lon="11.2475548"><ele>442.75</ele><time>2026-04-02T09:42:50.907Z</time></trkpt><trkpt lat="43.490772" lon="11.2475166"><ele>445.5</ele><time>2026-04-02T09:42:51.907Z</time></trkpt><trkpt lat="43.490632" lon="11.2474911"><ele>448.25</ele><time>2026-04-02T09:42:52.906Z</time></trkpt><trkpt lat="43.4904817" lon="11.2474799"><ele>451.0</ele><time>2026-04-02T09:42:53.907Z</time></trkpt><trkpt lat="43.4903321" lon="11.2474832"><ele>452.25</ele><time>2026-04-02T09:42:54.907Z</time></trkpt><trkpt lat="43.4901841" lon="11.2474992"><ele>453.5</ele><time>2026-04-02T09:42:55.907Z</time></trkpt><trkpt lat="43.4900387" lon="11.2475296"><ele>454.75</ele><time>2026-04-02T09:42:56.906Z</time></trkpt><trkpt lat="43.4898955" lon="11.247563"><ele>456.0</ele><time>2026-04-02T09:42:57.907Z</time></trkpt><trkpt lat="43.4897554" lon="11.2475683"><ele>456.0</ele><time>2026-04-02T09:42:58.907Z</time></trkpt><trkpt lat="43.4896143" lon="11.2475369"><ele>456.0</ele><time>2026-04-02T09:42:59.907Z</time></trkpt><trkpt lat="43.4894829" lon="11.2474789"><ele>456.0</ele><time>2026-04-02T09:43:00.907Z</time></trkpt><trkpt lat="43.4893596" lon="11.2474307"><ele>456.0</ele><time>2026-04-02T09:43:01.907Z</time></trkpt><trkpt lat="43.4892217" lon="11.2474057"><ele>456.66666666666663</ele><time>2026-04-02T09:43:02.907Z</time></trkpt><trkpt lat="43.4890902" lon="11.2474151"><ele>457.3333333333333</ele><time>2026-04-02T09:43:03.907Z</time></trkpt><trkpt lat="43.4889443" lon="11.247534"><ele>458.0</ele><time>2026-04-02T09:43:04.907Z</time></trkpt><trkpt lat="43.4888127" lon="11.24763"><ele>455.0</ele><time>2026-04-02T09:43:05.907Z</time></trkpt><trkpt lat="43.4886731" lon="11.2477514"><ele>452.0</ele><time>2026-04-02T09:43:06.906Z</time></trkpt><trkpt lat="43.4885528" lon="11.2478817"><ele>449.0</ele><time>2026-04-02T09:43:07.907Z</time></trkpt><trkpt lat="43.4884424" lon="11.2480168"><ele>454.0</ele><time>2026-04-02T09:43:08.907Z</time></trkpt><trkpt lat="43.4883286" lon="11.2481336"><ele>459.0</ele><time>2026-04-02T09:43:09.907Z</time></trkpt><trkpt lat="43.4882023" lon="11.2482247"><ele>464.0</ele><time>2026-04-02T09:43:10.907Z</time></trkpt><trkpt lat="43.4880714" lon="11.2482826"><ele>469.0</ele><time>2026-04-02T09:43:11.907Z</time></trkpt><trkpt lat="43.4879477" lon="11.2483237"><ele>464.5</ele><time>2026-04-02T09:43:12.907Z</time></trkpt><trkpt lat="43.4878318" lon="11.2484025"><ele>460.0</ele><time>2026-04-02T09:43:13.906Z</time></trkpt><trkpt lat="43.48773" lon="11.2485217"><ele>455.5</ele><time>2026-04-02T09:43:14.907Z</time></trkpt><trkpt lat="43.4876649" lon="11.248668"><ele>451.0</ele><time>2026-04-02T09:43:15.907Z</time></trkpt><trkpt lat="43.4876407" lon="11.2488386"><ele>452.25</ele><time>2026-04-02T09:43:16.907Z</time></trkpt><trkpt lat="43.4876414" lon="11.249024"><ele>453.5</ele><time>2026-04-02T09:43:17.906Z</time></trkpt><trkpt lat="43.4876511" lon="11.2491877"><ele>454.75</ele><time>2026-04-02T09:43:18.907Z</time></trkpt><trkpt lat="43.4876652" lon="11.2493347"><ele>456.0</ele><time>2026-04-02T09:43:19.907Z</time></trkpt><trkpt lat="43.4876687" lon="11.2494783"><ele>456.0</ele><time>2026-04-02T09:43:20.906Z</time></trkpt><trkpt lat="43.4876773" lon="11.2496222"><ele>456.0</ele><time>2026-04-02T09:43:21.907Z</time></trkpt><trkpt lat="43.4876904" lon="11.2497593"><ele>456.0</ele><time>2026-04-02T09:43:22.907Z</time></trkpt><trkpt lat="43.4877108" lon="11.249898"><ele>456.0</ele><time>2026-04-02T09:43:23.906Z</time></trkpt><trkpt lat="43.4877394" lon="11.2500356"><ele>456.0</ele><time>2026-04-02T09:43:24.907Z</time></trkpt><trkpt lat="43.4877708" lon="11.2501804"><ele>456.25</ele><time>2026-04-02T09:43:25.906Z</time></trkpt><trkpt lat="43.4878152" lon="11.2503357"><ele>456.5</ele><time>2026-04-02T09:43:26.907Z</time></trkpt><trkpt lat="43.4878665" lon="11.2505007"><ele>456.75</ele><time>2026-04-02T09:43:27.907Z</time></trkpt><trkpt lat="43.4879183" lon="11.2506755"><ele>457.0</ele><time>2026-04-02T09:43:28.906Z</time></trkpt><trkpt lat="43.4879601" lon="11.2508506"><ele>458.5</ele><time>2026-04-02T09:43:29.906Z</time></trkpt><trkpt lat="43.4879727" lon="11.2510119"><ele>460.0</ele><time>2026-04-02T09:43:30.907Z</time></trkpt><trkpt lat="43.4879512" lon="11.2511536"><ele>461.5</ele><time>2026-04-02T09:43:31.907Z</time></trkpt><trkpt lat="43.4878902" lon="11.2512857"><ele>463.0</ele><time>2026-04-02T09:43:32.907Z</time></trkpt><trkpt lat="43.487791" lon="11.2513942"><ele>466.33333333333337</ele><time>2026-04-02T09:43:33.907Z</time></trkpt><trkpt lat="43.4876567" lon="11.2514638"><ele>469.66666666666663</ele><time>2026-04-02T09:43:34.907Z</time></trkpt><trkpt lat="43.4874998" lon="11.2514993"><ele>473.0</ele><time>2026-04-02T09:43:35.907Z</time></trkpt><trkpt lat="43.4873329" lon="11.25151"><ele>473.0</ele><time>2026-04-02T09:43:36.907Z</time></trkpt><trkpt lat="43.4871544" lon="11.25152"><ele>473.0</ele><time>2026-04-02T09:43:37.907Z</time></trkpt><trkpt lat="43.4869888" lon="11.251526"><ele>473.0</ele><time>2026-04-02T09:43:38.907Z</time></trkpt><trkpt lat="43.4868396" lon="11.2515376"><ele>473.25</ele><time>2026-04-02T09:43:39.907Z</time></trkpt><trkpt lat="43.4867008" lon="11.2515634"><ele>473.5</ele><time>2026-04-02T09:43:40.907Z</time></trkpt><trkpt lat="43.4865823" lon="11.2516334"><ele>473.75</ele><time>2026-04-02T09:43:41.907Z</time></trkpt><trkpt lat="43.4864882" lon="11.2517413"><ele>474.0</ele><time>2026-04-02T09:43:42.907Z</time></trkpt><trkpt lat="43.4864234" lon="11.2518836"><ele>474.0</ele><time>2026-04-02T09:43:43.907Z</time></trkpt><trkpt lat="43.4863931" lon="11.252053"><ele>474.0</ele><time>2026-04-02T09:43:44.907Z</time></trkpt><trkpt lat="43.4863946" lon="11.2522455"><ele>474.0</ele><time>2026-04-02T09:43:45.907Z</time></trkpt><trkpt lat="43.4864185" lon="11.2524401"><ele>474.0</ele><time>2026-04-02T09:43:46.907Z</time></trkpt><trkpt lat="43.4864331" lon="11.2526162"><ele>475.75</ele><time>2026-04-02T09:43:47.906Z</time></trkpt><trkpt lat="43.4864294" lon="11.2527819"><ele>477.5</ele><time>2026-04-02T09:43:48.907Z</time></trkpt><trkpt lat="43.4863955" lon="11.2529259"><ele>479.25</ele><time>2026-04-02T09:43:49.907Z</time></trkpt><trkpt lat="43.4863378" lon="11.2530504"><ele>481.0</ele><time>2026-04-02T09:43:50.907Z</time></trkpt><trkpt lat="43.4862416" lon="11.2531315"><ele>480.0</ele><time>2026-04-02T09:43:51.907Z</time></trkpt><trkpt lat="43.486117" lon="11.2531766"><ele>479.0</ele><time>2026-04-02T09:43:52.907Z</time></trkpt><trkpt lat="43.4859833" lon="11.2531718"><ele>478.0</ele><time>2026-04-02T09:43:53.907Z</time></trkpt><trkpt lat="43.4858566" lon="11.2531016"><ele>477.0</ele><time>2026-04-02T09:43:54.907Z</time></trkpt><trkpt lat="43.4857386" lon="11.2529813"><ele>477.0</ele><time>2026-04-02T09:43:55.907Z</time></trkpt><trkpt lat="43.4856213" lon="11.252842"><ele>477.0</ele><time>2026-04-02T09:43:56.907Z</time></trkpt><trkpt lat="43.4854872" lon="11.2527148"><ele>477.0</ele><time>2026-04-02T09:43:57.906Z</time></trkpt><trkpt lat="43.485331" lon="11.2526079"><ele>479.0</ele><time>2026-04-02T09:43:58.907Z</time></trkpt><trkpt lat="43.4851621" lon="11.2525195"><ele>481.0</ele><time>2026-04-02T09:43:59.907Z</time></trkpt><trkpt lat="43.4849949" lon="11.252448"><ele>483.0</ele><time>2026-04-02T09:44:00.907Z</time></trkpt><trkpt lat="43.4848267" lon="11.2523958"><ele>483.0</ele><time>2026-04-02T09:44:01.907Z</time></trkpt><trkpt lat="43.484658" lon="11.2523742"><ele>483.0</ele><time>2026-04-02T09:44:02.907Z</time></trkpt><trkpt lat="43.4845079" lon="11.2523817"><ele>483.0</ele><time>2026-04-02T09:44:03.907Z</time></trkpt><trkpt lat="43.4843727" lon="11.2524136"><ele>482.25</ele><time>2026-04-02T09:44:04.907Z</time></trkpt><trkpt lat="43.4842437" lon="11.2524888"><ele>481.5</ele><time>2026-04-02T09:44:05.907Z</time></trkpt><trkpt lat="43.4841324" lon="11.2526075"><ele>480.75</ele><time>2026-04-02T09:44:06.907Z</time></trkpt><trkpt lat="43.4840468" lon="11.2527704"><ele>480.0</ele><time>2026-04-02T09:44:07.907Z</time></trkpt><trkpt lat="43.4840008" lon="11.2529675"><ele>482.0</ele><time>2026-04-02T09:44:08.907Z</time></trkpt><trkpt lat="43.4839903" lon="11.2531766"><ele>484.0</ele><time>2026-04-02T09:44:09.907Z</time></trkpt><trkpt lat="43.4840224" lon="11.2534106"><ele>486.0</ele><time>2026-04-02T09:44:10.907Z</time></trkpt><trkpt lat="43.4840758" lon="11.2536521"><ele>486.0</ele><time>2026-04-02T09:44:11.907Z</time></trkpt><trkpt lat="43.4841416" lon="11.2539017"><ele>486.0</ele><time>2026-04-02T09:44:12.907Z</time></trkpt><trkpt lat="43.4842066" lon="11.2541426"><ele>486.0</ele><time>2026-04-02T09:44:13.907Z</time></trkpt><trkpt lat="43.4842581" lon="11.2543642"><ele>486.33333333333337</ele><time>2026-04-02T09:44:14.907Z</time></trkpt><trkpt lat="43.4842907" lon="11.2545762"><ele>486.6666666666667</ele><time>2026-04-02T09:44:15.907Z</time></trkpt><trkpt lat="43.4842827" lon="11.2547846"><ele>487.0</ele><time>2026-04-02T09:44:16.907Z</time></trkpt><trkpt lat="43.4842327" lon="11.2549887"><ele>487.0</ele><time>2026-04-02T09:44:17.907Z</time></trkpt><trkpt lat="43.4841658" lon="11.2551929"><ele>487.0</ele><time>2026-04-02T09:44:18.907Z</time></trkpt><trkpt lat="43.4841035" lon="11.2554138"><ele>487.0</ele><time>2026-04-02T09:44:19.907Z</time></trkpt><trkpt lat="43.4840602" lon="11.2556406"><ele>489.6666666666667</ele><time>2026-04-02T09:44:20.907Z</time></trkpt><trkpt lat="43.4840023" lon="11.2558592"><ele>492.33333333333337</ele><time>2026-04-02T09:44:21.907Z</time></trkpt><trkpt lat="43.4839113" lon="11.2560407"><ele>495.0</ele><time>2026-04-02T09:44:22.907Z</time></trkpt><trkpt lat="43.4838185" lon="11.2561887"><ele>494.25</ele><time>2026-04-02T09:44:23.907Z</time></trkpt><trkpt lat="43.4837349" lon="11.2563401"><ele>493.5</ele><time>2026-04-02T09:44:24.907Z</time></trkpt><trkpt lat="43.4836844" lon="11.2565201"><ele>492.75</ele><time>2026-04-02T09:44:25.907Z</time></trkpt><trkpt lat="43.4836486" lon="11.2566872"><ele>492.0</ele><time>2026-04-02T09:44:26.906Z</time></trkpt><trkpt lat="43.4835944" lon="11.2568293"><ele>492.0</ele><time>2026-04-02T09:44:27.907Z</time></trkpt><trkpt lat="43.4835135" lon="11.256937"><ele>492.0</ele><time>2026-04-02T09:44:28.907Z</time></trkpt><trkpt lat="43.4834034" lon="11.2569944"><ele>492.0</ele><time>2026-04-02T09:44:29.907Z</time></trkpt><trkpt lat="43.4832795" lon="11.2569892"><ele>492.0</ele><time>2026-04-02T09:44:30.907Z</time></trkpt><trkpt lat="43.4831516" lon="11.2569193"><ele>492.0</ele><time>2026-04-02T09:44:31.907Z</time></trkpt><trkpt lat="43.4830167" lon="11.2568063"><ele>492.0</ele><time>2026-04-02T09:44:32.907Z</time></trkpt><trkpt lat="43.4828845" lon="11.2566834"><ele>492.0</ele><time>2026-04-02T09:44:33.907Z</time></trkpt><trkpt lat="43.482754" lon="11.2565408"><ele>493.0</ele><time>2026-04-02T09:44:34.907Z</time></trkpt><trkpt lat="43.4826338" lon="11.2563587"><ele>494.0</ele><time>2026-04-02T09:44:35.907Z</time></trkpt><trkpt lat="43.4825325" lon="11.2561554"><ele>495.0</ele><time>2026-04-02T09:44:36.907Z</time></trkpt><trkpt lat="43.4824471" lon="11.2559604"><ele>495.0</ele><time>2026-04-02T09:44:37.907Z</time></trkpt><trkpt lat="43.4823415" lon="11.2557632"><ele>495.0</ele><time>2026-04-02T09:44:38.907Z</time></trkpt><trkpt lat="43.4822156" lon="11.2555783"><ele>495.0</ele><time>2026-04-02T09:44:39.907Z</time></trkpt><trkpt lat="43.4820652" lon="11.2554097"><ele>494.66666666666663</ele><time>2026-04-02T09:44:40.907Z</time></trkpt><trkpt lat="43.4819226" lon="11.255261"><ele>494.3333333333333</ele><time>2026-04-02T09:44:41.907Z</time></trkpt><trkpt lat="43.4817924" lon="11.2551469"><ele>494.0</ele><time>2026-04-02T09:44:42.907Z</time></trkpt><trkpt lat="43.4816615" lon="11.2550737"><ele>494.0</ele><time>2026-04-02T09:44:43.907Z</time></trkpt><trkpt lat="43.4815233" lon="11.2550482"><ele>494.0</ele><time>2026-04-02T09:44:44.907Z</time></trkpt><trkpt lat="43.4813774" lon="11.2551065"><ele>494.0</ele><time>2026-04-02T09:44:45.907Z</time></trkpt><trkpt lat="43.4812392" lon="11.2552085"><ele>494.0</ele><time>2026-04-02T09:44:46.907Z</time></trkpt><trkpt lat="43.4810981" lon="11.2553435"><ele>491.66666666666663</ele><time>2026-04-02T09:44:47.907Z</time></trkpt><trkpt lat="43.4809482" lon="11.2554879"><ele>489.33333333333337</ele><time>2026-04-02T09:44:48.907Z</time></trkpt><trkpt lat="43.4808135" lon="11.2556222"><ele>487.0</ele><time>2026-04-02T09:44:49.907Z</time></trkpt><trkpt lat="43.4806969" lon="11.25575"><ele>490.75</ele><time>2026-04-02T09:44:50.906Z</time></trkpt><trkpt lat="43.4806011" lon="11.2558934"><ele>494.5</ele><time>2026-04-02T09:44:51.907Z</time></trkpt><trkpt lat="43.4805352" lon="11.256075"><ele>498.25</ele><time>2026-04-02T09:44:52.907Z</time></trkpt><trkpt lat="43.4805069" lon="11.256278"><ele>502.0</ele><time>2026-04-02T09:44:53.907Z</time></trkpt><trkpt lat="43.4805142" lon="11.2565028"><ele>503.75</ele><time>2026-04-02T09:44:54.907Z</time></trkpt><trkpt lat="43.4805414" lon="11.2567034"><ele>505.5</ele><time>2026-04-02T09:44:55.907Z</time></trkpt><trkpt lat="43.4805793" lon="11.2568702"><ele>507.25</ele><time>2026-04-02T09:44:56.907Z</time></trkpt><trkpt lat="43.4806244" lon="11.257008"><ele>509.0</ele><time>2026-04-02T09:44:57.907Z</time></trkpt><trkpt lat="43.4806636" lon="11.257119"><ele>508.99999999999994</ele><time>2026-04-02T09:44:58.907Z</time></trkpt><trkpt lat="43.4806919" lon="11.2572079"><ele>509.0</ele><time>2026-04-02T09:44:59.907Z</time></trkpt><trkpt lat="43.480689" lon="11.257306"><ele>509.0</ele><time>2026-04-02T09:45:01.907Z</time></trkpt><trkpt lat="43.4806373" lon="11.2572192"><ele>509.0</ele><time>2026-04-02T09:45:05.907Z</time></trkpt><trkpt lat="43.4805933" lon="11.2571008"><ele>508.99999999999994</ele><time>2026-04-02T09:45:07.907Z</time></trkpt><trkpt lat="43.4805653" lon="11.257005"><ele>509.0</ele><time>2026-04-02T09:45:08.907Z</time></trkpt><trkpt lat="43.480537" lon="11.2569183"><ele>508.99999999999994</ele><time>2026-04-02T09:45:09.906Z</time></trkpt><trkpt lat="43.4805103" lon="11.2568354"><ele>509.0</ele><time>2026-04-02T09:45:10.907Z</time></trkpt><trkpt lat="43.4804791" lon="11.2567487"><ele>509.0</ele><time>2026-04-02T09:45:11.907Z</time></trkpt><trkpt lat="43.4804417" lon="11.2566664"><ele>509.0</ele><time>2026-04-02T09:45:12.906Z</time></trkpt><trkpt lat="43.4803991" lon="11.2565783"><ele>508.99999999999994</ele><time>2026-04-02T09:45:13.907Z</time></trkpt><trkpt lat="43.4803457" lon="11.2564762"><ele>509.0</ele><time>2026-04-02T09:45:14.907Z</time></trkpt><trkpt lat="43.4803032" lon="11.2563715"><ele>504.16666666666663</ele><time>2026-04-02T09:45:15.907Z</time></trkpt><trkpt lat="43.4802637" lon="11.2562717"><ele>499.3333333333333</ele><time>2026-04-02T09:45:16.907Z</time></trkpt><trkpt lat="43.4802202" lon="11.2561706"><ele>494.5</ele><time>2026-04-02T09:45:17.907Z</time></trkpt><trkpt lat="43.4801848" lon="11.2560708"><ele>489.66666666666663</ele><time>2026-04-02T09:45:18.907Z</time></trkpt><trkpt lat="43.4801586" lon="11.2559694"><ele>484.8333333333333</ele><time>2026-04-02T09:45:19.907Z</time></trkpt><trkpt lat="43.4801334" lon="11.2558048"><ele>480.0</ele><time>2026-04-02T09:45:21.907Z</time></trkpt><trkpt lat="43.4801166" lon="11.2557179"><ele>480.0</ele><time>2026-04-02T09:45:22.907Z</time></trkpt><trkpt lat="43.4800852" lon="11.2556328"><ele>480.0</ele><time>2026-04-02T09:45:23.907Z</time></trkpt><trkpt lat="43.4800474" lon="11.2555506"><ele>480.0</ele><time>2026-04-02T09:45:24.907Z</time></trkpt><trkpt lat="43.4800088" lon="11.2554655"><ele>480.0</ele><time>2026-04-02T09:45:25.906Z</time></trkpt><trkpt lat="43.4799715" lon="11.2553758"><ele>480.0</ele><time>2026-04-02T09:45:26.907Z</time></trkpt><trkpt lat="43.4799385" lon="11.2552947"><ele>480.0</ele><time>2026-04-02T09:45:27.907Z</time></trkpt><trkpt lat="43.4799081" lon="11.2552162"><ele>480.0</ele><time>2026-04-02T09:45:28.906Z</time></trkpt><trkpt lat="43.4798809" lon="11.2550735"><ele>478.6</ele><time>2026-04-02T09:45:30.907Z</time></trkpt><trkpt lat="43.4799098" lon="11.2549334"><ele>477.2</ele><time>2026-04-02T09:45:32.907Z</time></trkpt><trkpt lat="43.4799064" lon="11.2548104"><ele>475.79999999999995</ele><time>2026-04-02T09:45:34.907Z</time></trkpt><trkpt lat="43.47985" lon="11.2547221"><ele>474.4</ele><time>2026-04-02T09:45:36.907Z</time></trkpt><trkpt lat="43.4797185" lon="11.2546946"><ele>473.0</ele><time>2026-04-02T09:45:38.907Z</time></trkpt><trkpt lat="43.479644" lon="11.2546752"><ele>469.66666666666663</ele><time>2026-04-02T09:45:39.907Z</time></trkpt><trkpt lat="43.4795819" lon="11.2546495"><ele>466.3333333333333</ele><time>2026-04-02T09:45:40.906Z</time></trkpt><trkpt lat="43.4794698" lon="11.2545666"><ele>463.0</ele><time>2026-04-02T09:45:42.907Z</time></trkpt><trkpt lat="43.47942" lon="11.2544992"><ele>459.66666666666663</ele><time>2026-04-02T09:45:43.907Z</time></trkpt><trkpt lat="43.4793701" lon="11.2544351"><ele>456.3333333333333</ele><time>2026-04-02T09:45:44.907Z</time></trkpt><trkpt lat="43.4793185" lon="11.2543706"><ele>453.0</ele><time>2026-04-02T09:45:45.907Z</time></trkpt><trkpt lat="43.4792696" lon="11.2543003"><ele>453.0</ele><time>2026-04-02T09:45:46.907Z</time></trkpt><trkpt lat="43.4792317" lon="11.2542264"><ele>452.99999999999994</ele><time>2026-04-02T09:45:47.907Z</time></trkpt><trkpt lat="43.479186" lon="11.2540881"><ele>452.99999999999994</ele><time>2026-04-02T09:45:49.906Z</time></trkpt><trkpt lat="43.4791561" lon="11.2539511"><ele>453.0</ele><time>2026-04-02T09:45:51.907Z</time></trkpt><trkpt lat="43.4791838" lon="11.2538331"><ele>453.0</ele><time>2026-04-02T09:45:53.907Z</time></trkpt><trkpt lat="43.4792933" lon="11.2537638"><ele>451.0</ele><time>2026-04-02T09:45:55.907Z</time></trkpt><trkpt lat="43.479361" lon="11.2537449"><ele>448.99999999999994</ele><time>2026-04-02T09:45:56.907Z</time></trkpt><trkpt lat="43.4794319" lon="11.2537338"><ele>446.99999999999994</ele><time>2026-04-02T09:45:57.907Z</time></trkpt><trkpt lat="43.4795479" lon="11.2537352"><ele>445.0</ele><time>2026-04-02T09:45:59.907Z</time></trkpt><trkpt lat="43.4796633" lon="11.2537292"><ele>443.0</ele><time>2026-04-02T09:46:01.907Z</time></trkpt><trkpt lat="43.4797802" lon="11.2537038"><ele>442.99999999999994</ele><time>2026-04-02T09:46:03.906Z</time></trkpt><trkpt lat="43.4798425" lon="11.2536622"><ele>443.0</ele><time>2026-04-02T09:46:04.907Z</time></trkpt><trkpt lat="43.4798959" lon="11.2535941"><ele>443.0</ele><time>2026-04-02T09:46:05.907Z</time></trkpt><trkpt lat="43.4799451" lon="11.253516"><ele>443.0</ele><time>2026-04-02T09:46:06.907Z</time></trkpt><trkpt lat="43.4799857" lon="11.2534256"><ele>442.99999999999994</ele><time>2026-04-02T09:46:07.907Z</time></trkpt><trkpt lat="43.4800152" lon="11.253315"><ele>443.0</ele><time>2026-04-02T09:46:08.907Z</time></trkpt><trkpt lat="43.4800336" lon="11.2531944"><ele>440.25</ele><time>2026-04-02T09:46:09.907Z</time></trkpt><trkpt lat="43.4800455" lon="11.2530384"><ele>437.5</ele><time>2026-04-02T09:46:10.907Z</time></trkpt><trkpt lat="43.4800553" lon="11.2528643"><ele>434.75</ele><time>2026-04-02T09:46:11.906Z</time></trkpt><trkpt lat="43.4800671" lon="11.2526996"><ele>432.0</ele><time>2026-04-02T09:46:12.907Z</time></trkpt><trkpt lat="43.4800778" lon="11.2525455"><ele>432.0</ele><time>2026-04-02T09:46:13.907Z</time></trkpt><trkpt lat="43.4800879" lon="11.252408"><ele>432.0</ele><time>2026-04-02T09:46:14.907Z</time></trkpt><trkpt lat="43.4801036" lon="11.2522946"><ele>432.0</ele><time>2026-04-02T09:46:15.907Z</time></trkpt><trkpt lat="43.4801138" lon="11.2521916"><ele>432.0</ele><time>2026-04-02T09:46:16.907Z</time></trkpt><trkpt lat="43.4801228" lon="11.2521008"><ele>432.0</ele><time>2026-04-02T09:46:17.907Z</time></trkpt><trkpt lat="43.4800923" lon="11.251953"><ele>432.0</ele><time>2026-04-02T09:46:19.907Z</time></trkpt><trkpt lat="43.4800484" lon="11.2518819"><ele>431.0</ele><time>2026-04-02T09:46:20.907Z</time></trkpt><trkpt lat="43.4800063" lon="11.2518086"><ele>430.0</ele><time>2026-04-02T09:46:21.907Z</time></trkpt><trkpt lat="43.4799551" lon="11.2516608"><ele>429.0</ele><time>2026-04-02T09:46:23.907Z</time></trkpt><trkpt lat="43.4799448" lon="11.2515717"><ele>428.0</ele><time>2026-04-02T09:46:24.907Z</time></trkpt><trkpt lat="43.4799417" lon="11.2514536"><ele>427.0</ele><time>2026-04-02T09:46:25.906Z</time></trkpt><trkpt lat="43.4799391" lon="11.2513317"><ele>426.0</ele><time>2026-04-02T09:46:26.907Z</time></trkpt><trkpt lat="43.4799352" lon="11.2512198"><ele>424.8333333333333</ele><time>2026-04-02T09:46:27.907Z</time></trkpt><trkpt lat="43.4799283" lon="11.2511166"><ele>423.66666666666663</ele><time>2026-04-02T09:46:28.907Z</time></trkpt><trkpt lat="43.4799101" lon="11.2510103"><ele>422.5</ele><time>2026-04-02T09:46:29.906Z</time></trkpt><trkpt lat="43.4798766" lon="11.2508898"><ele>421.3333333333333</ele><time>2026-04-02T09:46:30.907Z</time></trkpt><trkpt lat="43.4798279" lon="11.2507681"><ele>420.16666666666663</ele><time>2026-04-02T09:46:31.907Z</time></trkpt><trkpt lat="43.4797741" lon="11.2506547"><ele>419.0</ele><time>2026-04-02T09:46:32.907Z</time></trkpt><trkpt lat="43.4797248" lon="11.2505415"><ele>417.2</ele><time>2026-04-02T09:46:33.907Z</time></trkpt><trkpt lat="43.4796808" lon="11.2504354"><ele>415.4</ele><time>2026-04-02T09:46:34.907Z</time></trkpt><trkpt lat="43.479638" lon="11.2503257"><ele>413.6</ele><time>2026-04-02T09:46:35.907Z</time></trkpt><trkpt lat="43.479584" lon="11.2502212"><ele>411.8</ele><time>2026-04-02T09:46:36.907Z</time></trkpt><trkpt lat="43.4795117" lon="11.2501396"><ele>410.0</ele><time>2026-04-02T09:46:37.907Z</time></trkpt><trkpt lat="43.4794256" lon="11.2500661"><ele>410.0</ele><time>2026-04-02T09:46:38.907Z</time></trkpt><trkpt lat="43.479321" lon="11.2499982"><ele>410.0</ele><time>2026-04-02T09:46:39.907Z</time></trkpt><trkpt lat="43.4792041" lon="11.2499228"><ele>410.0</ele><time>2026-04-02T09:46:40.907Z</time></trkpt><trkpt lat="43.4790852" lon="11.2498445"><ele>410.0</ele><time>2026-04-02T09:46:41.906Z</time></trkpt><trkpt lat="43.4789675" lon="11.24977"><ele>410.5</ele><time>2026-04-02T09:46:42.907Z</time></trkpt><trkpt lat="43.4788567" lon="11.2497008"><ele>411.0</ele><time>2026-04-02T09:46:43.907Z</time></trkpt><trkpt lat="43.4787575" lon="11.2496157"><ele>411.5</ele><time>2026-04-02T09:46:44.907Z</time></trkpt><trkpt lat="43.4786636" lon="11.249506"><ele>412.0</ele><time>2026-04-02T09:46:45.907Z</time></trkpt><trkpt lat="43.4785874" lon="11.2493828"><ele>412.0</ele><time>2026-04-02T09:46:46.907Z</time></trkpt><trkpt lat="43.4785302" lon="11.2492649"><ele>412.0</ele><time>2026-04-02T09:46:47.907Z</time></trkpt><trkpt lat="43.4784866" lon="11.249131"><ele>412.0</ele><time>2026-04-02T09:46:48.907Z</time></trkpt><trkpt lat="43.4784606" lon="11.248981"><ele>412.0</ele><time>2026-04-02T09:46:49.907Z</time></trkpt><trkpt lat="43.478426" lon="11.2488136"><ele>412.0</ele><time>2026-04-02T09:46:50.907Z</time></trkpt><trkpt lat="43.4783826" lon="11.2486355"><ele>412.25</ele><time>2026-04-02T09:46:51.907Z</time></trkpt><trkpt lat="43.4783326" lon="11.2484686"><ele>412.5</ele><time>2026-04-02T09:46:52.907Z</time></trkpt><trkpt lat="43.4782837" lon="11.2483255"><ele>412.75</ele><time>2026-04-02T09:46:53.907Z</time></trkpt><trkpt lat="43.4782314" lon="11.2481726"><ele>413.0</ele><time>2026-04-02T09:46:54.907Z</time></trkpt><trkpt lat="43.4781735" lon="11.2480161"><ele>413.0</ele><time>2026-04-02T09:46:55.907Z</time></trkpt><trkpt lat="43.4781065" lon="11.2478588"><ele>413.0</ele><time>2026-04-02T09:46:56.907Z</time></trkpt><trkpt lat="43.4780313" lon="11.2476872"><ele>413.0</ele><time>2026-04-02T09:46:57.907Z</time></trkpt><trkpt lat="43.4779652" lon="11.2475188"><ele>413.0</ele><time>2026-04-02T09:46:58.907Z</time></trkpt><trkpt lat="43.4779107" lon="11.247366"><ele>416.59999999999997</ele><time>2026-04-02T09:46:59.907Z</time></trkpt><trkpt lat="43.4778519" lon="11.2472255"><ele>420.2</ele><time>2026-04-02T09:47:00.907Z</time></trkpt><trkpt lat="43.4777952" lon="11.2470933"><ele>423.8</ele><time>2026-04-02T09:47:01.907Z</time></trkpt><trkpt lat="43.4777301" lon="11.2469836"><ele>427.4</ele><time>2026-04-02T09:47:02.907Z</time></trkpt><trkpt lat="43.4776714" lon="11.2468628"><ele>431.0</ele><time>2026-04-02T09:47:03.906Z</time></trkpt><trkpt lat="43.4776172" lon="11.2467159"><ele>431.0</ele><time>2026-04-02T09:47:04.907Z</time></trkpt><trkpt lat="43.4775759" lon="11.2465719"><ele>431.0</ele><time>2026-04-02T09:47:05.907Z</time></trkpt><trkpt lat="43.477529" lon="11.2464314"><ele>431.0</ele><time>2026-04-02T09:47:06.907Z</time></trkpt><trkpt lat="43.4774907" lon="11.2463275"><ele>431.0</ele><time>2026-04-02T09:47:07.907Z</time></trkpt><trkpt lat="43.4774486" lon="11.2462395"><ele>431.0</ele><time>2026-04-02T09:47:08.907Z</time></trkpt><trkpt lat="43.4774008" lon="11.2461651"><ele>430.99999999999994</ele><time>2026-04-02T09:47:09.906Z</time></trkpt><trkpt lat="43.4773553" lon="11.2461003"><ele>431.0</ele><time>2026-04-02T09:47:10.907Z</time></trkpt><trkpt lat="43.4773069" lon="11.2460236"><ele>431.0</ele><time>2026-04-02T09:47:11.906Z</time></trkpt><trkpt lat="43.4772608" lon="11.2459231"><ele>431.0</ele><time>2026-04-02T09:47:12.907Z</time></trkpt><trkpt lat="43.477227" lon="11.2458068"><ele>430.99999999999994</ele><time>2026-04-02T09:47:13.907Z</time></trkpt><trkpt lat="43.4772037" lon="11.2456764"><ele>431.0</ele><time>2026-04-02T09:47:14.907Z</time></trkpt><trkpt lat="43.4771861" lon="11.2455402"><ele>431.99999999999994</ele><time>2026-04-02T09:47:15.907Z</time></trkpt><trkpt lat="43.4771793" lon="11.2454153"><ele>433.0</ele><time>2026-04-02T09:47:16.907Z</time></trkpt><trkpt lat="43.4771813" lon="11.2453016"><ele>434.0</ele><time>2026-04-02T09:47:17.907Z</time></trkpt><trkpt lat="43.4771942" lon="11.2451955"><ele>435.0</ele><time>2026-04-02T09:47:18.907Z</time></trkpt><trkpt lat="43.4772304" lon="11.2450932"><ele>435.99999999999994</ele><time>2026-04-02T09:47:19.907Z</time></trkpt><trkpt lat="43.4772805" lon="11.2449942"><ele>437.0</ele><time>2026-04-02T09:47:20.906Z</time></trkpt><trkpt lat="43.4773171" lon="11.2449035"><ele>436.99999999999994</ele><time>2026-04-02T09:47:21.907Z</time></trkpt><trkpt lat="43.4773429" lon="11.2448138"><ele>437.0</ele><time>2026-04-02T09:47:22.906Z</time></trkpt><trkpt lat="43.4773533" lon="11.244721"><ele>437.0</ele><time>2026-04-02T09:47:23.907Z</time></trkpt><trkpt lat="43.4773443" lon="11.2446341"><ele>437.0</ele><time>2026-04-02T09:47:24.907Z</time></trkpt><trkpt lat="43.4773155" lon="11.2445449"><ele>436.99999999999994</ele><time>2026-04-02T09:47:25.907Z</time></trkpt><trkpt lat="43.47727" lon="11.2444337"><ele>437.0</ele><time>2026-04-02T09:47:26.906Z</time></trkpt><trkpt lat="43.4772262" lon="11.2443299"><ele>436.8</ele><time>2026-04-02T09:47:27.907Z</time></trkpt><trkpt lat="43.4771987" lon="11.2442302"><ele>436.6</ele><time>2026-04-02T09:47:28.906Z</time></trkpt><trkpt lat="43.4771645" lon="11.2441092"><ele>436.40000000000003</ele><time>2026-04-02T09:47:29.907Z</time></trkpt><trkpt lat="43.477121" lon="11.2439736"><ele>436.20000000000005</ele><time>2026-04-02T09:47:30.907Z</time></trkpt><trkpt lat="43.4770808" lon="11.2438371"><ele>436.0</ele><time>2026-04-02T09:47:31.907Z</time></trkpt><trkpt lat="43.4770371" lon="11.2436995"><ele>438.00000000000006</ele><time>2026-04-02T09:47:32.907Z</time></trkpt><trkpt lat="43.4770013" lon="11.2435639"><ele>440.0</ele><time>2026-04-02T09:47:33.907Z</time></trkpt><trkpt lat="43.4769719" lon="11.2434463"><ele>442.0</ele><time>2026-04-02T09:47:34.907Z</time></trkpt><trkpt lat="43.4769428" lon="11.2433482"><ele>444.0</ele><time>2026-04-02T09:47:35.907Z</time></trkpt><trkpt lat="43.4769225" lon="11.2432471"><ele>446.00000000000006</ele><time>2026-04-02T09:47:36.907Z</time></trkpt><trkpt lat="43.4769002" lon="11.2431399"><ele>448.0</ele><time>2026-04-02T09:47:37.907Z</time></trkpt><trkpt lat="43.4768656" lon="11.2430297"><ele>448.0</ele><time>2026-04-02T09:47:38.907Z</time></trkpt><trkpt lat="43.4768192" lon="11.2429068"><ele>448.0</ele><time>2026-04-02T09:47:39.907Z</time></trkpt><trkpt lat="43.4767565" lon="11.2427632"><ele>448.0</ele><time>2026-04-02T09:47:40.906Z</time></trkpt><trkpt lat="43.4766929" lon="11.2426338"><ele>448.0</ele><time>2026-04-02T09:47:41.906Z</time></trkpt><trkpt lat="43.4766263" lon="11.2425043"><ele>448.0</ele><time>2026-04-02T09:47:42.907Z</time></trkpt><trkpt lat="43.4765551" lon="11.2423751"><ele>447.99999999999994</ele><time>2026-04-02T09:47:43.907Z</time></trkpt><trkpt lat="43.4764835" lon="11.2422563"><ele>447.99999999999994</ele><time>2026-04-02T09:47:44.907Z</time></trkpt><trkpt lat="43.4764196" lon="11.2421429"><ele>448.0</ele><time>2026-04-02T09:47:45.907Z</time></trkpt><trkpt lat="43.4763558" lon="11.2420358"><ele>448.0</ele><time>2026-04-02T09:47:46.907Z</time></trkpt><trkpt lat="43.4762962" lon="11.2419319"><ele>445.79999999999995</ele><time>2026-04-02T09:47:47.907Z</time></trkpt><trkpt lat="43.4762346" lon="11.2418298"><ele>443.59999999999997</ele><time>2026-04-02T09:47:48.907Z</time></trkpt><trkpt lat="43.4761701" lon="11.2417274"><ele>441.40000000000003</ele><time>2026-04-02T09:47:49.907Z</time></trkpt><trkpt lat="43.4761013" lon="11.2416394"><ele>439.20000000000005</ele><time>2026-04-02T09:47:50.907Z</time></trkpt><trkpt lat="43.4760322" lon="11.2415564"><ele>437.0</ele><time>2026-04-02T09:47:51.907Z</time></trkpt><trkpt lat="43.4759675" lon="11.2414782"><ele>434.99999999999994</ele><time>2026-04-02T09:47:52.907Z</time></trkpt><trkpt lat="43.4759078" lon="11.2414085"><ele>433.0</ele><time>2026-04-02T09:47:53.907Z</time></trkpt><trkpt lat="43.4758529" lon="11.2413383"><ele>431.0</ele><time>2026-04-02T09:47:54.907Z</time></trkpt><trkpt lat="43.475801" lon="11.2412654"><ele>429.0</ele><time>2026-04-02T09:47:55.907Z</time></trkpt><trkpt lat="43.4757482" lon="11.2411876"><ele>426.99999999999994</ele><time>2026-04-02T09:47:56.907Z</time></trkpt><trkpt lat="43.475695" lon="11.2411132"><ele>425.0</ele><time>2026-04-02T09:47:57.907Z</time></trkpt><trkpt lat="43.4756384" lon="11.2410533"><ele>424.99999999999994</ele><time>2026-04-02T09:47:58.907Z</time></trkpt><trkpt lat="43.4755801" lon="11.2409945"><ele>425.0</ele><time>2026-04-02T09:47:59.907Z</time></trkpt><trkpt lat="43.4755031" lon="11.2409446"><ele>425.0</ele><time>2026-04-02T09:48:00.907Z</time></trkpt><trkpt lat="43.4754224" lon="11.2408957"><ele>425.0</ele><time>2026-04-02T09:48:01.907Z</time></trkpt><trkpt lat="43.4753403" lon="11.2408696"><ele>424.99999999999994</ele><time>2026-04-02T09:48:02.907Z</time></trkpt><trkpt lat="43.4752613" lon="11.2408395"><ele>425.0</ele><time>2026-04-02T09:48:03.907Z</time></trkpt><trkpt lat="43.4751853" lon="11.2408189"><ele>424.6</ele><time>2026-04-02T09:48:04.907Z</time></trkpt><trkpt lat="43.4751117" lon="11.2407942"><ele>424.2</ele><time>2026-04-02T09:48:05.907Z</time></trkpt><trkpt lat="43.4750351" lon="11.2407403"><ele>423.79999999999995</ele><time>2026-04-02T09:48:06.907Z</time></trkpt><trkpt lat="43.4749422" lon="11.2406761"><ele>423.4</ele><time>2026-04-02T09:48:07.907Z</time></trkpt><trkpt lat="43.474839" lon="11.2406179"><ele>423.0</ele><time>2026-04-02T09:48:08.907Z</time></trkpt><trkpt lat="43.4747521" lon="11.2405579"><ele>421.8333333333333</ele><time>2026-04-02T09:48:09.907Z</time></trkpt><trkpt lat="43.4746754" lon="11.2405035"><ele>420.66666666666663</ele><time>2026-04-02T09:48:10.907Z</time></trkpt><trkpt lat="43.474599" lon="11.2404334"><ele>419.5</ele><time>2026-04-02T09:48:11.906Z</time></trkpt><trkpt lat="43.4745338" lon="11.2403543"><ele>418.3333333333333</ele><time>2026-04-02T09:48:12.907Z</time></trkpt><trkpt lat="43.474478" lon="11.2402924"><ele>417.16666666666663</ele><time>2026-04-02T09:48:13.907Z</time></trkpt><trkpt lat="43.4744138" lon="11.2402431"><ele>416.0</ele><time>2026-04-02T09:48:14.907Z</time></trkpt><trkpt lat="43.4743284" lon="11.2402049"><ele>416.0</ele><time>2026-04-02T09:48:15.907Z</time></trkpt><trkpt lat="43.474236" lon="11.2401734"><ele>416.0</ele><time>2026-04-02T09:48:16.906Z</time></trkpt><trkpt lat="43.474132" lon="11.2401475"><ele>416.0</ele><time>2026-04-02T09:48:17.907Z</time></trkpt><trkpt lat="43.4740244" lon="11.2401167"><ele>416.0</ele><time>2026-04-02T09:48:18.907Z</time></trkpt><trkpt lat="43.4739219" lon="11.240083"><ele>416.0</ele><time>2026-04-02T09:48:19.907Z</time></trkpt><trkpt lat="43.4738257" lon="11.2400482"><ele>415.4</ele><time>2026-04-02T09:48:20.907Z</time></trkpt><trkpt lat="43.473722" lon="11.2400213"><ele>414.8</ele><time>2026-04-02T09:48:21.907Z</time></trkpt><trkpt lat="43.473629" lon="11.2399908"><ele>414.2</ele><time>2026-04-02T09:48:22.907Z</time></trkpt><trkpt lat="43.4735445" lon="11.2399459"><ele>413.59999999999997</ele><time>2026-04-02T09:48:23.907Z</time></trkpt><trkpt lat="43.4734616" lon="11.2399027"><ele>413.0</ele><time>2026-04-02T09:48:24.907Z</time></trkpt><trkpt lat="43.4733818" lon="11.2398603"><ele>412.99999999999994</ele><time>2026-04-02T09:48:25.907Z</time></trkpt><trkpt lat="43.4733136" lon="11.2398216"><ele>413.0</ele><time>2026-04-02T09:48:26.907Z</time></trkpt><trkpt lat="43.4732343" lon="11.2397897"><ele>413.0</ele><time>2026-04-02T09:48:27.907Z</time></trkpt><trkpt lat="43.4731615" lon="11.2397494"><ele>413.0</ele><time>2026-04-02T09:48:28.907Z</time></trkpt><trkpt lat="43.4730912" lon="11.2397025"><ele>412.99999999999994</ele><time>2026-04-02T09:48:29.906Z</time></trkpt><trkpt lat="43.4730191" lon="11.239665"><ele>413.0</ele><time>2026-04-02T09:48:30.907Z</time></trkpt><trkpt lat="43.4729447" lon="11.2396374"><ele>411.42857142857144</ele><time>2026-04-02T09:48:31.907Z</time></trkpt><trkpt lat="43.4728701" lon="11.2396124"><ele>409.8571428571429</ele><time>2026-04-02T09:48:32.907Z</time></trkpt><trkpt lat="43.4728" lon="11.2395908"><ele>408.2857142857143</ele><time>2026-04-02T09:48:33.907Z</time></trkpt><trkpt lat="43.4727347" lon="11.2395736"><ele>406.7142857142857</ele><time>2026-04-02T09:48:34.907Z</time></trkpt><trkpt lat="43.4726682" lon="11.2395678"><ele>405.14285714285717</ele><time>2026-04-02T09:48:35.907Z</time></trkpt><trkpt lat="43.4726038" lon="11.239577"><ele>403.57142857142856</ele><time>2026-04-02T09:48:36.907Z</time></trkpt><trkpt lat="43.4725352" lon="11.2395988"><ele>402.0</ele><time>2026-04-02T09:48:37.907Z</time></trkpt><trkpt lat="43.4724664" lon="11.2396054"><ele>402.0</ele><time>2026-04-02T09:48:38.907Z</time></trkpt><trkpt lat="43.4723914" lon="11.2395953"><ele>402.0</ele><time>2026-04-02T09:48:39.907Z</time></trkpt><trkpt lat="43.4723263" lon="11.2395738"><ele>402.0</ele><time>2026-04-02T09:48:40.907Z</time></trkpt><trkpt lat="43.4722654" lon="11.2395333"><ele>402.0</ele><time>2026-04-02T09:48:41.907Z</time></trkpt><trkpt lat="43.4722133" lon="11.2394718"><ele>402.0</ele><time>2026-04-02T09:48:42.907Z</time></trkpt><trkpt lat="43.4721694" lon="11.2393799"><ele>402.0</ele><time>2026-04-02T09:48:43.907Z</time></trkpt><trkpt lat="43.4721368" lon="11.2392932"><ele>402.0</ele><time>2026-04-02T09:48:44.907Z</time></trkpt><trkpt lat="43.4721101" lon="11.239187"><ele>399.6</ele><time>2026-04-02T09:48:45.906Z</time></trkpt><trkpt lat="43.4720927" lon="11.2390764"><ele>397.20000000000005</ele><time>2026-04-02T09:48:46.906Z</time></trkpt><trkpt lat="43.4720806" lon="11.2389565"><ele>394.8</ele><time>2026-04-02T09:48:47.907Z</time></trkpt><trkpt lat="43.4720772" lon="11.2388297"><ele>392.4</ele><time>2026-04-02T09:48:48.907Z</time></trkpt><trkpt lat="43.4720832" lon="11.2387005"><ele>390.0</ele><time>2026-04-02T09:48:49.907Z</time></trkpt><trkpt lat="43.4721025" lon="11.238561"><ele>389.5</ele><time>2026-04-02T09:48:50.907Z</time></trkpt><trkpt lat="43.4721287" lon="11.2384274"><ele>389.0</ele><time>2026-04-02T09:48:51.907Z</time></trkpt><trkpt lat="43.472153" lon="11.2383023"><ele>388.5</ele><time>2026-04-02T09:48:52.907Z</time></trkpt><trkpt lat="43.4721719" lon="11.2381945"><ele>388.0</ele><time>2026-04-02T09:48:53.907Z</time></trkpt><trkpt lat="43.4721854" lon="11.2380791"><ele>387.5</ele><time>2026-04-02T09:48:54.907Z</time></trkpt><trkpt lat="43.4721924" lon="11.2379664"><ele>387.0</ele><time>2026-04-02T09:48:55.906Z</time></trkpt><trkpt lat="43.4721899" lon="11.2378662"><ele>387.0</ele><time>2026-04-02T09:48:56.907Z</time></trkpt><trkpt lat="43.4721747" lon="11.23774"><ele>387.0</ele><time>2026-04-02T09:48:57.907Z</time></trkpt><trkpt lat="43.4721462" lon="11.2375983"><ele>387.0</ele><time>2026-04-02T09:48:58.907Z</time></trkpt><trkpt lat="43.472116" lon="11.2374614"><ele>387.0</ele><time>2026-04-02T09:48:59.906Z</time></trkpt><trkpt lat="43.4720828" lon="11.2373256"><ele>387.0</ele><time>2026-04-02T09:49:00.907Z</time></trkpt><trkpt lat="43.4720402" lon="11.2372035"><ele>385.6</ele><time>2026-04-02T09:49:01.907Z</time></trkpt><trkpt lat="43.4719968" lon="11.2370862"><ele>384.20000000000005</ele><time>2026-04-02T09:49:02.907Z</time></trkpt><trkpt lat="43.4719487" lon="11.2369633"><ele>382.8</ele><time>2026-04-02T09:49:03.907Z</time></trkpt><trkpt lat="43.4718816" lon="11.236838"><ele>381.4</ele><time>2026-04-02T09:49:04.907Z</time></trkpt><trkpt lat="43.4718251" lon="11.2367281"><ele>380.0</ele><time>2026-04-02T09:49:05.907Z</time></trkpt><trkpt lat="43.471766" lon="11.2366431"><ele>380.0</ele><time>2026-04-02T09:49:06.907Z</time></trkpt><trkpt lat="43.471709" lon="11.2365574"><ele>380.0</ele><time>2026-04-02T09:49:07.907Z</time></trkpt><trkpt lat="43.4716516" lon="11.2364726"><ele>380.0</ele><time>2026-04-02T09:49:08.907Z</time></trkpt><trkpt lat="43.4715825" lon="11.2363871"><ele>380.0</ele><time>2026-04-02T09:49:09.907Z</time></trkpt><trkpt lat="43.471504" lon="11.2363145"><ele>380.0</ele><time>2026-04-02T09:49:10.907Z</time></trkpt><trkpt lat="43.4714269" lon="11.2362458"><ele>380.0</ele><time>2026-04-02T09:49:11.907Z</time></trkpt><trkpt lat="43.4713425" lon="11.2361752"><ele>378.2</ele><time>2026-04-02T09:49:12.907Z</time></trkpt><trkpt lat="43.471255" lon="11.2361058"><ele>376.4</ele><time>2026-04-02T09:49:13.907Z</time></trkpt><trkpt lat="43.4711659" lon="11.2360221"><ele>374.6</ele><time>2026-04-02T09:49:14.907Z</time></trkpt><trkpt lat="43.4710824" lon="11.2359475"><ele>372.8</ele><time>2026-04-02T09:49:15.907Z</time></trkpt><trkpt lat="43.4709941" lon="11.2358781"><ele>371.0</ele><time>2026-04-02T09:49:16.907Z</time></trkpt><trkpt lat="43.4709135" lon="11.2357956"><ele>371.0</ele><time>2026-04-02T09:49:17.907Z</time></trkpt><trkpt lat="43.4708455" lon="11.2357269"><ele>371.0</ele><time>2026-04-02T09:49:18.907Z</time></trkpt><trkpt lat="43.4707794" lon="11.2356641"><ele>371.0</ele><time>2026-04-02T09:49:19.907Z</time></trkpt><trkpt lat="43.470722" lon="11.2356025"><ele>371.0</ele><time>2026-04-02T09:49:20.907Z</time></trkpt><trkpt lat="43.4706708" lon="11.2355382"><ele>371.0</ele><time>2026-04-02T09:49:21.907Z</time></trkpt><trkpt lat="43.470619" lon="11.2354509"><ele>371.0</ele><time>2026-04-02T09:49:22.907Z</time></trkpt><trkpt lat="43.470586" lon="11.2353529"><ele>370.6666666666667</ele><time>2026-04-02T09:49:23.907Z</time></trkpt><trkpt lat="43.470572" lon="11.2352392"><ele>370.33333333333337</ele><time>2026-04-02T09:49:24.907Z</time></trkpt><trkpt lat="43.4705632" lon="11.2351319"><ele>370.0</ele><time>2026-04-02T09:49:25.907Z</time></trkpt><trkpt lat="43.4705663" lon="11.2350193"><ele>369.6666666666667</ele><time>2026-04-02T09:49:26.907Z</time></trkpt><trkpt lat="43.4705852" lon="11.2348945"><ele>369.3333333333333</ele><time>2026-04-02T09:49:27.907Z</time></trkpt><trkpt lat="43.4706015" lon="11.2347583"><ele>369.0</ele><time>2026-04-02T09:49:28.906Z</time></trkpt><trkpt lat="43.4706009" lon="11.2346186"><ele>367.6</ele><time>2026-04-02T09:49:29.907Z</time></trkpt><trkpt lat="43.4706009" lon="11.2344812"><ele>366.2</ele><time>2026-04-02T09:49:30.907Z</time></trkpt><trkpt lat="43.4706128" lon="11.2343419"><ele>364.8</ele><time>2026-04-02T09:49:31.907Z</time></trkpt><trkpt lat="43.4706135" lon="11.2342125"><ele>363.40000000000003</ele><time>2026-04-02T09:49:32.907Z</time></trkpt><trkpt lat="43.4706314" lon="11.2340938"><ele>362.0</ele><time>2026-04-02T09:49:33.907Z</time></trkpt><trkpt lat="43.4706592" lon="11.2339724"><ele>359.5</ele><time>2026-04-02T09:49:34.907Z</time></trkpt><trkpt lat="43.4706796" lon="11.2338594"><ele>357.0</ele><time>2026-04-02T09:49:35.907Z</time></trkpt><trkpt lat="43.4706977" lon="11.2337471"><ele>354.5</ele><time>2026-04-02T09:49:36.907Z</time></trkpt><trkpt lat="43.4707135" lon="11.2336389"><ele>352.0</ele><time>2026-04-02T09:49:37.907Z</time></trkpt><trkpt lat="43.4707166" lon="11.2335338"><ele>349.5</ele><time>2026-04-02T09:49:38.907Z</time></trkpt><trkpt lat="43.4707113" lon="11.2334294"><ele>347.0</ele><time>2026-04-02T09:49:39.907Z</time></trkpt><trkpt lat="43.4707055" lon="11.2333334"><ele>347.0</ele><time>2026-04-02T09:49:40.907Z</time></trkpt><trkpt lat="43.4706976" lon="11.2332377"><ele>347.0</ele><time>2026-04-02T09:49:41.907Z</time></trkpt><trkpt lat="43.4706829" lon="11.2331406"><ele>347.0</ele><time>2026-04-02T09:49:42.907Z</time></trkpt><trkpt lat="43.4706566" lon="11.2330397"><ele>347.0</ele><time>2026-04-02T09:49:43.907Z</time></trkpt><trkpt lat="43.4706216" lon="11.2329491"><ele>347.0</ele><time>2026-04-02T09:49:44.907Z</time></trkpt><trkpt lat="43.4705904" lon="11.2328616"><ele>347.0</ele><time>2026-04-02T09:49:45.907Z</time></trkpt><trkpt lat="43.4705587" lon="11.2327783"><ele>347.0</ele><time>2026-04-02T09:49:46.907Z</time></trkpt><trkpt lat="43.4705003" lon="11.2326154"><ele>344.83333333333337</ele><time>2026-04-02T09:49:48.906Z</time></trkpt><trkpt lat="43.470455" lon="11.2325362"><ele>342.6666666666667</ele><time>2026-04-02T09:49:49.907Z</time></trkpt><trkpt lat="43.4704047" lon="11.2324609"><ele>340.5</ele><time>2026-04-02T09:49:50.907Z</time></trkpt><trkpt lat="43.4703405" lon="11.2323895"><ele>338.3333333333333</ele><time>2026-04-02T09:49:51.907Z</time></trkpt><trkpt lat="43.4702648" lon="11.2323182"><ele>336.16666666666663</ele><time>2026-04-02T09:49:52.907Z</time></trkpt><trkpt lat="43.4701895" lon="11.2322451"><ele>334.0</ele><time>2026-04-02T09:49:53.907Z</time></trkpt><trkpt lat="43.4701201" lon="11.2321707"><ele>329.59999999999997</ele><time>2026-04-02T09:49:54.907Z</time></trkpt><trkpt lat="43.4700459" lon="11.2321047"><ele>325.2</ele><time>2026-04-02T09:49:55.907Z</time></trkpt><trkpt lat="43.4699797" lon="11.2320477"><ele>320.79999999999995</ele><time>2026-04-02T09:49:56.907Z</time></trkpt><trkpt lat="43.4698904" lon="11.2319869"><ele>316.4</ele><time>2026-04-02T09:49:57.907Z</time></trkpt><trkpt lat="43.4697862" lon="11.2319351"><ele>312.0</ele><time>2026-04-02T09:49:58.907Z</time></trkpt><trkpt lat="43.4696649" lon="11.231881"><ele>312.6</ele><time>2026-04-02T09:49:59.907Z</time></trkpt><trkpt lat="43.4695685" lon="11.2318239"><ele>313.2</ele><time>2026-04-02T09:50:00.907Z</time></trkpt><trkpt lat="43.4694583" lon="11.2317519"><ele>313.8</ele><time>2026-04-02T09:50:01.907Z</time></trkpt><trkpt lat="43.4693599" lon="11.2316825"><ele>314.4</ele><time>2026-04-02T09:50:02.907Z</time></trkpt><trkpt lat="43.4692796" lon="11.2316083"><ele>315.0</ele><time>2026-04-02T09:50:03.907Z</time></trkpt><trkpt lat="43.469202" lon="11.2315485"><ele>315.0</ele><time>2026-04-02T09:50:04.907Z</time></trkpt><trkpt lat="43.4691202" lon="11.2314968"><ele>315.0</ele><time>2026-04-02T09:50:05.907Z</time></trkpt><trkpt lat="43.4690309" lon="11.2314602"><ele>315.0</ele><time>2026-04-02T09:50:06.907Z</time></trkpt><trkpt lat="43.4689539" lon="11.2314304"><ele>315.0</ele><time>2026-04-02T09:50:07.907Z</time></trkpt><trkpt lat="43.468877" lon="11.2313862"><ele>315.0</ele><time>2026-04-02T09:50:08.906Z</time></trkpt><trkpt lat="43.4687978" lon="11.2313328"><ele>315.0</ele><time>2026-04-02T09:50:09.907Z</time></trkpt><trkpt lat="43.468719" lon="11.2312791"><ele>311.3333333333333</ele><time>2026-04-02T09:50:10.906Z</time></trkpt><trkpt lat="43.4686455" lon="11.2312267"><ele>307.6666666666667</ele><time>2026-04-02T09:50:11.907Z</time></trkpt><trkpt lat="43.4685737" lon="11.2311809"><ele>304.0</ele><time>2026-04-02T09:50:12.907Z</time></trkpt><trkpt lat="43.4685091" lon="11.2311443"><ele>300.33333333333337</ele><time>2026-04-02T09:50:13.907Z</time></trkpt><trkpt lat="43.4684475" lon="11.2311199"><ele>296.6666666666667</ele><time>2026-04-02T09:50:14.907Z</time></trkpt><trkpt lat="43.4683684" lon="11.2310644"><ele>293.0</ele><time>2026-04-02T09:50:16.907Z</time></trkpt><trkpt lat="43.4683424" lon="11.2309482"><ele>293.0</ele><time>2026-04-02T09:50:18.907Z</time></trkpt><trkpt lat="43.468351" lon="11.2307792"><ele>293.0</ele><time>2026-04-02T09:50:20.906Z</time></trkpt><trkpt lat="43.4683612" lon="11.2306205"><ele>293.0</ele><time>2026-04-02T09:50:22.907Z</time></trkpt><trkpt lat="43.4683857" lon="11.2304782"><ele>293.0</ele><time>2026-04-02T09:50:24.907Z</time></trkpt><trkpt lat="43.4684072" lon="11.2303963"><ele>293.0</ele><time>2026-04-02T09:50:25.907Z</time></trkpt><trkpt lat="43.468434" lon="11.2303162"><ele>290.4</ele><time>2026-04-02T09:50:26.907Z</time></trkpt><trkpt lat="43.4684594" lon="11.2302357"><ele>287.8</ele><time>2026-04-02T09:50:27.907Z</time></trkpt><trkpt lat="43.4685027" lon="11.230095"><ele>285.2</ele><time>2026-04-02T09:50:29.907Z</time></trkpt><trkpt lat="43.4684953" lon="11.2299532"><ele>282.6</ele><time>2026-04-02T09:50:31.907Z</time></trkpt><trkpt lat="43.4684174" lon="11.2298198"><ele>280.0</ele><time>2026-04-02T09:50:33.907Z</time></trkpt><trkpt lat="43.4683693" lon="11.2297561"><ele>278.66666666666663</ele><time>2026-04-02T09:50:34.907Z</time></trkpt><trkpt lat="43.4683213" lon="11.2296884"><ele>277.3333333333333</ele><time>2026-04-02T09:50:35.907Z</time></trkpt><trkpt lat="43.4682791" lon="11.2295989"><ele>276.0</ele><time>2026-04-02T09:50:36.907Z</time></trkpt><trkpt lat="43.4682497" lon="11.2294777"><ele>274.6666666666667</ele><time>2026-04-02T09:50:37.907Z</time></trkpt><trkpt lat="43.468217" lon="11.2293401"><ele>273.33333333333337</ele><time>2026-04-02T09:50:38.907Z</time></trkpt><trkpt lat="43.4681963" lon="11.2291987"><ele>272.0</ele><time>2026-04-02T09:50:39.907Z</time></trkpt><trkpt lat="43.4681794" lon="11.2290556"><ele>270.4</ele><time>2026-04-02T09:50:40.907Z</time></trkpt><trkpt lat="43.4681773" lon="11.2289135"><ele>268.79999999999995</ele><time>2026-04-02T09:50:41.906Z</time></trkpt><trkpt lat="43.4681855" lon="11.2287676"><ele>267.2</ele><time>2026-04-02T09:50:42.907Z</time></trkpt><trkpt lat="43.4681996" lon="11.2286426"><ele>265.59999999999997</ele><time>2026-04-02T09:50:43.907Z</time></trkpt><trkpt lat="43.4682054" lon="11.2285221"><ele>264.0</ele><time>2026-04-02T09:50:44.906Z</time></trkpt><trkpt lat="43.4682016" lon="11.2283988"><ele>264.0</ele><time>2026-04-02T09:50:45.907Z</time></trkpt><trkpt lat="43.4681836" lon="11.2282884"><ele>264.0</ele><time>2026-04-02T09:50:46.907Z</time></trkpt><trkpt lat="43.4681582" lon="11.2281816"><ele>264.0</ele><time>2026-04-02T09:50:47.907Z</time></trkpt><trkpt lat="43.4681237" lon="11.2280832"><ele>264.0</ele><time>2026-04-02T09:50:48.907Z</time></trkpt><trkpt lat="43.4680697" lon="11.2279943"><ele>264.0</ele><time>2026-04-02T09:50:49.907Z</time></trkpt><trkpt lat="43.4680007" lon="11.2279208"><ele>264.0</ele><time>2026-04-02T09:50:50.907Z</time></trkpt><trkpt lat="43.467917" lon="11.2278547"><ele>262.0</ele><time>2026-04-02T09:50:51.907Z</time></trkpt><trkpt lat="43.4678296" lon="11.2277836"><ele>260.0</ele><time>2026-04-02T09:50:52.907Z</time></trkpt><trkpt lat="43.4677321" lon="11.2277117"><ele>258.0</ele><time>2026-04-02T09:50:53.907Z</time></trkpt><trkpt lat="43.4676264" lon="11.2276338"><ele>256.0</ele><time>2026-04-02T09:50:54.907Z</time></trkpt><trkpt lat="43.467514" lon="11.2275508"><ele>256.0</ele><time>2026-04-02T09:50:55.907Z</time></trkpt><trkpt lat="43.467409" lon="11.227473"><ele>256.0</ele><time>2026-04-02T09:50:56.907Z</time></trkpt><trkpt lat="43.4673144" lon="11.2273976"><ele>256.0</ele><time>2026-04-02T09:50:57.907Z</time></trkpt><trkpt lat="43.4672257" lon="11.2273361"><ele>256.0</ele><time>2026-04-02T09:50:58.907Z</time></trkpt><trkpt lat="43.4671534" lon="11.2272661"><ele>256.0</ele><time>2026-04-02T09:50:59.907Z</time></trkpt><trkpt lat="43.4670883" lon="11.2272103"><ele>256.2</ele><time>2026-04-02T09:51:00.906Z</time></trkpt><trkpt lat="43.4670268" lon="11.2271639"><ele>256.40000000000003</ele><time>2026-04-02T09:51:01.907Z</time></trkpt><trkpt lat="43.4669197" lon="11.2271263"><ele>256.6</ele><time>2026-04-02T09:51:03.907Z</time></trkpt><trkpt lat="43.4667906" lon="11.2271682"><ele>256.8</ele><time>2026-04-02T09:51:05.907Z</time></trkpt><trkpt lat="43.4667102" lon="11.2272155"><ele>257.0</ele><time>2026-04-02T09:51:06.907Z</time></trkpt><trkpt lat="43.4666347" lon="11.2272584"><ele>257.0</ele><time>2026-04-02T09:51:07.907Z</time></trkpt><trkpt lat="43.4665645" lon="11.2272987"><ele>257.0</ele><time>2026-04-02T09:51:08.907Z</time></trkpt><trkpt lat="43.466496" lon="11.2273489"><ele>257.0</ele><time>2026-04-02T09:51:09.906Z</time></trkpt><trkpt lat="43.4664277" lon="11.2274146"><ele>257.0</ele><time>2026-04-02T09:51:10.907Z</time></trkpt><trkpt lat="43.4663617" lon="11.2275019"><ele>257.0</ele><time>2026-04-02T09:51:11.907Z</time></trkpt><trkpt lat="43.4663003" lon="11.2275987"><ele>257.0</ele><time>2026-04-02T09:51:12.907Z</time></trkpt><trkpt lat="43.4662472" lon="11.2277023"><ele>255.14285714285714</ele><time>2026-04-02T09:51:13.907Z</time></trkpt><trkpt lat="43.4661981" lon="11.2277895"><ele>253.28571428571428</ele><time>2026-04-02T09:51:14.907Z</time></trkpt><trkpt lat="43.4661576" lon="11.2278672"><ele>251.42857142857142</ele><time>2026-04-02T09:51:15.907Z</time></trkpt><trkpt lat="43.4661135" lon="11.2279365"><ele>249.57142857142856</ele><time>2026-04-02T09:51:16.907Z</time></trkpt><trkpt lat="43.4660576" lon="11.2279846"><ele>247.71428571428572</ele><time>2026-04-02T09:51:17.907Z</time></trkpt><trkpt lat="43.4659883" lon="11.2280032"><ele>245.85714285714283</ele><time>2026-04-02T09:51:18.907Z</time></trkpt><trkpt lat="43.4659015" lon="11.2279962"><ele>243.99999999999997</ele><time>2026-04-02T09:51:19.907Z</time></trkpt><trkpt lat="43.4657962" lon="11.2279657"><ele>244.0</ele><time>2026-04-02T09:51:20.906Z</time></trkpt><trkpt lat="43.4656773" lon="11.2279439"><ele>244.0</ele><time>2026-04-02T09:51:21.907Z</time></trkpt><trkpt lat="43.4655442" lon="11.2279317"><ele>244.0</ele><time>2026-04-02T09:51:22.907Z</time></trkpt><trkpt lat="43.4653919" lon="11.2278988"><ele>244.0</ele><time>2026-04-02T09:51:23.907Z</time></trkpt><trkpt lat="43.465257" lon="11.2278603"><ele>241.75</ele><time>2026-04-02T09:51:24.907Z</time></trkpt><trkpt lat="43.4651217" lon="11.2278245"><ele>239.5</ele><time>2026-04-02T09:51:25.907Z</time></trkpt><trkpt lat="43.464991" lon="11.2277956"><ele>237.25</ele><time>2026-04-02T09:51:26.907Z</time></trkpt><trkpt lat="43.4648617" lon="11.2277612"><ele>235.0</ele><time>2026-04-02T09:51:27.907Z</time></trkpt><trkpt lat="43.4647298" lon="11.2277258"><ele>232.75</ele><time>2026-04-02T09:51:28.907Z</time></trkpt><trkpt lat="43.4645963" lon="11.2276967"><ele>230.5</ele><time>2026-04-02T09:51:29.907Z</time></trkpt><trkpt lat="43.4644682" lon="11.2276752"><ele>228.25</ele><time>2026-04-02T09:51:30.907Z</time></trkpt><trkpt lat="43.4643437" lon="11.2276518"><ele>226.0</ele><time>2026-04-02T09:51:31.907Z</time></trkpt><trkpt lat="43.4642224" lon="11.2276282"><ele>226.0</ele><time>2026-04-02T09:51:32.907Z</time></trkpt><trkpt lat="43.4640932" lon="11.2276012"><ele>226.0</ele><time>2026-04-02T09:51:33.907Z</time></trkpt><trkpt lat="43.4639575" lon="11.2275925"><ele>226.0</ele><time>2026-04-02T09:51:34.907Z</time></trkpt><trkpt lat="43.4638296" lon="11.2275964"><ele>226.0</ele><time>2026-04-02T09:51:35.907Z</time></trkpt><trkpt lat="43.4637163" lon="11.227609"><ele>225.83333333333331</ele><time>2026-04-02T09:51:36.907Z</time></trkpt><trkpt lat="43.4636163" lon="11.2276155"><ele>225.66666666666666</ele><time>2026-04-02T09:51:37.907Z</time></trkpt><trkpt lat="43.4635389" lon="11.2276211"><ele>225.5</ele><time>2026-04-02T09:51:38.907Z</time></trkpt><trkpt lat="43.4634669" lon="11.2275885"><ele>225.33333333333331</ele><time>2026-04-02T09:51:40.907Z</time></trkpt><trkpt lat="43.4634434" lon="11.2274628"><ele>225.16666666666666</ele><time>2026-04-02T09:51:42.907Z</time></trkpt><trkpt lat="43.4634328" lon="11.2273744"><ele>225.0</ele><time>2026-04-02T09:51:43.907Z</time></trkpt><trkpt lat="43.4633669" lon="11.2272785"><ele>225.0</ele><time>2026-04-02T09:51:45.907Z</time></trkpt><trkpt lat="43.4632887" lon="11.2272675"><ele>225.0</ele><time>2026-04-02T09:51:46.907Z</time></trkpt><trkpt lat="43.4631677" lon="11.2272988"><ele>225.0</ele><time>2026-04-02T09:51:48.907Z</time></trkpt><trkpt lat="43.4630767" lon="11.2273271"><ele>225.0</ele><time>2026-04-02T09:51:49.907Z</time></trkpt><trkpt lat="43.4629949" lon="11.2273378"><ele>225.0</ele><time>2026-04-02T09:51:50.907Z</time></trkpt><trkpt lat="43.4629037" lon="11.2273457"><ele>225.33333333333334</ele><time>2026-04-02T09:51:51.907Z</time></trkpt><trkpt lat="43.4628054" lon="11.2273279"><ele>225.66666666666669</ele><time>2026-04-02T09:51:52.907Z</time></trkpt><trkpt lat="43.4627198" lon="11.2273029"><ele>226.0</ele><time>2026-04-02T09:51:53.907Z</time></trkpt><trkpt lat="43.4626527" lon="11.2272752"><ele>226.33333333333334</ele><time>2026-04-02T09:51:54.907Z</time></trkpt><trkpt lat="43.4625899" lon="11.2272629"><ele>226.66666666666669</ele><time>2026-04-02T09:51:55.907Z</time></trkpt><trkpt lat="43.4624732" lon="11.2272957"><ele>227.0</ele><time>2026-04-02T09:51:57.906Z</time></trkpt><trkpt lat="43.4624133" lon="11.227348"><ele>228.2</ele><time>2026-04-02T09:51:58.907Z</time></trkpt><trkpt lat="43.4623413" lon="11.2274191"><ele>229.39999999999998</ele><time>2026-04-02T09:51:59.907Z</time></trkpt><trkpt lat="43.4622587" lon="11.227466"><ele>230.60000000000002</ele><time>2026-04-02T09:52:00.907Z</time></trkpt><trkpt lat="43.4621616" lon="11.2274915"><ele>231.8</ele><time>2026-04-02T09:52:01.906Z</time></trkpt><trkpt lat="43.4620516" lon="11.2274976"><ele>233.0</ele><time>2026-04-02T09:52:02.906Z</time></trkpt><trkpt lat="43.4619374" lon="11.2274874"><ele>234.2</ele><time>2026-04-02T09:52:03.906Z</time></trkpt><trkpt lat="43.46183" lon="11.2274694"><ele>235.4</ele><time>2026-04-02T09:52:04.907Z</time></trkpt><trkpt lat="43.4617248" lon="11.2274337"><ele>236.59999999999997</ele><time>2026-04-02T09:52:05.907Z</time></trkpt><trkpt lat="43.4616246" lon="11.2273768"><ele>237.79999999999998</ele><time>2026-04-02T09:52:06.907Z</time></trkpt><trkpt lat="43.4615157" lon="11.2273119"><ele>239.0</ele><time>2026-04-02T09:52:07.907Z</time></trkpt><trkpt lat="43.4614034" lon="11.2272463"><ele>239.0</ele><time>2026-04-02T09:52:08.907Z</time></trkpt><trkpt lat="43.461287" lon="11.2271738"><ele>239.0</ele><time>2026-04-02T09:52:09.907Z</time></trkpt><trkpt lat="43.4611702" lon="11.2270866"><ele>239.0</ele><time>2026-04-02T09:52:10.907Z</time></trkpt><trkpt lat="43.4610595" lon="11.2269886"><ele>239.0</ele><time>2026-04-02T09:52:11.906Z</time></trkpt><trkpt lat="43.4609669" lon="11.2268985"><ele>241.39999999999998</ele><time>2026-04-02T09:52:12.907Z</time></trkpt><trkpt lat="43.4608748" lon="11.2268145"><ele>243.79999999999998</ele><time>2026-04-02T09:52:13.907Z</time></trkpt><trkpt lat="43.4607901" lon="11.2267444"><ele>246.20000000000002</ele><time>2026-04-02T09:52:14.907Z</time></trkpt><trkpt lat="43.4607115" lon="11.2266808"><ele>248.60000000000002</ele><time>2026-04-02T09:52:15.907Z</time></trkpt><trkpt lat="43.4606328" lon="11.2266297"><ele>251.0</ele><time>2026-04-02T09:52:16.907Z</time></trkpt><trkpt lat="43.4605534" lon="11.2265988"><ele>250.99999999999997</ele><time>2026-04-02T09:52:17.906Z</time></trkpt><trkpt lat="43.4604784" lon="11.2266052"><ele>251.0</ele><time>2026-04-02T09:52:18.907Z</time></trkpt><trkpt lat="43.4604134" lon="11.2266338"><ele>250.99999999999997</ele><time>2026-04-02T09:52:19.907Z</time></trkpt><trkpt lat="43.4603619" lon="11.2267"><ele>250.99999999999997</ele><time>2026-04-02T09:52:20.906Z</time></trkpt><trkpt lat="43.4603193" lon="11.2267831"><ele>251.0</ele><time>2026-04-02T09:52:21.907Z</time></trkpt><trkpt lat="43.4602912" lon="11.2268783"><ele>250.99999999999997</ele><time>2026-04-02T09:52:22.906Z</time></trkpt><trkpt lat="43.4602614" lon="11.226986"><ele>250.99999999999997</ele><time>2026-04-02T09:52:23.907Z</time></trkpt><trkpt lat="43.4602342" lon="11.2271018"><ele>255.8</ele><time>2026-04-02T09:52:24.907Z</time></trkpt><trkpt lat="43.4602057" lon="11.2272553"><ele>260.6</ele><time>2026-04-02T09:52:25.907Z</time></trkpt><trkpt lat="43.4601786" lon="11.2273943"><ele>265.4</ele><time>2026-04-02T09:52:26.907Z</time></trkpt><trkpt lat="43.4601619" lon="11.2275469"><ele>270.2</ele><time>2026-04-02T09:52:27.907Z</time></trkpt><trkpt lat="43.4601402" lon="11.2276884"><ele>275.0</ele><time>2026-04-02T09:52:28.907Z</time></trkpt><trkpt lat="43.460107" lon="11.2278186"><ele>275.0</ele><time>2026-04-02T09:52:29.907Z</time></trkpt><trkpt lat="43.4600776" lon="11.2279277"><ele>275.0</ele><time>2026-04-02T09:52:30.907Z</time></trkpt><trkpt lat="43.4600359" lon="11.2280376"><ele>275.0</ele><time>2026-04-02T09:52:32.907Z</time></trkpt><trkpt lat="43.4600203" lon="11.2281981"><ele>275.0</ele><time>2026-04-02T09:52:39.907Z</time></trkpt><trkpt lat="43.4600267" lon="11.22832"><ele>275.0</ele><time>2026-04-02T09:52:40.907Z</time></trkpt><trkpt lat="43.4600379" lon="11.2284806"><ele>273.6666666666667</ele><time>2026-04-02T09:52:41.907Z</time></trkpt><trkpt lat="43.4600581" lon="11.2286629"><ele>272.3333333333333</ele><time>2026-04-02T09:52:42.907Z</time></trkpt><trkpt lat="43.4600827" lon="11.2288667"><ele>271.0</ele><time>2026-04-02T09:52:43.907Z</time></trkpt><trkpt lat="43.4601127" lon="11.2291035"><ele>270.66666666666663</ele><time>2026-04-02T09:52:44.907Z</time></trkpt><trkpt lat="43.4601561" lon="11.2293481"><ele>270.3333333333333</ele><time>2026-04-02T09:52:45.907Z</time></trkpt><trkpt lat="43.4602071" lon="11.2295846"><ele>270.0</ele><time>2026-04-02T09:52:46.907Z</time></trkpt><trkpt lat="43.4602588" lon="11.2297994"><ele>270.25</ele><time>2026-04-02T09:52:47.907Z</time></trkpt><trkpt lat="43.460303" lon="11.2299847"><ele>270.5</ele><time>2026-04-02T09:52:48.907Z</time></trkpt><trkpt lat="43.4603445" lon="11.2301426"><ele>270.75</ele><time>2026-04-02T09:52:49.907Z</time></trkpt><trkpt lat="43.4603843" lon="11.2302802"><ele>271.0</ele><time>2026-04-02T09:52:50.907Z</time></trkpt><trkpt lat="43.4604222" lon="11.2303966"><ele>271.3333333333333</ele><time>2026-04-02T09:52:51.907Z</time></trkpt><trkpt lat="43.4604571" lon="11.230499"><ele>271.66666666666663</ele><time>2026-04-02T09:52:52.907Z</time></trkpt><trkpt lat="43.4604691" lon="11.2305927"><ele>272.0</ele><time>2026-04-02T09:52:53.907Z</time></trkpt><trkpt lat="43.4604237" lon="11.2307183"><ele>272.3333333333333</ele><time>2026-04-02T09:52:55.907Z</time></trkpt><trkpt lat="43.4603665" lon="11.2307626"><ele>272.6666666666667</ele><time>2026-04-02T09:52:56.907Z</time></trkpt><trkpt lat="43.4602745" lon="11.230807"><ele>273.0</ele><time>2026-04-02T09:52:57.907Z</time></trkpt><trkpt lat="43.4601602" lon="11.2308624"><ele>273.0</ele><time>2026-04-02T09:52:58.907Z</time></trkpt><trkpt lat="43.4600428" lon="11.2309241"><ele>273.0</ele><time>2026-04-02T09:52:59.907Z</time></trkpt><trkpt lat="43.4599201" lon="11.2309874"><ele>273.0</ele><time>2026-04-02T09:53:00.907Z</time></trkpt><trkpt lat="43.4597903" lon="11.2310498"><ele>273.0</ele><time>2026-04-02T09:53:01.907Z</time></trkpt><trkpt lat="43.4596562" lon="11.2311126"><ele>273.5</ele><time>2026-04-02T09:53:02.907Z</time></trkpt><trkpt lat="43.4595284" lon="11.2311713"><ele>274.0</ele><time>2026-04-02T09:53:03.907Z</time></trkpt><trkpt lat="43.4593919" lon="11.2312379"><ele>274.5</ele><time>2026-04-02T09:53:04.907Z</time></trkpt><trkpt lat="43.4592581" lon="11.2313081"><ele>275.0</ele><time>2026-04-02T09:53:05.907Z</time></trkpt><trkpt lat="43.4591254" lon="11.2313799"><ele>275.0</ele><time>2026-04-02T09:53:06.907Z</time></trkpt><trkpt lat="43.4589952" lon="11.2314487"><ele>275.0</ele><time>2026-04-02T09:53:07.907Z</time></trkpt><trkpt lat="43.4588699" lon="11.2315138"><ele>275.0</ele><time>2026-04-02T09:53:08.907Z</time></trkpt><trkpt lat="43.4587481" lon="11.2315778"><ele>275.0</ele><time>2026-04-02T09:53:09.906Z</time></trkpt><trkpt lat="43.4586396" lon="11.2316318"><ele>277.1666666666667</ele><time>2026-04-02T09:53:10.907Z</time></trkpt><trkpt lat="43.4585492" lon="11.2316797"><ele>279.33333333333337</ele><time>2026-04-02T09:53:11.907Z</time></trkpt><trkpt lat="43.4584712" lon="11.2317087"><ele>281.5</ele><time>2026-04-02T09:53:12.907Z</time></trkpt><trkpt lat="43.4583894" lon="11.2317226"><ele>283.6666666666667</ele><time>2026-04-02T09:53:13.907Z</time></trkpt><trkpt lat="43.4583086" lon="11.2317144"><ele>285.8333333333333</ele><time>2026-04-02T09:53:14.907Z</time></trkpt><trkpt lat="43.4582291" lon="11.231686"><ele>288.0</ele><time>2026-04-02T09:53:15.907Z</time></trkpt><trkpt lat="43.4581524" lon="11.2316338"><ele>288.0</ele><time>2026-04-02T09:53:16.907Z</time></trkpt><trkpt lat="43.4580672" lon="11.2315622"><ele>288.0</ele><time>2026-04-02T09:53:17.907Z</time></trkpt><trkpt lat="43.4579699" lon="11.2314579"><ele>288.0</ele><time>2026-04-02T09:53:18.907Z</time></trkpt><trkpt lat="43.4578632" lon="11.2313441"><ele>288.0</ele><time>2026-04-02T09:53:19.907Z</time></trkpt><trkpt lat="43.4577609" lon="11.2312302"><ele>289.25</ele><time>2026-04-02T09:53:20.907Z</time></trkpt><trkpt lat="43.4576529" lon="11.2311118"><ele>290.5</ele><time>2026-04-02T09:53:21.907Z</time></trkpt><trkpt lat="43.4575504" lon="11.230993"><ele>291.75</ele><time>2026-04-02T09:53:22.906Z</time></trkpt><trkpt lat="43.4574536" lon="11.2308802"><ele>293.0</ele><time>2026-04-02T09:53:23.907Z</time></trkpt><trkpt lat="43.4573598" lon="11.2307754"><ele>293.0</ele><time>2026-04-02T09:53:24.907Z</time></trkpt><trkpt lat="43.4572826" lon="11.2306766"><ele>293.0</ele><time>2026-04-02T09:53:25.907Z</time></trkpt><trkpt lat="43.4572142" lon="11.2305898"><ele>293.0</ele><time>2026-04-02T09:53:26.907Z</time></trkpt><trkpt lat="43.4571602" lon="11.2304996"><ele>293.0</ele><time>2026-04-02T09:53:27.906Z</time></trkpt><trkpt lat="43.457106" lon="11.2303726"><ele>293.0</ele><time>2026-04-02T09:53:28.907Z</time></trkpt><trkpt lat="43.4570484" lon="11.23023"><ele>293.4</ele><time>2026-04-02T09:53:29.907Z</time></trkpt><trkpt lat="43.4569973" lon="11.2300938"><ele>293.8</ele><time>2026-04-02T09:53:30.907Z</time></trkpt><trkpt lat="43.456953" lon="11.2299511"><ele>294.2</ele><time>2026-04-02T09:53:31.907Z</time></trkpt><trkpt lat="43.4569113" lon="11.229818"><ele>294.6</ele><time>2026-04-02T09:53:32.907Z</time></trkpt><trkpt lat="43.4568679" lon="11.2296911"><ele>295.0</ele><time>2026-04-02T09:53:33.907Z</time></trkpt><trkpt lat="43.4568284" lon="11.2295693"><ele>294.3333333333333</ele><time>2026-04-02T09:53:34.907Z</time></trkpt><trkpt lat="43.4567951" lon="11.2294634"><ele>293.66666666666663</ele><time>2026-04-02T09:53:35.907Z</time></trkpt><trkpt lat="43.4567646" lon="11.2293789"><ele>293.0</ele><time>2026-04-02T09:53:36.907Z</time></trkpt><trkpt lat="43.4567222" lon="11.229269"><ele>292.3333333333333</ele><time>2026-04-02T09:53:38.907Z</time></trkpt><trkpt lat="43.4566722" lon="11.2291712"><ele>291.6666666666667</ele><time>2026-04-02T09:53:40.907Z</time></trkpt><trkpt lat="43.4566047" lon="11.2290654"><ele>291.0</ele><time>2026-04-02T09:53:42.907Z</time></trkpt><trkpt lat="43.4565419" lon="11.2289716"><ele>289.75</ele><time>2026-04-02T09:53:43.907Z</time></trkpt><trkpt lat="43.45647" lon="11.2288727"><ele>288.5</ele><time>2026-04-02T09:53:44.907Z</time></trkpt><trkpt lat="43.4563935" lon="11.2287645"><ele>287.25</ele><time>2026-04-02T09:53:45.907Z</time></trkpt><trkpt lat="43.4563132" lon="11.2286525"><ele>286.0</ele><time>2026-04-02T09:53:46.907Z</time></trkpt><trkpt lat="43.4562242" lon="11.2285306"><ele>286.0</ele><time>2026-04-02T09:53:47.907Z</time></trkpt><trkpt lat="43.4561319" lon="11.2283993"><ele>286.0</ele><time>2026-04-02T09:53:48.907Z</time></trkpt><trkpt lat="43.4560368" lon="11.2282691"><ele>286.0</ele><time>2026-04-02T09:53:49.907Z</time></trkpt><trkpt lat="43.4559522" lon="11.2281494"><ele>286.0</ele><time>2026-04-02T09:53:50.907Z</time></trkpt><trkpt lat="43.4558723" lon="11.2280313"><ele>285.8</ele><time>2026-04-02T09:53:51.907Z</time></trkpt><trkpt lat="43.4557969" lon="11.2279245"><ele>285.6</ele><time>2026-04-02T09:53:52.907Z</time></trkpt><trkpt lat="43.4557279" lon="11.2278283"><ele>285.4</ele><time>2026-04-02T09:53:53.907Z</time></trkpt><trkpt lat="43.455669" lon="11.2277479"><ele>285.2</ele><time>2026-04-02T09:53:54.907Z</time></trkpt><trkpt lat="43.4556079" lon="11.2276733"><ele>285.0</ele><time>2026-04-02T09:53:55.907Z</time></trkpt><trkpt lat="43.4555381" lon="11.227618"><ele>285.0</ele><time>2026-04-02T09:53:56.907Z</time></trkpt><trkpt lat="43.4554511" lon="11.2275633"><ele>285.0</ele><time>2026-04-02T09:53:57.906Z</time></trkpt><trkpt lat="43.4553473" lon="11.2275049"><ele>285.0</ele><time>2026-04-02T09:53:58.907Z</time></trkpt><trkpt lat="43.4552333" lon="11.2274459"><ele>285.0</ele><time>2026-04-02T09:53:59.907Z</time></trkpt><trkpt lat="43.4551069" lon="11.2274012"><ele>285.0</ele><time>2026-04-02T09:54:00.907Z</time></trkpt><trkpt lat="43.4549706" lon="11.2273616"><ele>285.0</ele><time>2026-04-02T09:54:01.907Z</time></trkpt><trkpt lat="43.454835" lon="11.2273296"><ele>285.0</ele><time>2026-04-02T09:54:02.907Z</time></trkpt><trkpt lat="43.4547108" lon="11.2273027"><ele>285.0</ele><time>2026-04-02T09:54:03.907Z</time></trkpt><trkpt lat="43.4546048" lon="11.2272811"><ele>286.8</ele><time>2026-04-02T09:54:04.907Z</time></trkpt><trkpt lat="43.454517" lon="11.2272594"><ele>288.6</ele><time>2026-04-02T09:54:05.907Z</time></trkpt><trkpt lat="43.454432" lon="11.2272415"><ele>290.4</ele><time>2026-04-02T09:54:06.907Z</time></trkpt><trkpt lat="43.4543267" lon="11.2272236"><ele>292.2</ele><time>2026-04-02T09:54:07.907Z</time></trkpt><trkpt lat="43.4542224" lon="11.2272165"><ele>294.0</ele><time>2026-04-02T09:54:08.907Z</time></trkpt><trkpt lat="43.4541183" lon="11.2272162"><ele>294.0</ele><time>2026-04-02T09:54:09.907Z</time></trkpt><trkpt lat="43.4540068" lon="11.2272193"><ele>294.0</ele><time>2026-04-02T09:54:10.907Z</time></trkpt><trkpt lat="43.4539034" lon="11.2272232"><ele>294.0</ele><time>2026-04-02T09:54:11.907Z</time></trkpt><trkpt lat="43.4538112" lon="11.2272293"><ele>294.0</ele><time>2026-04-02T09:54:12.907Z</time></trkpt><trkpt lat="43.4537184" lon="11.2272247"><ele>294.0</ele><time>2026-04-02T09:54:13.907Z</time></trkpt><trkpt lat="43.4536324" lon="11.2272057"><ele>291.5</ele><time>2026-04-02T09:54:14.907Z</time></trkpt><trkpt lat="43.4535585" lon="11.2271796"><ele>289.0</ele><time>2026-04-02T09:54:15.907Z</time></trkpt><trkpt lat="43.4534841" lon="11.2271455"><ele>286.5</ele><time>2026-04-02T09:54:16.907Z</time></trkpt><trkpt lat="43.453421" lon="11.2270921"><ele>284.0</ele><time>2026-04-02T09:54:17.907Z</time></trkpt><trkpt lat="43.4533672" lon="11.2270375"><ele>281.5</ele><time>2026-04-02T09:54:18.907Z</time></trkpt><trkpt lat="43.4533197" lon="11.22698"><ele>279.0</ele><time>2026-04-02T09:54:19.907Z</time></trkpt><trkpt lat="43.4532416" lon="11.2268812"><ele>279.0</ele><time>2026-04-02T09:54:21.907Z</time></trkpt><trkpt lat="43.4531624" lon="11.226814"><ele>279.0</ele><time>2026-04-02T09:54:23.907Z</time></trkpt><trkpt lat="43.4530588" lon="11.2267944"><ele>279.0</ele><time>2026-04-02T09:54:25.907Z</time></trkpt><trkpt lat="43.4529947" lon="11.2268097"><ele>279.0</ele><time>2026-04-02T09:54:26.907Z</time></trkpt><trkpt lat="43.4529183" lon="11.2268419"><ele>279.0</ele><time>2026-04-02T09:54:27.907Z</time></trkpt><trkpt lat="43.4528433" lon="11.2268814"><ele>279.0</ele><time>2026-04-02T09:54:28.907Z</time></trkpt><trkpt lat="43.4527628" lon="11.2269254"><ele>275.2</ele><time>2026-04-02T09:54:29.907Z</time></trkpt><trkpt lat="43.4526737" lon="11.2269706"><ele>271.4</ele><time>2026-04-02T09:54:30.907Z</time></trkpt><trkpt lat="43.4525852" lon="11.2270161"><ele>267.6</ele><time>2026-04-02T09:54:31.907Z</time></trkpt><trkpt lat="43.4524811" lon="11.2270623"><ele>263.8</ele><time>2026-04-02T09:54:32.907Z</time></trkpt><trkpt lat="43.4523735" lon="11.2271106"><ele>260.0</ele><time>2026-04-02T09:54:33.907Z</time></trkpt><trkpt lat="43.4522697" lon="11.2271548"><ele>260.0</ele><time>2026-04-02T09:54:34.907Z</time></trkpt><trkpt lat="43.4521698" lon="11.2271968"><ele>260.0</ele><time>2026-04-02T09:54:35.907Z</time></trkpt><trkpt lat="43.4520723" lon="11.2272408"><ele>260.0</ele><time>2026-04-02T09:54:36.907Z</time></trkpt><trkpt lat="43.451982" lon="11.227283"><ele>260.0</ele><time>2026-04-02T09:54:37.907Z</time></trkpt><trkpt lat="43.4518887" lon="11.2273249"><ele>260.0</ele><time>2026-04-02T09:54:38.907Z</time></trkpt><trkpt lat="43.4517961" lon="11.2273666"><ele>256.8</ele><time>2026-04-02T09:54:39.907Z</time></trkpt><trkpt lat="43.4517041" lon="11.22741"><ele>253.6</ele><time>2026-04-02T09:54:40.907Z</time></trkpt><trkpt lat="43.4516095" lon="11.227453"><ele>250.39999999999998</ele><time>2026-04-02T09:54:41.906Z</time></trkpt><trkpt lat="43.4515083" lon="11.2274958"><ele>247.2</ele><time>2026-04-02T09:54:42.907Z</time></trkpt><trkpt lat="43.4514087" lon="11.2275375"><ele>244.0</ele><time>2026-04-02T09:54:43.907Z</time></trkpt><trkpt lat="43.4513107" lon="11.227576"><ele>241.2</ele><time>2026-04-02T09:54:44.907Z</time></trkpt><trkpt lat="43.4512144" lon="11.2276173"><ele>238.39999999999998</ele><time>2026-04-02T09:54:45.907Z</time></trkpt><trkpt lat="43.4511194" lon="11.2276609"><ele>235.6</ele><time>2026-04-02T09:54:46.907Z</time></trkpt><trkpt lat="43.4510193" lon="11.2277058"><ele>232.8</ele><time>2026-04-02T09:54:47.907Z</time></trkpt><trkpt lat="43.4509257" lon="11.2277516"><ele>230.0</ele><time>2026-04-02T09:54:48.907Z</time></trkpt><trkpt lat="43.4508294" lon="11.2277898"><ele>230.0</ele><time>2026-04-02T09:54:49.907Z</time></trkpt><trkpt lat="43.450738" lon="11.2278328"><ele>230.0</ele><time>2026-04-02T09:54:50.907Z</time></trkpt><trkpt lat="43.4506393" lon="11.2278716"><ele>230.0</ele><time>2026-04-02T09:54:51.907Z</time></trkpt><trkpt lat="43.4505358" lon="11.227894"><ele>230.0</ele><time>2026-04-02T09:54:52.907Z</time></trkpt><trkpt lat="43.4504211" lon="11.2279126"><ele>230.0</ele><time>2026-04-02T09:54:53.907Z</time></trkpt><trkpt lat="43.4503048" lon="11.2279289"><ele>227.5</ele><time>2026-04-02T09:54:54.907Z</time></trkpt><trkpt lat="43.450181" lon="11.2279444"><ele>225.0</ele><time>2026-04-02T09:54:55.907Z</time></trkpt><trkpt lat="43.4500526" lon="11.2279662"><ele>222.5</ele><time>2026-04-02T09:54:56.906Z</time></trkpt><trkpt lat="43.4499221" lon="11.2279777"><ele>220.0</ele><time>2026-04-02T09:54:57.907Z</time></trkpt><trkpt lat="43.4497991" lon="11.2279937"><ele>220.0</ele><time>2026-04-02T09:54:58.906Z</time></trkpt><trkpt lat="43.4496692" lon="11.2280134"><ele>220.0</ele><time>2026-04-02T09:54:59.907Z</time></trkpt><trkpt lat="43.4495392" lon="11.2280331"><ele>220.0</ele><time>2026-04-02T09:55:00.906Z</time></trkpt><trkpt lat="43.4494163" lon="11.2280502"><ele>220.0</ele><time>2026-04-02T09:55:01.907Z</time></trkpt><trkpt lat="43.4492952" lon="11.2280682"><ele>217.8</ele><time>2026-04-02T09:55:02.907Z</time></trkpt><trkpt lat="43.4491822" lon="11.228083"><ele>215.6</ele><time>2026-04-02T09:55:03.907Z</time></trkpt><trkpt lat="43.4490717" lon="11.2280982"><ele>213.39999999999998</ele><time>2026-04-02T09:55:04.907Z</time></trkpt><trkpt lat="43.4489744" lon="11.2281145"><ele>211.2</ele><time>2026-04-02T09:55:05.907Z</time></trkpt><trkpt lat="43.448871" lon="11.2281353"><ele>209.0</ele><time>2026-04-02T09:55:06.907Z</time></trkpt><trkpt lat="43.44877" lon="11.22815"><ele>207.2</ele><time>2026-04-02T09:55:07.907Z</time></trkpt><trkpt lat="43.448672" lon="11.2281607"><ele>205.39999999999998</ele><time>2026-04-02T09:55:08.907Z</time></trkpt><trkpt lat="43.4485766" lon="11.228169"><ele>203.6</ele><time>2026-04-02T09:55:09.907Z</time></trkpt><trkpt lat="43.4484758" lon="11.2281861"><ele>201.8</ele><time>2026-04-02T09:55:10.907Z</time></trkpt><trkpt lat="43.4483769" lon="11.2281956"><ele>200.0</ele><time>2026-04-02T09:55:11.907Z</time></trkpt><trkpt lat="43.4482723" lon="11.2282058"><ele>200.0</ele><time>2026-04-02T09:55:12.907Z</time></trkpt><trkpt lat="43.4481663" lon="11.2282172"><ele>200.0</ele><time>2026-04-02T09:55:13.907Z</time></trkpt><trkpt lat="43.448057" lon="11.2282348"><ele>200.0</ele><time>2026-04-02T09:55:14.907Z</time></trkpt><trkpt lat="43.4479462" lon="11.2282553"><ele>200.0</ele><time>2026-04-02T09:55:15.907Z</time></trkpt><trkpt lat="43.4478335" lon="11.2282748"><ele>200.0</ele><time>2026-04-02T09:55:16.907Z</time></trkpt><trkpt lat="43.4477283" lon="11.228291"><ele>198.66666666666669</ele><time>2026-04-02T09:55:17.907Z</time></trkpt><trkpt lat="43.4476329" lon="11.2283049"><ele>197.33333333333334</ele><time>2026-04-02T09:55:18.907Z</time></trkpt><trkpt lat="43.4475448" lon="11.2283219"><ele>196.0</ele><time>2026-04-02T09:55:19.907Z</time></trkpt><trkpt lat="43.4474608" lon="11.228328"><ele>194.66666666666669</ele><time>2026-04-02T09:55:20.906Z</time></trkpt><trkpt lat="43.4473861" lon="11.2283056"><ele>193.33333333333334</ele><time>2026-04-02T09:55:21.907Z</time></trkpt><trkpt lat="43.4473276" lon="11.2282599"><ele>192.0</ele><time>2026-04-02T09:55:22.906Z</time></trkpt><trkpt lat="43.447279" lon="11.2281846"><ele>191.8</ele><time>2026-04-02T09:55:23.907Z</time></trkpt><trkpt lat="43.4472484" lon="11.2280812"><ele>191.6</ele><time>2026-04-02T09:55:24.907Z</time></trkpt><trkpt lat="43.4472271" lon="11.227933"><ele>191.4</ele><time>2026-04-02T09:55:25.907Z</time></trkpt><trkpt lat="43.4472114" lon="11.2277629"><ele>191.20000000000002</ele><time>2026-04-02T09:55:26.907Z</time></trkpt><trkpt lat="43.447199" lon="11.2276128"><ele>191.0</ele><time>2026-04-02T09:55:27.907Z</time></trkpt><trkpt lat="43.4471904" lon="11.2274808"><ele>191.0</ele><time>2026-04-02T09:55:28.907Z</time></trkpt><trkpt lat="43.4471817" lon="11.2273556"><ele>191.0</ele><time>2026-04-02T09:55:29.907Z</time></trkpt><trkpt lat="43.4471706" lon="11.2272462"><ele>191.0</ele><time>2026-04-02T09:55:30.906Z</time></trkpt><trkpt lat="43.4471339" lon="11.227109"><ele>191.0</ele><time>2026-04-02T09:55:32.907Z</time></trkpt><trkpt lat="43.4470701" lon="11.2270455"><ele>191.0</ele><time>2026-04-02T09:55:34.907Z</time></trkpt><trkpt lat="43.4469916" lon="11.2270342"><ele>191.0</ele><time>2026-04-02T09:55:36.907Z</time></trkpt><trkpt lat="43.4468909" lon="11.2270833"><ele>190.8</ele><time>2026-04-02T09:55:38.907Z</time></trkpt><trkpt lat="43.4467875" lon="11.2271637"><ele>190.60000000000002</ele><time>2026-04-02T09:55:40.907Z</time></trkpt><trkpt lat="43.4466518" lon="11.2271522"><ele>190.4</ele><time>2026-04-02T09:55:42.907Z</time></trkpt><trkpt lat="43.4465745" lon="11.2271331"><ele>190.2</ele><time>2026-04-02T09:55:43.907Z</time></trkpt><trkpt lat="43.446495" lon="11.2271219"><ele>190.0</ele><time>2026-04-02T09:55:44.907Z</time></trkpt><trkpt lat="43.4464063" lon="11.2271225"><ele>190.0</ele><time>2026-04-02T09:55:45.907Z</time></trkpt><trkpt lat="43.4463028" lon="11.2271252"><ele>190.0</ele><time>2026-04-02T09:55:46.907Z</time></trkpt><trkpt lat="43.4461928" lon="11.2271264"><ele>190.0</ele><time>2026-04-02T09:55:47.906Z</time></trkpt><trkpt lat="43.4460846" lon="11.227129"><ele>190.0</ele><time>2026-04-02T09:55:48.907Z</time></trkpt><trkpt lat="43.4459698" lon="11.2271239"><ele>190.0</ele><time>2026-04-02T09:55:49.907Z</time></trkpt><trkpt lat="43.4458547" lon="11.2271088"><ele>192.6</ele><time>2026-04-02T09:55:50.907Z</time></trkpt><trkpt lat="43.4457441" lon="11.2270701"><ele>195.2</ele><time>2026-04-02T09:55:51.907Z</time></trkpt><trkpt lat="43.4456433" lon="11.2270134"><ele>197.8</ele><time>2026-04-02T09:55:52.907Z</time></trkpt><trkpt lat="43.4455596" lon="11.2269371"><ele>200.4</ele><time>2026-04-02T09:55:53.906Z</time></trkpt><trkpt lat="43.4454873" lon="11.2268487"><ele>203.0</ele><time>2026-04-02T09:55:54.907Z</time></trkpt><trkpt lat="43.4454239" lon="11.2267558"><ele>204.16666666666669</ele><time>2026-04-02T09:55:55.907Z</time></trkpt><trkpt lat="43.445369" lon="11.2266672"><ele>205.33333333333334</ele><time>2026-04-02T09:55:56.907Z</time></trkpt><trkpt lat="43.4453064" lon="11.2266073"><ele>206.5</ele><time>2026-04-02T09:55:57.907Z</time></trkpt><trkpt lat="43.4452391" lon="11.2265583"><ele>207.66666666666669</ele><time>2026-04-02T09:55:58.907Z</time></trkpt><trkpt lat="43.4451518" lon="11.2265317"><ele>208.83333333333334</ele><time>2026-04-02T09:55:59.906Z</time></trkpt><trkpt lat="43.4450459" lon="11.2265062"><ele>210.0</ele><time>2026-04-02T09:56:00.907Z</time></trkpt><trkpt lat="43.4449357" lon="11.2264721"><ele>211.0</ele><time>2026-04-02T09:56:01.907Z</time></trkpt><trkpt lat="43.4448166" lon="11.2264385"><ele>212.0</ele><time>2026-04-02T09:56:02.907Z</time></trkpt><trkpt lat="43.4446932" lon="11.2264026"><ele>213.0</ele><time>2026-04-02T09:56:03.907Z</time></trkpt><trkpt lat="43.4445693" lon="11.2263642"><ele>214.0</ele><time>2026-04-02T09:56:04.906Z</time></trkpt><trkpt lat="43.4444412" lon="11.2263232"><ele>215.25</ele><time>2026-04-02T09:56:05.907Z</time></trkpt><trkpt lat="43.4443101" lon="11.2262821"><ele>216.5</ele><time>2026-04-02T09:56:06.907Z</time></trkpt><trkpt lat="43.4441784" lon="11.2262365"><ele>217.75</ele><time>2026-04-02T09:56:07.907Z</time></trkpt><trkpt lat="43.444047" lon="11.226193"><ele>219.0</ele><time>2026-04-02T09:56:08.907Z</time></trkpt><trkpt lat="43.4439163" lon="11.2261509"><ele>221.5</ele><time>2026-04-02T09:56:09.907Z</time></trkpt><trkpt lat="43.4437866" lon="11.2261063"><ele>224.0</ele><time>2026-04-02T09:56:10.907Z</time></trkpt><trkpt lat="43.4436524" lon="11.2260651"><ele>226.5</ele><time>2026-04-02T09:56:11.907Z</time></trkpt><trkpt lat="43.4435248" lon="11.2260246"><ele>229.0</ele><time>2026-04-02T09:56:12.907Z</time></trkpt><trkpt lat="43.4433981" lon="11.2259845"><ele>229.0</ele><time>2026-04-02T09:56:13.907Z</time></trkpt><trkpt lat="43.4432746" lon="11.2259442"><ele>228.99999999999997</ele><time>2026-04-02T09:56:14.906Z</time></trkpt><trkpt lat="43.4431651" lon="11.2259114"><ele>228.99999999999997</ele><time>2026-04-02T09:56:15.907Z</time></trkpt><trkpt lat="43.4430765" lon="11.2258857"><ele>229.0</ele><time>2026-04-02T09:56:16.907Z</time></trkpt><trkpt lat="43.4430054" lon="11.2258618"><ele>229.0</ele><time>2026-04-02T09:56:17.907Z</time></trkpt><trkpt lat="43.4428974" lon="11.2258352"><ele>229.0</ele><time>2026-04-02T09:56:19.907Z</time></trkpt><trkpt lat="43.4428257" lon="11.225851"><ele>228.99999999999997</ele><time>2026-04-02T09:56:21.907Z</time></trkpt><trkpt lat="43.4427582" lon="11.225948"><ele>228.99999999999997</ele><time>2026-04-02T09:56:23.907Z</time></trkpt><trkpt lat="43.4427333" lon="11.22605"><ele>229.0</ele><time>2026-04-02T09:56:24.907Z</time></trkpt><trkpt lat="43.4427142" lon="11.2261747"><ele>229.0</ele><time>2026-04-02T09:56:25.906Z</time></trkpt><trkpt lat="43.4426865" lon="11.2263229"><ele>229.0</ele><time>2026-04-02T09:56:26.906Z</time></trkpt><trkpt lat="43.4426506" lon="11.2264807"><ele>229.0</ele><time>2026-04-02T09:56:27.907Z</time></trkpt><trkpt lat="43.4426222" lon="11.2266525"><ele>229.0</ele><time>2026-04-02T09:56:28.907Z</time></trkpt><trkpt lat="43.4425888" lon="11.2268198"><ele>229.0</ele><time>2026-04-02T09:56:29.906Z</time></trkpt><trkpt lat="43.4425544" lon="11.2269897"><ele>229.0</ele><time>2026-04-02T09:56:30.907Z</time></trkpt><trkpt lat="43.4425239" lon="11.2271703"><ele>229.0</ele><time>2026-04-02T09:56:31.906Z</time></trkpt><trkpt lat="43.4424901" lon="11.2273606"><ele>229.0</ele><time>2026-04-02T09:56:32.907Z</time></trkpt><trkpt lat="43.4424685" lon="11.2275545"><ele>229.0</ele><time>2026-04-02T09:56:33.907Z</time></trkpt><trkpt lat="43.4424525" lon="11.2277658"><ele>229.33333333333331</ele><time>2026-04-02T09:56:34.907Z</time></trkpt><trkpt lat="43.4424439" lon="11.2279782"><ele>229.66666666666669</ele><time>2026-04-02T09:56:35.906Z</time></trkpt><trkpt lat="43.4424385" lon="11.228196"><ele>230.0</ele><time>2026-04-02T09:56:36.907Z</time></trkpt><trkpt lat="43.4424328" lon="11.2284181"><ele>230.66666666666669</ele><time>2026-04-02T09:56:37.907Z</time></trkpt><trkpt lat="43.4424283" lon="11.2286467"><ele>231.33333333333331</ele><time>2026-04-02T09:56:38.907Z</time></trkpt><trkpt lat="43.4424248" lon="11.2288712"><ele>232.0</ele><time>2026-04-02T09:56:39.907Z</time></trkpt><trkpt lat="43.4424225" lon="11.2290983"><ele>233.0</ele><time>2026-04-02T09:56:40.907Z</time></trkpt><trkpt lat="43.4424179" lon="11.22933"><ele>234.0</ele><time>2026-04-02T09:56:41.907Z</time></trkpt><trkpt lat="43.4424135" lon="11.2295618"><ele>235.0</ele><time>2026-04-02T09:56:42.907Z</time></trkpt><trkpt lat="43.4424093" lon="11.2297919"><ele>237.66666666666666</ele><time>2026-04-02T09:56:43.907Z</time></trkpt><trkpt lat="43.4424046" lon="11.2300122"><ele>240.33333333333331</ele><time>2026-04-02T09:56:44.907Z</time></trkpt><trkpt lat="43.4423991" lon="11.230233"><ele>243.0</ele><time>2026-04-02T09:56:45.906Z</time></trkpt><trkpt lat="43.4423932" lon="11.230446"><ele>245.75</ele><time>2026-04-02T09:56:46.907Z</time></trkpt><trkpt lat="43.4423857" lon="11.2306466"><ele>248.5</ele><time>2026-04-02T09:56:47.907Z</time></trkpt><trkpt lat="43.4423834" lon="11.2308293"><ele>251.25</ele><time>2026-04-02T09:56:48.907Z</time></trkpt><trkpt lat="43.4423825" lon="11.2309985"><ele>254.0</ele><time>2026-04-02T09:56:49.907Z</time></trkpt><trkpt lat="43.4423795" lon="11.2311507"><ele>254.0</ele><time>2026-04-02T09:56:50.907Z</time></trkpt><trkpt lat="43.4423711" lon="11.2312852"><ele>253.99999999999997</ele><time>2026-04-02T09:56:51.907Z</time></trkpt><trkpt lat="43.4423487" lon="11.2314152"><ele>253.99999999999997</ele><time>2026-04-02T09:56:52.907Z</time></trkpt><trkpt lat="43.4423243" lon="11.2315255"><ele>254.0</ele><time>2026-04-02T09:56:53.907Z</time></trkpt><trkpt lat="43.442291" lon="11.2316196"><ele>254.0</ele><time>2026-04-02T09:56:54.907Z</time></trkpt><trkpt lat="43.4421958" lon="11.2317374"><ele>258.0</ele><time>2026-04-02T09:56:56.907Z</time></trkpt><trkpt lat="43.4421238" lon="11.2317744"><ele>262.0</ele><time>2026-04-02T09:56:57.907Z</time></trkpt><trkpt lat="43.4420352" lon="11.2318019"><ele>266.0</ele><time>2026-04-02T09:56:58.907Z</time></trkpt><trkpt lat="43.4419351" lon="11.2318328"><ele>270.0</ele><time>2026-04-02T09:56:59.907Z</time></trkpt><trkpt lat="43.4418345" lon="11.2318725"><ele>274.0</ele><time>2026-04-02T09:57:00.907Z</time></trkpt><trkpt lat="43.4417478" lon="11.2319108"><ele>274.0</ele><time>2026-04-02T09:57:01.907Z</time></trkpt><trkpt lat="43.4416752" lon="11.2319372"><ele>274.0</ele><time>2026-04-02T09:57:02.907Z</time></trkpt><trkpt lat="43.4416019" lon="11.2319666"><ele>274.0</ele><time>2026-04-02T09:57:03.907Z</time></trkpt><trkpt lat="43.4415321" lon="11.2320092"><ele>274.0</ele><time>2026-04-02T09:57:04.907Z</time></trkpt><trkpt lat="43.4414609" lon="11.2320536"><ele>274.0</ele><time>2026-04-02T09:57:05.907Z</time></trkpt><trkpt lat="43.4413709" lon="11.2321504"><ele>274.0</ele><time>2026-04-02T09:57:06.907Z</time></trkpt><trkpt lat="43.4412865" lon="11.2322418"><ele>273.5</ele><time>2026-04-02T09:57:07.907Z</time></trkpt><trkpt lat="43.4411994" lon="11.2323381"><ele>273.0</ele><time>2026-04-02T09:57:08.907Z</time></trkpt><trkpt lat="43.4411018" lon="11.2324355"><ele>272.5</ele><time>2026-04-02T09:57:09.907Z</time></trkpt><trkpt lat="43.441005" lon="11.2325357"><ele>272.0</ele><time>2026-04-02T09:57:10.906Z</time></trkpt><trkpt lat="43.440919" lon="11.2326238"><ele>272.0</ele><time>2026-04-02T09:57:11.907Z</time></trkpt><trkpt lat="43.4408297" lon="11.2327112"><ele>272.0</ele><time>2026-04-02T09:57:12.907Z</time></trkpt><trkpt lat="43.4407435" lon="11.2328014"><ele>272.0</ele><time>2026-04-02T09:57:13.907Z</time></trkpt><trkpt lat="43.4406523" lon="11.2328986"><ele>272.0</ele><time>2026-04-02T09:57:14.907Z</time></trkpt><trkpt lat="43.440564" lon="11.2330111"><ele>272.0</ele><time>2026-04-02T09:57:15.907Z</time></trkpt><trkpt lat="43.4404846" lon="11.2331255"><ele>272.0</ele><time>2026-04-02T09:57:16.907Z</time></trkpt><trkpt lat="43.4404106" lon="11.2332572"><ele>272.0</ele><time>2026-04-02T09:57:17.907Z</time></trkpt><trkpt lat="43.4403412" lon="11.2333987"><ele>272.0</ele><time>2026-04-02T09:57:18.907Z</time></trkpt><trkpt lat="43.4402711" lon="11.2335424"><ele>272.75</ele><time>2026-04-02T09:57:19.907Z</time></trkpt><trkpt lat="43.4402021" lon="11.2336866"><ele>273.5</ele><time>2026-04-02T09:57:20.907Z</time></trkpt><trkpt lat="43.4401345" lon="11.2338196"><ele>274.25</ele><time>2026-04-02T09:57:21.907Z</time></trkpt><trkpt lat="43.4400732" lon="11.2339508"><ele>275.0</ele><time>2026-04-02T09:57:22.907Z</time></trkpt><trkpt lat="43.4400081" lon="11.2340756"><ele>275.75</ele><time>2026-04-02T09:57:23.907Z</time></trkpt><trkpt lat="43.4399317" lon="11.2342019"><ele>276.5</ele><time>2026-04-02T09:57:24.907Z</time></trkpt><trkpt lat="43.4398383" lon="11.2343162"><ele>277.25</ele><time>2026-04-02T09:57:25.907Z</time></trkpt><trkpt lat="43.4397339" lon="11.2344209"><ele>278.0</ele><time>2026-04-02T09:57:26.907Z</time></trkpt><trkpt lat="43.4396156" lon="11.2345295"><ele>278.0</ele><time>2026-04-02T09:57:27.907Z</time></trkpt><trkpt lat="43.4394912" lon="11.2346671"><ele>278.0</ele><time>2026-04-02T09:57:28.907Z</time></trkpt><trkpt lat="43.4393636" lon="11.2348088"><ele>278.0</ele><time>2026-04-02T09:57:29.907Z</time></trkpt><trkpt lat="43.439235" lon="11.2349547"><ele>281.33333333333337</ele><time>2026-04-02T09:57:30.907Z</time></trkpt><trkpt lat="43.4390988" lon="11.2351179"><ele>284.6666666666667</ele><time>2026-04-02T09:57:31.907Z</time></trkpt><trkpt lat="43.4389633" lon="11.2353015"><ele>288.0</ele><time>2026-04-02T09:57:32.907Z</time></trkpt><trkpt lat="43.4388304" lon="11.2354948"><ele>290.6666666666667</ele><time>2026-04-02T09:57:33.907Z</time></trkpt><trkpt lat="43.4387147" lon="11.2356786"><ele>293.33333333333337</ele><time>2026-04-02T09:57:34.906Z</time></trkpt><trkpt lat="43.4386084" lon="11.2358487"><ele>296.0</ele><time>2026-04-02T09:57:35.907Z</time></trkpt><trkpt lat="43.4385088" lon="11.2360021"><ele>296.0</ele><time>2026-04-02T09:57:36.906Z</time></trkpt><trkpt lat="43.4384192" lon="11.2361421"><ele>296.0</ele><time>2026-04-02T09:57:37.907Z</time></trkpt><trkpt lat="43.4383344" lon="11.2362705"><ele>296.0</ele><time>2026-04-02T09:57:38.907Z</time></trkpt><trkpt lat="43.4382572" lon="11.2363858"><ele>296.0</ele><time>2026-04-02T09:57:39.907Z</time></trkpt><trkpt lat="43.4381774" lon="11.2364978"><ele>296.25</ele><time>2026-04-02T09:57:40.907Z</time></trkpt><trkpt lat="43.4380931" lon="11.236605"><ele>296.5</ele><time>2026-04-02T09:57:41.907Z</time></trkpt><trkpt lat="43.4379983" lon="11.2367065"><ele>296.75</ele><time>2026-04-02T09:57:42.906Z</time></trkpt><trkpt lat="43.4378826" lon="11.2368039"><ele>297.0</ele><time>2026-04-02T09:57:43.907Z</time></trkpt><trkpt lat="43.4377545" lon="11.2368893"><ele>297.0</ele><time>2026-04-02T09:57:44.906Z</time></trkpt><trkpt lat="43.4376228" lon="11.2369693"><ele>297.0</ele><time>2026-04-02T09:57:45.907Z</time></trkpt><trkpt lat="43.4374863" lon="11.237037"><ele>297.0</ele><time>2026-04-02T09:57:46.907Z</time></trkpt><trkpt lat="43.4373515" lon="11.2371001"><ele>297.0</ele><time>2026-04-02T09:57:47.907Z</time></trkpt><trkpt lat="43.437215" lon="11.2371633"><ele>296.75</ele><time>2026-04-02T09:57:48.907Z</time></trkpt><trkpt lat="43.4370896" lon="11.2372225"><ele>296.5</ele><time>2026-04-02T09:57:49.907Z</time></trkpt><trkpt lat="43.4369784" lon="11.2373006"><ele>296.25</ele><time>2026-04-02T09:57:50.906Z</time></trkpt><trkpt lat="43.4368804" lon="11.237392"><ele>296.0</ele><time>2026-04-02T09:57:51.907Z</time></trkpt><trkpt lat="43.4367893" lon="11.2375031"><ele>296.0</ele><time>2026-04-02T09:57:52.907Z</time></trkpt><trkpt lat="43.4367127" lon="11.2376337"><ele>296.0</ele><time>2026-04-02T09:57:53.907Z</time></trkpt><trkpt lat="43.4366429" lon="11.2377986"><ele>296.0</ele><time>2026-04-02T09:57:54.907Z</time></trkpt><trkpt lat="43.4365715" lon="11.2379678"><ele>296.0</ele><time>2026-04-02T09:57:55.907Z</time></trkpt><trkpt lat="43.4365012" lon="11.2381286"><ele>295.25</ele><time>2026-04-02T09:57:56.907Z</time></trkpt><trkpt lat="43.4364382" lon="11.2382835"><ele>294.5</ele><time>2026-04-02T09:57:57.907Z</time></trkpt><trkpt lat="43.4363757" lon="11.2384378"><ele>293.75</ele><time>2026-04-02T09:57:58.907Z</time></trkpt><trkpt lat="43.4363101" lon="11.2385892"><ele>293.0</ele><time>2026-04-02T09:57:59.907Z</time></trkpt><trkpt lat="43.4362413" lon="11.2387397"><ele>291.5</ele><time>2026-04-02T09:58:00.906Z</time></trkpt><trkpt lat="43.4361551" lon="11.2388887"><ele>290.0</ele><time>2026-04-02T09:58:01.907Z</time></trkpt><trkpt lat="43.4360653" lon="11.2390364"><ele>288.5</ele><time>2026-04-02T09:58:02.907Z</time></trkpt><trkpt lat="43.4359682" lon="11.2391819"><ele>287.0</ele><time>2026-04-02T09:58:03.907Z</time></trkpt><trkpt lat="43.4358668" lon="11.2393394"><ele>287.0</ele><time>2026-04-02T09:58:04.907Z</time></trkpt><trkpt lat="43.435776" lon="11.2394915"><ele>287.0</ele><time>2026-04-02T09:58:05.907Z</time></trkpt><trkpt lat="43.4356954" lon="11.2396319"><ele>287.0</ele><time>2026-04-02T09:58:06.907Z</time></trkpt><trkpt lat="43.4356186" lon="11.2397694"><ele>287.0</ele><time>2026-04-02T09:58:07.907Z</time></trkpt><trkpt lat="43.4355508" lon="11.2399094"><ele>286.75</ele><time>2026-04-02T09:58:08.907Z</time></trkpt><trkpt lat="43.4354917" lon="11.2400573"><ele>286.5</ele><time>2026-04-02T09:58:09.907Z</time></trkpt><trkpt lat="43.4354431" lon="11.2402105"><ele>286.25</ele><time>2026-04-02T09:58:10.907Z</time></trkpt><trkpt lat="43.4354119" lon="11.2403611"><ele>286.0</ele><time>2026-04-02T09:58:11.907Z</time></trkpt><trkpt lat="43.4353883" lon="11.2405234"><ele>286.75</ele><time>2026-04-02T09:58:12.906Z</time></trkpt><trkpt lat="43.4353872" lon="11.2406882"><ele>287.5</ele><time>2026-04-02T09:58:13.907Z</time></trkpt><trkpt lat="43.4353859" lon="11.2408691"><ele>288.25</ele><time>2026-04-02T09:58:14.907Z</time></trkpt><trkpt lat="43.4353909" lon="11.2410509"><ele>289.0</ele><time>2026-04-02T09:58:15.907Z</time></trkpt><trkpt lat="43.4353991" lon="11.2412136"><ele>289.0</ele><time>2026-04-02T09:58:16.907Z</time></trkpt><trkpt lat="43.4354079" lon="11.2413559"><ele>289.0</ele><time>2026-04-02T09:58:17.907Z</time></trkpt><trkpt lat="43.4354193" lon="11.241478"><ele>289.0</ele><time>2026-04-02T09:58:18.907Z</time></trkpt><trkpt lat="43.435436" lon="11.241583"><ele>289.0</ele><time>2026-04-02T09:58:19.907Z</time></trkpt><trkpt lat="43.4354602" lon="11.2416718"><ele>289.0</ele><time>2026-04-02T09:58:20.907Z</time></trkpt><trkpt lat="43.4354912" lon="11.2417504"><ele>289.0</ele><time>2026-04-02T09:58:21.907Z</time></trkpt><trkpt lat="43.4355291" lon="11.2418322"><ele>288.8</ele><time>2026-04-02T09:58:22.907Z</time></trkpt><trkpt lat="43.4355762" lon="11.2419215"><ele>288.59999999999997</ele><time>2026-04-02T09:58:23.907Z</time></trkpt><trkpt lat="43.4356283" lon="11.2420132"><ele>288.4</ele><time>2026-04-02T09:58:24.907Z</time></trkpt><trkpt lat="43.4356892" lon="11.2421082"><ele>288.2</ele><time>2026-04-02T09:58:25.906Z</time></trkpt><trkpt lat="43.4357591" lon="11.2422183"><ele>288.0</ele><time>2026-04-02T09:58:26.907Z</time></trkpt><trkpt lat="43.4358287" lon="11.2423323"><ele>288.0</ele><time>2026-04-02T09:58:27.907Z</time></trkpt><trkpt lat="43.4359039" lon="11.2424664"><ele>288.0</ele><time>2026-04-02T09:58:28.907Z</time></trkpt><trkpt lat="43.4359898" lon="11.2426011"><ele>288.0</ele><time>2026-04-02T09:58:29.907Z</time></trkpt><trkpt lat="43.4360859" lon="11.2427446"><ele>288.0</ele><time>2026-04-02T09:58:30.907Z</time></trkpt><trkpt lat="43.4361886" lon="11.2428961"><ele>288.0</ele><time>2026-04-02T09:58:31.907Z</time></trkpt><trkpt lat="43.436292" lon="11.2430657"><ele>288.0</ele><time>2026-04-02T09:58:32.907Z</time></trkpt><trkpt lat="43.4363962" lon="11.2432286"><ele>288.0</ele><time>2026-04-02T09:58:33.907Z</time></trkpt><trkpt lat="43.4364988" lon="11.2433906"><ele>287.25</ele><time>2026-04-02T09:58:34.907Z</time></trkpt><trkpt lat="43.4365995" lon="11.2435391"><ele>286.5</ele><time>2026-04-02T09:58:35.907Z</time></trkpt><trkpt lat="43.4367001" lon="11.2436948"><ele>285.75</ele><time>2026-04-02T09:58:36.907Z</time></trkpt><trkpt lat="43.4368023" lon="11.2438446"><ele>285.0</ele><time>2026-04-02T09:58:37.907Z</time></trkpt><trkpt lat="43.4369013" lon="11.2439916"><ele>285.0</ele><time>2026-04-02T09:58:38.907Z</time></trkpt><trkpt lat="43.437003" lon="11.2441543"><ele>285.0</ele><time>2026-04-02T09:58:39.907Z</time></trkpt><trkpt lat="43.4371066" lon="11.2443124"><ele>285.0</ele><time>2026-04-02T09:58:40.907Z</time></trkpt><trkpt lat="43.4372088" lon="11.2444702"><ele>284.75</ele><time>2026-04-02T09:58:41.907Z</time></trkpt><trkpt lat="43.4373046" lon="11.2446198"><ele>284.5</ele><time>2026-04-02T09:58:42.907Z</time></trkpt><trkpt lat="43.4373907" lon="11.2447554"><ele>284.25</ele><time>2026-04-02T09:58:43.907Z</time></trkpt><trkpt lat="43.437483" lon="11.2449023"><ele>284.0</ele><time>2026-04-02T09:58:44.907Z</time></trkpt><trkpt lat="43.4375802" lon="11.2450456"><ele>285.5</ele><time>2026-04-02T09:58:45.907Z</time></trkpt><trkpt lat="43.4376785" lon="11.2451925"><ele>287.0</ele><time>2026-04-02T09:58:46.907Z</time></trkpt><trkpt lat="43.4377738" lon="11.2453456"><ele>288.5</ele><time>2026-04-02T09:58:47.907Z</time></trkpt><trkpt lat="43.4378712" lon="11.2455039"><ele>290.0</ele><time>2026-04-02T09:58:48.906Z</time></trkpt><trkpt lat="43.4379731" lon="11.2456662"><ele>290.0</ele><time>2026-04-02T09:58:49.907Z</time></trkpt><trkpt lat="43.4380754" lon="11.2458284"><ele>290.0</ele><time>2026-04-02T09:58:50.907Z</time></trkpt><trkpt lat="43.438178" lon="11.2459796"><ele>290.0</ele><time>2026-04-02T09:58:51.907Z</time></trkpt><trkpt lat="43.4382572" lon="11.2461184"><ele>290.0</ele><time>2026-04-02T09:58:52.907Z</time></trkpt><trkpt lat="43.4383338" lon="11.246249"><ele>290.0</ele><time>2026-04-02T09:58:53.907Z</time></trkpt><trkpt lat="43.438389" lon="11.2463525"><ele>290.0</ele><time>2026-04-02T09:58:54.907Z</time></trkpt><trkpt lat="43.4384237" lon="11.2464429"><ele>290.0</ele><time>2026-04-02T09:58:55.907Z</time></trkpt><trkpt lat="43.4384481" lon="11.2465459"><ele>290.0</ele><time>2026-04-02T09:58:56.907Z</time></trkpt><trkpt lat="43.4384632" lon="11.2466664"><ele>290.0</ele><time>2026-04-02T09:58:57.907Z</time></trkpt><trkpt lat="43.4384712" lon="11.2468145"><ele>290.0</ele><time>2026-04-02T09:58:58.907Z</time></trkpt><trkpt lat="43.4384805" lon="11.2469714"><ele>290.0</ele><time>2026-04-02T09:58:59.907Z</time></trkpt><trkpt lat="43.4384913" lon="11.2471408"><ele>290.0</ele><time>2026-04-02T09:59:00.907Z</time></trkpt><trkpt lat="43.4385027" lon="11.2473181"><ele>290.0</ele><time>2026-04-02T09:59:01.907Z</time></trkpt><trkpt lat="43.4385085" lon="11.247486"><ele>290.0</ele><time>2026-04-02T09:59:02.907Z</time></trkpt><trkpt lat="43.4385173" lon="11.2476534"><ele>290.0</ele><time>2026-04-02T09:59:03.907Z</time></trkpt><trkpt lat="43.4385283" lon="11.2478178"><ele>290.0</ele><time>2026-04-02T09:59:04.907Z</time></trkpt><trkpt lat="43.4385415" lon="11.2479902"><ele>290.0</ele><time>2026-04-02T09:59:05.907Z</time></trkpt><trkpt lat="43.4385562" lon="11.2481727"><ele>290.0</ele><time>2026-04-02T09:59:06.907Z</time></trkpt><trkpt lat="43.4385642" lon="11.2483456"><ele>290.0</ele><time>2026-04-02T09:59:07.907Z</time></trkpt><trkpt lat="43.4385639" lon="11.2485159"><ele>290.0</ele><time>2026-04-02T09:59:08.907Z</time></trkpt><trkpt lat="43.4385721" lon="11.2486953"><ele>290.0</ele><time>2026-04-02T09:59:09.907Z</time></trkpt><trkpt lat="43.4385797" lon="11.2488761"><ele>290.0</ele><time>2026-04-02T09:59:10.907Z</time></trkpt><trkpt lat="43.4385909" lon="11.249069"><ele>290.0</ele><time>2026-04-02T09:59:11.907Z</time></trkpt><trkpt lat="43.4386068" lon="11.2492613"><ele>290.0</ele><time>2026-04-02T09:59:12.907Z</time></trkpt><trkpt lat="43.4386175" lon="11.2494684"><ele>290.0</ele><time>2026-04-02T09:59:13.907Z</time></trkpt><trkpt lat="43.4386257" lon="11.2496809"><ele>290.0</ele><time>2026-04-02T09:59:14.907Z</time></trkpt><trkpt lat="43.4386408" lon="11.249897"><ele>290.0</ele><time>2026-04-02T09:59:15.907Z</time></trkpt><trkpt lat="43.4386589" lon="11.2500956"><ele>290.0</ele><time>2026-04-02T09:59:16.907Z</time></trkpt><trkpt lat="43.4386699" lon="11.2502808"><ele>290.0</ele><time>2026-04-02T09:59:17.907Z</time></trkpt><trkpt lat="43.4386831" lon="11.2504528"><ele>290.0</ele><time>2026-04-02T09:59:18.907Z</time></trkpt><trkpt lat="43.4386929" lon="11.2506109"><ele>289.75</ele><time>2026-04-02T09:59:19.907Z</time></trkpt><trkpt lat="43.4387" lon="11.2507641"><ele>289.5</ele><time>2026-04-02T09:59:20.907Z</time></trkpt><trkpt lat="43.4387047" lon="11.2509079"><ele>289.25</ele><time>2026-04-02T09:59:21.907Z</time></trkpt><trkpt lat="43.4386861" lon="11.2510731"><ele>289.0</ele><time>2026-04-02T09:59:22.907Z</time></trkpt><trkpt lat="43.4386482" lon="11.2512498"><ele>289.0</ele><time>2026-04-02T09:59:23.907Z</time></trkpt><trkpt lat="43.4386094" lon="11.2514331"><ele>289.0</ele><time>2026-04-02T09:59:24.907Z</time></trkpt><trkpt lat="43.438582" lon="11.2515993"><ele>289.0</ele><time>2026-04-02T09:59:25.907Z</time></trkpt><trkpt lat="43.4385576" lon="11.2517567"><ele>289.0</ele><time>2026-04-02T09:59:26.907Z</time></trkpt><trkpt lat="43.4385275" lon="11.2519087"><ele>289.25</ele><time>2026-04-02T09:59:27.907Z</time></trkpt><trkpt lat="43.4384876" lon="11.2520526"><ele>289.5</ele><time>2026-04-02T09:59:28.907Z</time></trkpt><trkpt lat="43.4384269" lon="11.2521966"><ele>289.75</ele><time>2026-04-02T09:59:29.907Z</time></trkpt><trkpt lat="43.4383657" lon="11.2523404"><ele>290.0</ele><time>2026-04-02T09:59:30.907Z</time></trkpt><trkpt lat="43.4383175" lon="11.2524922"><ele>291.0</ele><time>2026-04-02T09:59:31.907Z</time></trkpt><trkpt lat="43.4382713" lon="11.2526446"><ele>292.0</ele><time>2026-04-02T09:59:32.907Z</time></trkpt><trkpt lat="43.4382219" lon="11.252793"><ele>293.0</ele><time>2026-04-02T09:59:33.907Z</time></trkpt><trkpt lat="43.4381711" lon="11.2529345"><ele>294.0</ele><time>2026-04-02T09:59:34.907Z</time></trkpt><trkpt lat="43.4381225" lon="11.2530874"><ele>293.59999999999997</ele><time>2026-04-02T09:59:35.907Z</time></trkpt><trkpt lat="43.4380742" lon="11.25322"><ele>293.2</ele><time>2026-04-02T09:59:36.907Z</time></trkpt><trkpt lat="43.4380218" lon="11.253347"><ele>292.79999999999995</ele><time>2026-04-02T09:59:37.907Z</time></trkpt><trkpt lat="43.4379679" lon="11.2534754"><ele>292.4</ele><time>2026-04-02T09:59:38.907Z</time></trkpt><trkpt lat="43.4379044" lon="11.253599"><ele>292.0</ele><time>2026-04-02T09:59:39.907Z</time></trkpt><trkpt lat="43.4378434" lon="11.2537261"><ele>292.0</ele><time>2026-04-02T09:59:40.907Z</time></trkpt><trkpt lat="43.4377817" lon="11.2538392"><ele>292.0</ele><time>2026-04-02T09:59:41.906Z</time></trkpt><trkpt lat="43.4377116" lon="11.2539278"><ele>292.0</ele><time>2026-04-02T09:59:42.907Z</time></trkpt><trkpt lat="43.437626" lon="11.2539988"><ele>292.0</ele><time>2026-04-02T09:59:43.907Z</time></trkpt><trkpt lat="43.4375132" lon="11.254057"><ele>292.0</ele><time>2026-04-02T09:59:44.907Z</time></trkpt><trkpt lat="43.4373875" lon="11.2541093"><ele>292.8</ele><time>2026-04-02T09:59:45.907Z</time></trkpt><trkpt lat="43.4372732" lon="11.2541568"><ele>293.6</ele><time>2026-04-02T09:59:46.907Z</time></trkpt><trkpt lat="43.4371704" lon="11.2542001"><ele>294.40000000000003</ele><time>2026-04-02T09:59:47.907Z</time></trkpt><trkpt lat="43.4370759" lon="11.2542404"><ele>295.2</ele><time>2026-04-02T09:59:48.907Z</time></trkpt><trkpt lat="43.4369899" lon="11.2542749"><ele>296.0</ele><time>2026-04-02T09:59:49.907Z</time></trkpt><trkpt lat="43.4369167" lon="11.2543125"><ele>296.0</ele><time>2026-04-02T09:59:50.907Z</time></trkpt><trkpt lat="43.4368409" lon="11.2544148"><ele>296.0</ele><time>2026-04-02T09:59:52.907Z</time></trkpt><trkpt lat="43.4368176" lon="11.2545334"><ele>296.0</ele><time>2026-04-02T09:59:54.907Z</time></trkpt><trkpt lat="43.4367606" lon="11.2546161"><ele>296.0</ele><time>2026-04-02T09:59:56.907Z</time></trkpt><trkpt lat="43.436699" lon="11.2546425"><ele>296.0</ele><time>2026-04-02T09:59:57.907Z</time></trkpt><trkpt lat="43.4366074" lon="11.2546512"><ele>296.0</ele><time>2026-04-02T09:59:58.907Z</time></trkpt><trkpt lat="43.4364861" lon="11.2546396"><ele>296.0</ele><time>2026-04-02T09:59:59.907Z</time></trkpt><trkpt lat="43.436357" lon="11.25463"><ele>296.0</ele><time>2026-04-02T10:00:00.907Z</time></trkpt><trkpt lat="43.4362198" lon="11.2546186"><ele>296.0</ele><time>2026-04-02T10:00:01.907Z</time></trkpt><trkpt lat="43.4360805" lon="11.2545954"><ele>296.0</ele><time>2026-04-02T10:00:02.907Z</time></trkpt><trkpt lat="43.4359432" lon="11.2545721"><ele>293.5</ele><time>2026-04-02T10:00:03.907Z</time></trkpt><trkpt lat="43.4358083" lon="11.25455"><ele>291.0</ele><time>2026-04-02T10:00:04.907Z</time></trkpt><trkpt lat="43.4356753" lon="11.2545364"><ele>288.5</ele><time>2026-04-02T10:00:05.907Z</time></trkpt><trkpt lat="43.4355416" lon="11.2545198"><ele>286.0</ele><time>2026-04-02T10:00:06.906Z</time></trkpt><trkpt lat="43.4353972" lon="11.2545049"><ele>283.3333333333333</ele><time>2026-04-02T10:00:07.907Z</time></trkpt><trkpt lat="43.4352492" lon="11.2544775"><ele>280.6666666666667</ele><time>2026-04-02T10:00:08.907Z</time></trkpt><trkpt lat="43.4350926" lon="11.254457"><ele>278.0</ele><time>2026-04-02T10:00:09.907Z</time></trkpt><trkpt lat="43.4349345" lon="11.2544304"><ele>278.0</ele><time>2026-04-02T10:00:10.907Z</time></trkpt><trkpt lat="43.4347747" lon="11.2544099"><ele>278.0</ele><time>2026-04-02T10:00:11.907Z</time></trkpt><trkpt lat="43.4346138" lon="11.2543903"><ele>278.0</ele><time>2026-04-02T10:00:12.907Z</time></trkpt><trkpt lat="43.4344473" lon="11.2543693"><ele>274.6666666666667</ele><time>2026-04-02T10:00:13.907Z</time></trkpt><trkpt lat="43.4342664" lon="11.2543424"><ele>271.3333333333333</ele><time>2026-04-02T10:00:14.907Z</time></trkpt><trkpt lat="43.4340753" lon="11.2543162"><ele>268.0</ele><time>2026-04-02T10:00:15.907Z</time></trkpt><trkpt lat="43.4339052" lon="11.2542936"><ele>265.5</ele><time>2026-04-02T10:00:16.906Z</time></trkpt><trkpt lat="43.4337467" lon="11.2542712"><ele>263.0</ele><time>2026-04-02T10:00:17.907Z</time></trkpt><trkpt lat="43.4336" lon="11.2542478"><ele>260.5</ele><time>2026-04-02T10:00:18.907Z</time></trkpt><trkpt lat="43.4334639" lon="11.2542277"><ele>258.0</ele><time>2026-04-02T10:00:19.906Z</time></trkpt><trkpt lat="43.4333343" lon="11.2542047"><ele>258.0</ele><time>2026-04-02T10:00:20.907Z</time></trkpt><trkpt lat="43.4332198" lon="11.2541845"><ele>258.0</ele><time>2026-04-02T10:00:21.907Z</time></trkpt><trkpt lat="43.4331076" lon="11.2541656"><ele>258.0</ele><time>2026-04-02T10:00:22.907Z</time></trkpt><trkpt lat="43.4330095" lon="11.2541579"><ele>258.0</ele><time>2026-04-02T10:00:23.907Z</time></trkpt><trkpt lat="43.432924" lon="11.2541508"><ele>258.0</ele><time>2026-04-02T10:00:24.907Z</time></trkpt><trkpt lat="43.4328319" lon="11.2541399"><ele>256.3333333333333</ele><time>2026-04-02T10:00:25.907Z</time></trkpt><trkpt lat="43.4327417" lon="11.2541324"><ele>254.66666666666669</ele><time>2026-04-02T10:00:26.906Z</time></trkpt><trkpt lat="43.4326726" lon="11.2541291"><ele>253.0</ele><time>2026-04-02T10:00:27.907Z</time></trkpt><trkpt lat="43.4326083" lon="11.2541424"><ele>251.33333333333334</ele><time>2026-04-02T10:00:28.906Z</time></trkpt><trkpt lat="43.4325235" lon="11.2542076"><ele>249.66666666666669</ele><time>2026-04-02T10:00:30.907Z</time></trkpt><trkpt lat="43.4324902" lon="11.2542969"><ele>248.0</ele><time>2026-04-02T10:00:32.907Z</time></trkpt><trkpt lat="43.4324803" lon="11.2543833"><ele>248.0</ele><time>2026-04-02T10:00:33.907Z</time></trkpt><trkpt lat="43.4324884" lon="11.2544985"><ele>248.0</ele><time>2026-04-02T10:00:34.907Z</time></trkpt><trkpt lat="43.4325119" lon="11.2546227"><ele>248.0</ele><time>2026-04-02T10:00:35.907Z</time></trkpt><trkpt lat="43.4325357" lon="11.2547406"><ele>248.0</ele><time>2026-04-02T10:00:36.907Z</time></trkpt><trkpt lat="43.4325668" lon="11.2548916"><ele>248.0</ele><time>2026-04-02T10:00:37.907Z</time></trkpt><trkpt lat="43.432609" lon="11.2550621"><ele>247.33333333333334</ele><time>2026-04-02T10:00:38.907Z</time></trkpt><trkpt lat="43.4326534" lon="11.2552443"><ele>246.66666666666669</ele><time>2026-04-02T10:00:39.907Z</time></trkpt><trkpt lat="43.4327043" lon="11.25546"><ele>246.0</ele><time>2026-04-02T10:00:40.907Z</time></trkpt><trkpt lat="43.4327655" lon="11.2556976"><ele>246.0</ele><time>2026-04-02T10:00:41.907Z</time></trkpt><trkpt lat="43.4328347" lon="11.2559659"><ele>246.0</ele><time>2026-04-02T10:00:42.907Z</time></trkpt><trkpt lat="43.4329077" lon="11.2562779"><ele>246.0</ele><time>2026-04-02T10:00:43.906Z</time></trkpt><trkpt lat="43.4329829" lon="11.2565995"><ele>252.5</ele><time>2026-04-02T10:00:44.907Z</time></trkpt><trkpt lat="43.433071" lon="11.2569495"><ele>259.0</ele><time>2026-04-02T10:00:45.907Z</time></trkpt><trkpt lat="43.4331624" lon="11.2573195"><ele>263.0</ele><time>2026-04-02T10:00:46.907Z</time></trkpt><trkpt lat="43.4332435" lon="11.2576636"><ele>267.0</ele><time>2026-04-02T10:00:47.907Z</time></trkpt><trkpt lat="43.4333233" lon="11.2579954"><ele>269.5</ele><time>2026-04-02T10:00:48.907Z</time></trkpt><trkpt lat="43.4334015" lon="11.2583196"><ele>272.0</ele><time>2026-04-02T10:00:49.907Z</time></trkpt><trkpt lat="43.4334652" lon="11.2586397"><ele>274.0</ele><time>2026-04-02T10:00:50.907Z</time></trkpt><trkpt lat="43.4335113" lon="11.2589693"><ele>276.0</ele><time>2026-04-02T10:00:51.907Z</time></trkpt><trkpt lat="43.43355" lon="11.2593177"><ele>276.0</ele><time>2026-04-02T10:00:52.907Z</time></trkpt><trkpt lat="43.4335733" lon="11.2596764"><ele>276.0</ele><time>2026-04-02T10:00:53.907Z</time></trkpt><trkpt lat="43.4335797" lon="11.2600429"><ele>279.5</ele><time>2026-04-02T10:00:54.907Z</time></trkpt><trkpt lat="43.4335681" lon="11.260401"><ele>283.0</ele><time>2026-04-02T10:00:55.907Z</time></trkpt><trkpt lat="43.4335403" lon="11.260765"><ele>287.0</ele><time>2026-04-02T10:00:56.907Z</time></trkpt><trkpt lat="43.4334941" lon="11.261136"><ele>291.0</ele><time>2026-04-02T10:00:57.907Z</time></trkpt><trkpt lat="43.4334237" lon="11.261515"><ele>295.0</ele><time>2026-04-02T10:00:58.906Z</time></trkpt><trkpt lat="43.4333543" lon="11.2618651"><ele>299.0</ele><time>2026-04-02T10:00:59.906Z</time></trkpt><trkpt lat="43.433291" lon="11.2621877"><ele>301.33333333333337</ele><time>2026-04-02T10:01:00.907Z</time></trkpt><trkpt lat="43.4332315" lon="11.2624922"><ele>303.6666666666667</ele><time>2026-04-02T10:01:01.907Z</time></trkpt><trkpt lat="43.4331783" lon="11.2627735"><ele>306.0</ele><time>2026-04-02T10:01:02.907Z</time></trkpt><trkpt lat="43.4331317" lon="11.2630324"><ele>308.0</ele><time>2026-04-02T10:01:03.907Z</time></trkpt><trkpt lat="43.4330901" lon="11.2632653"><ele>310.0</ele><time>2026-04-02T10:01:04.907Z</time></trkpt><trkpt lat="43.4330505" lon="11.2634747"><ele>312.0</ele><time>2026-04-02T10:01:05.907Z</time></trkpt><trkpt lat="43.4330237" lon="11.2636554"><ele>312.0</ele><time>2026-04-02T10:01:06.907Z</time></trkpt><trkpt lat="43.4330045" lon="11.2638266"><ele>312.0</ele><time>2026-04-02T10:01:07.907Z</time></trkpt><trkpt lat="43.4329904" lon="11.2639759"><ele>312.0</ele><time>2026-04-02T10:01:08.907Z</time></trkpt><trkpt lat="43.4329807" lon="11.2641096"><ele>312.0</ele><time>2026-04-02T10:01:09.907Z</time></trkpt><trkpt lat="43.4329811" lon="11.2642268"><ele>312.0</ele><time>2026-04-02T10:01:10.907Z</time></trkpt><trkpt lat="43.4329833" lon="11.2643142"><ele>312.0</ele><time>2026-04-02T10:01:11.907Z</time></trkpt><trkpt lat="43.4329947" lon="11.2644065"><ele>312.0</ele><time>2026-04-02T10:01:13.907Z</time></trkpt><trkpt lat="43.4330153" lon="11.2642521"><ele>312.0</ele><time>2026-04-02T10:01:19.907Z</time></trkpt><trkpt lat="43.4330076" lon="11.2641067"><ele>312.0</ele><time>2026-04-02T10:01:20.907Z</time></trkpt><trkpt lat="43.4330165" lon="11.2639197"><ele>312.0</ele><time>2026-04-02T10:01:21.906Z</time></trkpt><trkpt lat="43.4330408" lon="11.2636918"><ele>312.0</ele><time>2026-04-02T10:01:22.907Z</time></trkpt><trkpt lat="43.4330819" lon="11.2634345"><ele>312.0</ele><time>2026-04-02T10:01:23.907Z</time></trkpt><trkpt lat="43.4331375" lon="11.2631542"><ele>312.0</ele><time>2026-04-02T10:01:24.907Z</time></trkpt><trkpt lat="43.4331906" lon="11.2628911"><ele>310.0</ele><time>2026-04-02T10:01:25.906Z</time></trkpt><trkpt lat="43.4332429" lon="11.2626316"><ele>308.0</ele><time>2026-04-02T10:01:26.907Z</time></trkpt><trkpt lat="43.433295" lon="11.2623517"><ele>306.0</ele><time>2026-04-02T10:01:27.907Z</time></trkpt><trkpt lat="43.4333486" lon="11.2620479"><ele>302.5</ele><time>2026-04-02T10:01:28.906Z</time></trkpt><trkpt lat="43.4334045" lon="11.2617309"><ele>299.0</ele><time>2026-04-02T10:01:29.906Z</time></trkpt><trkpt lat="43.4334565" lon="11.2614317"><ele>296.33333333333337</ele><time>2026-04-02T10:01:30.907Z</time></trkpt><trkpt lat="43.4335022" lon="11.2611521"><ele>293.6666666666667</ele><time>2026-04-02T10:01:31.907Z</time></trkpt><trkpt lat="43.4335495" lon="11.2608763"><ele>291.0</ele><time>2026-04-02T10:01:32.907Z</time></trkpt><trkpt lat="43.4335846" lon="11.2606091"><ele>288.3333333333333</ele><time>2026-04-02T10:01:33.907Z</time></trkpt><trkpt lat="43.4336046" lon="11.2603342"><ele>285.66666666666663</ele><time>2026-04-02T10:01:34.906Z</time></trkpt><trkpt lat="43.4336123" lon="11.2600504"><ele>283.0</ele><time>2026-04-02T10:01:35.907Z</time></trkpt><trkpt lat="43.4336067" lon="11.2597737"><ele>280.66666666666663</ele><time>2026-04-02T10:01:36.907Z</time></trkpt><trkpt lat="43.4335966" lon="11.2594998"><ele>278.3333333333333</ele><time>2026-04-02T10:01:37.907Z</time></trkpt><trkpt lat="43.4335761" lon="11.259235"><ele>276.0</ele><time>2026-04-02T10:01:38.907Z</time></trkpt><trkpt lat="43.4335523" lon="11.2589792"><ele>274.6666666666667</ele><time>2026-04-02T10:01:39.906Z</time></trkpt><trkpt lat="43.4335164" lon="11.2587303"><ele>273.33333333333337</ele><time>2026-04-02T10:01:40.907Z</time></trkpt><trkpt lat="43.4334669" lon="11.2584934"><ele>272.0</ele><time>2026-04-02T10:01:41.907Z</time></trkpt><trkpt lat="43.4334156" lon="11.2582627"><ele>270.33333333333337</ele><time>2026-04-02T10:01:42.907Z</time></trkpt><trkpt lat="43.4333644" lon="11.2580478"><ele>268.6666666666667</ele><time>2026-04-02T10:01:43.907Z</time></trkpt><trkpt lat="43.4333171" lon="11.2578478"><ele>267.0</ele><time>2026-04-02T10:01:44.907Z</time></trkpt><trkpt lat="43.4332714" lon="11.2576524"><ele>267.0</ele><time>2026-04-02T10:01:45.907Z</time></trkpt><trkpt lat="43.4332265" lon="11.2574708"><ele>267.0</ele><time>2026-04-02T10:01:46.907Z</time></trkpt><trkpt lat="43.4331813" lon="11.2572909"><ele>267.0</ele><time>2026-04-02T10:01:47.907Z</time></trkpt><trkpt lat="43.433138" lon="11.2571162"><ele>267.0</ele><time>2026-04-02T10:01:48.907Z</time></trkpt><trkpt lat="43.4330957" lon="11.2569411"><ele>265.0</ele><time>2026-04-02T10:01:49.907Z</time></trkpt><trkpt lat="43.4330566" lon="11.2567687"><ele>263.0</ele><time>2026-04-02T10:01:50.907Z</time></trkpt><trkpt lat="43.4330178" lon="11.2565992"><ele>261.0</ele><time>2026-04-02T10:01:51.907Z</time></trkpt><trkpt lat="43.4329757" lon="11.2564233"><ele>259.0</ele><time>2026-04-02T10:01:52.907Z</time></trkpt><trkpt lat="43.4329258" lon="11.2562385"><ele>254.66666666666666</ele><time>2026-04-02T10:01:53.907Z</time></trkpt><trkpt lat="43.4328728" lon="11.2560331"><ele>250.33333333333331</ele><time>2026-04-02T10:01:54.907Z</time></trkpt><trkpt lat="43.4328211" lon="11.255818"><ele>246.0</ele><time>2026-04-02T10:01:55.907Z</time></trkpt><trkpt lat="43.4327697" lon="11.2556132"><ele>246.0</ele><time>2026-04-02T10:01:56.907Z</time></trkpt><trkpt lat="43.4327235" lon="11.2554197"><ele>246.0</ele><time>2026-04-02T10:01:57.907Z</time></trkpt><trkpt lat="43.432682" lon="11.2552391"><ele>246.0</ele><time>2026-04-02T10:01:58.907Z</time></trkpt><trkpt lat="43.4326419" lon="11.2550654"><ele>246.0</ele><time>2026-04-02T10:01:59.907Z</time></trkpt><trkpt lat="43.4326052" lon="11.254903"><ele>246.33333333333334</ele><time>2026-04-02T10:02:00.907Z</time></trkpt><trkpt lat="43.4325742" lon="11.2547759"><ele>246.66666666666669</ele><time>2026-04-02T10:02:01.907Z</time></trkpt><trkpt lat="43.4325554" lon="11.2546677"><ele>247.0</ele><time>2026-04-02T10:02:02.907Z</time></trkpt><trkpt lat="43.4325296" lon="11.2545876"><ele>247.33333333333334</ele><time>2026-04-02T10:02:03.907Z</time></trkpt><trkpt lat="43.4324474" lon="11.2545026"><ele>247.66666666666669</ele><time>2026-04-02T10:02:05.907Z</time></trkpt><trkpt lat="43.4323843" lon="11.254509"><ele>248.0</ele><time>2026-04-02T10:02:06.907Z</time></trkpt><trkpt lat="43.432306" lon="11.2545484"><ele>248.0</ele><time>2026-04-02T10:02:07.907Z</time></trkpt><trkpt lat="43.4322137" lon="11.2546115"><ele>248.0</ele><time>2026-04-02T10:02:08.907Z</time></trkpt><trkpt lat="43.4321187" lon="11.2546843"><ele>248.0</ele><time>2026-04-02T10:02:09.907Z</time></trkpt><trkpt lat="43.4320242" lon="11.254763"><ele>248.0</ele><time>2026-04-02T10:02:10.907Z</time></trkpt><trkpt lat="43.431921" lon="11.2548426"><ele>248.0</ele><time>2026-04-02T10:02:11.906Z</time></trkpt><trkpt lat="43.4318121" lon="11.254927"><ele>246.0</ele><time>2026-04-02T10:02:12.907Z</time></trkpt><trkpt lat="43.4317062" lon="11.2550115"><ele>244.0</ele><time>2026-04-02T10:02:13.906Z</time></trkpt><trkpt lat="43.4315869" lon="11.2551031"><ele>242.0</ele><time>2026-04-02T10:02:14.907Z</time></trkpt><trkpt lat="43.4314693" lon="11.2551865"><ele>240.0</ele><time>2026-04-02T10:02:15.907Z</time></trkpt><trkpt lat="43.4313407" lon="11.2552834"><ele>238.75</ele><time>2026-04-02T10:02:16.907Z</time></trkpt><trkpt lat="43.4312155" lon="11.2553823"><ele>237.5</ele><time>2026-04-02T10:02:17.907Z</time></trkpt><trkpt lat="43.4310926" lon="11.2554706"><ele>236.25</ele><time>2026-04-02T10:02:18.907Z</time></trkpt><trkpt lat="43.4309657" lon="11.2555637"><ele>235.0</ele><time>2026-04-02T10:02:19.907Z</time></trkpt><trkpt lat="43.4308301" lon="11.2556611"><ele>235.0</ele><time>2026-04-02T10:02:20.907Z</time></trkpt><trkpt lat="43.4306864" lon="11.255757"><ele>235.0</ele><time>2026-04-02T10:02:21.907Z</time></trkpt><trkpt lat="43.4305463" lon="11.2558556"><ele>235.0</ele><time>2026-04-02T10:02:22.907Z</time></trkpt><trkpt lat="43.4304168" lon="11.2559416"><ele>234.0</ele><time>2026-04-02T10:02:23.907Z</time></trkpt><trkpt lat="43.4302912" lon="11.2560314"><ele>233.0</ele><time>2026-04-02T10:02:24.907Z</time></trkpt><trkpt lat="43.4301654" lon="11.2561244"><ele>232.0</ele><time>2026-04-02T10:02:25.907Z</time></trkpt><trkpt lat="43.4300375" lon="11.256202"><ele>231.0</ele><time>2026-04-02T10:02:26.907Z</time></trkpt><trkpt lat="43.4298987" lon="11.2562664"><ele>231.0</ele><time>2026-04-02T10:02:27.907Z</time></trkpt><trkpt lat="43.4297471" lon="11.2563154"><ele>231.0</ele><time>2026-04-02T10:02:28.907Z</time></trkpt><trkpt lat="43.4295855" lon="11.256343"><ele>231.0</ele><time>2026-04-02T10:02:29.907Z</time></trkpt><trkpt lat="43.4294147" lon="11.2563554"><ele>231.0</ele><time>2026-04-02T10:02:30.907Z</time></trkpt><trkpt lat="43.4292652" lon="11.256363"><ele>231.0</ele><time>2026-04-02T10:02:31.907Z</time></trkpt><trkpt lat="43.4291329" lon="11.2563662"><ele>231.0</ele><time>2026-04-02T10:02:32.907Z</time></trkpt><trkpt lat="43.4289986" lon="11.2563687"><ele>231.0</ele><time>2026-04-02T10:02:33.907Z</time></trkpt><trkpt lat="43.4288672" lon="11.2563739"><ele>231.75</ele><time>2026-04-02T10:02:34.907Z</time></trkpt><trkpt lat="43.4287337" lon="11.2563863"><ele>232.5</ele><time>2026-04-02T10:02:35.907Z</time></trkpt><trkpt lat="43.4285949" lon="11.2563924"><ele>233.25</ele><time>2026-04-02T10:02:36.906Z</time></trkpt><trkpt lat="43.4284543" lon="11.2563781"><ele>234.0</ele><time>2026-04-02T10:02:37.907Z</time></trkpt><trkpt lat="43.428308" lon="11.2563433"><ele>234.0</ele><time>2026-04-02T10:02:38.907Z</time></trkpt><trkpt lat="43.4281558" lon="11.2562977"><ele>234.0</ele><time>2026-04-02T10:02:39.907Z</time></trkpt><trkpt lat="43.4280092" lon="11.2562527"><ele>234.0</ele><time>2026-04-02T10:02:40.907Z</time></trkpt><trkpt lat="43.4278838" lon="11.2562165"><ele>234.0</ele><time>2026-04-02T10:02:41.907Z</time></trkpt><trkpt lat="43.4277624" lon="11.2561884"><ele>235.79999999999998</ele><time>2026-04-02T10:02:42.907Z</time></trkpt><trkpt lat="43.4276529" lon="11.2561732"><ele>237.59999999999997</ele><time>2026-04-02T10:02:43.907Z</time></trkpt><trkpt lat="43.4275557" lon="11.2561727"><ele>239.4</ele><time>2026-04-02T10:02:44.906Z</time></trkpt><trkpt lat="43.4274691" lon="11.2561828"><ele>241.2</ele><time>2026-04-02T10:02:45.907Z</time></trkpt><trkpt lat="43.427386" lon="11.2562083"><ele>243.0</ele><time>2026-04-02T10:02:46.907Z</time></trkpt><trkpt lat="43.4273161" lon="11.2562523"><ele>243.0</ele><time>2026-04-02T10:02:47.907Z</time></trkpt><trkpt lat="43.4272597" lon="11.2563179"><ele>243.0</ele><time>2026-04-02T10:02:48.907Z</time></trkpt><trkpt lat="43.4272133" lon="11.2564127"><ele>243.0</ele><time>2026-04-02T10:02:49.907Z</time></trkpt><trkpt lat="43.4271646" lon="11.2565264"><ele>243.0</ele><time>2026-04-02T10:02:50.907Z</time></trkpt><trkpt lat="43.4271056" lon="11.2566575"><ele>243.0</ele><time>2026-04-02T10:02:51.907Z</time></trkpt><trkpt lat="43.427044" lon="11.2568049"><ele>244.75</ele><time>2026-04-02T10:02:52.907Z</time></trkpt><trkpt lat="43.4269727" lon="11.2569665"><ele>246.5</ele><time>2026-04-02T10:02:53.907Z</time></trkpt><trkpt lat="43.4268967" lon="11.2571326"><ele>248.25</ele><time>2026-04-02T10:02:54.907Z</time></trkpt><trkpt lat="43.426829" lon="11.2572929"><ele>250.0</ele><time>2026-04-02T10:02:55.907Z</time></trkpt><trkpt lat="43.4267568" lon="11.2574592"><ele>251.0</ele><time>2026-04-02T10:02:56.907Z</time></trkpt><trkpt lat="43.4266809" lon="11.2576223"><ele>252.0</ele><time>2026-04-02T10:02:57.906Z</time></trkpt><trkpt lat="43.4266134" lon="11.2577773"><ele>253.0</ele><time>2026-04-02T10:02:58.907Z</time></trkpt><trkpt lat="43.4265563" lon="11.2579336"><ele>254.0</ele><time>2026-04-02T10:02:59.907Z</time></trkpt><trkpt lat="43.4265081" lon="11.2580817"><ele>254.6</ele><time>2026-04-02T10:03:00.907Z</time></trkpt><trkpt lat="43.4264729" lon="11.2582297"><ele>255.2</ele><time>2026-04-02T10:03:01.907Z</time></trkpt><trkpt lat="43.4264528" lon="11.2583799"><ele>255.79999999999998</ele><time>2026-04-02T10:03:02.907Z</time></trkpt><trkpt lat="43.4264473" lon="11.2585088"><ele>256.4</ele><time>2026-04-02T10:03:03.907Z</time></trkpt><trkpt lat="43.4264459" lon="11.2586467"><ele>257.0</ele><time>2026-04-02T10:03:04.907Z</time></trkpt><trkpt lat="43.426447" lon="11.2587991"><ele>258.0</ele><time>2026-04-02T10:03:05.907Z</time></trkpt><trkpt lat="43.4264483" lon="11.2589524"><ele>259.0</ele><time>2026-04-02T10:03:06.907Z</time></trkpt><trkpt lat="43.4264498" lon="11.2591118"><ele>260.0</ele><time>2026-04-02T10:03:07.907Z</time></trkpt><trkpt lat="43.4264579" lon="11.2592714"><ele>261.0</ele><time>2026-04-02T10:03:08.907Z</time></trkpt><trkpt lat="43.4264743" lon="11.2594377"><ele>261.0</ele><time>2026-04-02T10:03:09.907Z</time></trkpt><trkpt lat="43.4264929" lon="11.2596165"><ele>261.0</ele><time>2026-04-02T10:03:10.907Z</time></trkpt><trkpt lat="43.4265115" lon="11.2597985"><ele>261.0</ele><time>2026-04-02T10:03:11.907Z</time></trkpt><trkpt lat="43.4265364" lon="11.2599927"><ele>261.0</ele><time>2026-04-02T10:03:12.907Z</time></trkpt><trkpt lat="43.4265588" lon="11.2601988"><ele>262.3333333333333</ele><time>2026-04-02T10:03:13.907Z</time></trkpt><trkpt lat="43.4265787" lon="11.2604038"><ele>263.66666666666663</ele><time>2026-04-02T10:03:14.907Z</time></trkpt><trkpt lat="43.4265978" lon="11.2606133"><ele>265.0</ele><time>2026-04-02T10:03:15.907Z</time></trkpt><trkpt lat="43.4266103" lon="11.2608227"><ele>266.25</ele><time>2026-04-02T10:03:16.907Z</time></trkpt><trkpt lat="43.4266217" lon="11.2610097"><ele>267.5</ele><time>2026-04-02T10:03:17.907Z</time></trkpt><trkpt lat="43.4266334" lon="11.2611878"><ele>268.75</ele><time>2026-04-02T10:03:18.907Z</time></trkpt><trkpt lat="43.4266451" lon="11.26136"><ele>270.0</ele><time>2026-04-02T10:03:19.907Z</time></trkpt><trkpt lat="43.4266607" lon="11.2615349"><ele>271.4</ele><time>2026-04-02T10:03:20.907Z</time></trkpt><trkpt lat="43.4266782" lon="11.2616982"><ele>272.8</ele><time>2026-04-02T10:03:21.906Z</time></trkpt><trkpt lat="43.4267023" lon="11.2618461"><ele>274.2</ele><time>2026-04-02T10:03:22.907Z</time></trkpt><trkpt lat="43.4267368" lon="11.2619831"><ele>275.6</ele><time>2026-04-02T10:03:23.907Z</time></trkpt><trkpt lat="43.4267802" lon="11.2620978"><ele>277.0</ele><time>2026-04-02T10:03:24.907Z</time></trkpt><trkpt lat="43.4268277" lon="11.2622201"><ele>278.75</ele><time>2026-04-02T10:03:25.907Z</time></trkpt><trkpt lat="43.4268787" lon="11.2623479"><ele>280.5</ele><time>2026-04-02T10:03:26.907Z</time></trkpt><trkpt lat="43.4269319" lon="11.2624835"><ele>282.25</ele><time>2026-04-02T10:03:27.907Z</time></trkpt><trkpt lat="43.4269859" lon="11.2626304"><ele>284.0</ele><time>2026-04-02T10:03:28.907Z</time></trkpt><trkpt lat="43.4270399" lon="11.2627871"><ele>284.0</ele><time>2026-04-02T10:03:29.907Z</time></trkpt><trkpt lat="43.4270951" lon="11.2629347"><ele>284.0</ele><time>2026-04-02T10:03:30.907Z</time></trkpt><trkpt lat="43.4271546" lon="11.2630699"><ele>284.0</ele><time>2026-04-02T10:03:31.907Z</time></trkpt><trkpt lat="43.4272155" lon="11.2632019"><ele>284.0</ele><time>2026-04-02T10:03:32.907Z</time></trkpt><trkpt lat="43.4272826" lon="11.2633426"><ele>284.75</ele><time>2026-04-02T10:03:33.906Z</time></trkpt><trkpt lat="43.4273559" lon="11.2634843"><ele>285.5</ele><time>2026-04-02T10:03:34.906Z</time></trkpt><trkpt lat="43.4274277" lon="11.2636219"><ele>286.25</ele><time>2026-04-02T10:03:35.907Z</time></trkpt><trkpt lat="43.4274973" lon="11.2637394"><ele>287.0</ele><time>2026-04-02T10:03:36.906Z</time></trkpt><trkpt lat="43.4275612" lon="11.2638378"><ele>287.0</ele><time>2026-04-02T10:03:37.907Z</time></trkpt><trkpt lat="43.4276136" lon="11.2639279"><ele>287.0</ele><time>2026-04-02T10:03:38.907Z</time></trkpt><trkpt lat="43.4276666" lon="11.2640195"><ele>287.0</ele><time>2026-04-02T10:03:39.907Z</time></trkpt><trkpt lat="43.4277203" lon="11.2641066"><ele>287.0</ele><time>2026-04-02T10:03:40.907Z</time></trkpt><trkpt lat="43.42777" lon="11.2642108"><ele>287.0</ele><time>2026-04-02T10:03:41.907Z</time></trkpt><trkpt lat="43.4278121" lon="11.2643336"><ele>287.0</ele><time>2026-04-02T10:03:42.907Z</time></trkpt><trkpt lat="43.4278389" lon="11.2644561"><ele>286.8</ele><time>2026-04-02T10:03:43.907Z</time></trkpt><trkpt lat="43.427849" lon="11.2645989"><ele>286.6</ele><time>2026-04-02T10:03:44.907Z</time></trkpt><trkpt lat="43.4278502" lon="11.2647468"><ele>286.40000000000003</ele><time>2026-04-02T10:03:45.907Z</time></trkpt><trkpt lat="43.4278407" lon="11.2648875"><ele>286.2</ele><time>2026-04-02T10:03:46.907Z</time></trkpt><trkpt lat="43.4278279" lon="11.265028"><ele>286.0</ele><time>2026-04-02T10:03:47.907Z</time></trkpt><trkpt lat="43.4278012" lon="11.2651579"><ele>285.25</ele><time>2026-04-02T10:03:48.907Z</time></trkpt><trkpt lat="43.4277653" lon="11.2652943"><ele>284.5</ele><time>2026-04-02T10:03:49.907Z</time></trkpt><trkpt lat="43.4277132" lon="11.2654356"><ele>283.75</ele><time>2026-04-02T10:03:50.907Z</time></trkpt><trkpt lat="43.4276535" lon="11.2655858"><ele>283.0</ele><time>2026-04-02T10:03:51.906Z</time></trkpt><trkpt lat="43.4275841" lon="11.2657451"><ele>282.5</ele><time>2026-04-02T10:03:52.907Z</time></trkpt><trkpt lat="43.4275131" lon="11.2659037"><ele>282.0</ele><time>2026-04-02T10:03:53.907Z</time></trkpt><trkpt lat="43.4274311" lon="11.2660636"><ele>281.5</ele><time>2026-04-02T10:03:54.907Z</time></trkpt><trkpt lat="43.4273455" lon="11.2662243"><ele>281.0</ele><time>2026-04-02T10:03:55.907Z</time></trkpt><trkpt lat="43.427255" lon="11.2663918"><ele>279.6666666666667</ele><time>2026-04-02T10:03:56.906Z</time></trkpt><trkpt lat="43.4271704" lon="11.2665625"><ele>278.3333333333333</ele><time>2026-04-02T10:03:57.907Z</time></trkpt><trkpt lat="43.4270837" lon="11.266741"><ele>277.0</ele><time>2026-04-02T10:03:58.907Z</time></trkpt><trkpt lat="43.4269994" lon="11.2669279"><ele>276.3333333333333</ele><time>2026-04-02T10:03:59.907Z</time></trkpt><trkpt lat="43.4269179" lon="11.2671184"><ele>275.6666666666667</ele><time>2026-04-02T10:04:00.907Z</time></trkpt><trkpt lat="43.4268402" lon="11.2673186"><ele>275.0</ele><time>2026-04-02T10:04:01.907Z</time></trkpt><trkpt lat="43.4267654" lon="11.2675141"><ele>276.0</ele><time>2026-04-02T10:04:02.907Z</time></trkpt><trkpt lat="43.4267005" lon="11.2676931"><ele>277.0</ele><time>2026-04-02T10:04:03.907Z</time></trkpt><trkpt lat="43.4266455" lon="11.2678592"><ele>278.0</ele><time>2026-04-02T10:04:04.907Z</time></trkpt><trkpt lat="43.4266001" lon="11.2680267"><ele>279.0</ele><time>2026-04-02T10:04:05.907Z</time></trkpt><trkpt lat="43.4265569" lon="11.2682041"><ele>279.5</ele><time>2026-04-02T10:04:06.906Z</time></trkpt><trkpt lat="43.4265097" lon="11.2683876"><ele>280.0</ele><time>2026-04-02T10:04:07.907Z</time></trkpt><trkpt lat="43.4264626" lon="11.2685626"><ele>280.5</ele><time>2026-04-02T10:04:08.907Z</time></trkpt><trkpt lat="43.4264319" lon="11.2687346"><ele>281.0</ele><time>2026-04-02T10:04:09.907Z</time></trkpt><trkpt lat="43.4264096" lon="11.2689064"><ele>280.5</ele><time>2026-04-02T10:04:10.906Z</time></trkpt><trkpt lat="43.4263982" lon="11.2690701"><ele>280.0</ele><time>2026-04-02T10:04:11.907Z</time></trkpt><trkpt lat="43.4263953" lon="11.2692446"><ele>279.5</ele><time>2026-04-02T10:04:12.907Z</time></trkpt><trkpt lat="43.4263962" lon="11.2694224"><ele>279.0</ele><time>2026-04-02T10:04:13.906Z</time></trkpt><trkpt lat="43.4263962" lon="11.2695826"><ele>279.0</ele><time>2026-04-02T10:04:14.907Z</time></trkpt><trkpt lat="43.4263956" lon="11.26973"><ele>279.0</ele><time>2026-04-02T10:04:15.907Z</time></trkpt><trkpt lat="43.4263988" lon="11.2698671"><ele>279.0</ele><time>2026-04-02T10:04:16.907Z</time></trkpt><trkpt lat="43.4264042" lon="11.2699971"><ele>279.0</ele><time>2026-04-02T10:04:17.907Z</time></trkpt><trkpt lat="43.426399" lon="11.2701261"><ele>279.0</ele><time>2026-04-02T10:04:18.907Z</time></trkpt><trkpt lat="43.4263795" lon="11.2702672"><ele>279.25</ele><time>2026-04-02T10:04:19.907Z</time></trkpt><trkpt lat="43.4263366" lon="11.2704032"><ele>279.5</ele><time>2026-04-02T10:04:20.907Z</time></trkpt><trkpt lat="43.4262779" lon="11.2705543"><ele>279.75</ele><time>2026-04-02T10:04:21.907Z</time></trkpt><trkpt lat="43.426214" lon="11.2707217"><ele>280.0</ele><time>2026-04-02T10:04:22.907Z</time></trkpt><trkpt lat="43.4261452" lon="11.2709049"><ele>279.3333333333333</ele><time>2026-04-02T10:04:23.907Z</time></trkpt><trkpt lat="43.426076" lon="11.2710858"><ele>278.6666666666667</ele><time>2026-04-02T10:04:24.907Z</time></trkpt><trkpt lat="43.426002" lon="11.2712667"><ele>278.0</ele><time>2026-04-02T10:04:25.907Z</time></trkpt><trkpt lat="43.4259288" lon="11.2714542"><ele>278.0</ele><time>2026-04-02T10:04:26.907Z</time></trkpt><trkpt lat="43.4258605" lon="11.2716333"><ele>278.0</ele><time>2026-04-02T10:04:27.906Z</time></trkpt><trkpt lat="43.4257891" lon="11.271817"><ele>278.0</ele><time>2026-04-02T10:04:28.907Z</time></trkpt><trkpt lat="43.4257198" lon="11.2720002"><ele>278.0</ele><time>2026-04-02T10:04:29.906Z</time></trkpt><trkpt lat="43.4256483" lon="11.272185"><ele>278.6666666666667</ele><time>2026-04-02T10:04:30.906Z</time></trkpt><trkpt lat="43.425572" lon="11.2723676"><ele>279.3333333333333</ele><time>2026-04-02T10:04:31.907Z</time></trkpt><trkpt lat="43.4254994" lon="11.2725557"><ele>280.0</ele><time>2026-04-02T10:04:32.907Z</time></trkpt><trkpt lat="43.425428" lon="11.2727469"><ele>279.0</ele><time>2026-04-02T10:04:33.907Z</time></trkpt><trkpt lat="43.4253598" lon="11.272919"><ele>278.0</ele><time>2026-04-02T10:04:34.906Z</time></trkpt><trkpt lat="43.4252906" lon="11.273093"><ele>277.0</ele><time>2026-04-02T10:04:35.907Z</time></trkpt><trkpt lat="43.4252263" lon="11.2732483"><ele>276.0</ele><time>2026-04-02T10:04:36.907Z</time></trkpt><trkpt lat="43.425169" lon="11.2733902"><ele>276.0</ele><time>2026-04-02T10:04:37.907Z</time></trkpt><trkpt lat="43.4251174" lon="11.2735174"><ele>276.0</ele><time>2026-04-02T10:04:38.906Z</time></trkpt><trkpt lat="43.4250695" lon="11.2736335"><ele>276.0</ele><time>2026-04-02T10:04:39.907Z</time></trkpt><trkpt lat="43.425026" lon="11.2737455"><ele>276.0</ele><time>2026-04-02T10:04:40.906Z</time></trkpt><trkpt lat="43.4249993" lon="11.2738648"><ele>276.0</ele><time>2026-04-02T10:04:41.907Z</time></trkpt><trkpt lat="43.4249859" lon="11.2739932"><ele>276.2</ele><time>2026-04-02T10:04:42.907Z</time></trkpt><trkpt lat="43.4249821" lon="11.2741172"><ele>276.40000000000003</ele><time>2026-04-02T10:04:43.907Z</time></trkpt><trkpt lat="43.4249923" lon="11.27425"><ele>276.6</ele><time>2026-04-02T10:04:44.907Z</time></trkpt><trkpt lat="43.4249944" lon="11.2744027"><ele>276.8</ele><time>2026-04-02T10:04:45.906Z</time></trkpt><trkpt lat="43.4249988" lon="11.2745446"><ele>277.0</ele><time>2026-04-02T10:04:46.907Z</time></trkpt><trkpt lat="43.4249956" lon="11.2746736"><ele>277.0</ele><time>2026-04-02T10:04:47.907Z</time></trkpt><trkpt lat="43.4249852" lon="11.2747883"><ele>277.0</ele><time>2026-04-02T10:04:48.907Z</time></trkpt><trkpt lat="43.4249548" lon="11.2748949"><ele>277.0</ele><time>2026-04-02T10:04:49.907Z</time></trkpt><trkpt lat="43.4248997" lon="11.2749993"><ele>277.0</ele><time>2026-04-02T10:04:50.907Z</time></trkpt><trkpt lat="43.4248197" lon="11.2751019"><ele>277.0</ele><time>2026-04-02T10:04:51.907Z</time></trkpt><trkpt lat="43.4247241" lon="11.2752239"><ele>277.0</ele><time>2026-04-02T10:04:52.907Z</time></trkpt><trkpt lat="43.4246245" lon="11.2753434"><ele>277.0</ele><time>2026-04-02T10:04:53.907Z</time></trkpt><trkpt lat="43.4245256" lon="11.2754662"><ele>277.0</ele><time>2026-04-02T10:04:54.907Z</time></trkpt><trkpt lat="43.4244375" lon="11.2755807"><ele>277.0</ele><time>2026-04-02T10:04:55.907Z</time></trkpt><trkpt lat="43.4243503" lon="11.2756689"><ele>279.0</ele><time>2026-04-02T10:04:56.907Z</time></trkpt><trkpt lat="43.4242521" lon="11.275737"><ele>281.0</ele><time>2026-04-02T10:04:57.907Z</time></trkpt><trkpt lat="43.424141" lon="11.2757851"><ele>283.0</ele><time>2026-04-02T10:04:58.907Z</time></trkpt><trkpt lat="43.4240144" lon="11.2758441"><ele>285.0</ele><time>2026-04-02T10:04:59.907Z</time></trkpt><trkpt lat="43.4238966" lon="11.2759068"><ele>284.0</ele><time>2026-04-02T10:05:00.907Z</time></trkpt><trkpt lat="43.4237912" lon="11.2759754"><ele>283.0</ele><time>2026-04-02T10:05:01.907Z</time></trkpt><trkpt lat="43.4236834" lon="11.2760565"><ele>282.0</ele><time>2026-04-02T10:05:02.907Z</time></trkpt><trkpt lat="43.4235757" lon="11.2761482"><ele>281.0</ele><time>2026-04-02T10:05:03.907Z</time></trkpt><trkpt lat="43.4234647" lon="11.2762545"><ele>281.0</ele><time>2026-04-02T10:05:04.907Z</time></trkpt><trkpt lat="43.4233429" lon="11.2763696"><ele>281.0</ele><time>2026-04-02T10:05:05.907Z</time></trkpt><trkpt lat="43.4232075" lon="11.2764864"><ele>281.0</ele><time>2026-04-02T10:05:06.907Z</time></trkpt><trkpt lat="43.4230668" lon="11.2766099"><ele>282.6666666666667</ele><time>2026-04-02T10:05:07.907Z</time></trkpt><trkpt lat="43.4229323" lon="11.2767299"><ele>284.3333333333333</ele><time>2026-04-02T10:05:08.907Z</time></trkpt><trkpt lat="43.4228026" lon="11.2768489"><ele>286.0</ele><time>2026-04-02T10:05:09.907Z</time></trkpt><trkpt lat="43.4226678" lon="11.2769658"><ele>286.0</ele><time>2026-04-02T10:05:10.907Z</time></trkpt><trkpt lat="43.4225444" lon="11.2770647"><ele>286.0</ele><time>2026-04-02T10:05:11.907Z</time></trkpt><trkpt lat="43.4224339" lon="11.2771527"><ele>286.0</ele><time>2026-04-02T10:05:12.907Z</time></trkpt><trkpt lat="43.4223458" lon="11.2772266"><ele>286.0</ele><time>2026-04-02T10:05:13.907Z</time></trkpt><trkpt lat="43.4222693" lon="11.2772919"><ele>286.99999999999994</ele><time>2026-04-02T10:05:14.907Z</time></trkpt><trkpt lat="43.4222082" lon="11.2773695"><ele>288.0</ele><time>2026-04-02T10:05:15.907Z</time></trkpt><trkpt lat="43.4221668" lon="11.2774444"><ele>289.0</ele><time>2026-04-02T10:05:16.907Z</time></trkpt><trkpt lat="43.422132" lon="11.2775358"><ele>290.0</ele><time>2026-04-02T10:05:17.907Z</time></trkpt><trkpt lat="43.4220979" lon="11.2776283"><ele>291.0</ele><time>2026-04-02T10:05:18.907Z</time></trkpt><trkpt lat="43.4220493" lon="11.2776945"><ele>291.99999999999994</ele><time>2026-04-02T10:05:19.907Z</time></trkpt><trkpt lat="43.4219852" lon="11.2777434"><ele>293.0</ele><time>2026-04-02T10:05:20.907Z</time></trkpt><trkpt lat="43.4219109" lon="11.2777621"><ele>293.0</ele><time>2026-04-02T10:05:21.907Z</time></trkpt><trkpt lat="43.4218448" lon="11.2777608"><ele>293.0</ele><time>2026-04-02T10:05:22.907Z</time></trkpt><trkpt lat="43.4217777" lon="11.2777473"><ele>293.0</ele><time>2026-04-02T10:05:23.907Z</time></trkpt><trkpt lat="43.4217028" lon="11.2777296"><ele>293.0</ele><time>2026-04-02T10:05:24.907Z</time></trkpt><trkpt lat="43.4216215" lon="11.2777269"><ele>293.0</ele><time>2026-04-02T10:05:25.907Z</time></trkpt><trkpt lat="43.4215432" lon="11.2777509"><ele>293.0</ele><time>2026-04-02T10:05:26.907Z</time></trkpt><trkpt lat="43.4214607" lon="11.2778116"><ele>293.0</ele><time>2026-04-02T10:05:27.907Z</time></trkpt><trkpt lat="43.4213806" lon="11.2779008"><ele>293.0</ele><time>2026-04-02T10:05:28.907Z</time></trkpt><trkpt lat="43.4212972" lon="11.2780002"><ele>293.0</ele><time>2026-04-02T10:05:29.907Z</time></trkpt><trkpt lat="43.4212139" lon="11.2781052"><ele>293.0</ele><time>2026-04-02T10:05:30.907Z</time></trkpt><trkpt lat="43.4211261" lon="11.2782101"><ele>293.0</ele><time>2026-04-02T10:05:31.907Z</time></trkpt><trkpt lat="43.4210387" lon="11.2783128"><ele>293.2</ele><time>2026-04-02T10:05:32.907Z</time></trkpt><trkpt lat="43.4209533" lon="11.2784323"><ele>293.4</ele><time>2026-04-02T10:05:33.907Z</time></trkpt><trkpt lat="43.4208773" lon="11.2785426"><ele>293.59999999999997</ele><time>2026-04-02T10:05:34.907Z</time></trkpt><trkpt lat="43.4208105" lon="11.2786467"><ele>293.8</ele><time>2026-04-02T10:05:35.907Z</time></trkpt><trkpt lat="43.4207453" lon="11.2787402"><ele>294.0</ele><time>2026-04-02T10:05:36.907Z</time></trkpt><trkpt lat="43.4206836" lon="11.2788363"><ele>292.59999999999997</ele><time>2026-04-02T10:05:37.907Z</time></trkpt><trkpt lat="43.420626" lon="11.2789369"><ele>291.2</ele><time>2026-04-02T10:05:38.906Z</time></trkpt><trkpt lat="43.4205795" lon="11.2790428"><ele>289.79999999999995</ele><time>2026-04-02T10:05:39.907Z</time></trkpt><trkpt lat="43.42054" lon="11.2791629"><ele>288.4</ele><time>2026-04-02T10:05:40.907Z</time></trkpt><trkpt lat="43.4205055" lon="11.2792781"><ele>287.0</ele><time>2026-04-02T10:05:41.907Z</time></trkpt><trkpt lat="43.4204612" lon="11.2793977"><ele>287.0</ele><time>2026-04-02T10:05:42.907Z</time></trkpt><trkpt lat="43.4204079" lon="11.2795042"><ele>287.0</ele><time>2026-04-02T10:05:43.907Z</time></trkpt><trkpt lat="43.4203348" lon="11.2795912"><ele>287.0</ele><time>2026-04-02T10:05:44.907Z</time></trkpt><trkpt lat="43.4202422" lon="11.2796701"><ele>287.0</ele><time>2026-04-02T10:05:45.907Z</time></trkpt><trkpt lat="43.4201281" lon="11.2797461"><ele>287.0</ele><time>2026-04-02T10:05:46.907Z</time></trkpt><trkpt lat="43.4200056" lon="11.2798352"><ele>286.25</ele><time>2026-04-02T10:05:47.907Z</time></trkpt><trkpt lat="43.4198948" lon="11.2799246"><ele>285.5</ele><time>2026-04-02T10:05:48.907Z</time></trkpt><trkpt lat="43.4197763" lon="11.2800367"><ele>284.75</ele><time>2026-04-02T10:05:49.907Z</time></trkpt><trkpt lat="43.4196734" lon="11.2801484"><ele>284.0</ele><time>2026-04-02T10:05:50.906Z</time></trkpt><trkpt lat="43.4195805" lon="11.2802526"><ele>284.0</ele><time>2026-04-02T10:05:51.907Z</time></trkpt><trkpt lat="43.4194932" lon="11.2803479"><ele>284.0</ele><time>2026-04-02T10:05:52.906Z</time></trkpt><trkpt lat="43.4194064" lon="11.2804467"><ele>284.0</ele><time>2026-04-02T10:05:53.907Z</time></trkpt><trkpt lat="43.4193325" lon="11.2805539"><ele>284.0</ele><time>2026-04-02T10:05:54.907Z</time></trkpt><trkpt lat="43.4192591" lon="11.2806501"><ele>284.0</ele><time>2026-04-02T10:05:55.907Z</time></trkpt><trkpt lat="43.4191784" lon="11.2807491"><ele>282.5</ele><time>2026-04-02T10:05:56.907Z</time></trkpt><trkpt lat="43.4191078" lon="11.28083"><ele>281.0</ele><time>2026-04-02T10:05:57.907Z</time></trkpt><trkpt lat="43.4190455" lon="11.2809053"><ele>279.5</ele><time>2026-04-02T10:05:58.907Z</time></trkpt><trkpt lat="43.4189859" lon="11.2809794"><ele>278.0</ele><time>2026-04-02T10:05:59.907Z</time></trkpt><trkpt lat="43.4189284" lon="11.2810547"><ele>276.5</ele><time>2026-04-02T10:06:00.907Z</time></trkpt><trkpt lat="43.4188693" lon="11.2811304"><ele>275.0</ele><time>2026-04-02T10:06:01.907Z</time></trkpt><trkpt lat="43.4188076" lon="11.2812063"><ele>274.83333333333337</ele><time>2026-04-02T10:06:02.907Z</time></trkpt><trkpt lat="43.4187515" lon="11.2812787"><ele>274.6666666666667</ele><time>2026-04-02T10:06:03.907Z</time></trkpt><trkpt lat="43.4186942" lon="11.2813457"><ele>274.5</ele><time>2026-04-02T10:06:04.907Z</time></trkpt><trkpt lat="43.4186272" lon="11.2813927"><ele>274.3333333333333</ele><time>2026-04-02T10:06:05.907Z</time></trkpt><trkpt lat="43.4185452" lon="11.2814148"><ele>274.16666666666663</ele><time>2026-04-02T10:06:06.906Z</time></trkpt><trkpt lat="43.4184542" lon="11.281424"><ele>274.0</ele><time>2026-04-02T10:06:07.907Z</time></trkpt><trkpt lat="43.4183563" lon="11.2813961"><ele>274.0</ele><time>2026-04-02T10:06:08.907Z</time></trkpt><trkpt lat="43.4182527" lon="11.2813602"><ele>274.0</ele><time>2026-04-02T10:06:09.907Z</time></trkpt><trkpt lat="43.4181615" lon="11.2813261"><ele>274.0</ele><time>2026-04-02T10:06:10.906Z</time></trkpt><trkpt lat="43.4180718" lon="11.2813004"><ele>274.0</ele><time>2026-04-02T10:06:11.906Z</time></trkpt><trkpt lat="43.4179786" lon="11.2812887"><ele>274.0</ele><time>2026-04-02T10:06:12.907Z</time></trkpt><trkpt lat="43.4178898" lon="11.2813111"><ele>273.0</ele><time>2026-04-02T10:06:13.907Z</time></trkpt><trkpt lat="43.4177991" lon="11.2813498"><ele>272.0</ele><time>2026-04-02T10:06:14.907Z</time></trkpt><trkpt lat="43.4176997" lon="11.2814156"><ele>271.0</ele><time>2026-04-02T10:06:15.907Z</time></trkpt><trkpt lat="43.4175905" lon="11.2814977"><ele>270.0</ele><time>2026-04-02T10:06:16.907Z</time></trkpt><trkpt lat="43.417465" lon="11.2815873"><ele>268.5</ele><time>2026-04-02T10:06:17.907Z</time></trkpt><trkpt lat="43.4173475" lon="11.2816637"><ele>267.0</ele><time>2026-04-02T10:06:18.907Z</time></trkpt><trkpt lat="43.417234" lon="11.2817341"><ele>265.5</ele><time>2026-04-02T10:06:19.907Z</time></trkpt><trkpt lat="43.4171173" lon="11.2817984"><ele>264.0</ele><time>2026-04-02T10:06:20.907Z</time></trkpt><trkpt lat="43.4169942" lon="11.2818508"><ele>263.5</ele><time>2026-04-02T10:06:21.907Z</time></trkpt><trkpt lat="43.4168666" lon="11.2818888"><ele>263.0</ele><time>2026-04-02T10:06:22.907Z</time></trkpt><trkpt lat="43.4167373" lon="11.2819262"><ele>262.5</ele><time>2026-04-02T10:06:23.907Z</time></trkpt><trkpt lat="43.4166151" lon="11.2819675"><ele>262.0</ele><time>2026-04-02T10:06:24.907Z</time></trkpt><trkpt lat="43.4165076" lon="11.2820017"><ele>262.0</ele><time>2026-04-02T10:06:25.906Z</time></trkpt><trkpt lat="43.4164145" lon="11.2820441"><ele>262.0</ele><time>2026-04-02T10:06:26.907Z</time></trkpt><trkpt lat="43.4163371" lon="11.2820876"><ele>262.0</ele><time>2026-04-02T10:06:27.907Z</time></trkpt><trkpt lat="43.4162771" lon="11.2821417"><ele>262.0</ele><time>2026-04-02T10:06:28.907Z</time></trkpt><trkpt lat="43.4162266" lon="11.2822966"><ele>262.0</ele><time>2026-04-02T10:06:30.907Z</time></trkpt><trkpt lat="43.4162161" lon="11.282398"><ele>261.8</ele><time>2026-04-02T10:06:31.907Z</time></trkpt><trkpt lat="43.4161993" lon="11.2824942"><ele>261.6</ele><time>2026-04-02T10:06:32.907Z</time></trkpt><trkpt lat="43.4161541" lon="11.2825788"><ele>261.40000000000003</ele><time>2026-04-02T10:06:33.907Z</time></trkpt><trkpt lat="43.4160903" lon="11.2826568"><ele>261.2</ele><time>2026-04-02T10:06:34.907Z</time></trkpt><trkpt lat="43.4160066" lon="11.282745"><ele>261.0</ele><time>2026-04-02T10:06:35.907Z</time></trkpt><trkpt lat="43.4159149" lon="11.282847"><ele>261.0</ele><time>2026-04-02T10:06:36.907Z</time></trkpt><trkpt lat="43.4158326" lon="11.2829663"><ele>261.0</ele><time>2026-04-02T10:06:37.907Z</time></trkpt><trkpt lat="43.4157573" lon="11.2830942"><ele>261.0</ele><time>2026-04-02T10:06:38.907Z</time></trkpt><trkpt lat="43.4156847" lon="11.2832324"><ele>261.0</ele><time>2026-04-02T10:06:39.907Z</time></trkpt><trkpt lat="43.4156098" lon="11.2833784"><ele>262.5</ele><time>2026-04-02T10:06:40.907Z</time></trkpt><trkpt lat="43.4155325" lon="11.283525"><ele>264.0</ele><time>2026-04-02T10:06:41.907Z</time></trkpt><trkpt lat="43.4154561" lon="11.2836765"><ele>265.5</ele><time>2026-04-02T10:06:42.907Z</time></trkpt><trkpt lat="43.4153776" lon="11.283823"><ele>267.0</ele><time>2026-04-02T10:06:43.907Z</time></trkpt><trkpt lat="43.415297" lon="11.2839699"><ele>269.5</ele><time>2026-04-02T10:06:44.907Z</time></trkpt><trkpt lat="43.4152214" lon="11.2841141"><ele>272.0</ele><time>2026-04-02T10:06:45.907Z</time></trkpt><trkpt lat="43.4151455" lon="11.2842627"><ele>274.5</ele><time>2026-04-02T10:06:46.907Z</time></trkpt><trkpt lat="43.415075" lon="11.2844055"><ele>277.0</ele><time>2026-04-02T10:06:47.907Z</time></trkpt><trkpt lat="43.4150017" lon="11.2845415"><ele>277.0</ele><time>2026-04-02T10:06:48.907Z</time></trkpt><trkpt lat="43.4149228" lon="11.284664"><ele>277.0</ele><time>2026-04-02T10:06:49.907Z</time></trkpt><trkpt lat="43.4148551" lon="11.2847609"><ele>277.0</ele><time>2026-04-02T10:06:50.907Z</time></trkpt><trkpt lat="43.414783" lon="11.2848435"><ele>277.0</ele><time>2026-04-02T10:06:51.906Z</time></trkpt><trkpt lat="43.4147012" lon="11.2849236"><ele>277.0</ele><time>2026-04-02T10:06:52.907Z</time></trkpt><trkpt lat="43.4146193" lon="11.2849904"><ele>277.0</ele><time>2026-04-02T10:06:53.907Z</time></trkpt><trkpt lat="43.4145322" lon="11.2850596"><ele>277.0</ele><time>2026-04-02T10:06:54.907Z</time></trkpt><trkpt lat="43.414442" lon="11.2851434"><ele>277.0</ele><time>2026-04-02T10:06:55.907Z</time></trkpt><trkpt lat="43.4143488" lon="11.2852406"><ele>277.0</ele><time>2026-04-02T10:06:56.907Z</time></trkpt><trkpt lat="43.414265" lon="11.2853402"><ele>277.0</ele><time>2026-04-02T10:06:57.907Z</time></trkpt><trkpt lat="43.414184" lon="11.2854364"><ele>277.0</ele><time>2026-04-02T10:06:58.906Z</time></trkpt><trkpt lat="43.4141098" lon="11.2855396"><ele>277.0</ele><time>2026-04-02T10:06:59.907Z</time></trkpt><trkpt lat="43.4140445" lon="11.2856539"><ele>277.0</ele><time>2026-04-02T10:07:00.906Z</time></trkpt><trkpt lat="43.4139846" lon="11.2857704"><ele>277.0</ele><time>2026-04-02T10:07:01.907Z</time></trkpt><trkpt lat="43.4139228" lon="11.2858929"><ele>277.0</ele><time>2026-04-02T10:07:02.907Z</time></trkpt><trkpt lat="43.4138605" lon="11.2860256"><ele>275.75</ele><time>2026-04-02T10:07:03.907Z</time></trkpt><trkpt lat="43.4138058" lon="11.2861622"><ele>274.5</ele><time>2026-04-02T10:07:04.907Z</time></trkpt><trkpt lat="43.4137522" lon="11.2862983"><ele>273.25</ele><time>2026-04-02T10:07:05.907Z</time></trkpt><trkpt lat="43.4137029" lon="11.2864501"><ele>272.0</ele><time>2026-04-02T10:07:06.907Z</time></trkpt><trkpt lat="43.4136547" lon="11.2866147"><ele>272.0</ele><time>2026-04-02T10:07:07.907Z</time></trkpt><trkpt lat="43.413604" lon="11.2867936"><ele>272.0</ele><time>2026-04-02T10:07:08.907Z</time></trkpt><trkpt lat="43.4135575" lon="11.2869564"><ele>272.0</ele><time>2026-04-02T10:07:09.907Z</time></trkpt><trkpt lat="43.413514" lon="11.2871041"><ele>272.0</ele><time>2026-04-02T10:07:10.907Z</time></trkpt><trkpt lat="43.4134727" lon="11.2872247"><ele>272.4</ele><time>2026-04-02T10:07:11.907Z</time></trkpt><trkpt lat="43.4134232" lon="11.2873309"><ele>272.79999999999995</ele><time>2026-04-02T10:07:12.907Z</time></trkpt><trkpt lat="43.4133599" lon="11.2874132"><ele>273.2</ele><time>2026-04-02T10:07:13.907Z</time></trkpt><trkpt lat="43.4132725" lon="11.2874852"><ele>273.59999999999997</ele><time>2026-04-02T10:07:14.906Z</time></trkpt><trkpt lat="43.4131662" lon="11.2875432"><ele>274.0</ele><time>2026-04-02T10:07:15.907Z</time></trkpt><trkpt lat="43.4130457" lon="11.2875982"><ele>274.0</ele><time>2026-04-02T10:07:16.907Z</time></trkpt><trkpt lat="43.4129322" lon="11.2876417"><ele>274.0</ele><time>2026-04-02T10:07:17.907Z</time></trkpt><trkpt lat="43.4128075" lon="11.2876711"><ele>274.0</ele><time>2026-04-02T10:07:18.907Z</time></trkpt><trkpt lat="43.4126683" lon="11.2876641"><ele>274.0</ele><time>2026-04-02T10:07:19.907Z</time></trkpt><trkpt lat="43.4125263" lon="11.287637"><ele>274.0</ele><time>2026-04-02T10:07:20.907Z</time></trkpt><trkpt lat="43.4124011" lon="11.2876193"><ele>274.0</ele><time>2026-04-02T10:07:21.907Z</time></trkpt><trkpt lat="43.4122895" lon="11.2876064"><ele>274.0</ele><time>2026-04-02T10:07:22.907Z</time></trkpt><trkpt lat="43.4121924" lon="11.2876119"><ele>274.0</ele><time>2026-04-02T10:07:23.907Z</time></trkpt><trkpt lat="43.4121095" lon="11.2876289"><ele>274.0</ele><time>2026-04-02T10:07:24.907Z</time></trkpt><trkpt lat="43.4120312" lon="11.2876568"><ele>274.0</ele><time>2026-04-02T10:07:25.907Z</time></trkpt><trkpt lat="43.4119615" lon="11.2876968"><ele>274.0</ele><time>2026-04-02T10:07:26.907Z</time></trkpt><trkpt lat="43.4118712" lon="11.2877457"><ele>274.0</ele><time>2026-04-02T10:07:27.907Z</time></trkpt><trkpt lat="43.4117727" lon="11.2878071"><ele>274.0</ele><time>2026-04-02T10:07:28.907Z</time></trkpt><trkpt lat="43.4116769" lon="11.2878729"><ele>274.0</ele><time>2026-04-02T10:07:29.907Z</time></trkpt><trkpt lat="43.411586" lon="11.2879444"><ele>274.0</ele><time>2026-04-02T10:07:30.907Z</time></trkpt><trkpt lat="43.4115068" lon="11.2880195"><ele>274.0</ele><time>2026-04-02T10:07:31.907Z</time></trkpt><trkpt lat="43.4114387" lon="11.2881008"><ele>274.0</ele><time>2026-04-02T10:07:32.907Z</time></trkpt><trkpt lat="43.4113756" lon="11.2881929"><ele>274.0</ele><time>2026-04-02T10:07:33.907Z</time></trkpt><trkpt lat="43.4113114" lon="11.2882998"><ele>274.0</ele><time>2026-04-02T10:07:34.907Z</time></trkpt><trkpt lat="43.4112465" lon="11.2884224"><ele>274.8</ele><time>2026-04-02T10:07:35.907Z</time></trkpt><trkpt lat="43.4111881" lon="11.2885485"><ele>275.59999999999997</ele><time>2026-04-02T10:07:36.907Z</time></trkpt><trkpt lat="43.4111437" lon="11.2886648"><ele>276.4</ele><time>2026-04-02T10:07:37.907Z</time></trkpt><trkpt lat="43.4110989" lon="11.2887895"><ele>277.2</ele><time>2026-04-02T10:07:38.907Z</time></trkpt><trkpt lat="43.4110523" lon="11.2889016"><ele>278.0</ele><time>2026-04-02T10:07:39.906Z</time></trkpt><trkpt lat="43.4109899" lon="11.2889966"><ele>278.8</ele><time>2026-04-02T10:07:40.907Z</time></trkpt><trkpt lat="43.4109136" lon="11.289073"><ele>279.6</ele><time>2026-04-02T10:07:41.907Z</time></trkpt><trkpt lat="43.4108199" lon="11.2891239"><ele>280.4</ele><time>2026-04-02T10:07:42.907Z</time></trkpt><trkpt lat="43.4107089" lon="11.2891514"><ele>281.2</ele><time>2026-04-02T10:07:43.907Z</time></trkpt><trkpt lat="43.4105779" lon="11.2891719"><ele>282.0</ele><time>2026-04-02T10:07:44.907Z</time></trkpt><trkpt lat="43.410445" lon="11.289201"><ele>282.5</ele><time>2026-04-02T10:07:45.907Z</time></trkpt><trkpt lat="43.410319" lon="11.2892409"><ele>283.0</ele><time>2026-04-02T10:07:46.907Z</time></trkpt><trkpt lat="43.4101945" lon="11.2892804"><ele>283.5</ele><time>2026-04-02T10:07:47.907Z</time></trkpt><trkpt lat="43.4100696" lon="11.2893203"><ele>284.0</ele><time>2026-04-02T10:07:48.907Z</time></trkpt><trkpt lat="43.4099492" lon="11.2893652"><ele>284.0</ele><time>2026-04-02T10:07:49.907Z</time></trkpt><trkpt lat="43.409823" lon="11.2894274"><ele>284.0</ele><time>2026-04-02T10:07:50.907Z</time></trkpt><trkpt lat="43.4097115" lon="11.2894882"><ele>284.0</ele><time>2026-04-02T10:07:51.907Z</time></trkpt><trkpt lat="43.4096047" lon="11.2895515"><ele>284.0</ele><time>2026-04-02T10:07:52.907Z</time></trkpt><trkpt lat="43.4094881" lon="11.2896073"><ele>285.25</ele><time>2026-04-02T10:07:53.907Z</time></trkpt><trkpt lat="43.4093679" lon="11.2896604"><ele>286.5</ele><time>2026-04-02T10:07:54.907Z</time></trkpt><trkpt lat="43.4092422" lon="11.2897108"><ele>287.75</ele><time>2026-04-02T10:07:55.907Z</time></trkpt><trkpt lat="43.4091225" lon="11.2897501"><ele>289.0</ele><time>2026-04-02T10:07:56.907Z</time></trkpt><trkpt lat="43.4090185" lon="11.2897881"><ele>289.66666666666663</ele><time>2026-04-02T10:07:57.907Z</time></trkpt><trkpt lat="43.4089294" lon="11.2898289"><ele>290.3333333333333</ele><time>2026-04-02T10:07:58.906Z</time></trkpt><trkpt lat="43.4088501" lon="11.2898846"><ele>291.0</ele><time>2026-04-02T10:07:59.907Z</time></trkpt><trkpt lat="43.4087828" lon="11.2899526"><ele>291.6666666666667</ele><time>2026-04-02T10:08:00.907Z</time></trkpt><trkpt lat="43.4087143" lon="11.2900368"><ele>292.33333333333337</ele><time>2026-04-02T10:08:01.907Z</time></trkpt><trkpt lat="43.4086497" lon="11.2901022"><ele>293.0</ele><time>2026-04-02T10:08:02.907Z</time></trkpt><trkpt lat="43.4085882" lon="11.2901372"><ele>293.1666666666667</ele><time>2026-04-02T10:08:03.907Z</time></trkpt><trkpt lat="43.40851" lon="11.2901608"><ele>293.33333333333337</ele><time>2026-04-02T10:08:05.907Z</time></trkpt><trkpt lat="43.4084365" lon="11.2901951"><ele>293.5</ele><time>2026-04-02T10:08:21.907Z</time></trkpt><trkpt lat="43.4083604" lon="11.2902451"><ele>293.6666666666667</ele><time>2026-04-02T10:08:23.907Z</time></trkpt><trkpt lat="43.4083008" lon="11.2901829"><ele>293.8333333333333</ele><time>2026-04-02T10:08:27.907Z</time></trkpt><trkpt lat="43.4082345" lon="11.2902024"><ele>294.0</ele><time>2026-04-02T10:12:17.908Z</time></trkpt><trkpt lat="43.4081391" lon="11.2902581"><ele>294.0</ele><time>2026-04-02T10:12:19.908Z</time></trkpt><trkpt lat="43.4080666" lon="11.2903112"><ele>294.0</ele><time>2026-04-02T10:12:20.908Z</time></trkpt><trkpt lat="43.4079803" lon="11.2903792"><ele>294.0</ele><time>2026-04-02T10:12:21.908Z</time></trkpt><trkpt lat="43.4078776" lon="11.2904664"><ele>294.0</ele><time>2026-04-02T10:12:22.908Z</time></trkpt><trkpt lat="43.4077663" lon="11.2905595"><ele>294.0</ele><time>2026-04-02T10:12:23.907Z</time></trkpt><trkpt lat="43.4076483" lon="11.2906579"><ele>293.0</ele><time>2026-04-02T10:12:24.908Z</time></trkpt><trkpt lat="43.4075224" lon="11.2907595"><ele>292.0</ele><time>2026-04-02T10:12:25.908Z</time></trkpt><trkpt lat="43.4073879" lon="11.2908707"><ele>291.0</ele><time>2026-04-02T10:12:26.908Z</time></trkpt><trkpt lat="43.4072522" lon="11.2909823"><ele>291.0</ele><time>2026-04-02T10:12:27.908Z</time></trkpt><trkpt lat="43.4071195" lon="11.2910865"><ele>291.0</ele><time>2026-04-02T10:12:28.907Z</time></trkpt><trkpt lat="43.406991" lon="11.2911861"><ele>291.0</ele><time>2026-04-02T10:12:29.908Z</time></trkpt><trkpt lat="43.4068713" lon="11.2912834"><ele>291.0</ele><time>2026-04-02T10:12:30.908Z</time></trkpt><trkpt lat="43.4067544" lon="11.2913768"><ele>290.0</ele><time>2026-04-02T10:12:31.907Z</time></trkpt><trkpt lat="43.4066442" lon="11.2914688"><ele>289.0</ele><time>2026-04-02T10:12:32.908Z</time></trkpt><trkpt lat="43.4065353" lon="11.2915714"><ele>288.0</ele><time>2026-04-02T10:12:33.907Z</time></trkpt><trkpt lat="43.406431" lon="11.2916893"><ele>287.0</ele><time>2026-04-02T10:12:34.908Z</time></trkpt><trkpt lat="43.4063313" lon="11.2918188"><ele>286.25</ele><time>2026-04-02T10:12:35.908Z</time></trkpt><trkpt lat="43.406236" lon="11.2919639"><ele>285.5</ele><time>2026-04-02T10:12:36.908Z</time></trkpt><trkpt lat="43.4061504" lon="11.2921064"><ele>284.75</ele><time>2026-04-02T10:12:37.908Z</time></trkpt><trkpt lat="43.4060683" lon="11.2922393"><ele>284.0</ele><time>2026-04-02T10:12:38.908Z</time></trkpt><trkpt lat="43.4059761" lon="11.2923545"><ele>284.0</ele><time>2026-04-02T10:12:39.908Z</time></trkpt><trkpt lat="43.4058636" lon="11.2924519"><ele>284.0</ele><time>2026-04-02T10:12:40.908Z</time></trkpt><trkpt lat="43.4057296" lon="11.292545"><ele>284.0</ele><time>2026-04-02T10:12:41.908Z</time></trkpt><trkpt lat="43.4055807" lon="11.2926301"><ele>284.0</ele><time>2026-04-02T10:12:42.908Z</time></trkpt><trkpt lat="43.4054198" lon="11.292718"><ele>285.33333333333337</ele><time>2026-04-02T10:12:43.908Z</time></trkpt><trkpt lat="43.4052601" lon="11.2928111"><ele>286.6666666666667</ele><time>2026-04-02T10:12:44.908Z</time></trkpt><trkpt lat="43.405102" lon="11.2929103"><ele>288.0</ele><time>2026-04-02T10:12:45.908Z</time></trkpt><trkpt lat="43.4049454" lon="11.2930187"><ele>287.0</ele><time>2026-04-02T10:12:46.908Z</time></trkpt><trkpt lat="43.4047962" lon="11.2931439"><ele>286.0</ele><time>2026-04-02T10:12:47.908Z</time></trkpt><trkpt lat="43.404644" lon="11.2932921"><ele>285.0</ele><time>2026-04-02T10:12:48.908Z</time></trkpt><trkpt lat="43.4044936" lon="11.2934435"><ele>285.0</ele><time>2026-04-02T10:12:49.908Z</time></trkpt><trkpt lat="43.4043451" lon="11.2935956"><ele>285.0</ele><time>2026-04-02T10:12:50.908Z</time></trkpt><trkpt lat="43.4042011" lon="11.2937457"><ele>285.0</ele><time>2026-04-02T10:12:51.907Z</time></trkpt><trkpt lat="43.40406" lon="11.2938922"><ele>284.0</ele><time>2026-04-02T10:12:52.908Z</time></trkpt><trkpt lat="43.4039157" lon="11.2940334"><ele>283.0</ele><time>2026-04-02T10:12:53.908Z</time></trkpt><trkpt lat="43.4037745" lon="11.2941727"><ele>282.0</ele><time>2026-04-02T10:12:54.908Z</time></trkpt><trkpt lat="43.4036293" lon="11.294323"><ele>282.0</ele><time>2026-04-02T10:12:55.908Z</time></trkpt><trkpt lat="43.4034809" lon="11.2944715"><ele>282.0</ele><time>2026-04-02T10:12:56.908Z</time></trkpt><trkpt lat="43.4033275" lon="11.2946294"><ele>282.0</ele><time>2026-04-02T10:12:57.908Z</time></trkpt><trkpt lat="43.4031739" lon="11.2947862"><ele>281.0</ele><time>2026-04-02T10:12:58.908Z</time></trkpt><trkpt lat="43.4030188" lon="11.2949446"><ele>280.0</ele><time>2026-04-02T10:12:59.908Z</time></trkpt><trkpt lat="43.4028654" lon="11.2950965"><ele>279.0</ele><time>2026-04-02T10:13:00.908Z</time></trkpt><trkpt lat="43.402714" lon="11.2952496"><ele>279.0</ele><time>2026-04-02T10:13:01.908Z</time></trkpt><trkpt lat="43.4025619" lon="11.2954051"><ele>279.0</ele><time>2026-04-02T10:13:02.907Z</time></trkpt><trkpt lat="43.4024102" lon="11.2955582"><ele>279.0</ele><time>2026-04-02T10:13:03.908Z</time></trkpt><trkpt lat="43.4022617" lon="11.295721"><ele>278.6666666666667</ele><time>2026-04-02T10:13:04.908Z</time></trkpt><trkpt lat="43.4021196" lon="11.2958922"><ele>278.33333333333337</ele><time>2026-04-02T10:13:05.908Z</time></trkpt><trkpt lat="43.4019832" lon="11.2960703"><ele>278.0</ele><time>2026-04-02T10:13:06.908Z</time></trkpt><trkpt lat="43.4018596" lon="11.2962451"><ele>278.0</ele><time>2026-04-02T10:13:07.908Z</time></trkpt><trkpt lat="43.4017391" lon="11.2964167"><ele>278.0</ele><time>2026-04-02T10:13:08.908Z</time></trkpt><trkpt lat="43.4016249" lon="11.2965768"><ele>278.0</ele><time>2026-04-02T10:13:09.908Z</time></trkpt><trkpt lat="43.401512" lon="11.296729"><ele>277.0</ele><time>2026-04-02T10:13:10.908Z</time></trkpt><trkpt lat="43.4013966" lon="11.2968715"><ele>276.0</ele><time>2026-04-02T10:13:11.908Z</time></trkpt><trkpt lat="43.4012882" lon="11.2969826"><ele>275.0</ele><time>2026-04-02T10:13:12.908Z</time></trkpt><trkpt lat="43.4011872" lon="11.2970884"><ele>274.0</ele><time>2026-04-02T10:13:13.908Z</time></trkpt><trkpt lat="43.4010958" lon="11.2971923"><ele>272.5</ele><time>2026-04-02T10:13:14.908Z</time></trkpt><trkpt lat="43.401019" lon="11.2973052"><ele>271.0</ele><time>2026-04-02T10:13:15.908Z</time></trkpt><trkpt lat="43.4009619" lon="11.2974451"><ele>269.5</ele><time>2026-04-02T10:13:16.908Z</time></trkpt><trkpt lat="43.4009279" lon="11.2976072"><ele>268.0</ele><time>2026-04-02T10:13:17.908Z</time></trkpt><trkpt lat="43.4009076" lon="11.2977781"><ele>268.0</ele><time>2026-04-02T10:13:18.908Z</time></trkpt><trkpt lat="43.400876" lon="11.2979333"><ele>268.0</ele><time>2026-04-02T10:13:19.908Z</time></trkpt><trkpt lat="43.4008178" lon="11.2980627"><ele>268.0</ele><time>2026-04-02T10:13:20.908Z</time></trkpt><trkpt lat="43.4007301" lon="11.2981671"><ele>268.0</ele><time>2026-04-02T10:13:21.908Z</time></trkpt><trkpt lat="43.4006114" lon="11.2982648"><ele>267.3333333333333</ele><time>2026-04-02T10:13:22.908Z</time></trkpt><trkpt lat="43.400472" lon="11.2983583"><ele>266.6666666666667</ele><time>2026-04-02T10:13:23.908Z</time></trkpt><trkpt lat="43.4003249" lon="11.2984561"><ele>266.0</ele><time>2026-04-02T10:13:24.908Z</time></trkpt><trkpt lat="43.4001703" lon="11.2985669"><ele>266.0</ele><time>2026-04-02T10:13:25.908Z</time></trkpt><trkpt lat="43.4000072" lon="11.2986787"><ele>266.0</ele><time>2026-04-02T10:13:26.908Z</time></trkpt><trkpt lat="43.3998391" lon="11.2987944"><ele>266.0</ele><time>2026-04-02T10:13:27.908Z</time></trkpt><trkpt lat="43.3996705" lon="11.2989198"><ele>266.6666666666667</ele><time>2026-04-02T10:13:28.908Z</time></trkpt><trkpt lat="43.3995004" lon="11.2990512"><ele>267.3333333333333</ele><time>2026-04-02T10:13:29.908Z</time></trkpt><trkpt lat="43.399326" lon="11.2991906"><ele>268.0</ele><time>2026-04-02T10:13:30.908Z</time></trkpt><trkpt lat="43.3991475" lon="11.2993256"><ele>268.0</ele><time>2026-04-02T10:13:31.908Z</time></trkpt><trkpt lat="43.398971" lon="11.2994666"><ele>268.0</ele><time>2026-04-02T10:13:32.908Z</time></trkpt><trkpt lat="43.398793" lon="11.2996146"><ele>268.0</ele><time>2026-04-02T10:13:33.908Z</time></trkpt><trkpt lat="43.3986163" lon="11.2997587"><ele>269.3333333333333</ele><time>2026-04-02T10:13:34.908Z</time></trkpt><trkpt lat="43.3984482" lon="11.2998847"><ele>270.6666666666667</ele><time>2026-04-02T10:13:35.908Z</time></trkpt><trkpt lat="43.3982916" lon="11.3000106"><ele>272.0</ele><time>2026-04-02T10:13:36.908Z</time></trkpt><trkpt lat="43.3981446" lon="11.3001311"><ele>272.0</ele><time>2026-04-02T10:13:37.908Z</time></trkpt><trkpt lat="43.3980083" lon="11.3002345"><ele>272.0</ele><time>2026-04-02T10:13:38.908Z</time></trkpt><trkpt lat="43.3978885" lon="11.3003276"><ele>272.0</ele><time>2026-04-02T10:13:39.907Z</time></trkpt><trkpt lat="43.3977868" lon="11.3004173"><ele>272.0</ele><time>2026-04-02T10:13:40.908Z</time></trkpt><trkpt lat="43.3977118" lon="11.3005336"><ele>270.5</ele><time>2026-04-02T10:13:41.908Z</time></trkpt><trkpt lat="43.397664" lon="11.3006804"><ele>269.0</ele><time>2026-04-02T10:13:42.908Z</time></trkpt><trkpt lat="43.397653" lon="11.3008386"><ele>267.5</ele><time>2026-04-02T10:13:43.908Z</time></trkpt><trkpt lat="43.3976748" lon="11.3010074"><ele>266.0</ele><time>2026-04-02T10:13:44.907Z</time></trkpt><trkpt lat="43.3977358" lon="11.3011781"><ele>266.0</ele><time>2026-04-02T10:13:45.908Z</time></trkpt><trkpt lat="43.3978135" lon="11.3013558"><ele>266.0</ele><time>2026-04-02T10:13:46.908Z</time></trkpt><trkpt lat="43.3978892" lon="11.3015767"><ele>266.0</ele><time>2026-04-02T10:13:47.908Z</time></trkpt><trkpt lat="43.3979603" lon="11.301807"><ele>269.33333333333337</ele><time>2026-04-02T10:13:48.908Z</time></trkpt><trkpt lat="43.3980299" lon="11.3020188"><ele>272.6666666666667</ele><time>2026-04-02T10:13:49.908Z</time></trkpt><trkpt lat="43.398088" lon="11.3022279"><ele>276.0</ele><time>2026-04-02T10:13:50.908Z</time></trkpt><trkpt lat="43.398144" lon="11.3024462"><ele>276.0</ele><time>2026-04-02T10:13:51.908Z</time></trkpt><trkpt lat="43.3981886" lon="11.3026863"><ele>276.0</ele><time>2026-04-02T10:13:52.908Z</time></trkpt><trkpt lat="43.398224" lon="11.3029338"><ele>276.0</ele><time>2026-04-02T10:13:53.908Z</time></trkpt><trkpt lat="43.3982545" lon="11.3031778"><ele>274.6666666666667</ele><time>2026-04-02T10:13:54.908Z</time></trkpt><trkpt lat="43.3982893" lon="11.3034047"><ele>273.33333333333337</ele><time>2026-04-02T10:13:55.908Z</time></trkpt><trkpt lat="43.3983203" lon="11.3036197"><ele>272.0</ele><time>2026-04-02T10:13:56.908Z</time></trkpt><trkpt lat="43.3983475" lon="11.3038215"><ele>271.33333333333337</ele><time>2026-04-02T10:13:57.908Z</time></trkpt><trkpt lat="43.3983818" lon="11.3040246"><ele>270.6666666666667</ele><time>2026-04-02T10:13:58.908Z</time></trkpt><trkpt lat="43.3984207" lon="11.3042304"><ele>270.0</ele><time>2026-04-02T10:13:59.908Z</time></trkpt><trkpt lat="43.3984572" lon="11.3044591"><ele>270.0</ele><time>2026-04-02T10:14:00.908Z</time></trkpt><trkpt lat="43.3984902" lon="11.3046747"><ele>270.0</ele><time>2026-04-02T10:14:01.908Z</time></trkpt><trkpt lat="43.3985225" lon="11.3048772"><ele>270.0</ele><time>2026-04-02T10:14:02.908Z</time></trkpt><trkpt lat="43.39855" lon="11.3050686"><ele>269.8</ele><time>2026-04-02T10:14:03.908Z</time></trkpt><trkpt lat="43.3985757" lon="11.3052517"><ele>269.6</ele><time>2026-04-02T10:14:04.908Z</time></trkpt><trkpt lat="43.3986006" lon="11.3054099"><ele>269.4</ele><time>2026-04-02T10:14:05.907Z</time></trkpt><trkpt lat="43.3986251" lon="11.3055365"><ele>269.2</ele><time>2026-04-02T10:14:06.908Z</time></trkpt><trkpt lat="43.3986338" lon="11.3056396"><ele>269.0</ele><time>2026-04-02T10:14:07.908Z</time></trkpt><trkpt lat="43.3985882" lon="11.3057616"><ele>269.0</ele><time>2026-04-02T10:14:09.908Z</time></trkpt><trkpt lat="43.3985195" lon="11.3058079"><ele>269.0</ele><time>2026-04-02T10:14:10.908Z</time></trkpt><trkpt lat="43.3984255" lon="11.3058474"><ele>269.0</ele><time>2026-04-02T10:14:11.908Z</time></trkpt><trkpt lat="43.3983193" lon="11.3059066"><ele>269.0</ele><time>2026-04-02T10:14:12.908Z</time></trkpt><trkpt lat="43.3982069" lon="11.3060138"><ele>269.0</ele><time>2026-04-02T10:14:13.908Z</time></trkpt><trkpt lat="43.3981077" lon="11.3061665"><ele>269.0</ele><time>2026-04-02T10:14:14.908Z</time></trkpt><trkpt lat="43.3980306" lon="11.3063653"><ele>269.0</ele><time>2026-04-02T10:14:15.908Z</time></trkpt><trkpt lat="43.3979587" lon="11.3065941"><ele>269.0</ele><time>2026-04-02T10:14:16.908Z</time></trkpt><trkpt lat="43.3978945" lon="11.3068475"><ele>273.33333333333337</ele><time>2026-04-02T10:14:17.908Z</time></trkpt><trkpt lat="43.3978364" lon="11.3070993"><ele>277.6666666666667</ele><time>2026-04-02T10:14:18.908Z</time></trkpt><trkpt lat="43.3977795" lon="11.3073521"><ele>282.0</ele><time>2026-04-02T10:14:19.908Z</time></trkpt><trkpt lat="43.397723" lon="11.3075926"><ele>282.0</ele><time>2026-04-02T10:14:20.908Z</time></trkpt><trkpt lat="43.3976597" lon="11.3078359"><ele>282.0</ele><time>2026-04-02T10:14:21.908Z</time></trkpt><trkpt lat="43.3975853" lon="11.3080713"><ele>282.0</ele><time>2026-04-02T10:14:22.908Z</time></trkpt><trkpt lat="43.397513" lon="11.3082982"><ele>282.6666666666667</ele><time>2026-04-02T10:14:23.908Z</time></trkpt><trkpt lat="43.3974572" lon="11.3085334"><ele>283.33333333333337</ele><time>2026-04-02T10:14:24.908Z</time></trkpt><trkpt lat="43.3974199" lon="11.3087668"><ele>284.0</ele><time>2026-04-02T10:14:25.908Z</time></trkpt><trkpt lat="43.3973924" lon="11.3089931"><ele>284.25</ele><time>2026-04-02T10:14:26.908Z</time></trkpt><trkpt lat="43.3973556" lon="11.3091928"><ele>284.5</ele><time>2026-04-02T10:14:27.907Z</time></trkpt><trkpt lat="43.3972941" lon="11.3093708"><ele>284.75</ele><time>2026-04-02T10:14:28.908Z</time></trkpt><trkpt lat="43.3971977" lon="11.3095012"><ele>285.0</ele><time>2026-04-02T10:14:29.907Z</time></trkpt><trkpt lat="43.3970703" lon="11.3096006"><ele>288.6666666666667</ele><time>2026-04-02T10:14:30.908Z</time></trkpt><trkpt lat="43.3969222" lon="11.3096904"><ele>292.33333333333337</ele><time>2026-04-02T10:14:31.908Z</time></trkpt><trkpt lat="43.39676" lon="11.3097901"><ele>296.0</ele><time>2026-04-02T10:14:32.908Z</time></trkpt><trkpt lat="43.3965874" lon="11.3098896"><ele>296.0</ele><time>2026-04-02T10:14:33.908Z</time></trkpt><trkpt lat="43.3964096" lon="11.3099982"><ele>296.0</ele><time>2026-04-02T10:14:34.908Z</time></trkpt><trkpt lat="43.3962281" lon="11.3101122"><ele>296.0</ele><time>2026-04-02T10:14:35.908Z</time></trkpt><trkpt lat="43.3960691" lon="11.3102148"><ele>297.25</ele><time>2026-04-02T10:14:36.908Z</time></trkpt><trkpt lat="43.3959305" lon="11.3102965"><ele>298.5</ele><time>2026-04-02T10:14:37.908Z</time></trkpt><trkpt lat="43.3958088" lon="11.3103171"><ele>299.75</ele><time>2026-04-02T10:14:38.908Z</time></trkpt><trkpt lat="43.3956921" lon="11.310293"><ele>301.0</ele><time>2026-04-02T10:14:39.908Z</time></trkpt><trkpt lat="43.3955993" lon="11.3102097"><ele>301.0</ele><time>2026-04-02T10:14:40.908Z</time></trkpt><trkpt lat="43.3955257" lon="11.3100741"><ele>301.0</ele><time>2026-04-02T10:14:41.908Z</time></trkpt><trkpt lat="43.3954755" lon="11.3099004"><ele>301.0</ele><time>2026-04-02T10:14:42.908Z</time></trkpt><trkpt lat="43.3954666" lon="11.3097315"><ele>301.0</ele><time>2026-04-02T10:14:43.908Z</time></trkpt><trkpt lat="43.3955011" lon="11.3095741"><ele>304.25</ele><time>2026-04-02T10:14:44.908Z</time></trkpt><trkpt lat="43.3955727" lon="11.309458"><ele>307.5</ele><time>2026-04-02T10:14:45.908Z</time></trkpt><trkpt lat="43.3956842" lon="11.3093881"><ele>310.75</ele><time>2026-04-02T10:14:46.908Z</time></trkpt><trkpt lat="43.39582" lon="11.3093443"><ele>314.0</ele><time>2026-04-02T10:14:47.908Z</time></trkpt><trkpt lat="43.3959749" lon="11.3092743"><ele>314.0</ele><time>2026-04-02T10:14:48.908Z</time></trkpt><trkpt lat="43.3961408" lon="11.3091849"><ele>314.0</ele><time>2026-04-02T10:14:49.907Z</time></trkpt><trkpt lat="43.396297" lon="11.3090759"><ele>314.0</ele><time>2026-04-02T10:14:50.908Z</time></trkpt><trkpt lat="43.3964375" lon="11.3089476"><ele>312.0</ele><time>2026-04-02T10:14:51.908Z</time></trkpt><trkpt lat="43.396544" lon="11.3088182"><ele>310.0</ele><time>2026-04-02T10:14:52.908Z</time></trkpt><trkpt lat="43.3966166" lon="11.3086796"><ele>308.0</ele><time>2026-04-02T10:14:53.908Z</time></trkpt><trkpt lat="43.3966478" lon="11.3085351"><ele>306.0</ele><time>2026-04-02T10:14:54.908Z</time></trkpt><trkpt lat="43.3966278" lon="11.3084024"><ele>306.0</ele><time>2026-04-02T10:14:55.908Z</time></trkpt><trkpt lat="43.3965641" lon="11.3082912"><ele>306.0</ele><time>2026-04-02T10:14:56.908Z</time></trkpt><trkpt lat="43.3964573" lon="11.3082047"><ele>306.0</ele><time>2026-04-02T10:14:57.907Z</time></trkpt><trkpt lat="43.3963203" lon="11.3081472"><ele>306.0</ele><time>2026-04-02T10:14:58.908Z</time></trkpt><trkpt lat="43.3961799" lon="11.3080904"><ele>310.0</ele><time>2026-04-02T10:14:59.907Z</time></trkpt><trkpt lat="43.3960038" lon="11.3080372"><ele>314.0</ele><time>2026-04-02T10:15:00.908Z</time></trkpt><trkpt lat="43.395844" lon="11.3079607"><ele>318.0</ele><time>2026-04-02T10:15:01.908Z</time></trkpt><trkpt lat="43.3956905" lon="11.307846"><ele>318.0</ele><time>2026-04-02T10:15:02.907Z</time></trkpt><trkpt lat="43.3955793" lon="11.3077001"><ele>318.0</ele><time>2026-04-02T10:15:03.908Z</time></trkpt><trkpt lat="43.3955023" lon="11.3075426"><ele>318.0</ele><time>2026-04-02T10:15:04.908Z</time></trkpt><trkpt lat="43.395468" lon="11.3073722"><ele>318.0</ele><time>2026-04-02T10:15:05.908Z</time></trkpt><trkpt lat="43.3954869" lon="11.3071962"><ele>320.5</ele><time>2026-04-02T10:15:06.908Z</time></trkpt><trkpt lat="43.3955491" lon="11.3070229"><ele>323.0</ele><time>2026-04-02T10:15:07.908Z</time></trkpt><trkpt lat="43.3956316" lon="11.3068403"><ele>325.5</ele><time>2026-04-02T10:15:08.908Z</time></trkpt><trkpt lat="43.3957048" lon="11.3066728"><ele>328.0</ele><time>2026-04-02T10:15:09.908Z</time></trkpt><trkpt lat="43.3957602" lon="11.3065148"><ele>329.0</ele><time>2026-04-02T10:15:10.908Z</time></trkpt><trkpt lat="43.3957762" lon="11.3063464"><ele>330.0</ele><time>2026-04-02T10:15:11.908Z</time></trkpt><trkpt lat="43.3957403" lon="11.306191"><ele>331.0</ele><time>2026-04-02T10:15:12.908Z</time></trkpt><trkpt lat="43.3956636" lon="11.3060507"><ele>332.0</ele><time>2026-04-02T10:15:13.907Z</time></trkpt><trkpt lat="43.3955608" lon="11.3059539"><ele>332.75</ele><time>2026-04-02T10:15:14.908Z</time></trkpt><trkpt lat="43.395435" lon="11.3059063"><ele>333.5</ele><time>2026-04-02T10:15:15.908Z</time></trkpt><trkpt lat="43.3952942" lon="11.3059051"><ele>334.25</ele><time>2026-04-02T10:15:16.908Z</time></trkpt><trkpt lat="43.3951657" lon="11.3059393"><ele>335.0</ele><time>2026-04-02T10:15:17.908Z</time></trkpt><trkpt lat="43.3950592" lon="11.3060148"><ele>335.0</ele><time>2026-04-02T10:15:18.908Z</time></trkpt><trkpt lat="43.3949656" lon="11.3061204"><ele>335.0</ele><time>2026-04-02T10:15:19.908Z</time></trkpt><trkpt lat="43.3948822" lon="11.3062422"><ele>335.0</ele><time>2026-04-02T10:15:20.908Z</time></trkpt><trkpt lat="43.3948208" lon="11.3063723"><ele>335.0</ele><time>2026-04-02T10:15:21.908Z</time></trkpt><trkpt lat="43.3947734" lon="11.3064949"><ele>335.1666666666667</ele><time>2026-04-02T10:15:22.908Z</time></trkpt><trkpt lat="43.3947411" lon="11.3066212"><ele>335.33333333333337</ele><time>2026-04-02T10:15:23.908Z</time></trkpt><trkpt lat="43.3947331" lon="11.3067329"><ele>335.5</ele><time>2026-04-02T10:15:24.908Z</time></trkpt><trkpt lat="43.3947359" lon="11.3068222"><ele>335.6666666666667</ele><time>2026-04-02T10:15:25.908Z</time></trkpt><trkpt lat="43.394725" lon="11.3069408"><ele>335.8333333333333</ele><time>2026-04-02T10:15:27.908Z</time></trkpt><trkpt lat="43.394675" lon="11.3069935"><ele>336.0</ele><time>2026-04-02T10:15:28.908Z</time></trkpt><trkpt lat="43.3946161" lon="11.3070649"><ele>336.0</ele><time>2026-04-02T10:15:29.908Z</time></trkpt><trkpt lat="43.394538" lon="11.3071749"><ele>336.0</ele><time>2026-04-02T10:15:30.908Z</time></trkpt><trkpt lat="43.394453" lon="11.3072937"><ele>336.0</ele><time>2026-04-02T10:15:31.908Z</time></trkpt><trkpt lat="43.3943633" lon="11.3074196"><ele>336.0</ele><time>2026-04-02T10:15:32.908Z</time></trkpt><trkpt lat="43.394275" lon="11.3075382"><ele>336.8</ele><time>2026-04-02T10:15:33.908Z</time></trkpt><trkpt lat="43.3941884" lon="11.3076434"><ele>337.6</ele><time>2026-04-02T10:15:34.908Z</time></trkpt><trkpt lat="43.3941031" lon="11.3077449"><ele>338.4</ele><time>2026-04-02T10:15:35.908Z</time></trkpt><trkpt lat="43.3940213" lon="11.3078534"><ele>339.2</ele><time>2026-04-02T10:15:36.908Z</time></trkpt><trkpt lat="43.3939445" lon="11.3079509"><ele>340.0</ele><time>2026-04-02T10:15:37.908Z</time></trkpt><trkpt lat="43.3938663" lon="11.3080337"><ele>341.0</ele><time>2026-04-02T10:15:38.908Z</time></trkpt><trkpt lat="43.393784" lon="11.30812"><ele>342.0</ele><time>2026-04-02T10:15:39.908Z</time></trkpt><trkpt lat="43.3936895" lon="11.3082146"><ele>343.0</ele><time>2026-04-02T10:15:40.908Z</time></trkpt><trkpt lat="43.3935959" lon="11.3083088"><ele>344.0</ele><time>2026-04-02T10:15:41.908Z</time></trkpt><trkpt lat="43.3935062" lon="11.3083998"><ele>345.0</ele><time>2026-04-02T10:15:42.908Z</time></trkpt><trkpt lat="43.3934197" lon="11.3084878"><ele>345.0</ele><time>2026-04-02T10:15:43.908Z</time></trkpt><trkpt lat="43.3933373" lon="11.3085659"><ele>345.0</ele><time>2026-04-02T10:15:44.908Z</time></trkpt><trkpt lat="43.3932451" lon="11.3086401"><ele>345.0</ele><time>2026-04-02T10:15:45.908Z</time></trkpt><trkpt lat="43.3931548" lon="11.3087115"><ele>345.0</ele><time>2026-04-02T10:15:46.908Z</time></trkpt><trkpt lat="43.3930597" lon="11.3087817"><ele>345.0</ele><time>2026-04-02T10:15:47.908Z</time></trkpt><trkpt lat="43.3929595" lon="11.308852"><ele>345.75</ele><time>2026-04-02T10:15:48.908Z</time></trkpt><trkpt lat="43.392851" lon="11.3089281"><ele>346.5</ele><time>2026-04-02T10:15:49.908Z</time></trkpt><trkpt lat="43.3927312" lon="11.3090096"><ele>347.25</ele><time>2026-04-02T10:15:50.908Z</time></trkpt><trkpt lat="43.3926036" lon="11.3090907"><ele>348.0</ele><time>2026-04-02T10:15:51.908Z</time></trkpt><trkpt lat="43.3924575" lon="11.309159"><ele>348.0</ele><time>2026-04-02T10:15:52.908Z</time></trkpt><trkpt lat="43.3923162" lon="11.3092331"><ele>348.0</ele><time>2026-04-02T10:15:53.908Z</time></trkpt><trkpt lat="43.3921745" lon="11.3093111"><ele>348.0</ele><time>2026-04-02T10:15:54.908Z</time></trkpt><trkpt lat="43.3920379" lon="11.3094002"><ele>348.5</ele><time>2026-04-02T10:15:55.908Z</time></trkpt><trkpt lat="43.3919158" lon="11.3094911"><ele>349.0</ele><time>2026-04-02T10:15:56.908Z</time></trkpt><trkpt lat="43.3918008" lon="11.3095836"><ele>349.5</ele><time>2026-04-02T10:15:57.908Z</time></trkpt><trkpt lat="43.3917133" lon="11.3096945"><ele>350.0</ele><time>2026-04-02T10:15:58.907Z</time></trkpt><trkpt lat="43.391611" lon="11.3098078"><ele>348.25</ele><time>2026-04-02T10:15:59.908Z</time></trkpt><trkpt lat="43.3915057" lon="11.3099121"><ele>346.5</ele><time>2026-04-02T10:16:00.908Z</time></trkpt><trkpt lat="43.3913988" lon="11.3100022"><ele>344.75</ele><time>2026-04-02T10:16:01.908Z</time></trkpt><trkpt lat="43.3912917" lon="11.3100912"><ele>343.0</ele><time>2026-04-02T10:16:02.908Z</time></trkpt><trkpt lat="43.3911828" lon="11.310154"><ele>342.0</ele><time>2026-04-02T10:16:03.908Z</time></trkpt><trkpt lat="43.3910781" lon="11.3102284"><ele>341.0</ele><time>2026-04-02T10:16:04.908Z</time></trkpt><trkpt lat="43.3909714" lon="11.3102938"><ele>340.0</ele><time>2026-04-02T10:16:05.908Z</time></trkpt><trkpt lat="43.3908631" lon="11.3103638"><ele>339.0</ele><time>2026-04-02T10:16:06.907Z</time></trkpt><trkpt lat="43.3907479" lon="11.3104254"><ele>339.0</ele><time>2026-04-02T10:16:07.908Z</time></trkpt><trkpt lat="43.3906177" lon="11.3104553"><ele>339.0</ele><time>2026-04-02T10:16:08.908Z</time></trkpt><trkpt lat="43.3904815" lon="11.3104412"><ele>339.0</ele><time>2026-04-02T10:16:09.908Z</time></trkpt><trkpt lat="43.390334" lon="11.3103956"><ele>339.0</ele><time>2026-04-02T10:16:10.908Z</time></trkpt><trkpt lat="43.390181" lon="11.310344"><ele>338.6666666666667</ele><time>2026-04-02T10:16:11.908Z</time></trkpt><trkpt lat="43.3900231" lon="11.3102834"><ele>338.33333333333337</ele><time>2026-04-02T10:16:12.907Z</time></trkpt><trkpt lat="43.3898607" lon="11.3102207"><ele>338.0</ele><time>2026-04-02T10:16:13.907Z</time></trkpt><trkpt lat="43.3897024" lon="11.3101579"><ele>339.6666666666667</ele><time>2026-04-02T10:16:14.908Z</time></trkpt><trkpt lat="43.3895583" lon="11.310092"><ele>341.3333333333333</ele><time>2026-04-02T10:16:15.908Z</time></trkpt><trkpt lat="43.3894226" lon="11.3099994"><ele>343.0</ele><time>2026-04-02T10:16:16.908Z</time></trkpt><trkpt lat="43.3892941" lon="11.3098742"><ele>342.3333333333333</ele><time>2026-04-02T10:16:17.908Z</time></trkpt><trkpt lat="43.3891681" lon="11.3097326"><ele>341.6666666666667</ele><time>2026-04-02T10:16:18.908Z</time></trkpt><trkpt lat="43.3890292" lon="11.3095973"><ele>341.0</ele><time>2026-04-02T10:16:19.908Z</time></trkpt><trkpt lat="43.3888812" lon="11.3094725"><ele>342.0</ele><time>2026-04-02T10:16:20.907Z</time></trkpt><trkpt lat="43.3887257" lon="11.3093498"><ele>343.0</ele><time>2026-04-02T10:16:21.908Z</time></trkpt><trkpt lat="43.3885694" lon="11.3092079"><ele>344.0</ele><time>2026-04-02T10:16:22.908Z</time></trkpt><trkpt lat="43.3884131" lon="11.3090593"><ele>344.0</ele><time>2026-04-02T10:16:23.908Z</time></trkpt><trkpt lat="43.3882527" lon="11.3089035"><ele>344.0</ele><time>2026-04-02T10:16:24.908Z</time></trkpt><trkpt lat="43.3880841" lon="11.3087552"><ele>344.0</ele><time>2026-04-02T10:16:25.908Z</time></trkpt><trkpt lat="43.3879194" lon="11.3086214"><ele>344.0</ele><time>2026-04-02T10:16:26.908Z</time></trkpt><trkpt lat="43.3877657" lon="11.3085068"><ele>344.0</ele><time>2026-04-02T10:16:27.908Z</time></trkpt><trkpt lat="43.3876147" lon="11.3084182"><ele>344.0</ele><time>2026-04-02T10:16:28.908Z</time></trkpt><trkpt lat="43.3874735" lon="11.3083675"><ele>344.0</ele><time>2026-04-02T10:16:29.907Z</time></trkpt><trkpt lat="43.3873309" lon="11.3083748"><ele>344.0</ele><time>2026-04-02T10:16:30.908Z</time></trkpt><trkpt lat="43.3871908" lon="11.3084467"><ele>344.0</ele><time>2026-04-02T10:16:31.908Z</time></trkpt><trkpt lat="43.3870561" lon="11.308581"><ele>344.0</ele><time>2026-04-02T10:16:32.908Z</time></trkpt><trkpt lat="43.3869223" lon="11.308739"><ele>344.0</ele><time>2026-04-02T10:16:33.908Z</time></trkpt><trkpt lat="43.3867833" lon="11.3089367"><ele>344.0</ele><time>2026-04-02T10:16:34.908Z</time></trkpt><trkpt lat="43.3866337" lon="11.3091446"><ele>344.0</ele><time>2026-04-02T10:16:35.908Z</time></trkpt><trkpt lat="43.3864764" lon="11.3093496"><ele>344.0</ele><time>2026-04-02T10:16:36.908Z</time></trkpt><trkpt lat="43.3863204" lon="11.3095574"><ele>344.0</ele><time>2026-04-02T10:16:37.908Z</time></trkpt><trkpt lat="43.3861649" lon="11.3097523"><ele>342.6666666666667</ele><time>2026-04-02T10:16:38.908Z</time></trkpt><trkpt lat="43.3860186" lon="11.3099455"><ele>341.3333333333333</ele><time>2026-04-02T10:16:39.908Z</time></trkpt><trkpt lat="43.3858752" lon="11.3101395"><ele>340.0</ele><time>2026-04-02T10:16:40.908Z</time></trkpt><trkpt lat="43.3857232" lon="11.3103232"><ele>340.0</ele><time>2026-04-02T10:16:41.907Z</time></trkpt><trkpt lat="43.3855576" lon="11.310492"><ele>340.0</ele><time>2026-04-02T10:16:42.908Z</time></trkpt><trkpt lat="43.3853931" lon="11.310647"><ele>340.0</ele><time>2026-04-02T10:16:43.908Z</time></trkpt><trkpt lat="43.3852374" lon="11.3107911"><ele>341.3333333333333</ele><time>2026-04-02T10:16:44.908Z</time></trkpt><trkpt lat="43.3850904" lon="11.3109429"><ele>342.6666666666667</ele><time>2026-04-02T10:16:45.908Z</time></trkpt><trkpt lat="43.3849596" lon="11.3110892"><ele>344.0</ele><time>2026-04-02T10:16:46.908Z</time></trkpt><trkpt lat="43.3848527" lon="11.3112264"><ele>344.0</ele><time>2026-04-02T10:16:47.908Z</time></trkpt><trkpt lat="43.3847674" lon="11.3113743"><ele>344.0</ele><time>2026-04-02T10:16:48.907Z</time></trkpt><trkpt lat="43.3847133" lon="11.3115516"><ele>344.0</ele><time>2026-04-02T10:16:49.908Z</time></trkpt><trkpt lat="43.3847036" lon="11.3117577"><ele>344.0</ele><time>2026-04-02T10:16:50.907Z</time></trkpt><trkpt lat="43.3847811" lon="11.3121688"><ele>342.5</ele><time>2026-04-02T10:16:52.908Z</time></trkpt><trkpt lat="43.3848314" lon="11.3123471"><ele>341.0</ele><time>2026-04-02T10:16:53.908Z</time></trkpt><trkpt lat="43.3848537" lon="11.3125098"><ele>339.5</ele><time>2026-04-02T10:16:54.908Z</time></trkpt><trkpt lat="43.3848429" lon="11.3126702"><ele>338.0</ele><time>2026-04-02T10:16:55.908Z</time></trkpt><trkpt lat="43.3847916" lon="11.3127926"><ele>338.0</ele><time>2026-04-02T10:16:56.908Z</time></trkpt><trkpt lat="43.3847065" lon="11.3128618"><ele>338.0</ele><time>2026-04-02T10:16:57.908Z</time></trkpt><trkpt lat="43.3846036" lon="11.3128702"><ele>338.0</ele><time>2026-04-02T10:16:58.908Z</time></trkpt><trkpt lat="43.3845015" lon="11.3128092"><ele>338.0</ele><time>2026-04-02T10:16:59.908Z</time></trkpt><trkpt lat="43.3843956" lon="11.3126984"><ele>338.0</ele><time>2026-04-02T10:17:00.908Z</time></trkpt><trkpt lat="43.3842832" lon="11.312567"><ele>338.33333333333337</ele><time>2026-04-02T10:17:01.908Z</time></trkpt><trkpt lat="43.3841745" lon="11.3124322"><ele>338.6666666666667</ele><time>2026-04-02T10:17:02.908Z</time></trkpt><trkpt lat="43.3840783" lon="11.3122613"><ele>339.0</ele><time>2026-04-02T10:17:03.908Z</time></trkpt><trkpt lat="43.3839959" lon="11.3120564"><ele>341.0</ele><time>2026-04-02T10:17:04.908Z</time></trkpt><trkpt lat="43.3839138" lon="11.3118349"><ele>343.0</ele><time>2026-04-02T10:17:05.908Z</time></trkpt><trkpt lat="43.3838369" lon="11.3116311"><ele>345.0</ele><time>2026-04-02T10:17:06.908Z</time></trkpt><trkpt lat="43.3837664" lon="11.3114486"><ele>342.0</ele><time>2026-04-02T10:17:07.908Z</time></trkpt><trkpt lat="43.3836865" lon="11.3112825"><ele>339.0</ele><time>2026-04-02T10:17:08.908Z</time></trkpt><trkpt lat="43.3835767" lon="11.3111391"><ele>336.0</ele><time>2026-04-02T10:17:09.907Z</time></trkpt><trkpt lat="43.3834358" lon="11.3110328"><ele>336.0</ele><time>2026-04-02T10:17:10.908Z</time></trkpt><trkpt lat="43.3832595" lon="11.3109561"><ele>336.0</ele><time>2026-04-02T10:17:11.908Z</time></trkpt><trkpt lat="43.3830658" lon="11.3108892"><ele>336.0</ele><time>2026-04-02T10:17:12.908Z</time></trkpt><trkpt lat="43.3828592" lon="11.3108208"><ele>333.0</ele><time>2026-04-02T10:17:13.908Z</time></trkpt><trkpt lat="43.3826415" lon="11.3107481"><ele>330.0</ele><time>2026-04-02T10:17:14.908Z</time></trkpt><trkpt lat="43.3824134" lon="11.3106735"><ele>330.0</ele><time>2026-04-02T10:17:15.908Z</time></trkpt><trkpt lat="43.3821823" lon="11.3105894"><ele>330.0</ele><time>2026-04-02T10:17:16.908Z</time></trkpt><trkpt lat="43.3819477" lon="11.3104877"><ele>328.5</ele><time>2026-04-02T10:17:17.908Z</time></trkpt><trkpt lat="43.3817183" lon="11.3103622"><ele>327.0</ele><time>2026-04-02T10:17:18.908Z</time></trkpt><trkpt lat="43.3815021" lon="11.3102246"><ele>327.3333333333333</ele><time>2026-04-02T10:17:19.908Z</time></trkpt><trkpt lat="43.3812981" lon="11.3100908"><ele>327.66666666666663</ele><time>2026-04-02T10:17:20.908Z</time></trkpt><trkpt lat="43.3811008" lon="11.309965"><ele>328.0</ele><time>2026-04-02T10:17:21.907Z</time></trkpt><trkpt lat="43.3809116" lon="11.3098519"><ele>328.0</ele><time>2026-04-02T10:17:22.908Z</time></trkpt><trkpt lat="43.3807194" lon="11.3097663"><ele>328.0</ele><time>2026-04-02T10:17:23.908Z</time></trkpt><trkpt lat="43.3805193" lon="11.3097084"><ele>328.0</ele><time>2026-04-02T10:17:24.908Z</time></trkpt><trkpt lat="43.3803161" lon="11.3096897"><ele>328.0</ele><time>2026-04-02T10:17:25.908Z</time></trkpt><trkpt lat="43.3801042" lon="11.3097092"><ele>328.0</ele><time>2026-04-02T10:17:26.908Z</time></trkpt><trkpt lat="43.3798951" lon="11.3097516"><ele>328.0</ele><time>2026-04-02T10:17:27.908Z</time></trkpt><trkpt lat="43.3797018" lon="11.3098016"><ele>328.3333333333333</ele><time>2026-04-02T10:17:28.908Z</time></trkpt><trkpt lat="43.3795131" lon="11.3098486"><ele>328.6666666666667</ele><time>2026-04-02T10:17:29.908Z</time></trkpt><trkpt lat="43.3793269" lon="11.3098899"><ele>329.0</ele><time>2026-04-02T10:17:30.908Z</time></trkpt><trkpt lat="43.37914" lon="11.3099204"><ele>329.0</ele><time>2026-04-02T10:17:31.907Z</time></trkpt><trkpt lat="43.3789427" lon="11.3099285"><ele>329.0</ele><time>2026-04-02T10:17:32.908Z</time></trkpt><trkpt lat="43.3787404" lon="11.3099085"><ele>329.0</ele><time>2026-04-02T10:17:33.908Z</time></trkpt><trkpt lat="43.3785342" lon="11.3098697"><ele>330.6666666666667</ele><time>2026-04-02T10:17:34.908Z</time></trkpt><trkpt lat="43.378333" lon="11.3098268"><ele>332.3333333333333</ele><time>2026-04-02T10:17:35.908Z</time></trkpt><trkpt lat="43.3781378" lon="11.3097817"><ele>334.0</ele><time>2026-04-02T10:17:36.908Z</time></trkpt><trkpt lat="43.3779436" lon="11.309744"><ele>332.3333333333333</ele><time>2026-04-02T10:17:37.907Z</time></trkpt><trkpt lat="43.3777473" lon="11.3097048"><ele>330.6666666666667</ele><time>2026-04-02T10:17:38.908Z</time></trkpt><trkpt lat="43.3775542" lon="11.3096525"><ele>329.0</ele><time>2026-04-02T10:17:39.908Z</time></trkpt><trkpt lat="43.3773752" lon="11.3095617"><ele>329.0</ele><time>2026-04-02T10:17:40.908Z</time></trkpt><trkpt lat="43.3772161" lon="11.309451"><ele>329.0</ele><time>2026-04-02T10:17:41.908Z</time></trkpt><trkpt lat="43.3770696" lon="11.3093521"><ele>329.0</ele><time>2026-04-02T10:17:42.908Z</time></trkpt><trkpt lat="43.376922" lon="11.3092889"><ele>331.0</ele><time>2026-04-02T10:17:43.908Z</time></trkpt><trkpt lat="43.3767751" lon="11.309244"><ele>333.0</ele><time>2026-04-02T10:17:44.908Z</time></trkpt><trkpt lat="43.3765696" lon="11.3092854"><ele>335.0</ele><time>2026-04-02T10:17:45.908Z</time></trkpt><trkpt lat="43.3763643" lon="11.3093033"><ele>334.0</ele><time>2026-04-02T10:17:46.908Z</time></trkpt><trkpt lat="43.3761542" lon="11.3093189"><ele>333.0</ele><time>2026-04-02T10:17:47.908Z</time></trkpt><trkpt lat="43.3759336" lon="11.3093324"><ele>332.0</ele><time>2026-04-02T10:17:48.908Z</time></trkpt><trkpt lat="43.3757129" lon="11.3093488"><ele>331.6666666666667</ele><time>2026-04-02T10:17:49.908Z</time></trkpt><trkpt lat="43.3754997" lon="11.3093625"><ele>331.3333333333333</ele><time>2026-04-02T10:17:50.908Z</time></trkpt><trkpt lat="43.3752971" lon="11.3093753"><ele>331.0</ele><time>2026-04-02T10:17:51.907Z</time></trkpt><trkpt lat="43.3750958" lon="11.3093931"><ele>331.0</ele><time>2026-04-02T10:17:52.908Z</time></trkpt><trkpt lat="43.3746953" lon="11.3094368"><ele>331.0</ele><time>2026-04-02T10:17:54.908Z</time></trkpt><trkpt lat="43.3745107" lon="11.3094718"><ele>332.0</ele><time>2026-04-02T10:17:55.907Z</time></trkpt><trkpt lat="43.3743365" lon="11.309514"><ele>333.0</ele><time>2026-04-02T10:17:56.907Z</time></trkpt><trkpt lat="43.3741764" lon="11.3095513"><ele>334.0</ele><time>2026-04-02T10:17:57.908Z</time></trkpt><trkpt lat="43.3740253" lon="11.3095947"><ele>334.0</ele><time>2026-04-02T10:17:58.907Z</time></trkpt><trkpt lat="43.373897" lon="11.3096384"><ele>334.0</ele><time>2026-04-02T10:17:59.908Z</time></trkpt><trkpt lat="43.3737887" lon="11.3097179"><ele>334.0</ele><time>2026-04-02T10:18:00.908Z</time></trkpt><trkpt lat="43.3737026" lon="11.3098388"><ele>334.0</ele><time>2026-04-02T10:18:01.908Z</time></trkpt><trkpt lat="43.3736426" lon="11.3099801"><ele>334.25</ele><time>2026-04-02T10:18:02.908Z</time></trkpt><trkpt lat="43.3736161" lon="11.310155"><ele>334.5</ele><time>2026-04-02T10:18:03.908Z</time></trkpt><trkpt lat="43.3735949" lon="11.3103494"><ele>334.75</ele><time>2026-04-02T10:18:04.908Z</time></trkpt><trkpt lat="43.3735704" lon="11.3105613"><ele>335.0</ele><time>2026-04-02T10:18:05.908Z</time></trkpt><trkpt lat="43.3735482" lon="11.3107741"><ele>336.5</ele><time>2026-04-02T10:18:06.908Z</time></trkpt><trkpt lat="43.3735294" lon="11.3109859"><ele>338.0</ele><time>2026-04-02T10:18:07.908Z</time></trkpt><trkpt lat="43.3735082" lon="11.3111752"><ele>339.5</ele><time>2026-04-02T10:18:08.908Z</time></trkpt><trkpt lat="43.3734783" lon="11.3113531"><ele>341.0</ele><time>2026-04-02T10:18:09.908Z</time></trkpt><trkpt lat="43.3734139" lon="11.3114986"><ele>341.5</ele><time>2026-04-02T10:18:10.908Z</time></trkpt><trkpt lat="43.3733127" lon="11.3116062"><ele>342.0</ele><time>2026-04-02T10:18:11.908Z</time></trkpt><trkpt lat="43.3731866" lon="11.3116731"><ele>342.5</ele><time>2026-04-02T10:18:12.908Z</time></trkpt><trkpt lat="43.3730364" lon="11.311728"><ele>343.0</ele><time>2026-04-02T10:18:13.908Z</time></trkpt><trkpt lat="43.3726969" lon="11.311847"><ele>343.0</ele><time>2026-04-02T10:18:15.908Z</time></trkpt><trkpt lat="43.3725278" lon="11.3119123"><ele>343.0</ele><time>2026-04-02T10:18:16.908Z</time></trkpt><trkpt lat="43.3723688" lon="11.3119547"><ele>343.0</ele><time>2026-04-02T10:18:17.908Z</time></trkpt><trkpt lat="43.372225" lon="11.3119443"><ele>344.25</ele><time>2026-04-02T10:18:18.908Z</time></trkpt><trkpt lat="43.3721067" lon="11.3118796"><ele>345.5</ele><time>2026-04-02T10:18:19.907Z</time></trkpt><trkpt lat="43.3719949" lon="11.3117675"><ele>346.75</ele><time>2026-04-02T10:18:20.908Z</time></trkpt><trkpt lat="43.3718819" lon="11.3116325"><ele>348.0</ele><time>2026-04-02T10:18:21.908Z</time></trkpt><trkpt lat="43.3717693" lon="11.3115174"><ele>348.0</ele><time>2026-04-02T10:18:22.908Z</time></trkpt><trkpt lat="43.3716484" lon="11.3114475"><ele>348.0</ele><time>2026-04-02T10:18:23.907Z</time></trkpt><trkpt lat="43.3715037" lon="11.311427"><ele>348.0</ele><time>2026-04-02T10:18:24.908Z</time></trkpt><trkpt lat="43.3713492" lon="11.3114556"><ele>348.0</ele><time>2026-04-02T10:18:25.908Z</time></trkpt><trkpt lat="43.3711961" lon="11.311501"><ele>348.75</ele><time>2026-04-02T10:18:26.907Z</time></trkpt><trkpt lat="43.3710562" lon="11.3115527"><ele>349.5</ele><time>2026-04-02T10:18:27.907Z</time></trkpt><trkpt lat="43.3709299" lon="11.3116216"><ele>350.25</ele><time>2026-04-02T10:18:28.908Z</time></trkpt><trkpt lat="43.3708284" lon="11.3117317"><ele>351.0</ele><time>2026-04-02T10:18:29.908Z</time></trkpt><trkpt lat="43.3707513" lon="11.3118887"><ele>351.0</ele><time>2026-04-02T10:18:30.908Z</time></trkpt><trkpt lat="43.3707109" lon="11.3120794"><ele>351.0</ele><time>2026-04-02T10:18:31.908Z</time></trkpt><trkpt lat="43.3706691" lon="11.3122595"><ele>351.0</ele><time>2026-04-02T10:18:32.908Z</time></trkpt><trkpt lat="43.3705961" lon="11.3124186"><ele>351.0</ele><time>2026-04-02T10:18:33.907Z</time></trkpt><trkpt lat="43.3704943" lon="11.3125656"><ele>347.6666666666667</ele><time>2026-04-02T10:18:34.908Z</time></trkpt><trkpt lat="43.3703692" lon="11.3127001"><ele>344.33333333333337</ele><time>2026-04-02T10:18:35.908Z</time></trkpt><trkpt lat="43.3702207" lon="11.3128108"><ele>341.0</ele><time>2026-04-02T10:18:36.908Z</time></trkpt><trkpt lat="43.3700637" lon="11.3128956"><ele>341.0</ele><time>2026-04-02T10:18:37.908Z</time></trkpt><trkpt lat="43.3698987" lon="11.3129538"><ele>341.0</ele><time>2026-04-02T10:18:38.908Z</time></trkpt><trkpt lat="43.3697264" lon="11.3130012"><ele>341.0</ele><time>2026-04-02T10:18:39.908Z</time></trkpt><trkpt lat="43.3695563" lon="11.3130265"><ele>340.33333333333337</ele><time>2026-04-02T10:18:40.908Z</time></trkpt><trkpt lat="43.3693875" lon="11.3130352"><ele>339.6666666666667</ele><time>2026-04-02T10:18:41.907Z</time></trkpt><trkpt lat="43.369217" lon="11.3130293"><ele>339.0</ele><time>2026-04-02T10:18:42.908Z</time></trkpt><trkpt lat="43.3690338" lon="11.3130221"><ele>338.6666666666667</ele><time>2026-04-02T10:18:43.907Z</time></trkpt><trkpt lat="43.3688405" lon="11.3130023"><ele>338.33333333333337</ele><time>2026-04-02T10:18:44.908Z</time></trkpt><trkpt lat="43.3686369" lon="11.3129716"><ele>338.0</ele><time>2026-04-02T10:18:45.908Z</time></trkpt><trkpt lat="43.3684312" lon="11.3129407"><ele>338.0</ele><time>2026-04-02T10:18:46.908Z</time></trkpt><trkpt lat="43.3682242" lon="11.3128987"><ele>338.0</ele><time>2026-04-02T10:18:47.908Z</time></trkpt><trkpt lat="43.3680119" lon="11.3129284"><ele>338.0</ele><time>2026-04-02T10:18:48.908Z</time></trkpt><trkpt lat="43.3677961" lon="11.31298"><ele>336.0</ele><time>2026-04-02T10:18:49.908Z</time></trkpt><trkpt lat="43.367589" lon="11.3130369"><ele>334.0</ele><time>2026-04-02T10:18:50.907Z</time></trkpt><trkpt lat="43.3673966" lon="11.3130811"><ele>332.0</ele><time>2026-04-02T10:18:51.908Z</time></trkpt><trkpt lat="43.3672013" lon="11.3130979"><ele>333.33333333333337</ele><time>2026-04-02T10:18:52.908Z</time></trkpt><trkpt lat="43.3670148" lon="11.3130594"><ele>334.6666666666667</ele><time>2026-04-02T10:18:53.908Z</time></trkpt><trkpt lat="43.3668212" lon="11.3129789"><ele>336.0</ele><time>2026-04-02T10:18:54.908Z</time></trkpt><trkpt lat="43.3666201" lon="11.3128927"><ele>336.0</ele><time>2026-04-02T10:18:55.908Z</time></trkpt><trkpt lat="43.3664293" lon="11.3128221"><ele>336.0</ele><time>2026-04-02T10:18:56.908Z</time></trkpt><trkpt lat="43.3662514" lon="11.3127768"><ele>336.0</ele><time>2026-04-02T10:18:57.908Z</time></trkpt><trkpt lat="43.3660691" lon="11.3127403"><ele>336.3333333333333</ele><time>2026-04-02T10:18:58.907Z</time></trkpt><trkpt lat="43.3658849" lon="11.3127073"><ele>336.66666666666663</ele><time>2026-04-02T10:18:59.908Z</time></trkpt><trkpt lat="43.3656749" lon="11.3126751"><ele>337.0</ele><time>2026-04-02T10:19:00.907Z</time></trkpt><trkpt lat="43.3652411" lon="11.3126183"><ele>337.0</ele><time>2026-04-02T10:19:02.908Z</time></trkpt><trkpt lat="43.3650228" lon="11.3126105"><ele>337.0</ele><time>2026-04-02T10:19:03.907Z</time></trkpt><trkpt lat="43.3648146" lon="11.3126013"><ele>337.0</ele><time>2026-04-02T10:19:04.908Z</time></trkpt><trkpt lat="43.3646201" lon="11.3125963"><ele>338.0</ele><time>2026-04-02T10:19:05.908Z</time></trkpt><trkpt lat="43.3644425" lon="11.3125875"><ele>339.0</ele><time>2026-04-02T10:19:06.908Z</time></trkpt><trkpt lat="43.3642665" lon="11.3125677"><ele>340.0</ele><time>2026-04-02T10:19:07.908Z</time></trkpt><trkpt lat="43.3640891" lon="11.3125285"><ele>340.0</ele><time>2026-04-02T10:19:08.908Z</time></trkpt><trkpt lat="43.3639194" lon="11.3124597"><ele>340.0</ele><time>2026-04-02T10:19:09.908Z</time></trkpt><trkpt lat="43.3637651" lon="11.3123505"><ele>340.0</ele><time>2026-04-02T10:19:10.908Z</time></trkpt><trkpt lat="43.3636286" lon="11.312203"><ele>338.66666666666663</ele><time>2026-04-02T10:19:11.908Z</time></trkpt><trkpt lat="43.3635026" lon="11.3120436"><ele>337.3333333333333</ele><time>2026-04-02T10:19:12.908Z</time></trkpt><trkpt lat="43.3633636" lon="11.3119086"><ele>336.0</ele><time>2026-04-02T10:19:13.908Z</time></trkpt><trkpt lat="43.3631994" lon="11.3118101"><ele>336.6666666666667</ele><time>2026-04-02T10:19:14.908Z</time></trkpt><trkpt lat="43.363021" lon="11.3117505"><ele>337.33333333333337</ele><time>2026-04-02T10:19:15.908Z</time></trkpt><trkpt lat="43.3628334" lon="11.3117492"><ele>338.0</ele><time>2026-04-02T10:19:16.908Z</time></trkpt><trkpt lat="43.3626371" lon="11.311793"><ele>338.0</ele><time>2026-04-02T10:19:17.908Z</time></trkpt><trkpt lat="43.3624383" lon="11.3118672"><ele>338.0</ele><time>2026-04-02T10:19:18.908Z</time></trkpt><trkpt lat="43.3622408" lon="11.3119573"><ele>338.0</ele><time>2026-04-02T10:19:19.908Z</time></trkpt><trkpt lat="43.3620429" lon="11.3120832"><ele>338.33333333333337</ele><time>2026-04-02T10:19:20.908Z</time></trkpt><trkpt lat="43.3618453" lon="11.3122036"><ele>338.6666666666667</ele><time>2026-04-02T10:19:21.907Z</time></trkpt><trkpt lat="43.3616502" lon="11.3123207"><ele>339.0</ele><time>2026-04-02T10:19:22.908Z</time></trkpt><trkpt lat="43.3614694" lon="11.3124332"><ele>337.0</ele><time>2026-04-02T10:19:23.908Z</time></trkpt><trkpt lat="43.361295" lon="11.3125577"><ele>335.0</ele><time>2026-04-02T10:19:24.908Z</time></trkpt><trkpt lat="43.3611223" lon="11.3126987"><ele>333.0</ele><time>2026-04-02T10:19:25.908Z</time></trkpt><trkpt lat="43.3609563" lon="11.3128454"><ele>333.0</ele><time>2026-04-02T10:19:26.908Z</time></trkpt><trkpt lat="43.3607995" lon="11.3129842"><ele>333.0</ele><time>2026-04-02T10:19:27.908Z</time></trkpt><trkpt lat="43.3606549" lon="11.3131198"><ele>333.0</ele><time>2026-04-02T10:19:28.908Z</time></trkpt><trkpt lat="43.3605093" lon="11.3132369"><ele>334.6666666666667</ele><time>2026-04-02T10:19:29.908Z</time></trkpt><trkpt lat="43.3603579" lon="11.3133453"><ele>336.33333333333337</ele><time>2026-04-02T10:19:30.908Z</time></trkpt><trkpt lat="43.360208" lon="11.3134675"><ele>338.0</ele><time>2026-04-02T10:19:31.908Z</time></trkpt><trkpt lat="43.3600688" lon="11.3136027"><ele>338.0</ele><time>2026-04-02T10:19:32.908Z</time></trkpt><trkpt lat="43.3599419" lon="11.3137374"><ele>338.0</ele><time>2026-04-02T10:19:33.908Z</time></trkpt><trkpt lat="43.35982" lon="11.3138756"><ele>338.0</ele><time>2026-04-02T10:19:34.907Z</time></trkpt><trkpt lat="43.3595972" lon="11.3141415"><ele>338.5</ele><time>2026-04-02T10:19:36.908Z</time></trkpt><trkpt lat="43.3594856" lon="11.3142661"><ele>339.0</ele><time>2026-04-02T10:19:37.908Z</time></trkpt><trkpt lat="43.3593622" lon="11.3143823"><ele>339.5</ele><time>2026-04-02T10:19:38.908Z</time></trkpt><trkpt lat="43.3592309" lon="11.3144818"><ele>340.0</ele><time>2026-04-02T10:19:39.908Z</time></trkpt><trkpt lat="43.359097" lon="11.3145635"><ele>340.0</ele><time>2026-04-02T10:19:40.908Z</time></trkpt><trkpt lat="43.3589664" lon="11.3146307"><ele>340.0</ele><time>2026-04-02T10:19:41.908Z</time></trkpt><trkpt lat="43.3588437" lon="11.3146651"><ele>340.0</ele><time>2026-04-02T10:19:42.908Z</time></trkpt><trkpt lat="43.3587224" lon="11.314683"><ele>340.0</ele><time>2026-04-02T10:19:43.908Z</time></trkpt><trkpt lat="43.3586088" lon="11.3146941"><ele>341.5</ele><time>2026-04-02T10:19:44.908Z</time></trkpt><trkpt lat="43.3584971" lon="11.3147008"><ele>343.0</ele><time>2026-04-02T10:19:45.908Z</time></trkpt><trkpt lat="43.3583817" lon="11.3147076"><ele>344.5</ele><time>2026-04-02T10:19:46.908Z</time></trkpt><trkpt lat="43.3582631" lon="11.3147111"><ele>346.0</ele><time>2026-04-02T10:19:47.908Z</time></trkpt><trkpt lat="43.3581464" lon="11.3147114"><ele>347.5</ele><time>2026-04-02T10:19:48.908Z</time></trkpt><trkpt lat="43.3580303" lon="11.3147095"><ele>349.0</ele><time>2026-04-02T10:19:49.908Z</time></trkpt><trkpt lat="43.3579147" lon="11.3147108"><ele>350.5</ele><time>2026-04-02T10:19:50.908Z</time></trkpt><trkpt lat="43.3578003" lon="11.3147088"><ele>352.0</ele><time>2026-04-02T10:19:51.908Z</time></trkpt><trkpt lat="43.3576862" lon="11.314706"><ele>352.0</ele><time>2026-04-02T10:19:52.908Z</time></trkpt><trkpt lat="43.357573" lon="11.3147013"><ele>352.0</ele><time>2026-04-02T10:19:53.908Z</time></trkpt><trkpt lat="43.3574606" lon="11.3146953"><ele>352.0</ele><time>2026-04-02T10:19:54.908Z</time></trkpt><trkpt lat="43.3573362" lon="11.3146848"><ele>352.0</ele><time>2026-04-02T10:19:55.907Z</time></trkpt><trkpt lat="43.3572119" lon="11.314677"><ele>351.75</ele><time>2026-04-02T10:19:56.908Z</time></trkpt><trkpt lat="43.357084" lon="11.3146719"><ele>351.5</ele><time>2026-04-02T10:19:57.908Z</time></trkpt><trkpt lat="43.3569614" lon="11.3146731"><ele>351.25</ele><time>2026-04-02T10:19:58.908Z</time></trkpt><trkpt lat="43.3568452" lon="11.3146745"><ele>351.0</ele><time>2026-04-02T10:19:59.908Z</time></trkpt><trkpt lat="43.3567356" lon="11.314675"><ele>351.0</ele><time>2026-04-02T10:20:00.908Z</time></trkpt><trkpt lat="43.3566265" lon="11.3146763"><ele>351.0</ele><time>2026-04-02T10:20:01.908Z</time></trkpt><trkpt lat="43.3565237" lon="11.3146681"><ele>351.0</ele><time>2026-04-02T10:20:02.908Z</time></trkpt><trkpt lat="43.3564186" lon="11.3146518"><ele>351.0</ele><time>2026-04-02T10:20:03.907Z</time></trkpt><trkpt lat="43.3563194" lon="11.3146245"><ele>351.0</ele><time>2026-04-02T10:20:04.908Z</time></trkpt><trkpt lat="43.3561132" lon="11.3145379"><ele>350.75</ele><time>2026-04-02T10:20:06.908Z</time></trkpt><trkpt lat="43.3560117" lon="11.314482"><ele>350.5</ele><time>2026-04-02T10:20:07.908Z</time></trkpt><trkpt lat="43.3559071" lon="11.3144273"><ele>350.25</ele><time>2026-04-02T10:20:08.908Z</time></trkpt><trkpt lat="43.3557955" lon="11.3143593"><ele>350.0</ele><time>2026-04-02T10:20:09.908Z</time></trkpt><trkpt lat="43.3556804" lon="11.3142877"><ele>350.0</ele><time>2026-04-02T10:20:10.908Z</time></trkpt><trkpt lat="43.3555604" lon="11.3142171"><ele>350.0</ele><time>2026-04-02T10:20:11.908Z</time></trkpt><trkpt lat="43.355443" lon="11.3141455"><ele>350.0</ele><time>2026-04-02T10:20:12.908Z</time></trkpt><trkpt lat="43.3553249" lon="11.314075"><ele>350.0</ele><time>2026-04-02T10:20:13.908Z</time></trkpt><trkpt lat="43.3552125" lon="11.3140081"><ele>350.4</ele><time>2026-04-02T10:20:14.908Z</time></trkpt><trkpt lat="43.3551078" lon="11.3139477"><ele>350.8</ele><time>2026-04-02T10:20:15.908Z</time></trkpt><trkpt lat="43.3550111" lon="11.3138887"><ele>351.20000000000005</ele><time>2026-04-02T10:20:16.908Z</time></trkpt><trkpt lat="43.3549224" lon="11.3138357"><ele>351.6</ele><time>2026-04-02T10:20:17.908Z</time></trkpt><trkpt lat="43.3548355" lon="11.3137863"><ele>352.0</ele><time>2026-04-02T10:20:18.908Z</time></trkpt><trkpt lat="43.3547433" lon="11.3137353"><ele>351.0</ele><time>2026-04-02T10:20:19.908Z</time></trkpt><trkpt lat="43.3546456" lon="11.3136784"><ele>350.0</ele><time>2026-04-02T10:20:20.908Z</time></trkpt><trkpt lat="43.3545463" lon="11.3136196"><ele>349.0</ele><time>2026-04-02T10:20:21.908Z</time></trkpt><trkpt lat="43.3544344" lon="11.3135547"><ele>348.0</ele><time>2026-04-02T10:20:22.908Z</time></trkpt><trkpt lat="43.3543182" lon="11.3134868"><ele>348.0</ele><time>2026-04-02T10:20:23.908Z</time></trkpt><trkpt lat="43.354201" lon="11.3134122"><ele>348.0</ele><time>2026-04-02T10:20:24.908Z</time></trkpt><trkpt lat="43.3540813" lon="11.313346"><ele>348.0</ele><time>2026-04-02T10:20:25.908Z</time></trkpt><trkpt lat="43.3539548" lon="11.3132823"><ele>348.0</ele><time>2026-04-02T10:20:26.908Z</time></trkpt><trkpt lat="43.3538215" lon="11.3132199"><ele>348.25</ele><time>2026-04-02T10:20:27.908Z</time></trkpt><trkpt lat="43.3536824" lon="11.3131632"><ele>348.5</ele><time>2026-04-02T10:20:28.908Z</time></trkpt><trkpt lat="43.353539" lon="11.3131195"><ele>348.75</ele><time>2026-04-02T10:20:29.908Z</time></trkpt><trkpt lat="43.3533974" lon="11.3130795"><ele>349.0</ele><time>2026-04-02T10:20:30.908Z</time></trkpt><trkpt lat="43.3532649" lon="11.3130437"><ele>350.5</ele><time>2026-04-02T10:20:31.908Z</time></trkpt><trkpt lat="43.3531406" lon="11.3130105"><ele>352.0</ele><time>2026-04-02T10:20:32.908Z</time></trkpt><trkpt lat="43.3530241" lon="11.3129822"><ele>353.5</ele><time>2026-04-02T10:20:33.908Z</time></trkpt><trkpt lat="43.3529089" lon="11.3129521"><ele>355.0</ele><time>2026-04-02T10:20:34.907Z</time></trkpt><trkpt lat="43.3527962" lon="11.3129283"><ele>356.0</ele><time>2026-04-02T10:20:35.907Z</time></trkpt><trkpt lat="43.3526841" lon="11.3129062"><ele>357.0</ele><time>2026-04-02T10:20:36.908Z</time></trkpt><trkpt lat="43.3525855" lon="11.3128887"><ele>358.0</ele><time>2026-04-02T10:20:37.907Z</time></trkpt><trkpt lat="43.3524984" lon="11.3128698"><ele>359.0</ele><time>2026-04-02T10:20:38.907Z</time></trkpt><trkpt lat="43.3524194" lon="11.3128555"><ele>360.0</ele><time>2026-04-02T10:20:39.908Z</time></trkpt><trkpt lat="43.3523358" lon="11.31284"><ele>360.0</ele><time>2026-04-02T10:20:40.907Z</time></trkpt><trkpt lat="43.3522503" lon="11.3128248"><ele>360.0</ele><time>2026-04-02T10:20:41.908Z</time></trkpt><trkpt lat="43.3521582" lon="11.3128143"><ele>360.0</ele><time>2026-04-02T10:20:42.908Z</time></trkpt><trkpt lat="43.3520597" lon="11.312807"><ele>360.0</ele><time>2026-04-02T10:20:43.908Z</time></trkpt><trkpt lat="43.3519535" lon="11.3128095"><ele>360.0</ele><time>2026-04-02T10:20:44.908Z</time></trkpt><trkpt lat="43.3518373" lon="11.3128154"><ele>359.75</ele><time>2026-04-02T10:20:45.908Z</time></trkpt><trkpt lat="43.3517054" lon="11.3128023"><ele>359.5</ele><time>2026-04-02T10:20:46.908Z</time></trkpt><trkpt lat="43.3515727" lon="11.312767"><ele>359.25</ele><time>2026-04-02T10:20:47.908Z</time></trkpt><trkpt lat="43.3514369" lon="11.3127171"><ele>359.0</ele><time>2026-04-02T10:20:48.908Z</time></trkpt><trkpt lat="43.3512893" lon="11.3126649"><ele>358.0</ele><time>2026-04-02T10:20:49.908Z</time></trkpt><trkpt lat="43.3511356" lon="11.3126214"><ele>357.0</ele><time>2026-04-02T10:20:50.908Z</time></trkpt><trkpt lat="43.3509811" lon="11.3125792"><ele>356.0</ele><time>2026-04-02T10:20:51.908Z</time></trkpt><trkpt lat="43.3508382" lon="11.3125402"><ele>356.0</ele><time>2026-04-02T10:20:52.908Z</time></trkpt><trkpt lat="43.3507081" lon="11.3125029"><ele>356.0</ele><time>2026-04-02T10:20:53.908Z</time></trkpt><trkpt lat="43.3505858" lon="11.3124692"><ele>356.0</ele><time>2026-04-02T10:20:54.908Z</time></trkpt><trkpt lat="43.3504653" lon="11.3124399"><ele>356.0</ele><time>2026-04-02T10:20:55.907Z</time></trkpt><trkpt lat="43.3503507" lon="11.3124157"><ele>356.8</ele><time>2026-04-02T10:20:56.908Z</time></trkpt><trkpt lat="43.3502462" lon="11.3123921"><ele>357.6</ele><time>2026-04-02T10:20:57.908Z</time></trkpt><trkpt lat="43.3501499" lon="11.3123678"><ele>358.4</ele><time>2026-04-02T10:20:58.907Z</time></trkpt><trkpt lat="43.3500546" lon="11.312346"><ele>359.2</ele><time>2026-04-02T10:20:59.908Z</time></trkpt><trkpt lat="43.3499722" lon="11.3123286"><ele>360.0</ele><time>2026-04-02T10:21:00.908Z</time></trkpt><trkpt lat="43.349893" lon="11.3123161"><ele>360.0</ele><time>2026-04-02T10:21:01.908Z</time></trkpt><trkpt lat="43.3498156" lon="11.3123085"><ele>360.0</ele><time>2026-04-02T10:21:02.908Z</time></trkpt><trkpt lat="43.3497404" lon="11.3123108"><ele>360.0</ele><time>2026-04-02T10:21:03.908Z</time></trkpt><trkpt lat="43.349667" lon="11.3123267"><ele>360.0</ele><time>2026-04-02T10:21:04.908Z</time></trkpt><trkpt lat="43.3495939" lon="11.3123511"><ele>360.0</ele><time>2026-04-02T10:21:05.908Z</time></trkpt><trkpt lat="43.3495232" lon="11.3123685"><ele>360.0</ele><time>2026-04-02T10:21:06.908Z</time></trkpt><trkpt lat="43.3494512" lon="11.3123554"><ele>360.0</ele><time>2026-04-02T10:21:07.908Z</time></trkpt><trkpt lat="43.3493852" lon="11.3123284"><ele>360.8333333333333</ele><time>2026-04-02T10:21:08.908Z</time></trkpt><trkpt lat="43.3492653" lon="11.3123029"><ele>361.6666666666667</ele><time>2026-04-02T10:21:10.908Z</time></trkpt><trkpt lat="43.3492032" lon="11.3123215"><ele>362.5</ele><time>2026-04-02T10:21:11.908Z</time></trkpt><trkpt lat="43.3491119" lon="11.3124263"><ele>363.33333333333337</ele><time>2026-04-02T10:21:13.908Z</time></trkpt><trkpt lat="43.3490811" lon="11.3125092"><ele>364.1666666666667</ele><time>2026-04-02T10:21:14.908Z</time></trkpt><trkpt lat="43.3490551" lon="11.3126055"><ele>365.0</ele><time>2026-04-02T10:21:15.908Z</time></trkpt><trkpt lat="43.3490267" lon="11.312712"><ele>365.0</ele><time>2026-04-02T10:21:16.908Z</time></trkpt><trkpt lat="43.348997" lon="11.3128248"><ele>365.0</ele><time>2026-04-02T10:21:17.908Z</time></trkpt><trkpt lat="43.3489545" lon="11.3129344"><ele>365.0</ele><time>2026-04-02T10:21:18.908Z</time></trkpt><trkpt lat="43.3488882" lon="11.3130403"><ele>365.0</ele><time>2026-04-02T10:21:19.908Z</time></trkpt><trkpt lat="43.3488066" lon="11.3131371"><ele>365.0</ele><time>2026-04-02T10:21:20.908Z</time></trkpt><trkpt lat="43.3487196" lon="11.3132345"><ele>365.25</ele><time>2026-04-02T10:21:21.908Z</time></trkpt><trkpt lat="43.3486202" lon="11.3133474"><ele>365.5</ele><time>2026-04-02T10:21:22.908Z</time></trkpt><trkpt lat="43.3485136" lon="11.3134416"><ele>365.75</ele><time>2026-04-02T10:21:23.907Z</time></trkpt><trkpt lat="43.3484128" lon="11.3135094"><ele>366.0</ele><time>2026-04-02T10:21:24.908Z</time></trkpt><trkpt lat="43.3483032" lon="11.3135476"><ele>366.0</ele><time>2026-04-02T10:21:25.908Z</time></trkpt><trkpt lat="43.3481928" lon="11.3135612"><ele>366.0</ele><time>2026-04-02T10:21:26.908Z</time></trkpt><trkpt lat="43.3480847" lon="11.3135573"><ele>366.0</ele><time>2026-04-02T10:21:27.908Z</time></trkpt><trkpt lat="43.3479792" lon="11.3135513"><ele>366.0</ele><time>2026-04-02T10:21:28.908Z</time></trkpt><trkpt lat="43.3478784" lon="11.3135393"><ele>366.0</ele><time>2026-04-02T10:21:29.908Z</time></trkpt><trkpt lat="43.3477823" lon="11.3135274"><ele>367.1666666666667</ele><time>2026-04-02T10:21:30.908Z</time></trkpt><trkpt lat="43.3476985" lon="11.3135134"><ele>368.3333333333333</ele><time>2026-04-02T10:21:31.908Z</time></trkpt><trkpt lat="43.347631" lon="11.3135033"><ele>369.5</ele><time>2026-04-02T10:21:32.908Z</time></trkpt><trkpt lat="43.347552" lon="11.3134834"><ele>370.66666666666663</ele><time>2026-04-02T10:21:34.908Z</time></trkpt><trkpt lat="43.3474644" lon="11.31349"><ele>371.8333333333333</ele><time>2026-04-02T10:22:30.908Z</time></trkpt><trkpt lat="43.3473979" lon="11.3134927"><ele>373.0</ele><time>2026-04-02T10:22:31.908Z</time></trkpt><trkpt lat="43.3473124" lon="11.313489"><ele>373.0</ele><time>2026-04-02T10:22:32.908Z</time></trkpt><trkpt lat="43.3472194" lon="11.3134774"><ele>373.0</ele><time>2026-04-02T10:22:33.907Z</time></trkpt><trkpt lat="43.347111" lon="11.3134655"><ele>373.0</ele><time>2026-04-02T10:22:34.908Z</time></trkpt><trkpt lat="43.346986" lon="11.3134528"><ele>373.0</ele><time>2026-04-02T10:22:35.908Z</time></trkpt><trkpt lat="43.3468627" lon="11.3134415"><ele>375.5</ele><time>2026-04-02T10:22:36.907Z</time></trkpt><trkpt lat="43.3467378" lon="11.3134292"><ele>378.0</ele><time>2026-04-02T10:22:37.908Z</time></trkpt><trkpt lat="43.3466135" lon="11.3134209"><ele>380.5</ele><time>2026-04-02T10:22:38.908Z</time></trkpt><trkpt lat="43.3464846" lon="11.3134247"><ele>383.0</ele><time>2026-04-02T10:22:39.908Z</time></trkpt><trkpt lat="43.3463444" lon="11.3134288"><ele>384.6666666666667</ele><time>2026-04-02T10:22:40.908Z</time></trkpt><trkpt lat="43.3461999" lon="11.3134347"><ele>386.33333333333337</ele><time>2026-04-02T10:22:41.908Z</time></trkpt><trkpt lat="43.3460434" lon="11.3134483"><ele>388.0</ele><time>2026-04-02T10:22:42.908Z</time></trkpt><trkpt lat="43.3458876" lon="11.3134601"><ele>388.0</ele><time>2026-04-02T10:22:43.907Z</time></trkpt><trkpt lat="43.3457432" lon="11.3134703"><ele>388.0</ele><time>2026-04-02T10:22:44.908Z</time></trkpt><trkpt lat="43.3455927" lon="11.3134855"><ele>388.0</ele><time>2026-04-02T10:22:45.908Z</time></trkpt><trkpt lat="43.3454442" lon="11.3135073"><ele>388.0</ele><time>2026-04-02T10:22:46.908Z</time></trkpt><trkpt lat="43.3452983" lon="11.3135439"><ele>387.0</ele><time>2026-04-02T10:22:47.908Z</time></trkpt><trkpt lat="43.3451498" lon="11.3135993"><ele>386.0</ele><time>2026-04-02T10:22:48.908Z</time></trkpt><trkpt lat="43.3450044" lon="11.3136825"><ele>385.0</ele><time>2026-04-02T10:22:49.908Z</time></trkpt><trkpt lat="43.3448628" lon="11.3137883"><ele>385.0</ele><time>2026-04-02T10:22:50.908Z</time></trkpt><trkpt lat="43.3447345" lon="11.3138945"><ele>385.0</ele><time>2026-04-02T10:22:51.907Z</time></trkpt><trkpt lat="43.3446157" lon="11.3139937"><ele>385.0</ele><time>2026-04-02T10:22:52.908Z</time></trkpt><trkpt lat="43.3445065" lon="11.3140842"><ele>385.0</ele><time>2026-04-02T10:22:53.908Z</time></trkpt><trkpt lat="43.344406" lon="11.314164"><ele>384.2</ele><time>2026-04-02T10:22:54.908Z</time></trkpt><trkpt lat="43.3443137" lon="11.3142354"><ele>383.4</ele><time>2026-04-02T10:22:55.908Z</time></trkpt><trkpt lat="43.344223" lon="11.3143124"><ele>382.6</ele><time>2026-04-02T10:22:56.908Z</time></trkpt><trkpt lat="43.3441319" lon="11.3143918"><ele>381.8</ele><time>2026-04-02T10:22:57.908Z</time></trkpt><trkpt lat="43.3440335" lon="11.3144729"><ele>381.0</ele><time>2026-04-02T10:22:58.908Z</time></trkpt><trkpt lat="43.3439133" lon="11.3145567"><ele>382.33333333333337</ele><time>2026-04-02T10:22:59.908Z</time></trkpt><trkpt lat="43.343781" lon="11.3146431"><ele>383.6666666666667</ele><time>2026-04-02T10:23:00.908Z</time></trkpt><trkpt lat="43.3436392" lon="11.3147409"><ele>385.0</ele><time>2026-04-02T10:23:01.908Z</time></trkpt><trkpt lat="43.3434977" lon="11.3148418"><ele>385.5</ele><time>2026-04-02T10:23:02.908Z</time></trkpt><trkpt lat="43.3433674" lon="11.3149292"><ele>386.0</ele><time>2026-04-02T10:23:03.908Z</time></trkpt><trkpt lat="43.3432482" lon="11.3149941"><ele>386.5</ele><time>2026-04-02T10:23:04.908Z</time></trkpt><trkpt lat="43.3431322" lon="11.3150396"><ele>387.0</ele><time>2026-04-02T10:23:05.907Z</time></trkpt><trkpt lat="43.3430181" lon="11.3150737"><ele>387.0</ele><time>2026-04-02T10:23:06.908Z</time></trkpt><trkpt lat="43.342891" lon="11.3151157"><ele>387.0</ele><time>2026-04-02T10:23:07.908Z</time></trkpt><trkpt lat="43.3427755" lon="11.3151567"><ele>387.0</ele><time>2026-04-02T10:23:08.908Z</time></trkpt><trkpt lat="43.3426564" lon="11.3152015"><ele>387.0</ele><time>2026-04-02T10:23:09.908Z</time></trkpt><trkpt lat="43.3425381" lon="11.3152434"><ele>387.0</ele><time>2026-04-02T10:23:10.908Z</time></trkpt><trkpt lat="43.3424201" lon="11.3152879"><ele>387.0</ele><time>2026-04-02T10:23:11.908Z</time></trkpt><trkpt lat="43.3422916" lon="11.3153345"><ele>387.0</ele><time>2026-04-02T10:23:12.908Z</time></trkpt><trkpt lat="43.3421591" lon="11.315385"><ele>387.0</ele><time>2026-04-02T10:23:13.908Z</time></trkpt><trkpt lat="43.3420288" lon="11.3154351"><ele>384.0</ele><time>2026-04-02T10:23:14.908Z</time></trkpt><trkpt lat="43.3419026" lon="11.3154852"><ele>381.0</ele><time>2026-04-02T10:23:15.908Z</time></trkpt><trkpt lat="43.3417809" lon="11.3155299"><ele>378.0</ele><time>2026-04-02T10:23:16.908Z</time></trkpt><trkpt lat="43.341667" lon="11.3155799"><ele>375.0</ele><time>2026-04-02T10:23:17.908Z</time></trkpt><trkpt lat="43.3415634" lon="11.3156202"><ele>374.8</ele><time>2026-04-02T10:23:18.908Z</time></trkpt><trkpt lat="43.3414613" lon="11.3156615"><ele>374.6</ele><time>2026-04-02T10:23:19.908Z</time></trkpt><trkpt lat="43.3413733" lon="11.3156952"><ele>374.4</ele><time>2026-04-02T10:23:20.908Z</time></trkpt><trkpt lat="43.3412865" lon="11.315731"><ele>374.2</ele><time>2026-04-02T10:23:21.908Z</time></trkpt><trkpt lat="43.341208" lon="11.3157644"><ele>374.0</ele><time>2026-04-02T10:23:22.908Z</time></trkpt><trkpt lat="43.3411091" lon="11.3158057"><ele>372.6666666666667</ele><time>2026-04-02T10:23:24.908Z</time></trkpt><trkpt lat="43.3410184" lon="11.3158575"><ele>371.33333333333337</ele><time>2026-04-02T10:23:26.907Z</time></trkpt><trkpt lat="43.340906" lon="11.3159377"><ele>370.0</ele><time>2026-04-02T10:23:28.908Z</time></trkpt><trkpt lat="43.3408416" lon="11.3159897"><ele>368.6666666666667</ele><time>2026-04-02T10:23:29.908Z</time></trkpt><trkpt lat="43.3407801" lon="11.3160383"><ele>367.3333333333333</ele><time>2026-04-02T10:23:30.908Z</time></trkpt><trkpt lat="43.3407198" lon="11.3160782"><ele>366.0</ele><time>2026-04-02T10:23:31.908Z</time></trkpt><trkpt lat="43.3406541" lon="11.3161109"><ele>366.0</ele><time>2026-04-02T10:23:32.908Z</time></trkpt><trkpt lat="43.3405765" lon="11.3161304"><ele>366.0</ele><time>2026-04-02T10:23:33.908Z</time></trkpt><trkpt lat="43.3404847" lon="11.3161516"><ele>366.0</ele><time>2026-04-02T10:23:34.907Z</time></trkpt><trkpt lat="43.3403681" lon="11.3161882"><ele>366.0</ele><time>2026-04-02T10:23:35.908Z</time></trkpt><trkpt lat="43.3402278" lon="11.3162097"><ele>366.0</ele><time>2026-04-02T10:23:36.908Z</time></trkpt><trkpt lat="43.3400649" lon="11.3162047"><ele>363.0</ele><time>2026-04-02T10:23:37.907Z</time></trkpt><trkpt lat="43.3398848" lon="11.3161977"><ele>360.0</ele><time>2026-04-02T10:23:38.908Z</time></trkpt><trkpt lat="43.3396873" lon="11.3162003"><ele>357.0</ele><time>2026-04-02T10:23:39.908Z</time></trkpt><trkpt lat="43.3394923" lon="11.3162036"><ele>353.6666666666667</ele><time>2026-04-02T10:23:40.908Z</time></trkpt><trkpt lat="43.3393025" lon="11.3162112"><ele>350.33333333333337</ele><time>2026-04-02T10:23:41.908Z</time></trkpt><trkpt lat="43.3391149" lon="11.3162226"><ele>347.0</ele><time>2026-04-02T10:23:42.907Z</time></trkpt><trkpt lat="43.3389317" lon="11.3162364"><ele>344.0</ele><time>2026-04-02T10:23:43.908Z</time></trkpt><trkpt lat="43.3387506" lon="11.3162478"><ele>341.0</ele><time>2026-04-02T10:23:44.908Z</time></trkpt><trkpt lat="43.3385774" lon="11.316259"><ele>338.0</ele><time>2026-04-02T10:23:45.908Z</time></trkpt><trkpt lat="43.3384074" lon="11.3162719"><ele>338.0</ele><time>2026-04-02T10:23:46.908Z</time></trkpt><trkpt lat="43.3382411" lon="11.3162934"><ele>338.0</ele><time>2026-04-02T10:23:47.908Z</time></trkpt><trkpt lat="43.3380709" lon="11.3163203"><ele>338.0</ele><time>2026-04-02T10:23:48.908Z</time></trkpt><trkpt lat="43.3378967" lon="11.316353"><ele>335.33333333333337</ele><time>2026-04-02T10:23:49.908Z</time></trkpt><trkpt lat="43.3377182" lon="11.3163923"><ele>332.6666666666667</ele><time>2026-04-02T10:23:50.908Z</time></trkpt><trkpt lat="43.3375354" lon="11.3164392"><ele>330.0</ele><time>2026-04-02T10:23:51.908Z</time></trkpt><trkpt lat="43.3373527" lon="11.3164989"><ele>326.3333333333333</ele><time>2026-04-02T10:23:52.908Z</time></trkpt><trkpt lat="43.337172" lon="11.3165681"><ele>322.66666666666663</ele><time>2026-04-02T10:23:53.908Z</time></trkpt><trkpt lat="43.3369973" lon="11.3166486"><ele>319.0</ele><time>2026-04-02T10:23:54.908Z</time></trkpt><trkpt lat="43.3368258" lon="11.316739"><ele>319.0</ele><time>2026-04-02T10:23:55.908Z</time></trkpt><trkpt lat="43.3366505" lon="11.3168422"><ele>319.0</ele><time>2026-04-02T10:23:56.908Z</time></trkpt><trkpt lat="43.336476" lon="11.3169541"><ele>319.0</ele><time>2026-04-02T10:23:57.908Z</time></trkpt><trkpt lat="43.3363045" lon="11.3170827"><ele>314.66666666666663</ele><time>2026-04-02T10:23:58.908Z</time></trkpt><trkpt lat="43.3361356" lon="11.3172112"><ele>310.3333333333333</ele><time>2026-04-02T10:23:59.908Z</time></trkpt><trkpt lat="43.3359765" lon="11.3173482"><ele>306.0</ele><time>2026-04-02T10:24:00.908Z</time></trkpt><trkpt lat="43.3358226" lon="11.3174943"><ele>305.6666666666667</ele><time>2026-04-02T10:24:01.908Z</time></trkpt><trkpt lat="43.3356736" lon="11.3176569"><ele>305.33333333333337</ele><time>2026-04-02T10:24:02.908Z</time></trkpt><trkpt lat="43.3355313" lon="11.317825"><ele>305.0</ele><time>2026-04-02T10:24:03.908Z</time></trkpt><trkpt lat="43.3353941" lon="11.3179974"><ele>302.33333333333337</ele><time>2026-04-02T10:24:04.908Z</time></trkpt><trkpt lat="43.3352637" lon="11.318164"><ele>299.6666666666667</ele><time>2026-04-02T10:24:05.908Z</time></trkpt><trkpt lat="43.3351423" lon="11.3183356"><ele>297.0</ele><time>2026-04-02T10:24:06.908Z</time></trkpt><trkpt lat="43.3350278" lon="11.3185016"><ele>297.0</ele><time>2026-04-02T10:24:07.908Z</time></trkpt><trkpt lat="43.3349196" lon="11.3186587"><ele>297.0</ele><time>2026-04-02T10:24:08.908Z</time></trkpt><trkpt lat="43.3348142" lon="11.3188076"><ele>297.0</ele><time>2026-04-02T10:24:09.907Z</time></trkpt><trkpt lat="43.3347199" lon="11.3189331"><ele>297.0</ele><time>2026-04-02T10:24:10.908Z</time></trkpt><trkpt lat="43.3346319" lon="11.3190364"><ele>296.0</ele><time>2026-04-02T10:24:11.908Z</time></trkpt><trkpt lat="43.3345487" lon="11.319111"><ele>295.0</ele><time>2026-04-02T10:24:12.908Z</time></trkpt><trkpt lat="43.3344742" lon="11.3191465"><ele>294.0</ele><time>2026-04-02T10:24:13.908Z</time></trkpt><trkpt lat="43.334378" lon="11.3191569"><ele>293.0</ele><time>2026-04-02T10:24:15.907Z</time></trkpt><trkpt lat="43.3343112" lon="11.3191344"><ele>292.0</ele><time>2026-04-02T10:24:17.908Z</time></trkpt><trkpt lat="43.3342015" lon="11.3190813"><ele>292.0</ele><time>2026-04-02T10:24:19.908Z</time></trkpt><trkpt lat="43.3341394" lon="11.3190627"><ele>292.0</ele><time>2026-04-02T10:24:20.908Z</time></trkpt><trkpt lat="43.334071" lon="11.3190701"><ele>292.0</ele><time>2026-04-02T10:24:21.908Z</time></trkpt><trkpt lat="43.3339988" lon="11.319111"><ele>292.0</ele><time>2026-04-02T10:24:22.908Z</time></trkpt><trkpt lat="43.3339264" lon="11.3192"><ele>292.0</ele><time>2026-04-02T10:24:23.908Z</time></trkpt><trkpt lat="43.3338423" lon="11.3193319"><ele>292.0</ele><time>2026-04-02T10:24:24.908Z</time></trkpt><trkpt lat="43.3337501" lon="11.3194694"><ele>291.25</ele><time>2026-04-02T10:24:25.908Z</time></trkpt><trkpt lat="43.3336542" lon="11.3196106"><ele>290.5</ele><time>2026-04-02T10:24:26.908Z</time></trkpt><trkpt lat="43.3335636" lon="11.3197436"><ele>289.75</ele><time>2026-04-02T10:24:27.907Z</time></trkpt><trkpt lat="43.3334938" lon="11.3198746"><ele>289.0</ele><time>2026-04-02T10:24:28.908Z</time></trkpt><trkpt lat="43.3334497" lon="11.3200211"><ele>288.5</ele><time>2026-04-02T10:24:29.908Z</time></trkpt><trkpt lat="43.3334333" lon="11.3201843"><ele>288.0</ele><time>2026-04-02T10:24:30.908Z</time></trkpt><trkpt lat="43.3334274" lon="11.3203622"><ele>287.5</ele><time>2026-04-02T10:24:31.908Z</time></trkpt><trkpt lat="43.3333835" lon="11.3205519"><ele>287.0</ele><time>2026-04-02T10:24:32.908Z</time></trkpt><trkpt lat="43.333314" lon="11.3207464"><ele>286.6666666666667</ele><time>2026-04-02T10:24:33.908Z</time></trkpt><trkpt lat="43.333235" lon="11.3209582"><ele>286.3333333333333</ele><time>2026-04-02T10:24:34.908Z</time></trkpt><trkpt lat="43.3331564" lon="11.3211881"><ele>286.0</ele><time>2026-04-02T10:24:35.908Z</time></trkpt><trkpt lat="43.3330834" lon="11.3214189"><ele>284.3333333333333</ele><time>2026-04-02T10:24:36.908Z</time></trkpt><trkpt lat="43.3330078" lon="11.3216613"><ele>282.6666666666667</ele><time>2026-04-02T10:24:37.908Z</time></trkpt><trkpt lat="43.3329381" lon="11.3218881"><ele>281.0</ele><time>2026-04-02T10:24:38.908Z</time></trkpt><trkpt lat="43.3328695" lon="11.3221051"><ele>282.25</ele><time>2026-04-02T10:24:39.908Z</time></trkpt><trkpt lat="43.332811" lon="11.3223039"><ele>283.5</ele><time>2026-04-02T10:24:40.908Z</time></trkpt><trkpt lat="43.3327533" lon="11.3224891"><ele>284.75</ele><time>2026-04-02T10:24:41.908Z</time></trkpt><trkpt lat="43.3327056" lon="11.3226484"><ele>286.0</ele><time>2026-04-02T10:24:42.908Z</time></trkpt><trkpt lat="43.332662" lon="11.3227903"><ele>286.0</ele><time>2026-04-02T10:24:43.908Z</time></trkpt><trkpt lat="43.3326216" lon="11.3229256"><ele>286.0</ele><time>2026-04-02T10:24:44.908Z</time></trkpt><trkpt lat="43.3325804" lon="11.3230559"><ele>286.0</ele><time>2026-04-02T10:24:45.908Z</time></trkpt><trkpt lat="43.3325435" lon="11.3231807"><ele>286.0</ele><time>2026-04-02T10:24:46.908Z</time></trkpt><trkpt lat="43.3325083" lon="11.3233061"><ele>286.0</ele><time>2026-04-02T10:24:47.908Z</time></trkpt><trkpt lat="43.3324683" lon="11.3234373"><ele>286.75</ele><time>2026-04-02T10:24:48.908Z</time></trkpt><trkpt lat="43.332424" lon="11.3235837"><ele>287.5</ele><time>2026-04-02T10:24:49.908Z</time></trkpt><trkpt lat="43.3323775" lon="11.3237323"><ele>288.25</ele><time>2026-04-02T10:24:50.908Z</time></trkpt><trkpt lat="43.3323289" lon="11.3238838"><ele>289.0</ele><time>2026-04-02T10:24:51.907Z</time></trkpt><trkpt lat="43.332289" lon="11.3240247"><ele>288.0</ele><time>2026-04-02T10:24:52.908Z</time></trkpt><trkpt lat="43.3322469" lon="11.3241554"><ele>287.0</ele><time>2026-04-02T10:24:53.908Z</time></trkpt><trkpt lat="43.3322095" lon="11.3242848"><ele>286.0</ele><time>2026-04-02T10:24:54.908Z</time></trkpt><trkpt lat="43.3321791" lon="11.3244043"><ele>285.0</ele><time>2026-04-02T10:24:55.908Z</time></trkpt><trkpt lat="43.3321406" lon="11.3245231"><ele>284.0</ele><time>2026-04-02T10:24:56.907Z</time></trkpt><trkpt lat="43.3321052" lon="11.3246376"><ele>284.0</ele><time>2026-04-02T10:24:57.908Z</time></trkpt><trkpt lat="43.3320715" lon="11.3247571"><ele>284.0</ele><time>2026-04-02T10:24:58.908Z</time></trkpt><trkpt lat="43.332035" lon="11.324876"><ele>284.0</ele><time>2026-04-02T10:24:59.908Z</time></trkpt><trkpt lat="43.3319987" lon="11.3249954"><ele>284.0</ele><time>2026-04-02T10:25:00.908Z</time></trkpt><trkpt lat="43.3319619" lon="11.3251137"><ele>284.0</ele><time>2026-04-02T10:25:01.908Z</time></trkpt><trkpt lat="43.3319259" lon="11.3252255"><ele>284.0</ele><time>2026-04-02T10:25:02.907Z</time></trkpt><trkpt lat="43.3318901" lon="11.3253227"><ele>284.0</ele><time>2026-04-02T10:25:03.908Z</time></trkpt><trkpt lat="43.3318588" lon="11.3254108"><ele>284.0</ele><time>2026-04-02T10:25:04.907Z</time></trkpt><trkpt lat="43.3318272" lon="11.3254927"><ele>284.0</ele><time>2026-04-02T10:25:05.908Z</time></trkpt><trkpt lat="43.3317939" lon="11.3255668"><ele>284.0</ele><time>2026-04-02T10:25:06.908Z</time></trkpt><trkpt lat="43.3317251" lon="11.3256917"><ele>284.0</ele><time>2026-04-02T10:25:08.908Z</time></trkpt><trkpt lat="43.3316514" lon="11.325798"><ele>283.8</ele><time>2026-04-02T10:25:10.908Z</time></trkpt><trkpt lat="43.3315644" lon="11.3258879"><ele>283.59999999999997</ele><time>2026-04-02T10:25:12.908Z</time></trkpt><trkpt lat="43.3314707" lon="11.3259701"><ele>283.4</ele><time>2026-04-02T10:25:14.908Z</time></trkpt><trkpt lat="43.3314133" lon="11.3260325"><ele>283.2</ele><time>2026-04-02T10:25:16.908Z</time></trkpt><trkpt lat="43.3313483" lon="11.3261044"><ele>283.0</ele><time>2026-04-02T10:25:19.908Z</time></trkpt><trkpt lat="43.3313348" lon="11.3262093"><ele>282.8571428571429</ele><time>2026-04-02T10:26:17.908Z</time></trkpt><trkpt lat="43.3312992" lon="11.3262819"><ele>282.7142857142857</ele><time>2026-04-02T10:26:19.908Z</time></trkpt><trkpt lat="43.3312261" lon="11.3263383"><ele>282.57142857142856</ele><time>2026-04-02T10:26:21.908Z</time></trkpt><trkpt lat="43.3311563" lon="11.3263595"><ele>282.42857142857144</ele><time>2026-04-02T10:26:23.908Z</time></trkpt><trkpt lat="43.331087" lon="11.3263584"><ele>282.2857142857143</ele><time>2026-04-02T10:26:25.908Z</time></trkpt><trkpt lat="43.3310191" lon="11.3263255"><ele>282.14285714285717</ele><time>2026-04-02T10:26:27.908Z</time></trkpt><trkpt lat="43.3309366" lon="11.3262846"><ele>282.0</ele><time>2026-04-02T10:26:29.908Z</time></trkpt><trkpt lat="43.330857" lon="11.3262312"><ele>282.0</ele><time>2026-04-02T10:26:31.908Z</time></trkpt><trkpt lat="43.3307774" lon="11.3261773"><ele>282.0</ele><time>2026-04-02T10:26:33.908Z</time></trkpt><trkpt lat="43.3307008" lon="11.3261284"><ele>282.0</ele><time>2026-04-02T10:26:35.908Z</time></trkpt><trkpt lat="43.3306226" lon="11.3260769"><ele>282.0</ele><time>2026-04-02T10:26:37.908Z</time></trkpt><trkpt lat="43.3305418" lon="11.3260308"><ele>282.0</ele><time>2026-04-02T10:26:39.908Z</time></trkpt><trkpt lat="43.3304801" lon="11.3259921"><ele>282.0</ele><time>2026-04-02T10:26:41.908Z</time></trkpt><trkpt lat="43.3304219" lon="11.3259502"><ele>284.6</ele><time>2026-04-02T10:26:43.908Z</time></trkpt><trkpt lat="43.330365" lon="11.3259087"><ele>287.2</ele><time>2026-04-02T10:26:45.908Z</time></trkpt><trkpt lat="43.3302997" lon="11.3258202"><ele>289.8</ele><time>2026-04-02T10:26:49.908Z</time></trkpt><trkpt lat="43.3302379" lon="11.3256839"><ele>292.4</ele><time>2026-04-02T10:26:51.908Z</time></trkpt><trkpt lat="43.3301909" lon="11.3256222"><ele>295.0</ele><time>2026-04-02T10:26:52.908Z</time></trkpt><trkpt lat="43.3300862" lon="11.3255634"><ele>295.0</ele><time>2026-04-02T10:26:54.907Z</time></trkpt><trkpt lat="43.3300038" lon="11.3255947"><ele>295.0</ele><time>2026-04-02T10:26:56.908Z</time></trkpt><trkpt lat="43.3299315" lon="11.3257092"><ele>295.0</ele><time>2026-04-02T10:26:58.908Z</time></trkpt><trkpt lat="43.3299262" lon="11.325845"><ele>295.0</ele><time>2026-04-02T10:27:00.908Z</time></trkpt><trkpt lat="43.329989" lon="11.3259905"><ele>295.0</ele><time>2026-04-02T10:27:02.908Z</time></trkpt><trkpt lat="43.3300231" lon="11.3261279"><ele>295.0</ele><time>2026-04-02T10:27:04.908Z</time></trkpt><trkpt lat="43.3299753" lon="11.3263115"><ele>295.0</ele><time>2026-04-02T10:27:06.908Z</time></trkpt><trkpt lat="43.3299316" lon="11.3264341"><ele>295.0</ele><time>2026-04-02T10:27:07.908Z</time></trkpt><trkpt lat="43.3298841" lon="11.3265553"><ele>295.0</ele><time>2026-04-02T10:27:08.908Z</time></trkpt><trkpt lat="43.3298329" lon="11.3266833"><ele>295.0</ele><time>2026-04-02T10:27:09.907Z</time></trkpt><trkpt lat="43.3297714" lon="11.3268197"><ele>294.75</ele><time>2026-04-02T10:27:10.907Z</time></trkpt><trkpt lat="43.3297066" lon="11.3269549"><ele>294.5</ele><time>2026-04-02T10:27:11.908Z</time></trkpt><trkpt lat="43.3296372" lon="11.3270895"><ele>294.25</ele><time>2026-04-02T10:27:12.908Z</time></trkpt><trkpt lat="43.3295593" lon="11.3272317"><ele>294.0</ele><time>2026-04-02T10:27:13.908Z</time></trkpt><trkpt lat="43.3294717" lon="11.3273692"><ele>294.0</ele><time>2026-04-02T10:27:14.908Z</time></trkpt><trkpt lat="43.3293753" lon="11.3275102"><ele>294.0</ele><time>2026-04-02T10:27:15.908Z</time></trkpt><trkpt lat="43.3292765" lon="11.3276529"><ele>294.0</ele><time>2026-04-02T10:27:16.908Z</time></trkpt><trkpt lat="43.3291722" lon="11.3278022"><ele>294.0</ele><time>2026-04-02T10:27:17.908Z</time></trkpt><trkpt lat="43.3290668" lon="11.3279572"><ele>295.6666666666667</ele><time>2026-04-02T10:27:18.908Z</time></trkpt><trkpt lat="43.3289666" lon="11.3281105"><ele>297.33333333333337</ele><time>2026-04-02T10:27:19.908Z</time></trkpt><trkpt lat="43.3288671" lon="11.3282642"><ele>299.0</ele><time>2026-04-02T10:27:20.908Z</time></trkpt><trkpt lat="43.3287689" lon="11.32842"><ele>299.0</ele><time>2026-04-02T10:27:21.908Z</time></trkpt><trkpt lat="43.3286765" lon="11.3285714"><ele>299.0</ele><time>2026-04-02T10:27:22.908Z</time></trkpt><trkpt lat="43.3285872" lon="11.3287188"><ele>299.0</ele><time>2026-04-02T10:27:23.908Z</time></trkpt><trkpt lat="43.3285027" lon="11.3288677"><ele>299.0</ele><time>2026-04-02T10:27:24.908Z</time></trkpt><trkpt lat="43.3284192" lon="11.3290201"><ele>296.25</ele><time>2026-04-02T10:27:25.908Z</time></trkpt><trkpt lat="43.3283383" lon="11.3291784"><ele>293.5</ele><time>2026-04-02T10:27:26.908Z</time></trkpt><trkpt lat="43.3282626" lon="11.329332"><ele>290.75</ele><time>2026-04-02T10:27:27.908Z</time></trkpt><trkpt lat="43.3281918" lon="11.3294791"><ele>288.0</ele><time>2026-04-02T10:27:28.908Z</time></trkpt><trkpt lat="43.3281282" lon="11.3296185"><ele>291.0</ele><time>2026-04-02T10:27:29.908Z</time></trkpt><trkpt lat="43.3280595" lon="11.3297666"><ele>294.0</ele><time>2026-04-02T10:27:30.908Z</time></trkpt><trkpt lat="43.3280001" lon="11.3298994"><ele>297.0</ele><time>2026-04-02T10:27:31.908Z</time></trkpt><trkpt lat="43.3279419" lon="11.3300292"><ele>300.0</ele><time>2026-04-02T10:27:32.908Z</time></trkpt><trkpt lat="43.3278836" lon="11.3301545"><ele>300.0</ele><time>2026-04-02T10:27:33.908Z</time></trkpt><trkpt lat="43.3278245" lon="11.3302768"><ele>300.0</ele><time>2026-04-02T10:27:34.907Z</time></trkpt><trkpt lat="43.3277663" lon="11.3304045"><ele>300.0</ele><time>2026-04-02T10:27:35.908Z</time></trkpt><trkpt lat="43.3277137" lon="11.33053"><ele>300.0</ele><time>2026-04-02T10:27:36.908Z</time></trkpt><trkpt lat="43.327661" lon="11.3306583"><ele>300.0</ele><time>2026-04-02T10:27:37.908Z</time></trkpt><trkpt lat="43.3276115" lon="11.3307858"><ele>298.0</ele><time>2026-04-02T10:27:38.908Z</time></trkpt><trkpt lat="43.3275712" lon="11.3309129"><ele>296.0</ele><time>2026-04-02T10:27:39.908Z</time></trkpt><trkpt lat="43.3275258" lon="11.3310311"><ele>294.0</ele><time>2026-04-02T10:27:40.908Z</time></trkpt><trkpt lat="43.3274872" lon="11.3311462"><ele>292.0</ele><time>2026-04-02T10:27:41.908Z</time></trkpt><trkpt lat="43.3274534" lon="11.3312613"><ele>290.0</ele><time>2026-04-02T10:27:42.908Z</time></trkpt><trkpt lat="43.3274178" lon="11.3313772"><ele>289.5</ele><time>2026-04-02T10:27:43.908Z</time></trkpt><trkpt lat="43.32739" lon="11.3314849"><ele>289.0</ele><time>2026-04-02T10:27:44.908Z</time></trkpt><trkpt lat="43.3273715" lon="11.3315868"><ele>288.5</ele><time>2026-04-02T10:27:45.908Z</time></trkpt><trkpt lat="43.3273584" lon="11.3316781"><ele>288.0</ele><time>2026-04-02T10:27:46.908Z</time></trkpt><trkpt lat="43.3273244" lon="11.3318518"><ele>287.5</ele><time>2026-04-02T10:27:48.908Z</time></trkpt><trkpt lat="43.3273022" lon="11.331949"><ele>287.0</ele><time>2026-04-02T10:27:49.908Z</time></trkpt><trkpt lat="43.3272827" lon="11.3320538"><ele>287.0</ele><time>2026-04-02T10:27:50.908Z</time></trkpt><trkpt lat="43.327286" lon="11.3321576"><ele>287.0</ele><time>2026-04-02T10:27:51.908Z</time></trkpt><trkpt lat="43.3273203" lon="11.3322538"><ele>287.0</ele><time>2026-04-02T10:27:52.908Z</time></trkpt><trkpt lat="43.3273801" lon="11.3323368"><ele>287.0</ele><time>2026-04-02T10:27:53.908Z</time></trkpt><trkpt lat="43.3274485" lon="11.3324125"><ele>287.0</ele><time>2026-04-02T10:27:54.908Z</time></trkpt><trkpt lat="43.3275168" lon="11.3325145"><ele>287.0</ele><time>2026-04-02T10:27:55.908Z</time></trkpt><trkpt lat="43.3275802" lon="11.332639"><ele>286.25</ele><time>2026-04-02T10:27:56.908Z</time></trkpt><trkpt lat="43.3276383" lon="11.3327711"><ele>285.5</ele><time>2026-04-02T10:27:57.908Z</time></trkpt><trkpt lat="43.3276934" lon="11.332911"><ele>284.75</ele><time>2026-04-02T10:27:58.907Z</time></trkpt><trkpt lat="43.3277482" lon="11.3330543"><ele>284.0</ele><time>2026-04-02T10:27:59.907Z</time></trkpt><trkpt lat="43.3277982" lon="11.3331986"><ele>282.75</ele><time>2026-04-02T10:28:00.908Z</time></trkpt><trkpt lat="43.3278431" lon="11.3333503"><ele>281.5</ele><time>2026-04-02T10:28:01.908Z</time></trkpt><trkpt lat="43.3278822" lon="11.3334979"><ele>280.25</ele><time>2026-04-02T10:28:02.908Z</time></trkpt><trkpt lat="43.3279157" lon="11.3336439"><ele>279.0</ele><time>2026-04-02T10:28:03.908Z</time></trkpt><trkpt lat="43.3279447" lon="11.3337873"><ele>277.25</ele><time>2026-04-02T10:28:04.908Z</time></trkpt><trkpt lat="43.327967" lon="11.3339399"><ele>275.5</ele><time>2026-04-02T10:28:05.908Z</time></trkpt><trkpt lat="43.3279858" lon="11.3341047"><ele>273.75</ele><time>2026-04-02T10:28:06.908Z</time></trkpt><trkpt lat="43.3280007" lon="11.3342691"><ele>272.0</ele><time>2026-04-02T10:28:07.908Z</time></trkpt><trkpt lat="43.3280125" lon="11.3344299"><ele>272.0</ele><time>2026-04-02T10:28:08.908Z</time></trkpt><trkpt lat="43.3280214" lon="11.3345881"><ele>272.0</ele><time>2026-04-02T10:28:09.908Z</time></trkpt><trkpt lat="43.328025" lon="11.3347396"><ele>272.0</ele><time>2026-04-02T10:28:10.908Z</time></trkpt><trkpt lat="43.3280293" lon="11.3348769"><ele>272.0</ele><time>2026-04-02T10:28:11.908Z</time></trkpt><trkpt lat="43.3280389" lon="11.3350042"><ele>272.0</ele><time>2026-04-02T10:28:12.908Z</time></trkpt><trkpt lat="43.328048" lon="11.3351277"><ele>271.33333333333337</ele><time>2026-04-02T10:28:13.908Z</time></trkpt><trkpt lat="43.3280518" lon="11.3352353"><ele>270.6666666666667</ele><time>2026-04-02T10:28:14.908Z</time></trkpt><trkpt lat="43.3280557" lon="11.3353391"><ele>270.0</ele><time>2026-04-02T10:28:15.907Z</time></trkpt><trkpt lat="43.3280588" lon="11.3354526"><ele>269.3333333333333</ele><time>2026-04-02T10:28:16.908Z</time></trkpt><trkpt lat="43.3280642" lon="11.3355747"><ele>268.66666666666663</ele><time>2026-04-02T10:28:17.908Z</time></trkpt><trkpt lat="43.3280667" lon="11.3357132"><ele>268.0</ele><time>2026-04-02T10:28:18.908Z</time></trkpt><trkpt lat="43.3280655" lon="11.3358598"><ele>267.6</ele><time>2026-04-02T10:28:19.908Z</time></trkpt><trkpt lat="43.3280618" lon="11.3360111"><ele>267.20000000000005</ele><time>2026-04-02T10:28:20.908Z</time></trkpt><trkpt lat="43.3280503" lon="11.3361628"><ele>266.8</ele><time>2026-04-02T10:28:21.908Z</time></trkpt><trkpt lat="43.3280386" lon="11.3363105"><ele>266.40000000000003</ele><time>2026-04-02T10:28:22.908Z</time></trkpt><trkpt lat="43.3280253" lon="11.3364632"><ele>266.0</ele><time>2026-04-02T10:28:23.908Z</time></trkpt><trkpt lat="43.3280108" lon="11.3366178"><ele>265.5</ele><time>2026-04-02T10:28:24.908Z</time></trkpt><trkpt lat="43.3279679" lon="11.3369074"><ele>265.0</ele><time>2026-04-02T10:28:26.908Z</time></trkpt><trkpt lat="43.3279416" lon="11.3370418"><ele>264.5</ele><time>2026-04-02T10:28:27.908Z</time></trkpt><trkpt lat="43.3279125" lon="11.3371702"><ele>264.0</ele><time>2026-04-02T10:28:28.908Z</time></trkpt><trkpt lat="43.3278843" lon="11.3372937"><ele>263.8333333333333</ele><time>2026-04-02T10:28:29.908Z</time></trkpt><trkpt lat="43.3278592" lon="11.3374011"><ele>263.6666666666667</ele><time>2026-04-02T10:28:30.906Z</time></trkpt><trkpt lat="43.3278299" lon="11.3375054"><ele>263.5</ele><time>2026-04-02T10:28:31.908Z</time></trkpt><trkpt lat="43.3277929" lon="11.3376005"><ele>263.33333333333337</ele><time>2026-04-02T10:28:32.908Z</time></trkpt><trkpt lat="43.3277438" lon="11.3376755"><ele>263.1666666666667</ele><time>2026-04-02T10:28:33.908Z</time></trkpt><trkpt lat="43.3276733" lon="11.3377308"><ele>263.0</ele><time>2026-04-02T10:28:34.908Z</time></trkpt><trkpt lat="43.3276049" lon="11.3378026"><ele>263.0</ele><time>2026-04-02T10:28:35.908Z</time></trkpt><trkpt lat="43.3275553" lon="11.3378978"><ele>263.0</ele><time>2026-04-02T10:28:36.908Z</time></trkpt><trkpt lat="43.3275361" lon="11.3380115"><ele>263.0</ele><time>2026-04-02T10:28:37.908Z</time></trkpt><trkpt lat="43.3275393" lon="11.3381439"><ele>263.0</ele><time>2026-04-02T10:28:38.908Z</time></trkpt><trkpt lat="43.3275553" lon="11.3382795"><ele>263.0</ele><time>2026-04-02T10:28:39.908Z</time></trkpt><trkpt lat="43.3275554" lon="11.3384276"><ele>262.8</ele><time>2026-04-02T10:28:40.908Z</time></trkpt><trkpt lat="43.3275282" lon="11.3385649"><ele>262.6</ele><time>2026-04-02T10:28:41.908Z</time></trkpt><trkpt lat="43.3274827" lon="11.3386931"><ele>262.4</ele><time>2026-04-02T10:28:42.908Z</time></trkpt><trkpt lat="43.3274298" lon="11.3388131"><ele>262.2</ele><time>2026-04-02T10:28:43.907Z</time></trkpt><trkpt lat="43.3273702" lon="11.338932"><ele>262.0</ele><time>2026-04-02T10:28:44.908Z</time></trkpt><trkpt lat="43.3273097" lon="11.3390555"><ele>261.75</ele><time>2026-04-02T10:28:45.908Z</time></trkpt><trkpt lat="43.3272484" lon="11.33918"><ele>261.5</ele><time>2026-04-02T10:28:46.908Z</time></trkpt><trkpt lat="43.3271817" lon="11.3393272"><ele>261.25</ele><time>2026-04-02T10:28:47.907Z</time></trkpt><trkpt lat="43.3271194" lon="11.3394722"><ele>261.0</ele><time>2026-04-02T10:28:48.907Z</time></trkpt><trkpt lat="43.3270681" lon="11.3396137"><ele>260.6666666666667</ele><time>2026-04-02T10:28:49.908Z</time></trkpt><trkpt lat="43.3270287" lon="11.3397456"><ele>260.3333333333333</ele><time>2026-04-02T10:28:50.908Z</time></trkpt><trkpt lat="43.327003" lon="11.3398687"><ele>260.0</ele><time>2026-04-02T10:28:51.908Z</time></trkpt><trkpt lat="43.3269783" lon="11.3399771"><ele>259.66666666666663</ele><time>2026-04-02T10:28:52.908Z</time></trkpt><trkpt lat="43.3269516" lon="11.3400753"><ele>259.3333333333333</ele><time>2026-04-02T10:28:53.907Z</time></trkpt><trkpt lat="43.3269084" lon="11.3401725"><ele>259.0</ele><time>2026-04-02T10:28:54.908Z</time></trkpt><trkpt lat="43.3268482" lon="11.3402555"><ele>259.0</ele><time>2026-04-02T10:28:55.908Z</time></trkpt><trkpt lat="43.3267903" lon="11.3403423"><ele>259.0</ele><time>2026-04-02T10:28:56.908Z</time></trkpt><trkpt lat="43.3267515" lon="11.340439"><ele>259.0</ele><time>2026-04-02T10:28:57.908Z</time></trkpt><trkpt lat="43.3267398" lon="11.3405443"><ele>259.0</ele><time>2026-04-02T10:28:58.908Z</time></trkpt><trkpt lat="43.3267559" lon="11.3406465"><ele>259.0</ele><time>2026-04-02T10:28:59.908Z</time></trkpt><trkpt lat="43.3267904" lon="11.3407463"><ele>259.0</ele><time>2026-04-02T10:29:00.907Z</time></trkpt><trkpt lat="43.3268327" lon="11.3408443"><ele>258.66666666666663</ele><time>2026-04-02T10:29:01.908Z</time></trkpt><trkpt lat="43.3268565" lon="11.3409407"><ele>258.3333333333333</ele><time>2026-04-02T10:29:02.908Z</time></trkpt><trkpt lat="43.3268558" lon="11.341031"><ele>258.0</ele><time>2026-04-02T10:29:03.907Z</time></trkpt><trkpt lat="43.3268303" lon="11.3411284"><ele>257.6666666666667</ele><time>2026-04-02T10:29:04.908Z</time></trkpt><trkpt lat="43.326783" lon="11.3412214"><ele>257.33333333333337</ele><time>2026-04-02T10:29:05.908Z</time></trkpt><trkpt lat="43.3267213" lon="11.3413071"><ele>257.0</ele><time>2026-04-02T10:29:06.908Z</time></trkpt><trkpt lat="43.3266577" lon="11.3413907"><ele>256.6</ele><time>2026-04-02T10:29:07.908Z</time></trkpt><trkpt lat="43.3265848" lon="11.3414877"><ele>256.2</ele><time>2026-04-02T10:29:08.908Z</time></trkpt><trkpt lat="43.3265113" lon="11.3415847"><ele>255.8</ele><time>2026-04-02T10:29:09.907Z</time></trkpt><trkpt lat="43.3264414" lon="11.3416833"><ele>255.4</ele><time>2026-04-02T10:29:10.908Z</time></trkpt><trkpt lat="43.326372" lon="11.3417729"><ele>255.0</ele><time>2026-04-02T10:29:11.908Z</time></trkpt><trkpt lat="43.3263022" lon="11.3418654"><ele>255.0</ele><time>2026-04-02T10:29:12.907Z</time></trkpt><trkpt lat="43.3262274" lon="11.3419533"><ele>255.0</ele><time>2026-04-02T10:29:13.908Z</time></trkpt><trkpt lat="43.3261572" lon="11.3420476"><ele>255.0</ele><time>2026-04-02T10:29:14.908Z</time></trkpt><trkpt lat="43.3260811" lon="11.3421452"><ele>255.0</ele><time>2026-04-02T10:29:15.908Z</time></trkpt><trkpt lat="43.3260078" lon="11.3422437"><ele>255.0</ele><time>2026-04-02T10:29:16.908Z</time></trkpt><trkpt lat="43.3259292" lon="11.3423474"><ele>255.5</ele><time>2026-04-02T10:29:17.908Z</time></trkpt><trkpt lat="43.3258463" lon="11.3424548"><ele>256.0</ele><time>2026-04-02T10:29:18.908Z</time></trkpt><trkpt lat="43.3257603" lon="11.3425621"><ele>256.5</ele><time>2026-04-02T10:29:19.908Z</time></trkpt><trkpt lat="43.3256719" lon="11.3426785"><ele>257.0</ele><time>2026-04-02T10:29:20.908Z</time></trkpt><trkpt lat="43.3255777" lon="11.342797"><ele>256.5</ele><time>2026-04-02T10:29:21.908Z</time></trkpt><trkpt lat="43.3254838" lon="11.3429188"><ele>256.0</ele><time>2026-04-02T10:29:22.908Z</time></trkpt><trkpt lat="43.3253864" lon="11.343047"><ele>255.5</ele><time>2026-04-02T10:29:23.908Z</time></trkpt><trkpt lat="43.3252842" lon="11.3431791"><ele>255.0</ele><time>2026-04-02T10:29:24.908Z</time></trkpt><trkpt lat="43.3251795" lon="11.3433128"><ele>255.0</ele><time>2026-04-02T10:29:25.908Z</time></trkpt><trkpt lat="43.3250789" lon="11.343445"><ele>255.0</ele><time>2026-04-02T10:29:26.908Z</time></trkpt><trkpt lat="43.3249852" lon="11.34357"><ele>255.0</ele><time>2026-04-02T10:29:27.908Z</time></trkpt><trkpt lat="43.3248925" lon="11.343696"><ele>255.0</ele><time>2026-04-02T10:29:28.908Z</time></trkpt><trkpt lat="43.3248" lon="11.3438144"><ele>254.5</ele><time>2026-04-02T10:29:29.908Z</time></trkpt><trkpt lat="43.3247171" lon="11.3439241"><ele>254.0</ele><time>2026-04-02T10:29:30.908Z</time></trkpt><trkpt lat="43.324631" lon="11.3440314"><ele>253.5</ele><time>2026-04-02T10:29:31.908Z</time></trkpt><trkpt lat="43.324546" lon="11.34414"><ele>253.0</ele><time>2026-04-02T10:29:32.908Z</time></trkpt><trkpt lat="43.3244687" lon="11.3442392"><ele>252.99999999999997</ele><time>2026-04-02T10:29:33.908Z</time></trkpt><trkpt lat="43.3244001" lon="11.3443272"><ele>253.0</ele><time>2026-04-02T10:29:34.908Z</time></trkpt><trkpt lat="43.3243407" lon="11.3444043"><ele>253.0</ele><time>2026-04-02T10:29:35.908Z</time></trkpt><trkpt lat="43.3242921" lon="11.3444648"><ele>253.0</ele><time>2026-04-02T10:29:36.908Z</time></trkpt><trkpt lat="43.3242233" lon="11.3445575"><ele>252.99999999999997</ele><time>2026-04-02T10:29:38.908Z</time></trkpt><trkpt lat="43.3241791" lon="11.3446265"><ele>253.0</ele><time>2026-04-02T10:29:41.908Z</time></trkpt><trkpt lat="43.3241174" lon="11.3447377"><ele>253.33333333333331</ele><time>2026-04-02T10:29:44.908Z</time></trkpt><trkpt lat="43.3240444" lon="11.3448511"><ele>253.66666666666666</ele><time>2026-04-02T10:29:46.908Z</time></trkpt><trkpt lat="43.323999" lon="11.344936"><ele>254.0</ele><time>2026-04-02T10:29:47.908Z</time></trkpt><trkpt lat="43.3239559" lon="11.3450256"><ele>254.33333333333331</ele><time>2026-04-02T10:29:48.908Z</time></trkpt><trkpt lat="43.3239079" lon="11.3451208"><ele>254.66666666666666</ele><time>2026-04-02T10:29:49.908Z</time></trkpt><trkpt lat="43.3238543" lon="11.3452272"><ele>255.0</ele><time>2026-04-02T10:29:50.908Z</time></trkpt><trkpt lat="43.3238016" lon="11.345339"><ele>254.0</ele><time>2026-04-02T10:29:51.908Z</time></trkpt><trkpt lat="43.3237439" lon="11.3454536"><ele>253.0</ele><time>2026-04-02T10:29:52.908Z</time></trkpt><trkpt lat="43.3236873" lon="11.3455649"><ele>252.0</ele><time>2026-04-02T10:29:53.908Z</time></trkpt><trkpt lat="43.3236338" lon="11.3456737"><ele>251.0</ele><time>2026-04-02T10:29:54.908Z</time></trkpt><trkpt lat="43.3235741" lon="11.3457929"><ele>250.0</ele><time>2026-04-02T10:29:55.908Z</time></trkpt><trkpt lat="43.3235133" lon="11.3459169"><ele>249.75</ele><time>2026-04-02T10:29:56.908Z</time></trkpt><trkpt lat="43.3234517" lon="11.3460453"><ele>249.5</ele><time>2026-04-02T10:29:57.907Z</time></trkpt><trkpt lat="43.3233899" lon="11.3461741"><ele>249.25</ele><time>2026-04-02T10:29:58.908Z</time></trkpt><trkpt lat="43.3233217" lon="11.3463096"><ele>249.0</ele><time>2026-04-02T10:29:59.908Z</time></trkpt><trkpt lat="43.3232548" lon="11.3464512"><ele>249.75</ele><time>2026-04-02T10:30:00.908Z</time></trkpt><trkpt lat="43.3231847" lon="11.3465993"><ele>250.5</ele><time>2026-04-02T10:30:01.908Z</time></trkpt><trkpt lat="43.3231207" lon="11.3467371"><ele>251.25</ele><time>2026-04-02T10:30:02.908Z</time></trkpt><trkpt lat="43.323065" lon="11.3468586"><ele>252.0</ele><time>2026-04-02T10:30:03.908Z</time></trkpt><trkpt lat="43.3230078" lon="11.3469738"><ele>250.39999999999998</ele><time>2026-04-02T10:30:04.908Z</time></trkpt><trkpt lat="43.3229547" lon="11.3470799"><ele>248.79999999999998</ele><time>2026-04-02T10:30:05.908Z</time></trkpt><trkpt lat="43.3228968" lon="11.347188"><ele>247.2</ele><time>2026-04-02T10:30:06.908Z</time></trkpt><trkpt lat="43.3228299" lon="11.3473115"><ele>245.6</ele><time>2026-04-02T10:30:07.908Z</time></trkpt><trkpt lat="43.3227615" lon="11.3474359"><ele>244.0</ele><time>2026-04-02T10:30:08.908Z</time></trkpt><trkpt lat="43.3226926" lon="11.3475537"><ele>243.79999999999998</ele><time>2026-04-02T10:30:09.908Z</time></trkpt><trkpt lat="43.3226226" lon="11.3476743"><ele>243.59999999999997</ele><time>2026-04-02T10:30:10.908Z</time></trkpt><trkpt lat="43.322555" lon="11.3477929"><ele>243.4</ele><time>2026-04-02T10:30:11.908Z</time></trkpt><trkpt lat="43.3224842" lon="11.3479131"><ele>243.2</ele><time>2026-04-02T10:30:12.908Z</time></trkpt><trkpt lat="43.3224104" lon="11.3480342"><ele>243.0</ele><time>2026-04-02T10:30:13.908Z</time></trkpt><trkpt lat="43.3223392" lon="11.3481556"><ele>242.5</ele><time>2026-04-02T10:30:14.907Z</time></trkpt><trkpt lat="43.3222639" lon="11.3482805"><ele>242.0</ele><time>2026-04-02T10:30:15.908Z</time></trkpt><trkpt lat="43.3221879" lon="11.3484102"><ele>241.5</ele><time>2026-04-02T10:30:16.908Z</time></trkpt><trkpt lat="43.3221076" lon="11.3485458"><ele>241.0</ele><time>2026-04-02T10:30:17.907Z</time></trkpt><trkpt lat="43.3220263" lon="11.3486765"><ele>241.0</ele><time>2026-04-02T10:30:18.908Z</time></trkpt><trkpt lat="43.3219495" lon="11.3488036"><ele>241.0</ele><time>2026-04-02T10:30:19.908Z</time></trkpt><trkpt lat="43.3218771" lon="11.3489249"><ele>241.0</ele><time>2026-04-02T10:30:20.908Z</time></trkpt><trkpt lat="43.3218068" lon="11.3490401"><ele>241.0</ele><time>2026-04-02T10:30:21.907Z</time></trkpt><trkpt lat="43.3217394" lon="11.349162"><ele>241.20000000000002</ele><time>2026-04-02T10:30:22.908Z</time></trkpt><trkpt lat="43.3216778" lon="11.3492712"><ele>241.40000000000003</ele><time>2026-04-02T10:30:23.908Z</time></trkpt><trkpt lat="43.3216179" lon="11.3493739"><ele>241.6</ele><time>2026-04-02T10:30:24.908Z</time></trkpt><trkpt lat="43.3215615" lon="11.3494708"><ele>241.8</ele><time>2026-04-02T10:30:25.908Z</time></trkpt><trkpt lat="43.3215088" lon="11.3495651"><ele>242.0</ele><time>2026-04-02T10:30:26.908Z</time></trkpt><trkpt lat="43.3214505" lon="11.3496545"><ele>241.50000000000003</ele><time>2026-04-02T10:30:27.908Z</time></trkpt><trkpt lat="43.3213932" lon="11.3497373"><ele>241.0</ele><time>2026-04-02T10:30:28.908Z</time></trkpt><trkpt lat="43.3213373" lon="11.34978"><ele>240.5</ele><time>2026-04-02T10:30:29.908Z</time></trkpt><trkpt lat="43.3212648" lon="11.3498108"><ele>240.0</ele><time>2026-04-02T10:30:32.908Z</time></trkpt><trkpt lat="43.3211674" lon="11.3498347"><ele>239.50000000000003</ele><time>2026-04-02T10:30:34.908Z</time></trkpt><trkpt lat="43.3211032" lon="11.3498543"><ele>239.0</ele><time>2026-04-02T10:30:35.908Z</time></trkpt><trkpt lat="43.3210347" lon="11.3498972"><ele>239.00000000000003</ele><time>2026-04-02T10:30:36.908Z</time></trkpt><trkpt lat="43.3209799" lon="11.3499753"><ele>239.0</ele><time>2026-04-02T10:30:37.908Z</time></trkpt><trkpt lat="43.3209405" lon="11.3500705"><ele>239.0</ele><time>2026-04-02T10:30:38.908Z</time></trkpt><trkpt lat="43.3209065" lon="11.3501762"><ele>239.0</ele><time>2026-04-02T10:30:39.908Z</time></trkpt><trkpt lat="43.3208555" lon="11.3502646"><ele>239.00000000000003</ele><time>2026-04-02T10:30:40.908Z</time></trkpt><trkpt lat="43.3207977" lon="11.350332"><ele>239.0</ele><time>2026-04-02T10:30:41.908Z</time></trkpt><trkpt lat="43.3207326" lon="11.3503851"><ele>239.00000000000003</ele><time>2026-04-02T10:30:42.908Z</time></trkpt><trkpt lat="43.3206572" lon="11.3504248"><ele>239.0</ele><time>2026-04-02T10:30:43.908Z</time></trkpt><trkpt lat="43.3205791" lon="11.350459"><ele>239.0</ele><time>2026-04-02T10:30:44.908Z</time></trkpt><trkpt lat="43.3204997" lon="11.3504901"><ele>239.0</ele><time>2026-04-02T10:30:45.908Z</time></trkpt><trkpt lat="43.3204168" lon="11.3505203"><ele>239.00000000000003</ele><time>2026-04-02T10:30:46.908Z</time></trkpt><trkpt lat="43.3203369" lon="11.35055"><ele>239.0</ele><time>2026-04-02T10:30:47.908Z</time></trkpt><trkpt lat="43.3202545" lon="11.3505799"><ele>239.79999999999998</ele><time>2026-04-02T10:30:48.908Z</time></trkpt><trkpt lat="43.3201683" lon="11.350608"><ele>240.59999999999997</ele><time>2026-04-02T10:30:49.908Z</time></trkpt><trkpt lat="43.3200768" lon="11.3506459"><ele>241.4</ele><time>2026-04-02T10:30:50.908Z</time></trkpt><trkpt lat="43.3199785" lon="11.3506859"><ele>242.2</ele><time>2026-04-02T10:30:51.908Z</time></trkpt><trkpt lat="43.3198812" lon="11.3507193"><ele>243.0</ele><time>2026-04-02T10:30:52.908Z</time></trkpt><trkpt lat="43.3197785" lon="11.3507629"><ele>242.0</ele><time>2026-04-02T10:30:53.908Z</time></trkpt><trkpt lat="43.3196759" lon="11.3508168"><ele>241.0</ele><time>2026-04-02T10:30:54.908Z</time></trkpt><trkpt lat="43.3195695" lon="11.3508862"><ele>240.0</ele><time>2026-04-02T10:30:55.908Z</time></trkpt><trkpt lat="43.3194788" lon="11.3509603"><ele>239.0</ele><time>2026-04-02T10:30:56.908Z</time></trkpt><trkpt lat="43.3193988" lon="11.3510363"><ele>238.0</ele><time>2026-04-02T10:30:57.908Z</time></trkpt><trkpt lat="43.319328" lon="11.3511132"><ele>238.0</ele><time>2026-04-02T10:30:58.908Z</time></trkpt><trkpt lat="43.3192673" lon="11.3511885"><ele>238.0</ele><time>2026-04-02T10:30:59.908Z</time></trkpt><trkpt lat="43.3192134" lon="11.3512628"><ele>238.0</ele><time>2026-04-02T10:31:00.908Z</time></trkpt><trkpt lat="43.3191642" lon="11.3513351"><ele>238.0</ele><time>2026-04-02T10:31:01.908Z</time></trkpt><trkpt lat="43.3191231" lon="11.3514031"><ele>238.0</ele><time>2026-04-02T10:31:02.908Z</time></trkpt><trkpt lat="43.3190821" lon="11.3514742"><ele>238.0</ele><time>2026-04-02T10:31:03.908Z</time></trkpt><trkpt lat="43.3190388" lon="11.3515438"><ele>238.0</ele><time>2026-04-02T10:31:04.908Z</time></trkpt><trkpt lat="43.3189537" lon="11.3516735"><ele>238.49999999999997</ele><time>2026-04-02T10:31:06.908Z</time></trkpt><trkpt lat="43.3189106" lon="11.3517415"><ele>239.0</ele><time>2026-04-02T10:31:07.908Z</time></trkpt><trkpt lat="43.3188683" lon="11.3518124"><ele>239.5</ele><time>2026-04-02T10:31:08.908Z</time></trkpt><trkpt lat="43.3188244" lon="11.3518814"><ele>240.0</ele><time>2026-04-02T10:31:09.907Z</time></trkpt><trkpt lat="43.3187522" lon="11.3519824"><ele>240.49999999999997</ele><time>2026-04-02T10:31:11.908Z</time></trkpt><trkpt lat="43.3186891" lon="11.3520507"><ele>241.0</ele><time>2026-04-02T10:31:20.907Z</time></trkpt><trkpt lat="43.3186409" lon="11.3521273"><ele>239.99999999999997</ele><time>2026-04-02T10:31:22.908Z</time></trkpt><trkpt lat="43.3185831" lon="11.3522175"><ele>239.0</ele><time>2026-04-02T10:31:24.908Z</time></trkpt><trkpt lat="43.3185325" lon="11.3522858"><ele>238.0</ele><time>2026-04-02T10:31:26.908Z</time></trkpt><trkpt lat="43.3184779" lon="11.3523384"><ele>237.0</ele><time>2026-04-02T10:31:28.908Z</time></trkpt><trkpt lat="43.3184218" lon="11.3524009"><ele>235.99999999999997</ele><time>2026-04-02T10:31:30.907Z</time></trkpt><trkpt lat="43.3183645" lon="11.3524984"><ele>235.0</ele><time>2026-04-02T10:31:32.908Z</time></trkpt><trkpt lat="43.3183098" lon="11.3525931"><ele>234.99999999999997</ele><time>2026-04-02T10:31:34.908Z</time></trkpt><trkpt lat="43.318228" lon="11.3527161"><ele>235.0</ele><time>2026-04-02T10:31:36.908Z</time></trkpt><trkpt lat="43.3181761" lon="11.3527945"><ele>235.0</ele><time>2026-04-02T10:31:37.908Z</time></trkpt><trkpt lat="43.3181306" lon="11.3528707"><ele>235.0</ele><time>2026-04-02T10:31:38.908Z</time></trkpt><trkpt lat="43.3180867" lon="11.3529393"><ele>234.99999999999997</ele><time>2026-04-02T10:31:39.907Z</time></trkpt><trkpt lat="43.318043" lon="11.3530038"><ele>235.0</ele><time>2026-04-02T10:31:40.908Z</time></trkpt><trkpt lat="43.3179987" lon="11.3530659"><ele>234.49999999999997</ele><time>2026-04-02T10:31:41.908Z</time></trkpt><trkpt lat="43.3179382" lon="11.3531657"><ele>234.0</ele><time>2026-04-02T10:31:43.908Z</time></trkpt><trkpt lat="43.3178907" lon="11.3532448"><ele>233.5</ele><time>2026-04-02T10:31:45.908Z</time></trkpt><trkpt lat="43.3178445" lon="11.3533145"><ele>233.0</ele><time>2026-04-02T10:31:47.908Z</time></trkpt><trkpt lat="43.3177818" lon="11.353403"><ele>232.49999999999997</ele><time>2026-04-02T10:31:49.908Z</time></trkpt><trkpt lat="43.3176994" lon="11.3535245"><ele>232.0</ele><time>2026-04-02T10:31:51.908Z</time></trkpt><trkpt lat="43.3176254" lon="11.3536373"><ele>231.99999999999997</ele><time>2026-04-02T10:31:53.908Z</time></trkpt><trkpt lat="43.3175699" lon="11.3537222"><ele>232.0</ele><time>2026-04-02T10:31:55.908Z</time></trkpt><trkpt lat="43.3175173" lon="11.3538046"><ele>232.0</ele><time>2026-04-02T10:31:59.908Z</time></trkpt><trkpt lat="43.3174715" lon="11.3538816"><ele>232.0</ele><time>2026-04-02T10:32:03.908Z</time></trkpt><trkpt lat="43.3174224" lon="11.3539518"><ele>231.99999999999997</ele><time>2026-04-02T10:32:06.908Z</time></trkpt><trkpt lat="43.3173756" lon="11.3540229"><ele>232.0</ele><time>2026-04-02T10:32:09.908Z</time></trkpt><trkpt lat="43.3173227" lon="11.3540976"><ele>231.83333333333331</ele><time>2026-04-02T10:32:12.907Z</time></trkpt><trkpt lat="43.3172718" lon="11.3541768"><ele>231.66666666666666</ele><time>2026-04-02T10:32:16.908Z</time></trkpt><trkpt lat="43.3172212" lon="11.3542571"><ele>231.5</ele><time>2026-04-02T10:32:20.908Z</time></trkpt><trkpt lat="43.3171731" lon="11.3543315"><ele>231.33333333333331</ele><time>2026-04-02T10:32:23.908Z</time></trkpt><trkpt lat="43.3171153" lon="11.3544112"><ele>231.16666666666666</ele><time>2026-04-02T10:32:26.908Z</time></trkpt><trkpt lat="43.3170618" lon="11.354494"><ele>231.0</ele><time>2026-04-02T10:32:28.908Z</time></trkpt><trkpt lat="43.3169991" lon="11.3545912"><ele>230.66666666666666</ele><time>2026-04-02T10:32:30.908Z</time></trkpt><trkpt lat="43.316946" lon="11.3546734"><ele>230.33333333333331</ele><time>2026-04-02T10:32:32.908Z</time></trkpt><trkpt lat="43.3168966" lon="11.3547436"><ele>230.0</ele><time>2026-04-02T10:32:34.908Z</time></trkpt><trkpt lat="43.3168427" lon="11.3548301"><ele>229.66666666666666</ele><time>2026-04-02T10:32:36.908Z</time></trkpt><trkpt lat="43.3167904" lon="11.3549061"><ele>229.33333333333331</ele><time>2026-04-02T10:32:38.908Z</time></trkpt><trkpt lat="43.3167399" lon="11.3549833"><ele>229.0</ele><time>2026-04-02T10:32:40.908Z</time></trkpt><trkpt lat="43.3166908" lon="11.3550721"><ele>228.83333333333331</ele><time>2026-04-02T10:32:42.908Z</time></trkpt><trkpt lat="43.3166415" lon="11.355152"><ele>228.66666666666666</ele><time>2026-04-02T10:32:44.907Z</time></trkpt><trkpt lat="43.3165921" lon="11.3552234"><ele>228.5</ele><time>2026-04-02T10:32:46.908Z</time></trkpt><trkpt lat="43.3165206" lon="11.3552953"><ele>228.33333333333331</ele><time>2026-04-02T10:32:48.907Z</time></trkpt><trkpt lat="43.3164253" lon="11.3553013"><ele>228.16666666666666</ele><time>2026-04-02T10:32:50.908Z</time></trkpt><trkpt lat="43.316368" lon="11.355265"><ele>228.0</ele><time>2026-04-02T10:32:51.908Z</time></trkpt><trkpt lat="43.3163105" lon="11.3552226"><ele>227.85714285714283</ele><time>2026-04-02T10:32:52.908Z</time></trkpt><trkpt lat="43.316248" lon="11.3551971"><ele>227.7142857142857</ele><time>2026-04-02T10:32:53.908Z</time></trkpt><trkpt lat="43.3161839" lon="11.3551763"><ele>227.57142857142856</ele><time>2026-04-02T10:32:54.908Z</time></trkpt><trkpt lat="43.3161222" lon="11.3551492"><ele>227.42857142857144</ele><time>2026-04-02T10:32:55.908Z</time></trkpt><trkpt lat="43.3160364" lon="11.3551324"><ele>227.2857142857143</ele><time>2026-04-02T10:32:57.908Z</time></trkpt><trkpt lat="43.3160155" lon="11.3552536"><ele>227.14285714285717</ele><time>2026-04-02T10:33:00.908Z</time></trkpt><trkpt lat="43.316038" lon="11.355339"><ele>227.0</ele><time>2026-04-02T10:33:02.907Z</time></trkpt><trkpt lat="43.3160571" lon="11.3554661"><ele>226.66666666666669</ele><time>2026-04-02T10:33:05.908Z</time></trkpt><trkpt lat="43.3160632" lon="11.3555612"><ele>226.33333333333334</ele><time>2026-04-02T10:33:07.908Z</time></trkpt><trkpt lat="43.3160496" lon="11.3556584"><ele>226.0</ele><time>2026-04-02T10:33:09.908Z</time></trkpt><trkpt lat="43.316013" lon="11.3557658"><ele>225.66666666666669</ele><time>2026-04-02T10:33:11.908Z</time></trkpt><trkpt lat="43.3159504" lon="11.3558804"><ele>225.33333333333334</ele><time>2026-04-02T10:33:13.908Z</time></trkpt><trkpt lat="43.3158796" lon="11.35596"><ele>225.0</ele><time>2026-04-02T10:33:15.907Z</time></trkpt><trkpt lat="43.3157937" lon="11.3559451"><ele>225.0</ele><time>2026-04-02T10:33:17.908Z</time></trkpt><trkpt lat="43.3156999" lon="11.3558869"><ele>225.0</ele><time>2026-04-02T10:33:19.908Z</time></trkpt><trkpt lat="43.3156327" lon="11.3558542"><ele>225.0</ele><time>2026-04-02T10:33:20.908Z</time></trkpt><trkpt lat="43.3155604" lon="11.3558308"><ele>225.0</ele><time>2026-04-02T10:33:21.908Z</time></trkpt><trkpt lat="43.3154886" lon="11.3558073"><ele>225.0</ele><time>2026-04-02T10:33:22.908Z</time></trkpt><trkpt lat="43.3154138" lon="11.355783"><ele>225.0</ele><time>2026-04-02T10:33:23.908Z</time></trkpt><trkpt lat="43.3153314" lon="11.3557712"><ele>225.5714285714286</ele><time>2026-04-02T10:33:24.908Z</time></trkpt><trkpt lat="43.3152446" lon="11.3557812"><ele>226.14285714285717</ele><time>2026-04-02T10:33:25.908Z</time></trkpt><trkpt lat="43.315169" lon="11.3558133"><ele>226.71428571428572</ele><time>2026-04-02T10:33:26.908Z</time></trkpt><trkpt lat="43.315113" lon="11.355857"><ele>227.2857142857143</ele><time>2026-04-02T10:33:27.908Z</time></trkpt><trkpt lat="43.3150569" lon="11.355907"><ele>227.8571428571429</ele><time>2026-04-02T10:33:28.908Z</time></trkpt><trkpt lat="43.3149978" lon="11.3559634"><ele>228.42857142857142</ele><time>2026-04-02T10:33:29.908Z</time></trkpt><trkpt lat="43.3149343" lon="11.3560238"><ele>229.0</ele><time>2026-04-02T10:33:30.908Z</time></trkpt><trkpt lat="43.3148706" lon="11.3560864"><ele>229.0</ele><time>2026-04-02T10:33:31.908Z</time></trkpt><trkpt lat="43.3148075" lon="11.3561419"><ele>229.0</ele><time>2026-04-02T10:33:32.908Z</time></trkpt><trkpt lat="43.3147521" lon="11.3561968"><ele>229.0</ele><time>2026-04-02T10:33:33.908Z</time></trkpt><trkpt lat="43.3146989" lon="11.3562475"><ele>229.0</ele><time>2026-04-02T10:33:34.908Z</time></trkpt><trkpt lat="43.3146441" lon="11.3562959"><ele>229.0</ele><time>2026-04-02T10:33:35.908Z</time></trkpt><trkpt lat="43.3145573" lon="11.3563675"><ele>229.0</ele><time>2026-04-02T10:33:37.908Z</time></trkpt><trkpt lat="43.3144941" lon="11.3563355"><ele>229.0</ele><time>2026-04-02T10:33:47.908Z</time></trkpt><trkpt lat="43.3144571" lon="11.3562273"><ele>231.79999999999998</ele><time>2026-04-02T10:33:49.908Z</time></trkpt><trkpt lat="43.3144983" lon="11.3560455"><ele>234.59999999999997</ele><time>2026-04-02T10:33:51.908Z</time></trkpt><trkpt lat="43.3145291" lon="11.3559375"><ele>237.4</ele><time>2026-04-02T10:33:52.907Z</time></trkpt><trkpt lat="43.3145685" lon="11.355805"><ele>240.2</ele><time>2026-04-02T10:33:53.908Z</time></trkpt><trkpt lat="43.3146023" lon="11.3556532"><ele>243.0</ele><time>2026-04-02T10:33:54.908Z</time></trkpt><trkpt lat="43.3146316" lon="11.3554761"><ele>245.75</ele><time>2026-04-02T10:33:55.908Z</time></trkpt><trkpt lat="43.3146563" lon="11.3552995"><ele>248.5</ele><time>2026-04-02T10:33:56.908Z</time></trkpt><trkpt lat="43.3146719" lon="11.3551292"><ele>251.25</ele><time>2026-04-02T10:33:57.908Z</time></trkpt><trkpt lat="43.3146749" lon="11.3549586"><ele>254.0</ele><time>2026-04-02T10:33:58.908Z</time></trkpt><trkpt lat="43.3146645" lon="11.3547889"><ele>255.25</ele><time>2026-04-02T10:33:59.908Z</time></trkpt><trkpt lat="43.3146428" lon="11.3546305"><ele>256.5</ele><time>2026-04-02T10:34:00.908Z</time></trkpt><trkpt lat="43.3146022" lon="11.3544852"><ele>257.75</ele><time>2026-04-02T10:34:01.908Z</time></trkpt><trkpt lat="43.314531" lon="11.3543559"><ele>259.0</ele><time>2026-04-02T10:34:02.908Z</time></trkpt><trkpt lat="43.3144434" lon="11.3542336"><ele>259.0</ele><time>2026-04-02T10:34:03.908Z</time></trkpt><trkpt lat="43.3143591" lon="11.3541002"><ele>259.0</ele><time>2026-04-02T10:34:04.908Z</time></trkpt><trkpt lat="43.3142937" lon="11.3539552"><ele>259.0</ele><time>2026-04-02T10:34:05.907Z</time></trkpt><trkpt lat="43.3142453" lon="11.353823"><ele>259.0</ele><time>2026-04-02T10:34:06.908Z</time></trkpt><trkpt lat="43.3141876" lon="11.3537058"><ele>258.0</ele><time>2026-04-02T10:34:07.908Z</time></trkpt><trkpt lat="43.3141131" lon="11.3535952"><ele>257.0</ele><time>2026-04-02T10:34:08.908Z</time></trkpt><trkpt lat="43.3140305" lon="11.3534953"><ele>256.0</ele><time>2026-04-02T10:34:09.908Z</time></trkpt><trkpt lat="43.3139377" lon="11.3533994"><ele>255.0</ele><time>2026-04-02T10:34:10.908Z</time></trkpt><trkpt lat="43.3138454" lon="11.3532994"><ele>258.5</ele><time>2026-04-02T10:34:11.908Z</time></trkpt><trkpt lat="43.3137579" lon="11.3531891"><ele>262.0</ele><time>2026-04-02T10:34:12.908Z</time></trkpt><trkpt lat="43.3136725" lon="11.3530701"><ele>265.5</ele><time>2026-04-02T10:34:13.908Z</time></trkpt><trkpt lat="43.3135826" lon="11.3529531"><ele>269.0</ele><time>2026-04-02T10:34:14.908Z</time></trkpt><trkpt lat="43.3134964" lon="11.3528355"><ele>269.0</ele><time>2026-04-02T10:34:15.908Z</time></trkpt><trkpt lat="43.3134149" lon="11.3527146"><ele>269.0</ele><time>2026-04-02T10:34:16.908Z</time></trkpt><trkpt lat="43.3133386" lon="11.3525737"><ele>269.0</ele><time>2026-04-02T10:34:17.908Z</time></trkpt><trkpt lat="43.313264" lon="11.352429"><ele>269.0</ele><time>2026-04-02T10:34:18.907Z</time></trkpt><trkpt lat="43.3132029" lon="11.3523094"><ele>267.5</ele><time>2026-04-02T10:34:19.907Z</time></trkpt><trkpt lat="43.3131366" lon="11.3521856"><ele>266.0</ele><time>2026-04-02T10:34:20.908Z</time></trkpt><trkpt lat="43.3130655" lon="11.352031"><ele>264.5</ele><time>2026-04-02T10:34:21.908Z</time></trkpt><trkpt lat="43.3129967" lon="11.3518588"><ele>263.0</ele><time>2026-04-02T10:34:22.908Z</time></trkpt><trkpt lat="43.3129313" lon="11.3516655"><ele>266.25</ele><time>2026-04-02T10:34:23.907Z</time></trkpt><trkpt lat="43.3128793" lon="11.351466"><ele>269.5</ele><time>2026-04-02T10:34:24.908Z</time></trkpt><trkpt lat="43.3128416" lon="11.3512777"><ele>272.75</ele><time>2026-04-02T10:34:25.908Z</time></trkpt><trkpt lat="43.312803" lon="11.3510969"><ele>276.0</ele><time>2026-04-02T10:34:26.908Z</time></trkpt><trkpt lat="43.3127594" lon="11.350914"><ele>276.75</ele><time>2026-04-02T10:34:27.908Z</time></trkpt><trkpt lat="43.3127169" lon="11.3507364"><ele>277.5</ele><time>2026-04-02T10:34:28.908Z</time></trkpt><trkpt lat="43.3126563" lon="11.3505554"><ele>278.25</ele><time>2026-04-02T10:34:29.908Z</time></trkpt><trkpt lat="43.3125965" lon="11.3503782"><ele>279.0</ele><time>2026-04-02T10:34:30.908Z</time></trkpt><trkpt lat="43.3125364" lon="11.3502111"><ele>279.0</ele><time>2026-04-02T10:34:31.908Z</time></trkpt><trkpt lat="43.3125128" lon="11.3501198"><ele>279.0</ele><time>2026-04-02T10:34:32.908Z</time></trkpt><trkpt lat="43.3124905" lon="11.3500147"><ele>279.0</ele><time>2026-04-02T10:34:33.908Z</time></trkpt><trkpt lat="43.3124869" lon="11.349906"><ele>279.0</ele><time>2026-04-02T10:34:34.908Z</time></trkpt><trkpt lat="43.3125048" lon="11.3497993"><ele>279.0</ele><time>2026-04-02T10:34:35.908Z</time></trkpt><trkpt lat="43.3125389" lon="11.3496923"><ele>279.0</ele><time>2026-04-02T10:34:36.907Z</time></trkpt><trkpt lat="43.3126002" lon="11.349575"><ele>278.1666666666667</ele><time>2026-04-02T10:34:37.908Z</time></trkpt><trkpt lat="43.3126567" lon="11.3494517"><ele>277.3333333333333</ele><time>2026-04-02T10:34:38.908Z</time></trkpt><trkpt lat="43.3126913" lon="11.3493373"><ele>276.5</ele><time>2026-04-02T10:34:39.908Z</time></trkpt><trkpt lat="43.3127246" lon="11.3492324"><ele>275.66666666666663</ele><time>2026-04-02T10:34:40.908Z</time></trkpt><trkpt lat="43.3127529" lon="11.3491224"><ele>274.8333333333333</ele><time>2026-04-02T10:34:41.908Z</time></trkpt><trkpt lat="43.3127545" lon="11.3490101"><ele>274.0</ele><time>2026-04-02T10:34:42.908Z</time></trkpt><trkpt lat="43.3127316" lon="11.3489006"><ele>273.2</ele><time>2026-04-02T10:34:43.907Z</time></trkpt><trkpt lat="43.3127049" lon="11.3487773"><ele>272.4</ele><time>2026-04-02T10:34:44.908Z</time></trkpt><trkpt lat="43.3126726" lon="11.3486321"><ele>271.6</ele><time>2026-04-02T10:34:45.907Z</time></trkpt><trkpt lat="43.3126185" lon="11.3484828"><ele>270.8</ele><time>2026-04-02T10:34:46.908Z</time></trkpt><trkpt lat="43.3125497" lon="11.3483437"><ele>270.0</ele><time>2026-04-02T10:34:47.908Z</time></trkpt><trkpt lat="43.3124781" lon="11.3482159"><ele>270.0</ele><time>2026-04-02T10:34:48.907Z</time></trkpt><trkpt lat="43.3124151" lon="11.3481179"><ele>270.0</ele><time>2026-04-02T10:34:49.908Z</time></trkpt><trkpt lat="43.3123698" lon="11.3480485"><ele>270.0</ele><time>2026-04-02T10:34:50.908Z</time></trkpt><trkpt lat="43.3123181" lon="11.3479917"><ele>270.0</ele><time>2026-04-02T10:34:52.908Z</time></trkpt><trkpt lat="43.3122475" lon="11.3480178"><ele>270.0</ele><time>2026-04-02T10:34:55.908Z</time></trkpt><trkpt lat="43.3122203" lon="11.3481113"><ele>270.0</ele><time>2026-04-02T10:35:19.908Z</time></trkpt><trkpt lat="43.3121523" lon="11.3482441"><ele>269.0</ele><time>2026-04-02T10:35:21.908Z</time></trkpt><trkpt lat="43.312116" lon="11.3483609"><ele>268.0</ele><time>2026-04-02T10:35:22.908Z</time></trkpt><trkpt lat="43.3120778" lon="11.3485033"><ele>267.0</ele><time>2026-04-02T10:35:23.908Z</time></trkpt><trkpt lat="43.3120304" lon="11.3486471"><ele>266.0</ele><time>2026-04-02T10:35:24.908Z</time></trkpt><trkpt lat="43.3119865" lon="11.3488169"><ele>265.0</ele><time>2026-04-02T10:35:25.908Z</time></trkpt><trkpt lat="43.3119413" lon="11.3489882"><ele>264.25</ele><time>2026-04-02T10:35:26.908Z</time></trkpt><trkpt lat="43.3118971" lon="11.349143"><ele>263.5</ele><time>2026-04-02T10:35:27.908Z</time></trkpt><trkpt lat="43.3118439" lon="11.3492896"><ele>262.75</ele><time>2026-04-02T10:35:28.907Z</time></trkpt><trkpt lat="43.3117767" lon="11.3494335"><ele>262.0</ele><time>2026-04-02T10:35:29.908Z</time></trkpt><trkpt lat="43.3116898" lon="11.3495593"><ele>262.0</ele><time>2026-04-02T10:35:30.907Z</time></trkpt><trkpt lat="43.3115859" lon="11.3496635"><ele>262.0</ele><time>2026-04-02T10:35:31.907Z</time></trkpt><trkpt lat="43.3114792" lon="11.3497517"><ele>262.0</ele><time>2026-04-02T10:35:32.908Z</time></trkpt><trkpt lat="43.311362" lon="11.3498146"><ele>262.0</ele><time>2026-04-02T10:35:33.908Z</time></trkpt><trkpt lat="43.3112512" lon="11.3498697"><ele>262.0</ele><time>2026-04-02T10:35:34.907Z</time></trkpt><trkpt lat="43.311153" lon="11.3499152"><ele>262.0</ele><time>2026-04-02T10:35:35.908Z</time></trkpt><trkpt lat="43.3110685" lon="11.3499472"><ele>262.0</ele><time>2026-04-02T10:35:36.908Z</time></trkpt><trkpt lat="43.3109777" lon="11.3499831"><ele>262.0</ele><time>2026-04-02T10:35:37.908Z</time></trkpt><trkpt lat="43.3108941" lon="11.3500092"><ele>262.0</ele><time>2026-04-02T10:35:38.908Z</time></trkpt><trkpt lat="43.3108039" lon="11.350034"><ele>262.0</ele><time>2026-04-02T10:35:39.908Z</time></trkpt><trkpt lat="43.3107136" lon="11.3500672"><ele>262.0</ele><time>2026-04-02T10:35:40.907Z</time></trkpt><trkpt lat="43.3106235" lon="11.3501161"><ele>262.0</ele><time>2026-04-02T10:35:41.908Z</time></trkpt><trkpt lat="43.310537" lon="11.3501732"><ele>262.0</ele><time>2026-04-02T10:35:42.908Z</time></trkpt><trkpt lat="43.310454" lon="11.3502451"><ele>262.0</ele><time>2026-04-02T10:35:43.908Z</time></trkpt><trkpt lat="43.310357" lon="11.3503161"><ele>262.0</ele><time>2026-04-02T10:35:44.908Z</time></trkpt><trkpt lat="43.3102764" lon="11.3504392"><ele>262.0</ele><time>2026-04-02T10:35:45.908Z</time></trkpt><trkpt lat="43.3101986" lon="11.3505349"><ele>262.0</ele><time>2026-04-02T10:35:46.908Z</time></trkpt><trkpt lat="43.3101125" lon="11.3506391"><ele>262.0</ele><time>2026-04-02T10:35:47.908Z</time></trkpt><trkpt lat="43.310025" lon="11.3507616"><ele>261.75</ele><time>2026-04-02T10:35:48.908Z</time></trkpt><trkpt lat="43.3099361" lon="11.3508901"><ele>261.5</ele><time>2026-04-02T10:35:49.907Z</time></trkpt><trkpt lat="43.3098507" lon="11.3510344"><ele>261.25</ele><time>2026-04-02T10:35:50.908Z</time></trkpt><trkpt lat="43.3097701" lon="11.3512019"><ele>261.0</ele><time>2026-04-02T10:35:51.908Z</time></trkpt><trkpt lat="43.3096971" lon="11.3513787"><ele>262.3333333333333</ele><time>2026-04-02T10:35:52.908Z</time></trkpt><trkpt lat="43.3096357" lon="11.3515731"><ele>263.66666666666663</ele><time>2026-04-02T10:35:53.908Z</time></trkpt><trkpt lat="43.3095901" lon="11.3517679"><ele>265.0</ele><time>2026-04-02T10:35:54.908Z</time></trkpt><trkpt lat="43.3095439" lon="11.3519625"><ele>265.0</ele><time>2026-04-02T10:35:55.907Z</time></trkpt><trkpt lat="43.3095051" lon="11.352147"><ele>265.0</ele><time>2026-04-02T10:35:56.907Z</time></trkpt><trkpt lat="43.3094732" lon="11.3523415"><ele>265.0</ele><time>2026-04-02T10:35:57.908Z</time></trkpt><trkpt lat="43.3094399" lon="11.352526"><ele>265.0</ele><time>2026-04-02T10:35:58.908Z</time></trkpt><trkpt lat="43.3094092" lon="11.3526939"><ele>265.0</ele><time>2026-04-02T10:35:59.908Z</time></trkpt><trkpt lat="43.3093815" lon="11.3528564"><ele>265.0</ele><time>2026-04-02T10:36:00.908Z</time></trkpt><trkpt lat="43.3093568" lon="11.3530173"><ele>265.0</ele><time>2026-04-02T10:36:01.908Z</time></trkpt><trkpt lat="43.3093276" lon="11.3531873"><ele>265.0</ele><time>2026-04-02T10:36:02.908Z</time></trkpt><trkpt lat="43.3092969" lon="11.3533438"><ele>265.0</ele><time>2026-04-02T10:36:03.908Z</time></trkpt><trkpt lat="43.3092697" lon="11.3534891"><ele>265.0</ele><time>2026-04-02T10:36:04.908Z</time></trkpt><trkpt lat="43.3092628" lon="11.3536112"><ele>265.0</ele><time>2026-04-02T10:36:05.908Z</time></trkpt><trkpt lat="43.3092592" lon="11.3537248"><ele>265.0</ele><time>2026-04-02T10:36:06.908Z</time></trkpt><trkpt lat="43.3092508" lon="11.3538563"><ele>265.0</ele><time>2026-04-02T10:36:07.907Z</time></trkpt><trkpt lat="43.3092399" lon="11.3540091"><ele>264.5</ele><time>2026-04-02T10:36:08.908Z</time></trkpt><trkpt lat="43.3092333" lon="11.3541965"><ele>264.0</ele><time>2026-04-02T10:36:09.908Z</time></trkpt><trkpt lat="43.3092277" lon="11.3543966"><ele>263.5</ele><time>2026-04-02T10:36:10.908Z</time></trkpt><trkpt lat="43.3092264" lon="11.3545835"><ele>263.0</ele><time>2026-04-02T10:36:11.908Z</time></trkpt><trkpt lat="43.3092334" lon="11.3547468"><ele>263.0</ele><time>2026-04-02T10:36:12.908Z</time></trkpt><trkpt lat="43.3092425" lon="11.3549069"><ele>263.0</ele><time>2026-04-02T10:36:13.908Z</time></trkpt><trkpt lat="43.3092637" lon="11.3550544"><ele>263.0</ele><time>2026-04-02T10:36:14.908Z</time></trkpt><trkpt lat="43.3092952" lon="11.3552148"><ele>263.0</ele><time>2026-04-02T10:36:15.908Z</time></trkpt><trkpt lat="43.3093402" lon="11.3553884"><ele>262.5</ele><time>2026-04-02T10:36:16.908Z</time></trkpt><trkpt lat="43.309379" lon="11.3555645"><ele>262.0</ele><time>2026-04-02T10:36:17.908Z</time></trkpt><trkpt lat="43.3094231" lon="11.3557472"><ele>261.5</ele><time>2026-04-02T10:36:18.908Z</time></trkpt><trkpt lat="43.3094611" lon="11.3559198"><ele>261.0</ele><time>2026-04-02T10:36:19.908Z</time></trkpt><trkpt lat="43.3094914" lon="11.3560848"><ele>261.0</ele><time>2026-04-02T10:36:20.908Z</time></trkpt><trkpt lat="43.3095178" lon="11.3562435"><ele>261.0</ele><time>2026-04-02T10:36:21.908Z</time></trkpt><trkpt lat="43.3095283" lon="11.3563998"><ele>261.0</ele><time>2026-04-02T10:36:22.908Z</time></trkpt><trkpt lat="43.3095163" lon="11.3565809"><ele>261.0</ele><time>2026-04-02T10:36:23.908Z</time></trkpt><trkpt lat="43.3094824" lon="11.3567697"><ele>259.5</ele><time>2026-04-02T10:36:24.908Z</time></trkpt><trkpt lat="43.3094366" lon="11.3569343"><ele>258.0</ele><time>2026-04-02T10:36:25.908Z</time></trkpt><trkpt lat="43.309382" lon="11.3570938"><ele>256.5</ele><time>2026-04-02T10:36:26.908Z</time></trkpt><trkpt lat="43.309309" lon="11.3572373"><ele>255.0</ele><time>2026-04-02T10:36:27.907Z</time></trkpt><trkpt lat="43.3092168" lon="11.357367"><ele>254.5</ele><time>2026-04-02T10:36:28.908Z</time></trkpt><trkpt lat="43.3091093" lon="11.3574951"><ele>254.0</ele><time>2026-04-02T10:36:29.908Z</time></trkpt><trkpt lat="43.3089858" lon="11.3576204"><ele>253.5</ele><time>2026-04-02T10:36:30.908Z</time></trkpt><trkpt lat="43.3088651" lon="11.3577455"><ele>253.0</ele><time>2026-04-02T10:36:31.908Z</time></trkpt><trkpt lat="43.3087559" lon="11.3578588"><ele>251.5</ele><time>2026-04-02T10:36:32.908Z</time></trkpt><trkpt lat="43.3086406" lon="11.3579726"><ele>250.0</ele><time>2026-04-02T10:36:33.907Z</time></trkpt><trkpt lat="43.3085186" lon="11.3580763"><ele>248.5</ele><time>2026-04-02T10:36:34.908Z</time></trkpt><trkpt lat="43.3083933" lon="11.358173"><ele>247.0</ele><time>2026-04-02T10:36:35.908Z</time></trkpt><trkpt lat="43.3082654" lon="11.3582758"><ele>247.0</ele><time>2026-04-02T10:36:36.907Z</time></trkpt><trkpt lat="43.3081274" lon="11.3583873"><ele>247.0</ele><time>2026-04-02T10:36:37.908Z</time></trkpt><trkpt lat="43.3079886" lon="11.3585204"><ele>247.0</ele><time>2026-04-02T10:36:38.907Z</time></trkpt><trkpt lat="43.3078527" lon="11.3586752"><ele>244.0</ele><time>2026-04-02T10:36:39.908Z</time></trkpt><trkpt lat="43.3077176" lon="11.3588319"><ele>241.0</ele><time>2026-04-02T10:36:40.907Z</time></trkpt><trkpt lat="43.3075862" lon="11.3589835"><ele>238.0</ele><time>2026-04-02T10:36:41.908Z</time></trkpt><trkpt lat="43.3074616" lon="11.3591298"><ele>238.0</ele><time>2026-04-02T10:36:42.908Z</time></trkpt><trkpt lat="43.3073412" lon="11.3592673"><ele>238.0</ele><time>2026-04-02T10:36:43.908Z</time></trkpt><trkpt lat="43.3072297" lon="11.3593982"><ele>238.0</ele><time>2026-04-02T10:36:44.908Z</time></trkpt><trkpt lat="43.307124" lon="11.3595249"><ele>238.0</ele><time>2026-04-02T10:36:45.907Z</time></trkpt><trkpt lat="43.3070188" lon="11.359647"><ele>238.75</ele><time>2026-04-02T10:36:46.907Z</time></trkpt><trkpt lat="43.3069183" lon="11.3597766"><ele>239.5</ele><time>2026-04-02T10:36:47.908Z</time></trkpt><trkpt lat="43.3068213" lon="11.3599151"><ele>240.25</ele><time>2026-04-02T10:36:48.908Z</time></trkpt><trkpt lat="43.3067246" lon="11.3600691"><ele>241.0</ele><time>2026-04-02T10:36:49.908Z</time></trkpt><trkpt lat="43.3066234" lon="11.3602287"><ele>241.0</ele><time>2026-04-02T10:36:50.908Z</time></trkpt><trkpt lat="43.3065189" lon="11.3603948"><ele>241.0</ele><time>2026-04-02T10:36:51.908Z</time></trkpt><trkpt lat="43.3064037" lon="11.3605606"><ele>241.0</ele><time>2026-04-02T10:36:52.907Z</time></trkpt><trkpt lat="43.3062948" lon="11.3607083"><ele>244.66666666666666</ele><time>2026-04-02T10:36:53.908Z</time></trkpt><trkpt lat="43.306196" lon="11.3608764"><ele>248.33333333333331</ele><time>2026-04-02T10:36:54.908Z</time></trkpt><trkpt lat="43.3061122" lon="11.3610539"><ele>252.0</ele><time>2026-04-02T10:36:55.908Z</time></trkpt><trkpt lat="43.30604" lon="11.3612163"><ele>252.0</ele><time>2026-04-02T10:36:56.908Z</time></trkpt><trkpt lat="43.3059727" lon="11.3613419"><ele>252.0</ele><time>2026-04-02T10:36:57.908Z</time></trkpt><trkpt lat="43.30589" lon="11.3614602"><ele>252.0</ele><time>2026-04-02T10:36:58.908Z</time></trkpt><trkpt lat="43.3057929" lon="11.3615528"><ele>252.0</ele><time>2026-04-02T10:36:59.908Z</time></trkpt><trkpt lat="43.3056815" lon="11.3616204"><ele>250.75</ele><time>2026-04-02T10:37:00.908Z</time></trkpt><trkpt lat="43.3055516" lon="11.3616696"><ele>249.5</ele><time>2026-04-02T10:37:01.908Z</time></trkpt><trkpt lat="43.3054209" lon="11.3617024"><ele>248.25</ele><time>2026-04-02T10:37:02.908Z</time></trkpt><trkpt lat="43.3052968" lon="11.3617255"><ele>247.0</ele><time>2026-04-02T10:37:03.908Z</time></trkpt><trkpt lat="43.3051735" lon="11.3617469"><ele>247.0</ele><time>2026-04-02T10:37:04.908Z</time></trkpt><trkpt lat="43.3050542" lon="11.3617702"><ele>247.0</ele><time>2026-04-02T10:37:05.908Z</time></trkpt><trkpt lat="43.3049475" lon="11.3617876"><ele>247.0</ele><time>2026-04-02T10:37:06.908Z</time></trkpt><trkpt lat="43.3048482" lon="11.3617956"><ele>247.0</ele><time>2026-04-02T10:37:07.907Z</time></trkpt><trkpt lat="43.3047442" lon="11.3618007"><ele>247.0</ele><time>2026-04-02T10:37:08.908Z</time></trkpt><trkpt lat="43.3046279" lon="11.3618085"><ele>244.5</ele><time>2026-04-02T10:37:09.908Z</time></trkpt><trkpt lat="43.3045018" lon="11.3618328"><ele>242.0</ele><time>2026-04-02T10:37:10.908Z</time></trkpt><trkpt lat="43.304368" lon="11.3618921"><ele>239.5</ele><time>2026-04-02T10:37:11.908Z</time></trkpt><trkpt lat="43.3042297" lon="11.36198"><ele>237.0</ele><time>2026-04-02T10:37:12.907Z</time></trkpt><trkpt lat="43.3040926" lon="11.3620822"><ele>237.0</ele><time>2026-04-02T10:37:13.908Z</time></trkpt><trkpt lat="43.3039556" lon="11.3621947"><ele>237.0</ele><time>2026-04-02T10:37:14.908Z</time></trkpt><trkpt lat="43.3038266" lon="11.3622931"><ele>237.0</ele><time>2026-04-02T10:37:15.908Z</time></trkpt><trkpt lat="43.3037027" lon="11.3624062"><ele>239.25</ele><time>2026-04-02T10:37:16.908Z</time></trkpt><trkpt lat="43.3035958" lon="11.3625217"><ele>241.5</ele><time>2026-04-02T10:37:17.908Z</time></trkpt><trkpt lat="43.3035088" lon="11.3626528"><ele>243.75</ele><time>2026-04-02T10:37:18.908Z</time></trkpt><trkpt lat="43.3034501" lon="11.3628069"><ele>246.0</ele><time>2026-04-02T10:37:19.908Z</time></trkpt><trkpt lat="43.3034126" lon="11.3629845"><ele>247.25</ele><time>2026-04-02T10:37:20.908Z</time></trkpt><trkpt lat="43.3033917" lon="11.3631684"><ele>248.5</ele><time>2026-04-02T10:37:21.908Z</time></trkpt><trkpt lat="43.3033706" lon="11.3633402"><ele>249.75</ele><time>2026-04-02T10:37:22.908Z</time></trkpt><trkpt lat="43.3033408" lon="11.3634911"><ele>251.0</ele><time>2026-04-02T10:37:23.908Z</time></trkpt><trkpt lat="43.3033063" lon="11.363621"><ele>251.0</ele><time>2026-04-02T10:37:24.908Z</time></trkpt><trkpt lat="43.3032603" lon="11.3637318"><ele>251.00000000000003</ele><time>2026-04-02T10:37:25.908Z</time></trkpt><trkpt lat="43.3031987" lon="11.3638172"><ele>251.00000000000003</ele><time>2026-04-02T10:37:26.908Z</time></trkpt><trkpt lat="43.3031266" lon="11.3638881"><ele>251.0</ele><time>2026-04-02T10:37:27.908Z</time></trkpt><trkpt lat="43.3030295" lon="11.3639116"><ele>251.0</ele><time>2026-04-02T10:37:28.908Z</time></trkpt><trkpt lat="43.3029227" lon="11.3639413"><ele>251.4</ele><time>2026-04-02T10:37:29.908Z</time></trkpt><trkpt lat="43.3028184" lon="11.3639277"><ele>251.8</ele><time>2026-04-02T10:37:30.908Z</time></trkpt><trkpt lat="43.3027233" lon="11.3639279"><ele>252.20000000000002</ele><time>2026-04-02T10:37:31.907Z</time></trkpt><trkpt lat="43.3026086" lon="11.363953"><ele>252.60000000000002</ele><time>2026-04-02T10:37:32.908Z</time></trkpt><trkpt lat="43.3024976" lon="11.3640011"><ele>253.0</ele><time>2026-04-02T10:37:33.908Z</time></trkpt><trkpt lat="43.3023759" lon="11.3640636"><ele>253.0</ele><time>2026-04-02T10:37:34.908Z</time></trkpt><trkpt lat="43.302251" lon="11.364133"><ele>253.0</ele><time>2026-04-02T10:37:35.908Z</time></trkpt><trkpt lat="43.302134" lon="11.3642213"><ele>253.0</ele><time>2026-04-02T10:37:36.907Z</time></trkpt><trkpt lat="43.3020248" lon="11.3643008"><ele>253.0</ele><time>2026-04-02T10:37:37.908Z</time></trkpt><trkpt lat="43.3019401" lon="11.364418"><ele>250.5</ele><time>2026-04-02T10:37:38.908Z</time></trkpt><trkpt lat="43.3018617" lon="11.3645765"><ele>248.0</ele><time>2026-04-02T10:37:39.907Z</time></trkpt><trkpt lat="43.3017999" lon="11.3647328"><ele>245.5</ele><time>2026-04-02T10:37:40.908Z</time></trkpt><trkpt lat="43.3017535" lon="11.3648833"><ele>243.0</ele><time>2026-04-02T10:37:41.907Z</time></trkpt><trkpt lat="43.3017004" lon="11.365015"><ele>243.0</ele><time>2026-04-02T10:37:42.908Z</time></trkpt><trkpt lat="43.3016251" lon="11.3651466"><ele>243.0</ele><time>2026-04-02T10:37:43.908Z</time></trkpt><trkpt lat="43.3015241" lon="11.3652584"><ele>243.0</ele><time>2026-04-02T10:37:44.908Z</time></trkpt><trkpt lat="43.3013865" lon="11.3653624"><ele>243.0</ele><time>2026-04-02T10:37:45.908Z</time></trkpt><trkpt lat="43.3012488" lon="11.3654549"><ele>242.5</ele><time>2026-04-02T10:37:46.908Z</time></trkpt><trkpt lat="43.3011196" lon="11.3655397"><ele>242.0</ele><time>2026-04-02T10:37:47.908Z</time></trkpt><trkpt lat="43.3009971" lon="11.3656133"><ele>241.5</ele><time>2026-04-02T10:37:48.908Z</time></trkpt><trkpt lat="43.3008825" lon="11.3656657"><ele>241.0</ele><time>2026-04-02T10:37:49.908Z</time></trkpt><trkpt lat="43.3007641" lon="11.365704"><ele>241.0</ele><time>2026-04-02T10:37:50.908Z</time></trkpt><trkpt lat="43.3006416" lon="11.3657287"><ele>241.0</ele><time>2026-04-02T10:37:51.908Z</time></trkpt><trkpt lat="43.3005096" lon="11.3657157"><ele>241.0</ele><time>2026-04-02T10:37:52.908Z</time></trkpt><trkpt lat="43.3003756" lon="11.365721"><ele>241.0</ele><time>2026-04-02T10:37:53.907Z</time></trkpt><trkpt lat="43.3002522" lon="11.3657305"><ele>241.75</ele><time>2026-04-02T10:37:54.907Z</time></trkpt><trkpt lat="43.3001403" lon="11.3657692"><ele>242.5</ele><time>2026-04-02T10:37:55.908Z</time></trkpt><trkpt lat="43.3000256" lon="11.3658484"><ele>243.25</ele><time>2026-04-02T10:37:56.908Z</time></trkpt><trkpt lat="43.2999091" lon="11.3659444"><ele>244.0</ele><time>2026-04-02T10:37:57.908Z</time></trkpt><trkpt lat="43.2998074" lon="11.3660479"><ele>242.25</ele><time>2026-04-02T10:37:58.908Z</time></trkpt><trkpt lat="43.2996966" lon="11.3661805"><ele>240.5</ele><time>2026-04-02T10:37:59.908Z</time></trkpt><trkpt lat="43.299588" lon="11.3663102"><ele>238.75</ele><time>2026-04-02T10:38:00.908Z</time></trkpt><trkpt lat="43.2994759" lon="11.3664636"><ele>237.0</ele><time>2026-04-02T10:38:01.908Z</time></trkpt><trkpt lat="43.2993679" lon="11.3665935"><ele>237.0</ele><time>2026-04-02T10:38:02.908Z</time></trkpt><trkpt lat="43.2992629" lon="11.3667285"><ele>237.0</ele><time>2026-04-02T10:38:03.908Z</time></trkpt><trkpt lat="43.2991626" lon="11.3668895"><ele>237.0</ele><time>2026-04-02T10:38:04.908Z</time></trkpt><trkpt lat="43.2990759" lon="11.3670626"><ele>237.66666666666669</ele><time>2026-04-02T10:38:05.908Z</time></trkpt><trkpt lat="43.2989937" lon="11.3672639"><ele>238.33333333333334</ele><time>2026-04-02T10:38:06.908Z</time></trkpt><trkpt lat="43.2989187" lon="11.3674642"><ele>239.0</ele><time>2026-04-02T10:38:07.908Z</time></trkpt><trkpt lat="43.298846" lon="11.3676586"><ele>238.0</ele><time>2026-04-02T10:38:08.908Z</time></trkpt><trkpt lat="43.2987767" lon="11.3678298"><ele>237.0</ele><time>2026-04-02T10:38:09.908Z</time></trkpt><trkpt lat="43.298704" lon="11.3679862"><ele>236.0</ele><time>2026-04-02T10:38:10.908Z</time></trkpt><trkpt lat="43.2986308" lon="11.368131"><ele>235.0</ele><time>2026-04-02T10:38:11.908Z</time></trkpt><trkpt lat="43.2985565" lon="11.36824"><ele>235.0</ele><time>2026-04-02T10:38:12.908Z</time></trkpt><trkpt lat="43.2984733" lon="11.3683306"><ele>235.0</ele><time>2026-04-02T10:38:13.908Z</time></trkpt><trkpt lat="43.2983819" lon="11.3683987"><ele>235.0</ele><time>2026-04-02T10:38:14.908Z</time></trkpt><trkpt lat="43.2982837" lon="11.3684502"><ele>235.0</ele><time>2026-04-02T10:38:15.908Z</time></trkpt><trkpt lat="43.2981749" lon="11.3684843"><ele>235.0</ele><time>2026-04-02T10:38:16.908Z</time></trkpt><trkpt lat="43.2980654" lon="11.368504"><ele>235.75</ele><time>2026-04-02T10:38:17.908Z</time></trkpt><trkpt lat="43.2979574" lon="11.3684977"><ele>236.5</ele><time>2026-04-02T10:38:18.908Z</time></trkpt><trkpt lat="43.2978494" lon="11.3684751"><ele>237.25</ele><time>2026-04-02T10:38:19.908Z</time></trkpt><trkpt lat="43.2977369" lon="11.3684298"><ele>238.0</ele><time>2026-04-02T10:38:20.908Z</time></trkpt><trkpt lat="43.297621" lon="11.3683706"><ele>238.0</ele><time>2026-04-02T10:38:21.908Z</time></trkpt><trkpt lat="43.2975019" lon="11.3683032"><ele>238.0</ele><time>2026-04-02T10:38:22.908Z</time></trkpt><trkpt lat="43.2973792" lon="11.3682355"><ele>238.0</ele><time>2026-04-02T10:38:23.908Z</time></trkpt><trkpt lat="43.297249" lon="11.3681784"><ele>238.0</ele><time>2026-04-02T10:38:24.908Z</time></trkpt><trkpt lat="43.2971101" lon="11.3681241"><ele>237.0</ele><time>2026-04-02T10:38:25.908Z</time></trkpt><trkpt lat="43.2969641" lon="11.3680692"><ele>236.0</ele><time>2026-04-02T10:38:26.908Z</time></trkpt><trkpt lat="43.2968125" lon="11.3680298"><ele>235.0</ele><time>2026-04-02T10:38:27.908Z</time></trkpt><trkpt lat="43.2966519" lon="11.3680116"><ele>234.75</ele><time>2026-04-02T10:38:28.907Z</time></trkpt><trkpt lat="43.2965017" lon="11.3680158"><ele>234.5</ele><time>2026-04-02T10:38:29.908Z</time></trkpt><trkpt lat="43.2963568" lon="11.3680306"><ele>234.25</ele><time>2026-04-02T10:38:30.908Z</time></trkpt><trkpt lat="43.2962102" lon="11.3680635"><ele>234.0</ele><time>2026-04-02T10:38:31.908Z</time></trkpt><trkpt lat="43.2960604" lon="11.3681215"><ele>236.75</ele><time>2026-04-02T10:38:32.908Z</time></trkpt><trkpt lat="43.295923" lon="11.3681828"><ele>239.5</ele><time>2026-04-02T10:38:33.908Z</time></trkpt><trkpt lat="43.2958108" lon="11.3682329"><ele>242.25</ele><time>2026-04-02T10:38:34.908Z</time></trkpt><trkpt lat="43.2957132" lon="11.368268"><ele>245.0</ele><time>2026-04-02T10:38:35.908Z</time></trkpt><trkpt lat="43.2956175" lon="11.3682787"><ele>243.25</ele><time>2026-04-02T10:38:36.908Z</time></trkpt><trkpt lat="43.2955142" lon="11.3682933"><ele>241.5</ele><time>2026-04-02T10:38:37.908Z</time></trkpt><trkpt lat="43.2953978" lon="11.3683256"><ele>239.75</ele><time>2026-04-02T10:38:38.907Z</time></trkpt><trkpt lat="43.2952895" lon="11.3683705"><ele>238.0</ele><time>2026-04-02T10:38:39.908Z</time></trkpt><trkpt lat="43.2951814" lon="11.3684304"><ele>238.0</ele><time>2026-04-02T10:38:40.908Z</time></trkpt><trkpt lat="43.2950771" lon="11.3685134"><ele>238.0</ele><time>2026-04-02T10:38:41.908Z</time></trkpt><trkpt lat="43.2949787" lon="11.3686445"><ele>238.0</ele><time>2026-04-02T10:38:42.908Z</time></trkpt><trkpt lat="43.2948997" lon="11.368793"><ele>238.0</ele><time>2026-04-02T10:38:43.908Z</time></trkpt><trkpt lat="43.294822" lon="11.3689383"><ele>235.33333333333331</ele><time>2026-04-02T10:38:44.908Z</time></trkpt><trkpt lat="43.2947169" lon="11.3690774"><ele>232.66666666666669</ele><time>2026-04-02T10:38:45.908Z</time></trkpt><trkpt lat="43.2945873" lon="11.369198"><ele>230.0</ele><time>2026-04-02T10:38:46.908Z</time></trkpt><trkpt lat="43.2944439" lon="11.3693093"><ele>230.0</ele><time>2026-04-02T10:38:47.908Z</time></trkpt><trkpt lat="43.2942773" lon="11.3694257"><ele>230.0</ele><time>2026-04-02T10:38:48.907Z</time></trkpt><trkpt lat="43.2941021" lon="11.369538"><ele>230.0</ele><time>2026-04-02T10:38:49.908Z</time></trkpt><trkpt lat="43.2939416" lon="11.3696429"><ele>228.33333333333334</ele><time>2026-04-02T10:38:50.908Z</time></trkpt><trkpt lat="43.2937967" lon="11.3697345"><ele>226.66666666666669</ele><time>2026-04-02T10:38:51.908Z</time></trkpt><trkpt lat="43.2936495" lon="11.3698149"><ele>225.0</ele><time>2026-04-02T10:38:52.908Z</time></trkpt><trkpt lat="43.2935027" lon="11.3698916"><ele>225.0</ele><time>2026-04-02T10:38:53.907Z</time></trkpt><trkpt lat="43.2933489" lon="11.3699556"><ele>225.0</ele><time>2026-04-02T10:38:54.908Z</time></trkpt><trkpt lat="43.2931897" lon="11.3700074"><ele>225.0</ele><time>2026-04-02T10:38:55.908Z</time></trkpt><trkpt lat="43.2930208" lon="11.3700441"><ele>224.0</ele><time>2026-04-02T10:38:56.908Z</time></trkpt><trkpt lat="43.292841" lon="11.370057"><ele>223.0</ele><time>2026-04-02T10:38:57.908Z</time></trkpt><trkpt lat="43.2926589" lon="11.3700507"><ele>222.0</ele><time>2026-04-02T10:38:58.908Z</time></trkpt><trkpt lat="43.2924879" lon="11.3700422"><ele>222.0</ele><time>2026-04-02T10:38:59.908Z</time></trkpt><trkpt lat="43.2923252" lon="11.3700376"><ele>222.0</ele><time>2026-04-02T10:39:00.908Z</time></trkpt><trkpt lat="43.2921588" lon="11.370037"><ele>222.0</ele><time>2026-04-02T10:39:01.908Z</time></trkpt><trkpt lat="43.2919947" lon="11.3700516"><ele>222.25</ele><time>2026-04-02T10:39:02.908Z</time></trkpt><trkpt lat="43.2918449" lon="11.3700776"><ele>222.5</ele><time>2026-04-02T10:39:03.908Z</time></trkpt><trkpt lat="43.2917028" lon="11.3701148"><ele>222.75</ele><time>2026-04-02T10:39:04.908Z</time></trkpt><trkpt lat="43.2915706" lon="11.3701712"><ele>223.0</ele><time>2026-04-02T10:39:05.908Z</time></trkpt><trkpt lat="43.2914445" lon="11.3702451"><ele>223.5</ele><time>2026-04-02T10:39:06.908Z</time></trkpt><trkpt lat="43.2913243" lon="11.3703319"><ele>224.0</ele><time>2026-04-02T10:39:07.908Z</time></trkpt><trkpt lat="43.2912062" lon="11.3704191"><ele>224.5</ele><time>2026-04-02T10:39:08.908Z</time></trkpt><trkpt lat="43.2910877" lon="11.3704956"><ele>225.0</ele><time>2026-04-02T10:39:09.908Z</time></trkpt><trkpt lat="43.2909668" lon="11.3705494"><ele>225.0</ele><time>2026-04-02T10:39:10.908Z</time></trkpt><trkpt lat="43.2908541" lon="11.3705879"><ele>225.0</ele><time>2026-04-02T10:39:11.908Z</time></trkpt><trkpt lat="43.2907422" lon="11.3706351"><ele>225.0</ele><time>2026-04-02T10:39:12.907Z</time></trkpt><trkpt lat="43.2906414" lon="11.3707048"><ele>225.0</ele><time>2026-04-02T10:39:13.908Z</time></trkpt><trkpt lat="43.2905454" lon="11.3707769"><ele>224.2</ele><time>2026-04-02T10:39:14.908Z</time></trkpt><trkpt lat="43.2904808" lon="11.3708965"><ele>223.4</ele><time>2026-04-02T10:39:15.908Z</time></trkpt><trkpt lat="43.2904296" lon="11.3710109"><ele>222.60000000000002</ele><time>2026-04-02T10:39:16.908Z</time></trkpt><trkpt lat="43.290381" lon="11.3711308"><ele>221.8</ele><time>2026-04-02T10:39:17.908Z</time></trkpt><trkpt lat="43.2903162" lon="11.3712464"><ele>221.0</ele><time>2026-04-02T10:39:18.908Z</time></trkpt><trkpt lat="43.2902449" lon="11.3713423"><ele>221.66666666666669</ele><time>2026-04-02T10:39:19.908Z</time></trkpt><trkpt lat="43.2901612" lon="11.3714219"><ele>222.33333333333334</ele><time>2026-04-02T10:39:20.908Z</time></trkpt><trkpt lat="43.29007" lon="11.3714713"><ele>223.0</ele><time>2026-04-02T10:39:21.908Z</time></trkpt><trkpt lat="43.2899932" lon="11.371533"><ele>223.66666666666669</ele><time>2026-04-02T10:39:22.907Z</time></trkpt><trkpt lat="43.2899359" lon="11.3716168"><ele>224.33333333333334</ele><time>2026-04-02T10:39:23.908Z</time></trkpt><trkpt lat="43.2899152" lon="11.371714"><ele>225.0</ele><time>2026-04-02T10:39:24.908Z</time></trkpt><trkpt lat="43.2899134" lon="11.3718033"><ele>225.0</ele><time>2026-04-02T10:39:25.908Z</time></trkpt><trkpt lat="43.2898853" lon="11.3719734"><ele>225.0</ele><time>2026-04-02T10:39:27.908Z</time></trkpt><trkpt lat="43.2898422" lon="11.3720585"><ele>225.0</ele><time>2026-04-02T10:39:28.908Z</time></trkpt><trkpt lat="43.2897775" lon="11.37212"><ele>225.0</ele><time>2026-04-02T10:39:29.908Z</time></trkpt><trkpt lat="43.2897022" lon="11.3721789"><ele>225.0</ele><time>2026-04-02T10:39:30.908Z</time></trkpt><trkpt lat="43.2896224" lon="11.3722319"><ele>223.66666666666666</ele><time>2026-04-02T10:39:31.907Z</time></trkpt><trkpt lat="43.2895269" lon="11.3722767"><ele>222.33333333333331</ele><time>2026-04-02T10:39:32.908Z</time></trkpt><trkpt lat="43.2894423" lon="11.3723222"><ele>221.0</ele><time>2026-04-02T10:39:33.908Z</time></trkpt><trkpt lat="43.2893639" lon="11.372363"><ele>219.66666666666666</ele><time>2026-04-02T10:39:34.908Z</time></trkpt><trkpt lat="43.289295" lon="11.3723932"><ele>218.33333333333331</ele><time>2026-04-02T10:39:35.908Z</time></trkpt><trkpt lat="43.2892268" lon="11.3724286"><ele>217.0</ele><time>2026-04-02T10:39:36.907Z</time></trkpt><trkpt lat="43.2891768" lon="11.3724835"><ele>217.0</ele><time>2026-04-02T10:39:37.908Z</time></trkpt><trkpt lat="43.2891378" lon="11.3725701"><ele>217.0</ele><time>2026-04-02T10:39:38.907Z</time></trkpt><trkpt lat="43.2891157" lon="11.3726864"><ele>217.0</ele><time>2026-04-02T10:39:39.908Z</time></trkpt><trkpt lat="43.2890983" lon="11.3728068"><ele>217.0</ele><time>2026-04-02T10:39:40.907Z</time></trkpt><trkpt lat="43.2891043" lon="11.3729507"><ele>217.0</ele><time>2026-04-02T10:39:41.908Z</time></trkpt><trkpt lat="43.289101" lon="11.3731053"><ele>215.25</ele><time>2026-04-02T10:39:42.908Z</time></trkpt><trkpt lat="43.2890954" lon="11.3732609"><ele>213.5</ele><time>2026-04-02T10:39:43.908Z</time></trkpt><trkpt lat="43.2890975" lon="11.3734177"><ele>211.75</ele><time>2026-04-02T10:39:44.908Z</time></trkpt><trkpt lat="43.2890974" lon="11.3735787"><ele>210.0</ele><time>2026-04-02T10:39:45.908Z</time></trkpt><trkpt lat="43.2891007" lon="11.3737361"><ele>208.0</ele><time>2026-04-02T10:39:46.908Z</time></trkpt><trkpt lat="43.2891069" lon="11.3739008"><ele>206.0</ele><time>2026-04-02T10:39:47.908Z</time></trkpt><trkpt lat="43.2891114" lon="11.3740642"><ele>204.0</ele><time>2026-04-02T10:39:48.908Z</time></trkpt><trkpt lat="43.2891137" lon="11.3742341"><ele>202.0</ele><time>2026-04-02T10:39:49.908Z</time></trkpt><trkpt lat="43.2891181" lon="11.3744105"><ele>202.0</ele><time>2026-04-02T10:39:50.908Z</time></trkpt><trkpt lat="43.2891239" lon="11.374588"><ele>202.0</ele><time>2026-04-02T10:39:51.907Z</time></trkpt><trkpt lat="43.289131" lon="11.3747642"><ele>202.0</ele><time>2026-04-02T10:39:52.908Z</time></trkpt><trkpt lat="43.2891381" lon="11.3749491"><ele>202.0</ele><time>2026-04-02T10:39:53.908Z</time></trkpt><trkpt lat="43.2891476" lon="11.3751437"><ele>200.0</ele><time>2026-04-02T10:39:54.908Z</time></trkpt><trkpt lat="43.2891563" lon="11.3753267"><ele>198.0</ele><time>2026-04-02T10:39:55.908Z</time></trkpt><trkpt lat="43.2891613" lon="11.3755098"><ele>196.0</ele><time>2026-04-02T10:39:56.908Z</time></trkpt><trkpt lat="43.2891656" lon="11.3756806"><ele>194.0</ele><time>2026-04-02T10:39:57.908Z</time></trkpt><trkpt lat="43.2891679" lon="11.3758463"><ele>192.39999999999998</ele><time>2026-04-02T10:39:58.908Z</time></trkpt><trkpt lat="43.2891715" lon="11.3760013"><ele>190.8</ele><time>2026-04-02T10:39:59.908Z</time></trkpt><trkpt lat="43.2891748" lon="11.3761518"><ele>189.2</ele><time>2026-04-02T10:40:00.908Z</time></trkpt><trkpt lat="43.2891781" lon="11.3762977"><ele>187.60000000000002</ele><time>2026-04-02T10:40:01.908Z</time></trkpt><trkpt lat="43.2891823" lon="11.3764401"><ele>186.0</ele><time>2026-04-02T10:40:02.908Z</time></trkpt><trkpt lat="43.2891894" lon="11.3765917"><ele>185.8</ele><time>2026-04-02T10:40:03.907Z</time></trkpt><trkpt lat="43.2892032" lon="11.3767298"><ele>185.60000000000002</ele><time>2026-04-02T10:40:04.908Z</time></trkpt><trkpt lat="43.2892197" lon="11.3768783"><ele>185.4</ele><time>2026-04-02T10:40:05.908Z</time></trkpt><trkpt lat="43.2892308" lon="11.3770316"><ele>185.2</ele><time>2026-04-02T10:40:06.908Z</time></trkpt><trkpt lat="43.2892463" lon="11.3771778"><ele>185.0</ele><time>2026-04-02T10:40:07.908Z</time></trkpt><trkpt lat="43.2892565" lon="11.3773218"><ele>185.0</ele><time>2026-04-02T10:40:08.908Z</time></trkpt><trkpt lat="43.2892622" lon="11.3774645"><ele>185.0</ele><time>2026-04-02T10:40:09.908Z</time></trkpt><trkpt lat="43.289252" lon="11.3775937"><ele>185.0</ele><time>2026-04-02T10:40:10.908Z</time></trkpt><trkpt lat="43.2892263" lon="11.377699"><ele>185.0</ele><time>2026-04-02T10:40:11.908Z</time></trkpt><trkpt lat="43.2891871" lon="11.3777817"><ele>185.0</ele><time>2026-04-02T10:40:12.908Z</time></trkpt><trkpt lat="43.2891397" lon="11.3778572"><ele>185.0</ele><time>2026-04-02T10:40:13.908Z</time></trkpt><trkpt lat="43.2890426" lon="11.3779176"><ele>185.0</ele><time>2026-04-02T10:40:14.908Z</time></trkpt><trkpt lat="43.2889462" lon="11.3779752"><ele>185.0</ele><time>2026-04-02T10:40:15.908Z</time></trkpt><trkpt lat="43.2888323" lon="11.3780331"><ele>185.0</ele><time>2026-04-02T10:40:16.908Z</time></trkpt><trkpt lat="43.2887247" lon="11.378093"><ele>185.0</ele><time>2026-04-02T10:40:17.908Z</time></trkpt><trkpt lat="43.2886258" lon="11.3781453"><ele>185.0</ele><time>2026-04-02T10:40:18.908Z</time></trkpt><trkpt lat="43.2885261" lon="11.3782044"><ele>187.6</ele><time>2026-04-02T10:40:19.908Z</time></trkpt><trkpt lat="43.288434" lon="11.3782718"><ele>190.2</ele><time>2026-04-02T10:40:20.908Z</time></trkpt><trkpt lat="43.2883519" lon="11.3783495"><ele>192.8</ele><time>2026-04-02T10:40:21.908Z</time></trkpt><trkpt lat="43.2882769" lon="11.3784445"><ele>195.4</ele><time>2026-04-02T10:40:22.907Z</time></trkpt><trkpt lat="43.2882091" lon="11.3785284"><ele>198.0</ele><time>2026-04-02T10:40:23.908Z</time></trkpt><trkpt lat="43.2881449" lon="11.3786227"><ele>198.0</ele><time>2026-04-02T10:40:24.907Z</time></trkpt><trkpt lat="43.2880934" lon="11.3787024"><ele>198.0</ele><time>2026-04-02T10:40:25.908Z</time></trkpt><trkpt lat="43.2880536" lon="11.3787809"><ele>198.0</ele><time>2026-04-02T10:40:26.908Z</time></trkpt><trkpt lat="43.2880294" lon="11.3788683"><ele>198.0</ele><time>2026-04-02T10:40:27.908Z</time></trkpt><trkpt lat="43.288021" lon="11.3789771"><ele>198.0</ele><time>2026-04-02T10:40:28.908Z</time></trkpt><trkpt lat="43.2880178" lon="11.3790966"><ele>198.0</ele><time>2026-04-02T10:40:29.908Z</time></trkpt><trkpt lat="43.2880224" lon="11.3792021"><ele>198.33333333333334</ele><time>2026-04-02T10:40:30.908Z</time></trkpt><trkpt lat="43.2880242" lon="11.3792906"><ele>198.66666666666669</ele><time>2026-04-02T10:40:31.908Z</time></trkpt><trkpt lat="43.2880134" lon="11.3794155"><ele>199.0</ele><time>2026-04-02T10:40:33.907Z</time></trkpt><trkpt lat="43.287975" lon="11.3794919"><ele>199.33333333333334</ele><time>2026-04-02T10:40:35.908Z</time></trkpt><trkpt lat="43.2879201" lon="11.379536"><ele>199.66666666666669</ele><time>2026-04-02T10:40:36.908Z</time></trkpt><trkpt lat="43.287822" lon="11.3795926"><ele>200.0</ele><time>2026-04-02T10:40:37.908Z</time></trkpt><trkpt lat="43.2877132" lon="11.3796521"><ele>199.33333333333334</ele><time>2026-04-02T10:40:38.908Z</time></trkpt><trkpt lat="43.2875818" lon="11.3797175"><ele>198.66666666666669</ele><time>2026-04-02T10:40:39.908Z</time></trkpt><trkpt lat="43.2874378" lon="11.3797893"><ele>198.0</ele><time>2026-04-02T10:40:40.908Z</time></trkpt><trkpt lat="43.2872825" lon="11.3798392"><ele>197.0</ele><time>2026-04-02T10:40:41.908Z</time></trkpt><trkpt lat="43.287113" lon="11.3798474"><ele>196.0</ele><time>2026-04-02T10:40:42.908Z</time></trkpt><trkpt lat="43.2869378" lon="11.3798382"><ele>195.0</ele><time>2026-04-02T10:40:43.908Z</time></trkpt><trkpt lat="43.2867724" lon="11.3798064"><ele>195.0</ele><time>2026-04-02T10:40:44.907Z</time></trkpt><trkpt lat="43.2866094" lon="11.3797629"><ele>195.0</ele><time>2026-04-02T10:40:45.908Z</time></trkpt><trkpt lat="43.2864582" lon="11.3796972"><ele>195.0</ele><time>2026-04-02T10:40:46.908Z</time></trkpt><trkpt lat="43.2863139" lon="11.379623"><ele>195.5</ele><time>2026-04-02T10:40:47.907Z</time></trkpt><trkpt lat="43.286179" lon="11.3795373"><ele>196.0</ele><time>2026-04-02T10:40:48.908Z</time></trkpt><trkpt lat="43.2860491" lon="11.3794523"><ele>196.5</ele><time>2026-04-02T10:40:49.908Z</time></trkpt><trkpt lat="43.2859275" lon="11.3793668"><ele>197.0</ele><time>2026-04-02T10:40:50.908Z</time></trkpt><trkpt lat="43.285816" lon="11.3792828"><ele>197.0</ele><time>2026-04-02T10:40:51.907Z</time></trkpt><trkpt lat="43.2857134" lon="11.3792054"><ele>197.0</ele><time>2026-04-02T10:40:52.908Z</time></trkpt><trkpt lat="43.2856174" lon="11.3791363"><ele>197.0</ele><time>2026-04-02T10:40:53.908Z</time></trkpt><trkpt lat="43.2855172" lon="11.3790831"><ele>197.0</ele><time>2026-04-02T10:40:54.908Z</time></trkpt><trkpt lat="43.2854118" lon="11.379037"><ele>197.0</ele><time>2026-04-02T10:40:55.908Z</time></trkpt><trkpt lat="43.2852975" lon="11.3789987"><ele>196.25</ele><time>2026-04-02T10:40:56.908Z</time></trkpt><trkpt lat="43.2851752" lon="11.3789746"><ele>195.5</ele><time>2026-04-02T10:40:57.908Z</time></trkpt><trkpt lat="43.2850485" lon="11.3789568"><ele>194.75</ele><time>2026-04-02T10:40:58.908Z</time></trkpt><trkpt lat="43.2849275" lon="11.378942"><ele>194.0</ele><time>2026-04-02T10:40:59.908Z</time></trkpt><trkpt lat="43.2848078" lon="11.378933"><ele>193.75</ele><time>2026-04-02T10:41:00.908Z</time></trkpt><trkpt lat="43.2846859" lon="11.3789236"><ele>193.5</ele><time>2026-04-02T10:41:01.907Z</time></trkpt><trkpt lat="43.2845682" lon="11.3789103"><ele>193.25</ele><time>2026-04-02T10:41:02.908Z</time></trkpt><trkpt lat="43.284447" lon="11.3788879"><ele>193.0</ele><time>2026-04-02T10:41:03.907Z</time></trkpt><trkpt lat="43.2843281" lon="11.3788467"><ele>191.8</ele><time>2026-04-02T10:41:04.908Z</time></trkpt><trkpt lat="43.2842199" lon="11.378787"><ele>190.60000000000002</ele><time>2026-04-02T10:41:05.907Z</time></trkpt><trkpt lat="43.2841267" lon="11.3787048"><ele>189.39999999999998</ele><time>2026-04-02T10:41:06.908Z</time></trkpt><trkpt lat="43.2840461" lon="11.3786013"><ele>188.2</ele><time>2026-04-02T10:41:07.908Z</time></trkpt><trkpt lat="43.2839799" lon="11.3784789"><ele>187.0</ele><time>2026-04-02T10:41:08.908Z</time></trkpt><trkpt lat="43.2839259" lon="11.3783414"><ele>185.8</ele><time>2026-04-02T10:41:09.908Z</time></trkpt><trkpt lat="43.2838765" lon="11.3782028"><ele>184.6</ele><time>2026-04-02T10:41:10.907Z</time></trkpt><trkpt lat="43.2838149" lon="11.378084"><ele>183.4</ele><time>2026-04-02T10:41:11.908Z</time></trkpt><trkpt lat="43.2837417" lon="11.3779788"><ele>182.20000000000002</ele><time>2026-04-02T10:41:12.908Z</time></trkpt><trkpt lat="43.2836545" lon="11.3778851"><ele>181.0</ele><time>2026-04-02T10:41:13.907Z</time></trkpt><trkpt lat="43.2835555" lon="11.3778123"><ele>180.5</ele><time>2026-04-02T10:41:14.907Z</time></trkpt><trkpt lat="43.2834462" lon="11.3777625"><ele>180.0</ele><time>2026-04-02T10:41:15.908Z</time></trkpt><trkpt lat="43.2833339" lon="11.3777331"><ele>179.5</ele><time>2026-04-02T10:41:16.908Z</time></trkpt><trkpt lat="43.2832204" lon="11.3777237"><ele>179.0</ele><time>2026-04-02T10:41:17.908Z</time></trkpt><trkpt lat="43.2831141" lon="11.3777396"><ele>178.79999999999998</ele><time>2026-04-02T10:41:18.908Z</time></trkpt><trkpt lat="43.2830037" lon="11.3777699"><ele>178.6</ele><time>2026-04-02T10:41:19.908Z</time></trkpt><trkpt lat="43.2828934" lon="11.3778078"><ele>178.4</ele><time>2026-04-02T10:41:20.908Z</time></trkpt><trkpt lat="43.2827883" lon="11.3778442"><ele>178.2</ele><time>2026-04-02T10:41:21.908Z</time></trkpt><trkpt lat="43.2826811" lon="11.3778766"><ele>178.0</ele><time>2026-04-02T10:41:22.908Z</time></trkpt><trkpt lat="43.282576" lon="11.3779035"><ele>178.0</ele><time>2026-04-02T10:41:23.908Z</time></trkpt><trkpt lat="43.2824671" lon="11.3779077"><ele>178.0</ele><time>2026-04-02T10:41:24.908Z</time></trkpt><trkpt lat="43.2823659" lon="11.3778754"><ele>178.0</ele><time>2026-04-02T10:41:25.908Z</time></trkpt><trkpt lat="43.2822713" lon="11.3778158"><ele>178.0</ele><time>2026-04-02T10:41:26.908Z</time></trkpt><trkpt lat="43.2821835" lon="11.3777316"><ele>178.0</ele><time>2026-04-02T10:41:27.908Z</time></trkpt><trkpt lat="43.2821119" lon="11.3776285"><ele>177.8</ele><time>2026-04-02T10:41:28.908Z</time></trkpt><trkpt lat="43.2820512" lon="11.3775072"><ele>177.60000000000002</ele><time>2026-04-02T10:41:29.908Z</time></trkpt><trkpt lat="43.2820034" lon="11.3773788"><ele>177.39999999999998</ele><time>2026-04-02T10:41:30.908Z</time></trkpt><trkpt lat="43.2819676" lon="11.3772552"><ele>177.2</ele><time>2026-04-02T10:41:31.908Z</time></trkpt><trkpt lat="43.2819417" lon="11.3771294"><ele>177.0</ele><time>2026-04-02T10:41:32.908Z</time></trkpt><trkpt lat="43.2819204" lon="11.3770131"><ele>177.0</ele><time>2026-04-02T10:41:33.908Z</time></trkpt><trkpt lat="43.2818965" lon="11.3769078"><ele>177.0</ele><time>2026-04-02T10:41:34.908Z</time></trkpt><trkpt lat="43.2818755" lon="11.3768158"><ele>177.0</ele><time>2026-04-02T10:41:35.908Z</time></trkpt><trkpt lat="43.281866" lon="11.3767284"><ele>177.0</ele><time>2026-04-02T10:41:36.908Z</time></trkpt><trkpt lat="43.2819006" lon="11.3765763"><ele>177.0</ele><time>2026-04-02T10:41:38.908Z</time></trkpt><trkpt lat="43.2819588" lon="11.3764412"><ele>177.0</ele><time>2026-04-02T10:41:40.908Z</time></trkpt><trkpt lat="43.2819939" lon="11.3762825"><ele>177.0</ele><time>2026-04-02T10:41:42.908Z</time></trkpt><trkpt lat="43.281965" lon="11.3761233"><ele>177.0</ele><time>2026-04-02T10:41:44.908Z</time></trkpt><trkpt lat="43.2818798" lon="11.3759894"><ele>177.0</ele><time>2026-04-02T10:41:46.908Z</time></trkpt><trkpt lat="43.2818108" lon="11.3759351"><ele>177.0</ele><time>2026-04-02T10:41:47.908Z</time></trkpt><trkpt lat="43.2817279" lon="11.3758612"><ele>177.0</ele><time>2026-04-02T10:41:48.907Z</time></trkpt><trkpt lat="43.28165" lon="11.3757468"><ele>177.0</ele><time>2026-04-02T10:41:49.908Z</time></trkpt><trkpt lat="43.2815999" lon="11.3755989"><ele>177.0</ele><time>2026-04-02T10:41:50.908Z</time></trkpt><trkpt lat="43.2815688" lon="11.3754133"><ele>177.0</ele><time>2026-04-02T10:41:51.907Z</time></trkpt><trkpt lat="43.2815549" lon="11.3752025"><ele>177.0</ele><time>2026-04-02T10:41:52.908Z</time></trkpt><trkpt lat="43.2815655" lon="11.3749694"><ele>178.66666666666666</ele><time>2026-04-02T10:41:53.908Z</time></trkpt><trkpt lat="43.2815994" lon="11.3747418"><ele>180.33333333333331</ele><time>2026-04-02T10:41:54.908Z</time></trkpt><trkpt lat="43.2816619" lon="11.3745178"><ele>182.0</ele><time>2026-04-02T10:41:55.908Z</time></trkpt><trkpt lat="43.2817514" lon="11.3742886"><ele>184.33333333333331</ele><time>2026-04-02T10:41:56.908Z</time></trkpt><trkpt lat="43.2818606" lon="11.37406"><ele>186.66666666666666</ele><time>2026-04-02T10:41:57.908Z</time></trkpt><trkpt lat="43.2819729" lon="11.3738342"><ele>189.0</ele><time>2026-04-02T10:41:58.908Z</time></trkpt><trkpt lat="43.2820758" lon="11.3736096"><ele>190.33333333333331</ele><time>2026-04-02T10:41:59.908Z</time></trkpt><trkpt lat="43.2821582" lon="11.3733821"><ele>191.66666666666666</ele><time>2026-04-02T10:42:00.908Z</time></trkpt><trkpt lat="43.2822173" lon="11.3731405"><ele>193.0</ele><time>2026-04-02T10:42:01.908Z</time></trkpt><trkpt lat="43.282257" lon="11.3728746"><ele>193.66666666666666</ele><time>2026-04-02T10:42:02.908Z</time></trkpt><trkpt lat="43.2822874" lon="11.3725883"><ele>194.33333333333331</ele><time>2026-04-02T10:42:03.907Z</time></trkpt><trkpt lat="43.282308" lon="11.3722815"><ele>195.0</ele><time>2026-04-02T10:42:04.908Z</time></trkpt><trkpt lat="43.2823293" lon="11.3719701"><ele>197.0</ele><time>2026-04-02T10:42:05.908Z</time></trkpt><trkpt lat="43.2823533" lon="11.3716524"><ele>199.0</ele><time>2026-04-02T10:42:06.908Z</time></trkpt><trkpt lat="43.2823827" lon="11.3713367"><ele>199.66666666666666</ele><time>2026-04-02T10:42:07.907Z</time></trkpt><trkpt lat="43.282411" lon="11.3710427"><ele>200.33333333333331</ele><time>2026-04-02T10:42:08.908Z</time></trkpt><trkpt lat="43.2824452" lon="11.3707648"><ele>201.0</ele><time>2026-04-02T10:42:09.908Z</time></trkpt><trkpt lat="43.2825029" lon="11.3704986"><ele>202.33333333333331</ele><time>2026-04-02T10:42:10.908Z</time></trkpt><trkpt lat="43.2825587" lon="11.3702297"><ele>203.66666666666666</ele><time>2026-04-02T10:42:11.908Z</time></trkpt><trkpt lat="43.2826567" lon="11.369972"><ele>205.0</ele><time>2026-04-02T10:42:12.908Z</time></trkpt><trkpt lat="43.2827622" lon="11.3697194"><ele>204.66666666666666</ele><time>2026-04-02T10:42:13.908Z</time></trkpt><trkpt lat="43.282878" lon="11.3694741"><ele>204.33333333333331</ele><time>2026-04-02T10:42:14.908Z</time></trkpt><trkpt lat="43.283001" lon="11.3692374"><ele>204.0</ele><time>2026-04-02T10:42:15.907Z</time></trkpt><trkpt lat="43.2831126" lon="11.3690193"><ele>205.33333333333331</ele><time>2026-04-02T10:42:16.907Z</time></trkpt><trkpt lat="43.2832145" lon="11.3688058"><ele>206.66666666666666</ele><time>2026-04-02T10:42:17.908Z</time></trkpt><trkpt lat="43.2833067" lon="11.3685843"><ele>208.0</ele><time>2026-04-02T10:42:18.908Z</time></trkpt><trkpt lat="43.2833827" lon="11.3683441"><ele>208.0</ele><time>2026-04-02T10:42:19.908Z</time></trkpt><trkpt lat="43.2834392" lon="11.3680888"><ele>208.0</ele><time>2026-04-02T10:42:20.908Z</time></trkpt><trkpt lat="43.283475" lon="11.3678145"><ele>208.0</ele><time>2026-04-02T10:42:21.907Z</time></trkpt><trkpt lat="43.2834831" lon="11.3675442"><ele>208.0</ele><time>2026-04-02T10:42:22.908Z</time></trkpt><trkpt lat="43.2834685" lon="11.3672858"><ele>208.0</ele><time>2026-04-02T10:42:23.908Z</time></trkpt><trkpt lat="43.2834211" lon="11.3670237"><ele>208.0</ele><time>2026-04-02T10:42:24.908Z</time></trkpt><trkpt lat="43.283344" lon="11.3667631"><ele>209.0</ele><time>2026-04-02T10:42:25.908Z</time></trkpt><trkpt lat="43.2832388" lon="11.366512"><ele>210.0</ele><time>2026-04-02T10:42:26.908Z</time></trkpt><trkpt lat="43.2831119" lon="11.3662804"><ele>211.0</ele><time>2026-04-02T10:42:27.908Z</time></trkpt><trkpt lat="43.2829619" lon="11.3660736"><ele>212.33333333333331</ele><time>2026-04-02T10:42:28.908Z</time></trkpt><trkpt lat="43.2828058" lon="11.3658986"><ele>213.66666666666669</ele><time>2026-04-02T10:42:29.908Z</time></trkpt><trkpt lat="43.2826445" lon="11.3657364"><ele>215.0</ele><time>2026-04-02T10:42:30.908Z</time></trkpt><trkpt lat="43.2824997" lon="11.3655728"><ele>215.0</ele><time>2026-04-02T10:42:31.908Z</time></trkpt><trkpt lat="43.282379" lon="11.3654028"><ele>215.0</ele><time>2026-04-02T10:42:32.908Z</time></trkpt><trkpt lat="43.2822757" lon="11.3652081"><ele>215.0</ele><time>2026-04-02T10:42:33.908Z</time></trkpt><trkpt lat="43.28221" lon="11.3649943"><ele>215.0</ele><time>2026-04-02T10:42:34.908Z</time></trkpt><trkpt lat="43.2821829" lon="11.3647606"><ele>215.0</ele><time>2026-04-02T10:42:35.908Z</time></trkpt><trkpt lat="43.2821912" lon="11.364509"><ele>215.0</ele><time>2026-04-02T10:42:36.908Z</time></trkpt><trkpt lat="43.2822169" lon="11.3642568"><ele>213.66666666666669</ele><time>2026-04-02T10:42:37.908Z</time></trkpt><trkpt lat="43.2822603" lon="11.3640065"><ele>212.33333333333331</ele><time>2026-04-02T10:42:38.908Z</time></trkpt><trkpt lat="43.282331" lon="11.3637583"><ele>211.0</ele><time>2026-04-02T10:42:39.908Z</time></trkpt><trkpt lat="43.2824305" lon="11.3635096"><ele>211.33333333333331</ele><time>2026-04-02T10:42:40.908Z</time></trkpt><trkpt lat="43.2825478" lon="11.3632587"><ele>211.66666666666669</ele><time>2026-04-02T10:42:41.908Z</time></trkpt><trkpt lat="43.2826804" lon="11.3630067"><ele>212.0</ele><time>2026-04-02T10:42:42.908Z</time></trkpt><trkpt lat="43.2828131" lon="11.3627482"><ele>212.0</ele><time>2026-04-02T10:42:43.908Z</time></trkpt><trkpt lat="43.2829383" lon="11.3624772"><ele>212.0</ele><time>2026-04-02T10:42:44.908Z</time></trkpt><trkpt lat="43.2830586" lon="11.3622018"><ele>219.0</ele><time>2026-04-02T10:42:45.908Z</time></trkpt><trkpt lat="43.2831667" lon="11.3619118"><ele>226.0</ele><time>2026-04-02T10:42:46.908Z</time></trkpt><trkpt lat="43.2832516" lon="11.3616008"><ele>224.5</ele><time>2026-04-02T10:42:47.907Z</time></trkpt><trkpt lat="43.2833186" lon="11.3612792"><ele>223.0</ele><time>2026-04-02T10:42:48.908Z</time></trkpt><trkpt lat="43.2833783" lon="11.3609585"><ele>223.0</ele><time>2026-04-02T10:42:49.908Z</time></trkpt><trkpt lat="43.2834552" lon="11.3606314"><ele>223.0</ele><time>2026-04-02T10:42:50.908Z</time></trkpt><trkpt lat="43.2835375" lon="11.3603015"><ele>220.0</ele><time>2026-04-02T10:42:51.908Z</time></trkpt><trkpt lat="43.2836295" lon="11.3599724"><ele>217.0</ele><time>2026-04-02T10:42:52.907Z</time></trkpt><trkpt lat="43.2837264" lon="11.3596477"><ele>216.0</ele><time>2026-04-02T10:42:53.908Z</time></trkpt><trkpt lat="43.2838228" lon="11.359323"><ele>215.0</ele><time>2026-04-02T10:42:54.908Z</time></trkpt><trkpt lat="43.2839142" lon="11.3589972"><ele>222.0</ele><time>2026-04-02T10:42:55.908Z</time></trkpt><trkpt lat="43.2839964" lon="11.3586766"><ele>229.0</ele><time>2026-04-02T10:42:56.908Z</time></trkpt><trkpt lat="43.2840772" lon="11.3583594"><ele>229.0</ele><time>2026-04-02T10:42:57.907Z</time></trkpt><trkpt lat="43.2841536" lon="11.3580479"><ele>229.0</ele><time>2026-04-02T10:42:58.908Z</time></trkpt><trkpt lat="43.2842269" lon="11.3577349"><ele>228.5</ele><time>2026-04-02T10:42:59.908Z</time></trkpt><trkpt lat="43.2842936" lon="11.3574285"><ele>228.0</ele><time>2026-04-02T10:43:00.908Z</time></trkpt><trkpt lat="43.2843595" lon="11.3571318"><ele>227.66666666666669</ele><time>2026-04-02T10:43:01.908Z</time></trkpt><trkpt lat="43.2844367" lon="11.3568514"><ele>227.33333333333334</ele><time>2026-04-02T10:43:02.908Z</time></trkpt><trkpt lat="43.2845142" lon="11.3565796"><ele>227.0</ele><time>2026-04-02T10:43:03.907Z</time></trkpt><trkpt lat="43.2845962" lon="11.3563207"><ele>226.66666666666669</ele><time>2026-04-02T10:43:04.908Z</time></trkpt><trkpt lat="43.2846831" lon="11.3560639"><ele>226.33333333333331</ele><time>2026-04-02T10:43:05.908Z</time></trkpt><trkpt lat="43.284772" lon="11.355821"><ele>226.0</ele><time>2026-04-02T10:43:06.908Z</time></trkpt><trkpt lat="43.284862" lon="11.3555966"><ele>229.33333333333331</ele><time>2026-04-02T10:43:07.907Z</time></trkpt><trkpt lat="43.2849429" lon="11.3553794"><ele>232.66666666666669</ele><time>2026-04-02T10:43:08.908Z</time></trkpt><trkpt lat="43.2850115" lon="11.3551747"><ele>236.0</ele><time>2026-04-02T10:43:09.907Z</time></trkpt><trkpt lat="43.2850625" lon="11.3549627"><ele>236.0</ele><time>2026-04-02T10:43:10.907Z</time></trkpt><trkpt lat="43.285089" lon="11.3547529"><ele>236.0</ele><time>2026-04-02T10:43:11.908Z</time></trkpt><trkpt lat="43.2850954" lon="11.3545476"><ele>236.0</ele><time>2026-04-02T10:43:12.908Z</time></trkpt><trkpt lat="43.2850263" lon="11.3543616"><ele>236.0</ele><time>2026-04-02T10:43:13.908Z</time></trkpt><trkpt lat="43.2849647" lon="11.3542035"><ele>236.0</ele><time>2026-04-02T10:43:14.908Z</time></trkpt><trkpt lat="43.284886" lon="11.3540652"><ele>236.0</ele><time>2026-04-02T10:43:15.908Z</time></trkpt><trkpt lat="43.2848053" lon="11.3539492"><ele>236.0</ele><time>2026-04-02T10:43:16.908Z</time></trkpt><trkpt lat="43.2847255" lon="11.3538405"><ele>236.0</ele><time>2026-04-02T10:43:17.908Z</time></trkpt><trkpt lat="43.2846543" lon="11.3537264"><ele>236.00000000000003</ele><time>2026-04-02T10:43:18.908Z</time></trkpt><trkpt lat="43.2845893" lon="11.3536194"><ele>236.00000000000003</ele><time>2026-04-02T10:43:19.908Z</time></trkpt><trkpt lat="43.2845358" lon="11.3535196"><ele>236.0</ele><time>2026-04-02T10:43:20.908Z</time></trkpt><trkpt lat="43.2844929" lon="11.3534344"><ele>236.0</ele><time>2026-04-02T10:43:21.908Z</time></trkpt><trkpt lat="43.284426" lon="11.3533477"><ele>236.0</ele><time>2026-04-02T10:43:23.908Z</time></trkpt><trkpt lat="43.284339" lon="11.3533302"><ele>236.00000000000003</ele><time>2026-04-02T10:43:25.908Z</time></trkpt><trkpt lat="43.2842571" lon="11.3533606"><ele>236.00000000000003</ele><time>2026-04-02T10:43:26.908Z</time></trkpt><trkpt lat="43.2841581" lon="11.3534252"><ele>236.0</ele><time>2026-04-02T10:43:27.908Z</time></trkpt><trkpt lat="43.2840217" lon="11.3535071"><ele>236.0</ele><time>2026-04-02T10:43:28.908Z</time></trkpt><trkpt lat="43.2838621" lon="11.3535668"><ele>236.66666666666669</ele><time>2026-04-02T10:43:29.908Z</time></trkpt><trkpt lat="43.2836816" lon="11.3536152"><ele>237.33333333333331</ele><time>2026-04-02T10:43:30.908Z</time></trkpt><trkpt lat="43.2835093" lon="11.3536432"><ele>238.0</ele><time>2026-04-02T10:43:31.907Z</time></trkpt><trkpt lat="43.2833307" lon="11.3536519"><ele>238.0</ele><time>2026-04-02T10:43:32.908Z</time></trkpt><trkpt lat="43.2831553" lon="11.3536312"><ele>238.0</ele><time>2026-04-02T10:43:33.908Z</time></trkpt><trkpt lat="43.2829973" lon="11.3536017"><ele>238.0</ele><time>2026-04-02T10:43:34.907Z</time></trkpt><trkpt lat="43.2828478" lon="11.3535714"><ele>238.0</ele><time>2026-04-02T10:43:35.908Z</time></trkpt><trkpt lat="43.2826993" lon="11.3535405"><ele>238.0</ele><time>2026-04-02T10:43:36.908Z</time></trkpt><trkpt lat="43.2825518" lon="11.3535065"><ele>238.0</ele><time>2026-04-02T10:43:37.908Z</time></trkpt><trkpt lat="43.2824065" lon="11.353473"><ele>238.0</ele><time>2026-04-02T10:43:38.908Z</time></trkpt><trkpt lat="43.2822574" lon="11.3534366"><ele>238.0</ele><time>2026-04-02T10:43:39.908Z</time></trkpt><trkpt lat="43.2821086" lon="11.3534004"><ele>238.0</ele><time>2026-04-02T10:43:40.908Z</time></trkpt><trkpt lat="43.2819588" lon="11.353363"><ele>238.0</ele><time>2026-04-02T10:43:41.908Z</time></trkpt><trkpt lat="43.2818019" lon="11.3533305"><ele>238.0</ele><time>2026-04-02T10:43:42.908Z</time></trkpt><trkpt lat="43.2816427" lon="11.3532964"><ele>238.0</ele><time>2026-04-02T10:43:43.908Z</time></trkpt><trkpt lat="43.2814872" lon="11.3532591"><ele>238.0</ele><time>2026-04-02T10:43:44.908Z</time></trkpt><trkpt lat="43.2813265" lon="11.3532151"><ele>238.0</ele><time>2026-04-02T10:43:45.908Z</time></trkpt><trkpt lat="43.281161" lon="11.3531646"><ele>238.0</ele><time>2026-04-02T10:43:46.908Z</time></trkpt><trkpt lat="43.2809893" lon="11.3531097"><ele>238.0</ele><time>2026-04-02T10:43:47.908Z</time></trkpt><trkpt lat="43.2808138" lon="11.3530513"><ele>237.0</ele><time>2026-04-02T10:43:48.908Z</time></trkpt><trkpt lat="43.2806351" lon="11.3529861"><ele>236.0</ele><time>2026-04-02T10:43:49.908Z</time></trkpt><trkpt lat="43.2804486" lon="11.3529233"><ele>235.0</ele><time>2026-04-02T10:43:50.908Z</time></trkpt><trkpt lat="43.2802687" lon="11.3528569"><ele>233.33333333333331</ele><time>2026-04-02T10:43:51.908Z</time></trkpt><trkpt lat="43.2800883" lon="11.3527981"><ele>231.66666666666669</ele><time>2026-04-02T10:43:52.908Z</time></trkpt><trkpt lat="43.2798997" lon="11.3527476"><ele>230.0</ele><time>2026-04-02T10:43:53.908Z</time></trkpt><trkpt lat="43.2797006" lon="11.3526926"><ele>229.0</ele><time>2026-04-02T10:43:54.907Z</time></trkpt><trkpt lat="43.2794975" lon="11.3526461"><ele>228.0</ele><time>2026-04-02T10:43:55.908Z</time></trkpt><trkpt lat="43.2792906" lon="11.3526158"><ele>227.0</ele><time>2026-04-02T10:43:56.908Z</time></trkpt><trkpt lat="43.2790824" lon="11.3526001"><ele>227.0</ele><time>2026-04-02T10:43:57.908Z</time></trkpt><trkpt lat="43.2788809" lon="11.3526202"><ele>227.0</ele><time>2026-04-02T10:43:58.908Z</time></trkpt><trkpt lat="43.27869" lon="11.3526768"><ele>227.0</ele><time>2026-04-02T10:43:59.907Z</time></trkpt><trkpt lat="43.2785066" lon="11.3527686"><ele>227.0</ele><time>2026-04-02T10:44:00.908Z</time></trkpt><trkpt lat="43.2783168" lon="11.3528842"><ele>227.0</ele><time>2026-04-02T10:44:01.908Z</time></trkpt><trkpt lat="43.2781256" lon="11.3530028"><ele>227.0</ele><time>2026-04-02T10:44:02.908Z</time></trkpt><trkpt lat="43.2779321" lon="11.3531251"><ele>228.33333333333334</ele><time>2026-04-02T10:44:03.908Z</time></trkpt><trkpt lat="43.2777485" lon="11.3532433"><ele>229.66666666666669</ele><time>2026-04-02T10:44:04.908Z</time></trkpt><trkpt lat="43.2775644" lon="11.3533552"><ele>231.0</ele><time>2026-04-02T10:44:05.908Z</time></trkpt><trkpt lat="43.2773736" lon="11.3534601"><ele>231.33333333333331</ele><time>2026-04-02T10:44:06.907Z</time></trkpt><trkpt lat="43.2771787" lon="11.3535473"><ele>231.66666666666666</ele><time>2026-04-02T10:44:07.908Z</time></trkpt><trkpt lat="43.2769747" lon="11.353621"><ele>232.0</ele><time>2026-04-02T10:44:08.908Z</time></trkpt><trkpt lat="43.2767601" lon="11.3536742"><ele>232.0</ele><time>2026-04-02T10:44:09.908Z</time></trkpt><trkpt lat="43.2765355" lon="11.3537223"><ele>232.0</ele><time>2026-04-02T10:44:10.908Z</time></trkpt><trkpt lat="43.2763025" lon="11.3537676"><ele>229.5</ele><time>2026-04-02T10:44:11.907Z</time></trkpt><trkpt lat="43.2760656" lon="11.3538131"><ele>227.0</ele><time>2026-04-02T10:44:12.908Z</time></trkpt><trkpt lat="43.2758216" lon="11.3538596"><ele>224.5</ele><time>2026-04-02T10:44:13.908Z</time></trkpt><trkpt lat="43.2755786" lon="11.3539061"><ele>222.0</ele><time>2026-04-02T10:44:14.908Z</time></trkpt><trkpt lat="43.2753522" lon="11.3539516"><ele>222.0</ele><time>2026-04-02T10:44:15.908Z</time></trkpt><trkpt lat="43.2751357" lon="11.3539944"><ele>222.0</ele><time>2026-04-02T10:44:16.908Z</time></trkpt><trkpt lat="43.2749365" lon="11.3540517"><ele>222.0</ele><time>2026-04-02T10:44:17.908Z</time></trkpt><trkpt lat="43.2747615" lon="11.3541254"><ele>223.0</ele><time>2026-04-02T10:44:18.907Z</time></trkpt><trkpt lat="43.274601" lon="11.3542239"><ele>224.0</ele><time>2026-04-02T10:44:19.908Z</time></trkpt><trkpt lat="43.2744569" lon="11.3543648"><ele>225.0</ele><time>2026-04-02T10:44:20.907Z</time></trkpt><trkpt lat="43.2743224" lon="11.3545395"><ele>224.0</ele><time>2026-04-02T10:44:21.908Z</time></trkpt><trkpt lat="43.2741884" lon="11.3547337"><ele>223.0</ele><time>2026-04-02T10:44:22.908Z</time></trkpt><trkpt lat="43.2740446" lon="11.3549408"><ele>222.0</ele><time>2026-04-02T10:44:23.908Z</time></trkpt><trkpt lat="43.2738851" lon="11.3551394"><ele>222.33333333333331</ele><time>2026-04-02T10:44:24.908Z</time></trkpt><trkpt lat="43.2737172" lon="11.3553289"><ele>222.66666666666666</ele><time>2026-04-02T10:44:25.908Z</time></trkpt><trkpt lat="43.2735454" lon="11.3555279"><ele>223.0</ele><time>2026-04-02T10:44:26.908Z</time></trkpt><trkpt lat="43.2733722" lon="11.3557306"><ele>223.0</ele><time>2026-04-02T10:44:27.908Z</time></trkpt><trkpt lat="43.2731957" lon="11.3559349"><ele>223.0</ele><time>2026-04-02T10:44:28.908Z</time></trkpt><trkpt lat="43.2730125" lon="11.3561454"><ele>225.0</ele><time>2026-04-02T10:44:29.908Z</time></trkpt><trkpt lat="43.2728295" lon="11.3563506"><ele>227.0</ele><time>2026-04-02T10:44:30.908Z</time></trkpt><trkpt lat="43.272644" lon="11.3565547"><ele>227.0</ele><time>2026-04-02T10:44:31.908Z</time></trkpt><trkpt lat="43.2724659" lon="11.3567477"><ele>227.0</ele><time>2026-04-02T10:44:32.908Z</time></trkpt><trkpt lat="43.2722998" lon="11.3569341"><ele>227.0</ele><time>2026-04-02T10:44:33.908Z</time></trkpt><trkpt lat="43.2721655" lon="11.3570852"><ele>226.2</ele><time>2026-04-02T10:44:34.908Z</time></trkpt><trkpt lat="43.2720551" lon="11.3572061"><ele>225.39999999999998</ele><time>2026-04-02T10:44:35.908Z</time></trkpt><trkpt lat="43.2719658" lon="11.3573009"><ele>224.60000000000002</ele><time>2026-04-02T10:44:36.908Z</time></trkpt><trkpt lat="43.2718937" lon="11.3573526"><ele>223.8</ele><time>2026-04-02T10:44:37.908Z</time></trkpt><trkpt lat="43.27182" lon="11.3573587"><ele>223.0</ele><time>2026-04-02T10:44:38.908Z</time></trkpt><trkpt lat="43.2717383" lon="11.3573162"><ele>223.0</ele><time>2026-04-02T10:44:39.908Z</time></trkpt><trkpt lat="43.2716476" lon="11.3572277"><ele>223.0</ele><time>2026-04-02T10:44:40.908Z</time></trkpt><trkpt lat="43.2715485" lon="11.357119"><ele>223.0</ele><time>2026-04-02T10:44:41.908Z</time></trkpt><trkpt lat="43.2714319" lon="11.3569892"><ele>223.0</ele><time>2026-04-02T10:44:42.908Z</time></trkpt><trkpt lat="43.2713192" lon="11.3568636"><ele>222.75</ele><time>2026-04-02T10:44:43.908Z</time></trkpt><trkpt lat="43.2712084" lon="11.3567427"><ele>222.5</ele><time>2026-04-02T10:44:44.908Z</time></trkpt><trkpt lat="43.2710989" lon="11.3566333"><ele>222.25</ele><time>2026-04-02T10:44:45.908Z</time></trkpt><trkpt lat="43.2709946" lon="11.3565207"><ele>222.0</ele><time>2026-04-02T10:44:46.908Z</time></trkpt><trkpt lat="43.2708858" lon="11.3564074"><ele>220.0</ele><time>2026-04-02T10:44:47.908Z</time></trkpt><trkpt lat="43.2707849" lon="11.3563099"><ele>218.0</ele><time>2026-04-02T10:44:48.908Z</time></trkpt><trkpt lat="43.2706971" lon="11.3562162"><ele>216.0</ele><time>2026-04-02T10:44:49.907Z</time></trkpt><trkpt lat="43.2706196" lon="11.3561226"><ele>214.0</ele><time>2026-04-02T10:44:50.907Z</time></trkpt><trkpt lat="43.2705399" lon="11.356039"><ele>212.0</ele><time>2026-04-02T10:44:51.908Z</time></trkpt><trkpt lat="43.2704588" lon="11.355969"><ele>211.6</ele><time>2026-04-02T10:44:52.908Z</time></trkpt><trkpt lat="43.27037" lon="11.3559189"><ele>211.2</ele><time>2026-04-02T10:44:53.908Z</time></trkpt><trkpt lat="43.270269" lon="11.3558868"><ele>210.8</ele><time>2026-04-02T10:44:54.907Z</time></trkpt><trkpt lat="43.2701585" lon="11.3558694"><ele>210.4</ele><time>2026-04-02T10:44:55.908Z</time></trkpt><trkpt lat="43.2700511" lon="11.3558727"><ele>210.0</ele><time>2026-04-02T10:44:56.908Z</time></trkpt><trkpt lat="43.2699373" lon="11.3558884"><ele>210.0</ele><time>2026-04-02T10:44:57.908Z</time></trkpt><trkpt lat="43.2698289" lon="11.355916"><ele>210.0</ele><time>2026-04-02T10:44:58.908Z</time></trkpt><trkpt lat="43.2697238" lon="11.3559561"><ele>210.0</ele><time>2026-04-02T10:44:59.908Z</time></trkpt><trkpt lat="43.2696215" lon="11.3560091"><ele>210.0</ele><time>2026-04-02T10:45:00.908Z</time></trkpt><trkpt lat="43.2695212" lon="11.3560834"><ele>210.0</ele><time>2026-04-02T10:45:01.908Z</time></trkpt><trkpt lat="43.2694185" lon="11.3561742"><ele>208.0</ele><time>2026-04-02T10:45:02.908Z</time></trkpt><trkpt lat="43.2693213" lon="11.3562815"><ele>206.0</ele><time>2026-04-02T10:45:03.908Z</time></trkpt><trkpt lat="43.2692362" lon="11.356398"><ele>204.0</ele><time>2026-04-02T10:45:04.908Z</time></trkpt><trkpt lat="43.2691607" lon="11.3565324"><ele>202.0</ele><time>2026-04-02T10:45:05.907Z</time></trkpt><trkpt lat="43.2690923" lon="11.3566753"><ele>202.0</ele><time>2026-04-02T10:45:06.908Z</time></trkpt><trkpt lat="43.2690384" lon="11.3568251"><ele>202.0</ele><time>2026-04-02T10:45:07.908Z</time></trkpt><trkpt lat="43.2689957" lon="11.3569781"><ele>202.0</ele><time>2026-04-02T10:45:08.908Z</time></trkpt><trkpt lat="43.2689678" lon="11.3571282"><ele>202.0</ele><time>2026-04-02T10:45:09.908Z</time></trkpt><trkpt lat="43.2689523" lon="11.3572816"><ele>202.5</ele><time>2026-04-02T10:45:10.907Z</time></trkpt><trkpt lat="43.268947" lon="11.3574504"><ele>203.0</ele><time>2026-04-02T10:45:11.908Z</time></trkpt><trkpt lat="43.2689491" lon="11.357627"><ele>203.5</ele><time>2026-04-02T10:45:12.908Z</time></trkpt><trkpt lat="43.2689449" lon="11.3578055"><ele>204.0</ele><time>2026-04-02T10:45:13.907Z</time></trkpt><trkpt lat="43.2689408" lon="11.3579801"><ele>201.0</ele><time>2026-04-02T10:45:14.908Z</time></trkpt><trkpt lat="43.2689345" lon="11.3581476"><ele>198.0</ele><time>2026-04-02T10:45:15.908Z</time></trkpt><trkpt lat="43.2689188" lon="11.3583011"><ele>195.0</ele><time>2026-04-02T10:45:16.908Z</time></trkpt><trkpt lat="43.2688923" lon="11.3584446"><ele>192.0</ele><time>2026-04-02T10:45:17.907Z</time></trkpt><trkpt lat="43.2688559" lon="11.3585791"><ele>189.0</ele><time>2026-04-02T10:45:18.908Z</time></trkpt><trkpt lat="43.2688099" lon="11.3587226"><ele>189.0</ele><time>2026-04-02T10:45:19.908Z</time></trkpt><trkpt lat="43.2687488" lon="11.3588593"><ele>189.0</ele><time>2026-04-02T10:45:20.908Z</time></trkpt><trkpt lat="43.268668" lon="11.3589854"><ele>189.0</ele><time>2026-04-02T10:45:21.908Z</time></trkpt><trkpt lat="43.268571" lon="11.3591033"><ele>189.0</ele><time>2026-04-02T10:45:22.908Z</time></trkpt><trkpt lat="43.2684585" lon="11.3592048"><ele>189.25</ele><time>2026-04-02T10:45:23.908Z</time></trkpt><trkpt lat="43.2683286" lon="11.3592839"><ele>189.5</ele><time>2026-04-02T10:45:24.908Z</time></trkpt><trkpt lat="43.2681909" lon="11.3593423"><ele>189.75</ele><time>2026-04-02T10:45:25.907Z</time></trkpt><trkpt lat="43.2680528" lon="11.3593694"><ele>190.0</ele><time>2026-04-02T10:45:26.908Z</time></trkpt><trkpt lat="43.2679125" lon="11.3593675"><ele>188.66666666666669</ele><time>2026-04-02T10:45:27.908Z</time></trkpt><trkpt lat="43.2677675" lon="11.3593389"><ele>187.33333333333334</ele><time>2026-04-02T10:45:28.908Z</time></trkpt><trkpt lat="43.2676193" lon="11.3592865"><ele>186.0</ele><time>2026-04-02T10:45:29.907Z</time></trkpt><trkpt lat="43.2674664" lon="11.3592224"><ele>186.0</ele><time>2026-04-02T10:45:30.908Z</time></trkpt><trkpt lat="43.2673089" lon="11.3591588"><ele>186.0</ele><time>2026-04-02T10:45:31.908Z</time></trkpt><trkpt lat="43.2671517" lon="11.3590941"><ele>186.0</ele><time>2026-04-02T10:45:32.907Z</time></trkpt><trkpt lat="43.2669903" lon="11.3590247"><ele>185.75</ele><time>2026-04-02T10:45:33.908Z</time></trkpt><trkpt lat="43.2668363" lon="11.3589669"><ele>185.5</ele><time>2026-04-02T10:45:34.908Z</time></trkpt><trkpt lat="43.2667009" lon="11.3589035"><ele>185.25</ele><time>2026-04-02T10:45:35.908Z</time></trkpt><trkpt lat="43.2665727" lon="11.3588465"><ele>185.0</ele><time>2026-04-02T10:45:36.908Z</time></trkpt><trkpt lat="43.2664412" lon="11.3587854"><ele>185.0</ele><time>2026-04-02T10:45:37.908Z</time></trkpt><trkpt lat="43.266307" lon="11.3587333"><ele>185.0</ele><time>2026-04-02T10:45:38.908Z</time></trkpt><trkpt lat="43.2661562" lon="11.358668"><ele>185.0</ele><time>2026-04-02T10:45:39.908Z</time></trkpt><trkpt lat="43.2659999" lon="11.3586018"><ele>185.0</ele><time>2026-04-02T10:45:40.907Z</time></trkpt><trkpt lat="43.2658443" lon="11.3585335"><ele>185.0</ele><time>2026-04-02T10:45:41.908Z</time></trkpt><trkpt lat="43.2656991" lon="11.3584717"><ele>185.0</ele><time>2026-04-02T10:45:42.908Z</time></trkpt><trkpt lat="43.2655601" lon="11.3584041"><ele>184.75</ele><time>2026-04-02T10:45:43.908Z</time></trkpt><trkpt lat="43.2654261" lon="11.3583453"><ele>184.5</ele><time>2026-04-02T10:45:44.908Z</time></trkpt><trkpt lat="43.265295" lon="11.3582852"><ele>184.25</ele><time>2026-04-02T10:45:45.908Z</time></trkpt><trkpt lat="43.2651726" lon="11.3582355"><ele>184.0</ele><time>2026-04-02T10:45:46.908Z</time></trkpt><trkpt lat="43.265057" lon="11.3581959"><ele>184.0</ele><time>2026-04-02T10:45:47.908Z</time></trkpt><trkpt lat="43.2649484" lon="11.358179"><ele>184.0</ele><time>2026-04-02T10:45:48.908Z</time></trkpt><trkpt lat="43.264841" lon="11.358189"><ele>184.0</ele><time>2026-04-02T10:45:49.908Z</time></trkpt><trkpt lat="43.2647376" lon="11.3582351"><ele>184.0</ele><time>2026-04-02T10:45:50.908Z</time></trkpt><trkpt lat="43.2646406" lon="11.3583187"><ele>184.0</ele><time>2026-04-02T10:45:51.908Z</time></trkpt><trkpt lat="43.2645512" lon="11.3584325"><ele>184.0</ele><time>2026-04-02T10:45:52.908Z</time></trkpt><trkpt lat="43.2644801" lon="11.3585804"><ele>184.0</ele><time>2026-04-02T10:45:53.908Z</time></trkpt><trkpt lat="43.2643929" lon="11.3587363"><ele>184.0</ele><time>2026-04-02T10:45:54.908Z</time></trkpt><trkpt lat="43.2642965" lon="11.3588966"><ele>184.0</ele><time>2026-04-02T10:45:55.908Z</time></trkpt><trkpt lat="43.264201" lon="11.3590311"><ele>184.0</ele><time>2026-04-02T10:45:56.908Z</time></trkpt><trkpt lat="43.2640906" lon="11.3591586"><ele>184.0</ele><time>2026-04-02T10:45:57.907Z</time></trkpt><trkpt lat="43.2639605" lon="11.3592738"><ele>184.0</ele><time>2026-04-02T10:45:58.908Z</time></trkpt><trkpt lat="43.263818" lon="11.3593801"><ele>183.66666666666669</ele><time>2026-04-02T10:45:59.908Z</time></trkpt><trkpt lat="43.2636748" lon="11.3594871"><ele>183.33333333333334</ele><time>2026-04-02T10:46:00.908Z</time></trkpt><trkpt lat="43.2635235" lon="11.3596054"><ele>183.0</ele><time>2026-04-02T10:46:01.908Z</time></trkpt><trkpt lat="43.2633731" lon="11.3597404"><ele>182.66666666666666</ele><time>2026-04-02T10:46:02.908Z</time></trkpt><trkpt lat="43.2632179" lon="11.3598939"><ele>182.33333333333331</ele><time>2026-04-02T10:46:03.908Z</time></trkpt><trkpt lat="43.2630706" lon="11.360054"><ele>182.0</ele><time>2026-04-02T10:46:04.907Z</time></trkpt><trkpt lat="43.2629241" lon="11.3602158"><ele>182.33333333333331</ele><time>2026-04-02T10:46:05.908Z</time></trkpt><trkpt lat="43.2627778" lon="11.3603742"><ele>182.66666666666666</ele><time>2026-04-02T10:46:06.908Z</time></trkpt><trkpt lat="43.2626351" lon="11.3605402"><ele>183.0</ele><time>2026-04-02T10:46:07.908Z</time></trkpt><trkpt lat="43.2624989" lon="11.3607124"><ele>183.0</ele><time>2026-04-02T10:46:08.908Z</time></trkpt><trkpt lat="43.2623666" lon="11.3608862"><ele>183.0</ele><time>2026-04-02T10:46:09.908Z</time></trkpt><trkpt lat="43.2622406" lon="11.3610469"><ele>183.0</ele><time>2026-04-02T10:46:10.908Z</time></trkpt><trkpt lat="43.2621042" lon="11.3611981"><ele>182.66666666666666</ele><time>2026-04-02T10:46:11.908Z</time></trkpt><trkpt lat="43.261961" lon="11.3613382"><ele>182.33333333333331</ele><time>2026-04-02T10:46:12.908Z</time></trkpt><trkpt lat="43.2618139" lon="11.3614687"><ele>182.0</ele><time>2026-04-02T10:46:13.908Z</time></trkpt><trkpt lat="43.2616637" lon="11.361587"><ele>182.0</ele><time>2026-04-02T10:46:14.908Z</time></trkpt><trkpt lat="43.2615068" lon="11.3616897"><ele>182.0</ele><time>2026-04-02T10:46:15.908Z</time></trkpt><trkpt lat="43.2613466" lon="11.3617834"><ele>182.0</ele><time>2026-04-02T10:46:16.908Z</time></trkpt><trkpt lat="43.2611852" lon="11.3618577"><ele>182.0</ele><time>2026-04-02T10:46:17.908Z</time></trkpt><trkpt lat="43.2610274" lon="11.3619081"><ele>182.0</ele><time>2026-04-02T10:46:18.907Z</time></trkpt><trkpt lat="43.2608542" lon="11.3619427"><ele>182.0</ele><time>2026-04-02T10:46:19.908Z</time></trkpt><trkpt lat="43.2606743" lon="11.3619449"><ele>183.0</ele><time>2026-04-02T10:46:20.908Z</time></trkpt><trkpt lat="43.2604887" lon="11.3619196"><ele>184.0</ele><time>2026-04-02T10:46:21.908Z</time></trkpt><trkpt lat="43.2602804" lon="11.3618726"><ele>185.0</ele><time>2026-04-02T10:46:22.908Z</time></trkpt><trkpt lat="43.2600614" lon="11.3618119"><ele>185.0</ele><time>2026-04-02T10:46:23.908Z</time></trkpt><trkpt lat="43.2598687" lon="11.361745"><ele>185.0</ele><time>2026-04-02T10:46:24.908Z</time></trkpt><trkpt lat="43.2596786" lon="11.3616677"><ele>185.0</ele><time>2026-04-02T10:46:25.908Z</time></trkpt><trkpt lat="43.2594906" lon="11.3615865"><ele>185.0</ele><time>2026-04-02T10:46:26.908Z</time></trkpt><trkpt lat="43.2593217" lon="11.3614955"><ele>185.0</ele><time>2026-04-02T10:46:27.908Z</time></trkpt><trkpt lat="43.2591522" lon="11.3614046"><ele>185.0</ele><time>2026-04-02T10:46:28.908Z</time></trkpt><trkpt lat="43.2589915" lon="11.3613182"><ele>188.33333333333331</ele><time>2026-04-02T10:46:29.907Z</time></trkpt><trkpt lat="43.2588368" lon="11.3611993"><ele>191.66666666666666</ele><time>2026-04-02T10:46:30.908Z</time></trkpt><trkpt lat="43.2586783" lon="11.3610637"><ele>195.0</ele><time>2026-04-02T10:46:31.908Z</time></trkpt><trkpt lat="43.2585173" lon="11.3609143"><ele>195.0</ele><time>2026-04-02T10:46:32.908Z</time></trkpt><trkpt lat="43.2583731" lon="11.3607758"><ele>195.0</ele><time>2026-04-02T10:46:33.908Z</time></trkpt><trkpt lat="43.2582427" lon="11.3606532"><ele>195.0</ele><time>2026-04-02T10:46:34.908Z</time></trkpt><trkpt lat="43.2581177" lon="11.3605375"><ele>195.0</ele><time>2026-04-02T10:46:35.908Z</time></trkpt><trkpt lat="43.257998" lon="11.3604355"><ele>195.0</ele><time>2026-04-02T10:46:36.908Z</time></trkpt><trkpt lat="43.2578716" lon="11.3603558"><ele>195.0</ele><time>2026-04-02T10:46:37.908Z</time></trkpt><trkpt lat="43.2577246" lon="11.3602791"><ele>195.0</ele><time>2026-04-02T10:46:38.908Z</time></trkpt><trkpt lat="43.2575778" lon="11.3602141"><ele>195.0</ele><time>2026-04-02T10:46:39.908Z</time></trkpt><trkpt lat="43.2574331" lon="11.3601544"><ele>195.0</ele><time>2026-04-02T10:46:40.908Z</time></trkpt><trkpt lat="43.2572907" lon="11.3601064"><ele>195.0</ele><time>2026-04-02T10:46:41.908Z</time></trkpt><trkpt lat="43.2571391" lon="11.3600707"><ele>196.33333333333331</ele><time>2026-04-02T10:46:42.907Z</time></trkpt><trkpt lat="43.256985" lon="11.3600518"><ele>197.66666666666666</ele><time>2026-04-02T10:46:43.908Z</time></trkpt><trkpt lat="43.2568251" lon="11.3600547"><ele>199.0</ele><time>2026-04-02T10:46:44.907Z</time></trkpt><trkpt lat="43.2566527" lon="11.3600764"><ele>199.0</ele><time>2026-04-02T10:46:45.907Z</time></trkpt><trkpt lat="43.2564949" lon="11.3601028"><ele>199.0</ele><time>2026-04-02T10:46:46.908Z</time></trkpt><trkpt lat="43.2563494" lon="11.360136"><ele>199.0</ele><time>2026-04-02T10:46:47.908Z</time></trkpt><trkpt lat="43.2561991" lon="11.3601916"><ele>200.33333333333331</ele><time>2026-04-02T10:46:48.908Z</time></trkpt><trkpt lat="43.2560484" lon="11.3602723"><ele>201.66666666666669</ele><time>2026-04-02T10:46:49.908Z</time></trkpt><trkpt lat="43.2558954" lon="11.3603738"><ele>203.0</ele><time>2026-04-02T10:46:50.908Z</time></trkpt><trkpt lat="43.2557333" lon="11.3604855"><ele>206.66666666666669</ele><time>2026-04-02T10:46:51.908Z</time></trkpt><trkpt lat="43.2555828" lon="11.3605901"><ele>210.33333333333331</ele><time>2026-04-02T10:46:52.908Z</time></trkpt><trkpt lat="43.2554455" lon="11.3606953"><ele>214.0</ele><time>2026-04-02T10:46:53.908Z</time></trkpt><trkpt lat="43.2553111" lon="11.3608276"><ele>214.0</ele><time>2026-04-02T10:46:54.908Z</time></trkpt><trkpt lat="43.2551868" lon="11.3609793"><ele>214.0</ele><time>2026-04-02T10:46:55.908Z</time></trkpt><trkpt lat="43.2550741" lon="11.3611478"><ele>214.0</ele><time>2026-04-02T10:46:56.908Z</time></trkpt><trkpt lat="43.2549724" lon="11.3613258"><ele>214.0</ele><time>2026-04-02T10:46:57.907Z</time></trkpt><trkpt lat="43.2548774" lon="11.3614983"><ele>214.0</ele><time>2026-04-02T10:46:58.908Z</time></trkpt><trkpt lat="43.2547973" lon="11.3616526"><ele>214.0</ele><time>2026-04-02T10:46:59.908Z</time></trkpt><trkpt lat="43.2547218" lon="11.3617832"><ele>214.0</ele><time>2026-04-02T10:47:00.907Z</time></trkpt><trkpt lat="43.25465" lon="11.3618892"><ele>214.99999999999997</ele><time>2026-04-02T10:47:01.908Z</time></trkpt><trkpt lat="43.2545786" lon="11.3619876"><ele>216.0</ele><time>2026-04-02T10:47:02.908Z</time></trkpt><trkpt lat="43.2545067" lon="11.3620713"><ele>217.0</ele><time>2026-04-02T10:47:03.908Z</time></trkpt><trkpt lat="43.2544316" lon="11.3621319"><ele>218.0</ele><time>2026-04-02T10:47:04.908Z</time></trkpt><trkpt lat="43.2543681" lon="11.3621757"><ele>218.99999999999997</ele><time>2026-04-02T10:47:05.907Z</time></trkpt><trkpt lat="43.2543055" lon="11.3622154"><ele>220.0</ele><time>2026-04-02T10:47:06.908Z</time></trkpt><trkpt lat="43.2542292" lon="11.3622572"><ele>220.0</ele><time>2026-04-02T10:47:07.908Z</time></trkpt><trkpt lat="43.2541462" lon="11.362294"><ele>220.0</ele><time>2026-04-02T10:47:08.908Z</time></trkpt><trkpt lat="43.2540487" lon="11.3623267"><ele>220.0</ele><time>2026-04-02T10:47:09.907Z</time></trkpt><trkpt lat="43.25394" lon="11.362359"><ele>220.0</ele><time>2026-04-02T10:47:10.908Z</time></trkpt><trkpt lat="43.2538148" lon="11.362388"><ele>220.0</ele><time>2026-04-02T10:47:11.908Z</time></trkpt><trkpt lat="43.2536777" lon="11.362409"><ele>221.66666666666666</ele><time>2026-04-02T10:47:12.908Z</time></trkpt><trkpt lat="43.2535324" lon="11.3624357"><ele>223.33333333333331</ele><time>2026-04-02T10:47:13.908Z</time></trkpt><trkpt lat="43.2533717" lon="11.3624812"><ele>225.0</ele><time>2026-04-02T10:47:14.908Z</time></trkpt><trkpt lat="43.253213" lon="11.3625358"><ele>226.0</ele><time>2026-04-02T10:47:15.908Z</time></trkpt><trkpt lat="43.2530592" lon="11.3625994"><ele>227.0</ele><time>2026-04-02T10:47:16.908Z</time></trkpt><trkpt lat="43.252911" lon="11.3626717"><ele>228.0</ele><time>2026-04-02T10:47:17.908Z</time></trkpt><trkpt lat="43.2527634" lon="11.3627555"><ele>228.0</ele><time>2026-04-02T10:47:18.908Z</time></trkpt><trkpt lat="43.2526396" lon="11.3628316"><ele>228.0</ele><time>2026-04-02T10:47:19.908Z</time></trkpt><trkpt lat="43.2525251" lon="11.3629215"><ele>228.0</ele><time>2026-04-02T10:47:20.907Z</time></trkpt><trkpt lat="43.2524159" lon="11.3630229"><ele>228.0</ele><time>2026-04-02T10:47:21.908Z</time></trkpt><trkpt lat="43.2523213" lon="11.3631216"><ele>229.0</ele><time>2026-04-02T10:47:22.908Z</time></trkpt><trkpt lat="43.2522396" lon="11.3632184"><ele>230.0</ele><time>2026-04-02T10:47:23.908Z</time></trkpt><trkpt lat="43.2521628" lon="11.3633086"><ele>231.0</ele><time>2026-04-02T10:47:24.908Z</time></trkpt><trkpt lat="43.2520748" lon="11.3633889"><ele>232.0</ele><time>2026-04-02T10:47:25.907Z</time></trkpt><trkpt lat="43.251974" lon="11.3634649"><ele>233.0</ele><time>2026-04-02T10:47:26.908Z</time></trkpt><trkpt lat="43.2518547" lon="11.3635294"><ele>233.0</ele><time>2026-04-02T10:47:27.908Z</time></trkpt><trkpt lat="43.251724" lon="11.3635732"><ele>233.0</ele><time>2026-04-02T10:47:28.908Z</time></trkpt><trkpt lat="43.2515913" lon="11.3635892"><ele>233.0</ele><time>2026-04-02T10:47:29.908Z</time></trkpt><trkpt lat="43.2514525" lon="11.3635813"><ele>233.0</ele><time>2026-04-02T10:47:30.908Z</time></trkpt><trkpt lat="43.2513121" lon="11.3635469"><ele>230.33333333333334</ele><time>2026-04-02T10:47:31.907Z</time></trkpt><trkpt lat="43.2511669" lon="11.3634954"><ele>227.66666666666669</ele><time>2026-04-02T10:47:32.908Z</time></trkpt><trkpt lat="43.2510146" lon="11.3634307"><ele>225.0</ele><time>2026-04-02T10:47:33.908Z</time></trkpt><trkpt lat="43.2508567" lon="11.3633646"><ele>225.0</ele><time>2026-04-02T10:47:34.908Z</time></trkpt><trkpt lat="43.2506889" lon="11.3633062"><ele>225.0</ele><time>2026-04-02T10:47:35.908Z</time></trkpt><trkpt lat="43.2505263" lon="11.3632619"><ele>225.0</ele><time>2026-04-02T10:47:36.908Z</time></trkpt><trkpt lat="43.2503725" lon="11.3632221"><ele>224.5</ele><time>2026-04-02T10:47:37.908Z</time></trkpt><trkpt lat="43.2502229" lon="11.3631813"><ele>224.0</ele><time>2026-04-02T10:47:38.908Z</time></trkpt><trkpt lat="43.250082" lon="11.3631356"><ele>223.5</ele><time>2026-04-02T10:47:39.908Z</time></trkpt><trkpt lat="43.2499493" lon="11.3630972"><ele>223.0</ele><time>2026-04-02T10:47:40.908Z</time></trkpt><trkpt lat="43.2498218" lon="11.363069"><ele>224.25</ele><time>2026-04-02T10:47:41.908Z</time></trkpt><trkpt lat="43.2497045" lon="11.3630556"><ele>225.5</ele><time>2026-04-02T10:47:42.908Z</time></trkpt><trkpt lat="43.2495812" lon="11.3630625"><ele>226.75</ele><time>2026-04-02T10:47:43.908Z</time></trkpt><trkpt lat="43.2494561" lon="11.3630962"><ele>228.0</ele><time>2026-04-02T10:47:44.908Z</time></trkpt><trkpt lat="43.2493294" lon="11.3631508"><ele>228.0</ele><time>2026-04-02T10:47:45.908Z</time></trkpt><trkpt lat="43.2492011" lon="11.3632285"><ele>228.0</ele><time>2026-04-02T10:47:46.908Z</time></trkpt><trkpt lat="43.249086" lon="11.3633271"><ele>228.0</ele><time>2026-04-02T10:47:47.908Z</time></trkpt><trkpt lat="43.2489727" lon="11.3634565"><ele>228.0</ele><time>2026-04-02T10:47:48.907Z</time></trkpt><trkpt lat="43.2488548" lon="11.3636205"><ele>228.0</ele><time>2026-04-02T10:47:49.908Z</time></trkpt><trkpt lat="43.2487371" lon="11.3637896"><ele>228.0</ele><time>2026-04-02T10:47:50.908Z</time></trkpt><trkpt lat="43.2486298" lon="11.3639366"><ele>228.0</ele><time>2026-04-02T10:47:51.908Z</time></trkpt><trkpt lat="43.2485322" lon="11.3640673"><ele>227.75</ele><time>2026-04-02T10:47:52.908Z</time></trkpt><trkpt lat="43.2484429" lon="11.3641901"><ele>227.5</ele><time>2026-04-02T10:47:53.908Z</time></trkpt><trkpt lat="43.2483689" lon="11.3643273"><ele>227.25</ele><time>2026-04-02T10:47:54.908Z</time></trkpt><trkpt lat="43.248313" lon="11.3644659"><ele>227.0</ele><time>2026-04-02T10:47:55.908Z</time></trkpt><trkpt lat="43.2482772" lon="11.3646239"><ele>226.5</ele><time>2026-04-02T10:47:56.908Z</time></trkpt><trkpt lat="43.2482607" lon="11.3647961"><ele>226.0</ele><time>2026-04-02T10:47:57.908Z</time></trkpt><trkpt lat="43.2482592" lon="11.3649826"><ele>225.5</ele><time>2026-04-02T10:47:58.908Z</time></trkpt><trkpt lat="43.2482474" lon="11.3651501"><ele>225.0</ele><time>2026-04-02T10:47:59.908Z</time></trkpt><trkpt lat="43.2482149" lon="11.3653086"><ele>225.0</ele><time>2026-04-02T10:48:00.908Z</time></trkpt><trkpt lat="43.2481528" lon="11.3654702"><ele>225.0</ele><time>2026-04-02T10:48:01.908Z</time></trkpt><trkpt lat="43.2480624" lon="11.3656288"><ele>225.0</ele><time>2026-04-02T10:48:02.908Z</time></trkpt><trkpt lat="43.2479666" lon="11.3657597"><ele>225.0</ele><time>2026-04-02T10:48:03.908Z</time></trkpt><trkpt lat="43.2478651" lon="11.3658683"><ele>224.5</ele><time>2026-04-02T10:48:04.908Z</time></trkpt><trkpt lat="43.2477547" lon="11.3659551"><ele>224.0</ele><time>2026-04-02T10:48:05.908Z</time></trkpt><trkpt lat="43.2476149" lon="11.3660186"><ele>223.5</ele><time>2026-04-02T10:48:06.907Z</time></trkpt><trkpt lat="43.2474541" lon="11.366059"><ele>223.0</ele><time>2026-04-02T10:48:07.908Z</time></trkpt><trkpt lat="43.2472853" lon="11.3661037"><ele>222.33333333333331</ele><time>2026-04-02T10:48:08.908Z</time></trkpt><trkpt lat="43.2471142" lon="11.3661484"><ele>221.66666666666669</ele><time>2026-04-02T10:48:09.908Z</time></trkpt><trkpt lat="43.2469373" lon="11.366205"><ele>221.0</ele><time>2026-04-02T10:48:10.908Z</time></trkpt><trkpt lat="43.2467609" lon="11.3662689"><ele>221.0</ele><time>2026-04-02T10:48:11.908Z</time></trkpt><trkpt lat="43.2465963" lon="11.3663433"><ele>221.0</ele><time>2026-04-02T10:48:12.908Z</time></trkpt><trkpt lat="43.2464554" lon="11.3664192"><ele>221.0</ele><time>2026-04-02T10:48:13.908Z</time></trkpt><trkpt lat="43.2463345" lon="11.3664959"><ele>221.60000000000002</ele><time>2026-04-02T10:48:14.907Z</time></trkpt><trkpt lat="43.2462304" lon="11.3665754"><ele>222.20000000000002</ele><time>2026-04-02T10:48:15.908Z</time></trkpt><trkpt lat="43.246143" lon="11.3666597"><ele>222.79999999999998</ele><time>2026-04-02T10:48:16.908Z</time></trkpt><trkpt lat="43.2460637" lon="11.3667459"><ele>223.39999999999998</ele><time>2026-04-02T10:48:17.908Z</time></trkpt><trkpt lat="43.2459922" lon="11.3668304"><ele>224.0</ele><time>2026-04-02T10:48:18.908Z</time></trkpt><trkpt lat="43.2459178" lon="11.3669115"><ele>224.0</ele><time>2026-04-02T10:48:19.908Z</time></trkpt><trkpt lat="43.2458314" lon="11.367003"><ele>224.0</ele><time>2026-04-02T10:48:20.908Z</time></trkpt><trkpt lat="43.2457341" lon="11.3670954"><ele>224.0</ele><time>2026-04-02T10:48:21.908Z</time></trkpt><trkpt lat="43.2456176" lon="11.3671925"><ele>224.0</ele><time>2026-04-02T10:48:22.907Z</time></trkpt><trkpt lat="43.2454945" lon="11.3672761"><ele>222.66666666666669</ele><time>2026-04-02T10:48:23.908Z</time></trkpt><trkpt lat="43.2453536" lon="11.3673525"><ele>221.33333333333331</ele><time>2026-04-02T10:48:24.908Z</time></trkpt><trkpt lat="43.245209" lon="11.367416"><ele>220.0</ele><time>2026-04-02T10:48:25.908Z</time></trkpt><trkpt lat="43.2450555" lon="11.3674646"><ele>220.0</ele><time>2026-04-02T10:48:26.908Z</time></trkpt><trkpt lat="43.2448988" lon="11.3675154"><ele>220.0</ele><time>2026-04-02T10:48:27.908Z</time></trkpt><trkpt lat="43.2447365" lon="11.3675675"><ele>220.0</ele><time>2026-04-02T10:48:28.908Z</time></trkpt><trkpt lat="43.2445823" lon="11.3676131"><ele>220.75</ele><time>2026-04-02T10:48:29.908Z</time></trkpt><trkpt lat="43.2444426" lon="11.3676534"><ele>221.5</ele><time>2026-04-02T10:48:30.908Z</time></trkpt><trkpt lat="43.2443161" lon="11.3676937"><ele>222.25</ele><time>2026-04-02T10:48:31.908Z</time></trkpt><trkpt lat="43.2441938" lon="11.3677358"><ele>223.0</ele><time>2026-04-02T10:48:32.907Z</time></trkpt><trkpt lat="43.244077" lon="11.3677736"><ele>223.75</ele><time>2026-04-02T10:48:33.908Z</time></trkpt><trkpt lat="43.243961" lon="11.3678065"><ele>224.5</ele><time>2026-04-02T10:48:34.908Z</time></trkpt><trkpt lat="43.2438422" lon="11.3678422"><ele>225.25</ele><time>2026-04-02T10:48:35.908Z</time></trkpt><trkpt lat="43.2437201" lon="11.3678813"><ele>226.0</ele><time>2026-04-02T10:48:36.908Z</time></trkpt><trkpt lat="43.2435867" lon="11.3679117"><ele>226.0</ele><time>2026-04-02T10:48:37.908Z</time></trkpt><trkpt lat="43.2434656" lon="11.3679416"><ele>226.0</ele><time>2026-04-02T10:48:38.908Z</time></trkpt><trkpt lat="43.2433565" lon="11.367964"><ele>226.0</ele><time>2026-04-02T10:48:39.908Z</time></trkpt><trkpt lat="43.2432465" lon="11.3679891"><ele>226.0</ele><time>2026-04-02T10:48:40.908Z</time></trkpt><trkpt lat="43.2431418" lon="11.3680163"><ele>225.20000000000002</ele><time>2026-04-02T10:48:41.908Z</time></trkpt><trkpt lat="43.2430335" lon="11.3680537"><ele>224.40000000000003</ele><time>2026-04-02T10:48:42.908Z</time></trkpt><trkpt lat="43.2429225" lon="11.3681075"><ele>223.6</ele><time>2026-04-02T10:48:43.908Z</time></trkpt><trkpt lat="43.2428232" lon="11.3681638"><ele>222.8</ele><time>2026-04-02T10:48:44.908Z</time></trkpt><trkpt lat="43.2427319" lon="11.3682281"><ele>222.0</ele><time>2026-04-02T10:48:45.908Z</time></trkpt><trkpt lat="43.242643" lon="11.3683034"><ele>222.0</ele><time>2026-04-02T10:48:46.908Z</time></trkpt><trkpt lat="43.242556" lon="11.3683893"><ele>222.0</ele><time>2026-04-02T10:48:47.908Z</time></trkpt><trkpt lat="43.2424666" lon="11.3684973"><ele>222.0</ele><time>2026-04-02T10:48:48.908Z</time></trkpt><trkpt lat="43.242369" lon="11.3686154"><ele>222.0</ele><time>2026-04-02T10:48:49.908Z</time></trkpt><trkpt lat="43.2422629" lon="11.3687469"><ele>221.33333333333331</ele><time>2026-04-02T10:48:50.908Z</time></trkpt><trkpt lat="43.2421529" lon="11.368895"><ele>220.66666666666666</ele><time>2026-04-02T10:48:51.908Z</time></trkpt><trkpt lat="43.2420415" lon="11.3690447"><ele>220.0</ele><time>2026-04-02T10:48:52.908Z</time></trkpt><trkpt lat="43.2419388" lon="11.3691802"><ele>220.0</ele><time>2026-04-02T10:48:53.908Z</time></trkpt><trkpt lat="43.2418263" lon="11.3693215"><ele>220.0</ele><time>2026-04-02T10:48:54.908Z</time></trkpt><trkpt lat="43.2417132" lon="11.3694687"><ele>220.0</ele><time>2026-04-02T10:48:55.908Z</time></trkpt><trkpt lat="43.2415887" lon="11.36961"><ele>218.33333333333331</ele><time>2026-04-02T10:48:56.908Z</time></trkpt><trkpt lat="43.2414556" lon="11.3697602"><ele>216.66666666666669</ele><time>2026-04-02T10:48:57.908Z</time></trkpt><trkpt lat="43.2413213" lon="11.369904"><ele>215.0</ele><time>2026-04-02T10:48:58.908Z</time></trkpt><trkpt lat="43.2411915" lon="11.3700315"><ele>215.0</ele><time>2026-04-02T10:48:59.907Z</time></trkpt><trkpt lat="43.2410629" lon="11.3701466"><ele>215.0</ele><time>2026-04-02T10:49:00.907Z</time></trkpt><trkpt lat="43.2409441" lon="11.3702516"><ele>215.0</ele><time>2026-04-02T10:49:01.908Z</time></trkpt><trkpt lat="43.2408358" lon="11.3703472"><ele>215.0</ele><time>2026-04-02T10:49:02.908Z</time></trkpt><trkpt lat="43.2407354" lon="11.370446"><ele>215.0</ele><time>2026-04-02T10:49:03.908Z</time></trkpt><trkpt lat="43.2406415" lon="11.37055"><ele>215.0</ele><time>2026-04-02T10:49:04.908Z</time></trkpt><trkpt lat="43.2405527" lon="11.3706649"><ele>215.0</ele><time>2026-04-02T10:49:05.908Z</time></trkpt><trkpt lat="43.2404648" lon="11.3707874"><ele>215.0</ele><time>2026-04-02T10:49:06.908Z</time></trkpt><trkpt lat="43.2403743" lon="11.3709212"><ele>214.75</ele><time>2026-04-02T10:49:07.907Z</time></trkpt><trkpt lat="43.2402903" lon="11.3710707"><ele>214.5</ele><time>2026-04-02T10:49:08.908Z</time></trkpt><trkpt lat="43.2402013" lon="11.3712245"><ele>214.25</ele><time>2026-04-02T10:49:09.908Z</time></trkpt><trkpt lat="43.2401135" lon="11.3713848"><ele>214.0</ele><time>2026-04-02T10:49:10.908Z</time></trkpt><trkpt lat="43.2400277" lon="11.3715447"><ele>214.0</ele><time>2026-04-02T10:49:11.908Z</time></trkpt><trkpt lat="43.2399453" lon="11.3717115"><ele>214.0</ele><time>2026-04-02T10:49:12.908Z</time></trkpt><trkpt lat="43.2398673" lon="11.3718743"><ele>214.0</ele><time>2026-04-02T10:49:13.908Z</time></trkpt><trkpt lat="43.2397906" lon="11.3720344"><ele>214.0</ele><time>2026-04-02T10:49:14.908Z</time></trkpt><trkpt lat="43.2397175" lon="11.3721858"><ele>213.79999999999998</ele><time>2026-04-02T10:49:15.908Z</time></trkpt><trkpt lat="43.2396507" lon="11.3723223"><ele>213.59999999999997</ele><time>2026-04-02T10:49:16.908Z</time></trkpt><trkpt lat="43.2395799" lon="11.3724401"><ele>213.4</ele><time>2026-04-02T10:49:17.908Z</time></trkpt><trkpt lat="43.2395065" lon="11.3725363"><ele>213.2</ele><time>2026-04-02T10:49:18.907Z</time></trkpt><trkpt lat="43.2394099" lon="11.3726108"><ele>213.0</ele><time>2026-04-02T10:49:19.908Z</time></trkpt><trkpt lat="43.2392994" lon="11.3726491"><ele>213.0</ele><time>2026-04-02T10:49:20.907Z</time></trkpt><trkpt lat="43.2391628" lon="11.3726701"><ele>213.0</ele><time>2026-04-02T10:49:21.908Z</time></trkpt><trkpt lat="43.2390356" lon="11.3726754"><ele>213.0</ele><time>2026-04-02T10:49:22.908Z</time></trkpt><trkpt lat="43.238909" lon="11.3726866"><ele>213.0</ele><time>2026-04-02T10:49:23.908Z</time></trkpt><trkpt lat="43.2387815" lon="11.3727123"><ele>213.0</ele><time>2026-04-02T10:49:24.907Z</time></trkpt><trkpt lat="43.2386651" lon="11.3727608"><ele>213.0</ele><time>2026-04-02T10:49:25.908Z</time></trkpt><trkpt lat="43.2385562" lon="11.3728144"><ele>213.0</ele><time>2026-04-02T10:49:26.908Z</time></trkpt><trkpt lat="43.2384596" lon="11.3728727"><ele>213.0</ele><time>2026-04-02T10:49:27.908Z</time></trkpt><trkpt lat="43.2383791" lon="11.3729453"><ele>213.0</ele><time>2026-04-02T10:49:28.908Z</time></trkpt><trkpt lat="43.2383147" lon="11.3730345"><ele>211.4</ele><time>2026-04-02T10:49:29.908Z</time></trkpt><trkpt lat="43.238263" lon="11.3731425"><ele>209.8</ele><time>2026-04-02T10:49:30.908Z</time></trkpt><trkpt lat="43.2382335" lon="11.3732737"><ele>208.2</ele><time>2026-04-02T10:49:31.908Z</time></trkpt><trkpt lat="43.2382236" lon="11.3734236"><ele>206.6</ele><time>2026-04-02T10:49:32.908Z</time></trkpt><trkpt lat="43.2382314" lon="11.3736052"><ele>205.0</ele><time>2026-04-02T10:49:33.908Z</time></trkpt><trkpt lat="43.2382486" lon="11.3738121"><ele>204.75</ele><time>2026-04-02T10:49:34.908Z</time></trkpt><trkpt lat="43.238267" lon="11.3740068"><ele>204.5</ele><time>2026-04-02T10:49:35.908Z</time></trkpt><trkpt lat="43.238285" lon="11.374194"><ele>204.25</ele><time>2026-04-02T10:49:36.908Z</time></trkpt><trkpt lat="43.2382974" lon="11.3743712"><ele>204.0</ele><time>2026-04-02T10:49:37.908Z</time></trkpt><trkpt lat="43.2383037" lon="11.3745373"><ele>204.0</ele><time>2026-04-02T10:49:38.908Z</time></trkpt><trkpt lat="43.2382982" lon="11.3747054"><ele>204.0</ele><time>2026-04-02T10:49:39.908Z</time></trkpt><trkpt lat="43.2382746" lon="11.3748473"><ele>204.0</ele><time>2026-04-02T10:49:40.908Z</time></trkpt><trkpt lat="43.2382373" lon="11.3749611"><ele>204.0</ele><time>2026-04-02T10:49:41.908Z</time></trkpt><trkpt lat="43.238181" lon="11.3750636"><ele>204.0</ele><time>2026-04-02T10:49:42.908Z</time></trkpt><trkpt lat="43.2381011" lon="11.3751618"><ele>204.0</ele><time>2026-04-02T10:49:43.908Z</time></trkpt><trkpt lat="43.2380005" lon="11.375259"><ele>204.0</ele><time>2026-04-02T10:49:44.908Z</time></trkpt><trkpt lat="43.2378729" lon="11.3753691"><ele>204.0</ele><time>2026-04-02T10:49:45.908Z</time></trkpt><trkpt lat="43.2377299" lon="11.3755002"><ele>204.0</ele><time>2026-04-02T10:49:46.908Z</time></trkpt><trkpt lat="43.2375933" lon="11.3756409"><ele>202.75</ele><time>2026-04-02T10:49:47.908Z</time></trkpt><trkpt lat="43.237477" lon="11.3757743"><ele>201.5</ele><time>2026-04-02T10:49:48.908Z</time></trkpt><trkpt lat="43.2373656" lon="11.3758938"><ele>200.25</ele><time>2026-04-02T10:49:49.908Z</time></trkpt><trkpt lat="43.2372611" lon="11.3760076"><ele>199.0</ele><time>2026-04-02T10:49:50.908Z</time></trkpt><trkpt lat="43.2371687" lon="11.3761129"><ele>198.25</ele><time>2026-04-02T10:49:51.908Z</time></trkpt><trkpt lat="43.237074" lon="11.3762063"><ele>197.5</ele><time>2026-04-02T10:49:52.907Z</time></trkpt><trkpt lat="43.2369694" lon="11.3762728"><ele>196.75</ele><time>2026-04-02T10:49:53.908Z</time></trkpt><trkpt lat="43.2368447" lon="11.3763183"><ele>196.0</ele><time>2026-04-02T10:49:54.907Z</time></trkpt><trkpt lat="43.2367126" lon="11.3763348"><ele>196.0</ele><time>2026-04-02T10:49:55.908Z</time></trkpt><trkpt lat="43.2365824" lon="11.3763161"><ele>196.0</ele><time>2026-04-02T10:49:56.908Z</time></trkpt><trkpt lat="43.236476" lon="11.3762694"><ele>196.0</ele><time>2026-04-02T10:49:57.908Z</time></trkpt><trkpt lat="43.2363857" lon="11.3761881"><ele>196.0</ele><time>2026-04-02T10:49:58.908Z</time></trkpt><trkpt lat="43.236307" lon="11.3760758"><ele>193.5</ele><time>2026-04-02T10:49:59.908Z</time></trkpt><trkpt lat="43.2362534" lon="11.3759533"><ele>191.0</ele><time>2026-04-02T10:50:00.908Z</time></trkpt><trkpt lat="43.2362169" lon="11.3758039"><ele>188.5</ele><time>2026-04-02T10:50:01.908Z</time></trkpt><trkpt lat="43.2361976" lon="11.3756368"><ele>186.0</ele><time>2026-04-02T10:50:02.908Z</time></trkpt><trkpt lat="43.2361987" lon="11.3754815"><ele>185.0</ele><time>2026-04-02T10:50:03.908Z</time></trkpt><trkpt lat="43.2362202" lon="11.3753187"><ele>184.0</ele><time>2026-04-02T10:50:04.908Z</time></trkpt><trkpt lat="43.2362617" lon="11.3751638"><ele>183.0</ele><time>2026-04-02T10:50:05.908Z</time></trkpt><trkpt lat="43.2363273" lon="11.3750085"><ele>182.0</ele><time>2026-04-02T10:50:06.908Z</time></trkpt><trkpt lat="43.2363906" lon="11.3748762"><ele>182.0</ele><time>2026-04-02T10:50:07.908Z</time></trkpt><trkpt lat="43.2364451" lon="11.3747327"><ele>182.0</ele><time>2026-04-02T10:50:08.908Z</time></trkpt><trkpt lat="43.2364871" lon="11.3745766"><ele>182.0</ele><time>2026-04-02T10:50:09.908Z</time></trkpt><trkpt lat="43.236521" lon="11.3744234"><ele>182.0</ele><time>2026-04-02T10:50:10.908Z</time></trkpt><trkpt lat="43.2365477" lon="11.3742752"><ele>183.0</ele><time>2026-04-02T10:50:11.908Z</time></trkpt><trkpt lat="43.2365661" lon="11.374131"><ele>184.0</ele><time>2026-04-02T10:50:12.908Z</time></trkpt><trkpt lat="43.236573" lon="11.3739816"><ele>185.0</ele><time>2026-04-02T10:50:13.908Z</time></trkpt><trkpt lat="43.2365634" lon="11.3738416"><ele>186.0</ele><time>2026-04-02T10:50:14.908Z</time></trkpt><trkpt lat="43.2365326" lon="11.3737039"><ele>187.0</ele><time>2026-04-02T10:50:15.908Z</time></trkpt><trkpt lat="43.2364798" lon="11.3735786"><ele>186.0</ele><time>2026-04-02T10:50:16.908Z</time></trkpt><trkpt lat="43.2364013" lon="11.3734812"><ele>185.0</ele><time>2026-04-02T10:50:17.908Z</time></trkpt><trkpt lat="43.2363147" lon="11.3734153"><ele>184.0</ele><time>2026-04-02T10:50:18.908Z</time></trkpt><trkpt lat="43.2362156" lon="11.3733763"><ele>183.0</ele><time>2026-04-02T10:50:19.908Z</time></trkpt><trkpt lat="43.236119" lon="11.37337"><ele>182.0</ele><time>2026-04-02T10:50:20.908Z</time></trkpt><trkpt lat="43.236001" lon="11.3733802"><ele>182.0</ele><time>2026-04-02T10:50:21.908Z</time></trkpt><trkpt lat="43.2358568" lon="11.3733985"><ele>182.0</ele><time>2026-04-02T10:50:22.908Z</time></trkpt><trkpt lat="43.2356863" lon="11.3734169"><ele>182.0</ele><time>2026-04-02T10:50:23.908Z</time></trkpt><trkpt lat="43.2355047" lon="11.3734393"><ele>180.33333333333331</ele><time>2026-04-02T10:50:24.908Z</time></trkpt><trkpt lat="43.2353008" lon="11.3734584"><ele>178.66666666666666</ele><time>2026-04-02T10:50:25.908Z</time></trkpt><trkpt lat="43.2350852" lon="11.373477"><ele>177.0</ele><time>2026-04-02T10:50:26.908Z</time></trkpt><trkpt lat="43.2348704" lon="11.3734975"><ele>177.33333333333334</ele><time>2026-04-02T10:50:27.908Z</time></trkpt><trkpt lat="43.2346731" lon="11.3735157"><ele>177.66666666666669</ele><time>2026-04-02T10:50:28.908Z</time></trkpt><trkpt lat="43.2344909" lon="11.3735325"><ele>178.0</ele><time>2026-04-02T10:50:29.908Z</time></trkpt><trkpt lat="43.2343217" lon="11.3735478"><ele>178.0</ele><time>2026-04-02T10:50:30.908Z</time></trkpt><trkpt lat="43.2341622" lon="11.3735588"><ele>178.0</ele><time>2026-04-02T10:50:31.908Z</time></trkpt><trkpt lat="43.234" lon="11.3735713"><ele>178.0</ele><time>2026-04-02T10:50:32.908Z</time></trkpt><trkpt lat="43.2338457" lon="11.3735978"><ele>178.33333333333334</ele><time>2026-04-02T10:50:33.907Z</time></trkpt><trkpt lat="43.2336759" lon="11.3736584"><ele>178.66666666666666</ele><time>2026-04-02T10:50:34.908Z</time></trkpt><trkpt lat="43.2335006" lon="11.373757"><ele>179.0</ele><time>2026-04-02T10:50:35.908Z</time></trkpt><trkpt lat="43.2333078" lon="11.3738844"><ele>179.0</ele><time>2026-04-02T10:50:36.908Z</time></trkpt><trkpt lat="43.2331012" lon="11.3740296"><ele>179.0</ele><time>2026-04-02T10:50:37.908Z</time></trkpt><trkpt lat="43.2329072" lon="11.3741718"><ele>179.0</ele><time>2026-04-02T10:50:38.908Z</time></trkpt><trkpt lat="43.2327063" lon="11.3743145"><ele>179.0</ele><time>2026-04-02T10:50:39.908Z</time></trkpt><trkpt lat="43.2325063" lon="11.374455"><ele>179.0</ele><time>2026-04-02T10:50:40.908Z</time></trkpt><trkpt lat="43.2323134" lon="11.3745963"><ele>179.0</ele><time>2026-04-02T10:50:41.908Z</time></trkpt><trkpt lat="43.2321171" lon="11.3747375"><ele>179.0</ele><time>2026-04-02T10:50:42.907Z</time></trkpt><trkpt lat="43.2319189" lon="11.3748772"><ele>179.0</ele><time>2026-04-02T10:50:43.908Z</time></trkpt><trkpt lat="43.2317185" lon="11.3750214"><ele>179.0</ele><time>2026-04-02T10:50:44.907Z</time></trkpt><trkpt lat="43.2315208" lon="11.375167"><ele>181.5</ele><time>2026-04-02T10:50:45.908Z</time></trkpt><trkpt lat="43.231322" lon="11.3753109"><ele>184.0</ele><time>2026-04-02T10:50:46.908Z</time></trkpt><trkpt lat="43.2311195" lon="11.3754517"><ele>184.0</ele><time>2026-04-02T10:50:47.908Z</time></trkpt><trkpt lat="43.2309164" lon="11.3755961"><ele>184.0</ele><time>2026-04-02T10:50:48.908Z</time></trkpt><trkpt lat="43.2307222" lon="11.3757367"><ele>184.0</ele><time>2026-04-02T10:50:49.908Z</time></trkpt><trkpt lat="43.230538" lon="11.3758676"><ele>184.0</ele><time>2026-04-02T10:50:50.908Z</time></trkpt><trkpt lat="43.2303574" lon="11.3759968"><ele>184.0</ele><time>2026-04-02T10:50:51.908Z</time></trkpt><trkpt lat="43.2301799" lon="11.3761316"><ele>184.0</ele><time>2026-04-02T10:50:52.908Z</time></trkpt><trkpt lat="43.2300038" lon="11.3762695"><ele>184.66666666666669</ele><time>2026-04-02T10:50:53.908Z</time></trkpt><trkpt lat="43.229831" lon="11.3764033"><ele>185.33333333333334</ele><time>2026-04-02T10:50:54.908Z</time></trkpt><trkpt lat="43.2296691" lon="11.3765291"><ele>186.0</ele><time>2026-04-02T10:50:55.908Z</time></trkpt><trkpt lat="43.2295103" lon="11.3766582"><ele>186.0</ele><time>2026-04-02T10:50:56.908Z</time></trkpt><trkpt lat="43.2293529" lon="11.3767873"><ele>186.0</ele><time>2026-04-02T10:50:57.908Z</time></trkpt><trkpt lat="43.2291997" lon="11.3769097"><ele>186.0</ele><time>2026-04-02T10:50:58.908Z</time></trkpt><trkpt lat="43.2290526" lon="11.3770165"><ele>187.33333333333334</ele><time>2026-04-02T10:50:59.908Z</time></trkpt><trkpt lat="43.2289009" lon="11.3771021"><ele>188.66666666666669</ele><time>2026-04-02T10:51:00.908Z</time></trkpt><trkpt lat="43.2287468" lon="11.3771715"><ele>190.0</ele><time>2026-04-02T10:51:01.908Z</time></trkpt><trkpt lat="43.2285874" lon="11.3772202"><ele>186.0</ele><time>2026-04-02T10:51:02.908Z</time></trkpt><trkpt lat="43.2284141" lon="11.3772493"><ele>182.0</ele><time>2026-04-02T10:51:03.908Z</time></trkpt><trkpt lat="43.2282454" lon="11.3772635"><ele>178.0</ele><time>2026-04-02T10:51:04.908Z</time></trkpt><trkpt lat="43.2280814" lon="11.3772811"><ele>178.0</ele><time>2026-04-02T10:51:05.908Z</time></trkpt><trkpt lat="43.2279188" lon="11.377293"><ele>178.0</ele><time>2026-04-02T10:51:06.908Z</time></trkpt><trkpt lat="43.2277525" lon="11.3773012"><ele>178.0</ele><time>2026-04-02T10:51:07.908Z</time></trkpt><trkpt lat="43.2275806" lon="11.3772962"><ele>178.0</ele><time>2026-04-02T10:51:08.908Z</time></trkpt><trkpt lat="43.2274186" lon="11.377276"><ele>178.0</ele><time>2026-04-02T10:51:09.908Z</time></trkpt><trkpt lat="43.2272797" lon="11.3772457"><ele>178.0</ele><time>2026-04-02T10:51:10.908Z</time></trkpt><trkpt lat="43.227158" lon="11.3772013"><ele>178.0</ele><time>2026-04-02T10:51:11.907Z</time></trkpt><trkpt lat="43.2270462" lon="11.377151"><ele>178.60000000000002</ele><time>2026-04-02T10:51:12.908Z</time></trkpt><trkpt lat="43.2269443" lon="11.3770976"><ele>179.20000000000002</ele><time>2026-04-02T10:51:13.907Z</time></trkpt><trkpt lat="43.2268476" lon="11.3770408"><ele>179.8</ele><time>2026-04-02T10:51:14.908Z</time></trkpt><trkpt lat="43.22675" lon="11.3769686"><ele>180.4</ele><time>2026-04-02T10:51:15.908Z</time></trkpt><trkpt lat="43.2266521" lon="11.3768784"><ele>181.0</ele><time>2026-04-02T10:51:16.908Z</time></trkpt><trkpt lat="43.2265545" lon="11.3767705"><ele>180.5</ele><time>2026-04-02T10:51:17.908Z</time></trkpt><trkpt lat="43.2264544" lon="11.3766446"><ele>180.0</ele><time>2026-04-02T10:51:18.908Z</time></trkpt><trkpt lat="43.2263609" lon="11.3765022"><ele>179.5</ele><time>2026-04-02T10:51:19.908Z</time></trkpt><trkpt lat="43.2262742" lon="11.3763364"><ele>179.0</ele><time>2026-04-02T10:51:20.907Z</time></trkpt><trkpt lat="43.2261936" lon="11.3761565"><ele>179.0</ele><time>2026-04-02T10:51:21.907Z</time></trkpt><trkpt lat="43.2261261" lon="11.3759651"><ele>179.0</ele><time>2026-04-02T10:51:22.907Z</time></trkpt><trkpt lat="43.2260754" lon="11.3757686"><ele>179.0</ele><time>2026-04-02T10:51:23.908Z</time></trkpt><trkpt lat="43.2260453" lon="11.3755802"><ele>179.0</ele><time>2026-04-02T10:51:24.908Z</time></trkpt><trkpt lat="43.2260317" lon="11.3753727"><ele>178.66666666666666</ele><time>2026-04-02T10:51:25.908Z</time></trkpt><trkpt lat="43.2260384" lon="11.3751337"><ele>178.33333333333334</ele><time>2026-04-02T10:51:26.908Z</time></trkpt><trkpt lat="43.226058" lon="11.3748766"><ele>178.0</ele><time>2026-04-02T10:51:27.908Z</time></trkpt><trkpt lat="43.2260791" lon="11.3746351"><ele>177.66666666666669</ele><time>2026-04-02T10:51:28.908Z</time></trkpt><trkpt lat="43.2261044" lon="11.3744024"><ele>177.33333333333334</ele><time>2026-04-02T10:51:29.908Z</time></trkpt><trkpt lat="43.2261191" lon="11.3741813"><ele>177.0</ele><time>2026-04-02T10:51:30.908Z</time></trkpt><trkpt lat="43.2261252" lon="11.3739673"><ele>177.33333333333334</ele><time>2026-04-02T10:51:31.908Z</time></trkpt><trkpt lat="43.2261153" lon="11.3737392"><ele>177.66666666666669</ele><time>2026-04-02T10:51:32.908Z</time></trkpt><trkpt lat="43.2260826" lon="11.373513"><ele>178.0</ele><time>2026-04-02T10:51:33.908Z</time></trkpt><trkpt lat="43.2260226" lon="11.3732721"><ele>179.33333333333334</ele><time>2026-04-02T10:51:34.908Z</time></trkpt><trkpt lat="43.2259482" lon="11.3730176"><ele>180.66666666666666</ele><time>2026-04-02T10:51:35.908Z</time></trkpt><trkpt lat="43.2258808" lon="11.3728054"><ele>182.0</ele><time>2026-04-02T10:51:36.908Z</time></trkpt><trkpt lat="43.2258255" lon="11.3726238"><ele>182.0</ele><time>2026-04-02T10:51:37.908Z</time></trkpt><trkpt lat="43.2257753" lon="11.3724649"><ele>182.0</ele><time>2026-04-02T10:51:38.908Z</time></trkpt><trkpt lat="43.225729" lon="11.3723353"><ele>182.0</ele><time>2026-04-02T10:51:39.908Z</time></trkpt><trkpt lat="43.225677" lon="11.3722354"><ele>182.0</ele><time>2026-04-02T10:51:40.908Z</time></trkpt><trkpt lat="43.2256196" lon="11.3721719"><ele>182.0</ele><time>2026-04-02T10:51:41.908Z</time></trkpt><trkpt lat="43.2255558" lon="11.3721427"><ele>181.83333333333331</ele><time>2026-04-02T10:51:42.908Z</time></trkpt><trkpt lat="43.2254925" lon="11.3721402"><ele>181.66666666666666</ele><time>2026-04-02T10:51:43.908Z</time></trkpt><trkpt lat="43.2254245" lon="11.3721686"><ele>181.5</ele><time>2026-04-02T10:51:44.908Z</time></trkpt><trkpt lat="43.2253659" lon="11.3722183"><ele>181.33333333333334</ele><time>2026-04-02T10:51:45.907Z</time></trkpt><trkpt lat="43.2253192" lon="11.3722887"><ele>181.16666666666669</ele><time>2026-04-02T10:51:46.908Z</time></trkpt><trkpt lat="43.2252688" lon="11.3724009"><ele>181.0</ele><time>2026-04-02T10:51:47.908Z</time></trkpt><trkpt lat="43.2252188" lon="11.3725443"><ele>180.75</ele><time>2026-04-02T10:51:48.908Z</time></trkpt><trkpt lat="43.2251634" lon="11.3726997"><ele>180.5</ele><time>2026-04-02T10:51:49.908Z</time></trkpt><trkpt lat="43.2250957" lon="11.3728653"><ele>180.25</ele><time>2026-04-02T10:51:50.908Z</time></trkpt><trkpt lat="43.2250306" lon="11.3730123"><ele>180.0</ele><time>2026-04-02T10:51:51.908Z</time></trkpt><trkpt lat="43.2249572" lon="11.3731458"><ele>180.0</ele><time>2026-04-02T10:51:52.908Z</time></trkpt><trkpt lat="43.2248736" lon="11.3732643"><ele>180.0</ele><time>2026-04-02T10:51:53.908Z</time></trkpt><trkpt lat="43.2247772" lon="11.3733529"><ele>180.0</ele><time>2026-04-02T10:51:54.907Z</time></trkpt><trkpt lat="43.2246663" lon="11.3734245"><ele>180.0</ele><time>2026-04-02T10:51:55.908Z</time></trkpt><trkpt lat="43.2245455" lon="11.3734737"><ele>182.0</ele><time>2026-04-02T10:51:56.908Z</time></trkpt><trkpt lat="43.2244263" lon="11.3734974"><ele>184.0</ele><time>2026-04-02T10:51:57.908Z</time></trkpt><trkpt lat="43.2242982" lon="11.3734928"><ele>186.0</ele><time>2026-04-02T10:51:58.908Z</time></trkpt><trkpt lat="43.2241733" lon="11.3734642"><ele>188.0</ele><time>2026-04-02T10:51:59.908Z</time></trkpt><trkpt lat="43.2240615" lon="11.3734165"><ele>192.5</ele><time>2026-04-02T10:52:00.908Z</time></trkpt><trkpt lat="43.2239496" lon="11.3733441"><ele>197.0</ele><time>2026-04-02T10:52:01.908Z</time></trkpt><trkpt lat="43.2238496" lon="11.3732478"><ele>201.5</ele><time>2026-04-02T10:52:02.908Z</time></trkpt><trkpt lat="43.2237631" lon="11.3731305"><ele>206.0</ele><time>2026-04-02T10:52:03.908Z</time></trkpt><trkpt lat="43.2236874" lon="11.3729902"><ele>206.0</ele><time>2026-04-02T10:52:04.908Z</time></trkpt><trkpt lat="43.2236333" lon="11.3728462"><ele>206.0</ele><time>2026-04-02T10:52:05.908Z</time></trkpt><trkpt lat="43.2236068" lon="11.3727152"><ele>206.0</ele><time>2026-04-02T10:52:06.908Z</time></trkpt><trkpt lat="43.2235979" lon="11.3725607"><ele>206.0</ele><time>2026-04-02T10:52:07.907Z</time></trkpt><trkpt lat="43.2236093" lon="11.3724087"><ele>206.0</ele><time>2026-04-02T10:52:08.908Z</time></trkpt><trkpt lat="43.2236264" lon="11.3722526"><ele>206.0</ele><time>2026-04-02T10:52:09.908Z</time></trkpt><trkpt lat="43.2236428" lon="11.3721112"><ele>206.0</ele><time>2026-04-02T10:52:10.908Z</time></trkpt><trkpt lat="43.2236458" lon="11.3719631"><ele>206.0</ele><time>2026-04-02T10:52:11.908Z</time></trkpt><trkpt lat="43.2236362" lon="11.3718038"><ele>206.0</ele><time>2026-04-02T10:52:12.908Z</time></trkpt><trkpt lat="43.223606" lon="11.3716597"><ele>206.0</ele><time>2026-04-02T10:52:13.908Z</time></trkpt><trkpt lat="43.2235548" lon="11.3715209"><ele>206.0</ele><time>2026-04-02T10:52:14.908Z</time></trkpt><trkpt lat="43.2234831" lon="11.3713916"><ele>206.0</ele><time>2026-04-02T10:52:15.907Z</time></trkpt><trkpt lat="43.2233969" lon="11.3712836"><ele>206.0</ele><time>2026-04-02T10:52:16.908Z</time></trkpt><trkpt lat="43.2233155" lon="11.3712117"><ele>206.0</ele><time>2026-04-02T10:52:17.907Z</time></trkpt><trkpt lat="43.223225" lon="11.3711659"><ele>206.0</ele><time>2026-04-02T10:52:18.908Z</time></trkpt><trkpt lat="43.2231378" lon="11.3711587"><ele>206.4</ele><time>2026-04-02T10:52:19.908Z</time></trkpt><trkpt lat="43.2230497" lon="11.3711868"><ele>206.8</ele><time>2026-04-02T10:52:20.908Z</time></trkpt><trkpt lat="43.2229699" lon="11.3712437"><ele>207.20000000000002</ele><time>2026-04-02T10:52:21.907Z</time></trkpt><trkpt lat="43.2228973" lon="11.3713222"><ele>207.60000000000002</ele><time>2026-04-02T10:52:22.908Z</time></trkpt><trkpt lat="43.2228318" lon="11.3714229"><ele>208.0</ele><time>2026-04-02T10:52:23.908Z</time></trkpt><trkpt lat="43.2227667" lon="11.3715425"><ele>208.0</ele><time>2026-04-02T10:52:24.908Z</time></trkpt><trkpt lat="43.222695" lon="11.3716793"><ele>208.0</ele><time>2026-04-02T10:52:25.908Z</time></trkpt><trkpt lat="43.2226085" lon="11.371828"><ele>208.0</ele><time>2026-04-02T10:52:26.908Z</time></trkpt><trkpt lat="43.2225126" lon="11.3719891"><ele>208.0</ele><time>2026-04-02T10:52:27.908Z</time></trkpt><trkpt lat="43.2224069" lon="11.3721432"><ele>211.25</ele><time>2026-04-02T10:52:28.908Z</time></trkpt><trkpt lat="43.2222964" lon="11.3722774"><ele>214.5</ele><time>2026-04-02T10:52:29.908Z</time></trkpt><trkpt lat="43.2221751" lon="11.3723972"><ele>217.75</ele><time>2026-04-02T10:52:30.908Z</time></trkpt><trkpt lat="43.2220532" lon="11.3724992"><ele>221.0</ele><time>2026-04-02T10:52:31.908Z</time></trkpt><trkpt lat="43.2219171" lon="11.3725713"><ele>221.0</ele><time>2026-04-02T10:52:32.908Z</time></trkpt><trkpt lat="43.2217757" lon="11.3726239"><ele>221.0</ele><time>2026-04-02T10:52:33.908Z</time></trkpt><trkpt lat="43.2216192" lon="11.3726652"><ele>221.0</ele><time>2026-04-02T10:52:34.908Z</time></trkpt><trkpt lat="43.2214604" lon="11.3726974"><ele>223.0</ele><time>2026-04-02T10:52:35.908Z</time></trkpt><trkpt lat="43.2213028" lon="11.3727311"><ele>225.0</ele><time>2026-04-02T10:52:36.908Z</time></trkpt><trkpt lat="43.2211411" lon="11.3727677"><ele>227.0</ele><time>2026-04-02T10:52:37.908Z</time></trkpt><trkpt lat="43.2209754" lon="11.3728022"><ele>227.0</ele><time>2026-04-02T10:52:38.908Z</time></trkpt><trkpt lat="43.2208078" lon="11.3728419"><ele>227.0</ele><time>2026-04-02T10:52:39.908Z</time></trkpt><trkpt lat="43.2206374" lon="11.3728809"><ele>227.0</ele><time>2026-04-02T10:52:40.908Z</time></trkpt><trkpt lat="43.2204697" lon="11.3729158"><ele>228.0</ele><time>2026-04-02T10:52:41.908Z</time></trkpt><trkpt lat="43.2203161" lon="11.3729511"><ele>229.0</ele><time>2026-04-02T10:52:42.907Z</time></trkpt><trkpt lat="43.2201813" lon="11.3729765"><ele>230.0</ele><time>2026-04-02T10:52:43.908Z</time></trkpt><trkpt lat="43.2200407" lon="11.3730037"><ele>231.0</ele><time>2026-04-02T10:52:44.908Z</time></trkpt><trkpt lat="43.2199095" lon="11.3730277"><ele>234.25</ele><time>2026-04-02T10:52:45.908Z</time></trkpt><trkpt lat="43.2197971" lon="11.3730433"><ele>237.5</ele><time>2026-04-02T10:52:46.908Z</time></trkpt><trkpt lat="43.2196863" lon="11.3730558"><ele>240.75</ele><time>2026-04-02T10:52:47.908Z</time></trkpt><trkpt lat="43.2195747" lon="11.3730532"><ele>244.0</ele><time>2026-04-02T10:52:48.907Z</time></trkpt><trkpt lat="43.2194568" lon="11.3730466"><ele>244.0</ele><time>2026-04-02T10:52:49.908Z</time></trkpt><trkpt lat="43.2193379" lon="11.3730363"><ele>243.99999999999997</ele><time>2026-04-02T10:52:50.908Z</time></trkpt><trkpt lat="43.2192325" lon="11.3730283"><ele>243.99999999999997</ele><time>2026-04-02T10:52:51.908Z</time></trkpt><trkpt lat="43.2191349" lon="11.3730114"><ele>244.0</ele><time>2026-04-02T10:52:52.908Z</time></trkpt><trkpt lat="43.219052" lon="11.3729905"><ele>244.0</ele><time>2026-04-02T10:52:53.908Z</time></trkpt><trkpt lat="43.2189666" lon="11.372965"><ele>245.6</ele><time>2026-04-02T10:52:54.908Z</time></trkpt><trkpt lat="43.2188816" lon="11.3729356"><ele>247.2</ele><time>2026-04-02T10:52:55.908Z</time></trkpt><trkpt lat="43.2187905" lon="11.3728952"><ele>248.79999999999998</ele><time>2026-04-02T10:52:56.908Z</time></trkpt><trkpt lat="43.2186859" lon="11.3728448"><ele>250.39999999999998</ele><time>2026-04-02T10:52:57.908Z</time></trkpt><trkpt lat="43.2185763" lon="11.3727869"><ele>252.0</ele><time>2026-04-02T10:52:58.908Z</time></trkpt><trkpt lat="43.2184499" lon="11.3727259"><ele>252.0</ele><time>2026-04-02T10:52:59.908Z</time></trkpt><trkpt lat="43.2183269" lon="11.3726597"><ele>252.0</ele><time>2026-04-02T10:53:00.908Z</time></trkpt><trkpt lat="43.2182149" lon="11.3726021"><ele>252.0</ele><time>2026-04-02T10:53:01.908Z</time></trkpt><trkpt lat="43.2181009" lon="11.3725511"><ele>252.0</ele><time>2026-04-02T10:53:02.908Z</time></trkpt><trkpt lat="43.2179926" lon="11.3724987"><ele>250.0</ele><time>2026-04-02T10:53:03.908Z</time></trkpt><trkpt lat="43.2178992" lon="11.3724474"><ele>248.0</ele><time>2026-04-02T10:53:04.908Z</time></trkpt><trkpt lat="43.2178099" lon="11.3723976"><ele>246.0</ele><time>2026-04-02T10:53:05.907Z</time></trkpt><trkpt lat="43.2177215" lon="11.3723559"><ele>244.0</ele><time>2026-04-02T10:53:06.908Z</time></trkpt><trkpt lat="43.2176421" lon="11.3723143"><ele>242.0</ele><time>2026-04-02T10:53:07.908Z</time></trkpt><trkpt lat="43.2175648" lon="11.3722723"><ele>242.00000000000003</ele><time>2026-04-02T10:53:08.908Z</time></trkpt><trkpt lat="43.2174921" lon="11.3722382"><ele>242.0</ele><time>2026-04-02T10:53:09.907Z</time></trkpt><trkpt lat="43.2174258" lon="11.3722081"><ele>242.0</ele><time>2026-04-02T10:53:10.907Z</time></trkpt><trkpt lat="43.2173501" lon="11.3721707"><ele>242.0</ele><time>2026-04-02T10:53:11.908Z</time></trkpt><trkpt lat="43.2172657" lon="11.3721209"><ele>242.00000000000003</ele><time>2026-04-02T10:53:12.907Z</time></trkpt><trkpt lat="43.2171773" lon="11.3720704"><ele>242.0</ele><time>2026-04-02T10:53:13.908Z</time></trkpt><trkpt lat="43.2170808" lon="11.3720137"><ele>241.0</ele><time>2026-04-02T10:53:14.908Z</time></trkpt><trkpt lat="43.2169745" lon="11.3719612"><ele>240.0</ele><time>2026-04-02T10:53:15.908Z</time></trkpt><trkpt lat="43.2168607" lon="11.3719077"><ele>239.0</ele><time>2026-04-02T10:53:16.908Z</time></trkpt><trkpt lat="43.2167339" lon="11.3718435"><ele>238.0</ele><time>2026-04-02T10:53:17.908Z</time></trkpt><trkpt lat="43.2165949" lon="11.3717802"><ele>239.5</ele><time>2026-04-02T10:53:18.908Z</time></trkpt><trkpt lat="43.2164669" lon="11.3717174"><ele>241.0</ele><time>2026-04-02T10:53:19.908Z</time></trkpt><trkpt lat="43.2163456" lon="11.3716629"><ele>242.5</ele><time>2026-04-02T10:53:20.908Z</time></trkpt><trkpt lat="43.216234" lon="11.3716124"><ele>244.0</ele><time>2026-04-02T10:53:21.908Z</time></trkpt><trkpt lat="43.2161382" lon="11.3715685"><ele>244.0</ele><time>2026-04-02T10:53:22.908Z</time></trkpt><trkpt lat="43.2160472" lon="11.3715203"><ele>243.99999999999997</ele><time>2026-04-02T10:53:23.908Z</time></trkpt><trkpt lat="43.2159619" lon="11.3714701"><ele>243.99999999999997</ele><time>2026-04-02T10:53:24.908Z</time></trkpt><trkpt lat="43.2158745" lon="11.3714107"><ele>244.0</ele><time>2026-04-02T10:53:25.908Z</time></trkpt><trkpt lat="43.2157883" lon="11.3713421"><ele>244.0</ele><time>2026-04-02T10:53:26.908Z</time></trkpt><trkpt lat="43.2157104" lon="11.3712424"><ele>243.0</ele><time>2026-04-02T10:53:27.908Z</time></trkpt><trkpt lat="43.2156193" lon="11.3711272"><ele>242.0</ele><time>2026-04-02T10:53:28.908Z</time></trkpt><trkpt lat="43.215513" lon="11.371019"><ele>241.0</ele><time>2026-04-02T10:53:29.907Z</time></trkpt><trkpt lat="43.2154055" lon="11.3709225"><ele>240.0</ele><time>2026-04-02T10:53:30.907Z</time></trkpt><trkpt lat="43.2152938" lon="11.3708398"><ele>240.0</ele><time>2026-04-02T10:53:31.908Z</time></trkpt><trkpt lat="43.2151746" lon="11.3707687"><ele>240.0</ele><time>2026-04-02T10:53:32.908Z</time></trkpt><trkpt lat="43.2150632" lon="11.3707072"><ele>240.0</ele><time>2026-04-02T10:53:33.908Z</time></trkpt><trkpt lat="43.214948" lon="11.3706715"><ele>240.0</ele><time>2026-04-02T10:53:34.908Z</time></trkpt><trkpt lat="43.2148355" lon="11.3706663"><ele>237.0</ele><time>2026-04-02T10:53:35.908Z</time></trkpt><trkpt lat="43.2147215" lon="11.3706853"><ele>234.0</ele><time>2026-04-02T10:53:36.908Z</time></trkpt><trkpt lat="43.2145959" lon="11.370735"><ele>231.0</ele><time>2026-04-02T10:53:37.908Z</time></trkpt><trkpt lat="43.2144657" lon="11.3708191"><ele>228.0</ele><time>2026-04-02T10:53:38.908Z</time></trkpt><trkpt lat="43.2143308" lon="11.3709083"><ele>228.0</ele><time>2026-04-02T10:53:39.908Z</time></trkpt><trkpt lat="43.2141858" lon="11.370996"><ele>228.0</ele><time>2026-04-02T10:53:40.908Z</time></trkpt><trkpt lat="43.2140454" lon="11.3710908"><ele>228.0</ele><time>2026-04-02T10:53:41.908Z</time></trkpt><trkpt lat="43.2139075" lon="11.3711851"><ele>226.5</ele><time>2026-04-02T10:53:42.907Z</time></trkpt><trkpt lat="43.2137709" lon="11.371267"><ele>225.0</ele><time>2026-04-02T10:53:43.908Z</time></trkpt><trkpt lat="43.2136352" lon="11.3713236"><ele>223.5</ele><time>2026-04-02T10:53:44.908Z</time></trkpt><trkpt lat="43.2135159" lon="11.3713509"><ele>222.0</ele><time>2026-04-02T10:53:45.908Z</time></trkpt><trkpt lat="43.2134099" lon="11.3713367"><ele>222.0</ele><time>2026-04-02T10:53:46.908Z</time></trkpt><trkpt lat="43.2133131" lon="11.3712676"><ele>222.0</ele><time>2026-04-02T10:53:47.908Z</time></trkpt><trkpt lat="43.2132184" lon="11.3711575"><ele>222.0</ele><time>2026-04-02T10:53:48.908Z</time></trkpt><trkpt lat="43.2131386" lon="11.3709948"><ele>222.0</ele><time>2026-04-02T10:53:49.908Z</time></trkpt><trkpt lat="43.2130444" lon="11.3708244"><ele>222.0</ele><time>2026-04-02T10:53:50.908Z</time></trkpt><trkpt lat="43.2129506" lon="11.3706381"><ele>222.0</ele><time>2026-04-02T10:53:51.908Z</time></trkpt><trkpt lat="43.2128579" lon="11.3704432"><ele>222.0</ele><time>2026-04-02T10:53:52.908Z</time></trkpt><trkpt lat="43.2127708" lon="11.3702496"><ele>223.66666666666669</ele><time>2026-04-02T10:53:53.908Z</time></trkpt><trkpt lat="43.2126741" lon="11.3700625"><ele>225.33333333333334</ele><time>2026-04-02T10:53:54.908Z</time></trkpt><trkpt lat="43.2125737" lon="11.3698849"><ele>227.0</ele><time>2026-04-02T10:53:55.908Z</time></trkpt><trkpt lat="43.2124718" lon="11.3697223"><ele>226.5</ele><time>2026-04-02T10:53:56.908Z</time></trkpt><trkpt lat="43.2123783" lon="11.3695754"><ele>226.0</ele><time>2026-04-02T10:53:57.908Z</time></trkpt><trkpt lat="43.2122877" lon="11.3694361"><ele>225.5</ele><time>2026-04-02T10:53:58.908Z</time></trkpt><trkpt lat="43.2121954" lon="11.3693015"><ele>225.0</ele><time>2026-04-02T10:53:59.908Z</time></trkpt><trkpt lat="43.2121047" lon="11.3691902"><ele>225.5</ele><time>2026-04-02T10:54:00.908Z</time></trkpt><trkpt lat="43.2120061" lon="11.369085"><ele>226.0</ele><time>2026-04-02T10:54:01.908Z</time></trkpt><trkpt lat="43.211888" lon="11.3689877"><ele>226.5</ele><time>2026-04-02T10:54:02.908Z</time></trkpt><trkpt lat="43.2117668" lon="11.3689042"><ele>227.0</ele><time>2026-04-02T10:54:03.907Z</time></trkpt><trkpt lat="43.2116463" lon="11.3688266"><ele>227.0</ele><time>2026-04-02T10:54:04.908Z</time></trkpt><trkpt lat="43.2115117" lon="11.3687548"><ele>227.0</ele><time>2026-04-02T10:54:05.908Z</time></trkpt><trkpt lat="43.2113687" lon="11.3686948"><ele>227.0</ele><time>2026-04-02T10:54:06.908Z</time></trkpt><trkpt lat="43.2112199" lon="11.3686449"><ele>227.0</ele><time>2026-04-02T10:54:07.908Z</time></trkpt><trkpt lat="43.2110645" lon="11.3685912"><ele>228.33333333333334</ele><time>2026-04-02T10:54:08.907Z</time></trkpt><trkpt lat="43.2109053" lon="11.3685404"><ele>229.66666666666669</ele><time>2026-04-02T10:54:09.907Z</time></trkpt><trkpt lat="43.2107465" lon="11.3684849"><ele>231.0</ele><time>2026-04-02T10:54:10.908Z</time></trkpt><trkpt lat="43.2105897" lon="11.3684345"><ele>231.0</ele><time>2026-04-02T10:54:11.908Z</time></trkpt><trkpt lat="43.2104555" lon="11.3683849"><ele>231.0</ele><time>2026-04-02T10:54:12.908Z</time></trkpt><trkpt lat="43.2103267" lon="11.3683459"><ele>231.0</ele><time>2026-04-02T10:54:13.908Z</time></trkpt><trkpt lat="43.2102117" lon="11.3683013"><ele>231.0</ele><time>2026-04-02T10:54:14.908Z</time></trkpt><trkpt lat="43.2101063" lon="11.3682613"><ele>231.0</ele><time>2026-04-02T10:54:15.908Z</time></trkpt><trkpt lat="43.2100046" lon="11.368227"><ele>231.00000000000003</ele><time>2026-04-02T10:54:16.907Z</time></trkpt><trkpt lat="43.2099106" lon="11.3681927"><ele>231.00000000000003</ele><time>2026-04-02T10:54:17.908Z</time></trkpt><trkpt lat="43.2098176" lon="11.3681799"><ele>231.0</ele><time>2026-04-02T10:54:18.908Z</time></trkpt><trkpt lat="43.2097235" lon="11.3681885"><ele>231.0</ele><time>2026-04-02T10:54:19.908Z</time></trkpt><trkpt lat="43.2096383" lon="11.3682373"><ele>233.33333333333334</ele><time>2026-04-02T10:54:20.908Z</time></trkpt><trkpt lat="43.2095744" lon="11.3683"><ele>235.66666666666669</ele><time>2026-04-02T10:54:21.908Z</time></trkpt><trkpt lat="43.2095014" lon="11.3683855"><ele>238.0</ele><time>2026-04-02T10:54:23.907Z</time></trkpt><trkpt lat="43.2095638" lon="11.368349"><ele>240.33333333333334</ele><time>2026-04-02T10:54:35.908Z</time></trkpt><trkpt lat="43.2096221" lon="11.3682892"><ele>242.66666666666669</ele><time>2026-04-02T10:54:37.908Z</time></trkpt><trkpt lat="43.2097" lon="11.3682496"><ele>245.0</ele><time>2026-04-02T10:54:40.908Z</time></trkpt><trkpt lat="43.2097479" lon="11.3681918"><ele>245.0</ele><time>2026-04-02T10:54:43.908Z</time></trkpt></trkseg><trkseg><trkpt lat="43.2095855" lon="11.3682727"><ele>245.0</ele><time>2026-04-02T11:09:01.91Z</time></trkpt><trkpt lat="43.2095343" lon="11.3683734"><ele>245.0</ele><time>2026-04-02T11:09:03.91Z</time></trkpt><trkpt lat="43.2094503" lon="11.3685046"><ele>245.0</ele><time>2026-04-02T11:09:05.91Z</time></trkpt><trkpt lat="43.2093951" lon="11.3685871"><ele>245.0</ele><time>2026-04-02T11:09:06.91Z</time></trkpt><trkpt lat="43.2093413" lon="11.3686783"><ele>245.0</ele><time>2026-04-02T11:09:07.909Z</time></trkpt><trkpt lat="43.2092798" lon="11.3687783"><ele>243.8</ele><time>2026-04-02T11:09:08.91Z</time></trkpt><trkpt lat="43.2092113" lon="11.3688858"><ele>242.6</ele><time>2026-04-02T11:09:09.91Z</time></trkpt><trkpt lat="43.2091394" lon="11.3689953"><ele>241.39999999999998</ele><time>2026-04-02T11:09:10.91Z</time></trkpt><trkpt lat="43.2090634" lon="11.369107"><ele>240.2</ele><time>2026-04-02T11:09:11.91Z</time></trkpt><trkpt lat="43.2089901" lon="11.3692185"><ele>239.0</ele><time>2026-04-02T11:09:12.91Z</time></trkpt><trkpt lat="43.2089097" lon="11.3693311"><ele>242.5</ele><time>2026-04-02T11:09:13.91Z</time></trkpt><trkpt lat="43.2088285" lon="11.3694482"><ele>246.0</ele><time>2026-04-02T11:09:14.91Z</time></trkpt><trkpt lat="43.208739" lon="11.369567"><ele>249.5</ele><time>2026-04-02T11:09:15.91Z</time></trkpt><trkpt lat="43.2086515" lon="11.3696886"><ele>253.0</ele><time>2026-04-02T11:09:16.91Z</time></trkpt><trkpt lat="43.2085661" lon="11.3698098"><ele>253.0</ele><time>2026-04-02T11:09:17.91Z</time></trkpt><trkpt lat="43.208482" lon="11.3699306"><ele>253.0</ele><time>2026-04-02T11:09:18.91Z</time></trkpt><trkpt lat="43.2083964" lon="11.3700517"><ele>253.0</ele><time>2026-04-02T11:09:19.909Z</time></trkpt><trkpt lat="43.208312" lon="11.3701747"><ele>253.0</ele><time>2026-04-02T11:09:20.91Z</time></trkpt><trkpt lat="43.2082265" lon="11.3702981"><ele>257.25</ele><time>2026-04-02T11:09:21.91Z</time></trkpt><trkpt lat="43.2081418" lon="11.3704131"><ele>261.5</ele><time>2026-04-02T11:09:22.91Z</time></trkpt><trkpt lat="43.2080562" lon="11.3705345"><ele>265.75</ele><time>2026-04-02T11:09:23.909Z</time></trkpt><trkpt lat="43.2079712" lon="11.3706456"><ele>270.0</ele><time>2026-04-02T11:09:24.91Z</time></trkpt><trkpt lat="43.2078751" lon="11.3707655"><ele>270.0</ele><time>2026-04-02T11:09:25.91Z</time></trkpt><trkpt lat="43.2077841" lon="11.3708897"><ele>270.0</ele><time>2026-04-02T11:09:26.91Z</time></trkpt><trkpt lat="43.2076946" lon="11.3710135"><ele>270.0</ele><time>2026-04-02T11:09:27.91Z</time></trkpt><trkpt lat="43.2075945" lon="11.3711396"><ele>270.0</ele><time>2026-04-02T11:09:28.91Z</time></trkpt><trkpt lat="43.2074988" lon="11.3712608"><ele>267.25</ele><time>2026-04-02T11:09:29.91Z</time></trkpt><trkpt lat="43.207407" lon="11.3713827"><ele>264.5</ele><time>2026-04-02T11:09:30.91Z</time></trkpt><trkpt lat="43.2073233" lon="11.371499"><ele>261.75</ele><time>2026-04-02T11:09:31.91Z</time></trkpt><trkpt lat="43.2072446" lon="11.3716134"><ele>259.0</ele><time>2026-04-02T11:09:32.91Z</time></trkpt><trkpt lat="43.2071737" lon="11.3717367"><ele>262.0</ele><time>2026-04-02T11:09:33.91Z</time></trkpt><trkpt lat="43.2071037" lon="11.3718633"><ele>265.0</ele><time>2026-04-02T11:09:34.91Z</time></trkpt><trkpt lat="43.2070433" lon="11.3719979"><ele>268.0</ele><time>2026-04-02T11:09:35.91Z</time></trkpt><trkpt lat="43.206977" lon="11.3721296"><ele>271.0</ele><time>2026-04-02T11:09:36.909Z</time></trkpt><trkpt lat="43.2069095" lon="11.3722569"><ele>271.0</ele><time>2026-04-02T11:09:37.91Z</time></trkpt><trkpt lat="43.2068345" lon="11.3723991"><ele>271.0</ele><time>2026-04-02T11:09:38.91Z</time></trkpt><trkpt lat="43.2067545" lon="11.3725242"><ele>271.0</ele><time>2026-04-02T11:09:39.91Z</time></trkpt><trkpt lat="43.2066712" lon="11.3726467"><ele>271.0</ele><time>2026-04-02T11:09:40.91Z</time></trkpt><trkpt lat="43.2065725" lon="11.3727596"><ele>270.0</ele><time>2026-04-02T11:09:41.91Z</time></trkpt><trkpt lat="43.206461" lon="11.3728634"><ele>269.0</ele><time>2026-04-02T11:09:42.91Z</time></trkpt><trkpt lat="43.206339" lon="11.3729571"><ele>268.0</ele><time>2026-04-02T11:09:43.91Z</time></trkpt><trkpt lat="43.2062113" lon="11.3730406"><ele>267.0</ele><time>2026-04-02T11:09:44.909Z</time></trkpt><trkpt lat="43.2060909" lon="11.3731251"><ele>267.0</ele><time>2026-04-02T11:09:45.91Z</time></trkpt><trkpt lat="43.2059826" lon="11.3732012"><ele>267.0</ele><time>2026-04-02T11:09:46.91Z</time></trkpt><trkpt lat="43.2058665" lon="11.3732848"><ele>267.0</ele><time>2026-04-02T11:09:47.91Z</time></trkpt><trkpt lat="43.2057562" lon="11.3733831"><ele>267.0</ele><time>2026-04-02T11:09:48.91Z</time></trkpt><trkpt lat="43.2056597" lon="11.3734657"><ele>267.2</ele><time>2026-04-02T11:09:49.91Z</time></trkpt><trkpt lat="43.2055772" lon="11.3735459"><ele>267.4</ele><time>2026-04-02T11:09:50.91Z</time></trkpt><trkpt lat="43.2054964" lon="11.3736105"><ele>267.6</ele><time>2026-04-02T11:09:51.91Z</time></trkpt><trkpt lat="43.2054152" lon="11.3736736"><ele>267.8</ele><time>2026-04-02T11:09:52.91Z</time></trkpt><trkpt lat="43.2053181" lon="11.3737205"><ele>268.0</ele><time>2026-04-02T11:09:53.91Z</time></trkpt><trkpt lat="43.2052077" lon="11.3737489"><ele>268.0</ele><time>2026-04-02T11:09:54.91Z</time></trkpt><trkpt lat="43.2050847" lon="11.3737593"><ele>268.0</ele><time>2026-04-02T11:09:55.909Z</time></trkpt><trkpt lat="43.2049548" lon="11.3737541"><ele>268.0</ele><time>2026-04-02T11:09:56.91Z</time></trkpt><trkpt lat="43.2048276" lon="11.3737574"><ele>268.0</ele><time>2026-04-02T11:09:57.91Z</time></trkpt><trkpt lat="43.2046958" lon="11.3737795"><ele>267.75</ele><time>2026-04-02T11:09:58.91Z</time></trkpt><trkpt lat="43.2045657" lon="11.3738125"><ele>267.5</ele><time>2026-04-02T11:09:59.91Z</time></trkpt><trkpt lat="43.2044386" lon="11.3738461"><ele>267.25</ele><time>2026-04-02T11:10:00.91Z</time></trkpt><trkpt lat="43.2043113" lon="11.3738878"><ele>267.0</ele><time>2026-04-02T11:10:01.91Z</time></trkpt><trkpt lat="43.2041831" lon="11.3739327"><ele>264.75</ele><time>2026-04-02T11:10:02.91Z</time></trkpt><trkpt lat="43.2040579" lon="11.3739668"><ele>262.5</ele><time>2026-04-02T11:10:03.91Z</time></trkpt><trkpt lat="43.2039544" lon="11.3739924"><ele>260.25</ele><time>2026-04-02T11:10:04.91Z</time></trkpt><trkpt lat="43.2038407" lon="11.3740424"><ele>258.0</ele><time>2026-04-02T11:10:05.91Z</time></trkpt><trkpt lat="43.2037277" lon="11.3741103"><ele>258.0</ele><time>2026-04-02T11:10:06.91Z</time></trkpt><trkpt lat="43.2036202" lon="11.3741854"><ele>258.0</ele><time>2026-04-02T11:10:07.91Z</time></trkpt><trkpt lat="43.2035023" lon="11.3742992"><ele>258.0</ele><time>2026-04-02T11:10:08.91Z</time></trkpt><trkpt lat="43.2033912" lon="11.3743833"><ele>258.0</ele><time>2026-04-02T11:10:09.91Z</time></trkpt><trkpt lat="43.2032748" lon="11.3744584"><ele>259.75</ele><time>2026-04-02T11:10:10.91Z</time></trkpt><trkpt lat="43.2031401" lon="11.3745067"><ele>261.5</ele><time>2026-04-02T11:10:11.91Z</time></trkpt><trkpt lat="43.2029993" lon="11.3745535"><ele>263.25</ele><time>2026-04-02T11:10:12.91Z</time></trkpt><trkpt lat="43.2028602" lon="11.3745946"><ele>265.0</ele><time>2026-04-02T11:10:13.91Z</time></trkpt><trkpt lat="43.2027202" lon="11.3746362"><ele>265.0</ele><time>2026-04-02T11:10:14.91Z</time></trkpt><trkpt lat="43.2025791" lon="11.374671"><ele>265.0</ele><time>2026-04-02T11:10:15.91Z</time></trkpt><trkpt lat="43.2024436" lon="11.3747122"><ele>265.0</ele><time>2026-04-02T11:10:16.91Z</time></trkpt><trkpt lat="43.2023057" lon="11.3747406"><ele>265.0</ele><time>2026-04-02T11:10:17.909Z</time></trkpt><trkpt lat="43.2021793" lon="11.3747735"><ele>265.25</ele><time>2026-04-02T11:10:18.91Z</time></trkpt><trkpt lat="43.2020602" lon="11.3748003"><ele>265.5</ele><time>2026-04-02T11:10:19.91Z</time></trkpt><trkpt lat="43.2019409" lon="11.3748559"><ele>265.75</ele><time>2026-04-02T11:10:20.91Z</time></trkpt><trkpt lat="43.2018146" lon="11.3749107"><ele>266.0</ele><time>2026-04-02T11:10:21.91Z</time></trkpt><trkpt lat="43.2016752" lon="11.3749854"><ele>266.0</ele><time>2026-04-02T11:10:22.91Z</time></trkpt><trkpt lat="43.2015452" lon="11.375073"><ele>266.0</ele><time>2026-04-02T11:10:23.91Z</time></trkpt><trkpt lat="43.2014261" lon="11.3751528"><ele>266.0</ele><time>2026-04-02T11:10:24.91Z</time></trkpt><trkpt lat="43.2013205" lon="11.3752306"><ele>266.0</ele><time>2026-04-02T11:10:25.91Z</time></trkpt><trkpt lat="43.2012154" lon="11.375305"><ele>267.25</ele><time>2026-04-02T11:10:26.91Z</time></trkpt><trkpt lat="43.2011108" lon="11.3753665"><ele>268.5</ele><time>2026-04-02T11:10:27.91Z</time></trkpt><trkpt lat="43.201027" lon="11.3754003"><ele>269.75</ele><time>2026-04-02T11:10:28.91Z</time></trkpt><trkpt lat="43.2008808" lon="11.375355"><ele>271.0</ele><time>2026-04-02T11:10:30.91Z</time></trkpt><trkpt lat="43.2007813" lon="11.375309"><ele>271.0</ele><time>2026-04-02T11:10:31.91Z</time></trkpt><trkpt lat="43.2006966" lon="11.3752553"><ele>271.0</ele><time>2026-04-02T11:10:32.91Z</time></trkpt><trkpt lat="43.2006161" lon="11.3752026"><ele>271.0</ele><time>2026-04-02T11:10:33.91Z</time></trkpt><trkpt lat="43.2005421" lon="11.3751553"><ele>271.0</ele><time>2026-04-02T11:10:34.91Z</time></trkpt><trkpt lat="43.2004586" lon="11.3751084"><ele>271.0</ele><time>2026-04-02T11:10:35.91Z</time></trkpt><trkpt lat="43.2003865" lon="11.3750608"><ele>271.0</ele><time>2026-04-02T11:10:36.909Z</time></trkpt><trkpt lat="43.2003209" lon="11.3750269"><ele>268.85714285714283</ele><time>2026-04-02T11:10:37.91Z</time></trkpt><trkpt lat="43.200259" lon="11.3749935"><ele>266.7142857142857</ele><time>2026-04-02T11:10:38.91Z</time></trkpt><trkpt lat="43.2001868" lon="11.3749872"><ele>264.57142857142856</ele><time>2026-04-02T11:10:39.91Z</time></trkpt><trkpt lat="43.200118" lon="11.3749959"><ele>262.42857142857144</ele><time>2026-04-02T11:10:40.91Z</time></trkpt><trkpt lat="43.2000591" lon="11.3750332"><ele>260.2857142857143</ele><time>2026-04-02T11:10:41.91Z</time></trkpt><trkpt lat="43.2000058" lon="11.3750973"><ele>258.1428571428571</ele><time>2026-04-02T11:10:42.91Z</time></trkpt><trkpt lat="43.1999546" lon="11.3751875"><ele>256.0</ele><time>2026-04-02T11:10:43.91Z</time></trkpt><trkpt lat="43.1999064" lon="11.375285"><ele>256.0</ele><time>2026-04-02T11:10:44.91Z</time></trkpt><trkpt lat="43.199838" lon="11.3754264"><ele>256.0</ele><time>2026-04-02T11:10:45.91Z</time></trkpt><trkpt lat="43.1997607" lon="11.3755493"><ele>256.0</ele><time>2026-04-02T11:10:46.91Z</time></trkpt><trkpt lat="43.1996782" lon="11.3756706"><ele>256.0</ele><time>2026-04-02T11:10:47.91Z</time></trkpt><trkpt lat="43.1995917" lon="11.3757745"><ele>253.0</ele><time>2026-04-02T11:10:48.91Z</time></trkpt><trkpt lat="43.1995047" lon="11.3758854"><ele>250.0</ele><time>2026-04-02T11:10:49.909Z</time></trkpt><trkpt lat="43.1994112" lon="11.3759878"><ele>247.0</ele><time>2026-04-02T11:10:50.91Z</time></trkpt><trkpt lat="43.1993044" lon="11.376085"><ele>244.0</ele><time>2026-04-02T11:10:51.91Z</time></trkpt><trkpt lat="43.1991841" lon="11.3761547"><ele>244.0</ele><time>2026-04-02T11:10:52.91Z</time></trkpt><trkpt lat="43.199047" lon="11.3762053"><ele>244.0</ele><time>2026-04-02T11:10:53.91Z</time></trkpt><trkpt lat="43.1989051" lon="11.3762399"><ele>244.0</ele><time>2026-04-02T11:10:54.909Z</time></trkpt><trkpt lat="43.1987736" lon="11.3762724"><ele>244.0</ele><time>2026-04-02T11:10:55.91Z</time></trkpt><trkpt lat="43.1986496" lon="11.3763021"><ele>243.0</ele><time>2026-04-02T11:10:56.91Z</time></trkpt><trkpt lat="43.1985288" lon="11.3763423"><ele>242.0</ele><time>2026-04-02T11:10:57.91Z</time></trkpt><trkpt lat="43.1984109" lon="11.3763985"><ele>241.0</ele><time>2026-04-02T11:10:58.91Z</time></trkpt><trkpt lat="43.1982954" lon="11.3764797"><ele>240.0</ele><time>2026-04-02T11:10:59.91Z</time></trkpt><trkpt lat="43.198177" lon="11.3765862"><ele>238.66666666666669</ele><time>2026-04-02T11:11:00.91Z</time></trkpt><trkpt lat="43.1980537" lon="11.3767163"><ele>237.33333333333334</ele><time>2026-04-02T11:11:01.91Z</time></trkpt><trkpt lat="43.1979294" lon="11.376854"><ele>236.0</ele><time>2026-04-02T11:11:02.91Z</time></trkpt><trkpt lat="43.19779" lon="11.3769835"><ele>236.0</ele><time>2026-04-02T11:11:03.91Z</time></trkpt><trkpt lat="43.1976271" lon="11.3771136"><ele>236.0</ele><time>2026-04-02T11:11:04.91Z</time></trkpt><trkpt lat="43.1974659" lon="11.3772292"><ele>236.0</ele><time>2026-04-02T11:11:05.91Z</time></trkpt><trkpt lat="43.1973079" lon="11.3773367"><ele>234.66666666666669</ele><time>2026-04-02T11:11:06.91Z</time></trkpt><trkpt lat="43.1971521" lon="11.3774425"><ele>233.33333333333331</ele><time>2026-04-02T11:11:07.91Z</time></trkpt><trkpt lat="43.1970003" lon="11.3775455"><ele>232.0</ele><time>2026-04-02T11:11:08.91Z</time></trkpt><trkpt lat="43.1968453" lon="11.3776535"><ele>232.0</ele><time>2026-04-02T11:11:09.91Z</time></trkpt><trkpt lat="43.1966833" lon="11.3777649"><ele>232.0</ele><time>2026-04-02T11:11:10.91Z</time></trkpt><trkpt lat="43.1965227" lon="11.3778812"><ele>232.0</ele><time>2026-04-02T11:11:11.91Z</time></trkpt><trkpt lat="43.1963585" lon="11.3779955"><ele>232.66666666666666</ele><time>2026-04-02T11:11:12.91Z</time></trkpt><trkpt lat="43.1961879" lon="11.3781095"><ele>233.33333333333331</ele><time>2026-04-02T11:11:13.91Z</time></trkpt><trkpt lat="43.1960154" lon="11.3782106"><ele>234.0</ele><time>2026-04-02T11:11:14.91Z</time></trkpt><trkpt lat="43.1958545" lon="11.3782958"><ele>234.0</ele><time>2026-04-02T11:11:15.91Z</time></trkpt><trkpt lat="43.1957047" lon="11.3783614"><ele>234.0</ele><time>2026-04-02T11:11:16.91Z</time></trkpt><trkpt lat="43.1955667" lon="11.3784221"><ele>234.0</ele><time>2026-04-02T11:11:17.91Z</time></trkpt><trkpt lat="43.1954463" lon="11.3784864"><ele>234.0</ele><time>2026-04-02T11:11:18.91Z</time></trkpt><trkpt lat="43.1953374" lon="11.3785497"><ele>233.75</ele><time>2026-04-02T11:11:19.91Z</time></trkpt><trkpt lat="43.1952336" lon="11.3786313"><ele>233.5</ele><time>2026-04-02T11:11:20.91Z</time></trkpt><trkpt lat="43.1951324" lon="11.3787371"><ele>233.25</ele><time>2026-04-02T11:11:21.91Z</time></trkpt><trkpt lat="43.1950315" lon="11.3788728"><ele>233.0</ele><time>2026-04-02T11:11:22.91Z</time></trkpt><trkpt lat="43.1949289" lon="11.3790149"><ele>233.0</ele><time>2026-04-02T11:11:23.91Z</time></trkpt><trkpt lat="43.1948426" lon="11.3791486"><ele>233.0</ele><time>2026-04-02T11:11:24.91Z</time></trkpt><trkpt lat="43.1947669" lon="11.3792869"><ele>233.0</ele><time>2026-04-02T11:11:25.91Z</time></trkpt><trkpt lat="43.1947" lon="11.3794417"><ele>233.0</ele><time>2026-04-02T11:11:26.909Z</time></trkpt><trkpt lat="43.1946446" lon="11.3796137"><ele>231.0</ele><time>2026-04-02T11:11:27.91Z</time></trkpt><trkpt lat="43.194598" lon="11.379813"><ele>229.0</ele><time>2026-04-02T11:11:28.91Z</time></trkpt><trkpt lat="43.1945661" lon="11.3800414"><ele>227.0</ele><time>2026-04-02T11:11:29.91Z</time></trkpt><trkpt lat="43.1945431" lon="11.3802621"><ele>227.0</ele><time>2026-04-02T11:11:30.909Z</time></trkpt><trkpt lat="43.1945255" lon="11.380483"><ele>227.0</ele><time>2026-04-02T11:11:31.909Z</time></trkpt><trkpt lat="43.194502" lon="11.3806866"><ele>227.0</ele><time>2026-04-02T11:11:32.909Z</time></trkpt><trkpt lat="43.1944626" lon="11.3808879"><ele>227.33333333333334</ele><time>2026-04-02T11:11:33.91Z</time></trkpt><trkpt lat="43.1944054" lon="11.3811031"><ele>227.66666666666669</ele><time>2026-04-02T11:11:34.91Z</time></trkpt><trkpt lat="43.1943347" lon="11.3813349"><ele>228.0</ele><time>2026-04-02T11:11:35.91Z</time></trkpt><trkpt lat="43.1942537" lon="11.3815682"><ele>228.0</ele><time>2026-04-02T11:11:36.91Z</time></trkpt><trkpt lat="43.1941726" lon="11.3818085"><ele>228.0</ele><time>2026-04-02T11:11:37.91Z</time></trkpt><trkpt lat="43.1940908" lon="11.3820466"><ele>228.0</ele><time>2026-04-02T11:11:38.91Z</time></trkpt><trkpt lat="43.1940081" lon="11.3822735"><ele>225.66666666666669</ele><time>2026-04-02T11:11:39.91Z</time></trkpt><trkpt lat="43.1939329" lon="11.3824853"><ele>223.33333333333334</ele><time>2026-04-02T11:11:40.91Z</time></trkpt><trkpt lat="43.1938612" lon="11.3826808"><ele>221.0</ele><time>2026-04-02T11:11:41.91Z</time></trkpt><trkpt lat="43.1937997" lon="11.3828559"><ele>221.0</ele><time>2026-04-02T11:11:42.91Z</time></trkpt><trkpt lat="43.1937378" lon="11.3830095"><ele>221.0</ele><time>2026-04-02T11:11:43.91Z</time></trkpt><trkpt lat="43.1936759" lon="11.3831514"><ele>221.0</ele><time>2026-04-02T11:11:44.91Z</time></trkpt><trkpt lat="43.1936056" lon="11.3832709"><ele>221.0</ele><time>2026-04-02T11:11:45.91Z</time></trkpt><trkpt lat="43.1935173" lon="11.3833766"><ele>221.0</ele><time>2026-04-02T11:11:46.91Z</time></trkpt><trkpt lat="43.1934158" lon="11.3834577"><ele>221.0</ele><time>2026-04-02T11:11:47.909Z</time></trkpt><trkpt lat="43.1932887" lon="11.3835259"><ele>221.0</ele><time>2026-04-02T11:11:48.91Z</time></trkpt><trkpt lat="43.1931442" lon="11.3835947"><ele>221.0</ele><time>2026-04-02T11:11:49.91Z</time></trkpt><trkpt lat="43.1929966" lon="11.3836681"><ele>221.0</ele><time>2026-04-02T11:11:50.909Z</time></trkpt><trkpt lat="43.1928467" lon="11.3837426"><ele>221.0</ele><time>2026-04-02T11:11:51.91Z</time></trkpt><trkpt lat="43.1927019" lon="11.3838147"><ele>221.0</ele><time>2026-04-02T11:11:52.91Z</time></trkpt><trkpt lat="43.1925592" lon="11.3838744"><ele>221.75</ele><time>2026-04-02T11:11:53.91Z</time></trkpt><trkpt lat="43.1924191" lon="11.3839076"><ele>222.5</ele><time>2026-04-02T11:11:54.91Z</time></trkpt><trkpt lat="43.1922816" lon="11.3839243"><ele>223.25</ele><time>2026-04-02T11:11:55.91Z</time></trkpt><trkpt lat="43.1921527" lon="11.3839251"><ele>224.0</ele><time>2026-04-02T11:11:56.91Z</time></trkpt><trkpt lat="43.19203" lon="11.3839239"><ele>224.25</ele><time>2026-04-02T11:11:57.91Z</time></trkpt><trkpt lat="43.1919168" lon="11.3839379"><ele>224.5</ele><time>2026-04-02T11:11:58.91Z</time></trkpt><trkpt lat="43.1918048" lon="11.3839863"><ele>224.75</ele><time>2026-04-02T11:11:59.91Z</time></trkpt><trkpt lat="43.1917011" lon="11.3840621"><ele>225.0</ele><time>2026-04-02T11:12:00.91Z</time></trkpt><trkpt lat="43.1916039" lon="11.3841582"><ele>225.0</ele><time>2026-04-02T11:12:01.909Z</time></trkpt><trkpt lat="43.191518" lon="11.3842688"><ele>225.0</ele><time>2026-04-02T11:12:02.91Z</time></trkpt><trkpt lat="43.1914279" lon="11.3844082"><ele>225.0</ele><time>2026-04-02T11:12:03.91Z</time></trkpt><trkpt lat="43.19133" lon="11.3845569"><ele>225.0</ele><time>2026-04-02T11:12:04.91Z</time></trkpt><trkpt lat="43.1912281" lon="11.3847041"><ele>226.0</ele><time>2026-04-02T11:12:05.91Z</time></trkpt><trkpt lat="43.1911133" lon="11.384853"><ele>227.0</ele><time>2026-04-02T11:12:06.91Z</time></trkpt><trkpt lat="43.1909959" lon="11.3849893"><ele>228.0</ele><time>2026-04-02T11:12:07.91Z</time></trkpt><trkpt lat="43.1908786" lon="11.3851118"><ele>228.0</ele><time>2026-04-02T11:12:08.91Z</time></trkpt><trkpt lat="43.1907536" lon="11.3852167"><ele>228.0</ele><time>2026-04-02T11:12:09.91Z</time></trkpt><trkpt lat="43.1906162" lon="11.3853205"><ele>228.0</ele><time>2026-04-02T11:12:10.909Z</time></trkpt><trkpt lat="43.1904711" lon="11.3854119"><ele>229.33333333333331</ele><time>2026-04-02T11:12:11.91Z</time></trkpt><trkpt lat="43.1903192" lon="11.3854946"><ele>230.66666666666666</ele><time>2026-04-02T11:12:12.91Z</time></trkpt><trkpt lat="43.1901588" lon="11.3855482"><ele>232.0</ele><time>2026-04-02T11:12:13.909Z</time></trkpt><trkpt lat="43.1900009" lon="11.3855889"><ele>227.66666666666666</ele><time>2026-04-02T11:12:14.91Z</time></trkpt><trkpt lat="43.1898399" lon="11.3856319"><ele>223.33333333333331</ele><time>2026-04-02T11:12:15.909Z</time></trkpt><trkpt lat="43.1896756" lon="11.385668"><ele>219.0</ele><time>2026-04-02T11:12:16.91Z</time></trkpt><trkpt lat="43.1895164" lon="11.3857101"><ele>219.0</ele><time>2026-04-02T11:12:17.91Z</time></trkpt><trkpt lat="43.1893489" lon="11.3857553"><ele>219.0</ele><time>2026-04-02T11:12:18.91Z</time></trkpt><trkpt lat="43.1891854" lon="11.3858099"><ele>219.0</ele><time>2026-04-02T11:12:19.91Z</time></trkpt><trkpt lat="43.1890334" lon="11.3858594"><ele>220.75</ele><time>2026-04-02T11:12:20.91Z</time></trkpt><trkpt lat="43.1888891" lon="11.3859014"><ele>222.5</ele><time>2026-04-02T11:12:21.909Z</time></trkpt><trkpt lat="43.1887573" lon="11.3859291"><ele>224.25</ele><time>2026-04-02T11:12:22.91Z</time></trkpt><trkpt lat="43.1886313" lon="11.3859264"><ele>226.0</ele><time>2026-04-02T11:12:23.91Z</time></trkpt><trkpt lat="43.1885146" lon="11.38589"><ele>226.0</ele><time>2026-04-02T11:12:24.91Z</time></trkpt><trkpt lat="43.1884003" lon="11.3858187"><ele>226.0</ele><time>2026-04-02T11:12:25.91Z</time></trkpt><trkpt lat="43.1882866" lon="11.3857265"><ele>226.0</ele><time>2026-04-02T11:12:26.909Z</time></trkpt><trkpt lat="43.1881771" lon="11.3856245"><ele>226.0</ele><time>2026-04-02T11:12:27.91Z</time></trkpt><trkpt lat="43.1880699" lon="11.3855148"><ele>229.5</ele><time>2026-04-02T11:12:28.91Z</time></trkpt><trkpt lat="43.1879392" lon="11.38545"><ele>233.0</ele><time>2026-04-02T11:12:29.91Z</time></trkpt><trkpt lat="43.1878103" lon="11.3853775"><ele>236.5</ele><time>2026-04-02T11:12:30.91Z</time></trkpt><trkpt lat="43.1876777" lon="11.3853237"><ele>240.0</ele><time>2026-04-02T11:12:31.91Z</time></trkpt><trkpt lat="43.187552" lon="11.3852748"><ele>240.0</ele><time>2026-04-02T11:12:32.909Z</time></trkpt><trkpt lat="43.1874345" lon="11.3852391"><ele>240.0</ele><time>2026-04-02T11:12:33.91Z</time></trkpt><trkpt lat="43.1873138" lon="11.385218"><ele>240.0</ele><time>2026-04-02T11:12:34.91Z</time></trkpt><trkpt lat="43.1871835" lon="11.3852141"><ele>240.0</ele><time>2026-04-02T11:12:35.91Z</time></trkpt><trkpt lat="43.187049" lon="11.3852298"><ele>242.66666666666669</ele><time>2026-04-02T11:12:36.91Z</time></trkpt><trkpt lat="43.1869031" lon="11.3852624"><ele>245.33333333333334</ele><time>2026-04-02T11:12:37.91Z</time></trkpt><trkpt lat="43.1867509" lon="11.3853037"><ele>248.0</ele><time>2026-04-02T11:12:38.91Z</time></trkpt><trkpt lat="43.1865983" lon="11.3853413"><ele>250.66666666666669</ele><time>2026-04-02T11:12:39.91Z</time></trkpt><trkpt lat="43.1864418" lon="11.3853708"><ele>253.33333333333331</ele><time>2026-04-02T11:12:40.91Z</time></trkpt><trkpt lat="43.1862815" lon="11.3853846"><ele>256.0</ele><time>2026-04-02T11:12:41.91Z</time></trkpt><trkpt lat="43.1861203" lon="11.3853907"><ele>256.0</ele><time>2026-04-02T11:12:42.91Z</time></trkpt><trkpt lat="43.1859671" lon="11.3853946"><ele>256.0</ele><time>2026-04-02T11:12:43.91Z</time></trkpt><trkpt lat="43.1858239" lon="11.3853988"><ele>256.0</ele><time>2026-04-02T11:12:44.91Z</time></trkpt><trkpt lat="43.1857011" lon="11.3853984"><ele>256.0</ele><time>2026-04-02T11:12:45.909Z</time></trkpt><trkpt lat="43.1855883" lon="11.3853917"><ele>258.75</ele><time>2026-04-02T11:12:46.91Z</time></trkpt><trkpt lat="43.1854808" lon="11.3853578"><ele>261.5</ele><time>2026-04-02T11:12:47.91Z</time></trkpt><trkpt lat="43.1853752" lon="11.3853017"><ele>264.25</ele><time>2026-04-02T11:12:48.91Z</time></trkpt><trkpt lat="43.1852721" lon="11.3852092"><ele>267.0</ele><time>2026-04-02T11:12:49.91Z</time></trkpt><trkpt lat="43.1851771" lon="11.3850841"><ele>267.0</ele><time>2026-04-02T11:12:50.91Z</time></trkpt><trkpt lat="43.1850857" lon="11.3849439"><ele>267.0</ele><time>2026-04-02T11:12:51.91Z</time></trkpt><trkpt lat="43.1850006" lon="11.3847981"><ele>267.0</ele><time>2026-04-02T11:12:52.91Z</time></trkpt><trkpt lat="43.1849094" lon="11.3846606"><ele>267.0</ele><time>2026-04-02T11:12:53.91Z</time></trkpt><trkpt lat="43.1848084" lon="11.3845259"><ele>269.0</ele><time>2026-04-02T11:12:54.91Z</time></trkpt><trkpt lat="43.1847033" lon="11.3844016"><ele>271.0</ele><time>2026-04-02T11:12:55.91Z</time></trkpt><trkpt lat="43.1845925" lon="11.3842818"><ele>273.0</ele><time>2026-04-02T11:12:56.91Z</time></trkpt><trkpt lat="43.1844741" lon="11.3841657"><ele>275.0</ele><time>2026-04-02T11:12:57.91Z</time></trkpt><trkpt lat="43.1843614" lon="11.3840636"><ele>275.0</ele><time>2026-04-02T11:12:58.91Z</time></trkpt><trkpt lat="43.1842578" lon="11.3839805"><ele>275.0</ele><time>2026-04-02T11:12:59.91Z</time></trkpt><trkpt lat="43.1841423" lon="11.3839097"><ele>275.0</ele><time>2026-04-02T11:13:00.91Z</time></trkpt><trkpt lat="43.1840218" lon="11.3838454"><ele>275.0</ele><time>2026-04-02T11:13:01.91Z</time></trkpt><trkpt lat="43.1838946" lon="11.3837904"><ele>274.75</ele><time>2026-04-02T11:13:02.91Z</time></trkpt><trkpt lat="43.1837666" lon="11.3837429"><ele>274.5</ele><time>2026-04-02T11:13:03.91Z</time></trkpt><trkpt lat="43.1836488" lon="11.3837028"><ele>274.25</ele><time>2026-04-02T11:13:04.91Z</time></trkpt><trkpt lat="43.1835417" lon="11.3836653"><ele>274.0</ele><time>2026-04-02T11:13:05.91Z</time></trkpt><trkpt lat="43.1834309" lon="11.3836237"><ele>274.0</ele><time>2026-04-02T11:13:06.91Z</time></trkpt><trkpt lat="43.1833197" lon="11.3835766"><ele>274.0</ele><time>2026-04-02T11:13:07.91Z</time></trkpt><trkpt lat="43.1832007" lon="11.3835278"><ele>274.0</ele><time>2026-04-02T11:13:08.91Z</time></trkpt><trkpt lat="43.1830749" lon="11.3834757"><ele>274.0</ele><time>2026-04-02T11:13:09.91Z</time></trkpt><trkpt lat="43.1829397" lon="11.3834236"><ele>273.0</ele><time>2026-04-02T11:13:10.91Z</time></trkpt><trkpt lat="43.1828023" lon="11.3833599"><ele>272.0</ele><time>2026-04-02T11:13:11.909Z</time></trkpt><trkpt lat="43.1826492" lon="11.3832872"><ele>271.0</ele><time>2026-04-02T11:13:12.909Z</time></trkpt><trkpt lat="43.1825019" lon="11.3832292"><ele>270.3333333333333</ele><time>2026-04-02T11:13:13.91Z</time></trkpt><trkpt lat="43.1823444" lon="11.3831702"><ele>269.6666666666667</ele><time>2026-04-02T11:13:14.909Z</time></trkpt><trkpt lat="43.1821936" lon="11.3831239"><ele>269.0</ele><time>2026-04-02T11:13:15.909Z</time></trkpt><trkpt lat="43.1820524" lon="11.3830862"><ele>269.0</ele><time>2026-04-02T11:13:16.91Z</time></trkpt><trkpt lat="43.1819101" lon="11.383049"><ele>269.0</ele><time>2026-04-02T11:13:17.91Z</time></trkpt><trkpt lat="43.1817669" lon="11.3830147"><ele>269.0</ele><time>2026-04-02T11:13:18.909Z</time></trkpt><trkpt lat="43.1816395" lon="11.3829872"><ele>269.0</ele><time>2026-04-02T11:13:19.91Z</time></trkpt><trkpt lat="43.1815224" lon="11.3829569"><ele>268.5</ele><time>2026-04-02T11:13:20.91Z</time></trkpt><trkpt lat="43.1814163" lon="11.3829302"><ele>268.0</ele><time>2026-04-02T11:13:21.91Z</time></trkpt><trkpt lat="43.1813276" lon="11.3829017"><ele>267.5</ele><time>2026-04-02T11:13:22.91Z</time></trkpt><trkpt lat="43.1812507" lon="11.3828713"><ele>267.0</ele><time>2026-04-02T11:13:23.91Z</time></trkpt><trkpt lat="43.1811832" lon="11.382844"><ele>266.5</ele><time>2026-04-02T11:13:24.91Z</time></trkpt><trkpt lat="43.1811224" lon="11.3828134"><ele>266.0</ele><time>2026-04-02T11:13:25.91Z</time></trkpt><trkpt lat="43.1810611" lon="11.3827755"><ele>266.0</ele><time>2026-04-02T11:13:26.91Z</time></trkpt><trkpt lat="43.180977" lon="11.3827245"><ele>266.0</ele><time>2026-04-02T11:13:28.91Z</time></trkpt><trkpt lat="43.1809239" lon="11.3826764"><ele>266.0</ele><time>2026-04-02T11:13:30.91Z</time></trkpt><trkpt lat="43.1808581" lon="11.3826745"><ele>266.0</ele><time>2026-04-02T11:13:32.91Z</time></trkpt><trkpt lat="43.1807908" lon="11.382704"><ele>266.0</ele><time>2026-04-02T11:13:33.91Z</time></trkpt><trkpt lat="43.1807079" lon="11.3827666"><ele>266.0</ele><time>2026-04-02T11:13:34.91Z</time></trkpt><trkpt lat="43.1806099" lon="11.3828631"><ele>266.0</ele><time>2026-04-02T11:13:35.909Z</time></trkpt><trkpt lat="43.1804912" lon="11.3829694"><ele>266.0</ele><time>2026-04-02T11:13:36.909Z</time></trkpt><trkpt lat="43.1803603" lon="11.3830943"><ele>266.0</ele><time>2026-04-02T11:13:37.91Z</time></trkpt><trkpt lat="43.180221" lon="11.3832261"><ele>266.0</ele><time>2026-04-02T11:13:38.91Z</time></trkpt><trkpt lat="43.1800754" lon="11.383341"><ele>266.0</ele><time>2026-04-02T11:13:39.91Z</time></trkpt><trkpt lat="43.1799232" lon="11.3834409"><ele>266.0</ele><time>2026-04-02T11:13:40.91Z</time></trkpt><trkpt lat="43.1797695" lon="11.3835317"><ele>265.0</ele><time>2026-04-02T11:13:41.91Z</time></trkpt><trkpt lat="43.1796191" lon="11.3836054"><ele>264.0</ele><time>2026-04-02T11:13:42.91Z</time></trkpt><trkpt lat="43.1794698" lon="11.3836811"><ele>263.0</ele><time>2026-04-02T11:13:43.91Z</time></trkpt><trkpt lat="43.17932" lon="11.3837586"><ele>263.0</ele><time>2026-04-02T11:13:44.91Z</time></trkpt><trkpt lat="43.1791695" lon="11.3838388"><ele>263.0</ele><time>2026-04-02T11:13:45.91Z</time></trkpt><trkpt lat="43.1790194" lon="11.3839242"><ele>263.0</ele><time>2026-04-02T11:13:46.91Z</time></trkpt><trkpt lat="43.1788709" lon="11.3840263"><ele>265.0</ele><time>2026-04-02T11:13:47.91Z</time></trkpt><trkpt lat="43.1787225" lon="11.3841655"><ele>267.0</ele><time>2026-04-02T11:13:48.91Z</time></trkpt><trkpt lat="43.1785782" lon="11.3843367"><ele>269.0</ele><time>2026-04-02T11:13:49.91Z</time></trkpt><trkpt lat="43.1784419" lon="11.3845113"><ele>269.0</ele><time>2026-04-02T11:13:50.91Z</time></trkpt><trkpt lat="43.178303" lon="11.3846756"><ele>269.0</ele><time>2026-04-02T11:13:51.91Z</time></trkpt><trkpt lat="43.1781513" lon="11.3848306"><ele>269.0</ele><time>2026-04-02T11:13:52.91Z</time></trkpt><trkpt lat="43.1780023" lon="11.384964"><ele>269.0</ele><time>2026-04-02T11:13:53.91Z</time></trkpt><trkpt lat="43.1778553" lon="11.3850811"><ele>269.0</ele><time>2026-04-02T11:13:54.91Z</time></trkpt><trkpt lat="43.1777102" lon="11.3851984"><ele>269.0</ele><time>2026-04-02T11:13:55.91Z</time></trkpt><trkpt lat="43.1775729" lon="11.3853192"><ele>269.0</ele><time>2026-04-02T11:13:56.909Z</time></trkpt><trkpt lat="43.1774461" lon="11.3854636"><ele>269.0</ele><time>2026-04-02T11:13:57.91Z</time></trkpt><trkpt lat="43.1773304" lon="11.3856418"><ele>269.0</ele><time>2026-04-02T11:13:58.91Z</time></trkpt><trkpt lat="43.1772264" lon="11.3858434"><ele>270.0</ele><time>2026-04-02T11:13:59.91Z</time></trkpt><trkpt lat="43.1771273" lon="11.3860666"><ele>271.0</ele><time>2026-04-02T11:14:00.909Z</time></trkpt><trkpt lat="43.1770267" lon="11.3863059"><ele>272.0</ele><time>2026-04-02T11:14:01.91Z</time></trkpt><trkpt lat="43.1769207" lon="11.3865551"><ele>272.0</ele><time>2026-04-02T11:14:02.91Z</time></trkpt><trkpt lat="43.1768088" lon="11.38681"><ele>272.0</ele><time>2026-04-02T11:14:03.91Z</time></trkpt><trkpt lat="43.1767048" lon="11.3870565"><ele>272.0</ele><time>2026-04-02T11:14:04.91Z</time></trkpt><trkpt lat="43.1766146" lon="11.3872891"><ele>271.33333333333337</ele><time>2026-04-02T11:14:05.91Z</time></trkpt><trkpt lat="43.1765231" lon="11.3875025"><ele>270.6666666666667</ele><time>2026-04-02T11:14:06.91Z</time></trkpt><trkpt lat="43.1764184" lon="11.3877051"><ele>270.0</ele><time>2026-04-02T11:14:07.91Z</time></trkpt><trkpt lat="43.1762913" lon="11.3878969"><ele>271.3333333333333</ele><time>2026-04-02T11:14:08.91Z</time></trkpt><trkpt lat="43.176145" lon="11.3880652"><ele>272.66666666666663</ele><time>2026-04-02T11:14:09.91Z</time></trkpt><trkpt lat="43.1759857" lon="11.388211"><ele>274.0</ele><time>2026-04-02T11:14:10.91Z</time></trkpt><trkpt lat="43.1758112" lon="11.3883321"><ele>273.5</ele><time>2026-04-02T11:14:11.91Z</time></trkpt><trkpt lat="43.1755945" lon="11.3884351"><ele>273.0</ele><time>2026-04-02T11:14:12.91Z</time></trkpt><trkpt lat="43.1753769" lon="11.3885305"><ele>273.0</ele><time>2026-04-02T11:14:13.91Z</time></trkpt><trkpt lat="43.175165" lon="11.3886232"><ele>273.0</ele><time>2026-04-02T11:14:14.91Z</time></trkpt><trkpt lat="43.1749694" lon="11.3887089"><ele>273.0</ele><time>2026-04-02T11:14:15.91Z</time></trkpt><trkpt lat="43.1747823" lon="11.3887898"><ele>275.0</ele><time>2026-04-02T11:14:16.91Z</time></trkpt><trkpt lat="43.1746066" lon="11.3888652"><ele>277.0</ele><time>2026-04-02T11:14:17.91Z</time></trkpt><trkpt lat="43.1744318" lon="11.388935"><ele>279.0</ele><time>2026-04-02T11:14:18.91Z</time></trkpt><trkpt lat="43.1742627" lon="11.3890102"><ele>279.0</ele><time>2026-04-02T11:14:19.91Z</time></trkpt><trkpt lat="43.1741046" lon="11.3891012"><ele>279.0</ele><time>2026-04-02T11:14:20.91Z</time></trkpt><trkpt lat="43.1739568" lon="11.3892172"><ele>279.0</ele><time>2026-04-02T11:14:21.91Z</time></trkpt><trkpt lat="43.1738282" lon="11.3893615"><ele>281.3333333333333</ele><time>2026-04-02T11:14:22.91Z</time></trkpt><trkpt lat="43.1737157" lon="11.389522"><ele>283.66666666666663</ele><time>2026-04-02T11:14:23.91Z</time></trkpt><trkpt lat="43.1736147" lon="11.389679"><ele>286.0</ele><time>2026-04-02T11:14:24.91Z</time></trkpt><trkpt lat="43.1735201" lon="11.3898395"><ele>286.0</ele><time>2026-04-02T11:14:25.909Z</time></trkpt><trkpt lat="43.1734333" lon="11.3899896"><ele>286.0</ele><time>2026-04-02T11:14:26.91Z</time></trkpt><trkpt lat="43.1733534" lon="11.3901285"><ele>286.0</ele><time>2026-04-02T11:14:27.91Z</time></trkpt><trkpt lat="43.1732798" lon="11.3902507"><ele>286.0</ele><time>2026-04-02T11:14:28.91Z</time></trkpt><trkpt lat="43.1732094" lon="11.3903607"><ele>289.0</ele><time>2026-04-02T11:14:29.91Z</time></trkpt><trkpt lat="43.1731275" lon="11.3904763"><ele>292.0</ele><time>2026-04-02T11:14:30.91Z</time></trkpt><trkpt lat="43.1730276" lon="11.39058"><ele>295.0</ele><time>2026-04-02T11:14:31.91Z</time></trkpt><trkpt lat="43.1729038" lon="11.3906764"><ele>298.0</ele><time>2026-04-02T11:14:32.91Z</time></trkpt><trkpt lat="43.1727646" lon="11.3907596"><ele>298.0</ele><time>2026-04-02T11:14:33.91Z</time></trkpt><trkpt lat="43.172616" lon="11.3908349"><ele>298.0</ele><time>2026-04-02T11:14:34.91Z</time></trkpt><trkpt lat="43.17247" lon="11.3909064"><ele>298.0</ele><time>2026-04-02T11:14:35.91Z</time></trkpt><trkpt lat="43.1723212" lon="11.3909812"><ele>299.75</ele><time>2026-04-02T11:14:36.91Z</time></trkpt><trkpt lat="43.1721933" lon="11.3910446"><ele>301.5</ele><time>2026-04-02T11:14:37.91Z</time></trkpt><trkpt lat="43.1720697" lon="11.3911077"><ele>303.25</ele><time>2026-04-02T11:14:38.91Z</time></trkpt><trkpt lat="43.1719508" lon="11.3911672"><ele>305.0</ele><time>2026-04-02T11:14:39.91Z</time></trkpt><trkpt lat="43.1718233" lon="11.3912161"><ele>305.0</ele><time>2026-04-02T11:14:40.91Z</time></trkpt><trkpt lat="43.1716991" lon="11.391258"><ele>305.0</ele><time>2026-04-02T11:14:41.91Z</time></trkpt><trkpt lat="43.1715896" lon="11.3912818"><ele>305.0</ele><time>2026-04-02T11:14:42.91Z</time></trkpt><trkpt lat="43.1714828" lon="11.3912915"><ele>305.0</ele><time>2026-04-02T11:14:43.91Z</time></trkpt><trkpt lat="43.1713716" lon="11.3912911"><ele>304.25</ele><time>2026-04-02T11:14:44.91Z</time></trkpt><trkpt lat="43.1712481" lon="11.3912769"><ele>303.5</ele><time>2026-04-02T11:14:45.91Z</time></trkpt><trkpt lat="43.171119" lon="11.3912352"><ele>302.75</ele><time>2026-04-02T11:14:46.91Z</time></trkpt><trkpt lat="43.1709847" lon="11.3911685"><ele>302.0</ele><time>2026-04-02T11:14:47.91Z</time></trkpt><trkpt lat="43.1708554" lon="11.3910947"><ele>302.0</ele><time>2026-04-02T11:14:48.91Z</time></trkpt><trkpt lat="43.1707275" lon="11.3910211"><ele>302.0</ele><time>2026-04-02T11:14:49.91Z</time></trkpt><trkpt lat="43.1706096" lon="11.3909534"><ele>302.0</ele><time>2026-04-02T11:14:50.91Z</time></trkpt><trkpt lat="43.1705028" lon="11.3908873"><ele>302.0</ele><time>2026-04-02T11:14:51.91Z</time></trkpt><trkpt lat="43.1704039" lon="11.3908122"><ele>302.0</ele><time>2026-04-02T11:14:52.91Z</time></trkpt><trkpt lat="43.1702948" lon="11.390728"><ele>302.0</ele><time>2026-04-02T11:14:53.91Z</time></trkpt><trkpt lat="43.1701804" lon="11.3906354"><ele>302.0</ele><time>2026-04-02T11:14:54.91Z</time></trkpt><trkpt lat="43.1700558" lon="11.3905356"><ele>302.0</ele><time>2026-04-02T11:14:55.91Z</time></trkpt><trkpt lat="43.1699256" lon="11.3904224"><ele>298.0</ele><time>2026-04-02T11:14:56.91Z</time></trkpt><trkpt lat="43.1697878" lon="11.390313"><ele>294.0</ele><time>2026-04-02T11:14:57.91Z</time></trkpt><trkpt lat="43.1696524" lon="11.3902168"><ele>290.0</ele><time>2026-04-02T11:14:58.91Z</time></trkpt><trkpt lat="43.1695171" lon="11.3901356"><ele>290.0</ele><time>2026-04-02T11:14:59.91Z</time></trkpt><trkpt lat="43.1693749" lon="11.3900687"><ele>290.0</ele><time>2026-04-02T11:15:00.91Z</time></trkpt><trkpt lat="43.169235" lon="11.3900218"><ele>290.0</ele><time>2026-04-02T11:15:01.909Z</time></trkpt><trkpt lat="43.169108" lon="11.3899936"><ele>290.0</ele><time>2026-04-02T11:15:02.91Z</time></trkpt><trkpt lat="43.1689939" lon="11.3899788"><ele>287.25</ele><time>2026-04-02T11:15:03.91Z</time></trkpt><trkpt lat="43.1688792" lon="11.3899655"><ele>284.5</ele><time>2026-04-02T11:15:04.91Z</time></trkpt><trkpt lat="43.1687438" lon="11.3899534"><ele>281.75</ele><time>2026-04-02T11:15:05.91Z</time></trkpt><trkpt lat="43.168593" lon="11.3899352"><ele>279.0</ele><time>2026-04-02T11:15:06.91Z</time></trkpt><trkpt lat="43.1684278" lon="11.3899217"><ele>279.0</ele><time>2026-04-02T11:15:07.91Z</time></trkpt><trkpt lat="43.1682535" lon="11.3899087"><ele>279.0</ele><time>2026-04-02T11:15:08.91Z</time></trkpt><trkpt lat="43.1680937" lon="11.3898965"><ele>279.0</ele><time>2026-04-02T11:15:09.91Z</time></trkpt><trkpt lat="43.1679341" lon="11.3898832"><ele>277.0</ele><time>2026-04-02T11:15:10.91Z</time></trkpt><trkpt lat="43.1677858" lon="11.3898732"><ele>275.0</ele><time>2026-04-02T11:15:11.91Z</time></trkpt><trkpt lat="43.1676354" lon="11.3898611"><ele>273.0</ele><time>2026-04-02T11:15:12.91Z</time></trkpt><trkpt lat="43.1674839" lon="11.3898464"><ele>273.3333333333333</ele><time>2026-04-02T11:15:13.91Z</time></trkpt><trkpt lat="43.1673322" lon="11.3898347"><ele>273.66666666666663</ele><time>2026-04-02T11:15:14.91Z</time></trkpt><trkpt lat="43.1671785" lon="11.389828"><ele>274.0</ele><time>2026-04-02T11:15:15.91Z</time></trkpt><trkpt lat="43.1670241" lon="11.3898427"><ele>274.0</ele><time>2026-04-02T11:15:16.91Z</time></trkpt><trkpt lat="43.1668755" lon="11.3898877"><ele>274.0</ele><time>2026-04-02T11:15:17.91Z</time></trkpt><trkpt lat="43.1667355" lon="11.3899611"><ele>274.0</ele><time>2026-04-02T11:15:18.91Z</time></trkpt><trkpt lat="43.1666075" lon="11.3900617"><ele>274.75</ele><time>2026-04-02T11:15:19.91Z</time></trkpt><trkpt lat="43.1664954" lon="11.3901874"><ele>275.5</ele><time>2026-04-02T11:15:20.91Z</time></trkpt><trkpt lat="43.1664061" lon="11.390312"><ele>276.25</ele><time>2026-04-02T11:15:21.91Z</time></trkpt><trkpt lat="43.1663323" lon="11.3904255"><ele>277.0</ele><time>2026-04-02T11:15:22.91Z</time></trkpt><trkpt lat="43.1662583" lon="11.3905088"><ele>275.8</ele><time>2026-04-02T11:15:23.91Z</time></trkpt><trkpt lat="43.1661789" lon="11.3905722"><ele>274.6</ele><time>2026-04-02T11:15:24.91Z</time></trkpt><trkpt lat="43.1660923" lon="11.3906373"><ele>273.40000000000003</ele><time>2026-04-02T11:15:25.91Z</time></trkpt><trkpt lat="43.1659894" lon="11.3906982"><ele>272.2</ele><time>2026-04-02T11:15:26.91Z</time></trkpt><trkpt lat="43.1658775" lon="11.3907518"><ele>271.0</ele><time>2026-04-02T11:15:27.91Z</time></trkpt><trkpt lat="43.1657427" lon="11.3908057"><ele>272.0</ele><time>2026-04-02T11:15:28.91Z</time></trkpt><trkpt lat="43.1655895" lon="11.3908669"><ele>273.0</ele><time>2026-04-02T11:15:29.91Z</time></trkpt><trkpt lat="43.1654139" lon="11.3909178"><ele>274.0</ele><time>2026-04-02T11:15:30.91Z</time></trkpt><trkpt lat="43.165231" lon="11.3909692"><ele>274.0</ele><time>2026-04-02T11:15:31.91Z</time></trkpt><trkpt lat="43.1650494" lon="11.391015"><ele>274.0</ele><time>2026-04-02T11:15:32.91Z</time></trkpt><trkpt lat="43.1648505" lon="11.3910667"><ele>274.0</ele><time>2026-04-02T11:15:33.91Z</time></trkpt><trkpt lat="43.1646441" lon="11.3911136"><ele>274.3333333333333</ele><time>2026-04-02T11:15:34.909Z</time></trkpt><trkpt lat="43.1644312" lon="11.3911603"><ele>274.6666666666667</ele><time>2026-04-02T11:15:35.91Z</time></trkpt><trkpt lat="43.1642172" lon="11.391208"><ele>275.0</ele><time>2026-04-02T11:15:36.91Z</time></trkpt><trkpt lat="43.1640046" lon="11.3912576"><ele>275.6666666666667</ele><time>2026-04-02T11:15:37.91Z</time></trkpt><trkpt lat="43.1637899" lon="11.3913085"><ele>276.3333333333333</ele><time>2026-04-02T11:15:38.91Z</time></trkpt><trkpt lat="43.1635785" lon="11.3913599"><ele>277.0</ele><time>2026-04-02T11:15:39.909Z</time></trkpt><trkpt lat="43.1633775" lon="11.3914069"><ele>278.66666666666663</ele><time>2026-04-02T11:15:40.91Z</time></trkpt><trkpt lat="43.1631831" lon="11.3914546"><ele>280.3333333333333</ele><time>2026-04-02T11:15:41.91Z</time></trkpt><trkpt lat="43.1629917" lon="11.3915016"><ele>282.0</ele><time>2026-04-02T11:15:42.909Z</time></trkpt><trkpt lat="43.1628034" lon="11.3915454"><ele>282.0</ele><time>2026-04-02T11:15:43.91Z</time></trkpt><trkpt lat="43.162621" lon="11.3915803"><ele>282.0</ele><time>2026-04-02T11:15:44.909Z</time></trkpt><trkpt lat="43.1624577" lon="11.3916026"><ele>282.0</ele><time>2026-04-02T11:15:45.91Z</time></trkpt><trkpt lat="43.1623153" lon="11.3916237"><ele>282.8</ele><time>2026-04-02T11:15:46.909Z</time></trkpt><trkpt lat="43.1621954" lon="11.3916427"><ele>283.6</ele><time>2026-04-02T11:15:47.91Z</time></trkpt><trkpt lat="43.1620954" lon="11.3916609"><ele>284.40000000000003</ele><time>2026-04-02T11:15:48.91Z</time></trkpt><trkpt lat="43.1620071" lon="11.3916889"><ele>285.2</ele><time>2026-04-02T11:15:49.909Z</time></trkpt><trkpt lat="43.1619318" lon="11.3917264"><ele>286.0</ele><time>2026-04-02T11:15:50.91Z</time></trkpt><trkpt lat="43.161844" lon="11.3918006"><ele>286.0</ele><time>2026-04-02T11:15:52.91Z</time></trkpt><trkpt lat="43.1617706" lon="11.391905"><ele>286.0</ele><time>2026-04-02T11:15:54.91Z</time></trkpt><trkpt lat="43.1617353" lon="11.3919769"><ele>286.0</ele><time>2026-04-02T11:15:55.91Z</time></trkpt><trkpt lat="43.1617031" lon="11.3920677"><ele>286.0</ele><time>2026-04-02T11:15:56.91Z</time></trkpt><trkpt lat="43.1616699" lon="11.3921682"><ele>286.0</ele><time>2026-04-02T11:15:57.91Z</time></trkpt><trkpt lat="43.1616424" lon="11.3922768"><ele>286.0</ele><time>2026-04-02T11:15:58.91Z</time></trkpt><trkpt lat="43.161612" lon="11.3923749"><ele>285.3333333333333</ele><time>2026-04-02T11:15:59.91Z</time></trkpt><trkpt lat="43.1615735" lon="11.3925048"><ele>284.66666666666663</ele><time>2026-04-02T11:16:01.91Z</time></trkpt><trkpt lat="43.1615405" lon="11.3925969"><ele>284.0</ele><time>2026-04-02T11:16:03.91Z</time></trkpt><trkpt lat="43.1615093" lon="11.3926741"><ele>283.3333333333333</ele><time>2026-04-02T11:16:05.91Z</time></trkpt><trkpt lat="43.161509" lon="11.3927861"><ele>282.6666666666667</ele><time>2026-04-02T11:16:08.909Z</time></trkpt><trkpt lat="43.1615826" lon="11.3927814"><ele>282.0</ele><time>2026-04-02T11:16:12.91Z</time></trkpt><trkpt lat="43.161593" lon="11.392694"><ele>281.4</ele><time>2026-04-02T11:16:15.91Z</time></trkpt><trkpt lat="43.1615289" lon="11.3926377"><ele>280.79999999999995</ele><time>2026-04-02T11:16:53.91Z</time></trkpt><trkpt lat="43.1614669" lon="11.3927515"><ele>280.2</ele><time>2026-04-02T11:16:55.91Z</time></trkpt><trkpt lat="43.1614131" lon="11.39284"><ele>279.59999999999997</ele><time>2026-04-02T11:16:56.91Z</time></trkpt><trkpt lat="43.1613367" lon="11.39293"><ele>279.0</ele><time>2026-04-02T11:16:57.91Z</time></trkpt><trkpt lat="43.1612364" lon="11.3930164"><ele>279.0</ele><time>2026-04-02T11:16:58.91Z</time></trkpt><trkpt lat="43.1611119" lon="11.3930912"><ele>279.0</ele><time>2026-04-02T11:16:59.91Z</time></trkpt><trkpt lat="43.1609643" lon="11.3931658"><ele>279.0</ele><time>2026-04-02T11:17:00.91Z</time></trkpt><trkpt lat="43.1607855" lon="11.3932436"><ele>278.0</ele><time>2026-04-02T11:17:01.91Z</time></trkpt><trkpt lat="43.1605733" lon="11.3933254"><ele>277.0</ele><time>2026-04-02T11:17:02.91Z</time></trkpt><trkpt lat="43.1603446" lon="11.3934186"><ele>277.0</ele><time>2026-04-02T11:17:03.91Z</time></trkpt><trkpt lat="43.1601172" lon="11.3935205"><ele>277.0</ele><time>2026-04-02T11:17:04.91Z</time></trkpt><trkpt lat="43.159921" lon="11.393623"><ele>277.0</ele><time>2026-04-02T11:17:05.909Z</time></trkpt><trkpt lat="43.1597385" lon="11.3937369"><ele>276.66666666666663</ele><time>2026-04-02T11:17:06.909Z</time></trkpt><trkpt lat="43.1595736" lon="11.3938541"><ele>276.3333333333333</ele><time>2026-04-02T11:17:07.909Z</time></trkpt><trkpt lat="43.1594284" lon="11.393988"><ele>276.0</ele><time>2026-04-02T11:17:08.91Z</time></trkpt><trkpt lat="43.1592902" lon="11.3941411"><ele>276.0</ele><time>2026-04-02T11:17:09.91Z</time></trkpt><trkpt lat="43.1591524" lon="11.3943179"><ele>276.0</ele><time>2026-04-02T11:17:10.91Z</time></trkpt><trkpt lat="43.1590219" lon="11.3945052"><ele>276.0</ele><time>2026-04-02T11:17:11.91Z</time></trkpt><trkpt lat="43.1589032" lon="11.3947159"><ele>277.0</ele><time>2026-04-02T11:17:12.91Z</time></trkpt><trkpt lat="43.158808" lon="11.394951"><ele>278.0</ele><time>2026-04-02T11:17:13.91Z</time></trkpt><trkpt lat="43.1587427" lon="11.3952061"><ele>279.0</ele><time>2026-04-02T11:17:14.91Z</time></trkpt><trkpt lat="43.1586988" lon="11.3954788"><ele>279.0</ele><time>2026-04-02T11:17:15.91Z</time></trkpt><trkpt lat="43.1586827" lon="11.3957733"><ele>279.0</ele><time>2026-04-02T11:17:16.91Z</time></trkpt><trkpt lat="43.158681" lon="11.3960841"><ele>279.0</ele><time>2026-04-02T11:17:17.909Z</time></trkpt><trkpt lat="43.1586795" lon="11.3964113"><ele>279.5</ele><time>2026-04-02T11:17:18.909Z</time></trkpt><trkpt lat="43.1586724" lon="11.3967398"><ele>280.0</ele><time>2026-04-02T11:17:19.91Z</time></trkpt><trkpt lat="43.1586697" lon="11.397088"><ele>280.0</ele><time>2026-04-02T11:17:20.91Z</time></trkpt><trkpt lat="43.1586694" lon="11.3973988"><ele>280.0</ele><time>2026-04-02T11:17:21.91Z</time></trkpt><trkpt lat="43.1586889" lon="11.3976894"><ele>280.0</ele><time>2026-04-02T11:17:22.91Z</time></trkpt><trkpt lat="43.1587272" lon="11.3979702"><ele>280.66666666666663</ele><time>2026-04-02T11:17:23.909Z</time></trkpt><trkpt lat="43.1587767" lon="11.3982352"><ele>281.3333333333333</ele><time>2026-04-02T11:17:24.91Z</time></trkpt><trkpt lat="43.158832" lon="11.398475"><ele>282.0</ele><time>2026-04-02T11:17:25.91Z</time></trkpt><trkpt lat="43.1588827" lon="11.3987115"><ele>282.5</ele><time>2026-04-02T11:17:26.91Z</time></trkpt><trkpt lat="43.1589131" lon="11.3989308"><ele>283.0</ele><time>2026-04-02T11:17:27.909Z</time></trkpt><trkpt lat="43.158918" lon="11.399136"><ele>283.5</ele><time>2026-04-02T11:17:28.91Z</time></trkpt><trkpt lat="43.1588963" lon="11.3993119"><ele>284.0</ele><time>2026-04-02T11:17:29.91Z</time></trkpt><trkpt lat="43.1588457" lon="11.3994481"><ele>284.0</ele><time>2026-04-02T11:17:30.91Z</time></trkpt><trkpt lat="43.1587671" lon="11.3995525"><ele>284.0</ele><time>2026-04-02T11:17:31.91Z</time></trkpt><trkpt lat="43.1586533" lon="11.3996049"><ele>284.0</ele><time>2026-04-02T11:17:32.91Z</time></trkpt><trkpt lat="43.1585274" lon="11.3996219"><ele>284.0</ele><time>2026-04-02T11:17:33.91Z</time></trkpt><trkpt lat="43.1583746" lon="11.399598"><ele>284.0</ele><time>2026-04-02T11:17:34.91Z</time></trkpt><trkpt lat="43.1582079" lon="11.3996088"><ele>284.0</ele><time>2026-04-02T11:17:35.91Z</time></trkpt><trkpt lat="43.158036" lon="11.3996616"><ele>284.0</ele><time>2026-04-02T11:17:36.91Z</time></trkpt><trkpt lat="43.1578798" lon="11.3997465"><ele>286.0</ele><time>2026-04-02T11:17:37.91Z</time></trkpt><trkpt lat="43.1577288" lon="11.3998717"><ele>288.0</ele><time>2026-04-02T11:17:38.91Z</time></trkpt><trkpt lat="43.1575817" lon="11.3999918"><ele>290.0</ele><time>2026-04-02T11:17:39.91Z</time></trkpt><trkpt lat="43.1574396" lon="11.4000819"><ele>291.33333333333337</ele><time>2026-04-02T11:17:40.91Z</time></trkpt><trkpt lat="43.1572884" lon="11.4001376"><ele>292.6666666666667</ele><time>2026-04-02T11:17:41.909Z</time></trkpt><trkpt lat="43.1571204" lon="11.4001413"><ele>294.0</ele><time>2026-04-02T11:17:42.91Z</time></trkpt><trkpt lat="43.1569523" lon="11.4000974"><ele>294.0</ele><time>2026-04-02T11:17:43.91Z</time></trkpt><trkpt lat="43.1568045" lon="11.4000329"><ele>294.0</ele><time>2026-04-02T11:17:44.91Z</time></trkpt><trkpt lat="43.1566692" lon="11.3999908"><ele>294.0</ele><time>2026-04-02T11:17:45.91Z</time></trkpt><trkpt lat="43.1565447" lon="11.3999775"><ele>294.0</ele><time>2026-04-02T11:17:46.91Z</time></trkpt><trkpt lat="43.1564392" lon="11.400006"><ele>296.59999999999997</ele><time>2026-04-02T11:17:47.91Z</time></trkpt><trkpt lat="43.1563482" lon="11.4000753"><ele>299.2</ele><time>2026-04-02T11:17:48.91Z</time></trkpt><trkpt lat="43.1562989" lon="11.4002091"><ele>301.79999999999995</ele><time>2026-04-02T11:17:49.91Z</time></trkpt><trkpt lat="43.1562901" lon="11.4003544"><ele>304.4</ele><time>2026-04-02T11:17:50.91Z</time></trkpt><trkpt lat="43.1563173" lon="11.400515"><ele>307.0</ele><time>2026-04-02T11:17:51.91Z</time></trkpt><trkpt lat="43.1563829" lon="11.4006913"><ele>307.3333333333333</ele><time>2026-04-02T11:17:52.91Z</time></trkpt><trkpt lat="43.1564739" lon="11.4008873"><ele>307.6666666666667</ele><time>2026-04-02T11:17:53.91Z</time></trkpt><trkpt lat="43.1565647" lon="11.4010879"><ele>308.0</ele><time>2026-04-02T11:17:54.91Z</time></trkpt><trkpt lat="43.1566346" lon="11.4012846"><ele>300.33333333333337</ele><time>2026-04-02T11:17:55.909Z</time></trkpt><trkpt lat="43.1566804" lon="11.4014868"><ele>292.6666666666667</ele><time>2026-04-02T11:17:56.91Z</time></trkpt><trkpt lat="43.1566922" lon="11.4016984"><ele>285.0</ele><time>2026-04-02T11:17:57.91Z</time></trkpt><trkpt lat="43.1566746" lon="11.4019264"><ele>284.3333333333333</ele><time>2026-04-02T11:17:58.91Z</time></trkpt><trkpt lat="43.1566396" lon="11.4021687"><ele>283.66666666666663</ele><time>2026-04-02T11:17:59.91Z</time></trkpt><trkpt lat="43.1565957" lon="11.4024242"><ele>283.0</ele><time>2026-04-02T11:18:00.91Z</time></trkpt><trkpt lat="43.1565513" lon="11.4026964"><ele>288.0</ele><time>2026-04-02T11:18:01.91Z</time></trkpt><trkpt lat="43.1565123" lon="11.4029755"><ele>293.0</ele><time>2026-04-02T11:18:02.91Z</time></trkpt><trkpt lat="43.1564831" lon="11.4032467"><ele>298.0</ele><time>2026-04-02T11:18:03.91Z</time></trkpt><trkpt lat="43.1564609" lon="11.4035041"><ele>298.0</ele><time>2026-04-02T11:18:04.91Z</time></trkpt><trkpt lat="43.1564399" lon="11.4037418"><ele>298.0</ele><time>2026-04-02T11:18:05.91Z</time></trkpt><trkpt lat="43.1564098" lon="11.4039582"><ele>298.0</ele><time>2026-04-02T11:18:06.91Z</time></trkpt><trkpt lat="43.1563655" lon="11.4041563"><ele>296.0</ele><time>2026-04-02T11:18:07.91Z</time></trkpt><trkpt lat="43.1562917" lon="11.4043308"><ele>294.0</ele><time>2026-04-02T11:18:08.91Z</time></trkpt><trkpt lat="43.1561817" lon="11.4044971"><ele>292.0</ele><time>2026-04-02T11:18:09.91Z</time></trkpt><trkpt lat="43.156048" lon="11.4046388"><ele>289.66666666666663</ele><time>2026-04-02T11:18:10.91Z</time></trkpt><trkpt lat="43.1558972" lon="11.4047519"><ele>287.3333333333333</ele><time>2026-04-02T11:18:11.91Z</time></trkpt><trkpt lat="43.1557256" lon="11.4048262"><ele>285.0</ele><time>2026-04-02T11:18:12.91Z</time></trkpt><trkpt lat="43.1555299" lon="11.4048641"><ele>285.0</ele><time>2026-04-02T11:18:13.908Z</time></trkpt><trkpt lat="43.1553247" lon="11.4049056"><ele>285.0</ele><time>2026-04-02T11:18:14.91Z</time></trkpt><trkpt lat="43.1551041" lon="11.4049759"><ele>285.0</ele><time>2026-04-02T11:18:15.91Z</time></trkpt><trkpt lat="43.1548895" lon="11.4050653"><ele>288.0</ele><time>2026-04-02T11:18:16.91Z</time></trkpt><trkpt lat="43.1546925" lon="11.4051571"><ele>291.0</ele><time>2026-04-02T11:18:17.91Z</time></trkpt><trkpt lat="43.1545022" lon="11.4052686"><ele>294.0</ele><time>2026-04-02T11:18:18.91Z</time></trkpt><trkpt lat="43.1543306" lon="11.4053935"><ele>291.3333333333333</ele><time>2026-04-02T11:18:19.91Z</time></trkpt><trkpt lat="43.1541713" lon="11.4055051"><ele>288.66666666666663</ele><time>2026-04-02T11:18:20.91Z</time></trkpt><trkpt lat="43.1539987" lon="11.4055897"><ele>286.0</ele><time>2026-04-02T11:18:21.91Z</time></trkpt><trkpt lat="43.1538107" lon="11.4056354"><ele>286.0</ele><time>2026-04-02T11:18:22.91Z</time></trkpt><trkpt lat="43.1536341" lon="11.4056515"><ele>286.0</ele><time>2026-04-02T11:18:23.909Z</time></trkpt><trkpt lat="43.153487" lon="11.4056782"><ele>286.0</ele><time>2026-04-02T11:18:24.91Z</time></trkpt><trkpt lat="43.1533398" lon="11.4057247"><ele>289.3333333333333</ele><time>2026-04-02T11:18:25.91Z</time></trkpt><trkpt lat="43.1531922" lon="11.4058395"><ele>292.6666666666667</ele><time>2026-04-02T11:18:26.91Z</time></trkpt><trkpt lat="43.1530457" lon="11.4059846"><ele>296.0</ele><time>2026-04-02T11:18:27.91Z</time></trkpt><trkpt lat="43.1528937" lon="11.4061353"><ele>296.0</ele><time>2026-04-02T11:18:28.91Z</time></trkpt><trkpt lat="43.1527393" lon="11.4062693"><ele>296.0</ele><time>2026-04-02T11:18:29.91Z</time></trkpt><trkpt lat="43.152569" lon="11.4063915"><ele>296.0</ele><time>2026-04-02T11:18:30.91Z</time></trkpt><trkpt lat="43.1523887" lon="11.4064871"><ele>291.6666666666667</ele><time>2026-04-02T11:18:31.91Z</time></trkpt><trkpt lat="43.1521954" lon="11.4065454"><ele>287.3333333333333</ele><time>2026-04-02T11:18:32.91Z</time></trkpt><trkpt lat="43.1519894" lon="11.4065767"><ele>283.0</ele><time>2026-04-02T11:18:33.909Z</time></trkpt><trkpt lat="43.1517708" lon="11.4065964"><ele>283.0</ele><time>2026-04-02T11:18:34.91Z</time></trkpt><trkpt lat="43.1515602" lon="11.4066241"><ele>283.0</ele><time>2026-04-02T11:18:35.91Z</time></trkpt><trkpt lat="43.1513641" lon="11.4066742"><ele>283.0</ele><time>2026-04-02T11:18:36.91Z</time></trkpt><trkpt lat="43.1511752" lon="11.4067262"><ele>282.3333333333333</ele><time>2026-04-02T11:18:37.91Z</time></trkpt><trkpt lat="43.1509864" lon="11.4067623"><ele>281.6666666666667</ele><time>2026-04-02T11:18:38.91Z</time></trkpt><trkpt lat="43.1507976" lon="11.4067771"><ele>281.0</ele><time>2026-04-02T11:18:39.91Z</time></trkpt><trkpt lat="43.150609" lon="11.406764"><ele>281.0</ele><time>2026-04-02T11:18:40.91Z</time></trkpt><trkpt lat="43.1504315" lon="11.4067259"><ele>281.0</ele><time>2026-04-02T11:18:41.91Z</time></trkpt><trkpt lat="43.1502812" lon="11.4066554"><ele>281.0</ele><time>2026-04-02T11:18:42.91Z</time></trkpt><trkpt lat="43.1501473" lon="11.4065505"><ele>281.0</ele><time>2026-04-02T11:18:43.909Z</time></trkpt><trkpt lat="43.150033" lon="11.4064179"><ele>281.0</ele><time>2026-04-02T11:18:44.91Z</time></trkpt><trkpt lat="43.1499303" lon="11.4062952"><ele>281.0</ele><time>2026-04-02T11:18:45.91Z</time></trkpt><trkpt lat="43.1498255" lon="11.4061837"><ele>281.0</ele><time>2026-04-02T11:18:46.91Z</time></trkpt><trkpt lat="43.1496711" lon="11.4061935"><ele>282.0</ele><time>2026-04-02T11:18:47.91Z</time></trkpt><trkpt lat="43.1495411" lon="11.4062399"><ele>283.0</ele><time>2026-04-02T11:18:48.91Z</time></trkpt><trkpt lat="43.1494244" lon="11.4063364"><ele>284.0</ele><time>2026-04-02T11:18:49.91Z</time></trkpt><trkpt lat="43.1493129" lon="11.406453"><ele>285.0</ele><time>2026-04-02T11:18:50.91Z</time></trkpt><trkpt lat="43.149208" lon="11.4065814"><ele>285.0</ele><time>2026-04-02T11:18:51.91Z</time></trkpt><trkpt lat="43.1490743" lon="11.4066511"><ele>285.0</ele><time>2026-04-02T11:18:52.91Z</time></trkpt><trkpt lat="43.148927" lon="11.4067021"><ele>285.0</ele><time>2026-04-02T11:18:53.909Z</time></trkpt><trkpt lat="43.1487687" lon="11.4067363"><ele>286.3333333333333</ele><time>2026-04-02T11:18:54.91Z</time></trkpt><trkpt lat="43.1486162" lon="11.4068135"><ele>287.66666666666663</ele><time>2026-04-02T11:18:55.91Z</time></trkpt><trkpt lat="43.1484797" lon="11.4069315"><ele>289.0</ele><time>2026-04-02T11:18:56.91Z</time></trkpt><trkpt lat="43.1483582" lon="11.4070864"><ele>290.0</ele><time>2026-04-02T11:18:57.91Z</time></trkpt><trkpt lat="43.1482443" lon="11.4072647"><ele>291.0</ele><time>2026-04-02T11:18:58.91Z</time></trkpt><trkpt lat="43.1481547" lon="11.4074886"><ele>292.0</ele><time>2026-04-02T11:18:59.91Z</time></trkpt><trkpt lat="43.1480637" lon="11.4076896"><ele>292.0</ele><time>2026-04-02T11:19:00.91Z</time></trkpt><trkpt lat="43.1479884" lon="11.4079054"><ele>292.0</ele><time>2026-04-02T11:19:01.91Z</time></trkpt><trkpt lat="43.1479314" lon="11.4081463"><ele>292.0</ele><time>2026-04-02T11:19:02.91Z</time></trkpt><trkpt lat="43.1478987" lon="11.4084129"><ele>290.0</ele><time>2026-04-02T11:19:03.91Z</time></trkpt><trkpt lat="43.1478694" lon="11.4087015"><ele>288.0</ele><time>2026-04-02T11:19:04.91Z</time></trkpt><trkpt lat="43.1478334" lon="11.4089955"><ele>286.0</ele><time>2026-04-02T11:19:05.909Z</time></trkpt><trkpt lat="43.1477958" lon="11.409272"><ele>284.0</ele><time>2026-04-02T11:19:06.91Z</time></trkpt><trkpt lat="43.1477596" lon="11.4095265"><ele>282.0</ele><time>2026-04-02T11:19:07.91Z</time></trkpt><trkpt lat="43.1477221" lon="11.4097485"><ele>280.0</ele><time>2026-04-02T11:19:08.91Z</time></trkpt><trkpt lat="43.1476766" lon="11.4099526"><ele>277.66666666666663</ele><time>2026-04-02T11:19:09.91Z</time></trkpt><trkpt lat="43.1476103" lon="11.4101446"><ele>275.3333333333333</ele><time>2026-04-02T11:19:10.91Z</time></trkpt><trkpt lat="43.1475162" lon="11.4103159"><ele>273.0</ele><time>2026-04-02T11:19:11.91Z</time></trkpt><trkpt lat="43.14739" lon="11.4104665"><ele>270.6666666666667</ele><time>2026-04-02T11:19:12.91Z</time></trkpt><trkpt lat="43.1472375" lon="11.4105892"><ele>268.33333333333337</ele><time>2026-04-02T11:19:13.91Z</time></trkpt><trkpt lat="43.1470813" lon="11.4107003"><ele>266.0</ele><time>2026-04-02T11:19:14.91Z</time></trkpt><trkpt lat="43.1469229" lon="11.4108254"><ele>266.0</ele><time>2026-04-02T11:19:15.909Z</time></trkpt><trkpt lat="43.1467642" lon="11.4109749"><ele>266.0</ele><time>2026-04-02T11:19:16.91Z</time></trkpt><trkpt lat="43.1466208" lon="11.4111633"><ele>266.0</ele><time>2026-04-02T11:19:17.91Z</time></trkpt><trkpt lat="43.1464894" lon="11.4113604"><ele>264.33333333333337</ele><time>2026-04-02T11:19:18.91Z</time></trkpt><trkpt lat="43.146372" lon="11.4115514"><ele>262.6666666666667</ele><time>2026-04-02T11:19:19.91Z</time></trkpt><trkpt lat="43.1462671" lon="11.4117204"><ele>261.0</ele><time>2026-04-02T11:19:20.91Z</time></trkpt><trkpt lat="43.1461777" lon="11.4118786"><ele>261.0</ele><time>2026-04-02T11:19:21.91Z</time></trkpt><trkpt lat="43.1460989" lon="11.4120315"><ele>261.0</ele><time>2026-04-02T11:19:22.91Z</time></trkpt><trkpt lat="43.1460334" lon="11.412188"><ele>261.0</ele><time>2026-04-02T11:19:23.91Z</time></trkpt><trkpt lat="43.1459784" lon="11.4123439"><ele>261.0</ele><time>2026-04-02T11:19:24.91Z</time></trkpt><trkpt lat="43.145934" lon="11.412505"><ele>259.0</ele><time>2026-04-02T11:19:25.91Z</time></trkpt><trkpt lat="43.1458971" lon="11.4126671"><ele>257.0</ele><time>2026-04-02T11:19:26.91Z</time></trkpt><trkpt lat="43.1458671" lon="11.4128242"><ele>255.0</ele><time>2026-04-02T11:19:27.91Z</time></trkpt><trkpt lat="43.1458349" lon="11.4129638"><ele>253.0</ele><time>2026-04-02T11:19:28.91Z</time></trkpt><trkpt lat="43.145797" lon="11.4130929"><ele>252.8</ele><time>2026-04-02T11:19:29.909Z</time></trkpt><trkpt lat="43.1457527" lon="11.4132147"><ele>252.60000000000002</ele><time>2026-04-02T11:19:30.91Z</time></trkpt><trkpt lat="43.1457006" lon="11.4133323"><ele>252.39999999999998</ele><time>2026-04-02T11:19:31.91Z</time></trkpt><trkpt lat="43.1456385" lon="11.4134502"><ele>252.2</ele><time>2026-04-02T11:19:32.909Z</time></trkpt><trkpt lat="43.1455705" lon="11.4135673"><ele>252.0</ele><time>2026-04-02T11:19:33.91Z</time></trkpt><trkpt lat="43.1454912" lon="11.4136835"><ele>250.5</ele><time>2026-04-02T11:19:34.91Z</time></trkpt><trkpt lat="43.1454065" lon="11.413799"><ele>249.0</ele><time>2026-04-02T11:19:35.91Z</time></trkpt><trkpt lat="43.1453287" lon="11.4139224"><ele>247.5</ele><time>2026-04-02T11:19:36.91Z</time></trkpt><trkpt lat="43.1452705" lon="11.4140583"><ele>246.0</ele><time>2026-04-02T11:19:37.91Z</time></trkpt><trkpt lat="43.1452291" lon="11.4142097"><ele>245.0</ele><time>2026-04-02T11:19:38.91Z</time></trkpt><trkpt lat="43.1452104" lon="11.4143708"><ele>244.0</ele><time>2026-04-02T11:19:39.91Z</time></trkpt><trkpt lat="43.1452261" lon="11.4145283"><ele>243.0</ele><time>2026-04-02T11:19:40.91Z</time></trkpt><trkpt lat="43.145269" lon="11.4146805"><ele>242.0</ele><time>2026-04-02T11:19:41.91Z</time></trkpt><trkpt lat="43.1453326" lon="11.4148152"><ele>240.5</ele><time>2026-04-02T11:19:42.91Z</time></trkpt><trkpt lat="43.1454092" lon="11.4149421"><ele>239.0</ele><time>2026-04-02T11:19:43.91Z</time></trkpt><trkpt lat="43.1454936" lon="11.4150642"><ele>237.5</ele><time>2026-04-02T11:19:44.909Z</time></trkpt><trkpt lat="43.1455736" lon="11.4151918"><ele>236.0</ele><time>2026-04-02T11:19:45.91Z</time></trkpt><trkpt lat="43.1456491" lon="11.4153242"><ele>236.0</ele><time>2026-04-02T11:19:46.91Z</time></trkpt><trkpt lat="43.1457081" lon="11.4154756"><ele>236.0</ele><time>2026-04-02T11:19:47.91Z</time></trkpt><trkpt lat="43.145755" lon="11.4156457"><ele>236.0</ele><time>2026-04-02T11:19:48.91Z</time></trkpt><trkpt lat="43.1457712" lon="11.4158127"><ele>236.0</ele><time>2026-04-02T11:19:49.91Z</time></trkpt><trkpt lat="43.1457894" lon="11.4159898"><ele>236.0</ele><time>2026-04-02T11:19:50.91Z</time></trkpt><trkpt lat="43.1457661" lon="11.4162059"><ele>236.0</ele><time>2026-04-02T11:19:51.909Z</time></trkpt><trkpt lat="43.1457485" lon="11.416424"><ele>236.0</ele><time>2026-04-02T11:19:52.91Z</time></trkpt><trkpt lat="43.1457234" lon="11.4166427"><ele>231.33333333333334</ele><time>2026-04-02T11:19:53.909Z</time></trkpt><trkpt lat="43.1456968" lon="11.4168737"><ele>226.66666666666669</ele><time>2026-04-02T11:19:54.91Z</time></trkpt><trkpt lat="43.1456569" lon="11.4171044"><ele>222.0</ele><time>2026-04-02T11:19:55.91Z</time></trkpt><trkpt lat="43.1456021" lon="11.4173184"><ele>220.33333333333331</ele><time>2026-04-02T11:19:56.91Z</time></trkpt><trkpt lat="43.1455429" lon="11.4175256"><ele>218.66666666666666</ele><time>2026-04-02T11:19:57.91Z</time></trkpt><trkpt lat="43.1454781" lon="11.4177204"><ele>217.0</ele><time>2026-04-02T11:19:58.91Z</time></trkpt><trkpt lat="43.1454217" lon="11.4179233"><ele>216.0</ele><time>2026-04-02T11:19:59.91Z</time></trkpt><trkpt lat="43.1453805" lon="11.418148"><ele>215.0</ele><time>2026-04-02T11:20:00.91Z</time></trkpt><trkpt lat="43.1453589" lon="11.4183924"><ele>214.0</ele><time>2026-04-02T11:20:01.91Z</time></trkpt><trkpt lat="43.1453509" lon="11.4186536"><ele>213.66666666666666</ele><time>2026-04-02T11:20:02.91Z</time></trkpt><trkpt lat="43.1453434" lon="11.4189019"><ele>213.33333333333331</ele><time>2026-04-02T11:20:03.91Z</time></trkpt><trkpt lat="43.1453198" lon="11.4191372"><ele>213.0</ele><time>2026-04-02T11:20:04.91Z</time></trkpt><trkpt lat="43.1452861" lon="11.4193642"><ele>213.0</ele><time>2026-04-02T11:20:05.91Z</time></trkpt><trkpt lat="43.1452405" lon="11.419579"><ele>213.0</ele><time>2026-04-02T11:20:06.91Z</time></trkpt><trkpt lat="43.1451951" lon="11.4197922"><ele>213.0</ele><time>2026-04-02T11:20:07.908Z</time></trkpt><trkpt lat="43.1451644" lon="11.420002"><ele>212.25</ele><time>2026-04-02T11:20:08.91Z</time></trkpt><trkpt lat="43.1451479" lon="11.4202044"><ele>211.5</ele><time>2026-04-02T11:20:09.91Z</time></trkpt><trkpt lat="43.145143" lon="11.4203948"><ele>210.75</ele><time>2026-04-02T11:20:10.91Z</time></trkpt><trkpt lat="43.1451455" lon="11.4205636"><ele>210.0</ele><time>2026-04-02T11:20:11.91Z</time></trkpt><trkpt lat="43.1451491" lon="11.4207223"><ele>209.4</ele><time>2026-04-02T11:20:12.91Z</time></trkpt><trkpt lat="43.145154" lon="11.4208696"><ele>208.8</ele><time>2026-04-02T11:20:13.91Z</time></trkpt><trkpt lat="43.1451645" lon="11.4210138"><ele>208.2</ele><time>2026-04-02T11:20:14.91Z</time></trkpt><trkpt lat="43.1451816" lon="11.4211607"><ele>207.6</ele><time>2026-04-02T11:20:15.91Z</time></trkpt><trkpt lat="43.1452143" lon="11.4213123"><ele>207.0</ele><time>2026-04-02T11:20:16.91Z</time></trkpt><trkpt lat="43.1452553" lon="11.4214592"><ele>206.75</ele><time>2026-04-02T11:20:17.91Z</time></trkpt><trkpt lat="43.1453054" lon="11.4216112"><ele>206.5</ele><time>2026-04-02T11:20:18.91Z</time></trkpt><trkpt lat="43.1453563" lon="11.4217717"><ele>206.25</ele><time>2026-04-02T11:20:19.909Z</time></trkpt><trkpt lat="43.1454058" lon="11.4219312"><ele>206.0</ele><time>2026-04-02T11:20:20.91Z</time></trkpt><trkpt lat="43.1454613" lon="11.4220879"><ele>206.75</ele><time>2026-04-02T11:20:21.91Z</time></trkpt><trkpt lat="43.1455153" lon="11.4222515"><ele>207.5</ele><time>2026-04-02T11:20:22.91Z</time></trkpt><trkpt lat="43.1455745" lon="11.4224243"><ele>208.25</ele><time>2026-04-02T11:20:23.91Z</time></trkpt><trkpt lat="43.1456405" lon="11.4226057"><ele>209.0</ele><time>2026-04-02T11:20:24.91Z</time></trkpt><trkpt lat="43.14571" lon="11.4227889"><ele>208.5</ele><time>2026-04-02T11:20:25.91Z</time></trkpt><trkpt lat="43.1457694" lon="11.4229571"><ele>208.0</ele><time>2026-04-02T11:20:26.91Z</time></trkpt><trkpt lat="43.1458297" lon="11.423126"><ele>207.5</ele><time>2026-04-02T11:20:27.91Z</time></trkpt><trkpt lat="43.1458815" lon="11.4232836"><ele>207.0</ele><time>2026-04-02T11:20:28.91Z</time></trkpt><trkpt lat="43.1459254" lon="11.4234457"><ele>207.0</ele><time>2026-04-02T11:20:29.91Z</time></trkpt><trkpt lat="43.1459524" lon="11.4236013"><ele>207.0</ele><time>2026-04-02T11:20:30.91Z</time></trkpt><trkpt lat="43.1459666" lon="11.423739"><ele>207.0</ele><time>2026-04-02T11:20:31.91Z</time></trkpt><trkpt lat="43.1459665" lon="11.4238841"><ele>207.0</ele><time>2026-04-02T11:20:32.91Z</time></trkpt><trkpt lat="43.1459509" lon="11.424031"><ele>207.0</ele><time>2026-04-02T11:20:33.91Z</time></trkpt><trkpt lat="43.1459118" lon="11.4241725"><ele>206.75</ele><time>2026-04-02T11:20:34.91Z</time></trkpt><trkpt lat="43.1458563" lon="11.4243182"><ele>206.5</ele><time>2026-04-02T11:20:35.91Z</time></trkpt><trkpt lat="43.1457899" lon="11.4244681"><ele>206.25</ele><time>2026-04-02T11:20:36.91Z</time></trkpt><trkpt lat="43.1457295" lon="11.424591"><ele>206.0</ele><time>2026-04-02T11:20:37.91Z</time></trkpt><trkpt lat="43.1456697" lon="11.4246937"><ele>208.33333333333334</ele><time>2026-04-02T11:20:38.91Z</time></trkpt><trkpt lat="43.1456133" lon="11.4247898"><ele>210.66666666666669</ele><time>2026-04-02T11:20:39.91Z</time></trkpt><trkpt lat="43.1455769" lon="11.4248912"><ele>213.0</ele><time>2026-04-02T11:20:40.91Z</time></trkpt><trkpt lat="43.1455607" lon="11.4249958"><ele>215.33333333333331</ele><time>2026-04-02T11:20:41.91Z</time></trkpt><trkpt lat="43.1455706" lon="11.425094"><ele>217.66666666666666</ele><time>2026-04-02T11:20:42.91Z</time></trkpt><trkpt lat="43.1456" lon="11.4251811"><ele>220.0</ele><time>2026-04-02T11:20:43.91Z</time></trkpt><trkpt lat="43.1456502" lon="11.425255"><ele>218.6</ele><time>2026-04-02T11:20:44.91Z</time></trkpt><trkpt lat="43.1457269" lon="11.4253192"><ele>217.2</ele><time>2026-04-02T11:20:45.91Z</time></trkpt><trkpt lat="43.1458223" lon="11.4253786"><ele>215.8</ele><time>2026-04-02T11:20:46.91Z</time></trkpt><trkpt lat="43.1459296" lon="11.4254373"><ele>214.4</ele><time>2026-04-02T11:20:47.91Z</time></trkpt><trkpt lat="43.1460414" lon="11.4255169"><ele>213.0</ele><time>2026-04-02T11:20:48.91Z</time></trkpt><trkpt lat="43.1461614" lon="11.4256315"><ele>213.0</ele><time>2026-04-02T11:20:49.91Z</time></trkpt><trkpt lat="43.1462825" lon="11.4257663"><ele>213.0</ele><time>2026-04-02T11:20:50.91Z</time></trkpt><trkpt lat="43.1464173" lon="11.4259139"><ele>213.0</ele><time>2026-04-02T11:20:51.91Z</time></trkpt><trkpt lat="43.1465565" lon="11.4260505"><ele>212.66666666666669</ele><time>2026-04-02T11:20:52.91Z</time></trkpt><trkpt lat="43.1466976" lon="11.4261739"><ele>212.33333333333334</ele><time>2026-04-02T11:20:53.91Z</time></trkpt><trkpt lat="43.1468355" lon="11.4262852"><ele>212.0</ele><time>2026-04-02T11:20:54.91Z</time></trkpt><trkpt lat="43.1469734" lon="11.426395"><ele>212.0</ele><time>2026-04-02T11:20:55.91Z</time></trkpt><trkpt lat="43.1471099" lon="11.4265204"><ele>212.0</ele><time>2026-04-02T11:20:56.91Z</time></trkpt><trkpt lat="43.1472307" lon="11.4266545"><ele>212.0</ele><time>2026-04-02T11:20:57.91Z</time></trkpt><trkpt lat="43.1473329" lon="11.4267798"><ele>209.25</ele><time>2026-04-02T11:20:58.91Z</time></trkpt><trkpt lat="43.1474251" lon="11.4268957"><ele>206.5</ele><time>2026-04-02T11:20:59.91Z</time></trkpt><trkpt lat="43.1475145" lon="11.4269936"><ele>203.75</ele><time>2026-04-02T11:21:00.909Z</time></trkpt><trkpt lat="43.1476138" lon="11.4270766"><ele>201.0</ele><time>2026-04-02T11:21:01.91Z</time></trkpt><trkpt lat="43.1477289" lon="11.4271403"><ele>202.0</ele><time>2026-04-02T11:21:02.91Z</time></trkpt><trkpt lat="43.1478602" lon="11.4271861"><ele>203.0</ele><time>2026-04-02T11:21:03.91Z</time></trkpt><trkpt lat="43.147999" lon="11.4272209"><ele>204.0</ele><time>2026-04-02T11:21:04.91Z</time></trkpt><trkpt lat="43.148128" lon="11.4272673"><ele>205.0</ele><time>2026-04-02T11:21:05.909Z</time></trkpt><trkpt lat="43.148264" lon="11.4273312"><ele>205.0</ele><time>2026-04-02T11:21:06.91Z</time></trkpt><trkpt lat="43.1484038" lon="11.4273973"><ele>205.0</ele><time>2026-04-02T11:21:07.91Z</time></trkpt><trkpt lat="43.1485387" lon="11.4274608"><ele>205.0</ele><time>2026-04-02T11:21:08.91Z</time></trkpt><trkpt lat="43.1486622" lon="11.4275265"><ele>205.0</ele><time>2026-04-02T11:21:09.91Z</time></trkpt><trkpt lat="43.1487804" lon="11.4275864"><ele>205.0</ele><time>2026-04-02T11:21:10.91Z</time></trkpt><trkpt lat="43.1488989" lon="11.427649"><ele>205.0</ele><time>2026-04-02T11:21:11.909Z</time></trkpt><trkpt lat="43.1490202" lon="11.4277162"><ele>205.0</ele><time>2026-04-02T11:21:12.91Z</time></trkpt><trkpt lat="43.1491455" lon="11.4277939"><ele>205.0</ele><time>2026-04-02T11:21:13.91Z</time></trkpt><trkpt lat="43.149266" lon="11.4278886"><ele>202.25</ele><time>2026-04-02T11:21:14.909Z</time></trkpt><trkpt lat="43.1493874" lon="11.4280058"><ele>199.5</ele><time>2026-04-02T11:21:15.91Z</time></trkpt><trkpt lat="43.149503" lon="11.4281354"><ele>196.75</ele><time>2026-04-02T11:21:16.91Z</time></trkpt><trkpt lat="43.1496208" lon="11.4282595"><ele>194.0</ele><time>2026-04-02T11:21:17.91Z</time></trkpt><trkpt lat="43.1497414" lon="11.4283782"><ele>194.0</ele><time>2026-04-02T11:21:18.91Z</time></trkpt><trkpt lat="43.1498592" lon="11.4285003"><ele>194.0</ele><time>2026-04-02T11:21:19.91Z</time></trkpt><trkpt lat="43.1499698" lon="11.4286311"><ele>194.0</ele><time>2026-04-02T11:21:20.91Z</time></trkpt><trkpt lat="43.1500745" lon="11.4287789"><ele>194.0</ele><time>2026-04-02T11:21:21.909Z</time></trkpt><trkpt lat="43.1501643" lon="11.4289334"><ele>192.75</ele><time>2026-04-02T11:21:22.91Z</time></trkpt><trkpt lat="43.1502545" lon="11.4290895"><ele>191.5</ele><time>2026-04-02T11:21:23.909Z</time></trkpt><trkpt lat="43.1503483" lon="11.4292419"><ele>190.25</ele><time>2026-04-02T11:21:24.909Z</time></trkpt><trkpt lat="43.1504379" lon="11.4293801"><ele>189.0</ele><time>2026-04-02T11:21:25.91Z</time></trkpt><trkpt lat="43.1505277" lon="11.4295018"><ele>189.0</ele><time>2026-04-02T11:21:26.91Z</time></trkpt><trkpt lat="43.1506191" lon="11.4296175"><ele>189.0</ele><time>2026-04-02T11:21:27.91Z</time></trkpt><trkpt lat="43.1507149" lon="11.4297202"><ele>189.0</ele><time>2026-04-02T11:21:28.909Z</time></trkpt><trkpt lat="43.1508099" lon="11.4298029"><ele>189.0</ele><time>2026-04-02T11:21:29.91Z</time></trkpt><trkpt lat="43.1509079" lon="11.4298883"><ele>189.25</ele><time>2026-04-02T11:21:30.91Z</time></trkpt><trkpt lat="43.1509904" lon="11.4299915"><ele>189.5</ele><time>2026-04-02T11:21:31.91Z</time></trkpt><trkpt lat="43.1510665" lon="11.4301145"><ele>189.75</ele><time>2026-04-02T11:21:32.91Z</time></trkpt><trkpt lat="43.1511218" lon="11.4302535"><ele>190.0</ele><time>2026-04-02T11:21:33.91Z</time></trkpt><trkpt lat="43.1511455" lon="11.4304059"><ele>188.25</ele><time>2026-04-02T11:21:34.909Z</time></trkpt><trkpt lat="43.1511508" lon="11.4305787"><ele>186.5</ele><time>2026-04-02T11:21:35.91Z</time></trkpt><trkpt lat="43.1511318" lon="11.4307889"><ele>184.75</ele><time>2026-04-02T11:21:36.91Z</time></trkpt><trkpt lat="43.151109" lon="11.4309903"><ele>183.0</ele><time>2026-04-02T11:21:37.909Z</time></trkpt><trkpt lat="43.1510956" lon="11.4311925"><ele>181.5</ele><time>2026-04-02T11:21:38.91Z</time></trkpt><trkpt lat="43.1510918" lon="11.4314001"><ele>180.0</ele><time>2026-04-02T11:21:39.91Z</time></trkpt><trkpt lat="43.1511008" lon="11.4315943"><ele>178.5</ele><time>2026-04-02T11:21:40.91Z</time></trkpt><trkpt lat="43.1511232" lon="11.4317797"><ele>177.0</ele><time>2026-04-02T11:21:41.91Z</time></trkpt><trkpt lat="43.1511409" lon="11.4319472"><ele>177.0</ele><time>2026-04-02T11:21:42.91Z</time></trkpt><trkpt lat="43.151144" lon="11.4321055"><ele>177.0</ele><time>2026-04-02T11:21:43.91Z</time></trkpt><trkpt lat="43.1511301" lon="11.4322511"><ele>177.0</ele><time>2026-04-02T11:21:44.91Z</time></trkpt><trkpt lat="43.1511166" lon="11.4323884"><ele>177.0</ele><time>2026-04-02T11:21:45.91Z</time></trkpt><trkpt lat="43.1511194" lon="11.4325229"><ele>177.0</ele><time>2026-04-02T11:21:46.91Z</time></trkpt><trkpt lat="43.151138" lon="11.4326638"><ele>176.39999999999998</ele><time>2026-04-02T11:21:47.91Z</time></trkpt><trkpt lat="43.1511715" lon="11.432793"><ele>175.79999999999998</ele><time>2026-04-02T11:21:48.91Z</time></trkpt><trkpt lat="43.1512235" lon="11.4329014"><ele>175.2</ele><time>2026-04-02T11:21:49.91Z</time></trkpt><trkpt lat="43.1513036" lon="11.4330271"><ele>174.6</ele><time>2026-04-02T11:21:50.91Z</time></trkpt><trkpt lat="43.1513939" lon="11.4331486"><ele>174.0</ele><time>2026-04-02T11:21:51.91Z</time></trkpt><trkpt lat="43.1514835" lon="11.4332504"><ele>174.79999999999998</ele><time>2026-04-02T11:21:52.91Z</time></trkpt><trkpt lat="43.1515652" lon="11.4333347"><ele>175.6</ele><time>2026-04-02T11:21:53.91Z</time></trkpt><trkpt lat="43.1516498" lon="11.4334056"><ele>176.4</ele><time>2026-04-02T11:21:54.91Z</time></trkpt><trkpt lat="43.1517346" lon="11.433464"><ele>177.2</ele><time>2026-04-02T11:21:55.91Z</time></trkpt><trkpt lat="43.1518261" lon="11.4335022"><ele>178.0</ele><time>2026-04-02T11:21:56.909Z</time></trkpt><trkpt lat="43.1519216" lon="11.4335145"><ele>178.0</ele><time>2026-04-02T11:21:57.91Z</time></trkpt><trkpt lat="43.1520148" lon="11.4334997"><ele>178.0</ele><time>2026-04-02T11:21:58.91Z</time></trkpt><trkpt lat="43.1521023" lon="11.4334561"><ele>178.0</ele><time>2026-04-02T11:21:59.91Z</time></trkpt><trkpt lat="43.1521949" lon="11.4333866"><ele>178.0</ele><time>2026-04-02T11:22:00.909Z</time></trkpt><trkpt lat="43.1522842" lon="11.4332872"><ele>178.0</ele><time>2026-04-02T11:22:01.909Z</time></trkpt><trkpt lat="43.1523824" lon="11.4331705"><ele>178.33333333333334</ele><time>2026-04-02T11:22:02.91Z</time></trkpt><trkpt lat="43.1524598" lon="11.4330803"><ele>178.66666666666669</ele><time>2026-04-02T11:22:03.91Z</time></trkpt><trkpt lat="43.1525263" lon="11.4330164"><ele>179.0</ele><time>2026-04-02T11:22:04.91Z</time></trkpt><trkpt lat="43.1525915" lon="11.4329764"><ele>179.33333333333334</ele><time>2026-04-02T11:22:05.91Z</time></trkpt><trkpt lat="43.1526587" lon="11.4329678"><ele>179.66666666666666</ele><time>2026-04-02T11:22:06.91Z</time></trkpt><trkpt lat="43.1527226" lon="11.4330028"><ele>180.0</ele><time>2026-04-02T11:22:07.91Z</time></trkpt><trkpt lat="43.152773" lon="11.4330702"><ele>178.5</ele><time>2026-04-02T11:22:08.91Z</time></trkpt><trkpt lat="43.1527915" lon="11.4331621"><ele>177.0</ele><time>2026-04-02T11:22:09.91Z</time></trkpt><trkpt lat="43.1527807" lon="11.4332546"><ele>175.5</ele><time>2026-04-02T11:22:10.91Z</time></trkpt><trkpt lat="43.1527443" lon="11.4333416"><ele>174.0</ele><time>2026-04-02T11:22:11.91Z</time></trkpt><trkpt lat="43.1526845" lon="11.4334325"><ele>172.5</ele><time>2026-04-02T11:22:12.91Z</time></trkpt><trkpt lat="43.1525925" lon="11.4335358"><ele>171.0</ele><time>2026-04-02T11:22:13.909Z</time></trkpt><trkpt lat="43.1524796" lon="11.4336639"><ele>170.0</ele><time>2026-04-02T11:22:14.91Z</time></trkpt><trkpt lat="43.15236" lon="11.4338072"><ele>169.0</ele><time>2026-04-02T11:22:15.91Z</time></trkpt><trkpt lat="43.1522342" lon="11.4339647"><ele>168.0</ele><time>2026-04-02T11:22:16.91Z</time></trkpt><trkpt lat="43.1521198" lon="11.4341047"><ele>168.0</ele><time>2026-04-02T11:22:17.91Z</time></trkpt><trkpt lat="43.152013" lon="11.4342299"><ele>168.0</ele><time>2026-04-02T11:22:18.91Z</time></trkpt><trkpt lat="43.1519157" lon="11.4343416"><ele>168.0</ele><time>2026-04-02T11:22:19.91Z</time></trkpt><trkpt lat="43.1518291" lon="11.4344472"><ele>168.0</ele><time>2026-04-02T11:22:20.91Z</time></trkpt><trkpt lat="43.1517458" lon="11.434554"><ele>166.20000000000002</ele><time>2026-04-02T11:22:21.909Z</time></trkpt><trkpt lat="43.1516762" lon="11.4346605"><ele>164.4</ele><time>2026-04-02T11:22:22.91Z</time></trkpt><trkpt lat="43.1516197" lon="11.4347848"><ele>162.60000000000002</ele><time>2026-04-02T11:22:23.91Z</time></trkpt><trkpt lat="43.1515793" lon="11.4349217"><ele>160.8</ele><time>2026-04-02T11:22:24.91Z</time></trkpt><trkpt lat="43.1515651" lon="11.4350763"><ele>159.0</ele><time>2026-04-02T11:22:25.91Z</time></trkpt><trkpt lat="43.1515746" lon="11.4352536"><ele>159.0</ele><time>2026-04-02T11:22:26.91Z</time></trkpt><trkpt lat="43.1516014" lon="11.4354481"><ele>159.0</ele><time>2026-04-02T11:22:27.91Z</time></trkpt><trkpt lat="43.1516335" lon="11.4356575"><ele>159.0</ele><time>2026-04-02T11:22:28.91Z</time></trkpt><trkpt lat="43.1516626" lon="11.4358611"><ele>158.5</ele><time>2026-04-02T11:22:29.91Z</time></trkpt><trkpt lat="43.1516898" lon="11.4360601"><ele>158.0</ele><time>2026-04-02T11:22:30.91Z</time></trkpt><trkpt lat="43.151716" lon="11.436249"><ele>157.5</ele><time>2026-04-02T11:22:31.91Z</time></trkpt><trkpt lat="43.1517398" lon="11.436433"><ele>157.0</ele><time>2026-04-02T11:22:32.91Z</time></trkpt><trkpt lat="43.1517677" lon="11.4366148"><ele>156.75</ele><time>2026-04-02T11:22:33.91Z</time></trkpt><trkpt lat="43.1517946" lon="11.4367976"><ele>156.5</ele><time>2026-04-02T11:22:34.91Z</time></trkpt><trkpt lat="43.1518269" lon="11.4369912"><ele>156.25</ele><time>2026-04-02T11:22:35.91Z</time></trkpt><trkpt lat="43.1518613" lon="11.4371906"><ele>156.0</ele><time>2026-04-02T11:22:36.91Z</time></trkpt><trkpt lat="43.1518963" lon="11.437407"><ele>156.0</ele><time>2026-04-02T11:22:37.91Z</time></trkpt><trkpt lat="43.1519272" lon="11.4376242"><ele>156.0</ele><time>2026-04-02T11:22:38.91Z</time></trkpt><trkpt lat="43.1519577" lon="11.4378235"><ele>156.0</ele><time>2026-04-02T11:22:39.91Z</time></trkpt><trkpt lat="43.1519841" lon="11.4380027"><ele>156.0</ele><time>2026-04-02T11:22:40.91Z</time></trkpt><trkpt lat="43.1520023" lon="11.4381683"><ele>157.25</ele><time>2026-04-02T11:22:41.91Z</time></trkpt><trkpt lat="43.1520028" lon="11.438326"><ele>158.5</ele><time>2026-04-02T11:22:42.91Z</time></trkpt><trkpt lat="43.1519842" lon="11.4384812"><ele>159.75</ele><time>2026-04-02T11:22:43.909Z</time></trkpt><trkpt lat="43.1519444" lon="11.4386339"><ele>161.0</ele><time>2026-04-02T11:22:44.909Z</time></trkpt><trkpt lat="43.1518787" lon="11.4387841"><ele>161.75</ele><time>2026-04-02T11:22:45.91Z</time></trkpt><trkpt lat="43.1517911" lon="11.4389417"><ele>162.5</ele><time>2026-04-02T11:22:46.91Z</time></trkpt><trkpt lat="43.1516931" lon="11.4391067"><ele>163.25</ele><time>2026-04-02T11:22:47.91Z</time></trkpt><trkpt lat="43.1516104" lon="11.4392426"><ele>164.0</ele><time>2026-04-02T11:22:48.91Z</time></trkpt><trkpt lat="43.151517" lon="11.4393891"><ele>163.33333333333331</ele><time>2026-04-02T11:22:49.909Z</time></trkpt><trkpt lat="43.1514115" lon="11.4395865"><ele>162.66666666666666</ele><time>2026-04-02T11:22:50.91Z</time></trkpt><trkpt lat="43.151322" lon="11.4397498"><ele>162.0</ele><time>2026-04-02T11:22:51.91Z</time></trkpt><trkpt lat="43.1512401" lon="11.4399217"><ele>162.0</ele><time>2026-04-02T11:22:52.91Z</time></trkpt><trkpt lat="43.1511745" lon="11.4400941"><ele>162.0</ele><time>2026-04-02T11:22:53.91Z</time></trkpt><trkpt lat="43.1511058" lon="11.4402623"><ele>162.0</ele><time>2026-04-02T11:22:54.91Z</time></trkpt><trkpt lat="43.1510364" lon="11.4404148"><ele>162.0</ele><time>2026-04-02T11:22:55.91Z</time></trkpt><trkpt lat="43.1509621" lon="11.4405636"><ele>162.25</ele><time>2026-04-02T11:22:56.91Z</time></trkpt><trkpt lat="43.1508734" lon="11.4407071"><ele>162.5</ele><time>2026-04-02T11:22:57.91Z</time></trkpt><trkpt lat="43.1507621" lon="11.4408213"><ele>162.75</ele><time>2026-04-02T11:22:58.909Z</time></trkpt><trkpt lat="43.1506398" lon="11.4409186"><ele>163.0</ele><time>2026-04-02T11:22:59.91Z</time></trkpt><trkpt lat="43.1505152" lon="11.4410214"><ele>163.0</ele><time>2026-04-02T11:23:00.909Z</time></trkpt><trkpt lat="43.1503877" lon="11.4411232"><ele>163.0</ele><time>2026-04-02T11:23:01.91Z</time></trkpt><trkpt lat="43.1502554" lon="11.4412263"><ele>163.0</ele><time>2026-04-02T11:23:02.91Z</time></trkpt><trkpt lat="43.1501199" lon="11.4413412"><ele>163.0</ele><time>2026-04-02T11:23:03.91Z</time></trkpt><trkpt lat="43.1499795" lon="11.4414553"><ele>163.0</ele><time>2026-04-02T11:23:04.91Z</time></trkpt><trkpt lat="43.1498328" lon="11.4415681"><ele>163.0</ele><time>2026-04-02T11:23:05.909Z</time></trkpt><trkpt lat="43.1496818" lon="11.4416856"><ele>163.0</ele><time>2026-04-02T11:23:06.909Z</time></trkpt><trkpt lat="43.1495353" lon="11.4417989"><ele>163.0</ele><time>2026-04-02T11:23:07.91Z</time></trkpt><trkpt lat="43.1493963" lon="11.4419107"><ele>163.0</ele><time>2026-04-02T11:23:08.91Z</time></trkpt><trkpt lat="43.1492657" lon="11.4420146"><ele>163.0</ele><time>2026-04-02T11:23:09.91Z</time></trkpt><trkpt lat="43.1491361" lon="11.4421174"><ele>163.0</ele><time>2026-04-02T11:23:10.91Z</time></trkpt><trkpt lat="43.1490137" lon="11.4422196"><ele>163.0</ele><time>2026-04-02T11:23:11.91Z</time></trkpt><trkpt lat="43.1488952" lon="11.4423264"><ele>163.0</ele><time>2026-04-02T11:23:12.91Z</time></trkpt><trkpt lat="43.1487792" lon="11.4424428"><ele>163.33333333333334</ele><time>2026-04-02T11:23:13.91Z</time></trkpt><trkpt lat="43.1486698" lon="11.4425863"><ele>163.66666666666666</ele><time>2026-04-02T11:23:14.91Z</time></trkpt><trkpt lat="43.1485632" lon="11.4427444"><ele>164.0</ele><time>2026-04-02T11:23:15.91Z</time></trkpt><trkpt lat="43.1484541" lon="11.4429079"><ele>163.75</ele><time>2026-04-02T11:23:16.91Z</time></trkpt><trkpt lat="43.1483454" lon="11.443068"><ele>163.5</ele><time>2026-04-02T11:23:17.91Z</time></trkpt><trkpt lat="43.1482497" lon="11.4432086"><ele>163.25</ele><time>2026-04-02T11:23:18.91Z</time></trkpt><trkpt lat="43.1481724" lon="11.4433344"><ele>163.0</ele><time>2026-04-02T11:23:19.91Z</time></trkpt><trkpt lat="43.148115" lon="11.4434436"><ele>163.0</ele><time>2026-04-02T11:23:20.91Z</time></trkpt><trkpt lat="43.1480691" lon="11.4435665"><ele>163.0</ele><time>2026-04-02T11:23:21.91Z</time></trkpt><trkpt lat="43.1480502" lon="11.4436986"><ele>163.0</ele><time>2026-04-02T11:23:22.91Z</time></trkpt><trkpt lat="43.1480605" lon="11.4438263"><ele>163.0</ele><time>2026-04-02T11:23:23.91Z</time></trkpt><trkpt lat="43.1480885" lon="11.4439622"><ele>163.0</ele><time>2026-04-02T11:23:24.91Z</time></trkpt><trkpt lat="43.1481357" lon="11.4441029"><ele>163.2</ele><time>2026-04-02T11:23:25.91Z</time></trkpt><trkpt lat="43.1481775" lon="11.4442237"><ele>163.4</ele><time>2026-04-02T11:23:26.91Z</time></trkpt><trkpt lat="43.1482014" lon="11.4443511"><ele>163.6</ele><time>2026-04-02T11:23:27.91Z</time></trkpt><trkpt lat="43.1482021" lon="11.4444781"><ele>163.79999999999998</ele><time>2026-04-02T11:23:28.91Z</time></trkpt><trkpt lat="43.1481696" lon="11.4446007"><ele>164.0</ele><time>2026-04-02T11:23:29.91Z</time></trkpt><trkpt lat="43.1481161" lon="11.4446952"><ele>165.39999999999998</ele><time>2026-04-02T11:23:30.91Z</time></trkpt><trkpt lat="43.1480456" lon="11.4447542"><ele>166.8</ele><time>2026-04-02T11:23:31.91Z</time></trkpt><trkpt lat="43.1479594" lon="11.4447739"><ele>168.2</ele><time>2026-04-02T11:23:32.91Z</time></trkpt><trkpt lat="43.1478587" lon="11.4447702"><ele>169.60000000000002</ele><time>2026-04-02T11:23:33.91Z</time></trkpt><trkpt lat="43.1477535" lon="11.444741"><ele>171.0</ele><time>2026-04-02T11:23:34.91Z</time></trkpt><trkpt lat="43.1476453" lon="11.4446859"><ele>169.25</ele><time>2026-04-02T11:23:35.91Z</time></trkpt><trkpt lat="43.1475279" lon="11.444624"><ele>167.5</ele><time>2026-04-02T11:23:36.91Z</time></trkpt><trkpt lat="43.1474051" lon="11.4445766"><ele>165.75</ele><time>2026-04-02T11:23:37.91Z</time></trkpt><trkpt lat="43.1472721" lon="11.4445387"><ele>164.0</ele><time>2026-04-02T11:23:38.91Z</time></trkpt><trkpt lat="43.1471289" lon="11.4445109"><ele>163.5</ele><time>2026-04-02T11:23:39.91Z</time></trkpt><trkpt lat="43.1469754" lon="11.444498"><ele>163.0</ele><time>2026-04-02T11:23:40.91Z</time></trkpt><trkpt lat="43.1468239" lon="11.4444988"><ele>162.5</ele><time>2026-04-02T11:23:41.91Z</time></trkpt><trkpt lat="43.1466855" lon="11.4445135"><ele>162.0</ele><time>2026-04-02T11:23:42.91Z</time></trkpt><trkpt lat="43.1465659" lon="11.444542"><ele>162.0</ele><time>2026-04-02T11:23:43.91Z</time></trkpt><trkpt lat="43.1464635" lon="11.444582"><ele>162.0</ele><time>2026-04-02T11:23:44.91Z</time></trkpt><trkpt lat="43.1463743" lon="11.4446314"><ele>162.0</ele><time>2026-04-02T11:23:45.91Z</time></trkpt><trkpt lat="43.1463049" lon="11.4447"><ele>162.0</ele><time>2026-04-02T11:23:46.91Z</time></trkpt><trkpt lat="43.1462386" lon="11.444792"><ele>162.0</ele><time>2026-04-02T11:23:47.91Z</time></trkpt><trkpt lat="43.1461855" lon="11.4449031"><ele>162.0</ele><time>2026-04-02T11:23:48.91Z</time></trkpt><trkpt lat="43.1461461" lon="11.4450327"><ele>162.0</ele><time>2026-04-02T11:23:49.91Z</time></trkpt><trkpt lat="43.1461242" lon="11.4451648"><ele>162.0</ele><time>2026-04-02T11:23:50.909Z</time></trkpt><trkpt lat="43.1461246" lon="11.4453026"><ele>162.0</ele><time>2026-04-02T11:23:51.91Z</time></trkpt><trkpt lat="43.1461415" lon="11.4454501"><ele>162.0</ele><time>2026-04-02T11:23:52.91Z</time></trkpt><trkpt lat="43.1461748" lon="11.4456131"><ele>161.75</ele><time>2026-04-02T11:23:53.91Z</time></trkpt><trkpt lat="43.1462208" lon="11.4458039"><ele>161.5</ele><time>2026-04-02T11:23:54.91Z</time></trkpt><trkpt lat="43.1462693" lon="11.4459983"><ele>161.25</ele><time>2026-04-02T11:23:55.91Z</time></trkpt><trkpt lat="43.1463095" lon="11.4461616"><ele>161.0</ele><time>2026-04-02T11:23:56.91Z</time></trkpt><trkpt lat="43.1463513" lon="11.4463099"><ele>161.83333333333331</ele><time>2026-04-02T11:23:57.91Z</time></trkpt><trkpt lat="43.1463897" lon="11.4464459"><ele>162.66666666666666</ele><time>2026-04-02T11:23:58.91Z</time></trkpt><trkpt lat="43.1464132" lon="11.4465728"><ele>163.5</ele><time>2026-04-02T11:23:59.91Z</time></trkpt><trkpt lat="43.1464099" lon="11.4466923"><ele>164.33333333333334</ele><time>2026-04-02T11:24:00.91Z</time></trkpt><trkpt lat="43.146389" lon="11.4467954"><ele>165.16666666666669</ele><time>2026-04-02T11:24:01.91Z</time></trkpt><trkpt lat="43.1463492" lon="11.446868"><ele>166.0</ele><time>2026-04-02T11:24:02.91Z</time></trkpt><trkpt lat="43.1462481" lon="11.446911"><ele>166.0</ele><time>2026-04-02T11:24:04.91Z</time></trkpt><trkpt lat="43.1461673" lon="11.4469007"><ele>166.0</ele><time>2026-04-02T11:24:05.909Z</time></trkpt><trkpt lat="43.1460645" lon="11.4468735"><ele>166.0</ele><time>2026-04-02T11:24:06.91Z</time></trkpt><trkpt lat="43.145958" lon="11.4468492"><ele>166.0</ele><time>2026-04-02T11:24:07.91Z</time></trkpt><trkpt lat="43.145836" lon="11.446843"><ele>166.0</ele><time>2026-04-02T11:24:08.91Z</time></trkpt><trkpt lat="43.1457266" lon="11.4468497"><ele>165.0</ele><time>2026-04-02T11:24:09.91Z</time></trkpt><trkpt lat="43.1456158" lon="11.4468686"><ele>164.0</ele><time>2026-04-02T11:24:10.91Z</time></trkpt><trkpt lat="43.145512" lon="11.4469084"><ele>163.0</ele><time>2026-04-02T11:24:11.91Z</time></trkpt><trkpt lat="43.145406" lon="11.4469804"><ele>162.0</ele><time>2026-04-02T11:24:12.91Z</time></trkpt><trkpt lat="43.1452942" lon="11.4470808"><ele>163.2</ele><time>2026-04-02T11:24:13.91Z</time></trkpt><trkpt lat="43.1451961" lon="11.4471824"><ele>164.39999999999998</ele><time>2026-04-02T11:24:14.91Z</time></trkpt><trkpt lat="43.1451121" lon="11.4472795"><ele>165.60000000000002</ele><time>2026-04-02T11:24:15.91Z</time></trkpt><trkpt lat="43.1450434" lon="11.4473602"><ele>166.8</ele><time>2026-04-02T11:24:16.91Z</time></trkpt><trkpt lat="43.1449875" lon="11.4474449"><ele>168.0</ele><time>2026-04-02T11:24:17.91Z</time></trkpt><trkpt lat="43.1449443" lon="11.4475347"><ele>168.0</ele><time>2026-04-02T11:24:18.91Z</time></trkpt><trkpt lat="43.1449207" lon="11.4476312"><ele>168.0</ele><time>2026-04-02T11:24:19.91Z</time></trkpt><trkpt lat="43.1449124" lon="11.4477201"><ele>168.0</ele><time>2026-04-02T11:24:20.91Z</time></trkpt><trkpt lat="43.1449057" lon="11.447811"><ele>168.0</ele><time>2026-04-02T11:24:21.91Z</time></trkpt><trkpt lat="43.144899" lon="11.4479035"><ele>168.0</ele><time>2026-04-02T11:24:22.91Z</time></trkpt><trkpt lat="43.1448932" lon="11.448003"><ele>168.0</ele><time>2026-04-02T11:24:23.91Z</time></trkpt><trkpt lat="43.1448912" lon="11.4481023"><ele>168.0</ele><time>2026-04-02T11:24:24.91Z</time></trkpt><trkpt lat="43.1448871" lon="11.4482075"><ele>167.83333333333334</ele><time>2026-04-02T11:24:25.91Z</time></trkpt><trkpt lat="43.1448665" lon="11.4483105"><ele>167.66666666666666</ele><time>2026-04-02T11:24:26.91Z</time></trkpt><trkpt lat="43.1448225" lon="11.448401"><ele>167.5</ele><time>2026-04-02T11:24:27.909Z</time></trkpt><trkpt lat="43.1447653" lon="11.4484663"><ele>167.33333333333331</ele><time>2026-04-02T11:24:28.91Z</time></trkpt><trkpt lat="43.1447007" lon="11.4485144"><ele>167.16666666666666</ele><time>2026-04-02T11:24:29.91Z</time></trkpt><trkpt lat="43.1446225" lon="11.4485414"><ele>167.0</ele><time>2026-04-02T11:24:30.91Z</time></trkpt><trkpt lat="43.1445338" lon="11.4485578"><ele>167.0</ele><time>2026-04-02T11:24:31.91Z</time></trkpt><trkpt lat="43.1444337" lon="11.4485517"><ele>167.0</ele><time>2026-04-02T11:24:32.91Z</time></trkpt><trkpt lat="43.1443147" lon="11.4485328"><ele>167.0</ele><time>2026-04-02T11:24:33.91Z</time></trkpt><trkpt lat="43.1441939" lon="11.4484933"><ele>167.0</ele><time>2026-04-02T11:24:34.91Z</time></trkpt><trkpt lat="43.1440669" lon="11.4484376"><ele>168.25</ele><time>2026-04-02T11:24:35.91Z</time></trkpt><trkpt lat="43.1439365" lon="11.4483681"><ele>169.5</ele><time>2026-04-02T11:24:36.91Z</time></trkpt><trkpt lat="43.1438021" lon="11.4482835"><ele>170.75</ele><time>2026-04-02T11:24:37.909Z</time></trkpt><trkpt lat="43.1436674" lon="11.4481926"><ele>172.0</ele><time>2026-04-02T11:24:38.91Z</time></trkpt><trkpt lat="43.1435453" lon="11.4481042"><ele>172.0</ele><time>2026-04-02T11:24:39.91Z</time></trkpt><trkpt lat="43.1434277" lon="11.4480164"><ele>172.0</ele><time>2026-04-02T11:24:40.91Z</time></trkpt><trkpt lat="43.1433185" lon="11.4479359"><ele>172.0</ele><time>2026-04-02T11:24:41.91Z</time></trkpt><trkpt lat="43.1432158" lon="11.4478598"><ele>172.0</ele><time>2026-04-02T11:24:42.91Z</time></trkpt><trkpt lat="43.1431133" lon="11.447794"><ele>169.75</ele><time>2026-04-02T11:24:43.91Z</time></trkpt><trkpt lat="43.1430063" lon="11.4477399"><ele>167.5</ele><time>2026-04-02T11:24:44.91Z</time></trkpt><trkpt lat="43.1428969" lon="11.4477004"><ele>165.25</ele><time>2026-04-02T11:24:45.91Z</time></trkpt><trkpt lat="43.1427806" lon="11.4476771"><ele>163.0</ele><time>2026-04-02T11:24:46.91Z</time></trkpt><trkpt lat="43.1426648" lon="11.4476694"><ele>163.0</ele><time>2026-04-02T11:24:47.91Z</time></trkpt><trkpt lat="43.142532" lon="11.4476795"><ele>163.0</ele><time>2026-04-02T11:24:48.91Z</time></trkpt><trkpt lat="43.1423898" lon="11.4477042"><ele>163.0</ele><time>2026-04-02T11:24:49.91Z</time></trkpt><trkpt lat="43.1422316" lon="11.4477524"><ele>163.0</ele><time>2026-04-02T11:24:50.91Z</time></trkpt><trkpt lat="43.1420558" lon="11.4478121"><ele>162.66666666666669</ele><time>2026-04-02T11:24:51.91Z</time></trkpt><trkpt lat="43.1418776" lon="11.4478762"><ele>162.33333333333334</ele><time>2026-04-02T11:24:52.909Z</time></trkpt><trkpt lat="43.1416899" lon="11.4479399"><ele>162.0</ele><time>2026-04-02T11:24:53.91Z</time></trkpt><trkpt lat="43.1415031" lon="11.4479952"><ele>165.0</ele><time>2026-04-02T11:24:54.91Z</time></trkpt><trkpt lat="43.1413285" lon="11.44804"><ele>168.0</ele><time>2026-04-02T11:24:55.91Z</time></trkpt><trkpt lat="43.1411595" lon="11.4480752"><ele>171.0</ele><time>2026-04-02T11:24:56.91Z</time></trkpt><trkpt lat="43.1410168" lon="11.4480991"><ele>171.0</ele><time>2026-04-02T11:24:57.91Z</time></trkpt><trkpt lat="43.140885" lon="11.4481241"><ele>171.0</ele><time>2026-04-02T11:24:58.91Z</time></trkpt><trkpt lat="43.140766" lon="11.4481456"><ele>171.0</ele><time>2026-04-02T11:24:59.91Z</time></trkpt><trkpt lat="43.1406569" lon="11.4481562"><ele>171.0</ele><time>2026-04-02T11:25:00.91Z</time></trkpt><trkpt lat="43.1405442" lon="11.4481529"><ele>170.25</ele><time>2026-04-02T11:25:01.91Z</time></trkpt><trkpt lat="43.1404198" lon="11.448133"><ele>169.5</ele><time>2026-04-02T11:25:02.909Z</time></trkpt><trkpt lat="43.140299" lon="11.4480874"><ele>168.75</ele><time>2026-04-02T11:25:03.91Z</time></trkpt><trkpt lat="43.1401871" lon="11.4480391"><ele>168.0</ele><time>2026-04-02T11:25:04.91Z</time></trkpt><trkpt lat="43.1400885" lon="11.4479887"><ele>167.60000000000002</ele><time>2026-04-02T11:25:05.91Z</time></trkpt><trkpt lat="43.1399965" lon="11.447938"><ele>167.20000000000002</ele><time>2026-04-02T11:25:06.91Z</time></trkpt><trkpt lat="43.1399161" lon="11.4478784"><ele>166.8</ele><time>2026-04-02T11:25:07.91Z</time></trkpt><trkpt lat="43.1398338" lon="11.4478277"><ele>166.4</ele><time>2026-04-02T11:25:08.91Z</time></trkpt><trkpt lat="43.1397521" lon="11.4477965"><ele>166.0</ele><time>2026-04-02T11:25:09.91Z</time></trkpt><trkpt lat="43.1396647" lon="11.4477909"><ele>165.0</ele><time>2026-04-02T11:25:10.91Z</time></trkpt><trkpt lat="43.1395767" lon="11.4478142"><ele>164.0</ele><time>2026-04-02T11:25:11.91Z</time></trkpt><trkpt lat="43.1394987" lon="11.4478642"><ele>163.0</ele><time>2026-04-02T11:25:12.909Z</time></trkpt><trkpt lat="43.1394329" lon="11.4479428"><ele>162.0</ele><time>2026-04-02T11:25:13.91Z</time></trkpt><trkpt lat="43.1393783" lon="11.4480436"><ele>161.0</ele><time>2026-04-02T11:25:14.91Z</time></trkpt><trkpt lat="43.1393451" lon="11.4481605"><ele>160.0</ele><time>2026-04-02T11:25:15.91Z</time></trkpt><trkpt lat="43.1393192" lon="11.4483078"><ele>160.0</ele><time>2026-04-02T11:25:16.91Z</time></trkpt><trkpt lat="43.1393028" lon="11.4484789"><ele>160.0</ele><time>2026-04-02T11:25:17.909Z</time></trkpt><trkpt lat="43.1392907" lon="11.4486741"><ele>160.0</ele><time>2026-04-02T11:25:18.91Z</time></trkpt><trkpt lat="43.1392835" lon="11.4488918"><ele>160.0</ele><time>2026-04-02T11:25:19.91Z</time></trkpt><trkpt lat="43.1392794" lon="11.4491243"><ele>160.0</ele><time>2026-04-02T11:25:20.91Z</time></trkpt><trkpt lat="43.1392734" lon="11.4493523"><ele>160.0</ele><time>2026-04-02T11:25:21.91Z</time></trkpt><trkpt lat="43.1392697" lon="11.4495807"><ele>160.0</ele><time>2026-04-02T11:25:22.909Z</time></trkpt><trkpt lat="43.1392712" lon="11.449791"><ele>160.0</ele><time>2026-04-02T11:25:23.91Z</time></trkpt><trkpt lat="43.1392778" lon="11.449989"><ele>160.0</ele><time>2026-04-02T11:25:24.91Z</time></trkpt><trkpt lat="43.139282" lon="11.4501622"><ele>160.0</ele><time>2026-04-02T11:25:25.91Z</time></trkpt><trkpt lat="43.1392884" lon="11.4503249"><ele>160.0</ele><time>2026-04-02T11:25:26.91Z</time></trkpt><trkpt lat="43.1392928" lon="11.4504858"><ele>160.5</ele><time>2026-04-02T11:25:27.91Z</time></trkpt><trkpt lat="43.1392836" lon="11.4506457"><ele>161.0</ele><time>2026-04-02T11:25:28.91Z</time></trkpt><trkpt lat="43.1392519" lon="11.450806"><ele>161.5</ele><time>2026-04-02T11:25:29.91Z</time></trkpt><trkpt lat="43.1391998" lon="11.4509581"><ele>162.0</ele><time>2026-04-02T11:25:30.91Z</time></trkpt><trkpt lat="43.1391272" lon="11.4511256"><ele>159.66666666666666</ele><time>2026-04-02T11:25:31.91Z</time></trkpt><trkpt lat="43.1390367" lon="11.4513083"><ele>157.33333333333331</ele><time>2026-04-02T11:25:32.909Z</time></trkpt><trkpt lat="43.1389389" lon="11.4514973"><ele>155.0</ele><time>2026-04-02T11:25:33.91Z</time></trkpt><trkpt lat="43.1388472" lon="11.4516768"><ele>155.0</ele><time>2026-04-02T11:25:34.91Z</time></trkpt><trkpt lat="43.1387534" lon="11.45184"><ele>155.0</ele><time>2026-04-02T11:25:35.91Z</time></trkpt><trkpt lat="43.1386608" lon="11.4519928"><ele>155.0</ele><time>2026-04-02T11:25:36.91Z</time></trkpt><trkpt lat="43.138565" lon="11.4521416"><ele>155.0</ele><time>2026-04-02T11:25:37.91Z</time></trkpt><trkpt lat="43.1384824" lon="11.4522618"><ele>154.5</ele><time>2026-04-02T11:25:38.909Z</time></trkpt><trkpt lat="43.1383941" lon="11.4523737"><ele>154.0</ele><time>2026-04-02T11:25:39.91Z</time></trkpt><trkpt lat="43.1382954" lon="11.4524837"><ele>153.5</ele><time>2026-04-02T11:25:40.91Z</time></trkpt><trkpt lat="43.1381811" lon="11.452587"><ele>153.0</ele><time>2026-04-02T11:25:41.91Z</time></trkpt><trkpt lat="43.1380461" lon="11.4526886"><ele>153.0</ele><time>2026-04-02T11:25:42.91Z</time></trkpt><trkpt lat="43.1378983" lon="11.4527849"><ele>153.0</ele><time>2026-04-02T11:25:43.91Z</time></trkpt><trkpt lat="43.1377653" lon="11.452871"><ele>153.0</ele><time>2026-04-02T11:25:44.91Z</time></trkpt><trkpt lat="43.1376325" lon="11.4529538"><ele>153.0</ele><time>2026-04-02T11:25:45.91Z</time></trkpt><trkpt lat="43.1374983" lon="11.453037"><ele>153.0</ele><time>2026-04-02T11:25:46.91Z</time></trkpt><trkpt lat="43.1373617" lon="11.4531381"><ele>153.0</ele><time>2026-04-02T11:25:47.91Z</time></trkpt><trkpt lat="43.1372219" lon="11.4532583"><ele>153.0</ele><time>2026-04-02T11:25:48.91Z</time></trkpt><trkpt lat="43.137085" lon="11.4533946"><ele>153.0</ele><time>2026-04-02T11:25:49.909Z</time></trkpt><trkpt lat="43.1369551" lon="11.4535254"><ele>153.0</ele><time>2026-04-02T11:25:50.91Z</time></trkpt><trkpt lat="43.1368333" lon="11.4536554"><ele>152.33333333333334</ele><time>2026-04-02T11:25:51.91Z</time></trkpt><trkpt lat="43.136712" lon="11.4537946"><ele>151.66666666666669</ele><time>2026-04-02T11:25:52.91Z</time></trkpt><trkpt lat="43.1365975" lon="11.4539439"><ele>151.0</ele><time>2026-04-02T11:25:53.91Z</time></trkpt><trkpt lat="43.1364827" lon="11.4541021"><ele>151.0</ele><time>2026-04-02T11:25:54.91Z</time></trkpt><trkpt lat="43.1363719" lon="11.4542807"><ele>151.0</ele><time>2026-04-02T11:25:55.91Z</time></trkpt><trkpt lat="43.1362656" lon="11.4544758"><ele>151.0</ele><time>2026-04-02T11:25:56.91Z</time></trkpt><trkpt lat="43.1361657" lon="11.4546809"><ele>152.66666666666669</ele><time>2026-04-02T11:25:57.91Z</time></trkpt><trkpt lat="43.1360736" lon="11.4548846"><ele>154.33333333333334</ele><time>2026-04-02T11:25:58.91Z</time></trkpt><trkpt lat="43.1359857" lon="11.4550736"><ele>156.0</ele><time>2026-04-02T11:25:59.91Z</time></trkpt><trkpt lat="43.1358916" lon="11.4552618"><ele>156.0</ele><time>2026-04-02T11:26:00.909Z</time></trkpt><trkpt lat="43.1357972" lon="11.4554274"><ele>156.0</ele><time>2026-04-02T11:26:01.91Z</time></trkpt><trkpt lat="43.1356897" lon="11.4555738"><ele>156.0</ele><time>2026-04-02T11:26:02.91Z</time></trkpt><trkpt lat="43.1355637" lon="11.4557219"><ele>154.66666666666666</ele><time>2026-04-02T11:26:03.91Z</time></trkpt><trkpt lat="43.1354179" lon="11.4558799"><ele>153.33333333333331</ele><time>2026-04-02T11:26:04.91Z</time></trkpt><trkpt lat="43.1352617" lon="11.4560407"><ele>152.0</ele><time>2026-04-02T11:26:05.91Z</time></trkpt><trkpt lat="43.1350846" lon="11.4562192"><ele>152.0</ele><time>2026-04-02T11:26:06.91Z</time></trkpt><trkpt lat="43.1349044" lon="11.4564001"><ele>152.0</ele><time>2026-04-02T11:26:07.91Z</time></trkpt><trkpt lat="43.134724" lon="11.456582"><ele>152.0</ele><time>2026-04-02T11:26:08.909Z</time></trkpt><trkpt lat="43.1345461" lon="11.4567652"><ele>152.0</ele><time>2026-04-02T11:26:09.91Z</time></trkpt><trkpt lat="43.1343696" lon="11.4569438"><ele>152.0</ele><time>2026-04-02T11:26:10.91Z</time></trkpt><trkpt lat="43.1341854" lon="11.4571296"><ele>152.0</ele><time>2026-04-02T11:26:11.91Z</time></trkpt><trkpt lat="43.1340175" lon="11.4572966"><ele>151.33333333333331</ele><time>2026-04-02T11:26:12.91Z</time></trkpt><trkpt lat="43.1338626" lon="11.4574465"><ele>150.66666666666666</ele><time>2026-04-02T11:26:13.91Z</time></trkpt><trkpt lat="43.1337173" lon="11.4575805"><ele>150.0</ele><time>2026-04-02T11:26:14.91Z</time></trkpt><trkpt lat="43.1335887" lon="11.4576973"><ele>150.0</ele><time>2026-04-02T11:26:15.91Z</time></trkpt><trkpt lat="43.133466" lon="11.4578061"><ele>150.0</ele><time>2026-04-02T11:26:16.909Z</time></trkpt><trkpt lat="43.1333452" lon="11.4579141"><ele>150.0</ele><time>2026-04-02T11:26:17.91Z</time></trkpt><trkpt lat="43.1332252" lon="11.4580396"><ele>150.0</ele><time>2026-04-02T11:26:18.91Z</time></trkpt><trkpt lat="43.1331112" lon="11.4581631"><ele>149.25</ele><time>2026-04-02T11:26:19.91Z</time></trkpt><trkpt lat="43.1330078" lon="11.4582832"><ele>148.5</ele><time>2026-04-02T11:26:20.91Z</time></trkpt><trkpt lat="43.1329098" lon="11.458402"><ele>147.75</ele><time>2026-04-02T11:26:21.91Z</time></trkpt><trkpt lat="43.1328176" lon="11.4585209"><ele>147.0</ele><time>2026-04-02T11:26:22.91Z</time></trkpt><trkpt lat="43.1327301" lon="11.4586455"><ele>148.25</ele><time>2026-04-02T11:26:23.91Z</time></trkpt><trkpt lat="43.1326512" lon="11.4587881"><ele>149.5</ele><time>2026-04-02T11:26:24.91Z</time></trkpt><trkpt lat="43.132581" lon="11.4589522"><ele>150.75</ele><time>2026-04-02T11:26:25.91Z</time></trkpt><trkpt lat="43.1325202" lon="11.4591418"><ele>152.0</ele><time>2026-04-02T11:26:26.91Z</time></trkpt><trkpt lat="43.1324638" lon="11.459358"><ele>152.0</ele><time>2026-04-02T11:26:27.909Z</time></trkpt><trkpt lat="43.1324111" lon="11.4595858"><ele>152.0</ele><time>2026-04-02T11:26:28.91Z</time></trkpt><trkpt lat="43.1323502" lon="11.4597965"><ele>152.0</ele><time>2026-04-02T11:26:29.91Z</time></trkpt><trkpt lat="43.1323055" lon="11.4599908"><ele>150.5</ele><time>2026-04-02T11:26:30.91Z</time></trkpt><trkpt lat="43.1322585" lon="11.4601725"><ele>149.0</ele><time>2026-04-02T11:26:31.91Z</time></trkpt><trkpt lat="43.1322119" lon="11.4603499"><ele>147.5</ele><time>2026-04-02T11:26:32.91Z</time></trkpt><trkpt lat="43.132171" lon="11.4605062"><ele>146.0</ele><time>2026-04-02T11:26:33.91Z</time></trkpt><trkpt lat="43.132142" lon="11.4606378"><ele>146.0</ele><time>2026-04-02T11:26:34.909Z</time></trkpt><trkpt lat="43.1321239" lon="11.4607681"><ele>146.0</ele><time>2026-04-02T11:26:35.91Z</time></trkpt><trkpt lat="43.1321134" lon="11.4609113"><ele>146.0</ele><time>2026-04-02T11:26:36.91Z</time></trkpt><trkpt lat="43.1321187" lon="11.4610684"><ele>146.0</ele><time>2026-04-02T11:26:37.91Z</time></trkpt><trkpt lat="43.1321321" lon="11.4612244"><ele>146.0</ele><time>2026-04-02T11:26:38.91Z</time></trkpt><trkpt lat="43.1321508" lon="11.4613669"><ele>146.0</ele><time>2026-04-02T11:26:39.91Z</time></trkpt><trkpt lat="43.1321632" lon="11.461496"><ele>146.0</ele><time>2026-04-02T11:26:40.91Z</time></trkpt><trkpt lat="43.1321694" lon="11.4616051"><ele>146.0</ele><time>2026-04-02T11:26:41.91Z</time></trkpt><trkpt lat="43.1321745" lon="11.4617627"><ele>146.0</ele><time>2026-04-02T11:26:43.91Z</time></trkpt><trkpt lat="43.132137" lon="11.4618594"><ele>146.0</ele><time>2026-04-02T11:26:46.91Z</time></trkpt><trkpt lat="43.1320523" lon="11.4618272"><ele>146.0</ele><time>2026-04-02T11:26:50.91Z</time></trkpt><trkpt lat="43.1319768" lon="11.46168"><ele>146.0</ele><time>2026-04-02T11:26:52.91Z</time></trkpt><trkpt lat="43.1319" lon="11.4615859"><ele>146.0</ele><time>2026-04-02T11:26:54.91Z</time></trkpt><trkpt lat="43.131777" lon="11.4615537"><ele>146.0</ele><time>2026-04-02T11:26:56.91Z</time></trkpt><trkpt lat="43.1316924" lon="11.4615387"><ele>146.0</ele><time>2026-04-02T11:26:57.91Z</time></trkpt><trkpt lat="43.1316001" lon="11.4615237"><ele>145.4</ele><time>2026-04-02T11:26:58.91Z</time></trkpt><trkpt lat="43.1315165" lon="11.4615032"><ele>144.8</ele><time>2026-04-02T11:26:59.91Z</time></trkpt><trkpt lat="43.1314299" lon="11.461463"><ele>144.20000000000002</ele><time>2026-04-02T11:27:00.91Z</time></trkpt><trkpt lat="43.1313437" lon="11.4613921"><ele>143.6</ele><time>2026-04-02T11:27:01.91Z</time></trkpt><trkpt lat="43.1312703" lon="11.4612824"><ele>143.0</ele><time>2026-04-02T11:27:02.91Z</time></trkpt><trkpt lat="43.1312112" lon="11.4611672"><ele>143.0</ele><time>2026-04-02T11:27:03.91Z</time></trkpt><trkpt lat="43.1311511" lon="11.4610578"><ele>143.0</ele><time>2026-04-02T11:27:04.91Z</time></trkpt><trkpt lat="43.1310841" lon="11.4609675"><ele>143.0</ele><time>2026-04-02T11:27:05.91Z</time></trkpt><trkpt lat="43.1310091" lon="11.4608902"><ele>143.0</ele><time>2026-04-02T11:27:06.91Z</time></trkpt><trkpt lat="43.1309288" lon="11.460841"><ele>143.0</ele><time>2026-04-02T11:27:07.909Z</time></trkpt><trkpt lat="43.1308405" lon="11.4608108"><ele>143.0</ele><time>2026-04-02T11:27:08.91Z</time></trkpt><trkpt lat="43.1307523" lon="11.4607902"><ele>143.0</ele><time>2026-04-02T11:27:09.91Z</time></trkpt><trkpt lat="43.1306682" lon="11.4607596"><ele>143.0</ele><time>2026-04-02T11:27:10.91Z</time></trkpt><trkpt lat="43.1305894" lon="11.4607044"><ele>143.0</ele><time>2026-04-02T11:27:11.91Z</time></trkpt><trkpt lat="43.1305251" lon="11.4606228"><ele>143.0</ele><time>2026-04-02T11:27:12.91Z</time></trkpt><trkpt lat="43.1304717" lon="11.4605062"><ele>143.25</ele><time>2026-04-02T11:27:13.91Z</time></trkpt><trkpt lat="43.1304315" lon="11.4603603"><ele>143.5</ele><time>2026-04-02T11:27:14.909Z</time></trkpt><trkpt lat="43.1303959" lon="11.4601885"><ele>143.75</ele><time>2026-04-02T11:27:15.91Z</time></trkpt><trkpt lat="43.1303538" lon="11.4599921"><ele>144.0</ele><time>2026-04-02T11:27:16.91Z</time></trkpt><trkpt lat="43.1303099" lon="11.459777"><ele>144.33333333333334</ele><time>2026-04-02T11:27:17.91Z</time></trkpt><trkpt lat="43.1302587" lon="11.4595445"><ele>144.66666666666669</ele><time>2026-04-02T11:27:18.91Z</time></trkpt><trkpt lat="43.1302064" lon="11.4592988"><ele>145.0</ele><time>2026-04-02T11:27:19.91Z</time></trkpt><trkpt lat="43.1301517" lon="11.4590652"><ele>145.0</ele><time>2026-04-02T11:27:20.91Z</time></trkpt><trkpt lat="43.130102" lon="11.4588619"><ele>145.0</ele><time>2026-04-02T11:27:21.91Z</time></trkpt><trkpt lat="43.1300581" lon="11.4586862"><ele>145.0</ele><time>2026-04-02T11:27:22.91Z</time></trkpt><trkpt lat="43.1300283" lon="11.4585442"><ele>145.0</ele><time>2026-04-02T11:27:23.91Z</time></trkpt><trkpt lat="43.1300183" lon="11.4584236"><ele>146.2</ele><time>2026-04-02T11:27:24.91Z</time></trkpt><trkpt lat="43.1300151" lon="11.4583259"><ele>147.4</ele><time>2026-04-02T11:27:25.91Z</time></trkpt><trkpt lat="43.1300102" lon="11.4582374"><ele>148.6</ele><time>2026-04-02T11:27:26.91Z</time></trkpt><trkpt lat="43.1299747" lon="11.4581306"><ele>149.8</ele><time>2026-04-02T11:27:27.91Z</time></trkpt><trkpt lat="43.1299118" lon="11.4580126"><ele>151.0</ele><time>2026-04-02T11:27:28.909Z</time></trkpt><trkpt lat="43.1298335" lon="11.4578803"><ele>154.33333333333334</ele><time>2026-04-02T11:27:29.91Z</time></trkpt><trkpt lat="43.1297526" lon="11.4577353"><ele>157.66666666666666</ele><time>2026-04-02T11:27:30.91Z</time></trkpt><trkpt lat="43.1296587" lon="11.4575681"><ele>161.0</ele><time>2026-04-02T11:27:31.91Z</time></trkpt><trkpt lat="43.12955" lon="11.4573879"><ele>161.0</ele><time>2026-04-02T11:27:32.91Z</time></trkpt><trkpt lat="43.1294349" lon="11.457194"><ele>161.0</ele><time>2026-04-02T11:27:33.91Z</time></trkpt><trkpt lat="43.1293303" lon="11.4570079"><ele>161.0</ele><time>2026-04-02T11:27:34.91Z</time></trkpt><trkpt lat="43.1292301" lon="11.4568171"><ele>161.66666666666666</ele><time>2026-04-02T11:27:35.91Z</time></trkpt><trkpt lat="43.1291277" lon="11.4566216"><ele>162.33333333333334</ele><time>2026-04-02T11:27:36.91Z</time></trkpt><trkpt lat="43.1290205" lon="11.4564266"><ele>163.0</ele><time>2026-04-02T11:27:37.91Z</time></trkpt><trkpt lat="43.1289107" lon="11.4562261"><ele>167.0</ele><time>2026-04-02T11:27:38.91Z</time></trkpt><trkpt lat="43.1288002" lon="11.4560226"><ele>171.0</ele><time>2026-04-02T11:27:39.91Z</time></trkpt><trkpt lat="43.1286764" lon="11.4558131"><ele>175.0</ele><time>2026-04-02T11:27:40.91Z</time></trkpt><trkpt lat="43.1285479" lon="11.4556317"><ele>175.0</ele><time>2026-04-02T11:27:41.91Z</time></trkpt><trkpt lat="43.1284062" lon="11.4554884"><ele>175.0</ele><time>2026-04-02T11:27:42.91Z</time></trkpt><trkpt lat="43.1282404" lon="11.4553766"><ele>175.0</ele><time>2026-04-02T11:27:43.91Z</time></trkpt><trkpt lat="43.1280589" lon="11.4552883"><ele>181.0</ele><time>2026-04-02T11:27:44.91Z</time></trkpt><trkpt lat="43.1278715" lon="11.4552068"><ele>187.0</ele><time>2026-04-02T11:27:45.91Z</time></trkpt><trkpt lat="43.1276878" lon="11.4551244"><ele>193.0</ele><time>2026-04-02T11:27:46.91Z</time></trkpt><trkpt lat="43.1275208" lon="11.4550476"><ele>196.66666666666666</ele><time>2026-04-02T11:27:47.91Z</time></trkpt><trkpt lat="43.1273706" lon="11.4549623"><ele>200.33333333333331</ele><time>2026-04-02T11:27:48.91Z</time></trkpt><trkpt lat="43.1272241" lon="11.454843"><ele>204.0</ele><time>2026-04-02T11:27:49.91Z</time></trkpt><trkpt lat="43.1270992" lon="11.4546931"><ele>207.0</ele><time>2026-04-02T11:27:50.91Z</time></trkpt><trkpt lat="43.1269914" lon="11.4545027"><ele>210.0</ele><time>2026-04-02T11:27:51.91Z</time></trkpt><trkpt lat="43.1268983" lon="11.4543049"><ele>213.0</ele><time>2026-04-02T11:27:52.91Z</time></trkpt><trkpt lat="43.1268412" lon="11.4540796"><ele>213.0</ele><time>2026-04-02T11:27:53.91Z</time></trkpt><trkpt lat="43.1268152" lon="11.453823"><ele>213.0</ele><time>2026-04-02T11:27:54.909Z</time></trkpt><trkpt lat="43.1267944" lon="11.4535542"><ele>213.0</ele><time>2026-04-02T11:27:55.909Z</time></trkpt><trkpt lat="43.1267821" lon="11.4532891"><ele>215.0</ele><time>2026-04-02T11:27:56.91Z</time></trkpt><trkpt lat="43.1267773" lon="11.4530384"><ele>217.0</ele><time>2026-04-02T11:27:57.91Z</time></trkpt><trkpt lat="43.1267818" lon="11.4527919"><ele>219.0</ele><time>2026-04-02T11:27:58.91Z</time></trkpt><trkpt lat="43.1267841" lon="11.4525329"><ele>220.0</ele><time>2026-04-02T11:27:59.91Z</time></trkpt><trkpt lat="43.1267785" lon="11.452251"><ele>221.0</ele><time>2026-04-02T11:28:00.91Z</time></trkpt><trkpt lat="43.1267561" lon="11.4519579"><ele>222.0</ele><time>2026-04-02T11:28:01.91Z</time></trkpt><trkpt lat="43.1267278" lon="11.4516641"><ele>223.5</ele><time>2026-04-02T11:28:02.91Z</time></trkpt><trkpt lat="43.1266795" lon="11.4513615"><ele>225.0</ele><time>2026-04-02T11:28:03.91Z</time></trkpt><trkpt lat="43.1266064" lon="11.4510565"><ele>225.0</ele><time>2026-04-02T11:28:04.909Z</time></trkpt><trkpt lat="43.1265173" lon="11.4507549"><ele>225.0</ele><time>2026-04-02T11:28:05.91Z</time></trkpt><trkpt lat="43.1264257" lon="11.4504676"><ele>227.0</ele><time>2026-04-02T11:28:06.909Z</time></trkpt><trkpt lat="43.1263476" lon="11.4502086"><ele>229.0</ele><time>2026-04-02T11:28:07.91Z</time></trkpt><trkpt lat="43.1262842" lon="11.4499831"><ele>231.0</ele><time>2026-04-02T11:28:08.91Z</time></trkpt><trkpt lat="43.126224" lon="11.4497767"><ele>233.25</ele><time>2026-04-02T11:28:09.91Z</time></trkpt><trkpt lat="43.1261614" lon="11.4495914"><ele>235.5</ele><time>2026-04-02T11:28:10.91Z</time></trkpt><trkpt lat="43.126078" lon="11.4494296"><ele>237.75</ele><time>2026-04-02T11:28:11.91Z</time></trkpt><trkpt lat="43.1259752" lon="11.4492959"><ele>240.0</ele><time>2026-04-02T11:28:12.91Z</time></trkpt><trkpt lat="43.1258462" lon="11.4491928"><ele>239.75</ele><time>2026-04-02T11:28:13.91Z</time></trkpt><trkpt lat="43.125701" lon="11.4491153"><ele>239.5</ele><time>2026-04-02T11:28:14.91Z</time></trkpt><trkpt lat="43.1255639" lon="11.4490609"><ele>239.25</ele><time>2026-04-02T11:28:15.91Z</time></trkpt><trkpt lat="43.1254285" lon="11.4490194"><ele>239.0</ele><time>2026-04-02T11:28:16.91Z</time></trkpt><trkpt lat="43.1252998" lon="11.4489744"><ele>239.0</ele><time>2026-04-02T11:28:17.91Z</time></trkpt><trkpt lat="43.1251823" lon="11.4489332"><ele>238.99999999999997</ele><time>2026-04-02T11:28:18.91Z</time></trkpt><trkpt lat="43.12508" lon="11.4488941"><ele>238.99999999999997</ele><time>2026-04-02T11:28:19.91Z</time></trkpt><trkpt lat="43.1249904" lon="11.4488527"><ele>239.0</ele><time>2026-04-02T11:28:20.91Z</time></trkpt><trkpt lat="43.1249018" lon="11.4488053"><ele>239.0</ele><time>2026-04-02T11:28:21.91Z</time></trkpt><trkpt lat="43.1248105" lon="11.4487672"><ele>239.2</ele><time>2026-04-02T11:28:22.909Z</time></trkpt><trkpt lat="43.1247238" lon="11.4487483"><ele>239.39999999999998</ele><time>2026-04-02T11:28:23.91Z</time></trkpt><trkpt lat="43.1246451" lon="11.4487654"><ele>239.6</ele><time>2026-04-02T11:28:24.91Z</time></trkpt><trkpt lat="43.1245682" lon="11.4488347"><ele>239.8</ele><time>2026-04-02T11:28:25.91Z</time></trkpt><trkpt lat="43.1244986" lon="11.4489294"><ele>240.0</ele><time>2026-04-02T11:28:26.91Z</time></trkpt><trkpt lat="43.1244243" lon="11.4490356"><ele>239.25</ele><time>2026-04-02T11:28:27.91Z</time></trkpt><trkpt lat="43.1243424" lon="11.4491271"><ele>238.5</ele><time>2026-04-02T11:28:28.909Z</time></trkpt><trkpt lat="43.1242386" lon="11.4491954"><ele>237.75</ele><time>2026-04-02T11:28:29.91Z</time></trkpt><trkpt lat="43.1241213" lon="11.4492234"><ele>237.0</ele><time>2026-04-02T11:28:30.91Z</time></trkpt><trkpt lat="43.1239877" lon="11.4492076"><ele>236.0</ele><time>2026-04-02T11:28:31.91Z</time></trkpt><trkpt lat="43.1238377" lon="11.4491649"><ele>235.0</ele><time>2026-04-02T11:28:32.91Z</time></trkpt><trkpt lat="43.1236872" lon="11.4491155"><ele>234.0</ele><time>2026-04-02T11:28:33.91Z</time></trkpt><trkpt lat="43.1235234" lon="11.4490596"><ele>234.0</ele><time>2026-04-02T11:28:34.91Z</time></trkpt><trkpt lat="43.1233571" lon="11.4490049"><ele>234.0</ele><time>2026-04-02T11:28:35.91Z</time></trkpt><trkpt lat="43.1231966" lon="11.4489499"><ele>234.0</ele><time>2026-04-02T11:28:36.91Z</time></trkpt><trkpt lat="43.1230376" lon="11.4488953"><ele>233.0</ele><time>2026-04-02T11:28:37.91Z</time></trkpt><trkpt lat="43.1228785" lon="11.4488406"><ele>232.0</ele><time>2026-04-02T11:28:38.91Z</time></trkpt><trkpt lat="43.1227246" lon="11.4487888"><ele>231.0</ele><time>2026-04-02T11:28:39.91Z</time></trkpt><trkpt lat="43.1225752" lon="11.4487382"><ele>230.66666666666669</ele><time>2026-04-02T11:28:40.909Z</time></trkpt><trkpt lat="43.1224239" lon="11.4486866"><ele>230.33333333333334</ele><time>2026-04-02T11:28:41.91Z</time></trkpt><trkpt lat="43.1222636" lon="11.4486406"><ele>230.0</ele><time>2026-04-02T11:28:42.91Z</time></trkpt><trkpt lat="43.1221057" lon="11.4485891"><ele>228.0</ele><time>2026-04-02T11:28:43.909Z</time></trkpt><trkpt lat="43.121953" lon="11.4485383"><ele>226.0</ele><time>2026-04-02T11:28:44.909Z</time></trkpt><trkpt lat="43.1218061" lon="11.4484801"><ele>224.0</ele><time>2026-04-02T11:28:45.91Z</time></trkpt><trkpt lat="43.1216712" lon="11.4484159"><ele>222.25</ele><time>2026-04-02T11:28:46.91Z</time></trkpt><trkpt lat="43.1215447" lon="11.4483335"><ele>220.5</ele><time>2026-04-02T11:28:47.91Z</time></trkpt><trkpt lat="43.1214428" lon="11.4482193"><ele>218.75</ele><time>2026-04-02T11:28:48.91Z</time></trkpt><trkpt lat="43.1213556" lon="11.4480706"><ele>217.0</ele><time>2026-04-02T11:28:49.91Z</time></trkpt><trkpt lat="43.1212839" lon="11.4478989"><ele>217.0</ele><time>2026-04-02T11:28:50.91Z</time></trkpt><trkpt lat="43.1212198" lon="11.4477291"><ele>217.0</ele><time>2026-04-02T11:28:51.91Z</time></trkpt><trkpt lat="43.1211661" lon="11.4475591"><ele>217.0</ele><time>2026-04-02T11:28:52.91Z</time></trkpt><trkpt lat="43.121114" lon="11.4473958"><ele>217.0</ele><time>2026-04-02T11:28:53.91Z</time></trkpt><trkpt lat="43.1210647" lon="11.4472387"><ele>216.0</ele><time>2026-04-02T11:28:54.909Z</time></trkpt><trkpt lat="43.1210168" lon="11.4470836"><ele>215.0</ele><time>2026-04-02T11:28:55.91Z</time></trkpt><trkpt lat="43.1209708" lon="11.4469297"><ele>214.0</ele><time>2026-04-02T11:28:56.91Z</time></trkpt><trkpt lat="43.1209222" lon="11.4467903"><ele>213.0</ele><time>2026-04-02T11:28:57.91Z</time></trkpt><trkpt lat="43.1208788" lon="11.4466507"><ele>213.0</ele><time>2026-04-02T11:28:58.91Z</time></trkpt><trkpt lat="43.1208327" lon="11.4465058"><ele>213.0</ele><time>2026-04-02T11:28:59.91Z</time></trkpt><trkpt lat="43.1207898" lon="11.4463628"><ele>213.0</ele><time>2026-04-02T11:29:00.91Z</time></trkpt><trkpt lat="43.1207524" lon="11.4462246"><ele>213.0</ele><time>2026-04-02T11:29:01.91Z</time></trkpt><trkpt lat="43.1207245" lon="11.4460955"><ele>213.0</ele><time>2026-04-02T11:29:02.91Z</time></trkpt><trkpt lat="43.1207081" lon="11.4459707"><ele>212.60000000000002</ele><time>2026-04-02T11:29:03.91Z</time></trkpt><trkpt lat="43.1207119" lon="11.4458376"><ele>212.20000000000002</ele><time>2026-04-02T11:29:04.909Z</time></trkpt><trkpt lat="43.1207356" lon="11.4456989"><ele>211.8</ele><time>2026-04-02T11:29:05.91Z</time></trkpt><trkpt lat="43.1207723" lon="11.4455565"><ele>211.4</ele><time>2026-04-02T11:29:06.91Z</time></trkpt><trkpt lat="43.1208142" lon="11.4454246"><ele>211.0</ele><time>2026-04-02T11:29:07.91Z</time></trkpt><trkpt lat="43.1208511" lon="11.4453078"><ele>210.99999999999997</ele><time>2026-04-02T11:29:08.91Z</time></trkpt><trkpt lat="43.1208783" lon="11.4452018"><ele>211.0</ele><time>2026-04-02T11:29:09.91Z</time></trkpt><trkpt lat="43.1208978" lon="11.4451162"><ele>211.0</ele><time>2026-04-02T11:29:10.91Z</time></trkpt><trkpt lat="43.1209104" lon="11.4449967"><ele>211.0</ele><time>2026-04-02T11:29:12.91Z</time></trkpt><trkpt lat="43.1208965" lon="11.4449078"><ele>210.99999999999997</ele><time>2026-04-02T11:29:14.91Z</time></trkpt><trkpt lat="43.1208542" lon="11.4447671"><ele>211.0</ele><time>2026-04-02T11:29:16.91Z</time></trkpt><trkpt lat="43.1208058" lon="11.4446716"><ele>209.25</ele><time>2026-04-02T11:29:17.91Z</time></trkpt><trkpt lat="43.1207263" lon="11.4445775"><ele>207.5</ele><time>2026-04-02T11:29:18.91Z</time></trkpt><trkpt lat="43.1206289" lon="11.4444824"><ele>205.75</ele><time>2026-04-02T11:29:19.909Z</time></trkpt><trkpt lat="43.1205057" lon="11.4443923"><ele>204.0</ele><time>2026-04-02T11:29:20.91Z</time></trkpt><trkpt lat="43.1203673" lon="11.4443019"><ele>204.0</ele><time>2026-04-02T11:29:21.91Z</time></trkpt><trkpt lat="43.1202226" lon="11.4442054"><ele>204.0</ele><time>2026-04-02T11:29:22.91Z</time></trkpt><trkpt lat="43.1200711" lon="11.4441001"><ele>204.0</ele><time>2026-04-02T11:29:23.909Z</time></trkpt><trkpt lat="43.1199189" lon="11.4439967"><ele>201.33333333333331</ele><time>2026-04-02T11:29:24.909Z</time></trkpt><trkpt lat="43.1197717" lon="11.4439032"><ele>198.66666666666666</ele><time>2026-04-02T11:29:25.91Z</time></trkpt><trkpt lat="43.1196331" lon="11.4438096"><ele>196.0</ele><time>2026-04-02T11:29:26.91Z</time></trkpt><trkpt lat="43.1194989" lon="11.4437168"><ele>194.75</ele><time>2026-04-02T11:29:27.91Z</time></trkpt><trkpt lat="43.119367" lon="11.4436264"><ele>193.5</ele><time>2026-04-02T11:29:28.91Z</time></trkpt><trkpt lat="43.1192386" lon="11.4435254"><ele>192.25</ele><time>2026-04-02T11:29:29.91Z</time></trkpt><trkpt lat="43.1191266" lon="11.4434205"><ele>191.0</ele><time>2026-04-02T11:29:30.91Z</time></trkpt><trkpt lat="43.1190224" lon="11.4433227"><ele>190.0</ele><time>2026-04-02T11:29:31.91Z</time></trkpt><trkpt lat="43.1189302" lon="11.4432134"><ele>189.0</ele><time>2026-04-02T11:29:32.91Z</time></trkpt><trkpt lat="43.1188439" lon="11.4431033"><ele>188.0</ele><time>2026-04-02T11:29:33.91Z</time></trkpt><trkpt lat="43.1187646" lon="11.4429942"><ele>187.0</ele><time>2026-04-02T11:29:34.91Z</time></trkpt><trkpt lat="43.118683" lon="11.442891"><ele>184.25</ele><time>2026-04-02T11:29:35.91Z</time></trkpt><trkpt lat="43.1185979" lon="11.4427961"><ele>181.5</ele><time>2026-04-02T11:29:36.91Z</time></trkpt><trkpt lat="43.1185032" lon="11.4427017"><ele>178.75</ele><time>2026-04-02T11:29:37.91Z</time></trkpt><trkpt lat="43.1184049" lon="11.4426132"><ele>176.0</ele><time>2026-04-02T11:29:38.91Z</time></trkpt><trkpt lat="43.1183069" lon="11.4425294"><ele>176.0</ele><time>2026-04-02T11:29:39.91Z</time></trkpt><trkpt lat="43.1182087" lon="11.4424499"><ele>176.0</ele><time>2026-04-02T11:29:40.91Z</time></trkpt><trkpt lat="43.1181086" lon="11.4423755"><ele>176.0</ele><time>2026-04-02T11:29:41.91Z</time></trkpt><trkpt lat="43.1180188" lon="11.4423017"><ele>176.0</ele><time>2026-04-02T11:29:42.91Z</time></trkpt><trkpt lat="43.1179305" lon="11.4422288"><ele>176.0</ele><time>2026-04-02T11:29:43.909Z</time></trkpt><trkpt lat="43.1178468" lon="11.4421533"><ele>173.8</ele><time>2026-04-02T11:29:44.91Z</time></trkpt><trkpt lat="43.1177648" lon="11.4420814"><ele>171.60000000000002</ele><time>2026-04-02T11:29:45.91Z</time></trkpt><trkpt lat="43.1176778" lon="11.4420201"><ele>169.4</ele><time>2026-04-02T11:29:46.91Z</time></trkpt><trkpt lat="43.1175919" lon="11.4419742"><ele>167.2</ele><time>2026-04-02T11:29:47.91Z</time></trkpt><trkpt lat="43.1175068" lon="11.4419514"><ele>165.0</ele><time>2026-04-02T11:29:48.91Z</time></trkpt><trkpt lat="43.1174036" lon="11.4419512"><ele>165.6</ele><time>2026-04-02T11:29:49.91Z</time></trkpt><trkpt lat="43.1173067" lon="11.4419718"><ele>166.2</ele><time>2026-04-02T11:29:50.91Z</time></trkpt><trkpt lat="43.1172073" lon="11.4420199"><ele>166.8</ele><time>2026-04-02T11:29:51.91Z</time></trkpt><trkpt lat="43.117106" lon="11.4420848"><ele>167.4</ele><time>2026-04-02T11:29:52.91Z</time></trkpt><trkpt lat="43.1170159" lon="11.4421466"><ele>168.0</ele><time>2026-04-02T11:29:53.91Z</time></trkpt><trkpt lat="43.1169241" lon="11.4422022"><ele>168.0</ele><time>2026-04-02T11:29:54.91Z</time></trkpt><trkpt lat="43.116833" lon="11.4422432"><ele>168.0</ele><time>2026-04-02T11:29:55.91Z</time></trkpt><trkpt lat="43.1167392" lon="11.4422625"><ele>168.0</ele><time>2026-04-02T11:29:56.91Z</time></trkpt><trkpt lat="43.1166484" lon="11.4422546"><ele>168.0</ele><time>2026-04-02T11:29:57.91Z</time></trkpt><trkpt lat="43.1165604" lon="11.4422175"><ele>168.0</ele><time>2026-04-02T11:29:58.91Z</time></trkpt><trkpt lat="43.1164754" lon="11.4421393"><ele>165.75</ele><time>2026-04-02T11:29:59.91Z</time></trkpt><trkpt lat="43.1163923" lon="11.4420286"><ele>163.5</ele><time>2026-04-02T11:30:00.91Z</time></trkpt><trkpt lat="43.1163059" lon="11.4419137"><ele>161.25</ele><time>2026-04-02T11:30:01.91Z</time></trkpt><trkpt lat="43.1162131" lon="11.441808"><ele>159.0</ele><time>2026-04-02T11:30:02.909Z</time></trkpt><trkpt lat="43.1161191" lon="11.4417019"><ele>159.0</ele><time>2026-04-02T11:30:03.91Z</time></trkpt><trkpt lat="43.1160303" lon="11.441601"><ele>159.0</ele><time>2026-04-02T11:30:04.91Z</time></trkpt><trkpt lat="43.1159448" lon="11.4415032"><ele>159.0</ele><time>2026-04-02T11:30:05.91Z</time></trkpt><trkpt lat="43.1158605" lon="11.4414122"><ele>159.0</ele><time>2026-04-02T11:30:06.91Z</time></trkpt><trkpt lat="43.1157789" lon="11.4413244"><ele>159.0</ele><time>2026-04-02T11:30:07.91Z</time></trkpt><trkpt lat="43.1156904" lon="11.4412621"><ele>156.6</ele><time>2026-04-02T11:30:08.909Z</time></trkpt><trkpt lat="43.1155977" lon="11.4412282"><ele>154.2</ele><time>2026-04-02T11:30:09.91Z</time></trkpt><trkpt lat="43.1154868" lon="11.4412228"><ele>151.79999999999998</ele><time>2026-04-02T11:30:10.91Z</time></trkpt><trkpt lat="43.1153726" lon="11.4412349"><ele>149.4</ele><time>2026-04-02T11:30:11.91Z</time></trkpt><trkpt lat="43.1152513" lon="11.4412542"><ele>147.0</ele><time>2026-04-02T11:30:12.91Z</time></trkpt><trkpt lat="43.1151247" lon="11.4412761"><ele>147.0</ele><time>2026-04-02T11:30:13.91Z</time></trkpt><trkpt lat="43.1149913" lon="11.4412922"><ele>147.0</ele><time>2026-04-02T11:30:14.91Z</time></trkpt><trkpt lat="43.1148499" lon="11.4413056"><ele>147.0</ele><time>2026-04-02T11:30:15.91Z</time></trkpt><trkpt lat="43.1146967" lon="11.4413144"><ele>147.0</ele><time>2026-04-02T11:30:16.91Z</time></trkpt><trkpt lat="43.1145435" lon="11.441328"><ele>145.0</ele><time>2026-04-02T11:30:17.91Z</time></trkpt><trkpt lat="43.114375" lon="11.4413475"><ele>143.0</ele><time>2026-04-02T11:30:18.91Z</time></trkpt><trkpt lat="43.1141915" lon="11.4413653"><ele>141.0</ele><time>2026-04-02T11:30:19.91Z</time></trkpt><trkpt lat="43.1140063" lon="11.4413862"><ele>140.0</ele><time>2026-04-02T11:30:20.909Z</time></trkpt><trkpt lat="43.1138163" lon="11.4414007"><ele>139.0</ele><time>2026-04-02T11:30:21.91Z</time></trkpt><trkpt lat="43.1136188" lon="11.4414199"><ele>138.0</ele><time>2026-04-02T11:30:22.91Z</time></trkpt><trkpt lat="43.1134191" lon="11.441439"><ele>137.66666666666666</ele><time>2026-04-02T11:30:23.91Z</time></trkpt><trkpt lat="43.1132312" lon="11.4414582"><ele>137.33333333333331</ele><time>2026-04-02T11:30:24.91Z</time></trkpt><trkpt lat="43.1130581" lon="11.4414731"><ele>137.0</ele><time>2026-04-02T11:30:25.91Z</time></trkpt><trkpt lat="43.1129035" lon="11.4414888"><ele>137.0</ele><time>2026-04-02T11:30:26.91Z</time></trkpt><trkpt lat="43.1127588" lon="11.4415015"><ele>137.0</ele><time>2026-04-02T11:30:27.91Z</time></trkpt><trkpt lat="43.1126268" lon="11.4415112"><ele>137.0</ele><time>2026-04-02T11:30:28.91Z</time></trkpt><trkpt lat="43.1125008" lon="11.4415201"><ele>137.0</ele><time>2026-04-02T11:30:29.91Z</time></trkpt><trkpt lat="43.1123808" lon="11.4415315"><ele>136.75</ele><time>2026-04-02T11:30:30.91Z</time></trkpt><trkpt lat="43.1122513" lon="11.4415439"><ele>136.5</ele><time>2026-04-02T11:30:31.91Z</time></trkpt><trkpt lat="43.1121075" lon="11.4415591"><ele>136.25</ele><time>2026-04-02T11:30:32.91Z</time></trkpt><trkpt lat="43.1119638" lon="11.4415738"><ele>136.0</ele><time>2026-04-02T11:30:33.91Z</time></trkpt><trkpt lat="43.1118276" lon="11.4415839"><ele>136.0</ele><time>2026-04-02T11:30:34.91Z</time></trkpt><trkpt lat="43.1116887" lon="11.4415924"><ele>136.0</ele><time>2026-04-02T11:30:35.91Z</time></trkpt><trkpt lat="43.1115558" lon="11.4416137"><ele>136.0</ele><time>2026-04-02T11:30:36.91Z</time></trkpt><trkpt lat="43.11142" lon="11.4416362"><ele>136.0</ele><time>2026-04-02T11:30:37.91Z</time></trkpt><trkpt lat="43.1112762" lon="11.4416615"><ele>135.75</ele><time>2026-04-02T11:30:38.91Z</time></trkpt><trkpt lat="43.1111229" lon="11.441682"><ele>135.5</ele><time>2026-04-02T11:30:39.91Z</time></trkpt><trkpt lat="43.1109815" lon="11.441697"><ele>135.25</ele><time>2026-04-02T11:30:40.91Z</time></trkpt><trkpt lat="43.1108482" lon="11.4417101"><ele>135.0</ele><time>2026-04-02T11:30:41.91Z</time></trkpt><trkpt lat="43.1107212" lon="11.4417172"><ele>134.5</ele><time>2026-04-02T11:30:42.91Z</time></trkpt><trkpt lat="43.1106002" lon="11.4417191"><ele>134.0</ele><time>2026-04-02T11:30:43.91Z</time></trkpt><trkpt lat="43.1104834" lon="11.4417241"><ele>133.5</ele><time>2026-04-02T11:30:44.91Z</time></trkpt><trkpt lat="43.1103712" lon="11.4417361"><ele>133.0</ele><time>2026-04-02T11:30:45.91Z</time></trkpt><trkpt lat="43.1102441" lon="11.441754"><ele>133.0</ele><time>2026-04-02T11:30:46.91Z</time></trkpt><trkpt lat="43.1101065" lon="11.4417876"><ele>133.0</ele><time>2026-04-02T11:30:47.91Z</time></trkpt><trkpt lat="43.1099584" lon="11.4418401"><ele>133.0</ele><time>2026-04-02T11:30:48.91Z</time></trkpt><trkpt lat="43.1097954" lon="11.4419052"><ele>133.0</ele><time>2026-04-02T11:30:49.91Z</time></trkpt><trkpt lat="43.1096307" lon="11.4419723"><ele>133.0</ele><time>2026-04-02T11:30:50.91Z</time></trkpt><trkpt lat="43.1094533" lon="11.4420362"><ele>133.0</ele><time>2026-04-02T11:30:51.91Z</time></trkpt><trkpt lat="43.1092658" lon="11.4420956"><ele>133.0</ele><time>2026-04-02T11:30:52.91Z</time></trkpt><trkpt lat="43.1090736" lon="11.4421543"><ele>133.0</ele><time>2026-04-02T11:30:53.91Z</time></trkpt><trkpt lat="43.10888" lon="11.4422068"><ele>133.0</ele><time>2026-04-02T11:30:54.91Z</time></trkpt><trkpt lat="43.1086863" lon="11.4422513"><ele>133.0</ele><time>2026-04-02T11:30:55.91Z</time></trkpt><trkpt lat="43.1085076" lon="11.4422878"><ele>133.0</ele><time>2026-04-02T11:30:56.91Z</time></trkpt><trkpt lat="43.1083394" lon="11.4423232"><ele>133.0</ele><time>2026-04-02T11:30:57.909Z</time></trkpt><trkpt lat="43.1081856" lon="11.4423542"><ele>133.25</ele><time>2026-04-02T11:30:58.909Z</time></trkpt><trkpt lat="43.1080451" lon="11.4423866"><ele>133.5</ele><time>2026-04-02T11:30:59.91Z</time></trkpt><trkpt lat="43.1079158" lon="11.4424149"><ele>133.75</ele><time>2026-04-02T11:31:00.91Z</time></trkpt><trkpt lat="43.1077883" lon="11.4424437"><ele>134.0</ele><time>2026-04-02T11:31:01.91Z</time></trkpt><trkpt lat="43.1076582" lon="11.4424447"><ele>134.0</ele><time>2026-04-02T11:31:02.91Z</time></trkpt><trkpt lat="43.1075292" lon="11.442403"><ele>134.0</ele><time>2026-04-02T11:31:03.91Z</time></trkpt><trkpt lat="43.1074057" lon="11.4423211"><ele>134.0</ele><time>2026-04-02T11:31:04.91Z</time></trkpt><trkpt lat="43.1072884" lon="11.4421989"><ele>134.0</ele><time>2026-04-02T11:31:05.91Z</time></trkpt><trkpt lat="43.1071756" lon="11.4420498"><ele>133.0</ele><time>2026-04-02T11:31:06.91Z</time></trkpt><trkpt lat="43.1070606" lon="11.4418828"><ele>132.0</ele><time>2026-04-02T11:31:07.909Z</time></trkpt><trkpt lat="43.1069398" lon="11.4417124"><ele>131.0</ele><time>2026-04-02T11:31:08.91Z</time></trkpt><trkpt lat="43.1068161" lon="11.4415377"><ele>131.0</ele><time>2026-04-02T11:31:09.91Z</time></trkpt><trkpt lat="43.1066925" lon="11.4413569"><ele>131.0</ele><time>2026-04-02T11:31:10.91Z</time></trkpt><trkpt lat="43.10657" lon="11.4411835"><ele>131.0</ele><time>2026-04-02T11:31:11.91Z</time></trkpt><trkpt lat="43.1064494" lon="11.4410085"><ele>131.0</ele><time>2026-04-02T11:31:12.91Z</time></trkpt><trkpt lat="43.1063341" lon="11.4408394"><ele>131.0</ele><time>2026-04-02T11:31:13.91Z</time></trkpt><trkpt lat="43.1062258" lon="11.4406831"><ele>131.0</ele><time>2026-04-02T11:31:14.909Z</time></trkpt><trkpt lat="43.106126" lon="11.4405456"><ele>131.0</ele><time>2026-04-02T11:31:15.91Z</time></trkpt><trkpt lat="43.1060368" lon="11.4404162"><ele>131.0</ele><time>2026-04-02T11:31:16.909Z</time></trkpt><trkpt lat="43.1059546" lon="11.4402966"><ele>131.0</ele><time>2026-04-02T11:31:17.91Z</time></trkpt><trkpt lat="43.1058789" lon="11.4401884"><ele>131.0</ele><time>2026-04-02T11:31:18.91Z</time></trkpt><trkpt lat="43.1058099" lon="11.4400914"><ele>130.8</ele><time>2026-04-02T11:31:19.91Z</time></trkpt><trkpt lat="43.1057401" lon="11.4399999"><ele>130.6</ele><time>2026-04-02T11:31:20.91Z</time></trkpt><trkpt lat="43.1056668" lon="11.4399084"><ele>130.4</ele><time>2026-04-02T11:31:21.91Z</time></trkpt><trkpt lat="43.1055903" lon="11.4398229"><ele>130.2</ele><time>2026-04-02T11:31:22.91Z</time></trkpt><trkpt lat="43.1055111" lon="11.4397328"><ele>130.0</ele><time>2026-04-02T11:31:23.91Z</time></trkpt><trkpt lat="43.1054326" lon="11.439644"><ele>129.75</ele><time>2026-04-02T11:31:24.909Z</time></trkpt><trkpt lat="43.1053557" lon="11.4395411"><ele>129.5</ele><time>2026-04-02T11:31:25.91Z</time></trkpt><trkpt lat="43.1052744" lon="11.4394149"><ele>129.25</ele><time>2026-04-02T11:31:26.91Z</time></trkpt><trkpt lat="43.1051948" lon="11.4392701"><ele>129.0</ele><time>2026-04-02T11:31:27.91Z</time></trkpt><trkpt lat="43.1051125" lon="11.4391291"><ele>129.0</ele><time>2026-04-02T11:31:28.909Z</time></trkpt><trkpt lat="43.1050386" lon="11.4390032"><ele>129.0</ele><time>2026-04-02T11:31:29.91Z</time></trkpt><trkpt lat="43.1049774" lon="11.4388935"><ele>129.0</ele><time>2026-04-02T11:31:30.91Z</time></trkpt><trkpt lat="43.1049189" lon="11.4387945"><ele>129.0</ele><time>2026-04-02T11:31:31.91Z</time></trkpt><trkpt lat="43.1048585" lon="11.4386994"><ele>129.0</ele><time>2026-04-02T11:31:32.91Z</time></trkpt><trkpt lat="43.1047769" lon="11.4385874"><ele>129.5</ele><time>2026-04-02T11:31:33.91Z</time></trkpt><trkpt lat="43.1046914" lon="11.438464"><ele>130.0</ele><time>2026-04-02T11:31:34.91Z</time></trkpt><trkpt lat="43.1046141" lon="11.4383473"><ele>130.5</ele><time>2026-04-02T11:31:35.91Z</time></trkpt><trkpt lat="43.1045333" lon="11.4382323"><ele>131.0</ele><time>2026-04-02T11:31:36.91Z</time></trkpt><trkpt lat="43.1044514" lon="11.4381209"><ele>131.0</ele><time>2026-04-02T11:31:37.91Z</time></trkpt><trkpt lat="43.1043698" lon="11.4380116"><ele>131.0</ele><time>2026-04-02T11:31:38.91Z</time></trkpt><trkpt lat="43.1042851" lon="11.4378977"><ele>131.0</ele><time>2026-04-02T11:31:39.91Z</time></trkpt><trkpt lat="43.1041962" lon="11.4377768"><ele>131.0</ele><time>2026-04-02T11:31:40.91Z</time></trkpt><trkpt lat="43.1041046" lon="11.4376538"><ele>131.25</ele><time>2026-04-02T11:31:41.91Z</time></trkpt><trkpt lat="43.1040219" lon="11.4375458"><ele>131.5</ele><time>2026-04-02T11:31:42.91Z</time></trkpt><trkpt lat="43.1039426" lon="11.4374388"><ele>131.75</ele><time>2026-04-02T11:31:43.909Z</time></trkpt><trkpt lat="43.1038581" lon="11.4373243"><ele>132.0</ele><time>2026-04-02T11:31:44.91Z</time></trkpt><trkpt lat="43.1037727" lon="11.4372085"><ele>132.5</ele><time>2026-04-02T11:31:45.91Z</time></trkpt><trkpt lat="43.1036822" lon="11.4370837"><ele>133.0</ele><time>2026-04-02T11:31:46.91Z</time></trkpt><trkpt lat="43.1035933" lon="11.4369566"><ele>133.5</ele><time>2026-04-02T11:31:47.91Z</time></trkpt><trkpt lat="43.1035135" lon="11.436839"><ele>134.0</ele><time>2026-04-02T11:31:48.91Z</time></trkpt><trkpt lat="43.1034377" lon="11.4367297"><ele>134.0</ele><time>2026-04-02T11:31:49.91Z</time></trkpt><trkpt lat="43.1033579" lon="11.4366157"><ele>134.0</ele><time>2026-04-02T11:31:50.91Z</time></trkpt><trkpt lat="43.1032651" lon="11.4364839"><ele>134.0</ele><time>2026-04-02T11:31:51.91Z</time></trkpt><trkpt lat="43.1031606" lon="11.4363377"><ele>134.0</ele><time>2026-04-02T11:31:52.91Z</time></trkpt><trkpt lat="43.1030485" lon="11.4361833"><ele>134.66666666666666</ele><time>2026-04-02T11:31:53.91Z</time></trkpt><trkpt lat="43.10293" lon="11.4360221"><ele>135.33333333333334</ele><time>2026-04-02T11:31:54.91Z</time></trkpt><trkpt lat="43.1028155" lon="11.4358657"><ele>136.0</ele><time>2026-04-02T11:31:55.91Z</time></trkpt><trkpt lat="43.1027115" lon="11.4357267"><ele>136.0</ele><time>2026-04-02T11:31:56.91Z</time></trkpt><trkpt lat="43.1026143" lon="11.4355902"><ele>136.0</ele><time>2026-04-02T11:31:57.91Z</time></trkpt><trkpt lat="43.1025126" lon="11.4354409"><ele>136.0</ele><time>2026-04-02T11:31:58.91Z</time></trkpt><trkpt lat="43.1024177" lon="11.4352888"><ele>136.0</ele><time>2026-04-02T11:31:59.91Z</time></trkpt><trkpt lat="43.1023413" lon="11.435148"><ele>136.75</ele><time>2026-04-02T11:32:00.91Z</time></trkpt><trkpt lat="43.1022747" lon="11.4350017"><ele>137.5</ele><time>2026-04-02T11:32:01.91Z</time></trkpt><trkpt lat="43.1022293" lon="11.4348535"><ele>138.25</ele><time>2026-04-02T11:32:02.91Z</time></trkpt><trkpt lat="43.1022092" lon="11.4346991"><ele>139.0</ele><time>2026-04-02T11:32:03.91Z</time></trkpt><trkpt lat="43.1022147" lon="11.4345308"><ele>140.5</ele><time>2026-04-02T11:32:04.91Z</time></trkpt><trkpt lat="43.1022315" lon="11.4343414"><ele>142.0</ele><time>2026-04-02T11:32:05.91Z</time></trkpt><trkpt lat="43.1022686" lon="11.4341415"><ele>143.5</ele><time>2026-04-02T11:32:06.91Z</time></trkpt><trkpt lat="43.1023029" lon="11.4339582"><ele>145.0</ele><time>2026-04-02T11:32:07.91Z</time></trkpt><trkpt lat="43.1023301" lon="11.4337829"><ele>146.25</ele><time>2026-04-02T11:32:08.91Z</time></trkpt><trkpt lat="43.1023414" lon="11.4336202"><ele>147.5</ele><time>2026-04-02T11:32:09.91Z</time></trkpt><trkpt lat="43.10234" lon="11.4334567"><ele>148.75</ele><time>2026-04-02T11:32:10.909Z</time></trkpt><trkpt lat="43.1023275" lon="11.4332891"><ele>150.0</ele><time>2026-04-02T11:32:11.91Z</time></trkpt><trkpt lat="43.1023005" lon="11.433123"><ele>150.0</ele><time>2026-04-02T11:32:12.91Z</time></trkpt><trkpt lat="43.1022699" lon="11.4329812"><ele>150.0</ele><time>2026-04-02T11:32:13.91Z</time></trkpt><trkpt lat="43.1022327" lon="11.4328603"><ele>150.0</ele><time>2026-04-02T11:32:14.91Z</time></trkpt><trkpt lat="43.102189" lon="11.4327583"><ele>150.0</ele><time>2026-04-02T11:32:15.91Z</time></trkpt><trkpt lat="43.1021352" lon="11.4326631"><ele>150.0</ele><time>2026-04-02T11:32:16.91Z</time></trkpt><trkpt lat="43.1020666" lon="11.4325794"><ele>150.4</ele><time>2026-04-02T11:32:17.91Z</time></trkpt><trkpt lat="43.1019881" lon="11.4325168"><ele>150.8</ele><time>2026-04-02T11:32:18.91Z</time></trkpt><trkpt lat="43.1019" lon="11.4324709"><ele>151.2</ele><time>2026-04-02T11:32:19.909Z</time></trkpt><trkpt lat="43.1018069" lon="11.4324343"><ele>151.6</ele><time>2026-04-02T11:32:20.91Z</time></trkpt><trkpt lat="43.1016878" lon="11.4324342"><ele>152.0</ele><time>2026-04-02T11:32:21.91Z</time></trkpt><trkpt lat="43.1015679" lon="11.4324249"><ele>152.0</ele><time>2026-04-02T11:32:22.909Z</time></trkpt><trkpt lat="43.1014368" lon="11.4324139"><ele>152.0</ele><time>2026-04-02T11:32:23.91Z</time></trkpt><trkpt lat="43.1012901" lon="11.4323966"><ele>152.0</ele><time>2026-04-02T11:32:24.91Z</time></trkpt><trkpt lat="43.1011459" lon="11.4323859"><ele>152.0</ele><time>2026-04-02T11:32:25.91Z</time></trkpt><trkpt lat="43.1009876" lon="11.4323723"><ele>152.0</ele><time>2026-04-02T11:32:26.91Z</time></trkpt><trkpt lat="43.1008241" lon="11.4323571"><ele>152.0</ele><time>2026-04-02T11:32:27.91Z</time></trkpt><trkpt lat="43.1006498" lon="11.4323433"><ele>152.0</ele><time>2026-04-02T11:32:28.909Z</time></trkpt><trkpt lat="43.1004682" lon="11.4323264"><ele>154.0</ele><time>2026-04-02T11:32:29.91Z</time></trkpt><trkpt lat="43.1002764" lon="11.432306"><ele>156.0</ele><time>2026-04-02T11:32:30.91Z</time></trkpt><trkpt lat="43.1000831" lon="11.4322886"><ele>158.0</ele><time>2026-04-02T11:32:31.91Z</time></trkpt><trkpt lat="43.0998909" lon="11.4322708"><ele>159.0</ele><time>2026-04-02T11:32:32.91Z</time></trkpt><trkpt lat="43.099704" lon="11.4322465"><ele>160.0</ele><time>2026-04-02T11:32:33.91Z</time></trkpt><trkpt lat="43.0995296" lon="11.4322276"><ele>161.0</ele><time>2026-04-02T11:32:34.91Z</time></trkpt><trkpt lat="43.0993685" lon="11.4322201"><ele>161.0</ele><time>2026-04-02T11:32:35.91Z</time></trkpt><trkpt lat="43.0992251" lon="11.4322117"><ele>161.0</ele><time>2026-04-02T11:32:36.91Z</time></trkpt><trkpt lat="43.099084" lon="11.4322046"><ele>161.0</ele><time>2026-04-02T11:32:37.909Z</time></trkpt><trkpt lat="43.0989515" lon="11.4321889"><ele>161.0</ele><time>2026-04-02T11:32:38.91Z</time></trkpt><trkpt lat="43.0988191" lon="11.4321633"><ele>162.5</ele><time>2026-04-02T11:32:39.91Z</time></trkpt><trkpt lat="43.0986906" lon="11.4321219"><ele>164.0</ele><time>2026-04-02T11:32:40.91Z</time></trkpt><trkpt lat="43.0985626" lon="11.432054"><ele>165.5</ele><time>2026-04-02T11:32:41.91Z</time></trkpt><trkpt lat="43.0984269" lon="11.43196"><ele>167.0</ele><time>2026-04-02T11:32:42.91Z</time></trkpt><trkpt lat="43.0982884" lon="11.4318521"><ele>165.66666666666666</ele><time>2026-04-02T11:32:43.91Z</time></trkpt><trkpt lat="43.0981448" lon="11.4317354"><ele>164.33333333333334</ele><time>2026-04-02T11:32:44.91Z</time></trkpt><trkpt lat="43.0979978" lon="11.4316133"><ele>163.0</ele><time>2026-04-02T11:32:45.91Z</time></trkpt><trkpt lat="43.0978465" lon="11.4314884"><ele>163.0</ele><time>2026-04-02T11:32:46.91Z</time></trkpt><trkpt lat="43.0976964" lon="11.4313632"><ele>163.0</ele><time>2026-04-02T11:32:47.91Z</time></trkpt><trkpt lat="43.0975484" lon="11.4312379"><ele>163.0</ele><time>2026-04-02T11:32:48.91Z</time></trkpt><trkpt lat="43.0974141" lon="11.4311151"><ele>164.0</ele><time>2026-04-02T11:32:49.91Z</time></trkpt><trkpt lat="43.097279" lon="11.4310076"><ele>165.0</ele><time>2026-04-02T11:32:50.91Z</time></trkpt><trkpt lat="43.0971626" lon="11.430901"><ele>166.0</ele><time>2026-04-02T11:32:51.91Z</time></trkpt><trkpt lat="43.0970446" lon="11.430804"><ele>167.0</ele><time>2026-04-02T11:32:52.91Z</time></trkpt><trkpt lat="43.0969279" lon="11.4307091"><ele>167.0</ele><time>2026-04-02T11:32:53.91Z</time></trkpt><trkpt lat="43.0968056" lon="11.4305939"><ele>167.0</ele><time>2026-04-02T11:32:54.91Z</time></trkpt><trkpt lat="43.0966814" lon="11.4304507"><ele>167.0</ele><time>2026-04-02T11:32:55.909Z</time></trkpt><trkpt lat="43.0965552" lon="11.4302941"><ele>168.33333333333331</ele><time>2026-04-02T11:32:56.91Z</time></trkpt><trkpt lat="43.0964243" lon="11.430131"><ele>169.66666666666666</ele><time>2026-04-02T11:32:57.91Z</time></trkpt><trkpt lat="43.0962944" lon="11.4299727"><ele>171.0</ele><time>2026-04-02T11:32:58.91Z</time></trkpt><trkpt lat="43.0961715" lon="11.4298274"><ele>171.0</ele><time>2026-04-02T11:32:59.91Z</time></trkpt><trkpt lat="43.0960423" lon="11.4296822"><ele>171.0</ele><time>2026-04-02T11:33:00.91Z</time></trkpt><trkpt lat="43.0958938" lon="11.4295496"><ele>171.0</ele><time>2026-04-02T11:33:01.91Z</time></trkpt><trkpt lat="43.095742" lon="11.4294167"><ele>173.66666666666666</ele><time>2026-04-02T11:33:02.91Z</time></trkpt><trkpt lat="43.0955637" lon="11.4292966"><ele>176.33333333333331</ele><time>2026-04-02T11:33:03.909Z</time></trkpt><trkpt lat="43.0953994" lon="11.4291738"><ele>179.0</ele><time>2026-04-02T11:33:04.91Z</time></trkpt><trkpt lat="43.0952246" lon="11.4290497"><ele>179.0</ele><time>2026-04-02T11:33:05.91Z</time></trkpt><trkpt lat="43.0950512" lon="11.4289281"><ele>179.0</ele><time>2026-04-02T11:33:06.91Z</time></trkpt><trkpt lat="43.0948793" lon="11.4288003"><ele>179.0</ele><time>2026-04-02T11:33:07.91Z</time></trkpt><trkpt lat="43.0947108" lon="11.4286793"><ele>181.33333333333331</ele><time>2026-04-02T11:33:08.91Z</time></trkpt><trkpt lat="43.0945387" lon="11.4285587"><ele>183.66666666666666</ele><time>2026-04-02T11:33:09.91Z</time></trkpt><trkpt lat="43.0943716" lon="11.4284354"><ele>186.0</ele><time>2026-04-02T11:33:10.91Z</time></trkpt><trkpt lat="43.0941978" lon="11.4283072"><ele>186.66666666666666</ele><time>2026-04-02T11:33:11.909Z</time></trkpt><trkpt lat="43.0940233" lon="11.4281844"><ele>187.33333333333331</ele><time>2026-04-02T11:33:12.91Z</time></trkpt><trkpt lat="43.0938534" lon="11.4280586"><ele>188.0</ele><time>2026-04-02T11:33:13.91Z</time></trkpt><trkpt lat="43.0936823" lon="11.4279291"><ele>189.0</ele><time>2026-04-02T11:33:14.91Z</time></trkpt><trkpt lat="43.0935111" lon="11.4278039"><ele>190.0</ele><time>2026-04-02T11:33:15.91Z</time></trkpt><trkpt lat="43.093339" lon="11.4276854"><ele>191.0</ele><time>2026-04-02T11:33:16.91Z</time></trkpt><trkpt lat="43.0931707" lon="11.4275675"><ele>192.0</ele><time>2026-04-02T11:33:17.91Z</time></trkpt><trkpt lat="43.0929967" lon="11.427437"><ele>193.0</ele><time>2026-04-02T11:33:18.91Z</time></trkpt><trkpt lat="43.0928281" lon="11.4273135"><ele>194.0</ele><time>2026-04-02T11:33:19.91Z</time></trkpt><trkpt lat="43.0926632" lon="11.4271858"><ele>195.0</ele><time>2026-04-02T11:33:20.91Z</time></trkpt><trkpt lat="43.0924935" lon="11.4270659"><ele>196.0</ele><time>2026-04-02T11:33:21.91Z</time></trkpt><trkpt lat="43.0923236" lon="11.4269443"><ele>197.0</ele><time>2026-04-02T11:33:22.91Z</time></trkpt><trkpt lat="43.0921546" lon="11.4268237"><ele>198.0</ele><time>2026-04-02T11:33:23.91Z</time></trkpt><trkpt lat="43.0919837" lon="11.4267138"><ele>199.0</ele><time>2026-04-02T11:33:24.91Z</time></trkpt><trkpt lat="43.0918181" lon="11.4265887"><ele>200.0</ele><time>2026-04-02T11:33:25.91Z</time></trkpt><trkpt lat="43.0916661" lon="11.426468"><ele>199.66666666666669</ele><time>2026-04-02T11:33:26.91Z</time></trkpt><trkpt lat="43.0915213" lon="11.4263606"><ele>199.33333333333331</ele><time>2026-04-02T11:33:27.91Z</time></trkpt><trkpt lat="43.0913918" lon="11.4262483"><ele>199.0</ele><time>2026-04-02T11:33:28.91Z</time></trkpt><trkpt lat="43.0912667" lon="11.4261492"><ele>200.33333333333331</ele><time>2026-04-02T11:33:29.91Z</time></trkpt><trkpt lat="43.0911321" lon="11.4260584"><ele>201.66666666666669</ele><time>2026-04-02T11:33:30.91Z</time></trkpt><trkpt lat="43.0909882" lon="11.425985"><ele>203.0</ele><time>2026-04-02T11:33:31.91Z</time></trkpt><trkpt lat="43.090833" lon="11.4259243"><ele>205.0</ele><time>2026-04-02T11:33:32.91Z</time></trkpt><trkpt lat="43.0906754" lon="11.4258688"><ele>207.0</ele><time>2026-04-02T11:33:33.91Z</time></trkpt><trkpt lat="43.090504" lon="11.4258226"><ele>209.0</ele><time>2026-04-02T11:33:34.91Z</time></trkpt><trkpt lat="43.0903228" lon="11.425778"><ele>209.0</ele><time>2026-04-02T11:33:35.91Z</time></trkpt><trkpt lat="43.0901444" lon="11.4257257"><ele>209.0</ele><time>2026-04-02T11:33:36.91Z</time></trkpt><trkpt lat="43.0899675" lon="11.4256852"><ele>209.0</ele><time>2026-04-02T11:33:37.91Z</time></trkpt><trkpt lat="43.0897921" lon="11.4256455"><ele>210.66666666666669</ele><time>2026-04-02T11:33:38.91Z</time></trkpt><trkpt lat="43.089629" lon="11.4255907"><ele>212.33333333333331</ele><time>2026-04-02T11:33:39.91Z</time></trkpt><trkpt lat="43.0894738" lon="11.4255487"><ele>214.0</ele><time>2026-04-02T11:33:40.91Z</time></trkpt><trkpt lat="43.0893376" lon="11.4255093"><ele>215.79999999999998</ele><time>2026-04-02T11:33:41.91Z</time></trkpt><trkpt lat="43.0892133" lon="11.4254648"><ele>217.59999999999997</ele><time>2026-04-02T11:33:42.91Z</time></trkpt><trkpt lat="43.0891077" lon="11.4254098"><ele>219.4</ele><time>2026-04-02T11:33:43.91Z</time></trkpt><trkpt lat="43.0890255" lon="11.4253272"><ele>221.2</ele><time>2026-04-02T11:33:44.91Z</time></trkpt><trkpt lat="43.0889766" lon="11.4252236"><ele>223.0</ele><time>2026-04-02T11:33:45.91Z</time></trkpt><trkpt lat="43.0889533" lon="11.4250945"><ele>226.4</ele><time>2026-04-02T11:33:46.91Z</time></trkpt><trkpt lat="43.0889573" lon="11.4249595"><ele>229.8</ele><time>2026-04-02T11:33:47.91Z</time></trkpt><trkpt lat="43.0889734" lon="11.4248219"><ele>233.2</ele><time>2026-04-02T11:33:48.91Z</time></trkpt><trkpt lat="43.0889948" lon="11.4246686"><ele>236.6</ele><time>2026-04-02T11:33:49.909Z</time></trkpt><trkpt lat="43.0890202" lon="11.4245041"><ele>240.0</ele><time>2026-04-02T11:33:50.91Z</time></trkpt><trkpt lat="43.0890466" lon="11.4243354"><ele>239.5</ele><time>2026-04-02T11:33:51.91Z</time></trkpt><trkpt lat="43.0890807" lon="11.424166"><ele>239.0</ele><time>2026-04-02T11:33:52.909Z</time></trkpt><trkpt lat="43.089112" lon="11.4239959"><ele>238.5</ele><time>2026-04-02T11:33:53.91Z</time></trkpt><trkpt lat="43.0891434" lon="11.423828"><ele>238.0</ele><time>2026-04-02T11:33:54.91Z</time></trkpt><trkpt lat="43.0891652" lon="11.4236658"><ele>238.0</ele><time>2026-04-02T11:33:55.91Z</time></trkpt><trkpt lat="43.0891725" lon="11.4235099"><ele>238.0</ele><time>2026-04-02T11:33:56.909Z</time></trkpt><trkpt lat="43.0891654" lon="11.4233486"><ele>238.0</ele><time>2026-04-02T11:33:57.91Z</time></trkpt><trkpt lat="43.0891458" lon="11.4231842"><ele>238.0</ele><time>2026-04-02T11:33:58.91Z</time></trkpt><trkpt lat="43.089101" lon="11.4230294"><ele>244.25</ele><time>2026-04-02T11:33:59.91Z</time></trkpt><trkpt lat="43.0890436" lon="11.4228768"><ele>250.5</ele><time>2026-04-02T11:34:00.91Z</time></trkpt><trkpt lat="43.0889792" lon="11.4227207"><ele>256.75</ele><time>2026-04-02T11:34:01.91Z</time></trkpt><trkpt lat="43.0889136" lon="11.4225669"><ele>263.0</ele><time>2026-04-02T11:34:02.91Z</time></trkpt><trkpt lat="43.0888556" lon="11.4224105"><ele>263.0</ele><time>2026-04-02T11:34:03.91Z</time></trkpt><trkpt lat="43.0887978" lon="11.4222549"><ele>263.0</ele><time>2026-04-02T11:34:04.91Z</time></trkpt><trkpt lat="43.0887463" lon="11.4221179"><ele>263.0</ele><time>2026-04-02T11:34:05.91Z</time></trkpt><trkpt lat="43.0887034" lon="11.4219887"><ele>263.0</ele><time>2026-04-02T11:34:06.91Z</time></trkpt><trkpt lat="43.0886533" lon="11.4218734"><ele>263.0</ele><time>2026-04-02T11:34:07.91Z</time></trkpt><trkpt lat="43.0885939" lon="11.4217788"><ele>262.0</ele><time>2026-04-02T11:34:08.91Z</time></trkpt><trkpt lat="43.0885232" lon="11.4217126"><ele>261.0</ele><time>2026-04-02T11:34:09.91Z</time></trkpt><trkpt lat="43.0884398" lon="11.4216732"><ele>260.0</ele><time>2026-04-02T11:34:10.91Z</time></trkpt><trkpt lat="43.0883557" lon="11.4216656"><ele>259.0</ele><time>2026-04-02T11:34:11.91Z</time></trkpt><trkpt lat="43.0882767" lon="11.4216898"><ele>258.0</ele><time>2026-04-02T11:34:12.91Z</time></trkpt><trkpt lat="43.0882118" lon="11.4217469"><ele>257.0</ele><time>2026-04-02T11:34:13.91Z</time></trkpt><trkpt lat="43.0881662" lon="11.4218313"><ele>261.4</ele><time>2026-04-02T11:34:14.91Z</time></trkpt><trkpt lat="43.0881299" lon="11.4219351"><ele>265.79999999999995</ele><time>2026-04-02T11:34:15.91Z</time></trkpt><trkpt lat="43.0881032" lon="11.4220517"><ele>270.2</ele><time>2026-04-02T11:34:16.91Z</time></trkpt><trkpt lat="43.0880776" lon="11.4221819"><ele>274.59999999999997</ele><time>2026-04-02T11:34:17.909Z</time></trkpt><trkpt lat="43.0880451" lon="11.4223115"><ele>279.0</ele><time>2026-04-02T11:34:18.91Z</time></trkpt><trkpt lat="43.0880171" lon="11.4224451"><ele>279.59999999999997</ele><time>2026-04-02T11:34:19.91Z</time></trkpt><trkpt lat="43.0879873" lon="11.4225755"><ele>280.2</ele><time>2026-04-02T11:34:20.91Z</time></trkpt><trkpt lat="43.0879566" lon="11.4226963"><ele>280.79999999999995</ele><time>2026-04-02T11:34:21.91Z</time></trkpt><trkpt lat="43.0879264" lon="11.4228208"><ele>281.4</ele><time>2026-04-02T11:34:22.91Z</time></trkpt><trkpt lat="43.087899" lon="11.4229499"><ele>282.0</ele><time>2026-04-02T11:34:23.909Z</time></trkpt><trkpt lat="43.0878472" lon="11.4230926"><ele>282.2</ele><time>2026-04-02T11:34:24.91Z</time></trkpt><trkpt lat="43.0877935" lon="11.4232263"><ele>282.4</ele><time>2026-04-02T11:34:25.91Z</time></trkpt><trkpt lat="43.0877446" lon="11.4233369"><ele>282.6</ele><time>2026-04-02T11:34:26.91Z</time></trkpt><trkpt lat="43.0877024" lon="11.4234142"><ele>282.8</ele><time>2026-04-02T11:34:27.91Z</time></trkpt><trkpt lat="43.0876093" lon="11.4234851"><ele>283.0</ele><time>2026-04-02T11:34:29.909Z</time></trkpt><trkpt lat="43.0875274" lon="11.4234305"><ele>283.0</ele><time>2026-04-02T11:34:31.91Z</time></trkpt><trkpt lat="43.087466" lon="11.4232654"><ele>283.0</ele><time>2026-04-02T11:34:33.909Z</time></trkpt><trkpt lat="43.0874402" lon="11.423148"><ele>283.0</ele><time>2026-04-02T11:34:34.91Z</time></trkpt><trkpt lat="43.0874154" lon="11.4230242"><ele>283.0</ele><time>2026-04-02T11:34:35.91Z</time></trkpt><trkpt lat="43.0873935" lon="11.4229079"><ele>283.0</ele><time>2026-04-02T11:34:36.91Z</time></trkpt><trkpt lat="43.0873713" lon="11.4228077"><ele>287.5</ele><time>2026-04-02T11:34:37.91Z</time></trkpt><trkpt lat="43.0873458" lon="11.4227177"><ele>292.0</ele><time>2026-04-02T11:34:38.91Z</time></trkpt><trkpt lat="43.0872893" lon="11.4226228"><ele>296.5</ele><time>2026-04-02T11:34:40.91Z</time></trkpt><trkpt lat="43.0872073" lon="11.4226469"><ele>301.0</ele><time>2026-04-02T11:34:42.91Z</time></trkpt><trkpt lat="43.0871606" lon="11.422766"><ele>305.5</ele><time>2026-04-02T11:34:44.91Z</time></trkpt><trkpt lat="43.0871449" lon="11.4228599"><ele>310.0</ele><time>2026-04-02T11:34:45.91Z</time></trkpt><trkpt lat="43.0871212" lon="11.4229726"><ele>310.0</ele><time>2026-04-02T11:34:46.91Z</time></trkpt><trkpt lat="43.0870942" lon="11.4231039"><ele>310.0</ele><time>2026-04-02T11:34:47.91Z</time></trkpt><trkpt lat="43.0870636" lon="11.4232389"><ele>310.0</ele><time>2026-04-02T11:34:48.91Z</time></trkpt><trkpt lat="43.0870328" lon="11.42338"><ele>310.0</ele><time>2026-04-02T11:34:49.91Z</time></trkpt><trkpt lat="43.0869952" lon="11.4235183"><ele>310.0</ele><time>2026-04-02T11:34:50.91Z</time></trkpt><trkpt lat="43.0869561" lon="11.4236364"><ele>310.0</ele><time>2026-04-02T11:34:51.91Z</time></trkpt><trkpt lat="43.0869075" lon="11.4237286"><ele>310.0</ele><time>2026-04-02T11:34:52.91Z</time></trkpt><trkpt lat="43.0868495" lon="11.4237937"><ele>310.0</ele><time>2026-04-02T11:34:53.91Z</time></trkpt><trkpt lat="43.0867784" lon="11.4238313"><ele>310.0</ele><time>2026-04-02T11:34:54.91Z</time></trkpt><trkpt lat="43.0867107" lon="11.4238429"><ele>310.0</ele><time>2026-04-02T11:34:55.91Z</time></trkpt><trkpt lat="43.0866349" lon="11.4238324"><ele>310.0</ele><time>2026-04-02T11:34:56.91Z</time></trkpt><trkpt lat="43.086559" lon="11.4238"><ele>313.16666666666663</ele><time>2026-04-02T11:34:57.91Z</time></trkpt><trkpt lat="43.0864828" lon="11.4237411"><ele>316.3333333333333</ele><time>2026-04-02T11:34:58.91Z</time></trkpt><trkpt lat="43.0864321" lon="11.4236781"><ele>319.5</ele><time>2026-04-02T11:34:59.909Z</time></trkpt><trkpt lat="43.0864006" lon="11.4236012"><ele>322.6666666666667</ele><time>2026-04-02T11:35:00.91Z</time></trkpt><trkpt lat="43.0864019" lon="11.4234217"><ele>325.83333333333337</ele><time>2026-04-02T11:35:02.91Z</time></trkpt><trkpt lat="43.0864249" lon="11.4233126"><ele>329.0</ele><time>2026-04-02T11:35:03.91Z</time></trkpt><trkpt lat="43.0864666" lon="11.4231949"><ele>329.0</ele><time>2026-04-02T11:35:04.91Z</time></trkpt><trkpt lat="43.0865038" lon="11.4230733"><ele>329.0</ele><time>2026-04-02T11:35:05.91Z</time></trkpt><trkpt lat="43.086523" lon="11.4229615"><ele>329.0</ele><time>2026-04-02T11:35:06.91Z</time></trkpt><trkpt lat="43.0865215" lon="11.4228639"><ele>329.0</ele><time>2026-04-02T11:35:07.91Z</time></trkpt><trkpt lat="43.0865003" lon="11.4227556"><ele>329.0</ele><time>2026-04-02T11:35:08.91Z</time></trkpt><trkpt lat="43.0864654" lon="11.4226694"><ele>329.0</ele><time>2026-04-02T11:35:09.91Z</time></trkpt><trkpt lat="43.0864166" lon="11.4226111"><ele>329.0</ele><time>2026-04-02T11:35:10.909Z</time></trkpt><trkpt lat="43.086292" lon="11.4226059"><ele>329.0</ele><time>2026-04-02T11:35:12.91Z</time></trkpt><trkpt lat="43.0861874" lon="11.4227187"><ele>329.0</ele><time>2026-04-02T11:35:14.909Z</time></trkpt><trkpt lat="43.0861305" lon="11.4228117"><ele>329.0</ele><time>2026-04-02T11:35:15.909Z</time></trkpt><trkpt lat="43.0860759" lon="11.4229212"><ele>329.0</ele><time>2026-04-02T11:35:16.91Z</time></trkpt><trkpt lat="43.0860191" lon="11.4230311"><ele>329.0</ele><time>2026-04-02T11:35:17.91Z</time></trkpt><trkpt lat="43.0859569" lon="11.4231333"><ele>329.0</ele><time>2026-04-02T11:35:18.91Z</time></trkpt><trkpt lat="43.0858791" lon="11.4232171"><ele>329.0</ele><time>2026-04-02T11:35:19.91Z</time></trkpt><trkpt lat="43.0857987" lon="11.4232435"><ele>329.0</ele><time>2026-04-02T11:35:20.91Z</time></trkpt><trkpt lat="43.0857176" lon="11.4232171"><ele>329.0</ele><time>2026-04-02T11:35:21.91Z</time></trkpt><trkpt lat="43.085644" lon="11.4231429"><ele>333.0</ele><time>2026-04-02T11:35:22.91Z</time></trkpt><trkpt lat="43.0855801" lon="11.4230241"><ele>337.0</ele><time>2026-04-02T11:35:23.91Z</time></trkpt><trkpt lat="43.0855333" lon="11.4228774"><ele>341.0</ele><time>2026-04-02T11:35:24.91Z</time></trkpt><trkpt lat="43.0854891" lon="11.4226963"><ele>345.0</ele><time>2026-04-02T11:35:25.91Z</time></trkpt><trkpt lat="43.0854437" lon="11.4225069"><ele>345.8</ele><time>2026-04-02T11:35:26.91Z</time></trkpt><trkpt lat="43.0854" lon="11.4223412"><ele>346.6</ele><time>2026-04-02T11:35:27.91Z</time></trkpt><trkpt lat="43.0853581" lon="11.4221976"><ele>347.4</ele><time>2026-04-02T11:35:28.91Z</time></trkpt><trkpt lat="43.0853137" lon="11.4220742"><ele>348.2</ele><time>2026-04-02T11:35:29.91Z</time></trkpt><trkpt lat="43.085251" lon="11.4219644"><ele>349.0</ele><time>2026-04-02T11:35:30.91Z</time></trkpt><trkpt lat="43.0851715" lon="11.4218664"><ele>348.0</ele><time>2026-04-02T11:35:31.91Z</time></trkpt><trkpt lat="43.0850717" lon="11.4217804"><ele>347.0</ele><time>2026-04-02T11:35:32.91Z</time></trkpt><trkpt lat="43.0849503" lon="11.4217056"><ele>346.0</ele><time>2026-04-02T11:35:33.91Z</time></trkpt><trkpt lat="43.0848058" lon="11.4216452"><ele>345.0</ele><time>2026-04-02T11:35:34.91Z</time></trkpt><trkpt lat="43.0846478" lon="11.4215809"><ele>345.0</ele><time>2026-04-02T11:35:35.91Z</time></trkpt><trkpt lat="43.0844727" lon="11.4214992"><ele>345.0</ele><time>2026-04-02T11:35:36.91Z</time></trkpt><trkpt lat="43.0842926" lon="11.4213879"><ele>345.0</ele><time>2026-04-02T11:35:37.909Z</time></trkpt><trkpt lat="43.084134" lon="11.4212725"><ele>345.6666666666667</ele><time>2026-04-02T11:35:38.91Z</time></trkpt><trkpt lat="43.0839758" lon="11.4211552"><ele>346.33333333333337</ele><time>2026-04-02T11:35:39.91Z</time></trkpt><trkpt lat="43.0838203" lon="11.4210469"><ele>347.0</ele><time>2026-04-02T11:35:40.91Z</time></trkpt><trkpt lat="43.0836579" lon="11.4209526"><ele>347.0</ele><time>2026-04-02T11:35:41.91Z</time></trkpt><trkpt lat="43.0834868" lon="11.42088"><ele>347.0</ele><time>2026-04-02T11:35:42.91Z</time></trkpt><trkpt lat="43.0833121" lon="11.4208208"><ele>347.0</ele><time>2026-04-02T11:35:43.91Z</time></trkpt><trkpt lat="43.0831398" lon="11.420768"><ele>349.6666666666667</ele><time>2026-04-02T11:35:44.909Z</time></trkpt><trkpt lat="43.0829775" lon="11.4207132"><ele>352.3333333333333</ele><time>2026-04-02T11:35:45.91Z</time></trkpt><trkpt lat="43.0828353" lon="11.4206631"><ele>355.0</ele><time>2026-04-02T11:35:46.91Z</time></trkpt><trkpt lat="43.0826941" lon="11.4206148"><ele>355.0</ele><time>2026-04-02T11:35:47.91Z</time></trkpt><trkpt lat="43.082547" lon="11.4205771"><ele>355.0</ele><time>2026-04-02T11:35:48.91Z</time></trkpt><trkpt lat="43.0823909" lon="11.4205475"><ele>355.0</ele><time>2026-04-02T11:35:49.91Z</time></trkpt><trkpt lat="43.0822315" lon="11.4205371"><ele>354.75</ele><time>2026-04-02T11:35:50.91Z</time></trkpt><trkpt lat="43.0820895" lon="11.4205293"><ele>354.5</ele><time>2026-04-02T11:35:51.91Z</time></trkpt><trkpt lat="43.081963" lon="11.4205154"><ele>354.25</ele><time>2026-04-02T11:35:52.91Z</time></trkpt><trkpt lat="43.0818369" lon="11.4204752"><ele>354.0</ele><time>2026-04-02T11:35:53.91Z</time></trkpt><trkpt lat="43.0817249" lon="11.4204079"><ele>355.0</ele><time>2026-04-02T11:35:54.91Z</time></trkpt><trkpt lat="43.0816259" lon="11.4203377"><ele>356.0</ele><time>2026-04-02T11:35:55.91Z</time></trkpt><trkpt lat="43.0815487" lon="11.4202558"><ele>357.0</ele><time>2026-04-02T11:35:56.91Z</time></trkpt><trkpt lat="43.0814771" lon="11.420162"><ele>358.0</ele><time>2026-04-02T11:35:57.91Z</time></trkpt><trkpt lat="43.0814031" lon="11.4200473"><ele>359.0</ele><time>2026-04-02T11:35:58.909Z</time></trkpt><trkpt lat="43.0813267" lon="11.4199209"><ele>360.75</ele><time>2026-04-02T11:35:59.91Z</time></trkpt><trkpt lat="43.0812547" lon="11.4197845"><ele>362.5</ele><time>2026-04-02T11:36:00.91Z</time></trkpt><trkpt lat="43.0811722" lon="11.4196586"><ele>364.25</ele><time>2026-04-02T11:36:01.91Z</time></trkpt><trkpt lat="43.0810613" lon="11.419549"><ele>366.0</ele><time>2026-04-02T11:36:02.91Z</time></trkpt><trkpt lat="43.0809401" lon="11.4194675"><ele>366.0</ele><time>2026-04-02T11:36:03.91Z</time></trkpt><trkpt lat="43.0808291" lon="11.4194218"><ele>366.0</ele><time>2026-04-02T11:36:04.91Z</time></trkpt><trkpt lat="43.0807169" lon="11.4193955"><ele>366.0</ele><time>2026-04-02T11:36:05.91Z</time></trkpt><trkpt lat="43.0806041" lon="11.4193698"><ele>366.0</ele><time>2026-04-02T11:36:06.91Z</time></trkpt><trkpt lat="43.0804949" lon="11.4193413"><ele>369.8</ele><time>2026-04-02T11:36:07.91Z</time></trkpt><trkpt lat="43.0803883" lon="11.4192994"><ele>373.6</ele><time>2026-04-02T11:36:08.91Z</time></trkpt><trkpt lat="43.0803046" lon="11.419237"><ele>377.4</ele><time>2026-04-02T11:36:09.91Z</time></trkpt><trkpt lat="43.0802379" lon="11.4191471"><ele>381.2</ele><time>2026-04-02T11:36:10.91Z</time></trkpt><trkpt lat="43.0801846" lon="11.4190379"><ele>385.0</ele><time>2026-04-02T11:36:11.91Z</time></trkpt><trkpt lat="43.0801312" lon="11.4189196"><ele>385.0</ele><time>2026-04-02T11:36:12.91Z</time></trkpt><trkpt lat="43.0800786" lon="11.4188234"><ele>385.0</ele><time>2026-04-02T11:36:13.91Z</time></trkpt><trkpt lat="43.0800038" lon="11.4187321"><ele>385.0</ele><time>2026-04-02T11:36:14.91Z</time></trkpt><trkpt lat="43.0799174" lon="11.4186488"><ele>385.0</ele><time>2026-04-02T11:36:15.91Z</time></trkpt><trkpt lat="43.0798301" lon="11.4185936"><ele>385.0</ele><time>2026-04-02T11:36:16.91Z</time></trkpt><trkpt lat="43.0797404" lon="11.4185539"><ele>387.4</ele><time>2026-04-02T11:36:17.91Z</time></trkpt><trkpt lat="43.0796392" lon="11.4185125"><ele>389.8</ele><time>2026-04-02T11:36:18.91Z</time></trkpt><trkpt lat="43.0795376" lon="11.4184639"><ele>392.20000000000005</ele><time>2026-04-02T11:36:19.91Z</time></trkpt><trkpt lat="43.0794329" lon="11.4184134"><ele>394.6</ele><time>2026-04-02T11:36:20.91Z</time></trkpt><trkpt lat="43.0793374" lon="11.4183675"><ele>397.0</ele><time>2026-04-02T11:36:21.91Z</time></trkpt><trkpt lat="43.0792453" lon="11.4183043"><ele>397.0</ele><time>2026-04-02T11:36:22.91Z</time></trkpt><trkpt lat="43.0791565" lon="11.4182142"><ele>397.0</ele><time>2026-04-02T11:36:23.91Z</time></trkpt><trkpt lat="43.0790741" lon="11.4181249"><ele>397.0</ele><time>2026-04-02T11:36:24.91Z</time></trkpt><trkpt lat="43.0789887" lon="11.4180524"><ele>397.0</ele><time>2026-04-02T11:36:25.91Z</time></trkpt><trkpt lat="43.0788874" lon="11.4180025"><ele>397.0</ele><time>2026-04-02T11:36:26.91Z</time></trkpt><trkpt lat="43.0787694" lon="11.4179654"><ele>396.5</ele><time>2026-04-02T11:36:27.91Z</time></trkpt><trkpt lat="43.0786394" lon="11.417938"><ele>396.0</ele><time>2026-04-02T11:36:28.91Z</time></trkpt><trkpt lat="43.0784925" lon="11.4179316"><ele>395.5</ele><time>2026-04-02T11:36:29.91Z</time></trkpt><trkpt lat="43.0783431" lon="11.4179263"><ele>395.0</ele><time>2026-04-02T11:36:30.91Z</time></trkpt><trkpt lat="43.0781938" lon="11.4179082"><ele>398.5</ele><time>2026-04-02T11:36:31.91Z</time></trkpt><trkpt lat="43.0780502" lon="11.4178935"><ele>402.0</ele><time>2026-04-02T11:36:32.91Z</time></trkpt><trkpt lat="43.0779183" lon="11.4178927"><ele>405.5</ele><time>2026-04-02T11:36:33.91Z</time></trkpt><trkpt lat="43.0777888" lon="11.4179009"><ele>409.0</ele><time>2026-04-02T11:36:34.91Z</time></trkpt><trkpt lat="43.0776709" lon="11.4179036"><ele>409.0</ele><time>2026-04-02T11:36:35.91Z</time></trkpt><trkpt lat="43.0775663" lon="11.4178846"><ele>409.0</ele><time>2026-04-02T11:36:36.91Z</time></trkpt><trkpt lat="43.0774601" lon="11.4178457"><ele>409.0</ele><time>2026-04-02T11:36:37.91Z</time></trkpt><trkpt lat="43.0773533" lon="11.417789"><ele>409.0</ele><time>2026-04-02T11:36:38.91Z</time></trkpt><trkpt lat="43.0772447" lon="11.4177199"><ele>413.5</ele><time>2026-04-02T11:36:39.91Z</time></trkpt><trkpt lat="43.077141" lon="11.417643"><ele>418.0</ele><time>2026-04-02T11:36:40.91Z</time></trkpt><trkpt lat="43.0770471" lon="11.4175684"><ele>422.5</ele><time>2026-04-02T11:36:41.91Z</time></trkpt><trkpt lat="43.0769628" lon="11.4174657"><ele>427.0</ele><time>2026-04-02T11:36:42.909Z</time></trkpt><trkpt lat="43.0768931" lon="11.417339"><ele>427.00000000000006</ele><time>2026-04-02T11:36:43.91Z</time></trkpt><trkpt lat="43.0768468" lon="11.4171949"><ele>427.0</ele><time>2026-04-02T11:36:44.91Z</time></trkpt><trkpt lat="43.0767975" lon="11.4170775"><ele>427.0</ele><time>2026-04-02T11:36:45.91Z</time></trkpt><trkpt lat="43.0767446" lon="11.4169916"><ele>427.0</ele><time>2026-04-02T11:36:46.91Z</time></trkpt><trkpt lat="43.0766829" lon="11.4169238"><ele>427.00000000000006</ele><time>2026-04-02T11:36:47.909Z</time></trkpt><trkpt lat="43.0766224" lon="11.4168798"><ele>427.0</ele><time>2026-04-02T11:36:48.91Z</time></trkpt><trkpt lat="43.0765456" lon="11.4168405"><ele>427.6</ele><time>2026-04-02T11:36:49.91Z</time></trkpt><trkpt lat="43.0764611" lon="11.4168171"><ele>428.20000000000005</ele><time>2026-04-02T11:36:50.91Z</time></trkpt><trkpt lat="43.0763688" lon="11.4167906"><ele>428.8</ele><time>2026-04-02T11:36:51.91Z</time></trkpt><trkpt lat="43.0762706" lon="11.4167641"><ele>429.4</ele><time>2026-04-02T11:36:52.91Z</time></trkpt><trkpt lat="43.0761648" lon="11.41673"><ele>430.0</ele><time>2026-04-02T11:36:53.91Z</time></trkpt><trkpt lat="43.0760596" lon="11.4166688"><ele>430.0</ele><time>2026-04-02T11:36:54.91Z</time></trkpt><trkpt lat="43.07596" lon="11.4165944"><ele>430.0</ele><time>2026-04-02T11:36:55.91Z</time></trkpt><trkpt lat="43.0758475" lon="11.4165137"><ele>430.0</ele><time>2026-04-02T11:36:56.909Z</time></trkpt><trkpt lat="43.0757405" lon="11.4164262"><ele>430.0</ele><time>2026-04-02T11:36:57.91Z</time></trkpt><trkpt lat="43.0756143" lon="11.4163249"><ele>431.25</ele><time>2026-04-02T11:36:58.91Z</time></trkpt><trkpt lat="43.0754853" lon="11.4162289"><ele>432.5</ele><time>2026-04-02T11:36:59.91Z</time></trkpt><trkpt lat="43.0753606" lon="11.4161384"><ele>433.75</ele><time>2026-04-02T11:37:00.91Z</time></trkpt><trkpt lat="43.075238" lon="11.4160519"><ele>435.0</ele><time>2026-04-02T11:37:01.91Z</time></trkpt><trkpt lat="43.0751213" lon="11.41597"><ele>435.0</ele><time>2026-04-02T11:37:02.91Z</time></trkpt><trkpt lat="43.0750006" lon="11.4158981"><ele>435.0</ele><time>2026-04-02T11:37:03.91Z</time></trkpt><trkpt lat="43.0748689" lon="11.4158408"><ele>435.0</ele><time>2026-04-02T11:37:04.91Z</time></trkpt><trkpt lat="43.0747479" lon="11.4158003"><ele>435.0</ele><time>2026-04-02T11:37:05.909Z</time></trkpt><trkpt lat="43.074642" lon="11.4157706"><ele>436.0</ele><time>2026-04-02T11:37:06.91Z</time></trkpt><trkpt lat="43.0745474" lon="11.415735"><ele>437.0</ele><time>2026-04-02T11:37:07.91Z</time></trkpt><trkpt lat="43.0744666" lon="11.4156903"><ele>438.0</ele><time>2026-04-02T11:37:08.91Z</time></trkpt><trkpt lat="43.0744063" lon="11.4156186"><ele>439.0</ele><time>2026-04-02T11:37:09.909Z</time></trkpt><trkpt lat="43.074351" lon="11.4154718"><ele>440.0</ele><time>2026-04-02T11:37:11.91Z</time></trkpt><trkpt lat="43.0743418" lon="11.4153699"><ele>442.0</ele><time>2026-04-02T11:37:12.91Z</time></trkpt><trkpt lat="43.0743366" lon="11.4152462"><ele>444.0</ele><time>2026-04-02T11:37:13.909Z</time></trkpt><trkpt lat="43.0743319" lon="11.4151036"><ele>446.0</ele><time>2026-04-02T11:37:14.91Z</time></trkpt><trkpt lat="43.0743122" lon="11.4149549"><ele>448.0</ele><time>2026-04-02T11:37:15.91Z</time></trkpt><trkpt lat="43.0742844" lon="11.4148085"><ele>450.0</ele><time>2026-04-02T11:37:16.91Z</time></trkpt><trkpt lat="43.074256" lon="11.414692"><ele>451.1666666666667</ele><time>2026-04-02T11:37:17.91Z</time></trkpt><trkpt lat="43.074217" lon="11.4145877"><ele>452.33333333333337</ele><time>2026-04-02T11:37:18.91Z</time></trkpt><trkpt lat="43.074168" lon="11.4144972"><ele>453.5</ele><time>2026-04-02T11:37:19.91Z</time></trkpt><trkpt lat="43.0741026" lon="11.414431"><ele>454.6666666666667</ele><time>2026-04-02T11:37:20.91Z</time></trkpt><trkpt lat="43.0740214" lon="11.4143833"><ele>455.83333333333337</ele><time>2026-04-02T11:37:21.91Z</time></trkpt><trkpt lat="43.0739345" lon="11.4143583"><ele>457.0</ele><time>2026-04-02T11:37:22.91Z</time></trkpt><trkpt lat="43.0738313" lon="11.4143482"><ele>459.75</ele><time>2026-04-02T11:37:23.91Z</time></trkpt><trkpt lat="43.0737178" lon="11.4143442"><ele>462.5</ele><time>2026-04-02T11:37:24.91Z</time></trkpt><trkpt lat="43.0736014" lon="11.4143353"><ele>465.25</ele><time>2026-04-02T11:37:25.91Z</time></trkpt><trkpt lat="43.07348" lon="11.4143107"><ele>468.0</ele><time>2026-04-02T11:37:26.91Z</time></trkpt><trkpt lat="43.0733526" lon="11.4142814"><ele>470.25</ele><time>2026-04-02T11:37:27.91Z</time></trkpt><trkpt lat="43.0732188" lon="11.4142576"><ele>472.5</ele><time>2026-04-02T11:37:28.909Z</time></trkpt><trkpt lat="43.0730932" lon="11.4142513"><ele>474.75</ele><time>2026-04-02T11:37:29.91Z</time></trkpt><trkpt lat="43.072964" lon="11.4142528"><ele>477.0</ele><time>2026-04-02T11:37:30.91Z</time></trkpt><trkpt lat="43.0728369" lon="11.4142584"><ele>477.0</ele><time>2026-04-02T11:37:31.91Z</time></trkpt><trkpt lat="43.0727073" lon="11.4142468"><ele>477.0</ele><time>2026-04-02T11:37:32.91Z</time></trkpt><trkpt lat="43.0725799" lon="11.4142117"><ele>477.0</ele><time>2026-04-02T11:37:33.91Z</time></trkpt><trkpt lat="43.0724701" lon="11.4141606"><ele>477.0</ele><time>2026-04-02T11:37:34.91Z</time></trkpt><trkpt lat="43.0723661" lon="11.4141022"><ele>476.6</ele><time>2026-04-02T11:37:35.91Z</time></trkpt><trkpt lat="43.0722803" lon="11.414048"><ele>476.20000000000005</ele><time>2026-04-02T11:37:36.91Z</time></trkpt><trkpt lat="43.0722028" lon="11.4139897"><ele>475.8</ele><time>2026-04-02T11:37:37.909Z</time></trkpt><trkpt lat="43.0721223" lon="11.4139488"><ele>475.4</ele><time>2026-04-02T11:37:38.91Z</time></trkpt><trkpt lat="43.0720363" lon="11.4139058"><ele>475.0</ele><time>2026-04-02T11:37:39.91Z</time></trkpt><trkpt lat="43.0719494" lon="11.4138683"><ele>475.00000000000006</ele><time>2026-04-02T11:37:40.91Z</time></trkpt><trkpt lat="43.0718662" lon="11.4138304"><ele>475.0</ele><time>2026-04-02T11:37:41.91Z</time></trkpt><trkpt lat="43.0717873" lon="11.4137846"><ele>475.0</ele><time>2026-04-02T11:37:42.909Z</time></trkpt><trkpt lat="43.0717129" lon="11.4137295"><ele>475.0</ele><time>2026-04-02T11:37:43.909Z</time></trkpt><trkpt lat="43.0716424" lon="11.4136781"><ele>475.00000000000006</ele><time>2026-04-02T11:37:44.91Z</time></trkpt><trkpt lat="43.0715747" lon="11.4136288"><ele>475.0</ele><time>2026-04-02T11:37:45.91Z</time></trkpt><trkpt lat="43.0715076" lon="11.4135898"><ele>477.2</ele><time>2026-04-02T11:37:46.909Z</time></trkpt><trkpt lat="43.0714291" lon="11.4135546"><ele>479.4</ele><time>2026-04-02T11:37:47.91Z</time></trkpt><trkpt lat="43.0713426" lon="11.4135432"><ele>481.6</ele><time>2026-04-02T11:37:48.909Z</time></trkpt><trkpt lat="43.0712501" lon="11.4135629"><ele>483.8</ele><time>2026-04-02T11:37:49.91Z</time></trkpt><trkpt lat="43.071152" lon="11.4135785"><ele>486.0</ele><time>2026-04-02T11:37:50.91Z</time></trkpt><trkpt lat="43.0710579" lon="11.4135673"><ele>486.0</ele><time>2026-04-02T11:37:51.91Z</time></trkpt><trkpt lat="43.0709656" lon="11.41353"><ele>486.0</ele><time>2026-04-02T11:37:52.91Z</time></trkpt><trkpt lat="43.0708766" lon="11.4134665"><ele>486.0</ele><time>2026-04-02T11:37:53.91Z</time></trkpt><trkpt lat="43.0707843" lon="11.4133847"><ele>486.0</ele><time>2026-04-02T11:37:54.91Z</time></trkpt><trkpt lat="43.070703" lon="11.4132978"><ele>486.0</ele><time>2026-04-02T11:37:55.91Z</time></trkpt><trkpt lat="43.0706321" lon="11.4132092"><ele>487.5</ele><time>2026-04-02T11:37:56.909Z</time></trkpt><trkpt lat="43.0705698" lon="11.4131207"><ele>489.0</ele><time>2026-04-02T11:37:57.91Z</time></trkpt><trkpt lat="43.0705087" lon="11.4130363"><ele>490.5</ele><time>2026-04-02T11:37:58.91Z</time></trkpt><trkpt lat="43.0704534" lon="11.4129687"><ele>492.0</ele><time>2026-04-02T11:37:59.91Z</time></trkpt><trkpt lat="43.0703935" lon="11.4129317"><ele>493.5</ele><time>2026-04-02T11:38:00.91Z</time></trkpt><trkpt lat="43.0703241" lon="11.4129123"><ele>495.0</ele><time>2026-04-02T11:38:01.91Z</time></trkpt><trkpt lat="43.0702556" lon="11.412921"><ele>495.0</ele><time>2026-04-02T11:38:02.91Z</time></trkpt><trkpt lat="43.0701914" lon="11.4129693"><ele>495.0</ele><time>2026-04-02T11:38:03.91Z</time></trkpt><trkpt lat="43.0701413" lon="11.4130453"><ele>495.0</ele><time>2026-04-02T11:38:04.909Z</time></trkpt><trkpt lat="43.0700909" lon="11.4131578"><ele>495.0</ele><time>2026-04-02T11:38:05.909Z</time></trkpt><trkpt lat="43.0700485" lon="11.4132841"><ele>495.0</ele><time>2026-04-02T11:38:06.91Z</time></trkpt><trkpt lat="43.0700146" lon="11.4134222"><ele>495.0</ele><time>2026-04-02T11:38:07.91Z</time></trkpt><trkpt lat="43.0699971" lon="11.4135776"><ele>495.0</ele><time>2026-04-02T11:38:08.91Z</time></trkpt><trkpt lat="43.0699963" lon="11.4137357"><ele>495.0</ele><time>2026-04-02T11:38:09.91Z</time></trkpt><trkpt lat="43.0700044" lon="11.4139024"><ele>495.0</ele><time>2026-04-02T11:38:10.91Z</time></trkpt><trkpt lat="43.070015" lon="11.4140729"><ele>494.75</ele><time>2026-04-02T11:38:11.91Z</time></trkpt><trkpt lat="43.0700146" lon="11.4142411"><ele>494.5</ele><time>2026-04-02T11:38:12.91Z</time></trkpt><trkpt lat="43.069994" lon="11.4144015"><ele>494.25</ele><time>2026-04-02T11:38:13.91Z</time></trkpt><trkpt lat="43.0699604" lon="11.4145638"><ele>494.0</ele><time>2026-04-02T11:38:14.91Z</time></trkpt><trkpt lat="43.0699073" lon="11.4147081"><ele>495.25</ele><time>2026-04-02T11:38:15.91Z</time></trkpt><trkpt lat="43.0698369" lon="11.4148354"><ele>496.5</ele><time>2026-04-02T11:38:16.91Z</time></trkpt><trkpt lat="43.0697443" lon="11.4149432"><ele>497.75</ele><time>2026-04-02T11:38:17.909Z</time></trkpt><trkpt lat="43.0696344" lon="11.4150366"><ele>499.0</ele><time>2026-04-02T11:38:18.909Z</time></trkpt><trkpt lat="43.0695185" lon="11.4151288"><ele>499.0</ele><time>2026-04-02T11:38:19.909Z</time></trkpt><trkpt lat="43.069405" lon="11.4152283"><ele>499.0</ele><time>2026-04-02T11:38:20.91Z</time></trkpt><trkpt lat="43.0693067" lon="11.415325"><ele>499.0</ele><time>2026-04-02T11:38:21.91Z</time></trkpt><trkpt lat="43.0692116" lon="11.4154108"><ele>499.0</ele><time>2026-04-02T11:38:22.91Z</time></trkpt><trkpt lat="43.0691067" lon="11.4154712"><ele>496.25</ele><time>2026-04-02T11:38:23.91Z</time></trkpt><trkpt lat="43.0689909" lon="11.4155103"><ele>493.5</ele><time>2026-04-02T11:38:24.91Z</time></trkpt><trkpt lat="43.0688839" lon="11.4155451"><ele>490.75</ele><time>2026-04-02T11:38:25.909Z</time></trkpt><trkpt lat="43.0687803" lon="11.4155823"><ele>488.0</ele><time>2026-04-02T11:38:26.91Z</time></trkpt><trkpt lat="43.0686723" lon="11.415637"><ele>488.0</ele><time>2026-04-02T11:38:27.91Z</time></trkpt><trkpt lat="43.0685605" lon="11.4157194"><ele>488.0</ele><time>2026-04-02T11:38:28.91Z</time></trkpt><trkpt lat="43.0684487" lon="11.4158298"><ele>488.0</ele><time>2026-04-02T11:38:29.91Z</time></trkpt><trkpt lat="43.068352" lon="11.4159477"><ele>488.0</ele><time>2026-04-02T11:38:30.91Z</time></trkpt><trkpt lat="43.0682454" lon="11.4160633"><ele>487.75</ele><time>2026-04-02T11:38:31.91Z</time></trkpt><trkpt lat="43.0681286" lon="11.4161752"><ele>487.5</ele><time>2026-04-02T11:38:32.91Z</time></trkpt><trkpt lat="43.0680158" lon="11.4162636"><ele>487.25</ele><time>2026-04-02T11:38:33.91Z</time></trkpt><trkpt lat="43.0679222" lon="11.4163414"><ele>487.0</ele><time>2026-04-02T11:38:34.91Z</time></trkpt><trkpt lat="43.0678388" lon="11.4164229"><ele>489.0</ele><time>2026-04-02T11:38:35.91Z</time></trkpt><trkpt lat="43.0677667" lon="11.4165284"><ele>491.00000000000006</ele><time>2026-04-02T11:38:36.91Z</time></trkpt><trkpt lat="43.0677141" lon="11.416662"><ele>493.00000000000006</ele><time>2026-04-02T11:38:37.91Z</time></trkpt><trkpt lat="43.0676773" lon="11.4168037"><ele>495.0</ele><time>2026-04-02T11:38:38.91Z</time></trkpt><trkpt lat="43.0676286" lon="11.4169392"><ele>497.0</ele><time>2026-04-02T11:38:39.91Z</time></trkpt><trkpt lat="43.067557" lon="11.4170794"><ele>496.25</ele><time>2026-04-02T11:38:40.91Z</time></trkpt><trkpt lat="43.0674729" lon="11.4172231"><ele>495.5</ele><time>2026-04-02T11:38:41.91Z</time></trkpt><trkpt lat="43.067387" lon="11.4173476"><ele>494.75</ele><time>2026-04-02T11:38:42.91Z</time></trkpt><trkpt lat="43.0672981" lon="11.4174569"><ele>494.0</ele><time>2026-04-02T11:38:43.91Z</time></trkpt><trkpt lat="43.0671906" lon="11.4175378"><ele>496.0</ele><time>2026-04-02T11:38:44.91Z</time></trkpt><trkpt lat="43.0670739" lon="11.4176025"><ele>498.0</ele><time>2026-04-02T11:38:45.91Z</time></trkpt><trkpt lat="43.0669731" lon="11.4176475"><ele>500.0</ele><time>2026-04-02T11:38:46.91Z</time></trkpt><trkpt lat="43.066883" lon="11.4177008"><ele>502.0</ele><time>2026-04-02T11:38:47.91Z</time></trkpt><trkpt lat="43.0667995" lon="11.4177849"><ele>504.0</ele><time>2026-04-02T11:38:48.91Z</time></trkpt><trkpt lat="43.0667317" lon="11.4178989"><ele>502.6</ele><time>2026-04-02T11:38:49.909Z</time></trkpt><trkpt lat="43.0666859" lon="11.4180236"><ele>501.2</ele><time>2026-04-02T11:38:50.91Z</time></trkpt><trkpt lat="43.0666427" lon="11.4181612"><ele>499.80000000000007</ele><time>2026-04-02T11:38:51.909Z</time></trkpt><trkpt lat="43.0666031" lon="11.4183147"><ele>498.40000000000003</ele><time>2026-04-02T11:38:52.91Z</time></trkpt><trkpt lat="43.0665764" lon="11.4184669"><ele>497.0</ele><time>2026-04-02T11:38:53.91Z</time></trkpt><trkpt lat="43.0665609" lon="11.4186194"><ele>494.75</ele><time>2026-04-02T11:38:54.91Z</time></trkpt><trkpt lat="43.0665506" lon="11.4187781"><ele>492.5</ele><time>2026-04-02T11:38:55.91Z</time></trkpt><trkpt lat="43.0665487" lon="11.4189513"><ele>490.25</ele><time>2026-04-02T11:38:56.91Z</time></trkpt><trkpt lat="43.0665541" lon="11.4191313"><ele>488.0</ele><time>2026-04-02T11:38:57.91Z</time></trkpt><trkpt lat="43.0665597" lon="11.4193146"><ele>487.25</ele><time>2026-04-02T11:38:58.91Z</time></trkpt><trkpt lat="43.0665649" lon="11.4194809"><ele>486.5</ele><time>2026-04-02T11:38:59.91Z</time></trkpt><trkpt lat="43.066565" lon="11.4196359"><ele>485.75</ele><time>2026-04-02T11:39:00.91Z</time></trkpt><trkpt lat="43.0665589" lon="11.4197956"><ele>485.0</ele><time>2026-04-02T11:39:01.91Z</time></trkpt><trkpt lat="43.0665286" lon="11.4199537"><ele>485.0</ele><time>2026-04-02T11:39:02.91Z</time></trkpt><trkpt lat="43.066467" lon="11.4201047"><ele>485.0</ele><time>2026-04-02T11:39:03.91Z</time></trkpt><trkpt lat="43.0663873" lon="11.4202685"><ele>485.0</ele><time>2026-04-02T11:39:04.91Z</time></trkpt><trkpt lat="43.0663068" lon="11.4204547"><ele>485.0</ele><time>2026-04-02T11:39:05.91Z</time></trkpt><trkpt lat="43.0662191" lon="11.4206447"><ele>487.3333333333333</ele><time>2026-04-02T11:39:06.91Z</time></trkpt><trkpt lat="43.0661253" lon="11.4208315"><ele>489.66666666666663</ele><time>2026-04-02T11:39:07.91Z</time></trkpt><trkpt lat="43.0660259" lon="11.4210125"><ele>492.0</ele><time>2026-04-02T11:39:08.91Z</time></trkpt><trkpt lat="43.0659286" lon="11.4211878"><ele>493.25</ele><time>2026-04-02T11:39:09.91Z</time></trkpt><trkpt lat="43.0658424" lon="11.4213545"><ele>494.5</ele><time>2026-04-02T11:39:10.91Z</time></trkpt><trkpt lat="43.0657688" lon="11.4215012"><ele>495.75</ele><time>2026-04-02T11:39:11.91Z</time></trkpt><trkpt lat="43.0656945" lon="11.4216393"><ele>497.0</ele><time>2026-04-02T11:39:12.91Z</time></trkpt><trkpt lat="43.0656021" lon="11.4217708"><ele>494.25</ele><time>2026-04-02T11:39:13.91Z</time></trkpt><trkpt lat="43.0654912" lon="11.4218857"><ele>491.5</ele><time>2026-04-02T11:39:14.91Z</time></trkpt><trkpt lat="43.0653827" lon="11.4219943"><ele>488.75</ele><time>2026-04-02T11:39:15.91Z</time></trkpt><trkpt lat="43.0652792" lon="11.4220836"><ele>486.0</ele><time>2026-04-02T11:39:16.91Z</time></trkpt><trkpt lat="43.065176" lon="11.4221436"><ele>486.0</ele><time>2026-04-02T11:39:17.91Z</time></trkpt><trkpt lat="43.0650471" lon="11.4221858"><ele>486.0</ele><time>2026-04-02T11:39:18.91Z</time></trkpt><trkpt lat="43.0649137" lon="11.4222074"><ele>486.0</ele><time>2026-04-02T11:39:19.91Z</time></trkpt><trkpt lat="43.0647938" lon="11.4222163"><ele>486.0</ele><time>2026-04-02T11:39:20.91Z</time></trkpt><trkpt lat="43.0646701" lon="11.4222119"><ele>486.0</ele><time>2026-04-02T11:39:21.91Z</time></trkpt><trkpt lat="43.0645411" lon="11.4221925"><ele>486.0</ele><time>2026-04-02T11:39:22.91Z</time></trkpt><trkpt lat="43.0644136" lon="11.4221467"><ele>486.0</ele><time>2026-04-02T11:39:23.91Z</time></trkpt><trkpt lat="43.0643067" lon="11.4220969"><ele>486.0</ele><time>2026-04-02T11:39:24.91Z</time></trkpt><trkpt lat="43.0642127" lon="11.4220462"><ele>484.6</ele><time>2026-04-02T11:39:25.91Z</time></trkpt><trkpt lat="43.0641305" lon="11.421995"><ele>483.20000000000005</ele><time>2026-04-02T11:39:26.91Z</time></trkpt><trkpt lat="43.0640507" lon="11.4219544"><ele>481.79999999999995</ele><time>2026-04-02T11:39:27.91Z</time></trkpt><trkpt lat="43.0639631" lon="11.4219368"><ele>480.4</ele><time>2026-04-02T11:39:28.91Z</time></trkpt><trkpt lat="43.0638589" lon="11.4219467"><ele>479.0</ele><time>2026-04-02T11:39:29.91Z</time></trkpt><trkpt lat="43.0637544" lon="11.4219642"><ele>477.6</ele><time>2026-04-02T11:39:30.91Z</time></trkpt><trkpt lat="43.0636667" lon="11.4219862"><ele>476.2</ele><time>2026-04-02T11:39:31.91Z</time></trkpt><trkpt lat="43.0635952" lon="11.4220166"><ele>474.80000000000007</ele><time>2026-04-02T11:39:32.91Z</time></trkpt><trkpt lat="43.0635086" lon="11.4220959"><ele>473.40000000000003</ele><time>2026-04-02T11:39:34.91Z</time></trkpt><trkpt lat="43.0634807" lon="11.4222185"><ele>472.0</ele><time>2026-04-02T11:39:36.91Z</time></trkpt><trkpt lat="43.0635005" lon="11.4223828"><ele>472.00000000000006</ele><time>2026-04-02T11:39:38.909Z</time></trkpt><trkpt lat="43.0635249" lon="11.4224766"><ele>472.0</ele><time>2026-04-02T11:39:39.91Z</time></trkpt><trkpt lat="43.063545" lon="11.4225606"><ele>472.0</ele><time>2026-04-02T11:39:40.91Z</time></trkpt><trkpt lat="43.0635561" lon="11.4226471"><ele>472.0</ele><time>2026-04-02T11:39:41.91Z</time></trkpt><trkpt lat="43.063558" lon="11.4227333"><ele>472.00000000000006</ele><time>2026-04-02T11:39:42.909Z</time></trkpt><trkpt lat="43.0635338" lon="11.4228871"><ele>472.0</ele><time>2026-04-02T11:39:44.91Z</time></trkpt><trkpt lat="43.063481" lon="11.423019"><ele>471.40000000000003</ele><time>2026-04-02T11:39:46.91Z</time></trkpt><trkpt lat="43.063422" lon="11.4231374"><ele>470.80000000000007</ele><time>2026-04-02T11:39:48.91Z</time></trkpt><trkpt lat="43.0633746" lon="11.423256"><ele>470.2</ele><time>2026-04-02T11:39:50.91Z</time></trkpt><trkpt lat="43.0633378" lon="11.4233731"><ele>469.6</ele><time>2026-04-02T11:39:52.91Z</time></trkpt><trkpt lat="43.0633215" lon="11.4234566"><ele>469.0</ele><time>2026-04-02T11:40:04.91Z</time></trkpt><trkpt lat="43.0633412" lon="11.4236085"><ele>469.00000000000006</ele><time>2026-04-02T11:40:07.91Z</time></trkpt><trkpt lat="43.0633667" lon="11.4237384"><ele>469.0</ele><time>2026-04-02T11:40:09.91Z</time></trkpt><trkpt lat="43.0633996" lon="11.4238545"><ele>469.0</ele><time>2026-04-02T11:40:11.909Z</time></trkpt><trkpt lat="43.0634183" lon="11.4239886"><ele>469.0</ele><time>2026-04-02T11:40:13.91Z</time></trkpt><trkpt lat="43.06341" lon="11.4240751"><ele>469.00000000000006</ele><time>2026-04-02T11:40:14.909Z</time></trkpt><trkpt lat="43.063384" lon="11.4241745"><ele>469.0</ele><time>2026-04-02T11:40:15.91Z</time></trkpt><trkpt lat="43.0633472" lon="11.4242887"><ele>468.2</ele><time>2026-04-02T11:40:16.91Z</time></trkpt><trkpt lat="43.0633118" lon="11.4244221"><ele>467.4</ele><time>2026-04-02T11:40:17.91Z</time></trkpt><trkpt lat="43.0632848" lon="11.4245451"><ele>466.6</ele><time>2026-04-02T11:40:18.91Z</time></trkpt><trkpt lat="43.0632664" lon="11.4246625"><ele>465.8</ele><time>2026-04-02T11:40:19.91Z</time></trkpt><trkpt lat="43.0632483" lon="11.4247768"><ele>465.0</ele><time>2026-04-02T11:40:20.91Z</time></trkpt><trkpt lat="43.0632222" lon="11.4248917"><ele>465.2</ele><time>2026-04-02T11:40:21.91Z</time></trkpt><trkpt lat="43.0631825" lon="11.4250185"><ele>465.4</ele><time>2026-04-02T11:40:22.91Z</time></trkpt><trkpt lat="43.063129" lon="11.4251471"><ele>465.6</ele><time>2026-04-02T11:40:23.909Z</time></trkpt><trkpt lat="43.0630577" lon="11.4252787"><ele>465.8</ele><time>2026-04-02T11:40:24.91Z</time></trkpt><trkpt lat="43.0629822" lon="11.4254057"><ele>466.0</ele><time>2026-04-02T11:40:25.909Z</time></trkpt><trkpt lat="43.0629198" lon="11.4255282"><ele>466.0</ele><time>2026-04-02T11:40:26.91Z</time></trkpt><trkpt lat="43.0628671" lon="11.4256684"><ele>466.0</ele><time>2026-04-02T11:40:27.91Z</time></trkpt><trkpt lat="43.0628351" lon="11.4258184"><ele>466.0</ele><time>2026-04-02T11:40:28.909Z</time></trkpt><trkpt lat="43.0628237" lon="11.4259657"><ele>466.0</ele><time>2026-04-02T11:40:29.91Z</time></trkpt><trkpt lat="43.062819" lon="11.4261121"><ele>466.0</ele><time>2026-04-02T11:40:30.91Z</time></trkpt><trkpt lat="43.0628232" lon="11.4262791"><ele>466.8</ele><time>2026-04-02T11:40:31.91Z</time></trkpt><trkpt lat="43.0628422" lon="11.4264461"><ele>467.6</ele><time>2026-04-02T11:40:32.91Z</time></trkpt><trkpt lat="43.0628636" lon="11.426605"><ele>468.4</ele><time>2026-04-02T11:40:33.91Z</time></trkpt><trkpt lat="43.0628814" lon="11.4267398"><ele>469.2</ele><time>2026-04-02T11:40:34.91Z</time></trkpt><trkpt lat="43.0628919" lon="11.4268634"><ele>470.0</ele><time>2026-04-02T11:40:35.91Z</time></trkpt><trkpt lat="43.0628838" lon="11.4269851"><ele>470.0</ele><time>2026-04-02T11:40:36.91Z</time></trkpt><trkpt lat="43.0628552" lon="11.427099"><ele>470.0</ele><time>2026-04-02T11:40:37.91Z</time></trkpt><trkpt lat="43.062804" lon="11.4272088"><ele>470.0</ele><time>2026-04-02T11:40:38.91Z</time></trkpt><trkpt lat="43.0627353" lon="11.427298"><ele>470.0</ele><time>2026-04-02T11:40:39.91Z</time></trkpt><trkpt lat="43.0626461" lon="11.4273728"><ele>470.0</ele><time>2026-04-02T11:40:40.91Z</time></trkpt><trkpt lat="43.0625556" lon="11.4274221"><ele>470.0</ele><time>2026-04-02T11:40:41.909Z</time></trkpt><trkpt lat="43.0624447" lon="11.4274755"><ele>470.0</ele><time>2026-04-02T11:40:42.91Z</time></trkpt><trkpt lat="43.0623297" lon="11.4275268"><ele>470.0</ele><time>2026-04-02T11:40:43.91Z</time></trkpt><trkpt lat="43.0622197" lon="11.4275685"><ele>470.0</ele><time>2026-04-02T11:40:44.91Z</time></trkpt><trkpt lat="43.0621113" lon="11.4275975"><ele>470.0</ele><time>2026-04-02T11:40:45.91Z</time></trkpt><trkpt lat="43.0620125" lon="11.4276002"><ele>470.0</ele><time>2026-04-02T11:40:46.91Z</time></trkpt><trkpt lat="43.0619042" lon="11.427582"><ele>470.0</ele><time>2026-04-02T11:40:47.91Z</time></trkpt><trkpt lat="43.0617935" lon="11.4275346"><ele>470.0</ele><time>2026-04-02T11:40:48.91Z</time></trkpt><trkpt lat="43.0616994" lon="11.4274742"><ele>470.0</ele><time>2026-04-02T11:40:49.91Z</time></trkpt><trkpt lat="43.061605" lon="11.4274116"><ele>470.25</ele><time>2026-04-02T11:40:50.91Z</time></trkpt><trkpt lat="43.061506" lon="11.427375"><ele>470.5</ele><time>2026-04-02T11:40:51.91Z</time></trkpt><trkpt lat="43.0613999" lon="11.4273628"><ele>470.75</ele><time>2026-04-02T11:40:52.91Z</time></trkpt><trkpt lat="43.0612782" lon="11.4273791"><ele>471.0</ele><time>2026-04-02T11:40:53.91Z</time></trkpt><trkpt lat="43.0611472" lon="11.4274161"><ele>471.0</ele><time>2026-04-02T11:40:54.91Z</time></trkpt><trkpt lat="43.0610369" lon="11.4274528"><ele>471.0</ele><time>2026-04-02T11:40:55.91Z</time></trkpt><trkpt lat="43.0609424" lon="11.4274728"><ele>471.0</ele><time>2026-04-02T11:40:56.91Z</time></trkpt><trkpt lat="43.0608491" lon="11.4274621"><ele>471.0</ele><time>2026-04-02T11:40:57.91Z</time></trkpt><trkpt lat="43.0607508" lon="11.427412"><ele>471.0</ele><time>2026-04-02T11:40:58.91Z</time></trkpt><trkpt lat="43.0606498" lon="11.4273444"><ele>472.3333333333333</ele><time>2026-04-02T11:40:59.91Z</time></trkpt><trkpt lat="43.0605694" lon="11.4272838"><ele>473.66666666666663</ele><time>2026-04-02T11:41:00.909Z</time></trkpt><trkpt lat="43.0604989" lon="11.4272476"><ele>475.0</ele><time>2026-04-02T11:41:01.91Z</time></trkpt><trkpt lat="43.0604347" lon="11.4272365"><ele>476.3333333333333</ele><time>2026-04-02T11:41:02.909Z</time></trkpt><trkpt lat="43.0603706" lon="11.4272575"><ele>477.66666666666663</ele><time>2026-04-02T11:41:03.91Z</time></trkpt><trkpt lat="43.0602757" lon="11.4273737"><ele>479.0</ele><time>2026-04-02T11:41:05.91Z</time></trkpt><trkpt lat="43.0602869" lon="11.4275"><ele>478.99999999999994</ele><time>2026-04-02T11:41:06.91Z</time></trkpt><trkpt lat="43.0602644" lon="11.4275969"><ele>479.0</ele><time>2026-04-02T11:41:07.91Z</time></trkpt><trkpt lat="43.0602142" lon="11.4276784"><ele>479.0</ele><time>2026-04-02T11:41:08.91Z</time></trkpt><trkpt lat="43.0601422" lon="11.4277524"><ele>479.0</ele><time>2026-04-02T11:41:09.91Z</time></trkpt><trkpt lat="43.0600592" lon="11.4278142"><ele>478.99999999999994</ele><time>2026-04-02T11:41:10.91Z</time></trkpt><trkpt lat="43.0599882" lon="11.4278591"><ele>479.0</ele><time>2026-04-02T11:41:11.91Z</time></trkpt><trkpt lat="43.0599057" lon="11.4278772"><ele>480.0</ele><time>2026-04-02T11:41:12.91Z</time></trkpt><trkpt lat="43.0598229" lon="11.4278653"><ele>481.0</ele><time>2026-04-02T11:41:13.91Z</time></trkpt><trkpt lat="43.0597572" lon="11.427832"><ele>482.0</ele><time>2026-04-02T11:41:14.91Z</time></trkpt><trkpt lat="43.0596902" lon="11.4277506"><ele>483.0</ele><time>2026-04-02T11:41:15.91Z</time></trkpt><trkpt lat="43.0596138" lon="11.4276411"><ele>484.0</ele><time>2026-04-02T11:41:16.91Z</time></trkpt><trkpt lat="43.0595419" lon="11.4275276"><ele>484.00000000000006</ele><time>2026-04-02T11:41:17.91Z</time></trkpt><trkpt lat="43.0594751" lon="11.4274282"><ele>484.0</ele><time>2026-04-02T11:41:18.91Z</time></trkpt><trkpt lat="43.0594046" lon="11.4273468"><ele>484.0</ele><time>2026-04-02T11:41:19.91Z</time></trkpt><trkpt lat="43.0593311" lon="11.4272932"><ele>484.0</ele><time>2026-04-02T11:41:20.91Z</time></trkpt><trkpt lat="43.0592465" lon="11.4272683"><ele>484.00000000000006</ele><time>2026-04-02T11:41:21.91Z</time></trkpt><trkpt lat="43.0591601" lon="11.4272761"><ele>484.0</ele><time>2026-04-02T11:41:22.91Z</time></trkpt><trkpt lat="43.0590872" lon="11.4273202"><ele>484.0</ele><time>2026-04-02T11:41:23.91Z</time></trkpt><trkpt lat="43.0590269" lon="11.4274748"><ele>484.0</ele><time>2026-04-02T11:41:25.91Z</time></trkpt><trkpt lat="43.0590348" lon="11.4275671"><ele>484.0</ele><time>2026-04-02T11:41:26.91Z</time></trkpt><trkpt lat="43.0590482" lon="11.4276713"><ele>484.0</ele><time>2026-04-02T11:41:27.91Z</time></trkpt><trkpt lat="43.0590737" lon="11.4277743"><ele>484.0</ele><time>2026-04-02T11:41:28.91Z</time></trkpt><trkpt lat="43.0591296" lon="11.4279078"><ele>483.1666666666667</ele><time>2026-04-02T11:41:29.91Z</time></trkpt><trkpt lat="43.059161" lon="11.4280362"><ele>482.33333333333337</ele><time>2026-04-02T11:41:30.91Z</time></trkpt><trkpt lat="43.0591775" lon="11.4281412"><ele>481.5</ele><time>2026-04-02T11:41:31.91Z</time></trkpt><trkpt lat="43.0591534" lon="11.4282933"><ele>480.66666666666663</ele><time>2026-04-02T11:41:33.91Z</time></trkpt><trkpt lat="43.0591025" lon="11.4283499"><ele>479.8333333333333</ele><time>2026-04-02T11:41:34.91Z</time></trkpt><trkpt lat="43.0590285" lon="11.4283894"><ele>479.0</ele><time>2026-04-02T11:41:35.91Z</time></trkpt><trkpt lat="43.0589389" lon="11.4284202"><ele>480.75</ele><time>2026-04-02T11:41:36.91Z</time></trkpt><trkpt lat="43.0588492" lon="11.4284815"><ele>482.5</ele><time>2026-04-02T11:41:37.91Z</time></trkpt><trkpt lat="43.0587584" lon="11.42858"><ele>484.25</ele><time>2026-04-02T11:41:38.91Z</time></trkpt><trkpt lat="43.0586704" lon="11.428705"><ele>486.0</ele><time>2026-04-02T11:41:39.91Z</time></trkpt><trkpt lat="43.0585991" lon="11.42886"><ele>486.0</ele><time>2026-04-02T11:41:40.91Z</time></trkpt><trkpt lat="43.058532" lon="11.4290312"><ele>486.0</ele><time>2026-04-02T11:41:41.91Z</time></trkpt><trkpt lat="43.0584726" lon="11.429194"><ele>486.0</ele><time>2026-04-02T11:41:42.91Z</time></trkpt><trkpt lat="43.0584183" lon="11.4293808"><ele>486.0</ele><time>2026-04-02T11:41:43.91Z</time></trkpt><trkpt lat="43.0583768" lon="11.4295597"><ele>486.0</ele><time>2026-04-02T11:41:44.91Z</time></trkpt><trkpt lat="43.0583401" lon="11.4297213"><ele>486.0</ele><time>2026-04-02T11:41:45.91Z</time></trkpt><trkpt lat="43.0583112" lon="11.4298694"><ele>486.0</ele><time>2026-04-02T11:41:46.91Z</time></trkpt><trkpt lat="43.0582878" lon="11.4299986"><ele>486.0</ele><time>2026-04-02T11:41:47.909Z</time></trkpt><trkpt lat="43.0582739" lon="11.4300921"><ele>486.0</ele><time>2026-04-02T11:41:48.909Z</time></trkpt><trkpt lat="43.0582629" lon="11.4302159"><ele>485.8333333333333</ele><time>2026-04-02T11:41:50.91Z</time></trkpt><trkpt lat="43.0582732" lon="11.4303227"><ele>485.66666666666663</ele><time>2026-04-02T11:41:52.91Z</time></trkpt><trkpt lat="43.0582934" lon="11.4304779"><ele>485.5</ele><time>2026-04-02T11:41:54.91Z</time></trkpt><trkpt lat="43.0582956" lon="11.4305762"><ele>485.3333333333333</ele><time>2026-04-02T11:41:55.91Z</time></trkpt><trkpt lat="43.0582872" lon="11.4306828"><ele>485.16666666666663</ele><time>2026-04-02T11:41:56.91Z</time></trkpt><trkpt lat="43.0582587" lon="11.4307904"><ele>485.0</ele><time>2026-04-02T11:41:57.91Z</time></trkpt><trkpt lat="43.0582033" lon="11.4308893"><ele>483.75</ele><time>2026-04-02T11:41:58.91Z</time></trkpt><trkpt lat="43.0581268" lon="11.4309727"><ele>482.5</ele><time>2026-04-02T11:41:59.91Z</time></trkpt><trkpt lat="43.0580262" lon="11.4310557"><ele>481.25</ele><time>2026-04-02T11:42:00.91Z</time></trkpt><trkpt lat="43.0579051" lon="11.4311373"><ele>480.0</ele><time>2026-04-02T11:42:01.91Z</time></trkpt><trkpt lat="43.0577905" lon="11.4312102"><ele>480.0</ele><time>2026-04-02T11:42:02.91Z</time></trkpt><trkpt lat="43.0576799" lon="11.4312879"><ele>480.0</ele><time>2026-04-02T11:42:03.91Z</time></trkpt><trkpt lat="43.0575778" lon="11.4313747"><ele>480.0</ele><time>2026-04-02T11:42:04.91Z</time></trkpt><trkpt lat="43.0574798" lon="11.4314789"><ele>480.0</ele><time>2026-04-02T11:42:05.91Z</time></trkpt><trkpt lat="43.0573935" lon="11.431584"><ele>481.8</ele><time>2026-04-02T11:42:06.91Z</time></trkpt><trkpt lat="43.0573126" lon="11.4316863"><ele>483.6</ele><time>2026-04-02T11:42:07.91Z</time></trkpt><trkpt lat="43.0572351" lon="11.4317965"><ele>485.4</ele><time>2026-04-02T11:42:08.91Z</time></trkpt><trkpt lat="43.0571731" lon="11.4318999"><ele>487.2</ele><time>2026-04-02T11:42:09.909Z</time></trkpt><trkpt lat="43.0571232" lon="11.4319876"><ele>489.0</ele><time>2026-04-02T11:42:10.91Z</time></trkpt><trkpt lat="43.0570846" lon="11.4320589"><ele>489.75</ele><time>2026-04-02T11:42:11.91Z</time></trkpt><trkpt lat="43.0570117" lon="11.4321486"><ele>490.5</ele><time>2026-04-02T11:42:13.91Z</time></trkpt><trkpt lat="43.0569164" lon="11.4322212"><ele>491.25</ele><time>2026-04-02T11:42:15.91Z</time></trkpt><trkpt lat="43.0568049" lon="11.4322701"><ele>492.0</ele><time>2026-04-02T11:42:17.91Z</time></trkpt><trkpt lat="43.0566801" lon="11.4322333"><ele>492.0</ele><time>2026-04-02T11:42:19.91Z</time></trkpt><trkpt lat="43.0566202" lon="11.4321914"><ele>492.0</ele><time>2026-04-02T11:42:20.91Z</time></trkpt><trkpt lat="43.0565184" lon="11.4321075"><ele>492.0</ele><time>2026-04-02T11:42:22.91Z</time></trkpt><trkpt lat="43.0564104" lon="11.432032"><ele>492.0</ele><time>2026-04-02T11:42:24.91Z</time></trkpt><trkpt lat="43.0563515" lon="11.4319964"><ele>492.0</ele><time>2026-04-02T11:42:25.91Z</time></trkpt><trkpt lat="43.0562863" lon="11.4319639"><ele>492.0</ele><time>2026-04-02T11:42:26.909Z</time></trkpt><trkpt lat="43.0562237" lon="11.4319391"><ele>490.5</ele><time>2026-04-02T11:42:27.91Z</time></trkpt><trkpt lat="43.0561603" lon="11.4319144"><ele>489.0</ele><time>2026-04-02T11:42:28.91Z</time></trkpt><trkpt lat="43.056094" lon="11.4318878"><ele>487.5</ele><time>2026-04-02T11:42:29.909Z</time></trkpt><trkpt lat="43.0560271" lon="11.4318667"><ele>486.0</ele><time>2026-04-02T11:42:30.91Z</time></trkpt><trkpt lat="43.0559585" lon="11.4318439"><ele>484.5</ele><time>2026-04-02T11:42:31.91Z</time></trkpt><trkpt lat="43.0558931" lon="11.4318223"><ele>483.0</ele><time>2026-04-02T11:42:32.91Z</time></trkpt><trkpt lat="43.0557599" lon="11.431784"><ele>482.1666666666667</ele><time>2026-04-02T11:42:34.91Z</time></trkpt><trkpt lat="43.0556824" lon="11.4317639"><ele>481.33333333333337</ele><time>2026-04-02T11:42:35.909Z</time></trkpt><trkpt lat="43.0556143" lon="11.4317453"><ele>480.5</ele><time>2026-04-02T11:42:36.91Z</time></trkpt><trkpt lat="43.0555417" lon="11.4317437"><ele>479.6666666666667</ele><time>2026-04-02T11:42:37.91Z</time></trkpt><trkpt lat="43.0554694" lon="11.4317209"><ele>478.83333333333337</ele><time>2026-04-02T11:42:38.91Z</time></trkpt><trkpt lat="43.0554047" lon="11.431672"><ele>478.0</ele><time>2026-04-02T11:42:39.91Z</time></trkpt><trkpt lat="43.0553469" lon="11.4315946"><ele>478.00000000000006</ele><time>2026-04-02T11:42:40.91Z</time></trkpt><trkpt lat="43.05529" lon="11.4315065"><ele>478.0</ele><time>2026-04-02T11:42:41.91Z</time></trkpt><trkpt lat="43.055226" lon="11.4314256"><ele>478.0</ele><time>2026-04-02T11:42:42.91Z</time></trkpt><trkpt lat="43.0551516" lon="11.4313436"><ele>478.0</ele><time>2026-04-02T11:42:43.91Z</time></trkpt><trkpt lat="43.0550838" lon="11.431264"><ele>478.00000000000006</ele><time>2026-04-02T11:42:44.91Z</time></trkpt><trkpt lat="43.0550228" lon="11.4311841"><ele>478.0</ele><time>2026-04-02T11:42:45.91Z</time></trkpt><trkpt lat="43.0549647" lon="11.4311114"><ele>476.00000000000006</ele><time>2026-04-02T11:42:46.91Z</time></trkpt><trkpt lat="43.0549091" lon="11.4310426"><ele>474.0</ele><time>2026-04-02T11:42:47.91Z</time></trkpt><trkpt lat="43.054803" lon="11.4309501"><ele>472.0</ele><time>2026-04-02T11:42:49.909Z</time></trkpt><trkpt lat="43.0547416" lon="11.4309183"><ele>470.0</ele><time>2026-04-02T11:42:50.909Z</time></trkpt><trkpt lat="43.0546732" lon="11.430891"><ele>468.00000000000006</ele><time>2026-04-02T11:42:51.91Z</time></trkpt><trkpt lat="43.0545934" lon="11.4308645"><ele>466.0</ele><time>2026-04-02T11:42:52.91Z</time></trkpt><trkpt lat="43.0545033" lon="11.4308443"><ele>466.0</ele><time>2026-04-02T11:42:53.91Z</time></trkpt><trkpt lat="43.054407" lon="11.4308312"><ele>466.0</ele><time>2026-04-02T11:42:54.91Z</time></trkpt><trkpt lat="43.0543085" lon="11.4308102"><ele>466.0</ele><time>2026-04-02T11:42:55.91Z</time></trkpt><trkpt lat="43.0542051" lon="11.4307888"><ele>466.0</ele><time>2026-04-02T11:42:56.91Z</time></trkpt><trkpt lat="43.0541046" lon="11.4307737"><ele>466.0</ele><time>2026-04-02T11:42:57.91Z</time></trkpt><trkpt lat="43.0540053" lon="11.4307649"><ele>464.4</ele><time>2026-04-02T11:42:58.91Z</time></trkpt><trkpt lat="43.0539043" lon="11.4307597"><ele>462.8</ele><time>2026-04-02T11:42:59.91Z</time></trkpt><trkpt lat="43.0538051" lon="11.4307519"><ele>461.19999999999993</ele><time>2026-04-02T11:43:00.91Z</time></trkpt><trkpt lat="43.0537149" lon="11.4307437"><ele>459.59999999999997</ele><time>2026-04-02T11:43:01.91Z</time></trkpt><trkpt lat="43.0536213" lon="11.4307287"><ele>458.0</ele><time>2026-04-02T11:43:02.91Z</time></trkpt><trkpt lat="43.0535244" lon="11.4306977"><ele>458.0</ele><time>2026-04-02T11:43:03.91Z</time></trkpt><trkpt lat="43.053439" lon="11.4306567"><ele>457.99999999999994</ele><time>2026-04-02T11:43:04.91Z</time></trkpt><trkpt lat="43.0533506" lon="11.4306121"><ele>457.99999999999994</ele><time>2026-04-02T11:43:05.909Z</time></trkpt><trkpt lat="43.0532606" lon="11.4305697"><ele>458.0</ele><time>2026-04-02T11:43:06.91Z</time></trkpt><trkpt lat="43.0531723" lon="11.4305306"><ele>458.0</ele><time>2026-04-02T11:43:07.91Z</time></trkpt><trkpt lat="43.0530871" lon="11.4304914"><ele>455.59999999999997</ele><time>2026-04-02T11:43:08.909Z</time></trkpt><trkpt lat="43.0530011" lon="11.430444"><ele>453.19999999999993</ele><time>2026-04-02T11:43:09.91Z</time></trkpt><trkpt lat="43.0529131" lon="11.4303845"><ele>450.8</ele><time>2026-04-02T11:43:10.91Z</time></trkpt><trkpt lat="43.0528204" lon="11.4303179"><ele>448.4</ele><time>2026-04-02T11:43:11.91Z</time></trkpt><trkpt lat="43.0527216" lon="11.4302515"><ele>446.0</ele><time>2026-04-02T11:43:12.91Z</time></trkpt><trkpt lat="43.0526194" lon="11.4301866"><ele>446.0</ele><time>2026-04-02T11:43:13.91Z</time></trkpt><trkpt lat="43.052509" lon="11.430115"><ele>446.0</ele><time>2026-04-02T11:43:14.91Z</time></trkpt><trkpt lat="43.0523951" lon="11.4300439"><ele>446.0</ele><time>2026-04-02T11:43:15.91Z</time></trkpt><trkpt lat="43.0522703" lon="11.4299763"><ele>446.0</ele><time>2026-04-02T11:43:16.91Z</time></trkpt><trkpt lat="43.0521374" lon="11.4299218"><ele>442.5</ele><time>2026-04-02T11:43:17.91Z</time></trkpt><trkpt lat="43.0520062" lon="11.4298662"><ele>439.0</ele><time>2026-04-02T11:43:18.91Z</time></trkpt><trkpt lat="43.0518762" lon="11.4298176"><ele>435.5</ele><time>2026-04-02T11:43:19.91Z</time></trkpt><trkpt lat="43.0517557" lon="11.429771"><ele>432.0</ele><time>2026-04-02T11:43:20.91Z</time></trkpt><trkpt lat="43.0516289" lon="11.4297198"><ele>432.0</ele><time>2026-04-02T11:43:21.91Z</time></trkpt><trkpt lat="43.0515046" lon="11.4296479"><ele>432.0</ele><time>2026-04-02T11:43:22.91Z</time></trkpt><trkpt lat="43.0513773" lon="11.4295592"><ele>432.0</ele><time>2026-04-02T11:43:23.91Z</time></trkpt><trkpt lat="43.0512667" lon="11.4294687"><ele>432.0</ele><time>2026-04-02T11:43:24.91Z</time></trkpt><trkpt lat="43.0511584" lon="11.4293732"><ele>433.0</ele><time>2026-04-02T11:43:25.91Z</time></trkpt><trkpt lat="43.0510497" lon="11.4292634"><ele>434.0</ele><time>2026-04-02T11:43:26.909Z</time></trkpt><trkpt lat="43.05095" lon="11.4291458"><ele>435.0</ele><time>2026-04-02T11:43:27.91Z</time></trkpt><trkpt lat="43.0508607" lon="11.4290376"><ele>436.0</ele><time>2026-04-02T11:43:28.91Z</time></trkpt><trkpt lat="43.0507629" lon="11.4289322"><ele>436.25</ele><time>2026-04-02T11:43:29.91Z</time></trkpt><trkpt lat="43.0506562" lon="11.4288346"><ele>436.5</ele><time>2026-04-02T11:43:30.91Z</time></trkpt><trkpt lat="43.0505432" lon="11.428728"><ele>436.75</ele><time>2026-04-02T11:43:31.91Z</time></trkpt><trkpt lat="43.0504426" lon="11.4286221"><ele>437.0</ele><time>2026-04-02T11:43:32.909Z</time></trkpt><trkpt lat="43.0503485" lon="11.4285252"><ele>437.0</ele><time>2026-04-02T11:43:33.91Z</time></trkpt><trkpt lat="43.0502568" lon="11.4284419"><ele>437.00000000000006</ele><time>2026-04-02T11:43:34.91Z</time></trkpt><trkpt lat="43.0501647" lon="11.4283788"><ele>437.00000000000006</ele><time>2026-04-02T11:43:35.91Z</time></trkpt><trkpt lat="43.0500711" lon="11.4283344"><ele>437.0</ele><time>2026-04-02T11:43:36.91Z</time></trkpt><trkpt lat="43.0499804" lon="11.428305"><ele>437.0</ele><time>2026-04-02T11:43:37.91Z</time></trkpt><trkpt lat="43.0498831" lon="11.4282685"><ele>438.25</ele><time>2026-04-02T11:43:38.91Z</time></trkpt><trkpt lat="43.0497768" lon="11.4282028"><ele>439.5</ele><time>2026-04-02T11:43:39.91Z</time></trkpt><trkpt lat="43.0496769" lon="11.4281049"><ele>440.75</ele><time>2026-04-02T11:43:40.91Z</time></trkpt><trkpt lat="43.0495863" lon="11.4279965"><ele>442.0</ele><time>2026-04-02T11:43:41.91Z</time></trkpt><trkpt lat="43.0494997" lon="11.4278891"><ele>438.5</ele><time>2026-04-02T11:43:42.91Z</time></trkpt><trkpt lat="43.049402" lon="11.4277898"><ele>435.0</ele><time>2026-04-02T11:43:43.91Z</time></trkpt><trkpt lat="43.0492943" lon="11.4277016"><ele>431.5</ele><time>2026-04-02T11:43:44.91Z</time></trkpt><trkpt lat="43.0491897" lon="11.4276252"><ele>428.0</ele><time>2026-04-02T11:43:45.91Z</time></trkpt><trkpt lat="43.0490881" lon="11.4275425"><ele>427.75</ele><time>2026-04-02T11:43:46.91Z</time></trkpt><trkpt lat="43.0489826" lon="11.4274479"><ele>427.5</ele><time>2026-04-02T11:43:47.91Z</time></trkpt><trkpt lat="43.0488856" lon="11.4273572"><ele>427.25</ele><time>2026-04-02T11:43:48.91Z</time></trkpt><trkpt lat="43.0487974" lon="11.4272537"><ele>427.0</ele><time>2026-04-02T11:43:49.91Z</time></trkpt><trkpt lat="43.048716" lon="11.4271263"><ele>424.75</ele><time>2026-04-02T11:43:50.91Z</time></trkpt><trkpt lat="43.0486344" lon="11.4269934"><ele>422.5</ele><time>2026-04-02T11:43:51.91Z</time></trkpt><trkpt lat="43.0485448" lon="11.4268608"><ele>420.25</ele><time>2026-04-02T11:43:52.91Z</time></trkpt><trkpt lat="43.0484561" lon="11.4267313"><ele>418.0</ele><time>2026-04-02T11:43:53.91Z</time></trkpt><trkpt lat="43.0483762" lon="11.4266058"><ele>418.0</ele><time>2026-04-02T11:43:54.91Z</time></trkpt><trkpt lat="43.0483086" lon="11.4264695"><ele>418.0</ele><time>2026-04-02T11:43:55.91Z</time></trkpt><trkpt lat="43.0482564" lon="11.4263439"><ele>418.0</ele><time>2026-04-02T11:43:56.91Z</time></trkpt><trkpt lat="43.0482091" lon="11.426227"><ele>418.0</ele><time>2026-04-02T11:43:57.909Z</time></trkpt><trkpt lat="43.0481619" lon="11.4261173"><ele>418.0</ele><time>2026-04-02T11:43:58.909Z</time></trkpt><trkpt lat="43.0481135" lon="11.4260142"><ele>415.79999999999995</ele><time>2026-04-02T11:43:59.909Z</time></trkpt><trkpt lat="43.0480634" lon="11.425914"><ele>413.6</ele><time>2026-04-02T11:44:00.91Z</time></trkpt><trkpt lat="43.0480127" lon="11.425809"><ele>411.4</ele><time>2026-04-02T11:44:01.91Z</time></trkpt><trkpt lat="43.0479558" lon="11.4257024"><ele>409.20000000000005</ele><time>2026-04-02T11:44:02.91Z</time></trkpt><trkpt lat="43.0478966" lon="11.4255908"><ele>407.0</ele><time>2026-04-02T11:44:03.91Z</time></trkpt><trkpt lat="43.0478313" lon="11.4254769"><ele>405.0</ele><time>2026-04-02T11:44:04.91Z</time></trkpt><trkpt lat="43.0477593" lon="11.4253591"><ele>403.0</ele><time>2026-04-02T11:44:05.91Z</time></trkpt><trkpt lat="43.0476906" lon="11.4252504"><ele>401.0</ele><time>2026-04-02T11:44:06.909Z</time></trkpt><trkpt lat="43.0476314" lon="11.4251525"><ele>399.0</ele><time>2026-04-02T11:44:07.909Z</time></trkpt><trkpt lat="43.0475715" lon="11.4250586"><ele>397.0</ele><time>2026-04-02T11:44:08.91Z</time></trkpt><trkpt lat="43.0475089" lon="11.4249608"><ele>396.50000000000006</ele><time>2026-04-02T11:44:09.91Z</time></trkpt><trkpt lat="43.0474454" lon="11.4248689"><ele>396.0</ele><time>2026-04-02T11:44:10.91Z</time></trkpt><trkpt lat="43.0473816" lon="11.4247854"><ele>395.5</ele><time>2026-04-02T11:44:11.91Z</time></trkpt><trkpt lat="43.0473113" lon="11.4247149"><ele>395.0</ele><time>2026-04-02T11:44:12.91Z</time></trkpt><trkpt lat="43.0472313" lon="11.4246555"><ele>394.50000000000006</ele><time>2026-04-02T11:44:13.91Z</time></trkpt><trkpt lat="43.0471504" lon="11.4245998"><ele>394.0</ele><time>2026-04-02T11:44:14.91Z</time></trkpt><trkpt lat="43.0470609" lon="11.4245242"><ele>392.75</ele><time>2026-04-02T11:44:15.91Z</time></trkpt><trkpt lat="43.0469875" lon="11.4244112"><ele>391.5</ele><time>2026-04-02T11:44:16.91Z</time></trkpt><trkpt lat="43.0469295" lon="11.4242818"><ele>390.25</ele><time>2026-04-02T11:44:17.91Z</time></trkpt><trkpt lat="43.0468699" lon="11.4241207"><ele>389.0</ele><time>2026-04-02T11:44:18.909Z</time></trkpt><trkpt lat="43.0468078" lon="11.423944"><ele>388.66666666666663</ele><time>2026-04-02T11:44:19.91Z</time></trkpt><trkpt lat="43.0467433" lon="11.4237505"><ele>388.33333333333337</ele><time>2026-04-02T11:44:20.91Z</time></trkpt><trkpt lat="43.0466727" lon="11.4235547"><ele>388.0</ele><time>2026-04-02T11:44:21.909Z</time></trkpt><trkpt lat="43.0466" lon="11.4233603"><ele>387.6666666666667</ele><time>2026-04-02T11:44:22.91Z</time></trkpt><trkpt lat="43.0465209" lon="11.423158"><ele>387.33333333333337</ele><time>2026-04-02T11:44:23.91Z</time></trkpt><trkpt lat="43.0464502" lon="11.4229749"><ele>387.0</ele><time>2026-04-02T11:44:24.91Z</time></trkpt><trkpt lat="43.0463831" lon="11.4227993"><ele>390.25</ele><time>2026-04-02T11:44:25.91Z</time></trkpt><trkpt lat="43.0463108" lon="11.422623"><ele>393.5</ele><time>2026-04-02T11:44:26.909Z</time></trkpt><trkpt lat="43.0462512" lon="11.4224679"><ele>396.75</ele><time>2026-04-02T11:44:27.91Z</time></trkpt><trkpt lat="43.0461979" lon="11.4223306"><ele>400.0</ele><time>2026-04-02T11:44:28.91Z</time></trkpt><trkpt lat="43.0461576" lon="11.4222137"><ele>400.00000000000006</ele><time>2026-04-02T11:44:29.91Z</time></trkpt><trkpt lat="43.0461129" lon="11.4220879"><ele>400.0</ele><time>2026-04-02T11:44:31.909Z</time></trkpt><trkpt lat="43.046065" lon="11.4220061"><ele>400.0</ele><time>2026-04-02T11:44:34.91Z</time></trkpt><trkpt lat="43.0460829" lon="11.4221"><ele>400.0</ele><time>2026-04-02T11:45:11.91Z</time></trkpt><trkpt lat="43.0460696" lon="11.4221902"><ele>400.00000000000006</ele><time>2026-04-02T11:45:18.91Z</time></trkpt><trkpt lat="43.0461045" lon="11.4221061"><ele>400.0</ele><time>2026-04-02T11:45:35.91Z</time></trkpt><trkpt lat="43.0461294" lon="11.422026"><ele>401.00000000000006</ele><time>2026-04-02T11:46:11.91Z</time></trkpt><trkpt lat="43.0461412" lon="11.421935"><ele>402.0</ele><time>2026-04-02T11:46:22.91Z</time></trkpt><trkpt lat="43.0461594" lon="11.4218424"><ele>403.0</ele><time>2026-04-02T11:46:30.91Z</time></trkpt><trkpt lat="43.046159" lon="11.4217416"><ele>404.0</ele><time>2026-04-02T11:46:33.909Z</time></trkpt><trkpt lat="43.0461835" lon="11.4216367"><ele>405.0</ele><time>2026-04-02T11:46:36.909Z</time></trkpt><trkpt lat="43.04622" lon="11.4215526"><ele>406.00000000000006</ele><time>2026-04-02T11:46:39.91Z</time></trkpt><trkpt lat="43.0462455" lon="11.4214657"><ele>407.0</ele><time>2026-04-02T11:46:41.91Z</time></trkpt><trkpt lat="43.0463012" lon="11.4213404"><ele>406.00000000000006</ele><time>2026-04-02T11:46:43.91Z</time></trkpt><trkpt lat="43.046334" lon="11.4212612"><ele>405.0</ele><time>2026-04-02T11:46:44.91Z</time></trkpt><trkpt lat="43.0463684" lon="11.4211844"><ele>404.0</ele><time>2026-04-02T11:46:45.91Z</time></trkpt><trkpt lat="43.0464012" lon="11.421104"><ele>403.0</ele><time>2026-04-02T11:46:46.909Z</time></trkpt><trkpt lat="43.0464327" lon="11.421013"><ele>402.0</ele><time>2026-04-02T11:46:47.91Z</time></trkpt><trkpt lat="43.0464568" lon="11.4209272"><ele>401.00000000000006</ele><time>2026-04-02T11:46:48.91Z</time></trkpt><trkpt lat="43.0464801" lon="11.4207846"><ele>400.0</ele><time>2026-04-02T11:46:50.91Z</time></trkpt><trkpt lat="43.0464754" lon="11.420669"><ele>400.0</ele><time>2026-04-02T11:46:52.91Z</time></trkpt><trkpt lat="43.0464281" lon="11.4205147"><ele>400.0</ele><time>2026-04-02T11:46:54.91Z</time></trkpt><trkpt lat="43.0463899" lon="11.4204378"><ele>400.0</ele><time>2026-04-02T11:46:55.91Z</time></trkpt><trkpt lat="43.0463445" lon="11.4203469"><ele>400.0</ele><time>2026-04-02T11:46:56.909Z</time></trkpt><trkpt lat="43.0462945" lon="11.4202507"><ele>400.0</ele><time>2026-04-02T11:46:57.91Z</time></trkpt><trkpt lat="43.0462368" lon="11.4201461"><ele>398.50000000000006</ele><time>2026-04-02T11:46:58.91Z</time></trkpt><trkpt lat="43.0461754" lon="11.4200415"><ele>397.0</ele><time>2026-04-02T11:46:59.91Z</time></trkpt><trkpt lat="43.0461179" lon="11.4199352"><ele>395.5</ele><time>2026-04-02T11:47:00.91Z</time></trkpt><trkpt lat="43.0460652" lon="11.4198351"><ele>394.0</ele><time>2026-04-02T11:47:01.91Z</time></trkpt><trkpt lat="43.0460198" lon="11.4197419"><ele>392.50000000000006</ele><time>2026-04-02T11:47:02.909Z</time></trkpt><trkpt lat="43.0459759" lon="11.4196602"><ele>391.0</ele><time>2026-04-02T11:47:03.91Z</time></trkpt><trkpt lat="43.0459393" lon="11.4195858"><ele>389.83333333333337</ele><time>2026-04-02T11:47:04.91Z</time></trkpt><trkpt lat="43.0459014" lon="11.4195168"><ele>388.6666666666667</ele><time>2026-04-02T11:47:05.91Z</time></trkpt><trkpt lat="43.0458386" lon="11.4193871"><ele>387.5</ele><time>2026-04-02T11:47:07.91Z</time></trkpt><trkpt lat="43.0457584" lon="11.4192569"><ele>386.33333333333337</ele><time>2026-04-02T11:47:09.909Z</time></trkpt><trkpt lat="43.0457134" lon="11.4191939"><ele>385.1666666666667</ele><time>2026-04-02T11:47:10.91Z</time></trkpt><trkpt lat="43.0456605" lon="11.4191262"><ele>384.0</ele><time>2026-04-02T11:47:11.91Z</time></trkpt><trkpt lat="43.0455917" lon="11.4190618"><ele>383.6</ele><time>2026-04-02T11:47:12.91Z</time></trkpt><trkpt lat="43.0455169" lon="11.4189897"><ele>383.2</ele><time>2026-04-02T11:47:13.91Z</time></trkpt><trkpt lat="43.0454379" lon="11.4189261"><ele>382.8</ele><time>2026-04-02T11:47:14.91Z</time></trkpt><trkpt lat="43.0453614" lon="11.4188596"><ele>382.40000000000003</ele><time>2026-04-02T11:47:15.91Z</time></trkpt><trkpt lat="43.0452848" lon="11.4187857"><ele>382.0</ele><time>2026-04-02T11:47:16.91Z</time></trkpt><trkpt lat="43.0452087" lon="11.418708"><ele>381.66666666666663</ele><time>2026-04-02T11:47:17.91Z</time></trkpt><trkpt lat="43.0451283" lon="11.418635"><ele>381.3333333333333</ele><time>2026-04-02T11:47:18.909Z</time></trkpt><trkpt lat="43.0450629" lon="11.418566"><ele>381.0</ele><time>2026-04-02T11:47:19.91Z</time></trkpt><trkpt lat="43.045003" lon="11.418503"><ele>380.6666666666667</ele><time>2026-04-02T11:47:20.91Z</time></trkpt><trkpt lat="43.0449497" lon="11.4184419"><ele>380.33333333333337</ele><time>2026-04-02T11:47:21.91Z</time></trkpt><trkpt lat="43.0448913" lon="11.4183742"><ele>380.0</ele><time>2026-04-02T11:47:22.91Z</time></trkpt><trkpt lat="43.0448263" lon="11.418295"><ele>378.6</ele><time>2026-04-02T11:47:23.909Z</time></trkpt><trkpt lat="43.0447558" lon="11.4182084"><ele>377.2</ele><time>2026-04-02T11:47:24.91Z</time></trkpt><trkpt lat="43.0446823" lon="11.4181222"><ele>375.79999999999995</ele><time>2026-04-02T11:47:25.91Z</time></trkpt><trkpt lat="43.0446035" lon="11.4180262"><ele>374.4</ele><time>2026-04-02T11:47:26.91Z</time></trkpt><trkpt lat="43.0445155" lon="11.4179275"><ele>373.0</ele><time>2026-04-02T11:47:27.91Z</time></trkpt><trkpt lat="43.0444252" lon="11.4178297"><ele>373.0</ele><time>2026-04-02T11:47:28.91Z</time></trkpt><trkpt lat="43.0443443" lon="11.4177414"><ele>373.0</ele><time>2026-04-02T11:47:29.91Z</time></trkpt><trkpt lat="43.0442624" lon="11.4176525"><ele>373.0</ele><time>2026-04-02T11:47:30.91Z</time></trkpt><trkpt lat="43.0441705" lon="11.4175549"><ele>373.0</ele><time>2026-04-02T11:47:31.91Z</time></trkpt><trkpt lat="43.0440853" lon="11.4174522"><ele>373.0</ele><time>2026-04-02T11:47:32.91Z</time></trkpt><trkpt lat="43.0440016" lon="11.4173464"><ele>371.75</ele><time>2026-04-02T11:47:33.91Z</time></trkpt><trkpt lat="43.0439126" lon="11.4172246"><ele>370.5</ele><time>2026-04-02T11:47:34.91Z</time></trkpt><trkpt lat="43.0438248" lon="11.4170982"><ele>369.25</ele><time>2026-04-02T11:47:35.91Z</time></trkpt><trkpt lat="43.0437484" lon="11.4169753"><ele>368.0</ele><time>2026-04-02T11:47:36.91Z</time></trkpt><trkpt lat="43.043675" lon="11.416853"><ele>368.0</ele><time>2026-04-02T11:47:37.91Z</time></trkpt><trkpt lat="43.0436017" lon="11.4167378"><ele>368.0</ele><time>2026-04-02T11:47:38.91Z</time></trkpt><trkpt lat="43.0435294" lon="11.4166142"><ele>368.0</ele><time>2026-04-02T11:47:39.91Z</time></trkpt><trkpt lat="43.0434653" lon="11.4164933"><ele>368.0</ele><time>2026-04-02T11:47:40.91Z</time></trkpt><trkpt lat="43.0433995" lon="11.4163703"><ele>368.0</ele><time>2026-04-02T11:47:41.91Z</time></trkpt><trkpt lat="43.0433256" lon="11.4162415"><ele>366.25</ele><time>2026-04-02T11:47:42.91Z</time></trkpt><trkpt lat="43.0432535" lon="11.4161099"><ele>364.5</ele><time>2026-04-02T11:47:43.91Z</time></trkpt><trkpt lat="43.0431804" lon="11.4159755"><ele>362.75</ele><time>2026-04-02T11:47:44.909Z</time></trkpt><trkpt lat="43.0431107" lon="11.4158453"><ele>361.0</ele><time>2026-04-02T11:47:45.909Z</time></trkpt><trkpt lat="43.0430442" lon="11.4157238"><ele>361.0</ele><time>2026-04-02T11:47:46.91Z</time></trkpt><trkpt lat="43.0429867" lon="11.4156004"><ele>361.0</ele><time>2026-04-02T11:47:47.909Z</time></trkpt><trkpt lat="43.0429288" lon="11.4154743"><ele>361.0</ele><time>2026-04-02T11:47:48.91Z</time></trkpt><trkpt lat="43.0428727" lon="11.4153525"><ele>361.0</ele><time>2026-04-02T11:47:49.91Z</time></trkpt><trkpt lat="43.0428151" lon="11.4152375"><ele>361.0</ele><time>2026-04-02T11:47:50.91Z</time></trkpt><trkpt lat="43.0427598" lon="11.4151307"><ele>360.8333333333333</ele><time>2026-04-02T11:47:51.909Z</time></trkpt><trkpt lat="43.0427057" lon="11.415044"><ele>360.66666666666663</ele><time>2026-04-02T11:47:52.91Z</time></trkpt><trkpt lat="43.0426505" lon="11.4149626"><ele>360.5</ele><time>2026-04-02T11:47:53.91Z</time></trkpt><trkpt lat="43.0426029" lon="11.4148947"><ele>360.3333333333333</ele><time>2026-04-02T11:47:54.91Z</time></trkpt><trkpt lat="43.0425494" lon="11.4148265"><ele>360.1666666666667</ele><time>2026-04-02T11:47:55.91Z</time></trkpt><trkpt lat="43.0424872" lon="11.4147506"><ele>360.0</ele><time>2026-04-02T11:47:56.91Z</time></trkpt><trkpt lat="43.0424194" lon="11.4146687"><ele>358.5</ele><time>2026-04-02T11:47:57.91Z</time></trkpt><trkpt lat="43.0423553" lon="11.4145918"><ele>357.0</ele><time>2026-04-02T11:47:58.91Z</time></trkpt><trkpt lat="43.042293" lon="11.4145168"><ele>355.5</ele><time>2026-04-02T11:47:59.91Z</time></trkpt><trkpt lat="43.0422374" lon="11.4144497"><ele>354.0</ele><time>2026-04-02T11:48:00.91Z</time></trkpt><trkpt lat="43.0421815" lon="11.4143806"><ele>352.5</ele><time>2026-04-02T11:48:01.909Z</time></trkpt><trkpt lat="43.0421268" lon="11.4143048"><ele>351.0</ele><time>2026-04-02T11:48:02.91Z</time></trkpt><trkpt lat="43.0420735" lon="11.4142112"><ele>351.0</ele><time>2026-04-02T11:48:03.91Z</time></trkpt><trkpt lat="43.0420253" lon="11.4140935"><ele>351.0</ele><time>2026-04-02T11:48:04.91Z</time></trkpt><trkpt lat="43.0419838" lon="11.4139756"><ele>351.0</ele><time>2026-04-02T11:48:05.91Z</time></trkpt><trkpt lat="43.0419452" lon="11.4138461"><ele>351.0</ele><time>2026-04-02T11:48:06.91Z</time></trkpt><trkpt lat="43.0419046" lon="11.4137144"><ele>351.0</ele><time>2026-04-02T11:48:07.91Z</time></trkpt><trkpt lat="43.0418653" lon="11.4135878"><ele>349.8</ele><time>2026-04-02T11:48:08.91Z</time></trkpt><trkpt lat="43.0418216" lon="11.41345"><ele>348.6</ele><time>2026-04-02T11:48:09.91Z</time></trkpt><trkpt lat="43.0417789" lon="11.4133079"><ele>347.4</ele><time>2026-04-02T11:48:10.91Z</time></trkpt><trkpt lat="43.041734" lon="11.4131678"><ele>346.2</ele><time>2026-04-02T11:48:11.91Z</time></trkpt><trkpt lat="43.0416873" lon="11.4130237"><ele>345.0</ele><time>2026-04-02T11:48:12.91Z</time></trkpt><trkpt lat="43.0416379" lon="11.4128792"><ele>341.5</ele><time>2026-04-02T11:48:13.91Z</time></trkpt><trkpt lat="43.0415949" lon="11.4127265"><ele>338.0</ele><time>2026-04-02T11:48:14.91Z</time></trkpt><trkpt lat="43.0415613" lon="11.412565"><ele>334.5</ele><time>2026-04-02T11:48:15.909Z</time></trkpt><trkpt lat="43.0415398" lon="11.4123867"><ele>331.0</ele><time>2026-04-02T11:48:16.91Z</time></trkpt><trkpt lat="43.041527" lon="11.4121856"><ele>329.25</ele><time>2026-04-02T11:48:17.91Z</time></trkpt><trkpt lat="43.0415252" lon="11.4119772"><ele>327.5</ele><time>2026-04-02T11:48:18.91Z</time></trkpt><trkpt lat="43.0415264" lon="11.4117789"><ele>325.75</ele><time>2026-04-02T11:48:19.91Z</time></trkpt><trkpt lat="43.0415306" lon="11.4115993"><ele>324.0</ele><time>2026-04-02T11:48:20.91Z</time></trkpt><trkpt lat="43.041535" lon="11.4114359"><ele>323.5</ele><time>2026-04-02T11:48:21.91Z</time></trkpt><trkpt lat="43.0415442" lon="11.4112739"><ele>323.0</ele><time>2026-04-02T11:48:22.91Z</time></trkpt><trkpt lat="43.0415568" lon="11.4111009"><ele>322.5</ele><time>2026-04-02T11:48:23.91Z</time></trkpt><trkpt lat="43.0415721" lon="11.4109261"><ele>322.0</ele><time>2026-04-02T11:48:24.909Z</time></trkpt><trkpt lat="43.0415888" lon="11.4107586"><ele>322.0</ele><time>2026-04-02T11:48:25.91Z</time></trkpt><trkpt lat="43.0416053" lon="11.4105997"><ele>322.0</ele><time>2026-04-02T11:48:26.91Z</time></trkpt><trkpt lat="43.041625" lon="11.4104397"><ele>322.0</ele><time>2026-04-02T11:48:27.91Z</time></trkpt><trkpt lat="43.0416437" lon="11.4102786"><ele>322.0</ele><time>2026-04-02T11:48:28.91Z</time></trkpt><trkpt lat="43.0416579" lon="11.4101333"><ele>321.8</ele><time>2026-04-02T11:48:29.909Z</time></trkpt><trkpt lat="43.0416735" lon="11.4099912"><ele>321.6</ele><time>2026-04-02T11:48:30.91Z</time></trkpt><trkpt lat="43.0416891" lon="11.4098507"><ele>321.40000000000003</ele><time>2026-04-02T11:48:31.91Z</time></trkpt><trkpt lat="43.0416997" lon="11.4097094"><ele>321.20000000000005</ele><time>2026-04-02T11:48:32.91Z</time></trkpt><trkpt lat="43.0417138" lon="11.409569"><ele>321.0</ele><time>2026-04-02T11:48:33.91Z</time></trkpt><trkpt lat="43.0417247" lon="11.4094329"><ele>319.40000000000003</ele><time>2026-04-02T11:48:34.91Z</time></trkpt><trkpt lat="43.0417317" lon="11.4092963"><ele>317.8</ele><time>2026-04-02T11:48:35.91Z</time></trkpt><trkpt lat="43.0417317" lon="11.4091581"><ele>316.20000000000005</ele><time>2026-04-02T11:48:36.91Z</time></trkpt><trkpt lat="43.041735" lon="11.4090278"><ele>314.6</ele><time>2026-04-02T11:48:37.91Z</time></trkpt><trkpt lat="43.0417412" lon="11.4088959"><ele>313.0</ele><time>2026-04-02T11:48:38.91Z</time></trkpt><trkpt lat="43.0417465" lon="11.4087697"><ele>311.66666666666663</ele><time>2026-04-02T11:48:39.91Z</time></trkpt><trkpt lat="43.0417562" lon="11.4086447"><ele>310.3333333333333</ele><time>2026-04-02T11:48:40.91Z</time></trkpt><trkpt lat="43.0417633" lon="11.4085213"><ele>309.0</ele><time>2026-04-02T11:48:41.91Z</time></trkpt><trkpt lat="43.0417681" lon="11.4083949"><ele>307.6666666666667</ele><time>2026-04-02T11:48:42.91Z</time></trkpt><trkpt lat="43.0417728" lon="11.4082828"><ele>306.33333333333337</ele><time>2026-04-02T11:48:43.91Z</time></trkpt><trkpt lat="43.0417771" lon="11.4081771"><ele>305.0</ele><time>2026-04-02T11:48:44.91Z</time></trkpt><trkpt lat="43.0417792" lon="11.4080777"><ele>303.7142857142857</ele><time>2026-04-02T11:48:45.91Z</time></trkpt><trkpt lat="43.0417756" lon="11.4079782"><ele>302.4285714285714</ele><time>2026-04-02T11:48:46.91Z</time></trkpt><trkpt lat="43.0417548" lon="11.407887"><ele>301.1428571428571</ele><time>2026-04-02T11:48:47.909Z</time></trkpt><trkpt lat="43.0417168" lon="11.4078039"><ele>299.8571428571429</ele><time>2026-04-02T11:48:48.91Z</time></trkpt><trkpt lat="43.0416598" lon="11.4077374"><ele>298.57142857142856</ele><time>2026-04-02T11:48:49.91Z</time></trkpt><trkpt lat="43.0415954" lon="11.4076947"><ele>297.2857142857143</ele><time>2026-04-02T11:48:50.91Z</time></trkpt><trkpt lat="43.041514" lon="11.4076702"><ele>296.0</ele><time>2026-04-02T11:48:51.91Z</time></trkpt><trkpt lat="43.0414197" lon="11.4076605"><ele>296.0</ele><time>2026-04-02T11:48:52.91Z</time></trkpt><trkpt lat="43.0413078" lon="11.4076552"><ele>296.0</ele><time>2026-04-02T11:48:53.91Z</time></trkpt><trkpt lat="43.0412" lon="11.4076307"><ele>296.0</ele><time>2026-04-02T11:48:54.91Z</time></trkpt><trkpt lat="43.0410843" lon="11.4075973"><ele>296.0</ele><time>2026-04-02T11:48:55.91Z</time></trkpt><trkpt lat="43.0409703" lon="11.407564"><ele>296.0</ele><time>2026-04-02T11:48:56.91Z</time></trkpt><trkpt lat="43.040861" lon="11.4075453"><ele>296.0</ele><time>2026-04-02T11:48:57.91Z</time></trkpt><trkpt lat="43.040759" lon="11.4075348"><ele>296.0</ele><time>2026-04-02T11:48:58.91Z</time></trkpt><trkpt lat="43.0406686" lon="11.407531"><ele>296.0</ele><time>2026-04-02T11:48:59.91Z</time></trkpt><trkpt lat="43.0405822" lon="11.4075389"><ele>296.0</ele><time>2026-04-02T11:49:00.91Z</time></trkpt><trkpt lat="43.0404997" lon="11.4075621"><ele>295.0</ele><time>2026-04-02T11:49:01.91Z</time></trkpt><trkpt lat="43.0404149" lon="11.4076074"><ele>294.0</ele><time>2026-04-02T11:49:02.91Z</time></trkpt><trkpt lat="43.0403267" lon="11.40767"><ele>293.0</ele><time>2026-04-02T11:49:03.91Z</time></trkpt><trkpt lat="43.0402243" lon="11.4077552"><ele>292.0</ele><time>2026-04-02T11:49:04.91Z</time></trkpt><trkpt lat="43.0401166" lon="11.4078365"><ele>291.0</ele><time>2026-04-02T11:49:05.91Z</time></trkpt><trkpt lat="43.0400004" lon="11.4079106"><ele>290.5</ele><time>2026-04-02T11:49:06.91Z</time></trkpt><trkpt lat="43.0398973" lon="11.4079702"><ele>290.0</ele><time>2026-04-02T11:49:07.91Z</time></trkpt><trkpt lat="43.0397926" lon="11.4080089"><ele>289.5</ele><time>2026-04-02T11:49:08.91Z</time></trkpt><trkpt lat="43.0396862" lon="11.4080371"><ele>289.0</ele><time>2026-04-02T11:49:09.909Z</time></trkpt><trkpt lat="43.0395665" lon="11.4080693"><ele>289.0</ele><time>2026-04-02T11:49:10.91Z</time></trkpt><trkpt lat="43.0394589" lon="11.4080931"><ele>289.0</ele><time>2026-04-02T11:49:11.91Z</time></trkpt><trkpt lat="43.0393497" lon="11.4081197"><ele>289.0</ele><time>2026-04-02T11:49:12.91Z</time></trkpt><trkpt lat="43.0392541" lon="11.4081492"><ele>289.0</ele><time>2026-04-02T11:49:13.91Z</time></trkpt><trkpt lat="43.0391498" lon="11.408181"><ele>289.0</ele><time>2026-04-02T11:49:14.91Z</time></trkpt><trkpt lat="43.0390377" lon="11.408222"><ele>287.0</ele><time>2026-04-02T11:49:15.91Z</time></trkpt><trkpt lat="43.0389142" lon="11.4082824"><ele>285.0</ele><time>2026-04-02T11:49:16.91Z</time></trkpt><trkpt lat="43.038794" lon="11.4083407"><ele>283.0</ele><time>2026-04-02T11:49:17.91Z</time></trkpt><trkpt lat="43.0386799" lon="11.4084078"><ele>281.0</ele><time>2026-04-02T11:49:18.91Z</time></trkpt><trkpt lat="43.0385722" lon="11.4084666"><ele>281.0</ele><time>2026-04-02T11:49:19.91Z</time></trkpt><trkpt lat="43.0384798" lon="11.4085226"><ele>281.0</ele><time>2026-04-02T11:49:20.91Z</time></trkpt><trkpt lat="43.0383906" lon="11.4085819"><ele>281.0</ele><time>2026-04-02T11:49:21.91Z</time></trkpt><trkpt lat="43.038304" lon="11.4086533"><ele>281.0</ele><time>2026-04-02T11:49:22.91Z</time></trkpt><trkpt lat="43.0382161" lon="11.4087381"><ele>281.0</ele><time>2026-04-02T11:49:23.91Z</time></trkpt><trkpt lat="43.0381332" lon="11.4088365"><ele>280.0</ele><time>2026-04-02T11:49:24.91Z</time></trkpt><trkpt lat="43.0380449" lon="11.4089525"><ele>279.0</ele><time>2026-04-02T11:49:25.909Z</time></trkpt><trkpt lat="43.0379541" lon="11.4090735"><ele>278.0</ele><time>2026-04-02T11:49:26.91Z</time></trkpt><trkpt lat="43.0378703" lon="11.4091889"><ele>277.0</ele><time>2026-04-02T11:49:27.91Z</time></trkpt><trkpt lat="43.0377937" lon="11.409294"><ele>277.0</ele><time>2026-04-02T11:49:28.91Z</time></trkpt><trkpt lat="43.0377301" lon="11.4093757"><ele>277.0</ele><time>2026-04-02T11:49:29.91Z</time></trkpt><trkpt lat="43.0376698" lon="11.409438"><ele>277.0</ele><time>2026-04-02T11:49:30.91Z</time></trkpt><trkpt lat="43.0376077" lon="11.4094656"><ele>277.0</ele><time>2026-04-02T11:49:31.91Z</time></trkpt><trkpt lat="43.0375324" lon="11.4094606"><ele>277.0</ele><time>2026-04-02T11:49:32.91Z</time></trkpt><trkpt lat="43.0374627" lon="11.4094106"><ele>277.0</ele><time>2026-04-02T11:49:33.91Z</time></trkpt><trkpt lat="43.037389" lon="11.4093291"><ele>276.5</ele><time>2026-04-02T11:49:34.91Z</time></trkpt><trkpt lat="43.0373068" lon="11.4092079"><ele>276.0</ele><time>2026-04-02T11:49:35.91Z</time></trkpt><trkpt lat="43.0372187" lon="11.4090676"><ele>275.5</ele><time>2026-04-02T11:49:36.91Z</time></trkpt><trkpt lat="43.0371241" lon="11.4089108"><ele>275.0</ele><time>2026-04-02T11:49:37.91Z</time></trkpt><trkpt lat="43.0370332" lon="11.4087746"><ele>274.0</ele><time>2026-04-02T11:49:38.91Z</time></trkpt><trkpt lat="43.0369531" lon="11.4086454"><ele>273.0</ele><time>2026-04-02T11:49:39.91Z</time></trkpt><trkpt lat="43.0368844" lon="11.4085265"><ele>272.0</ele><time>2026-04-02T11:49:40.91Z</time></trkpt><trkpt lat="43.0368218" lon="11.4084101"><ele>271.0</ele><time>2026-04-02T11:49:41.91Z</time></trkpt><trkpt lat="43.0367645" lon="11.40832"><ele>270.0</ele><time>2026-04-02T11:49:42.91Z</time></trkpt><trkpt lat="43.0367164" lon="11.4082631"><ele>269.4</ele><time>2026-04-02T11:49:43.91Z</time></trkpt><trkpt lat="43.0366219" lon="11.4082212"><ele>268.8</ele><time>2026-04-02T11:49:45.91Z</time></trkpt><trkpt lat="43.0365113" lon="11.4082716"><ele>268.2</ele><time>2026-04-02T11:49:47.91Z</time></trkpt><trkpt lat="43.0364499" lon="11.4083357"><ele>267.6</ele><time>2026-04-02T11:49:48.909Z</time></trkpt><trkpt lat="43.0363847" lon="11.4084144"><ele>267.0</ele><time>2026-04-02T11:49:49.91Z</time></trkpt><trkpt lat="43.0363147" lon="11.4085077"><ele>267.0</ele><time>2026-04-02T11:49:50.91Z</time></trkpt><trkpt lat="43.0362317" lon="11.4086228"><ele>267.0</ele><time>2026-04-02T11:49:51.91Z</time></trkpt><trkpt lat="43.0361408" lon="11.4087552"><ele>267.0</ele><time>2026-04-02T11:49:52.91Z</time></trkpt><trkpt lat="43.0360411" lon="11.4088979"><ele>267.0</ele><time>2026-04-02T11:49:53.91Z</time></trkpt><trkpt lat="43.0359286" lon="11.4090566"><ele>268.0</ele><time>2026-04-02T11:49:54.91Z</time></trkpt><trkpt lat="43.0358134" lon="11.4092127"><ele>269.0</ele><time>2026-04-02T11:49:55.91Z</time></trkpt><trkpt lat="43.0356851" lon="11.4093688"><ele>270.0</ele><time>2026-04-02T11:49:56.91Z</time></trkpt><trkpt lat="43.0355569" lon="11.4095177"><ele>270.0</ele><time>2026-04-02T11:49:57.91Z</time></trkpt><trkpt lat="43.0354257" lon="11.409651"><ele>270.0</ele><time>2026-04-02T11:49:58.91Z</time></trkpt><trkpt lat="43.0352835" lon="11.4097779"><ele>270.0</ele><time>2026-04-02T11:49:59.91Z</time></trkpt><trkpt lat="43.0351379" lon="11.4098986"><ele>271.0</ele><time>2026-04-02T11:50:00.91Z</time></trkpt><trkpt lat="43.0350024" lon="11.410006"><ele>272.0</ele><time>2026-04-02T11:50:01.91Z</time></trkpt><trkpt lat="43.0348752" lon="11.4101004"><ele>273.0</ele><time>2026-04-02T11:50:02.91Z</time></trkpt><trkpt lat="43.0347611" lon="11.4101773"><ele>274.0</ele><time>2026-04-02T11:50:03.91Z</time></trkpt><trkpt lat="43.0346513" lon="11.410242"><ele>274.0</ele><time>2026-04-02T11:50:04.91Z</time></trkpt><trkpt lat="43.0345333" lon="11.4102957"><ele>274.0</ele><time>2026-04-02T11:50:05.91Z</time></trkpt><trkpt lat="43.0344084" lon="11.4103417"><ele>274.0</ele><time>2026-04-02T11:50:06.91Z</time></trkpt><trkpt lat="43.0342883" lon="11.4103749"><ele>274.0</ele><time>2026-04-02T11:50:07.91Z</time></trkpt><trkpt lat="43.0341641" lon="11.4104048"><ele>272.25</ele><time>2026-04-02T11:50:08.91Z</time></trkpt><trkpt lat="43.034036" lon="11.410422"><ele>270.5</ele><time>2026-04-02T11:50:09.91Z</time></trkpt><trkpt lat="43.0338983" lon="11.4104369"><ele>268.75</ele><time>2026-04-02T11:50:10.91Z</time></trkpt><trkpt lat="43.033765" lon="11.410452"><ele>267.0</ele><time>2026-04-02T11:50:11.909Z</time></trkpt><trkpt lat="43.0336241" lon="11.4104758"><ele>265.6666666666667</ele><time>2026-04-02T11:50:12.91Z</time></trkpt><trkpt lat="43.0334762" lon="11.4105068"><ele>264.33333333333337</ele><time>2026-04-02T11:50:13.91Z</time></trkpt><trkpt lat="43.0333215" lon="11.4105357"><ele>263.0</ele><time>2026-04-02T11:50:14.91Z</time></trkpt><trkpt lat="43.0331773" lon="11.4105643"><ele>263.0</ele><time>2026-04-02T11:50:15.909Z</time></trkpt><trkpt lat="43.0330409" lon="11.4105872"><ele>263.0</ele><time>2026-04-02T11:50:16.91Z</time></trkpt><trkpt lat="43.0329134" lon="11.410606"><ele>263.0</ele><time>2026-04-02T11:50:17.91Z</time></trkpt><trkpt lat="43.0327879" lon="11.4106322"><ele>263.0</ele><time>2026-04-02T11:50:18.91Z</time></trkpt><trkpt lat="43.0326655" lon="11.4106592"><ele>263.0</ele><time>2026-04-02T11:50:19.91Z</time></trkpt><trkpt lat="43.0325383" lon="11.4106959"><ele>263.0</ele><time>2026-04-02T11:50:20.91Z</time></trkpt><trkpt lat="43.0324115" lon="11.410738"><ele>263.0</ele><time>2026-04-02T11:50:21.91Z</time></trkpt><trkpt lat="43.0322861" lon="11.4107891"><ele>263.0</ele><time>2026-04-02T11:50:22.91Z</time></trkpt><trkpt lat="43.0321675" lon="11.4108425"><ele>260.25</ele><time>2026-04-02T11:50:23.909Z</time></trkpt><trkpt lat="43.0320544" lon="11.4108929"><ele>257.5</ele><time>2026-04-02T11:50:24.91Z</time></trkpt><trkpt lat="43.0319401" lon="11.4109451"><ele>254.75</ele><time>2026-04-02T11:50:25.909Z</time></trkpt><trkpt lat="43.0318174" lon="11.4109983"><ele>252.0</ele><time>2026-04-02T11:50:26.91Z</time></trkpt><trkpt lat="43.0316835" lon="11.4110537"><ele>249.75</ele><time>2026-04-02T11:50:27.91Z</time></trkpt><trkpt lat="43.0315385" lon="11.4111135"><ele>247.5</ele><time>2026-04-02T11:50:28.91Z</time></trkpt><trkpt lat="43.0313951" lon="11.4111707"><ele>245.25</ele><time>2026-04-02T11:50:29.91Z</time></trkpt><trkpt lat="43.0312607" lon="11.411231"><ele>243.0</ele><time>2026-04-02T11:50:30.909Z</time></trkpt><trkpt lat="43.0311319" lon="11.4112821"><ele>243.0</ele><time>2026-04-02T11:50:31.91Z</time></trkpt><trkpt lat="43.0310189" lon="11.4113223"><ele>243.0</ele><time>2026-04-02T11:50:32.91Z</time></trkpt><trkpt lat="43.0309156" lon="11.4113578"><ele>243.0</ele><time>2026-04-02T11:50:33.91Z</time></trkpt><trkpt lat="43.0308155" lon="11.411397"><ele>243.0</ele><time>2026-04-02T11:50:34.91Z</time></trkpt><trkpt lat="43.0307178" lon="11.4114538"><ele>243.0</ele><time>2026-04-02T11:50:35.91Z</time></trkpt><trkpt lat="43.0306138" lon="11.4115385"><ele>242.0</ele><time>2026-04-02T11:50:36.91Z</time></trkpt><trkpt lat="43.0305154" lon="11.4116332"><ele>241.0</ele><time>2026-04-02T11:50:37.91Z</time></trkpt><trkpt lat="43.0304231" lon="11.4117243"><ele>240.0</ele><time>2026-04-02T11:50:38.91Z</time></trkpt><trkpt lat="43.0303372" lon="11.4118171"><ele>239.0</ele><time>2026-04-02T11:50:39.91Z</time></trkpt><trkpt lat="43.0302505" lon="11.4119183"><ele>239.0</ele><time>2026-04-02T11:50:40.91Z</time></trkpt><trkpt lat="43.0301653" lon="11.4120325"><ele>239.0</ele><time>2026-04-02T11:50:41.91Z</time></trkpt><trkpt lat="43.0300754" lon="11.4121689"><ele>239.0</ele><time>2026-04-02T11:50:42.91Z</time></trkpt><trkpt lat="43.0299874" lon="11.4123297"><ele>239.0</ele><time>2026-04-02T11:50:43.91Z</time></trkpt><trkpt lat="43.0298985" lon="11.4125026"><ele>239.33333333333334</ele><time>2026-04-02T11:50:44.909Z</time></trkpt><trkpt lat="43.0298045" lon="11.4126834"><ele>239.66666666666669</ele><time>2026-04-02T11:50:45.91Z</time></trkpt><trkpt lat="43.0297049" lon="11.412866"><ele>240.0</ele><time>2026-04-02T11:50:46.91Z</time></trkpt><trkpt lat="43.029599" lon="11.4130547"><ele>240.0</ele><time>2026-04-02T11:50:47.91Z</time></trkpt><trkpt lat="43.029488" lon="11.4132411"><ele>240.0</ele><time>2026-04-02T11:50:48.91Z</time></trkpt><trkpt lat="43.0293785" lon="11.4134303"><ele>240.0</ele><time>2026-04-02T11:50:49.909Z</time></trkpt><trkpt lat="43.0292681" lon="11.4136147"><ele>240.0</ele><time>2026-04-02T11:50:50.91Z</time></trkpt><trkpt lat="43.0291528" lon="11.4138049"><ele>240.0</ele><time>2026-04-02T11:50:51.91Z</time></trkpt><trkpt lat="43.0290364" lon="11.4139987"><ele>240.0</ele><time>2026-04-02T11:50:52.91Z</time></trkpt><trkpt lat="43.0289176" lon="11.4141963"><ele>239.0</ele><time>2026-04-02T11:50:53.91Z</time></trkpt><trkpt lat="43.0288061" lon="11.4143769"><ele>238.0</ele><time>2026-04-02T11:50:54.91Z</time></trkpt><trkpt lat="43.0286963" lon="11.4145528"><ele>237.0</ele><time>2026-04-02T11:50:55.91Z</time></trkpt><trkpt lat="43.0285863" lon="11.4147225"><ele>237.66666666666669</ele><time>2026-04-02T11:50:56.91Z</time></trkpt><trkpt lat="43.0284851" lon="11.4148834"><ele>238.33333333333334</ele><time>2026-04-02T11:50:57.91Z</time></trkpt><trkpt lat="43.0283865" lon="11.4150424"><ele>239.0</ele><time>2026-04-02T11:50:58.91Z</time></trkpt><trkpt lat="43.028291" lon="11.4151976"><ele>239.0</ele><time>2026-04-02T11:50:59.91Z</time></trkpt><trkpt lat="43.0281907" lon="11.4153606"><ele>239.0</ele><time>2026-04-02T11:51:00.91Z</time></trkpt><trkpt lat="43.0280899" lon="11.4155278"><ele>239.0</ele><time>2026-04-02T11:51:01.91Z</time></trkpt><trkpt lat="43.0279905" lon="11.4156977"><ele>241.0</ele><time>2026-04-02T11:51:02.909Z</time></trkpt><trkpt lat="43.0278882" lon="11.4158686"><ele>243.0</ele><time>2026-04-02T11:51:03.91Z</time></trkpt><trkpt lat="43.0277951" lon="11.4160249"><ele>245.0</ele><time>2026-04-02T11:51:04.91Z</time></trkpt><trkpt lat="43.0277017" lon="11.416186"><ele>246.66666666666669</ele><time>2026-04-02T11:51:05.91Z</time></trkpt><trkpt lat="43.0276044" lon="11.4163551"><ele>248.33333333333331</ele><time>2026-04-02T11:51:06.91Z</time></trkpt><trkpt lat="43.0275071" lon="11.4165217"><ele>250.0</ele><time>2026-04-02T11:51:07.91Z</time></trkpt><trkpt lat="43.0274176" lon="11.4166765"><ele>248.75</ele><time>2026-04-02T11:51:08.91Z</time></trkpt><trkpt lat="43.0273293" lon="11.4168292"><ele>247.5</ele><time>2026-04-02T11:51:09.91Z</time></trkpt><trkpt lat="43.0272389" lon="11.4169838"><ele>246.25</ele><time>2026-04-02T11:51:10.91Z</time></trkpt><trkpt lat="43.0271461" lon="11.4171454"><ele>245.0</ele><time>2026-04-02T11:51:11.909Z</time></trkpt><trkpt lat="43.0270464" lon="11.4173098"><ele>245.0</ele><time>2026-04-02T11:51:12.909Z</time></trkpt><trkpt lat="43.0269373" lon="11.4174716"><ele>245.0</ele><time>2026-04-02T11:51:13.91Z</time></trkpt><trkpt lat="43.0268263" lon="11.4176318"><ele>245.0</ele><time>2026-04-02T11:51:14.909Z</time></trkpt><trkpt lat="43.0267241" lon="11.4177724"><ele>245.2</ele><time>2026-04-02T11:51:15.91Z</time></trkpt><trkpt lat="43.0266342" lon="11.4178929"><ele>245.4</ele><time>2026-04-02T11:51:16.91Z</time></trkpt><trkpt lat="43.026554" lon="11.4179953"><ele>245.60000000000002</ele><time>2026-04-02T11:51:17.91Z</time></trkpt><trkpt lat="43.0264842" lon="11.4180834"><ele>245.8</ele><time>2026-04-02T11:51:18.91Z</time></trkpt><trkpt lat="43.0264124" lon="11.4181713"><ele>246.0</ele><time>2026-04-02T11:51:19.91Z</time></trkpt><trkpt lat="43.0263331" lon="11.4182726"><ele>246.0</ele><time>2026-04-02T11:51:20.91Z</time></trkpt><trkpt lat="43.0262375" lon="11.4183909"><ele>246.0</ele><time>2026-04-02T11:51:21.91Z</time></trkpt><trkpt lat="43.026129" lon="11.4185332"><ele>246.0</ele><time>2026-04-02T11:51:22.91Z</time></trkpt><trkpt lat="43.0260134" lon="11.4186857"><ele>246.0</ele><time>2026-04-02T11:51:23.909Z</time></trkpt><trkpt lat="43.0258836" lon="11.4188536"><ele>242.0</ele><time>2026-04-02T11:51:24.91Z</time></trkpt><trkpt lat="43.0257577" lon="11.4190138"><ele>238.0</ele><time>2026-04-02T11:51:25.91Z</time></trkpt><trkpt lat="43.0256387" lon="11.419167"><ele>234.0</ele><time>2026-04-02T11:51:26.91Z</time></trkpt><trkpt lat="43.0255257" lon="11.4193077"><ele>234.0</ele><time>2026-04-02T11:51:27.91Z</time></trkpt><trkpt lat="43.0254137" lon="11.4194446"><ele>234.0</ele><time>2026-04-02T11:51:28.91Z</time></trkpt><trkpt lat="43.0253042" lon="11.4195797"><ele>234.0</ele><time>2026-04-02T11:51:29.91Z</time></trkpt><trkpt lat="43.0252037" lon="11.4197056"><ele>234.0</ele><time>2026-04-02T11:51:30.91Z</time></trkpt><trkpt lat="43.0251042" lon="11.4198184"><ele>233.25</ele><time>2026-04-02T11:51:31.91Z</time></trkpt><trkpt lat="43.0250044" lon="11.4199101"><ele>232.5</ele><time>2026-04-02T11:51:32.91Z</time></trkpt><trkpt lat="43.0249007" lon="11.4199926"><ele>231.75</ele><time>2026-04-02T11:51:33.91Z</time></trkpt><trkpt lat="43.0247731" lon="11.420026"><ele>231.0</ele><time>2026-04-02T11:51:34.91Z</time></trkpt><trkpt lat="43.0246427" lon="11.4200572"><ele>231.0</ele><time>2026-04-02T11:51:35.91Z</time></trkpt><trkpt lat="43.0244824" lon="11.420071"><ele>231.0</ele><time>2026-04-02T11:51:36.91Z</time></trkpt><trkpt lat="43.0243209" lon="11.4200761"><ele>231.0</ele><time>2026-04-02T11:51:37.91Z</time></trkpt><trkpt lat="43.0241616" lon="11.4200876"><ele>229.75</ele><time>2026-04-02T11:51:38.91Z</time></trkpt><trkpt lat="43.0240089" lon="11.4200908"><ele>228.5</ele><time>2026-04-02T11:51:39.91Z</time></trkpt><trkpt lat="43.0238638" lon="11.4200936"><ele>227.25</ele><time>2026-04-02T11:51:40.91Z</time></trkpt><trkpt lat="43.0237255" lon="11.4200878"><ele>226.0</ele><time>2026-04-02T11:51:41.91Z</time></trkpt><trkpt lat="43.023586" lon="11.4200636"><ele>226.0</ele><time>2026-04-02T11:51:42.91Z</time></trkpt><trkpt lat="43.0234435" lon="11.4200186"><ele>226.0</ele><time>2026-04-02T11:51:43.91Z</time></trkpt><trkpt lat="43.0232922" lon="11.4199452"><ele>226.0</ele><time>2026-04-02T11:51:44.91Z</time></trkpt><trkpt lat="43.0231347" lon="11.4198386"><ele>226.33333333333331</ele><time>2026-04-02T11:51:45.909Z</time></trkpt><trkpt lat="43.0229583" lon="11.4197088"><ele>226.66666666666669</ele><time>2026-04-02T11:51:46.91Z</time></trkpt><trkpt lat="43.0227931" lon="11.4195777"><ele>227.0</ele><time>2026-04-02T11:51:47.909Z</time></trkpt><trkpt lat="43.0226311" lon="11.4194502"><ele>226.0</ele><time>2026-04-02T11:51:48.91Z</time></trkpt><trkpt lat="43.0224761" lon="11.4193303"><ele>225.0</ele><time>2026-04-02T11:51:49.91Z</time></trkpt><trkpt lat="43.0223321" lon="11.4192154"><ele>224.0</ele><time>2026-04-02T11:51:50.91Z</time></trkpt><trkpt lat="43.0221944" lon="11.4191083"><ele>224.0</ele><time>2026-04-02T11:51:51.91Z</time></trkpt><trkpt lat="43.0220683" lon="11.4190149"><ele>224.0</ele><time>2026-04-02T11:51:52.91Z</time></trkpt><trkpt lat="43.0219472" lon="11.4189365"><ele>224.0</ele><time>2026-04-02T11:51:53.91Z</time></trkpt><trkpt lat="43.0218329" lon="11.4188717"><ele>224.0</ele><time>2026-04-02T11:51:54.91Z</time></trkpt><trkpt lat="43.0217203" lon="11.4188126"><ele>223.0</ele><time>2026-04-02T11:51:55.91Z</time></trkpt><trkpt lat="43.0216112" lon="11.4187627"><ele>221.99999999999997</ele><time>2026-04-02T11:51:56.91Z</time></trkpt><trkpt lat="43.0215087" lon="11.4187235"><ele>220.99999999999997</ele><time>2026-04-02T11:51:57.91Z</time></trkpt><trkpt lat="43.0214213" lon="11.4186942"><ele>220.0</ele><time>2026-04-02T11:51:58.91Z</time></trkpt><trkpt lat="43.0213436" lon="11.4186673"><ele>219.0</ele><time>2026-04-02T11:51:59.91Z</time></trkpt><trkpt lat="43.0212786" lon="11.4186514"><ele>219.0</ele><time>2026-04-02T11:52:00.91Z</time></trkpt><trkpt lat="43.0211851" lon="11.4186177"><ele>219.0</ele><time>2026-04-02T11:52:02.91Z</time></trkpt><trkpt lat="43.0211227" lon="11.4185991"><ele>219.0</ele><time>2026-04-02T11:52:04.91Z</time></trkpt><trkpt lat="43.0210623" lon="11.4186356"><ele>219.0</ele><time>2026-04-02T11:53:26.91Z</time></trkpt><trkpt lat="43.0210839" lon="11.4187242"><ele>219.0</ele><time>2026-04-02T11:53:53.909Z</time></trkpt><trkpt lat="43.0211464" lon="11.4188304"><ele>219.0</ele><time>2026-04-02T11:55:32.91Z</time></trkpt><trkpt lat="43.0211953" lon="11.4189092"><ele>220.6</ele><time>2026-04-02T11:55:33.91Z</time></trkpt><trkpt lat="43.0212463" lon="11.4189958"><ele>222.2</ele><time>2026-04-02T11:55:34.91Z</time></trkpt><trkpt lat="43.0213012" lon="11.4190994"><ele>223.79999999999998</ele><time>2026-04-02T11:55:35.91Z</time></trkpt><trkpt lat="43.0213666" lon="11.4192223"><ele>225.39999999999998</ele><time>2026-04-02T11:55:36.91Z</time></trkpt><trkpt lat="43.0214337" lon="11.4193404"><ele>227.0</ele><time>2026-04-02T11:55:37.91Z</time></trkpt><trkpt lat="43.0215108" lon="11.4194658"><ele>227.0</ele><time>2026-04-02T11:55:38.91Z</time></trkpt><trkpt lat="43.0215903" lon="11.4195999"><ele>227.0</ele><time>2026-04-02T11:55:39.909Z</time></trkpt><trkpt lat="43.0216666" lon="11.4197408"><ele>227.0</ele><time>2026-04-02T11:55:40.91Z</time></trkpt><trkpt lat="43.0217491" lon="11.4198885"><ele>227.0</ele><time>2026-04-02T11:55:41.91Z</time></trkpt><trkpt lat="43.0218333" lon="11.4200369"><ele>228.25</ele><time>2026-04-02T11:55:42.91Z</time></trkpt><trkpt lat="43.0219173" lon="11.4201779"><ele>229.5</ele><time>2026-04-02T11:55:43.91Z</time></trkpt><trkpt lat="43.0219947" lon="11.4203171"><ele>230.75</ele><time>2026-04-02T11:55:44.91Z</time></trkpt><trkpt lat="43.0220725" lon="11.4204496"><ele>232.0</ele><time>2026-04-02T11:55:45.91Z</time></trkpt><trkpt lat="43.0221462" lon="11.4205822"><ele>232.0</ele><time>2026-04-02T11:55:46.91Z</time></trkpt><trkpt lat="43.0222078" lon="11.4207106"><ele>232.0</ele><time>2026-04-02T11:55:47.909Z</time></trkpt><trkpt lat="43.0222582" lon="11.4208424"><ele>232.0</ele><time>2026-04-02T11:55:48.91Z</time></trkpt><trkpt lat="43.0222942" lon="11.4209864"><ele>232.0</ele><time>2026-04-02T11:55:49.91Z</time></trkpt><trkpt lat="43.0223033" lon="11.4211355"><ele>232.0</ele><time>2026-04-02T11:55:50.91Z</time></trkpt><trkpt lat="43.0222918" lon="11.4212913"><ele>229.5</ele><time>2026-04-02T11:55:51.91Z</time></trkpt><trkpt lat="43.0222561" lon="11.4214556"><ele>227.0</ele><time>2026-04-02T11:55:52.91Z</time></trkpt><trkpt lat="43.0221961" lon="11.421633"><ele>224.5</ele><time>2026-04-02T11:55:53.909Z</time></trkpt><trkpt lat="43.0221217" lon="11.4218163"><ele>222.0</ele><time>2026-04-02T11:55:54.91Z</time></trkpt><trkpt lat="43.0220343" lon="11.4220234"><ele>220.0</ele><time>2026-04-02T11:55:55.91Z</time></trkpt><trkpt lat="43.0219399" lon="11.4222451"><ele>218.0</ele><time>2026-04-02T11:55:56.909Z</time></trkpt><trkpt lat="43.0218496" lon="11.4224666"><ele>216.0</ele><time>2026-04-02T11:55:57.91Z</time></trkpt><trkpt lat="43.0217625" lon="11.4226786"><ele>216.0</ele><time>2026-04-02T11:55:58.91Z</time></trkpt><trkpt lat="43.0216781" lon="11.4228882"><ele>216.0</ele><time>2026-04-02T11:55:59.909Z</time></trkpt><trkpt lat="43.0215922" lon="11.4230924"><ele>216.0</ele><time>2026-04-02T11:56:00.91Z</time></trkpt><trkpt lat="43.0215048" lon="11.4232926"><ele>216.66666666666669</ele><time>2026-04-02T11:56:01.91Z</time></trkpt><trkpt lat="43.0214097" lon="11.4234897"><ele>217.33333333333334</ele><time>2026-04-02T11:56:02.91Z</time></trkpt><trkpt lat="43.0212976" lon="11.423685"><ele>218.0</ele><time>2026-04-02T11:56:03.91Z</time></trkpt><trkpt lat="43.021168" lon="11.4238674"><ele>218.0</ele><time>2026-04-02T11:56:04.91Z</time></trkpt><trkpt lat="43.0210323" lon="11.4240382"><ele>218.0</ele><time>2026-04-02T11:56:05.91Z</time></trkpt><trkpt lat="43.0208928" lon="11.424202"><ele>218.0</ele><time>2026-04-02T11:56:06.91Z</time></trkpt><trkpt lat="43.0207562" lon="11.4243475"><ele>218.33333333333334</ele><time>2026-04-02T11:56:07.91Z</time></trkpt><trkpt lat="43.0206256" lon="11.4244911"><ele>218.66666666666669</ele><time>2026-04-02T11:56:08.91Z</time></trkpt><trkpt lat="43.0205011" lon="11.4246457"><ele>219.0</ele><time>2026-04-02T11:56:09.91Z</time></trkpt><trkpt lat="43.0203867" lon="11.4248043"><ele>221.66666666666669</ele><time>2026-04-02T11:56:10.91Z</time></trkpt><trkpt lat="43.0202824" lon="11.424976"><ele>224.33333333333334</ele><time>2026-04-02T11:56:11.91Z</time></trkpt><trkpt lat="43.0201829" lon="11.4251595"><ele>227.0</ele><time>2026-04-02T11:56:12.91Z</time></trkpt><trkpt lat="43.0200875" lon="11.4253553"><ele>230.0</ele><time>2026-04-02T11:56:13.91Z</time></trkpt><trkpt lat="43.0199938" lon="11.4255556"><ele>233.0</ele><time>2026-04-02T11:56:14.91Z</time></trkpt><trkpt lat="43.0198955" lon="11.4257658"><ele>236.0</ele><time>2026-04-02T11:56:15.91Z</time></trkpt><trkpt lat="43.0197957" lon="11.4259788"><ele>237.33333333333334</ele><time>2026-04-02T11:56:16.91Z</time></trkpt><trkpt lat="43.0196992" lon="11.4261911"><ele>238.66666666666669</ele><time>2026-04-02T11:56:17.91Z</time></trkpt><trkpt lat="43.0195996" lon="11.4264055"><ele>240.0</ele><time>2026-04-02T11:56:18.909Z</time></trkpt><trkpt lat="43.0195029" lon="11.4266196"><ele>241.33333333333331</ele><time>2026-04-02T11:56:19.91Z</time></trkpt><trkpt lat="43.0194094" lon="11.4268284"><ele>242.66666666666666</ele><time>2026-04-02T11:56:20.91Z</time></trkpt><trkpt lat="43.0193178" lon="11.4270403"><ele>244.0</ele><time>2026-04-02T11:56:21.91Z</time></trkpt><trkpt lat="43.0192277" lon="11.4272467"><ele>247.66666666666666</ele><time>2026-04-02T11:56:22.91Z</time></trkpt><trkpt lat="43.019141" lon="11.4274473"><ele>251.33333333333331</ele><time>2026-04-02T11:56:23.91Z</time></trkpt><trkpt lat="43.0190625" lon="11.4276449"><ele>255.0</ele><time>2026-04-02T11:56:24.91Z</time></trkpt><trkpt lat="43.0189856" lon="11.4278407"><ele>254.25</ele><time>2026-04-02T11:56:25.91Z</time></trkpt><trkpt lat="43.0189179" lon="11.4280375"><ele>253.5</ele><time>2026-04-02T11:56:26.91Z</time></trkpt><trkpt lat="43.0188582" lon="11.4282206"><ele>252.75</ele><time>2026-04-02T11:56:27.91Z</time></trkpt><trkpt lat="43.0188021" lon="11.4283932"><ele>252.0</ele><time>2026-04-02T11:56:28.91Z</time></trkpt><trkpt lat="43.0187478" lon="11.428568"><ele>252.0</ele><time>2026-04-02T11:56:29.91Z</time></trkpt><trkpt lat="43.0186959" lon="11.4287457"><ele>252.0</ele><time>2026-04-02T11:56:30.91Z</time></trkpt><trkpt lat="43.0186404" lon="11.4289327"><ele>252.0</ele><time>2026-04-02T11:56:31.91Z</time></trkpt><trkpt lat="43.0185862" lon="11.4291283"><ele>252.0</ele><time>2026-04-02T11:56:32.909Z</time></trkpt><trkpt lat="43.0185315" lon="11.4293327"><ele>251.33333333333331</ele><time>2026-04-02T11:56:33.91Z</time></trkpt><trkpt lat="43.0184713" lon="11.4295406"><ele>250.66666666666666</ele><time>2026-04-02T11:56:34.91Z</time></trkpt><trkpt lat="43.0184088" lon="11.4297569"><ele>250.0</ele><time>2026-04-02T11:56:35.91Z</time></trkpt><trkpt lat="43.018345" lon="11.4299709"><ele>249.33333333333331</ele><time>2026-04-02T11:56:36.91Z</time></trkpt><trkpt lat="43.018281" lon="11.4301808"><ele>248.66666666666669</ele><time>2026-04-02T11:56:37.91Z</time></trkpt><trkpt lat="43.0182194" lon="11.4303823"><ele>248.0</ele><time>2026-04-02T11:56:38.91Z</time></trkpt><trkpt lat="43.018164" lon="11.4305821"><ele>246.0</ele><time>2026-04-02T11:56:39.909Z</time></trkpt><trkpt lat="43.0181029" lon="11.4307898"><ele>244.0</ele><time>2026-04-02T11:56:40.91Z</time></trkpt><trkpt lat="43.0180423" lon="11.4309942"><ele>242.0</ele><time>2026-04-02T11:56:41.91Z</time></trkpt><trkpt lat="43.0179807" lon="11.4312077"><ele>241.0</ele><time>2026-04-02T11:56:42.91Z</time></trkpt><trkpt lat="43.0179184" lon="11.4314204"><ele>240.0</ele><time>2026-04-02T11:56:43.91Z</time></trkpt><trkpt lat="43.0178561" lon="11.4316391"><ele>239.0</ele><time>2026-04-02T11:56:44.909Z</time></trkpt><trkpt lat="43.0177926" lon="11.4318551"><ele>239.0</ele><time>2026-04-02T11:56:45.91Z</time></trkpt><trkpt lat="43.0177304" lon="11.4320669"><ele>239.0</ele><time>2026-04-02T11:56:46.91Z</time></trkpt><trkpt lat="43.0176671" lon="11.4322795"><ele>239.0</ele><time>2026-04-02T11:56:47.91Z</time></trkpt><trkpt lat="43.0176033" lon="11.4324927"><ele>239.0</ele><time>2026-04-02T11:56:48.91Z</time></trkpt><trkpt lat="43.0175415" lon="11.4327057"><ele>239.0</ele><time>2026-04-02T11:56:49.91Z</time></trkpt><trkpt lat="43.0174765" lon="11.432921"><ele>239.0</ele><time>2026-04-02T11:56:50.91Z</time></trkpt><trkpt lat="43.0174122" lon="11.4331403"><ele>240.33333333333334</ele><time>2026-04-02T11:56:51.91Z</time></trkpt><trkpt lat="43.0173469" lon="11.4333628"><ele>241.66666666666669</ele><time>2026-04-02T11:56:52.91Z</time></trkpt><trkpt lat="43.017282" lon="11.4335884"><ele>243.0</ele><time>2026-04-02T11:56:53.91Z</time></trkpt><trkpt lat="43.0172158" lon="11.4338113"><ele>245.0</ele><time>2026-04-02T11:56:54.91Z</time></trkpt><trkpt lat="43.0171466" lon="11.4340251"><ele>247.0</ele><time>2026-04-02T11:56:55.91Z</time></trkpt><trkpt lat="43.0170799" lon="11.4342393"><ele>249.0</ele><time>2026-04-02T11:56:56.91Z</time></trkpt><trkpt lat="43.0170165" lon="11.4344445"><ele>249.66666666666669</ele><time>2026-04-02T11:56:57.91Z</time></trkpt><trkpt lat="43.016954" lon="11.4346515"><ele>250.33333333333334</ele><time>2026-04-02T11:56:58.91Z</time></trkpt><trkpt lat="43.016891" lon="11.4348613"><ele>251.0</ele><time>2026-04-02T11:56:59.909Z</time></trkpt><trkpt lat="43.0168284" lon="11.4350671"><ele>251.0</ele><time>2026-04-02T11:57:00.909Z</time></trkpt><trkpt lat="43.0167683" lon="11.4352711"><ele>251.0</ele><time>2026-04-02T11:57:01.91Z</time></trkpt><trkpt lat="43.0167104" lon="11.4354783"><ele>251.0</ele><time>2026-04-02T11:57:02.91Z</time></trkpt><trkpt lat="43.0166543" lon="11.4356831"><ele>252.66666666666669</ele><time>2026-04-02T11:57:03.91Z</time></trkpt><trkpt lat="43.016592" lon="11.4358885"><ele>254.33333333333331</ele><time>2026-04-02T11:57:04.91Z</time></trkpt><trkpt lat="43.0165306" lon="11.4360925"><ele>256.0</ele><time>2026-04-02T11:57:05.91Z</time></trkpt><trkpt lat="43.0164685" lon="11.4362986"><ele>257.0</ele><time>2026-04-02T11:57:06.91Z</time></trkpt><trkpt lat="43.0164089" lon="11.4365071"><ele>258.0</ele><time>2026-04-02T11:57:07.91Z</time></trkpt><trkpt lat="43.0163489" lon="11.4367167"><ele>259.0</ele><time>2026-04-02T11:57:08.91Z</time></trkpt><trkpt lat="43.0162923" lon="11.4369263"><ele>259.0</ele><time>2026-04-02T11:57:09.91Z</time></trkpt><trkpt lat="43.0162268" lon="11.437133"><ele>259.0</ele><time>2026-04-02T11:57:10.91Z</time></trkpt><trkpt lat="43.016168" lon="11.4373384"><ele>259.0</ele><time>2026-04-02T11:57:11.91Z</time></trkpt><trkpt lat="43.0161116" lon="11.4375223"><ele>260.5</ele><time>2026-04-02T11:57:12.91Z</time></trkpt><trkpt lat="43.0160596" lon="11.4376983"><ele>262.0</ele><time>2026-04-02T11:57:13.91Z</time></trkpt><trkpt lat="43.0160114" lon="11.4378646"><ele>263.5</ele><time>2026-04-02T11:57:14.91Z</time></trkpt><trkpt lat="43.0159647" lon="11.4380242"><ele>265.0</ele><time>2026-04-02T11:57:15.91Z</time></trkpt><trkpt lat="43.0159236" lon="11.4381712"><ele>265.8333333333333</ele><time>2026-04-02T11:57:16.91Z</time></trkpt><trkpt lat="43.0158854" lon="11.4383065"><ele>266.66666666666663</ele><time>2026-04-02T11:57:17.91Z</time></trkpt><trkpt lat="43.0158476" lon="11.4384347"><ele>267.5</ele><time>2026-04-02T11:57:18.91Z</time></trkpt><trkpt lat="43.0158114" lon="11.4385489"><ele>268.3333333333333</ele><time>2026-04-02T11:57:19.91Z</time></trkpt><trkpt lat="43.0157657" lon="11.4386327"><ele>269.1666666666667</ele><time>2026-04-02T11:57:20.91Z</time></trkpt><trkpt lat="43.0157191" lon="11.4386954"><ele>270.0</ele><time>2026-04-02T11:57:21.91Z</time></trkpt><trkpt lat="43.0156235" lon="11.4387354"><ele>270.6666666666667</ele><time>2026-04-02T11:57:23.909Z</time></trkpt><trkpt lat="43.0155512" lon="11.4386512"><ele>271.3333333333333</ele><time>2026-04-02T11:57:25.91Z</time></trkpt><trkpt lat="43.0155158" lon="11.4385718"><ele>272.0</ele><time>2026-04-02T11:57:26.91Z</time></trkpt><trkpt lat="43.0154769" lon="11.4384808"><ele>272.66666666666663</ele><time>2026-04-02T11:57:27.91Z</time></trkpt><trkpt lat="43.0154411" lon="11.4383927"><ele>273.3333333333333</ele><time>2026-04-02T11:57:28.91Z</time></trkpt><trkpt lat="43.0154089" lon="11.4383174"><ele>274.0</ele><time>2026-04-02T11:57:29.91Z</time></trkpt><trkpt lat="43.0153631" lon="11.4382152"><ele>274.0</ele><time>2026-04-02T11:57:31.91Z</time></trkpt><trkpt lat="43.0153663" lon="11.4383046"><ele>274.0</ele><time>2026-04-02T11:57:48.91Z</time></trkpt><trkpt lat="43.0154325" lon="11.4383442"><ele>274.0</ele><time>2026-04-02T11:59:48.91Z</time></trkpt><trkpt lat="43.0154911" lon="11.4384815"><ele>274.0</ele><time>2026-04-02T11:59:50.91Z</time></trkpt><trkpt lat="43.0155235" lon="11.4385634"><ele>274.0</ele><time>2026-04-02T11:59:52.91Z</time></trkpt><trkpt lat="43.0154439" lon="11.4384742"><ele>274.0</ele><time>2026-04-02T11:59:58.91Z</time></trkpt><trkpt lat="43.0154095" lon="11.4383796"><ele>274.0</ele><time>2026-04-02T11:59:59.91Z</time></trkpt><trkpt lat="43.0153661" lon="11.4382681"><ele>274.0</ele><time>2026-04-02T12:00:00.91Z</time></trkpt><trkpt lat="43.0153107" lon="11.4381461"><ele>274.0</ele><time>2026-04-02T12:00:01.91Z</time></trkpt><trkpt lat="43.0152368" lon="11.4379977"><ele>274.0</ele><time>2026-04-02T12:00:02.91Z</time></trkpt><trkpt lat="43.0151652" lon="11.4378423"><ele>272.5</ele><time>2026-04-02T12:00:03.91Z</time></trkpt><trkpt lat="43.0151042" lon="11.4376936"><ele>271.0</ele><time>2026-04-02T12:00:04.91Z</time></trkpt><trkpt lat="43.0150473" lon="11.4375423"><ele>269.5</ele><time>2026-04-02T12:00:05.91Z</time></trkpt><trkpt lat="43.0149967" lon="11.4373801"><ele>268.0</ele><time>2026-04-02T12:00:06.91Z</time></trkpt><trkpt lat="43.0149573" lon="11.4372095"><ele>265.75</ele><time>2026-04-02T12:00:07.91Z</time></trkpt><trkpt lat="43.0149293" lon="11.4370338"><ele>263.5</ele><time>2026-04-02T12:00:08.91Z</time></trkpt><trkpt lat="43.0149104" lon="11.4368416"><ele>261.25</ele><time>2026-04-02T12:00:09.91Z</time></trkpt><trkpt lat="43.0148954" lon="11.4366378"><ele>259.0</ele><time>2026-04-02T12:00:10.909Z</time></trkpt><trkpt lat="43.0148832" lon="11.4364454"><ele>258.5</ele><time>2026-04-02T12:00:11.91Z</time></trkpt><trkpt lat="43.0148712" lon="11.4362612"><ele>258.0</ele><time>2026-04-02T12:00:12.91Z</time></trkpt><trkpt lat="43.014866" lon="11.4360736"><ele>257.5</ele><time>2026-04-02T12:00:13.91Z</time></trkpt><trkpt lat="43.0148574" lon="11.4358651"><ele>257.0</ele><time>2026-04-02T12:00:14.91Z</time></trkpt><trkpt lat="43.0148477" lon="11.4356753"><ele>257.0</ele><time>2026-04-02T12:00:15.909Z</time></trkpt><trkpt lat="43.0148361" lon="11.4354868"><ele>257.0</ele><time>2026-04-02T12:00:16.91Z</time></trkpt><trkpt lat="43.0148192" lon="11.4352945"><ele>257.0</ele><time>2026-04-02T12:00:17.91Z</time></trkpt><trkpt lat="43.0148011" lon="11.4351051"><ele>257.0</ele><time>2026-04-02T12:00:18.91Z</time></trkpt><trkpt lat="43.0147813" lon="11.4349224"><ele>256.75</ele><time>2026-04-02T12:00:19.91Z</time></trkpt><trkpt lat="43.0147625" lon="11.4347544"><ele>256.5</ele><time>2026-04-02T12:00:20.91Z</time></trkpt><trkpt lat="43.014744" lon="11.4345934"><ele>256.25</ele><time>2026-04-02T12:00:21.91Z</time></trkpt><trkpt lat="43.0147252" lon="11.4344451"><ele>256.0</ele><time>2026-04-02T12:00:22.91Z</time></trkpt><trkpt lat="43.0147092" lon="11.4343017"><ele>255.8</ele><time>2026-04-02T12:00:23.91Z</time></trkpt><trkpt lat="43.0146992" lon="11.4341586"><ele>255.60000000000002</ele><time>2026-04-02T12:00:24.91Z</time></trkpt><trkpt lat="43.0146971" lon="11.4340024"><ele>255.4</ele><time>2026-04-02T12:00:25.91Z</time></trkpt><trkpt lat="43.0147096" lon="11.4338521"><ele>255.2</ele><time>2026-04-02T12:00:26.91Z</time></trkpt><trkpt lat="43.0147385" lon="11.4337072"><ele>255.0</ele><time>2026-04-02T12:00:27.91Z</time></trkpt><trkpt lat="43.0147837" lon="11.4335605"><ele>254.0</ele><time>2026-04-02T12:00:28.91Z</time></trkpt><trkpt lat="43.0148355" lon="11.4334226"><ele>253.0</ele><time>2026-04-02T12:00:29.91Z</time></trkpt><trkpt lat="43.0148872" lon="11.4332906"><ele>252.0</ele><time>2026-04-02T12:00:30.91Z</time></trkpt><trkpt lat="43.014933" lon="11.4331458"><ele>251.0</ele><time>2026-04-02T12:00:31.91Z</time></trkpt><trkpt lat="43.0149671" lon="11.4329916"><ele>250.25</ele><time>2026-04-02T12:00:32.909Z</time></trkpt><trkpt lat="43.014983" lon="11.432833"><ele>249.5</ele><time>2026-04-02T12:00:33.91Z</time></trkpt><trkpt lat="43.0149808" lon="11.4326543"><ele>248.75</ele><time>2026-04-02T12:00:34.91Z</time></trkpt><trkpt lat="43.0149592" lon="11.4324591"><ele>248.0</ele><time>2026-04-02T12:00:35.91Z</time></trkpt><trkpt lat="43.0149246" lon="11.4322429"><ele>247.25</ele><time>2026-04-02T12:00:36.91Z</time></trkpt><trkpt lat="43.014892" lon="11.4320381"><ele>246.5</ele><time>2026-04-02T12:00:37.91Z</time></trkpt><trkpt lat="43.0148575" lon="11.4318384"><ele>245.75</ele><time>2026-04-02T12:00:38.91Z</time></trkpt><trkpt lat="43.0148245" lon="11.4316451"><ele>245.0</ele><time>2026-04-02T12:00:39.91Z</time></trkpt><trkpt lat="43.0147934" lon="11.4314586"><ele>243.75</ele><time>2026-04-02T12:00:40.91Z</time></trkpt><trkpt lat="43.0147586" lon="11.4312773"><ele>242.5</ele><time>2026-04-02T12:00:41.91Z</time></trkpt><trkpt lat="43.0147197" lon="11.4311049"><ele>241.25</ele><time>2026-04-02T12:00:42.91Z</time></trkpt><trkpt lat="43.014674" lon="11.4309501"><ele>240.0</ele><time>2026-04-02T12:00:43.91Z</time></trkpt><trkpt lat="43.0146148" lon="11.4308097"><ele>240.0</ele><time>2026-04-02T12:00:44.909Z</time></trkpt><trkpt lat="43.0145425" lon="11.4306894"><ele>240.0</ele><time>2026-04-02T12:00:45.91Z</time></trkpt><trkpt lat="43.0144531" lon="11.4306"><ele>240.0</ele><time>2026-04-02T12:00:46.91Z</time></trkpt><trkpt lat="43.0143484" lon="11.4305322"><ele>240.0</ele><time>2026-04-02T12:00:47.91Z</time></trkpt><trkpt lat="43.0142444" lon="11.430462"><ele>239.0</ele><time>2026-04-02T12:00:48.91Z</time></trkpt><trkpt lat="43.0141547" lon="11.430364"><ele>238.0</ele><time>2026-04-02T12:00:49.91Z</time></trkpt><trkpt lat="43.0140699" lon="11.4302364"><ele>237.0</ele><time>2026-04-02T12:00:50.91Z</time></trkpt><trkpt lat="43.014002" lon="11.4300788"><ele>236.0</ele><time>2026-04-02T12:00:51.91Z</time></trkpt><trkpt lat="43.0139505" lon="11.429897"><ele>236.0</ele><time>2026-04-02T12:00:52.91Z</time></trkpt><trkpt lat="43.0139076" lon="11.4297221"><ele>236.0</ele><time>2026-04-02T12:00:53.91Z</time></trkpt><trkpt lat="43.0138606" lon="11.4295589"><ele>236.0</ele><time>2026-04-02T12:00:54.91Z</time></trkpt><trkpt lat="43.013809" lon="11.4294058"><ele>236.0</ele><time>2026-04-02T12:00:55.91Z</time></trkpt><trkpt lat="43.0137371" lon="11.4292703"><ele>234.5</ele><time>2026-04-02T12:00:56.91Z</time></trkpt><trkpt lat="43.013642" lon="11.4291619"><ele>233.0</ele><time>2026-04-02T12:00:57.91Z</time></trkpt><trkpt lat="43.0135217" lon="11.4290676"><ele>231.5</ele><time>2026-04-02T12:00:58.91Z</time></trkpt><trkpt lat="43.0133861" lon="11.428982"><ele>230.0</ele><time>2026-04-02T12:00:59.91Z</time></trkpt><trkpt lat="43.0132338" lon="11.4289026"><ele>230.0</ele><time>2026-04-02T12:01:00.91Z</time></trkpt><trkpt lat="43.0130702" lon="11.4288279"><ele>230.0</ele><time>2026-04-02T12:01:01.91Z</time></trkpt><trkpt lat="43.0129023" lon="11.4287552"><ele>230.0</ele><time>2026-04-02T12:01:02.91Z</time></trkpt><trkpt lat="43.0127345" lon="11.4286913"><ele>229.33333333333334</ele><time>2026-04-02T12:01:03.91Z</time></trkpt><trkpt lat="43.012586" lon="11.4286298"><ele>228.66666666666669</ele><time>2026-04-02T12:01:04.91Z</time></trkpt><trkpt lat="43.012451" lon="11.4285563"><ele>228.0</ele><time>2026-04-02T12:01:05.91Z</time></trkpt><trkpt lat="43.0123122" lon="11.428462"><ele>228.0</ele><time>2026-04-02T12:01:06.909Z</time></trkpt><trkpt lat="43.0121701" lon="11.4283377"><ele>228.0</ele><time>2026-04-02T12:01:07.91Z</time></trkpt><trkpt lat="43.0120201" lon="11.428199"><ele>228.0</ele><time>2026-04-02T12:01:08.91Z</time></trkpt><trkpt lat="43.011872" lon="11.4280606"><ele>227.33333333333331</ele><time>2026-04-02T12:01:09.91Z</time></trkpt><trkpt lat="43.0117423" lon="11.4279323"><ele>226.66666666666666</ele><time>2026-04-02T12:01:10.91Z</time></trkpt><trkpt lat="43.0116241" lon="11.4278048"><ele>226.0</ele><time>2026-04-02T12:01:11.91Z</time></trkpt><trkpt lat="43.0115041" lon="11.4276721"><ele>226.0</ele><time>2026-04-02T12:01:12.91Z</time></trkpt><trkpt lat="43.0113891" lon="11.427514"><ele>226.0</ele><time>2026-04-02T12:01:13.91Z</time></trkpt><trkpt lat="43.0112773" lon="11.4273278"><ele>226.0</ele><time>2026-04-02T12:01:14.91Z</time></trkpt><trkpt lat="43.0111662" lon="11.4271256"><ele>227.33333333333331</ele><time>2026-04-02T12:01:15.909Z</time></trkpt><trkpt lat="43.0110601" lon="11.4269025"><ele>228.66666666666669</ele><time>2026-04-02T12:01:16.91Z</time></trkpt><trkpt lat="43.0109568" lon="11.4266885"><ele>230.0</ele><time>2026-04-02T12:01:17.91Z</time></trkpt><trkpt lat="43.0108448" lon="11.4264731"><ele>229.0</ele><time>2026-04-02T12:01:18.91Z</time></trkpt><trkpt lat="43.0107365" lon="11.4262719"><ele>228.0</ele><time>2026-04-02T12:01:19.91Z</time></trkpt><trkpt lat="43.0106396" lon="11.4260925"><ele>227.0</ele><time>2026-04-02T12:01:20.91Z</time></trkpt><trkpt lat="43.0105485" lon="11.4259213"><ele>227.0</ele><time>2026-04-02T12:01:21.909Z</time></trkpt><trkpt lat="43.010468" lon="11.4257621"><ele>227.0</ele><time>2026-04-02T12:01:22.91Z</time></trkpt><trkpt lat="43.0104018" lon="11.4255944"><ele>227.0</ele><time>2026-04-02T12:01:23.91Z</time></trkpt><trkpt lat="43.0103448" lon="11.4253996"><ele>227.0</ele><time>2026-04-02T12:01:24.909Z</time></trkpt><trkpt lat="43.0102957" lon="11.4251837"><ele>226.0</ele><time>2026-04-02T12:01:25.91Z</time></trkpt><trkpt lat="43.0102494" lon="11.4249467"><ele>225.0</ele><time>2026-04-02T12:01:26.91Z</time></trkpt><trkpt lat="43.0101975" lon="11.4247004"><ele>224.0</ele><time>2026-04-02T12:01:27.91Z</time></trkpt><trkpt lat="43.0101502" lon="11.4244581"><ele>223.0</ele><time>2026-04-02T12:01:28.909Z</time></trkpt><trkpt lat="43.0101069" lon="11.424223"><ele>222.0</ele><time>2026-04-02T12:01:29.909Z</time></trkpt><trkpt lat="43.01006" lon="11.4239832"><ele>221.0</ele><time>2026-04-02T12:01:30.91Z</time></trkpt><trkpt lat="43.0100055" lon="11.4237436"><ele>219.0</ele><time>2026-04-02T12:01:31.91Z</time></trkpt><trkpt lat="43.00995" lon="11.4235064"><ele>217.0</ele><time>2026-04-02T12:01:32.91Z</time></trkpt><trkpt lat="43.0098946" lon="11.423276"><ele>215.0</ele><time>2026-04-02T12:01:33.91Z</time></trkpt><trkpt lat="43.0098223" lon="11.4230476"><ele>215.0</ele><time>2026-04-02T12:01:34.91Z</time></trkpt><trkpt lat="43.0097447" lon="11.4228126"><ele>215.0</ele><time>2026-04-02T12:01:35.91Z</time></trkpt><trkpt lat="43.0096647" lon="11.4225635"><ele>215.0</ele><time>2026-04-02T12:01:36.91Z</time></trkpt><trkpt lat="43.0095881" lon="11.4223268"><ele>216.33333333333334</ele><time>2026-04-02T12:01:37.91Z</time></trkpt><trkpt lat="43.0095158" lon="11.4221038"><ele>217.66666666666669</ele><time>2026-04-02T12:01:38.91Z</time></trkpt><trkpt lat="43.0094501" lon="11.4218988"><ele>219.0</ele><time>2026-04-02T12:01:39.91Z</time></trkpt><trkpt lat="43.0093834" lon="11.4217113"><ele>219.0</ele><time>2026-04-02T12:01:40.91Z</time></trkpt><trkpt lat="43.0093108" lon="11.4215484"><ele>219.0</ele><time>2026-04-02T12:01:41.91Z</time></trkpt><trkpt lat="43.0092144" lon="11.4213989"><ele>219.0</ele><time>2026-04-02T12:01:42.91Z</time></trkpt><trkpt lat="43.009095" lon="11.4212748"><ele>219.0</ele><time>2026-04-02T12:01:43.91Z</time></trkpt><trkpt lat="43.0089545" lon="11.4211717"><ele>221.33333333333331</ele><time>2026-04-02T12:01:44.91Z</time></trkpt><trkpt lat="43.0088102" lon="11.4210695"><ele>223.66666666666666</ele><time>2026-04-02T12:01:45.91Z</time></trkpt><trkpt lat="43.0086634" lon="11.4209614"><ele>226.0</ele><time>2026-04-02T12:01:46.91Z</time></trkpt><trkpt lat="43.0085195" lon="11.4208486"><ele>226.0</ele><time>2026-04-02T12:01:47.91Z</time></trkpt><trkpt lat="43.0083697" lon="11.4207263"><ele>226.0</ele><time>2026-04-02T12:01:48.91Z</time></trkpt><trkpt lat="43.0082172" lon="11.420603"><ele>226.0</ele><time>2026-04-02T12:01:49.91Z</time></trkpt><trkpt lat="43.0080655" lon="11.4204786"><ele>228.66666666666666</ele><time>2026-04-02T12:01:50.909Z</time></trkpt><trkpt lat="43.0079125" lon="11.4203496"><ele>231.33333333333331</ele><time>2026-04-02T12:01:51.909Z</time></trkpt><trkpt lat="43.0077577" lon="11.4202171"><ele>234.0</ele><time>2026-04-02T12:01:52.91Z</time></trkpt><trkpt lat="43.0076148" lon="11.420096"><ele>233.75</ele><time>2026-04-02T12:01:53.91Z</time></trkpt><trkpt lat="43.0074905" lon="11.4199851"><ele>233.5</ele><time>2026-04-02T12:01:54.91Z</time></trkpt><trkpt lat="43.0073849" lon="11.4198911"><ele>233.25</ele><time>2026-04-02T12:01:55.91Z</time></trkpt><trkpt lat="43.0072917" lon="11.4198088"><ele>233.0</ele><time>2026-04-02T12:01:56.909Z</time></trkpt><trkpt lat="43.0072014" lon="11.4197377"><ele>233.00000000000003</ele><time>2026-04-02T12:01:57.91Z</time></trkpt><trkpt lat="43.0071147" lon="11.4196733"><ele>233.0</ele><time>2026-04-02T12:01:58.91Z</time></trkpt><trkpt lat="43.0070376" lon="11.4196093"><ele>233.0</ele><time>2026-04-02T12:01:59.91Z</time></trkpt><trkpt lat="43.0069751" lon="11.4195518"><ele>233.0</ele><time>2026-04-02T12:02:00.91Z</time></trkpt><trkpt lat="43.0069249" lon="11.4194944"><ele>233.00000000000003</ele><time>2026-04-02T12:02:01.91Z</time></trkpt><trkpt lat="43.0068331" lon="11.4194028"><ele>233.0</ele><time>2026-04-02T12:02:03.91Z</time></trkpt><trkpt lat="43.0067397" lon="11.4192987"><ele>233.0</ele><time>2026-04-02T12:02:05.91Z</time></trkpt><trkpt lat="43.0066787" lon="11.4192196"><ele>233.0</ele><time>2026-04-02T12:02:06.91Z</time></trkpt><trkpt lat="43.0066018" lon="11.4191159"><ele>233.0</ele><time>2026-04-02T12:02:07.909Z</time></trkpt><trkpt lat="43.0065229" lon="11.4189977"><ele>233.0</ele><time>2026-04-02T12:02:08.91Z</time></trkpt><trkpt lat="43.0064353" lon="11.418848"><ele>233.0</ele><time>2026-04-02T12:02:09.909Z</time></trkpt><trkpt lat="43.0063408" lon="11.4186727"><ele>231.66666666666669</ele><time>2026-04-02T12:02:10.91Z</time></trkpt><trkpt lat="43.0062435" lon="11.4184848"><ele>230.33333333333331</ele><time>2026-04-02T12:02:11.91Z</time></trkpt><trkpt lat="43.0061443" lon="11.4182922"><ele>229.0</ele><time>2026-04-02T12:02:12.909Z</time></trkpt><trkpt lat="43.0060507" lon="11.4181044"><ele>228.0</ele><time>2026-04-02T12:02:13.91Z</time></trkpt><trkpt lat="43.0059568" lon="11.4179255"><ele>227.0</ele><time>2026-04-02T12:02:14.91Z</time></trkpt><trkpt lat="43.0058656" lon="11.4177508"><ele>226.0</ele><time>2026-04-02T12:02:15.909Z</time></trkpt><trkpt lat="43.0057774" lon="11.4175776"><ele>226.0</ele><time>2026-04-02T12:02:16.91Z</time></trkpt><trkpt lat="43.0056856" lon="11.417395"><ele>226.0</ele><time>2026-04-02T12:02:17.91Z</time></trkpt><trkpt lat="43.0055976" lon="11.4172073"><ele>226.0</ele><time>2026-04-02T12:02:18.91Z</time></trkpt><trkpt lat="43.0055054" lon="11.4170171"><ele>225.0</ele><time>2026-04-02T12:02:19.91Z</time></trkpt><trkpt lat="43.0054043" lon="11.4168127"><ele>224.0</ele><time>2026-04-02T12:02:20.909Z</time></trkpt><trkpt lat="43.0053075" lon="11.4165958"><ele>223.0</ele><time>2026-04-02T12:02:21.91Z</time></trkpt><trkpt lat="43.0052083" lon="11.4163766"><ele>223.33333333333331</ele><time>2026-04-02T12:02:22.91Z</time></trkpt><trkpt lat="43.0051131" lon="11.4161543"><ele>223.66666666666669</ele><time>2026-04-02T12:02:23.909Z</time></trkpt><trkpt lat="43.0050154" lon="11.4159353"><ele>224.0</ele><time>2026-04-02T12:02:24.91Z</time></trkpt><trkpt lat="43.0049157" lon="11.4157211"><ele>224.0</ele><time>2026-04-02T12:02:25.91Z</time></trkpt><trkpt lat="43.0048203" lon="11.4155188"><ele>224.0</ele><time>2026-04-02T12:02:26.91Z</time></trkpt><trkpt lat="43.0047213" lon="11.4153094"><ele>224.0</ele><time>2026-04-02T12:02:27.91Z</time></trkpt><trkpt lat="43.0046189" lon="11.4150899"><ele>226.0</ele><time>2026-04-02T12:02:28.91Z</time></trkpt><trkpt lat="43.0045012" lon="11.4148664"><ele>228.0</ele><time>2026-04-02T12:02:29.91Z</time></trkpt><trkpt lat="43.0043824" lon="11.4146377"><ele>230.0</ele><time>2026-04-02T12:02:30.909Z</time></trkpt><trkpt lat="43.0042569" lon="11.4144058"><ele>230.66666666666669</ele><time>2026-04-02T12:02:31.909Z</time></trkpt><trkpt lat="43.0041324" lon="11.4141839"><ele>231.33333333333331</ele><time>2026-04-02T12:02:32.91Z</time></trkpt><trkpt lat="43.0040066" lon="11.4139646"><ele>232.0</ele><time>2026-04-02T12:02:33.91Z</time></trkpt><trkpt lat="43.0038902" lon="11.4137541"><ele>232.0</ele><time>2026-04-02T12:02:34.909Z</time></trkpt><trkpt lat="43.0037763" lon="11.4135494"><ele>232.0</ele><time>2026-04-02T12:02:35.909Z</time></trkpt><trkpt lat="43.0036615" lon="11.4133477"><ele>232.0</ele><time>2026-04-02T12:02:36.909Z</time></trkpt><trkpt lat="43.0035403" lon="11.4131422"><ele>232.0</ele><time>2026-04-02T12:02:37.91Z</time></trkpt><trkpt lat="43.0034206" lon="11.4129326"><ele>232.0</ele><time>2026-04-02T12:02:38.91Z</time></trkpt><trkpt lat="43.0033082" lon="11.4127276"><ele>232.0</ele><time>2026-04-02T12:02:39.91Z</time></trkpt><trkpt lat="43.0031981" lon="11.4125302"><ele>232.0</ele><time>2026-04-02T12:02:40.91Z</time></trkpt><trkpt lat="43.0030951" lon="11.4123424"><ele>232.0</ele><time>2026-04-02T12:02:41.91Z</time></trkpt><trkpt lat="43.002997" lon="11.4121674"><ele>232.0</ele><time>2026-04-02T12:02:42.91Z</time></trkpt><trkpt lat="43.0029032" lon="11.4120023"><ele>233.5</ele><time>2026-04-02T12:02:43.91Z</time></trkpt><trkpt lat="43.0028215" lon="11.4118509"><ele>235.0</ele><time>2026-04-02T12:02:44.91Z</time></trkpt><trkpt lat="43.0027407" lon="11.4117014"><ele>236.5</ele><time>2026-04-02T12:02:45.91Z</time></trkpt><trkpt lat="43.0026564" lon="11.4115501"><ele>238.0</ele><time>2026-04-02T12:02:46.91Z</time></trkpt><trkpt lat="43.0025721" lon="11.4114025"><ele>238.25</ele><time>2026-04-02T12:02:47.909Z</time></trkpt><trkpt lat="43.0024854" lon="11.4112488"><ele>238.5</ele><time>2026-04-02T12:02:48.909Z</time></trkpt><trkpt lat="43.0023921" lon="11.4110962"><ele>238.75</ele><time>2026-04-02T12:02:49.91Z</time></trkpt><trkpt lat="43.0022929" lon="11.4109468"><ele>239.0</ele><time>2026-04-02T12:02:50.91Z</time></trkpt><trkpt lat="43.0021815" lon="11.4108127"><ele>239.0</ele><time>2026-04-02T12:02:51.91Z</time></trkpt><trkpt lat="43.0020616" lon="11.4107168"><ele>239.0</ele><time>2026-04-02T12:02:52.91Z</time></trkpt><trkpt lat="43.0019342" lon="11.4106593"><ele>239.0</ele><time>2026-04-02T12:02:53.91Z</time></trkpt><trkpt lat="43.0018064" lon="11.4106477"><ele>239.0</ele><time>2026-04-02T12:02:54.91Z</time></trkpt><trkpt lat="43.0016666" lon="11.4106579"><ele>238.66666666666669</ele><time>2026-04-02T12:02:55.91Z</time></trkpt><trkpt lat="43.0015162" lon="11.4106838"><ele>238.33333333333331</ele><time>2026-04-02T12:02:56.91Z</time></trkpt><trkpt lat="43.0013535" lon="11.4107199"><ele>238.0</ele><time>2026-04-02T12:02:57.91Z</time></trkpt><trkpt lat="43.0011787" lon="11.4107587"><ele>238.0</ele><time>2026-04-02T12:02:58.91Z</time></trkpt><trkpt lat="43.000993" lon="11.4107969"><ele>238.0</ele><time>2026-04-02T12:02:59.909Z</time></trkpt><trkpt lat="43.0008071" lon="11.4108393"><ele>238.0</ele><time>2026-04-02T12:03:00.91Z</time></trkpt><trkpt lat="43.0006174" lon="11.4108801"><ele>239.33333333333331</ele><time>2026-04-02T12:03:01.91Z</time></trkpt><trkpt lat="43.0004153" lon="11.4109264"><ele>240.66666666666669</ele><time>2026-04-02T12:03:02.91Z</time></trkpt><trkpt lat="43.0002121" lon="11.4109692"><ele>242.0</ele><time>2026-04-02T12:03:03.91Z</time></trkpt><trkpt lat="43.0000089" lon="11.4110175"><ele>242.0</ele><time>2026-04-02T12:03:04.91Z</time></trkpt><trkpt lat="42.999803" lon="11.4110555"><ele>242.0</ele><time>2026-04-02T12:03:05.91Z</time></trkpt><trkpt lat="42.9995995" lon="11.4111007"><ele>242.0</ele><time>2026-04-02T12:03:06.91Z</time></trkpt><trkpt lat="42.9993996" lon="11.4111438"><ele>242.0</ele><time>2026-04-02T12:03:07.91Z</time></trkpt><trkpt lat="42.9992041" lon="11.41118"><ele>242.0</ele><time>2026-04-02T12:03:08.91Z</time></trkpt><trkpt lat="42.9990246" lon="11.4112127"><ele>242.0</ele><time>2026-04-02T12:03:09.91Z</time></trkpt><trkpt lat="42.9988407" lon="11.4112476"><ele>242.66666666666669</ele><time>2026-04-02T12:03:10.91Z</time></trkpt><trkpt lat="42.9986492" lon="11.4112904"><ele>243.33333333333331</ele><time>2026-04-02T12:03:11.91Z</time></trkpt><trkpt lat="42.9984574" lon="11.4113311"><ele>244.0</ele><time>2026-04-02T12:03:12.909Z</time></trkpt><trkpt lat="42.9982643" lon="11.4113664"><ele>246.66666666666666</ele><time>2026-04-02T12:03:13.91Z</time></trkpt><trkpt lat="42.9980719" lon="11.4114083"><ele>249.33333333333331</ele><time>2026-04-02T12:03:14.91Z</time></trkpt><trkpt lat="42.9978725" lon="11.4114541"><ele>252.0</ele><time>2026-04-02T12:03:15.91Z</time></trkpt><trkpt lat="42.997695" lon="11.4114897"><ele>252.0</ele><time>2026-04-02T12:03:16.909Z</time></trkpt><trkpt lat="42.9975229" lon="11.4115245"><ele>252.0</ele><time>2026-04-02T12:03:17.91Z</time></trkpt><trkpt lat="42.9973585" lon="11.4115481"><ele>252.0</ele><time>2026-04-02T12:03:18.91Z</time></trkpt><trkpt lat="42.9972066" lon="11.4115682"><ele>252.0</ele><time>2026-04-02T12:03:19.91Z</time></trkpt><trkpt lat="42.9970531" lon="11.4115927"><ele>252.0</ele><time>2026-04-02T12:03:20.91Z</time></trkpt><trkpt lat="42.9969139" lon="11.4116111"><ele>252.0</ele><time>2026-04-02T12:03:21.91Z</time></trkpt><trkpt lat="42.9967832" lon="11.4116306"><ele>252.0</ele><time>2026-04-02T12:03:22.91Z</time></trkpt><trkpt lat="42.996661" lon="11.4116468"><ele>252.6</ele><time>2026-04-02T12:03:23.91Z</time></trkpt><trkpt lat="42.9965513" lon="11.4116663"><ele>253.2</ele><time>2026-04-02T12:03:24.91Z</time></trkpt><trkpt lat="42.9964457" lon="11.4116982"><ele>253.8</ele><time>2026-04-02T12:03:25.91Z</time></trkpt><trkpt lat="42.9963397" lon="11.4117372"><ele>254.4</ele><time>2026-04-02T12:03:26.91Z</time></trkpt><trkpt lat="42.9962323" lon="11.4117777"><ele>255.0</ele><time>2026-04-02T12:03:27.91Z</time></trkpt><trkpt lat="42.9961248" lon="11.4118259"><ele>255.0</ele><time>2026-04-02T12:03:28.909Z</time></trkpt><trkpt lat="42.9960065" lon="11.4118725"><ele>255.0</ele><time>2026-04-02T12:03:29.909Z</time></trkpt><trkpt lat="42.9958818" lon="11.4119198"><ele>255.0</ele><time>2026-04-02T12:03:30.91Z</time></trkpt><trkpt lat="42.9957458" lon="11.411962"><ele>255.0</ele><time>2026-04-02T12:03:31.91Z</time></trkpt><trkpt lat="42.9955989" lon="11.4120066"><ele>254.33333333333331</ele><time>2026-04-02T12:03:32.91Z</time></trkpt><trkpt lat="42.9954453" lon="11.4120477"><ele>253.66666666666666</ele><time>2026-04-02T12:03:33.91Z</time></trkpt><trkpt lat="42.9952839" lon="11.4120809"><ele>253.0</ele><time>2026-04-02T12:03:34.91Z</time></trkpt><trkpt lat="42.9951101" lon="11.4120934"><ele>252.33333333333331</ele><time>2026-04-02T12:03:35.909Z</time></trkpt><trkpt lat="42.9949375" lon="11.4120804"><ele>251.66666666666669</ele><time>2026-04-02T12:03:36.91Z</time></trkpt><trkpt lat="42.9947626" lon="11.4120203"><ele>251.0</ele><time>2026-04-02T12:03:37.91Z</time></trkpt><trkpt lat="42.9945895" lon="11.4119142"><ele>251.0</ele><time>2026-04-02T12:03:38.91Z</time></trkpt><trkpt lat="42.9944199" lon="11.4117831"><ele>251.0</ele><time>2026-04-02T12:03:39.91Z</time></trkpt><trkpt lat="42.9942443" lon="11.4116447"><ele>251.0</ele><time>2026-04-02T12:03:40.91Z</time></trkpt><trkpt lat="42.9940639" lon="11.4115007"><ele>250.66666666666669</ele><time>2026-04-02T12:03:41.909Z</time></trkpt><trkpt lat="42.9938836" lon="11.4113495"><ele>250.33333333333331</ele><time>2026-04-02T12:03:42.91Z</time></trkpt><trkpt lat="42.9937128" lon="11.4111895"><ele>250.0</ele><time>2026-04-02T12:03:43.91Z</time></trkpt><trkpt lat="42.9935537" lon="11.4110263"><ele>248.66666666666666</ele><time>2026-04-02T12:03:44.909Z</time></trkpt><trkpt lat="42.9934066" lon="11.4108737"><ele>247.33333333333331</ele><time>2026-04-02T12:03:45.91Z</time></trkpt><trkpt lat="42.9932642" lon="11.4107367"><ele>246.0</ele><time>2026-04-02T12:03:46.91Z</time></trkpt><trkpt lat="42.993122" lon="11.4106189"><ele>246.0</ele><time>2026-04-02T12:03:47.91Z</time></trkpt><trkpt lat="42.9929768" lon="11.4105326"><ele>246.0</ele><time>2026-04-02T12:03:48.91Z</time></trkpt><trkpt lat="42.9928286" lon="11.4104681"><ele>246.0</ele><time>2026-04-02T12:03:49.91Z</time></trkpt><trkpt lat="42.9926695" lon="11.4104264"><ele>245.33333333333331</ele><time>2026-04-02T12:03:50.91Z</time></trkpt><trkpt lat="42.9925057" lon="11.4103919"><ele>244.66666666666666</ele><time>2026-04-02T12:03:51.91Z</time></trkpt><trkpt lat="42.9923407" lon="11.4103649"><ele>244.0</ele><time>2026-04-02T12:03:52.91Z</time></trkpt><trkpt lat="42.9921792" lon="11.4103441"><ele>244.0</ele><time>2026-04-02T12:03:53.91Z</time></trkpt><trkpt lat="42.9920227" lon="11.4103384"><ele>244.0</ele><time>2026-04-02T12:03:54.91Z</time></trkpt><trkpt lat="42.9918614" lon="11.4103412"><ele>244.0</ele><time>2026-04-02T12:03:55.91Z</time></trkpt><trkpt lat="42.9917009" lon="11.4103535"><ele>244.33333333333331</ele><time>2026-04-02T12:03:56.91Z</time></trkpt><trkpt lat="42.9915346" lon="11.4103609"><ele>244.66666666666669</ele><time>2026-04-02T12:03:57.91Z</time></trkpt><trkpt lat="42.9913643" lon="11.4103535"><ele>245.0</ele><time>2026-04-02T12:03:58.91Z</time></trkpt><trkpt lat="42.9911863" lon="11.4103328"><ele>245.0</ele><time>2026-04-02T12:03:59.91Z</time></trkpt><trkpt lat="42.9910029" lon="11.4102993"><ele>245.0</ele><time>2026-04-02T12:04:00.91Z</time></trkpt><trkpt lat="42.9908167" lon="11.410267"><ele>245.0</ele><time>2026-04-02T12:04:01.91Z</time></trkpt><trkpt lat="42.9906328" lon="11.4102463"><ele>244.66666666666669</ele><time>2026-04-02T12:04:02.91Z</time></trkpt><trkpt lat="42.9904588" lon="11.410232"><ele>244.33333333333331</ele><time>2026-04-02T12:04:03.91Z</time></trkpt><trkpt lat="42.990297" lon="11.4102341"><ele>244.0</ele><time>2026-04-02T12:04:04.909Z</time></trkpt><trkpt lat="42.990152" lon="11.4102589"><ele>244.0</ele><time>2026-04-02T12:04:05.91Z</time></trkpt><trkpt lat="42.9900197" lon="11.4102962"><ele>244.0</ele><time>2026-04-02T12:04:06.91Z</time></trkpt><trkpt lat="42.9898975" lon="11.4103417"><ele>244.0</ele><time>2026-04-02T12:04:07.91Z</time></trkpt><trkpt lat="42.9897646" lon="11.4103923"><ele>244.0</ele><time>2026-04-02T12:04:08.91Z</time></trkpt><trkpt lat="42.9896139" lon="11.4104309"><ele>244.0</ele><time>2026-04-02T12:04:09.91Z</time></trkpt><trkpt lat="42.9894434" lon="11.4104538"><ele>244.0</ele><time>2026-04-02T12:04:10.91Z</time></trkpt><trkpt lat="42.9892561" lon="11.4104678"><ele>244.0</ele><time>2026-04-02T12:04:11.91Z</time></trkpt><trkpt lat="42.9890607" lon="11.4104683"><ele>242.0</ele><time>2026-04-02T12:04:12.91Z</time></trkpt><trkpt lat="42.9888489" lon="11.4104522"><ele>240.0</ele><time>2026-04-02T12:04:13.91Z</time></trkpt><trkpt lat="42.988629" lon="11.4104288"><ele>238.0</ele><time>2026-04-02T12:04:14.91Z</time></trkpt><trkpt lat="42.9884043" lon="11.4103919"><ele>236.0</ele><time>2026-04-02T12:04:15.91Z</time></trkpt><trkpt lat="42.9881759" lon="11.410349"><ele>234.0</ele><time>2026-04-02T12:04:16.91Z</time></trkpt><trkpt lat="42.9879446" lon="11.4103077"><ele>234.0</ele><time>2026-04-02T12:04:17.91Z</time></trkpt><trkpt lat="42.987714" lon="11.4102664"><ele>234.0</ele><time>2026-04-02T12:04:18.909Z</time></trkpt><trkpt lat="42.9874902" lon="11.4102232"><ele>234.66666666666669</ele><time>2026-04-02T12:04:19.91Z</time></trkpt><trkpt lat="42.9872785" lon="11.4101679"><ele>235.33333333333334</ele><time>2026-04-02T12:04:20.91Z</time></trkpt><trkpt lat="42.9870767" lon="11.4101154"><ele>236.0</ele><time>2026-04-02T12:04:21.91Z</time></trkpt><trkpt lat="42.9868832" lon="11.4100685"><ele>236.0</ele><time>2026-04-02T12:04:22.91Z</time></trkpt><trkpt lat="42.9866927" lon="11.4100265"><ele>236.0</ele><time>2026-04-02T12:04:23.91Z</time></trkpt><trkpt lat="42.9865051" lon="11.4099886"><ele>236.0</ele><time>2026-04-02T12:04:24.91Z</time></trkpt><trkpt lat="42.9863199" lon="11.4099348"><ele>234.66666666666669</ele><time>2026-04-02T12:04:25.91Z</time></trkpt><trkpt lat="42.986145" lon="11.4098733"><ele>233.33333333333331</ele><time>2026-04-02T12:04:26.91Z</time></trkpt><trkpt lat="42.9859809" lon="11.409797"><ele>232.0</ele><time>2026-04-02T12:04:27.91Z</time></trkpt><trkpt lat="42.9858287" lon="11.4097092"><ele>229.75</ele><time>2026-04-02T12:04:28.91Z</time></trkpt><trkpt lat="42.9856921" lon="11.4096268"><ele>227.5</ele><time>2026-04-02T12:04:29.91Z</time></trkpt><trkpt lat="42.9855599" lon="11.409555"><ele>225.25</ele><time>2026-04-02T12:04:30.909Z</time></trkpt><trkpt lat="42.9854142" lon="11.4094912"><ele>223.0</ele><time>2026-04-02T12:04:31.91Z</time></trkpt><trkpt lat="42.9852555" lon="11.4094335"><ele>223.0</ele><time>2026-04-02T12:04:32.91Z</time></trkpt><trkpt lat="42.9850893" lon="11.4093764"><ele>223.0</ele><time>2026-04-02T12:04:33.91Z</time></trkpt><trkpt lat="42.9849204" lon="11.4093132"><ele>223.0</ele><time>2026-04-02T12:04:34.91Z</time></trkpt><trkpt lat="42.984756" lon="11.4092358"><ele>222.33333333333331</ele><time>2026-04-02T12:04:35.91Z</time></trkpt><trkpt lat="42.9845975" lon="11.4091366"><ele>221.66666666666669</ele><time>2026-04-02T12:04:36.91Z</time></trkpt><trkpt lat="42.9844363" lon="11.4090187"><ele>221.0</ele><time>2026-04-02T12:04:37.91Z</time></trkpt><trkpt lat="42.9842707" lon="11.4088928"><ele>217.0</ele><time>2026-04-02T12:04:38.91Z</time></trkpt><trkpt lat="42.9841022" lon="11.4087557"><ele>213.0</ele><time>2026-04-02T12:04:39.91Z</time></trkpt><trkpt lat="42.9839338" lon="11.4086147"><ele>209.0</ele><time>2026-04-02T12:04:40.91Z</time></trkpt><trkpt lat="42.9837621" lon="11.4084727"><ele>209.0</ele><time>2026-04-02T12:04:41.91Z</time></trkpt><trkpt lat="42.9835911" lon="11.40833"><ele>209.0</ele><time>2026-04-02T12:04:42.91Z</time></trkpt><trkpt lat="42.9834271" lon="11.4081993"><ele>209.0</ele><time>2026-04-02T12:04:43.91Z</time></trkpt><trkpt lat="42.9832674" lon="11.4080737"><ele>207.66666666666669</ele><time>2026-04-02T12:04:44.91Z</time></trkpt><trkpt lat="42.9831145" lon="11.4079577"><ele>206.33333333333331</ele><time>2026-04-02T12:04:45.91Z</time></trkpt><trkpt lat="42.9829753" lon="11.4078463"><ele>205.0</ele><time>2026-04-02T12:04:46.91Z</time></trkpt><trkpt lat="42.9828516" lon="11.4077428"><ele>205.0</ele><time>2026-04-02T12:04:47.91Z</time></trkpt><trkpt lat="42.9827452" lon="11.4076503"><ele>205.0</ele><time>2026-04-02T12:04:48.91Z</time></trkpt><trkpt lat="42.9826555" lon="11.4075793"><ele>205.0</ele><time>2026-04-02T12:04:49.91Z</time></trkpt><trkpt lat="42.9825771" lon="11.4075315"><ele>205.0</ele><time>2026-04-02T12:04:50.91Z</time></trkpt><trkpt lat="42.9825063" lon="11.4075212"><ele>205.0</ele><time>2026-04-02T12:04:51.91Z</time></trkpt><trkpt lat="42.9824429" lon="11.4075483"><ele>205.2</ele><time>2026-04-02T12:04:52.909Z</time></trkpt><trkpt lat="42.9823853" lon="11.4076119"><ele>205.4</ele><time>2026-04-02T12:04:53.91Z</time></trkpt><trkpt lat="42.9823367" lon="11.4077158"><ele>205.60000000000002</ele><time>2026-04-02T12:04:54.91Z</time></trkpt><trkpt lat="42.9822901" lon="11.4078526"><ele>205.8</ele><time>2026-04-02T12:04:55.91Z</time></trkpt><trkpt lat="42.9822384" lon="11.4080081"><ele>206.0</ele><time>2026-04-02T12:04:56.91Z</time></trkpt><trkpt lat="42.9821778" lon="11.4081823"><ele>207.33333333333334</ele><time>2026-04-02T12:04:57.909Z</time></trkpt><trkpt lat="42.9821022" lon="11.408369"><ele>208.66666666666669</ele><time>2026-04-02T12:04:58.91Z</time></trkpt><trkpt lat="42.982007" lon="11.4085382"><ele>210.0</ele><time>2026-04-02T12:04:59.91Z</time></trkpt><trkpt lat="42.9818859" lon="11.4086964"><ele>210.66666666666669</ele><time>2026-04-02T12:05:00.91Z</time></trkpt><trkpt lat="42.9817447" lon="11.4088359"><ele>211.33333333333334</ele><time>2026-04-02T12:05:01.91Z</time></trkpt><trkpt lat="42.9815813" lon="11.4089351"><ele>212.0</ele><time>2026-04-02T12:05:02.91Z</time></trkpt><trkpt lat="42.9814194" lon="11.4089975"><ele>213.0</ele><time>2026-04-02T12:05:03.91Z</time></trkpt><trkpt lat="42.9812638" lon="11.4090281"><ele>214.0</ele><time>2026-04-02T12:05:04.91Z</time></trkpt><trkpt lat="42.9811065" lon="11.4090518"><ele>215.0</ele><time>2026-04-02T12:05:05.91Z</time></trkpt><trkpt lat="42.9809517" lon="11.4090835"><ele>215.5</ele><time>2026-04-02T12:05:06.91Z</time></trkpt><trkpt lat="42.9807995" lon="11.4091175"><ele>216.0</ele><time>2026-04-02T12:05:07.91Z</time></trkpt><trkpt lat="42.980666" lon="11.4091513"><ele>216.5</ele><time>2026-04-02T12:05:08.91Z</time></trkpt><trkpt lat="42.9805333" lon="11.4091878"><ele>217.0</ele><time>2026-04-02T12:05:09.91Z</time></trkpt><trkpt lat="42.9804042" lon="11.4092335"><ele>217.0</ele><time>2026-04-02T12:05:10.91Z</time></trkpt><trkpt lat="42.9802807" lon="11.4092835"><ele>217.0</ele><time>2026-04-02T12:05:11.91Z</time></trkpt><trkpt lat="42.9801553" lon="11.4093171"><ele>217.0</ele><time>2026-04-02T12:05:12.91Z</time></trkpt><trkpt lat="42.9800264" lon="11.4093212"><ele>217.0</ele><time>2026-04-02T12:05:13.91Z</time></trkpt><trkpt lat="42.9798881" lon="11.4093049"><ele>215.25</ele><time>2026-04-02T12:05:14.91Z</time></trkpt><trkpt lat="42.9797529" lon="11.4092913"><ele>213.5</ele><time>2026-04-02T12:05:15.91Z</time></trkpt><trkpt lat="42.9796293" lon="11.4092745"><ele>211.75</ele><time>2026-04-02T12:05:16.91Z</time></trkpt><trkpt lat="42.979512" lon="11.4092603"><ele>210.0</ele><time>2026-04-02T12:05:17.91Z</time></trkpt><trkpt lat="42.9793915" lon="11.4092547"><ele>210.0</ele><time>2026-04-02T12:05:18.91Z</time></trkpt><trkpt lat="42.9792644" lon="11.4092719"><ele>210.0</ele><time>2026-04-02T12:05:19.909Z</time></trkpt><trkpt lat="42.9791309" lon="11.4093205"><ele>210.0</ele><time>2026-04-02T12:05:20.91Z</time></trkpt><trkpt lat="42.9790037" lon="11.4093764"><ele>210.0</ele><time>2026-04-02T12:05:21.909Z</time></trkpt><trkpt lat="42.9788795" lon="11.4094189"><ele>207.5</ele><time>2026-04-02T12:05:22.91Z</time></trkpt><trkpt lat="42.9787717" lon="11.4094491"><ele>205.0</ele><time>2026-04-02T12:05:23.91Z</time></trkpt><trkpt lat="42.9786553" lon="11.40945"><ele>202.5</ele><time>2026-04-02T12:05:24.91Z</time></trkpt><trkpt lat="42.9785224" lon="11.409427"><ele>200.0</ele><time>2026-04-02T12:05:25.91Z</time></trkpt><trkpt lat="42.9783716" lon="11.4093788"><ele>197.0</ele><time>2026-04-02T12:05:26.909Z</time></trkpt><trkpt lat="42.978198" lon="11.4093033"><ele>194.0</ele><time>2026-04-02T12:05:27.91Z</time></trkpt><trkpt lat="42.9780163" lon="11.4092228"><ele>191.0</ele><time>2026-04-02T12:05:28.91Z</time></trkpt><trkpt lat="42.9778465" lon="11.409143"><ele>191.0</ele><time>2026-04-02T12:05:29.91Z</time></trkpt><trkpt lat="42.97768" lon="11.4090758"><ele>191.0</ele><time>2026-04-02T12:05:30.909Z</time></trkpt><trkpt lat="42.9775287" lon="11.4090008"><ele>191.0</ele><time>2026-04-02T12:05:31.91Z</time></trkpt><trkpt lat="42.9773848" lon="11.4089127"><ele>189.25</ele><time>2026-04-02T12:05:32.91Z</time></trkpt><trkpt lat="42.9772516" lon="11.4088305"><ele>187.5</ele><time>2026-04-02T12:05:33.91Z</time></trkpt><trkpt lat="42.97713" lon="11.4087452"><ele>185.75</ele><time>2026-04-02T12:05:34.91Z</time></trkpt><trkpt lat="42.9770079" lon="11.4086656"><ele>184.0</ele><time>2026-04-02T12:05:35.91Z</time></trkpt><trkpt lat="42.9768899" lon="11.4086074"><ele>182.83333333333334</ele><time>2026-04-02T12:05:36.91Z</time></trkpt><trkpt lat="42.9767885" lon="11.4085655"><ele>181.66666666666669</ele><time>2026-04-02T12:05:37.91Z</time></trkpt><trkpt lat="42.9766873" lon="11.4085348"><ele>180.5</ele><time>2026-04-02T12:05:38.91Z</time></trkpt><trkpt lat="42.9765958" lon="11.4085266"><ele>179.33333333333334</ele><time>2026-04-02T12:05:39.91Z</time></trkpt><trkpt lat="42.9765328" lon="11.408529"><ele>178.16666666666666</ele><time>2026-04-02T12:05:40.91Z</time></trkpt><trkpt lat="42.9764632" lon="11.4085506"><ele>177.0</ele><time>2026-04-02T12:05:42.91Z</time></trkpt><trkpt lat="42.9764" lon="11.4085856"><ele>176.66666666666666</ele><time>2026-04-02T12:05:45.91Z</time></trkpt><trkpt lat="42.9763434" lon="11.4086781"><ele>176.33333333333334</ele><time>2026-04-02T12:05:48.91Z</time></trkpt><trkpt lat="42.9763342" lon="11.4087726"><ele>176.0</ele><time>2026-04-02T12:05:52.91Z</time></trkpt><trkpt lat="42.9763462" lon="11.4088786"><ele>175.66666666666669</ele><time>2026-04-02T12:07:30.91Z</time></trkpt><trkpt lat="42.9763452" lon="11.4089959"><ele>175.33333333333334</ele><time>2026-04-02T12:07:31.91Z</time></trkpt><trkpt lat="42.9763294" lon="11.4091162"><ele>175.0</ele><time>2026-04-02T12:07:32.91Z</time></trkpt><trkpt lat="42.9763135" lon="11.4092578"><ele>175.0</ele><time>2026-04-02T12:07:33.91Z</time></trkpt><trkpt lat="42.9762575" lon="11.4094088"><ele>175.0</ele><time>2026-04-02T12:07:34.91Z</time></trkpt><trkpt lat="42.9762011" lon="11.4095561"><ele>175.0</ele><time>2026-04-02T12:07:35.91Z</time></trkpt><trkpt lat="42.9761285" lon="11.4096839"><ele>175.0</ele><time>2026-04-02T12:07:36.91Z</time></trkpt><trkpt lat="42.9760528" lon="11.409796"><ele>176.0</ele><time>2026-04-02T12:07:37.91Z</time></trkpt><trkpt lat="42.9759702" lon="11.4098847"><ele>177.0</ele><time>2026-04-02T12:07:38.91Z</time></trkpt><trkpt lat="42.975833" lon="11.4099445"><ele>178.0</ele><time>2026-04-02T12:07:39.91Z</time></trkpt><trkpt lat="42.9757092" lon="11.410013"><ele>179.0</ele><time>2026-04-02T12:07:40.91Z</time></trkpt><trkpt lat="42.9755877" lon="11.4100809"><ele>175.25</ele><time>2026-04-02T12:07:41.909Z</time></trkpt><trkpt lat="42.9754765" lon="11.4101471"><ele>171.5</ele><time>2026-04-02T12:07:42.909Z</time></trkpt><trkpt lat="42.9753787" lon="11.4102245"><ele>167.75</ele><time>2026-04-02T12:07:43.91Z</time></trkpt><trkpt lat="42.9753006" lon="11.4103257"><ele>164.0</ele><time>2026-04-02T12:07:44.91Z</time></trkpt><trkpt lat="42.9752377" lon="11.4104492"><ele>164.75</ele><time>2026-04-02T12:07:45.91Z</time></trkpt><trkpt lat="42.9751887" lon="11.4105999"><ele>165.5</ele><time>2026-04-02T12:07:46.91Z</time></trkpt><trkpt lat="42.9751432" lon="11.4107615"><ele>166.25</ele><time>2026-04-02T12:07:47.91Z</time></trkpt><trkpt lat="42.9750911" lon="11.4109154"><ele>167.0</ele><time>2026-04-02T12:07:48.91Z</time></trkpt><trkpt lat="42.9750072" lon="11.411061"><ele>164.25</ele><time>2026-04-02T12:07:49.909Z</time></trkpt><trkpt lat="42.974921" lon="11.4112053"><ele>161.5</ele><time>2026-04-02T12:07:50.91Z</time></trkpt><trkpt lat="42.9748086" lon="11.4113397"><ele>158.75</ele><time>2026-04-02T12:07:51.91Z</time></trkpt><trkpt lat="42.974701" lon="11.4114796"><ele>156.0</ele><time>2026-04-02T12:07:52.91Z</time></trkpt><trkpt lat="42.9745844" lon="11.4116215"><ele>156.0</ele><time>2026-04-02T12:07:53.909Z</time></trkpt><trkpt lat="42.9744625" lon="11.4117647"><ele>156.0</ele><time>2026-04-02T12:07:54.91Z</time></trkpt><trkpt lat="42.9743361" lon="11.4119119"><ele>156.0</ele><time>2026-04-02T12:07:55.91Z</time></trkpt><trkpt lat="42.9742113" lon="11.4120631"><ele>152.66666666666666</ele><time>2026-04-02T12:07:56.91Z</time></trkpt><trkpt lat="42.9740869" lon="11.4122206"><ele>149.33333333333331</ele><time>2026-04-02T12:07:57.91Z</time></trkpt><trkpt lat="42.9739595" lon="11.4123805"><ele>146.0</ele><time>2026-04-02T12:07:58.91Z</time></trkpt><trkpt lat="42.9738284" lon="11.4125394"><ele>146.0</ele><time>2026-04-02T12:07:59.909Z</time></trkpt><trkpt lat="42.9736958" lon="11.4126974"><ele>146.0</ele><time>2026-04-02T12:08:00.91Z</time></trkpt><trkpt lat="42.973571" lon="11.4128527"><ele>146.0</ele><time>2026-04-02T12:08:01.91Z</time></trkpt><trkpt lat="42.9734482" lon="11.4130036"><ele>143.0</ele><time>2026-04-02T12:08:02.91Z</time></trkpt><trkpt lat="42.9733298" lon="11.4131564"><ele>140.0</ele><time>2026-04-02T12:08:03.91Z</time></trkpt><trkpt lat="42.9732128" lon="11.4133025"><ele>137.0</ele><time>2026-04-02T12:08:04.91Z</time></trkpt><trkpt lat="42.9730981" lon="11.4134477"><ele>137.0</ele><time>2026-04-02T12:08:05.91Z</time></trkpt><trkpt lat="42.9729814" lon="11.413597"><ele>137.0</ele><time>2026-04-02T12:08:06.91Z</time></trkpt><trkpt lat="42.9728664" lon="11.4137464"><ele>137.0</ele><time>2026-04-02T12:08:07.91Z</time></trkpt><trkpt lat="42.9727528" lon="11.413891"><ele>135.0</ele><time>2026-04-02T12:08:08.91Z</time></trkpt><trkpt lat="42.9726442" lon="11.4140347"><ele>133.0</ele><time>2026-04-02T12:08:09.91Z</time></trkpt><trkpt lat="42.9725384" lon="11.4141677"><ele>131.0</ele><time>2026-04-02T12:08:10.91Z</time></trkpt><trkpt lat="42.9724374" lon="11.4142998"><ele>129.0</ele><time>2026-04-02T12:08:11.909Z</time></trkpt><trkpt lat="42.9723312" lon="11.4144351"><ele>129.0</ele><time>2026-04-02T12:08:12.91Z</time></trkpt><trkpt lat="42.9722146" lon="11.4145794"><ele>129.0</ele><time>2026-04-02T12:08:13.91Z</time></trkpt><trkpt lat="42.9720796" lon="11.4147181"><ele>129.0</ele><time>2026-04-02T12:08:14.91Z</time></trkpt><trkpt lat="42.9719256" lon="11.4148552"><ele>126.66666666666666</ele><time>2026-04-02T12:08:15.91Z</time></trkpt><trkpt lat="42.9717588" lon="11.414982"><ele>124.33333333333333</ele><time>2026-04-02T12:08:16.91Z</time></trkpt><trkpt lat="42.9715808" lon="11.4150976"><ele>122.0</ele><time>2026-04-02T12:08:17.91Z</time></trkpt><trkpt lat="42.9713965" lon="11.41521"><ele>121.66666666666666</ele><time>2026-04-02T12:08:18.909Z</time></trkpt><trkpt lat="42.9712015" lon="11.4153249"><ele>121.33333333333334</ele><time>2026-04-02T12:08:19.91Z</time></trkpt><trkpt lat="42.9710051" lon="11.4154415"><ele>121.0</ele><time>2026-04-02T12:08:20.909Z</time></trkpt><trkpt lat="42.9708027" lon="11.4155589"><ele>119.0</ele><time>2026-04-02T12:08:21.91Z</time></trkpt><trkpt lat="42.9705979" lon="11.4156695"><ele>117.0</ele><time>2026-04-02T12:08:22.91Z</time></trkpt><trkpt lat="42.9703952" lon="11.4157815"><ele>115.0</ele><time>2026-04-02T12:08:23.91Z</time></trkpt><trkpt lat="42.9702082" lon="11.4158866"><ele>115.0</ele><time>2026-04-02T12:08:24.909Z</time></trkpt><trkpt lat="42.9700312" lon="11.4159861"><ele>115.0</ele><time>2026-04-02T12:08:25.91Z</time></trkpt><trkpt lat="42.9698562" lon="11.4160893"><ele>115.0</ele><time>2026-04-02T12:08:26.91Z</time></trkpt><trkpt lat="42.9696898" lon="11.4161861"><ele>114.33333333333334</ele><time>2026-04-02T12:08:27.909Z</time></trkpt><trkpt lat="42.9695308" lon="11.4162694"><ele>113.66666666666666</ele><time>2026-04-02T12:08:28.91Z</time></trkpt><trkpt lat="42.9693855" lon="11.4163511"><ele>113.0</ele><time>2026-04-02T12:08:29.91Z</time></trkpt><trkpt lat="42.9692482" lon="11.4164369"><ele>112.5</ele><time>2026-04-02T12:08:30.91Z</time></trkpt><trkpt lat="42.9691189" lon="11.4165374"><ele>112.0</ele><time>2026-04-02T12:08:31.91Z</time></trkpt><trkpt lat="42.9689992" lon="11.4166419"><ele>111.5</ele><time>2026-04-02T12:08:32.91Z</time></trkpt><trkpt lat="42.9688991" lon="11.4167434"><ele>111.0</ele><time>2026-04-02T12:08:33.91Z</time></trkpt><trkpt lat="42.9688161" lon="11.4168577"><ele>111.0</ele><time>2026-04-02T12:08:34.91Z</time></trkpt><trkpt lat="42.968766" lon="11.4170014"><ele>111.0</ele><time>2026-04-02T12:08:35.91Z</time></trkpt><trkpt lat="42.9687546" lon="11.4171575"><ele>111.0</ele><time>2026-04-02T12:08:36.91Z</time></trkpt><trkpt lat="42.9687784" lon="11.4173195"><ele>111.0</ele><time>2026-04-02T12:08:37.91Z</time></trkpt><trkpt lat="42.9688246" lon="11.417485"><ele>111.5</ele><time>2026-04-02T12:08:38.91Z</time></trkpt><trkpt lat="42.9688736" lon="11.4176468"><ele>112.0</ele><time>2026-04-02T12:08:39.91Z</time></trkpt><trkpt lat="42.9689122" lon="11.4178068"><ele>112.5</ele><time>2026-04-02T12:08:40.909Z</time></trkpt><trkpt lat="42.9689316" lon="11.4179662"><ele>113.0</ele><time>2026-04-02T12:08:41.91Z</time></trkpt><trkpt lat="42.9689186" lon="11.4181189"><ele>116.5</ele><time>2026-04-02T12:08:42.91Z</time></trkpt><trkpt lat="42.9688714" lon="11.418247"><ele>120.0</ele><time>2026-04-02T12:08:43.91Z</time></trkpt><trkpt lat="42.968795" lon="11.4183549"><ele>123.5</ele><time>2026-04-02T12:08:44.91Z</time></trkpt><trkpt lat="42.968706" lon="11.4184606"><ele>127.0</ele><time>2026-04-02T12:08:45.91Z</time></trkpt><trkpt lat="42.9686069" lon="11.4185605"><ele>127.0</ele><time>2026-04-02T12:08:46.91Z</time></trkpt><trkpt lat="42.9685138" lon="11.418682"><ele>127.0</ele><time>2026-04-02T12:08:47.91Z</time></trkpt><trkpt lat="42.9684383" lon="11.4188253"><ele>127.0</ele><time>2026-04-02T12:08:48.91Z</time></trkpt><trkpt lat="42.9683857" lon="11.4189825"><ele>127.0</ele><time>2026-04-02T12:08:49.91Z</time></trkpt><trkpt lat="42.9683572" lon="11.4191503"><ele>128.4</ele><time>2026-04-02T12:08:50.91Z</time></trkpt><trkpt lat="42.9683372" lon="11.4193158"><ele>129.79999999999998</ele><time>2026-04-02T12:08:51.91Z</time></trkpt><trkpt lat="42.9683227" lon="11.4194644"><ele>131.2</ele><time>2026-04-02T12:08:52.91Z</time></trkpt><trkpt lat="42.9683166" lon="11.4195997"><ele>132.6</ele><time>2026-04-02T12:08:53.91Z</time></trkpt><trkpt lat="42.9683094" lon="11.4197205"><ele>134.0</ele><time>2026-04-02T12:08:54.91Z</time></trkpt><trkpt lat="42.9683144" lon="11.4198383"><ele>134.0</ele><time>2026-04-02T12:08:55.91Z</time></trkpt><trkpt lat="42.9683326" lon="11.4199682"><ele>134.0</ele><time>2026-04-02T12:08:56.91Z</time></trkpt><trkpt lat="42.9683575" lon="11.4201188"><ele>134.0</ele><time>2026-04-02T12:08:57.91Z</time></trkpt><trkpt lat="42.9683912" lon="11.4202849"><ele>134.0</ele><time>2026-04-02T12:08:58.91Z</time></trkpt><trkpt lat="42.9684285" lon="11.4204626"><ele>135.0</ele><time>2026-04-02T12:08:59.91Z</time></trkpt><trkpt lat="42.9684641" lon="11.4206432"><ele>136.0</ele><time>2026-04-02T12:09:00.91Z</time></trkpt><trkpt lat="42.9685021" lon="11.4208298"><ele>137.0</ele><time>2026-04-02T12:09:01.91Z</time></trkpt><trkpt lat="42.9685488" lon="11.4210218"><ele>138.0</ele><time>2026-04-02T12:09:02.91Z</time></trkpt><trkpt lat="42.968597" lon="11.4212152"><ele>138.66666666666666</ele><time>2026-04-02T12:09:03.91Z</time></trkpt><trkpt lat="42.9686387" lon="11.4214122"><ele>139.33333333333331</ele><time>2026-04-02T12:09:04.91Z</time></trkpt><trkpt lat="42.9686798" lon="11.421609"><ele>140.0</ele><time>2026-04-02T12:09:05.91Z</time></trkpt><trkpt lat="42.9687251" lon="11.4218078"><ele>140.0</ele><time>2026-04-02T12:09:06.91Z</time></trkpt><trkpt lat="42.9687737" lon="11.422013"><ele>140.0</ele><time>2026-04-02T12:09:07.91Z</time></trkpt><trkpt lat="42.9688153" lon="11.4222241"><ele>140.0</ele><time>2026-04-02T12:09:08.91Z</time></trkpt><trkpt lat="42.9688376" lon="11.4224439"><ele>140.0</ele><time>2026-04-02T12:09:09.91Z</time></trkpt><trkpt lat="42.9688423" lon="11.4226648"><ele>140.0</ele><time>2026-04-02T12:09:10.91Z</time></trkpt><trkpt lat="42.9688306" lon="11.4228842"><ele>140.0</ele><time>2026-04-02T12:09:11.91Z</time></trkpt><trkpt lat="42.9688132" lon="11.4231037"><ele>140.66666666666666</ele><time>2026-04-02T12:09:12.91Z</time></trkpt><trkpt lat="42.9687881" lon="11.4233208"><ele>141.33333333333334</ele><time>2026-04-02T12:09:13.91Z</time></trkpt><trkpt lat="42.9687602" lon="11.423536"><ele>142.0</ele><time>2026-04-02T12:09:14.91Z</time></trkpt><trkpt lat="42.9687251" lon="11.4237574"><ele>142.33333333333334</ele><time>2026-04-02T12:09:15.91Z</time></trkpt><trkpt lat="42.9686824" lon="11.4239698"><ele>142.66666666666666</ele><time>2026-04-02T12:09:16.91Z</time></trkpt><trkpt lat="42.9686312" lon="11.4241665"><ele>143.0</ele><time>2026-04-02T12:09:17.91Z</time></trkpt><trkpt lat="42.9685738" lon="11.424352"><ele>143.0</ele><time>2026-04-02T12:09:18.91Z</time></trkpt><trkpt lat="42.9685131" lon="11.4245373"><ele>143.0</ele><time>2026-04-02T12:09:19.91Z</time></trkpt><trkpt lat="42.9684464" lon="11.4247339"><ele>143.0</ele><time>2026-04-02T12:09:20.91Z</time></trkpt><trkpt lat="42.9683782" lon="11.4249193"><ele>139.5</ele><time>2026-04-02T12:09:21.91Z</time></trkpt><trkpt lat="42.9683092" lon="11.4250984"><ele>136.0</ele><time>2026-04-02T12:09:22.909Z</time></trkpt><trkpt lat="42.9682484" lon="11.425269"><ele>132.5</ele><time>2026-04-02T12:09:23.91Z</time></trkpt><trkpt lat="42.9681927" lon="11.4254262"><ele>129.0</ele><time>2026-04-02T12:09:24.91Z</time></trkpt><trkpt lat="42.9681388" lon="11.4255698"><ele>128.6</ele><time>2026-04-02T12:09:25.91Z</time></trkpt><trkpt lat="42.968093" lon="11.4257064"><ele>128.2</ele><time>2026-04-02T12:09:26.91Z</time></trkpt><trkpt lat="42.9680533" lon="11.4258408"><ele>127.79999999999998</ele><time>2026-04-02T12:09:27.91Z</time></trkpt><trkpt lat="42.9680125" lon="11.425978"><ele>127.39999999999999</ele><time>2026-04-02T12:09:28.91Z</time></trkpt><trkpt lat="42.9679702" lon="11.4261161"><ele>127.0</ele><time>2026-04-02T12:09:29.91Z</time></trkpt><trkpt lat="42.9679188" lon="11.4262451"><ele>119.0</ele><time>2026-04-02T12:09:30.91Z</time></trkpt><trkpt lat="42.9673868" lon="11.4268042"><ele>119.0</ele><time>2026-04-02T12:12:29.905Z</time></trkpt><trkpt lat="42.9672959" lon="11.4266563"><ele>119.0</ele><time>2026-04-02T12:12:31.905Z</time></trkpt><trkpt lat="42.9672214" lon="11.4265726"><ele>119.0</ele><time>2026-04-02T12:12:32.905Z</time></trkpt><trkpt lat="42.9671276" lon="11.4264903"><ele>119.0</ele><time>2026-04-02T12:12:33.904Z</time></trkpt><trkpt lat="42.967032" lon="11.4264153"><ele>119.0</ele><time>2026-04-02T12:12:34.905Z</time></trkpt><trkpt lat="42.9669202" lon="11.4263549"><ele>119.0</ele><time>2026-04-02T12:12:35.905Z</time></trkpt><trkpt lat="42.9667947" lon="11.4263014"><ele>119.0</ele><time>2026-04-02T12:12:36.905Z</time></trkpt><trkpt lat="42.9666614" lon="11.4262624"><ele>119.0</ele><time>2026-04-02T12:12:37.905Z</time></trkpt><trkpt lat="42.9665218" lon="11.4262299"><ele>117.5</ele><time>2026-04-02T12:12:38.905Z</time></trkpt><trkpt lat="42.966374" lon="11.4261987"><ele>116.0</ele><time>2026-04-02T12:12:39.905Z</time></trkpt><trkpt lat="42.9662298" lon="11.4261657"><ele>114.5</ele><time>2026-04-02T12:12:40.905Z</time></trkpt><trkpt lat="42.9660885" lon="11.4261308"><ele>113.0</ele><time>2026-04-02T12:12:41.905Z</time></trkpt><trkpt lat="42.965945" lon="11.4260943"><ele>112.0</ele><time>2026-04-02T12:12:42.905Z</time></trkpt><trkpt lat="42.9658059" lon="11.4260603"><ele>111.0</ele><time>2026-04-02T12:12:43.904Z</time></trkpt><trkpt lat="42.9656863" lon="11.4260324"><ele>110.0</ele><time>2026-04-02T12:12:44.905Z</time></trkpt><trkpt lat="42.9655639" lon="11.4260073"><ele>109.0</ele><time>2026-04-02T12:12:45.905Z</time></trkpt><trkpt lat="42.9654459" lon="11.4259795"><ele>109.0</ele><time>2026-04-02T12:12:46.905Z</time></trkpt><trkpt lat="42.9653355" lon="11.4259537"><ele>109.0</ele><time>2026-04-02T12:12:47.905Z</time></trkpt><trkpt lat="42.965237" lon="11.4259304"><ele>109.0</ele><time>2026-04-02T12:12:48.905Z</time></trkpt><trkpt lat="42.9651419" lon="11.4259124"><ele>109.0</ele><time>2026-04-02T12:12:49.905Z</time></trkpt><trkpt lat="42.9650546" lon="11.425894"><ele>109.0</ele><time>2026-04-02T12:12:50.905Z</time></trkpt><trkpt lat="42.9649682" lon="11.425875"><ele>108.0</ele><time>2026-04-02T12:12:51.905Z</time></trkpt><trkpt lat="42.9648847" lon="11.4258527"><ele>107.0</ele><time>2026-04-02T12:12:52.905Z</time></trkpt><trkpt lat="42.9647977" lon="11.4258283"><ele>106.0</ele><time>2026-04-02T12:12:53.905Z</time></trkpt><trkpt lat="42.9647076" lon="11.4257989"><ele>105.0</ele><time>2026-04-02T12:12:54.905Z</time></trkpt><trkpt lat="42.9646061" lon="11.4257723"><ele>104.0</ele><time>2026-04-02T12:12:55.905Z</time></trkpt><trkpt lat="42.9644951" lon="11.4257501"><ele>104.0</ele><time>2026-04-02T12:12:56.905Z</time></trkpt><trkpt lat="42.9643921" lon="11.4257323"><ele>104.0</ele><time>2026-04-02T12:12:57.905Z</time></trkpt><trkpt lat="42.9642937" lon="11.4257215"><ele>104.0</ele><time>2026-04-02T12:12:58.905Z</time></trkpt><trkpt lat="42.9642002" lon="11.4257165"><ele>104.0</ele><time>2026-04-02T12:12:59.905Z</time></trkpt><trkpt lat="42.964104" lon="11.4257118"><ele>104.0</ele><time>2026-04-02T12:13:00.904Z</time></trkpt><trkpt lat="42.9640076" lon="11.4257086"><ele>103.80000000000001</ele><time>2026-04-02T12:13:01.905Z</time></trkpt><trkpt lat="42.9639098" lon="11.4257079"><ele>103.60000000000001</ele><time>2026-04-02T12:13:02.905Z</time></trkpt><trkpt lat="42.963803" lon="11.4257045"><ele>103.4</ele><time>2026-04-02T12:13:03.905Z</time></trkpt><trkpt lat="42.9636882" lon="11.4256981"><ele>103.2</ele><time>2026-04-02T12:13:04.905Z</time></trkpt><trkpt lat="42.9635661" lon="11.4256912"><ele>103.0</ele><time>2026-04-02T12:13:05.905Z</time></trkpt><trkpt lat="42.9634338" lon="11.4256854"><ele>102.75</ele><time>2026-04-02T12:13:06.905Z</time></trkpt><trkpt lat="42.9633022" lon="11.4256851"><ele>102.5</ele><time>2026-04-02T12:13:07.905Z</time></trkpt><trkpt lat="42.9631612" lon="11.4256786"><ele>102.25</ele><time>2026-04-02T12:13:08.905Z</time></trkpt><trkpt lat="42.9630076" lon="11.4256695"><ele>102.0</ele><time>2026-04-02T12:13:09.905Z</time></trkpt><trkpt lat="42.962845" lon="11.4256625"><ele>102.0</ele><time>2026-04-02T12:13:10.905Z</time></trkpt><trkpt lat="42.962677" lon="11.4256546"><ele>102.0</ele><time>2026-04-02T12:13:11.905Z</time></trkpt><trkpt lat="42.9625041" lon="11.4256499"><ele>102.0</ele><time>2026-04-02T12:13:12.905Z</time></trkpt><trkpt lat="42.9623244" lon="11.4256417"><ele>101.33333333333334</ele><time>2026-04-02T12:13:13.905Z</time></trkpt><trkpt lat="42.9621382" lon="11.425633"><ele>100.66666666666667</ele><time>2026-04-02T12:13:14.905Z</time></trkpt><trkpt lat="42.9619519" lon="11.4256273"><ele>100.0</ele><time>2026-04-02T12:13:15.905Z</time></trkpt><trkpt lat="42.9617663" lon="11.4256215"><ele>100.33333333333334</ele><time>2026-04-02T12:13:16.905Z</time></trkpt><trkpt lat="42.9615732" lon="11.4256167"><ele>100.66666666666666</ele><time>2026-04-02T12:13:17.905Z</time></trkpt><trkpt lat="42.9613779" lon="11.4256126"><ele>101.0</ele><time>2026-04-02T12:13:18.905Z</time></trkpt><trkpt lat="42.9611821" lon="11.4256034"><ele>101.0</ele><time>2026-04-02T12:13:19.905Z</time></trkpt><trkpt lat="42.9609834" lon="11.4255948"><ele>101.0</ele><time>2026-04-02T12:13:20.905Z</time></trkpt><trkpt lat="42.9607822" lon="11.4255877"><ele>101.0</ele><time>2026-04-02T12:13:21.905Z</time></trkpt><trkpt lat="42.9605823" lon="11.4255813"><ele>101.0</ele><time>2026-04-02T12:13:22.905Z</time></trkpt><trkpt lat="42.9603796" lon="11.4255744"><ele>101.0</ele><time>2026-04-02T12:13:23.905Z</time></trkpt><trkpt lat="42.9601799" lon="11.4255678"><ele>101.0</ele><time>2026-04-02T12:13:24.904Z</time></trkpt><trkpt lat="42.9599808" lon="11.4255599"><ele>101.33333333333333</ele><time>2026-04-02T12:13:25.905Z</time></trkpt><trkpt lat="42.9597836" lon="11.4255557"><ele>101.66666666666666</ele><time>2026-04-02T12:13:26.905Z</time></trkpt><trkpt lat="42.9595903" lon="11.4255495"><ele>102.0</ele><time>2026-04-02T12:13:27.904Z</time></trkpt><trkpt lat="42.9593938" lon="11.4255399"><ele>102.0</ele><time>2026-04-02T12:13:28.905Z</time></trkpt><trkpt lat="42.959198" lon="11.4255346"><ele>102.0</ele><time>2026-04-02T12:13:29.905Z</time></trkpt><trkpt lat="42.9590027" lon="11.4255253"><ele>102.0</ele><time>2026-04-02T12:13:30.905Z</time></trkpt><trkpt lat="42.9588055" lon="11.4255173"><ele>102.0</ele><time>2026-04-02T12:13:31.904Z</time></trkpt><trkpt lat="42.9586084" lon="11.4255143"><ele>102.0</ele><time>2026-04-02T12:13:32.905Z</time></trkpt><trkpt lat="42.9584024" lon="11.425509"><ele>102.0</ele><time>2026-04-02T12:13:33.905Z</time></trkpt><trkpt lat="42.9581998" lon="11.4255031"><ele>103.66666666666666</ele><time>2026-04-02T12:13:34.904Z</time></trkpt><trkpt lat="42.9579986" lon="11.4254971"><ele>105.33333333333333</ele><time>2026-04-02T12:13:35.905Z</time></trkpt><trkpt lat="42.9577981" lon="11.4254885"><ele>107.0</ele><time>2026-04-02T12:13:36.905Z</time></trkpt><trkpt lat="42.9576056" lon="11.425486"><ele>109.66666666666666</ele><time>2026-04-02T12:13:37.904Z</time></trkpt><trkpt lat="42.9574131" lon="11.4254927"><ele>112.33333333333334</ele><time>2026-04-02T12:13:38.905Z</time></trkpt><trkpt lat="42.957221" lon="11.4255116"><ele>115.0</ele><time>2026-04-02T12:13:39.905Z</time></trkpt><trkpt lat="42.9570281" lon="11.4255501"><ele>115.0</ele><time>2026-04-02T12:13:40.905Z</time></trkpt><trkpt lat="42.9568347" lon="11.4256087"><ele>115.0</ele><time>2026-04-02T12:13:41.905Z</time></trkpt><trkpt lat="42.9566439" lon="11.4256873"><ele>115.0</ele><time>2026-04-02T12:13:42.905Z</time></trkpt><trkpt lat="42.9564602" lon="11.4257811"><ele>117.0</ele><time>2026-04-02T12:13:43.905Z</time></trkpt><trkpt lat="42.9562793" lon="11.4258681"><ele>119.0</ele><time>2026-04-02T12:13:44.905Z</time></trkpt><trkpt lat="42.9560912" lon="11.4259381"><ele>121.0</ele><time>2026-04-02T12:13:45.905Z</time></trkpt><trkpt lat="42.9558989" lon="11.4259887"><ele>123.33333333333334</ele><time>2026-04-02T12:13:46.905Z</time></trkpt><trkpt lat="42.9557065" lon="11.4260181"><ele>125.66666666666666</ele><time>2026-04-02T12:13:47.905Z</time></trkpt><trkpt lat="42.9555142" lon="11.4260316"><ele>128.0</ele><time>2026-04-02T12:13:48.905Z</time></trkpt><trkpt lat="42.9553391" lon="11.4260118"><ele>128.0</ele><time>2026-04-02T12:13:49.904Z</time></trkpt><trkpt lat="42.9551829" lon="11.4259534"><ele>128.0</ele><time>2026-04-02T12:13:50.905Z</time></trkpt><trkpt lat="42.9550322" lon="11.4258656"><ele>128.0</ele><time>2026-04-02T12:13:51.904Z</time></trkpt><trkpt lat="42.9548862" lon="11.4257505"><ele>129.33333333333331</ele><time>2026-04-02T12:13:52.905Z</time></trkpt><trkpt lat="42.9547397" lon="11.4256181"><ele>130.66666666666666</ele><time>2026-04-02T12:13:53.905Z</time></trkpt><trkpt lat="42.9545944" lon="11.4254839"><ele>132.0</ele><time>2026-04-02T12:13:54.905Z</time></trkpt><trkpt lat="42.9544393" lon="11.4253531"><ele>132.0</ele><time>2026-04-02T12:13:55.905Z</time></trkpt><trkpt lat="42.9542735" lon="11.425254"><ele>132.0</ele><time>2026-04-02T12:13:56.904Z</time></trkpt><trkpt lat="42.9541032" lon="11.4251845"><ele>132.0</ele><time>2026-04-02T12:13:57.905Z</time></trkpt><trkpt lat="42.9539234" lon="11.4251465"><ele>133.66666666666666</ele><time>2026-04-02T12:13:58.905Z</time></trkpt><trkpt lat="42.9537494" lon="11.4251275"><ele>135.33333333333331</ele><time>2026-04-02T12:13:59.905Z</time></trkpt><trkpt lat="42.9535887" lon="11.4251168"><ele>137.0</ele><time>2026-04-02T12:14:00.905Z</time></trkpt><trkpt lat="42.9534533" lon="11.4250906"><ele>138.0</ele><time>2026-04-02T12:14:01.904Z</time></trkpt><trkpt lat="42.9533435" lon="11.4250399"><ele>139.0</ele><time>2026-04-02T12:14:02.905Z</time></trkpt><trkpt lat="42.953254" lon="11.4249648"><ele>140.0</ele><time>2026-04-02T12:14:03.905Z</time></trkpt><trkpt lat="42.9531923" lon="11.4248728"><ele>141.0</ele><time>2026-04-02T12:14:04.905Z</time></trkpt><trkpt lat="42.953142" lon="11.4247646"><ele>142.0</ele><time>2026-04-02T12:14:05.905Z</time></trkpt><trkpt lat="42.9531123" lon="11.4246489"><ele>142.0</ele><time>2026-04-02T12:14:06.905Z</time></trkpt><trkpt lat="42.9530948" lon="11.4245343"><ele>142.0</ele><time>2026-04-02T12:14:07.905Z</time></trkpt><trkpt lat="42.9530915" lon="11.424428"><ele>142.0</ele><time>2026-04-02T12:14:08.904Z</time></trkpt><trkpt lat="42.9530964" lon="11.4243275"><ele>142.0</ele><time>2026-04-02T12:14:09.905Z</time></trkpt><trkpt lat="42.9531123" lon="11.4242292"><ele>142.0</ele><time>2026-04-02T12:14:10.905Z</time></trkpt><trkpt lat="42.9531365" lon="11.4241445"><ele>142.0</ele><time>2026-04-02T12:14:11.905Z</time></trkpt><trkpt lat="42.9531749" lon="11.4240052"><ele>142.0</ele><time>2026-04-02T12:14:13.904Z</time></trkpt><trkpt lat="42.9531878" lon="11.4239084"><ele>142.0</ele><time>2026-04-02T12:14:14.905Z</time></trkpt><trkpt lat="42.9532126" lon="11.4237868"><ele>142.0</ele><time>2026-04-02T12:14:15.905Z</time></trkpt><trkpt lat="42.9532464" lon="11.4236389"><ele>142.0</ele><time>2026-04-02T12:14:16.905Z</time></trkpt><trkpt lat="42.9532808" lon="11.4234582"><ele>142.0</ele><time>2026-04-02T12:14:17.905Z</time></trkpt><trkpt lat="42.9533238" lon="11.423248"><ele>142.33333333333334</ele><time>2026-04-02T12:14:18.905Z</time></trkpt><trkpt lat="42.9533721" lon="11.423022"><ele>142.66666666666666</ele><time>2026-04-02T12:14:19.905Z</time></trkpt><trkpt lat="42.9534194" lon="11.4227767"><ele>143.0</ele><time>2026-04-02T12:14:20.905Z</time></trkpt><trkpt lat="42.9534692" lon="11.422514"><ele>141.66666666666666</ele><time>2026-04-02T12:14:21.905Z</time></trkpt><trkpt lat="42.95352" lon="11.422249"><ele>140.33333333333334</ele><time>2026-04-02T12:14:22.905Z</time></trkpt><trkpt lat="42.9535766" lon="11.421978"><ele>139.0</ele><time>2026-04-02T12:14:23.904Z</time></trkpt><trkpt lat="42.9536331" lon="11.4216983"><ele>138.66666666666669</ele><time>2026-04-02T12:14:24.905Z</time></trkpt><trkpt lat="42.9536906" lon="11.4214102"><ele>138.33333333333334</ele><time>2026-04-02T12:14:25.905Z</time></trkpt><trkpt lat="42.9537496" lon="11.4211166"><ele>138.0</ele><time>2026-04-02T12:14:26.905Z</time></trkpt><trkpt lat="42.953805" lon="11.4208211"><ele>137.0</ele><time>2026-04-02T12:14:27.905Z</time></trkpt><trkpt lat="42.9538623" lon="11.4205199"><ele>136.0</ele><time>2026-04-02T12:14:28.905Z</time></trkpt><trkpt lat="42.9539222" lon="11.4202179"><ele>134.0</ele><time>2026-04-02T12:14:29.905Z</time></trkpt><trkpt lat="42.9539849" lon="11.4199114"><ele>132.0</ele><time>2026-04-02T12:14:30.904Z</time></trkpt><trkpt lat="42.9540469" lon="11.419612"><ele>131.0</ele><time>2026-04-02T12:14:31.905Z</time></trkpt><trkpt lat="42.9541079" lon="11.419326"><ele>130.0</ele><time>2026-04-02T12:14:32.904Z</time></trkpt><trkpt lat="42.9541632" lon="11.4190471"><ele>129.0</ele><time>2026-04-02T12:14:33.904Z</time></trkpt><trkpt lat="42.9542154" lon="11.4187674"><ele>128.0</ele><time>2026-04-02T12:14:34.905Z</time></trkpt><trkpt lat="42.9542701" lon="11.4184941"><ele>127.0</ele><time>2026-04-02T12:14:35.905Z</time></trkpt><trkpt lat="42.9543266" lon="11.4182196"><ele>126.0</ele><time>2026-04-02T12:14:36.905Z</time></trkpt><trkpt lat="42.954381" lon="11.4179364"><ele>125.66666666666666</ele><time>2026-04-02T12:14:37.905Z</time></trkpt><trkpt lat="42.9544338" lon="11.4176567"><ele>125.33333333333333</ele><time>2026-04-02T12:14:38.904Z</time></trkpt><trkpt lat="42.9544907" lon="11.4173798"><ele>125.0</ele><time>2026-04-02T12:14:39.905Z</time></trkpt><trkpt lat="42.9545464" lon="11.4171096"><ele>124.33333333333333</ele><time>2026-04-02T12:14:40.904Z</time></trkpt><trkpt lat="42.9546047" lon="11.4168543"><ele>123.66666666666666</ele><time>2026-04-02T12:14:41.905Z</time></trkpt><trkpt lat="42.954654" lon="11.4166274"><ele>123.0</ele><time>2026-04-02T12:14:42.905Z</time></trkpt><trkpt lat="42.9546957" lon="11.4164103"><ele>122.5</ele><time>2026-04-02T12:14:43.905Z</time></trkpt><trkpt lat="42.954738" lon="11.41621"><ele>122.0</ele><time>2026-04-02T12:14:44.905Z</time></trkpt><trkpt lat="42.954772" lon="11.4160261"><ele>121.5</ele><time>2026-04-02T12:14:45.905Z</time></trkpt><trkpt lat="42.9548003" lon="11.4158636"><ele>121.0</ele><time>2026-04-02T12:14:46.905Z</time></trkpt><trkpt lat="42.9548317" lon="11.415718"><ele>121.0</ele><time>2026-04-02T12:14:47.905Z</time></trkpt><trkpt lat="42.9548618" lon="11.4155786"><ele>121.0</ele><time>2026-04-02T12:14:48.905Z</time></trkpt><trkpt lat="42.9548874" lon="11.4154363"><ele>121.0</ele><time>2026-04-02T12:14:49.905Z</time></trkpt><trkpt lat="42.9549097" lon="11.4153006"><ele>121.0</ele><time>2026-04-02T12:14:50.904Z</time></trkpt><trkpt lat="42.9549325" lon="11.4151684"><ele>121.0</ele><time>2026-04-02T12:14:51.905Z</time></trkpt><trkpt lat="42.9549512" lon="11.4150483"><ele>121.00000000000001</ele><time>2026-04-02T12:14:52.904Z</time></trkpt><trkpt lat="42.9549613" lon="11.4149413"><ele>121.0</ele><time>2026-04-02T12:14:53.905Z</time></trkpt><trkpt lat="42.9549507" lon="11.4148495"><ele>121.0</ele><time>2026-04-02T12:14:54.905Z</time></trkpt><trkpt lat="42.95488" lon="11.4147331"><ele>121.0</ele><time>2026-04-02T12:14:56.904Z</time></trkpt><trkpt lat="42.9548265" lon="11.4146849"><ele>121.00000000000001</ele><time>2026-04-02T12:14:57.905Z</time></trkpt><trkpt lat="42.9547614" lon="11.4146242"><ele>121.0</ele><time>2026-04-02T12:14:58.905Z</time></trkpt><trkpt lat="42.9546859" lon="11.4145494"><ele>121.25</ele><time>2026-04-02T12:14:59.905Z</time></trkpt><trkpt lat="42.9546031" lon="11.4144621"><ele>121.5</ele><time>2026-04-02T12:15:00.905Z</time></trkpt><trkpt lat="42.9545067" lon="11.414358"><ele>121.75</ele><time>2026-04-02T12:15:01.905Z</time></trkpt><trkpt lat="42.9544034" lon="11.4142378"><ele>122.0</ele><time>2026-04-02T12:15:02.905Z</time></trkpt><trkpt lat="42.9542908" lon="11.4141046"><ele>121.8</ele><time>2026-04-02T12:15:03.905Z</time></trkpt><trkpt lat="42.9541872" lon="11.4139865"><ele>121.6</ele><time>2026-04-02T12:15:04.905Z</time></trkpt><trkpt lat="42.9540975" lon="11.4138906"><ele>121.39999999999999</ele><time>2026-04-02T12:15:05.904Z</time></trkpt><trkpt lat="42.9540177" lon="11.4138016"><ele>121.19999999999999</ele><time>2026-04-02T12:15:06.905Z</time></trkpt><trkpt lat="42.9539487" lon="11.4137163"><ele>121.0</ele><time>2026-04-02T12:15:07.905Z</time></trkpt><trkpt lat="42.9538962" lon="11.4136452"><ele>120.50000000000001</ele><time>2026-04-02T12:15:08.905Z</time></trkpt><trkpt lat="42.9538031" lon="11.4135649"><ele>120.0</ele><time>2026-04-02T12:15:10.905Z</time></trkpt><trkpt lat="42.9537382" lon="11.4135383"><ele>119.5</ele><time>2026-04-02T12:15:11.905Z</time></trkpt><trkpt lat="42.9536615" lon="11.413516"><ele>119.0</ele><time>2026-04-02T12:15:12.905Z</time></trkpt><trkpt lat="42.9535719" lon="11.413502"><ele>118.50000000000001</ele><time>2026-04-02T12:15:13.905Z</time></trkpt><trkpt lat="42.9534818" lon="11.4135018"><ele>118.0</ele><time>2026-04-02T12:15:14.905Z</time></trkpt><trkpt lat="42.9534041" lon="11.4135188"><ele>116.50000000000001</ele><time>2026-04-02T12:15:15.905Z</time></trkpt><trkpt lat="42.9533402" lon="11.4135391"><ele>115.0</ele><time>2026-04-02T12:15:16.905Z</time></trkpt><trkpt lat="42.9532739" lon="11.413567"><ele>113.5</ele><time>2026-04-02T12:15:18.905Z</time></trkpt><trkpt lat="42.9532014" lon="11.4136177"><ele>112.0</ele><time>2026-04-02T12:15:42.905Z</time></trkpt><trkpt lat="42.953126" lon="11.413647"><ele>110.50000000000001</ele><time>2026-04-02T12:15:43.905Z</time></trkpt><trkpt lat="42.9530272" lon="11.4136874"><ele>109.0</ele><time>2026-04-02T12:15:44.905Z</time></trkpt><trkpt lat="42.9529139" lon="11.413737"><ele>109.0</ele><time>2026-04-02T12:15:45.905Z</time></trkpt><trkpt lat="42.9527796" lon="11.4137979"><ele>109.0</ele><time>2026-04-02T12:15:46.905Z</time></trkpt><trkpt lat="42.9526366" lon="11.4138615"><ele>109.0</ele><time>2026-04-02T12:15:47.905Z</time></trkpt><trkpt lat="42.9524795" lon="11.413927"><ele>108.66666666666667</ele><time>2026-04-02T12:15:48.905Z</time></trkpt><trkpt lat="42.9523116" lon="11.4140001"><ele>108.33333333333334</ele><time>2026-04-02T12:15:49.905Z</time></trkpt><trkpt lat="42.9521364" lon="11.4140757"><ele>108.0</ele><time>2026-04-02T12:15:50.905Z</time></trkpt><trkpt lat="42.9519641" lon="11.4141481"><ele>108.0</ele><time>2026-04-02T12:15:51.904Z</time></trkpt><trkpt lat="42.9517818" lon="11.4142104"><ele>108.0</ele><time>2026-04-02T12:15:52.904Z</time></trkpt><trkpt lat="42.9515818" lon="11.4142395"><ele>108.0</ele><time>2026-04-02T12:15:53.905Z</time></trkpt><trkpt lat="42.9513765" lon="11.4142416"><ele>108.33333333333334</ele><time>2026-04-02T12:15:54.905Z</time></trkpt><trkpt lat="42.9511613" lon="11.4142146"><ele>108.66666666666667</ele><time>2026-04-02T12:15:55.905Z</time></trkpt><trkpt lat="42.9509452" lon="11.4141739"><ele>109.0</ele><time>2026-04-02T12:15:56.905Z</time></trkpt><trkpt lat="42.950729" lon="11.4141292"><ele>110.5</ele><time>2026-04-02T12:15:57.905Z</time></trkpt><trkpt lat="42.9505078" lon="11.4140807"><ele>112.0</ele><time>2026-04-02T12:15:58.905Z</time></trkpt><trkpt lat="42.9502858" lon="11.4140157"><ele>112.0</ele><time>2026-04-02T12:15:59.905Z</time></trkpt><trkpt lat="42.9500632" lon="11.4139399"><ele>112.0</ele><time>2026-04-02T12:16:00.905Z</time></trkpt><trkpt lat="42.9498407" lon="11.4138683"><ele>113.5</ele><time>2026-04-02T12:16:01.905Z</time></trkpt><trkpt lat="42.9496146" lon="11.4137954"><ele>115.0</ele><time>2026-04-02T12:16:02.905Z</time></trkpt><trkpt lat="42.9493835" lon="11.4137207"><ele>114.5</ele><time>2026-04-02T12:16:03.905Z</time></trkpt><trkpt lat="42.9491544" lon="11.4136441"><ele>114.0</ele><time>2026-04-02T12:16:04.905Z</time></trkpt><trkpt lat="42.9489249" lon="11.4135744"><ele>114.0</ele><time>2026-04-02T12:16:05.905Z</time></trkpt><trkpt lat="42.9486963" lon="11.413504"><ele>114.0</ele><time>2026-04-02T12:16:06.905Z</time></trkpt><trkpt lat="42.9484737" lon="11.4134304"><ele>114.5</ele><time>2026-04-02T12:16:07.905Z</time></trkpt><trkpt lat="42.9482507" lon="11.4133543"><ele>115.0</ele><time>2026-04-02T12:16:08.905Z</time></trkpt><trkpt lat="42.9480253" lon="11.4132831"><ele>115.0</ele><time>2026-04-02T12:16:09.904Z</time></trkpt><trkpt lat="42.9478065" lon="11.4132102"><ele>115.0</ele><time>2026-04-02T12:16:10.905Z</time></trkpt><trkpt lat="42.947586" lon="11.4131357"><ele>116.0</ele><time>2026-04-02T12:16:11.905Z</time></trkpt><trkpt lat="42.9473709" lon="11.4130579"><ele>117.0</ele><time>2026-04-02T12:16:12.905Z</time></trkpt><trkpt lat="42.9471589" lon="11.4129866"><ele>118.0</ele><time>2026-04-02T12:16:13.905Z</time></trkpt><trkpt lat="42.9469474" lon="11.412918"><ele>120.0</ele><time>2026-04-02T12:16:14.905Z</time></trkpt><trkpt lat="42.9467361" lon="11.4128487"><ele>122.0</ele><time>2026-04-02T12:16:15.905Z</time></trkpt><trkpt lat="42.9465261" lon="11.4127793"><ele>124.0</ele><time>2026-04-02T12:16:16.905Z</time></trkpt><trkpt lat="42.9463164" lon="11.41271"><ele>125.66666666666667</ele><time>2026-04-02T12:16:17.905Z</time></trkpt><trkpt lat="42.9461066" lon="11.412642"><ele>127.33333333333334</ele><time>2026-04-02T12:16:18.904Z</time></trkpt><trkpt lat="42.9458999" lon="11.4125833"><ele>129.0</ele><time>2026-04-02T12:16:19.905Z</time></trkpt><trkpt lat="42.9456905" lon="11.4125316"><ele>130.0</ele><time>2026-04-02T12:16:20.905Z</time></trkpt><trkpt lat="42.9454749" lon="11.4124862"><ele>131.0</ele><time>2026-04-02T12:16:21.905Z</time></trkpt><trkpt lat="42.9452548" lon="11.4124457"><ele>132.0</ele><time>2026-04-02T12:16:22.905Z</time></trkpt><trkpt lat="42.9450302" lon="11.4124063"><ele>132.66666666666666</ele><time>2026-04-02T12:16:23.905Z</time></trkpt><trkpt lat="42.9448081" lon="11.4123643"><ele>133.33333333333331</ele><time>2026-04-02T12:16:24.905Z</time></trkpt><trkpt lat="42.9445857" lon="11.4123226"><ele>134.0</ele><time>2026-04-02T12:16:25.905Z</time></trkpt><trkpt lat="42.9443661" lon="11.4122802"><ele>134.0</ele><time>2026-04-02T12:16:26.905Z</time></trkpt><trkpt lat="42.9441454" lon="11.4122366"><ele>134.0</ele><time>2026-04-02T12:16:27.905Z</time></trkpt><trkpt lat="42.943925" lon="11.4121916"><ele>134.0</ele><time>2026-04-02T12:16:28.905Z</time></trkpt><trkpt lat="42.9437081" lon="11.4121483"><ele>134.0</ele><time>2026-04-02T12:16:29.905Z</time></trkpt><trkpt lat="42.9434919" lon="11.4121006"><ele>134.0</ele><time>2026-04-02T12:16:30.905Z</time></trkpt><trkpt lat="42.9432736" lon="11.4120587"><ele>134.0</ele><time>2026-04-02T12:16:31.905Z</time></trkpt><trkpt lat="42.9430587" lon="11.4120168"><ele>134.0</ele><time>2026-04-02T12:16:32.905Z</time></trkpt><trkpt lat="42.9428402" lon="11.4119756"><ele>134.0</ele><time>2026-04-02T12:16:33.905Z</time></trkpt><trkpt lat="42.9426187" lon="11.4119362"><ele>134.0</ele><time>2026-04-02T12:16:34.904Z</time></trkpt><trkpt lat="42.9423963" lon="11.4118961"><ele>134.5</ele><time>2026-04-02T12:16:35.905Z</time></trkpt><trkpt lat="42.942174" lon="11.4118518"><ele>135.0</ele><time>2026-04-02T12:16:36.905Z</time></trkpt><trkpt lat="42.9419465" lon="11.4118056"><ele>135.0</ele><time>2026-04-02T12:16:37.905Z</time></trkpt><trkpt lat="42.9417222" lon="11.4117583"><ele>135.0</ele><time>2026-04-02T12:16:38.905Z</time></trkpt><trkpt lat="42.9414987" lon="11.4117115"><ele>135.5</ele><time>2026-04-02T12:16:39.905Z</time></trkpt><trkpt lat="42.9412754" lon="11.4116657"><ele>136.0</ele><time>2026-04-02T12:16:40.905Z</time></trkpt><trkpt lat="42.9410537" lon="11.4116215"><ele>136.66666666666669</ele><time>2026-04-02T12:16:41.905Z</time></trkpt><trkpt lat="42.9408343" lon="11.4115793"><ele>137.33333333333334</ele><time>2026-04-02T12:16:42.904Z</time></trkpt><trkpt lat="42.9406127" lon="11.4115363"><ele>138.0</ele><time>2026-04-02T12:16:43.905Z</time></trkpt><trkpt lat="42.94039" lon="11.4114918"><ele>138.0</ele><time>2026-04-02T12:16:44.905Z</time></trkpt><trkpt lat="42.9401673" lon="11.4114493"><ele>138.0</ele><time>2026-04-02T12:16:45.905Z</time></trkpt><trkpt lat="42.9399431" lon="11.4114097"><ele>138.5</ele><time>2026-04-02T12:16:46.904Z</time></trkpt><trkpt lat="42.9397177" lon="11.4113688"><ele>139.0</ele><time>2026-04-02T12:16:47.905Z</time></trkpt><trkpt lat="42.9394969" lon="11.4113274"><ele>139.33333333333334</ele><time>2026-04-02T12:16:48.905Z</time></trkpt><trkpt lat="42.9392778" lon="11.4112925"><ele>139.66666666666666</ele><time>2026-04-02T12:16:49.905Z</time></trkpt><trkpt lat="42.9390574" lon="11.4112794"><ele>140.0</ele><time>2026-04-02T12:16:50.905Z</time></trkpt><trkpt lat="42.9388344" lon="11.4112761"><ele>141.33333333333331</ele><time>2026-04-02T12:16:51.905Z</time></trkpt><trkpt lat="42.9386166" lon="11.4112834"><ele>142.66666666666666</ele><time>2026-04-02T12:16:52.905Z</time></trkpt><trkpt lat="42.9384051" lon="11.411272"><ele>144.0</ele><time>2026-04-02T12:16:53.905Z</time></trkpt><trkpt lat="42.9381989" lon="11.4112291"><ele>146.0</ele><time>2026-04-02T12:16:54.905Z</time></trkpt><trkpt lat="42.9379965" lon="11.4111512"><ele>148.0</ele><time>2026-04-02T12:16:55.905Z</time></trkpt><trkpt lat="42.9377902" lon="11.4110596"><ele>150.0</ele><time>2026-04-02T12:16:56.905Z</time></trkpt><trkpt lat="42.9375814" lon="11.4109543"><ele>151.0</ele><time>2026-04-02T12:16:57.905Z</time></trkpt><trkpt lat="42.9373708" lon="11.410844"><ele>152.0</ele><time>2026-04-02T12:16:58.905Z</time></trkpt><trkpt lat="42.9371548" lon="11.4107336"><ele>152.0</ele><time>2026-04-02T12:16:59.905Z</time></trkpt><trkpt lat="42.936938" lon="11.4106292"><ele>152.0</ele><time>2026-04-02T12:17:00.905Z</time></trkpt><trkpt lat="42.9367198" lon="11.4105299"><ele>157.0</ele><time>2026-04-02T12:17:01.905Z</time></trkpt><trkpt lat="42.9365036" lon="11.4104266"><ele>162.0</ele><time>2026-04-02T12:17:02.905Z</time></trkpt><trkpt lat="42.9362887" lon="11.4103232"><ele>162.0</ele><time>2026-04-02T12:17:03.904Z</time></trkpt><trkpt lat="42.9360811" lon="11.410221"><ele>162.0</ele><time>2026-04-02T12:17:04.905Z</time></trkpt><trkpt lat="42.9358982" lon="11.4101065"><ele>162.0</ele><time>2026-04-02T12:17:05.905Z</time></trkpt><trkpt lat="42.9357466" lon="11.4099646"><ele>161.66666666666666</ele><time>2026-04-02T12:17:06.905Z</time></trkpt><trkpt lat="42.935621" lon="11.409807"><ele>161.33333333333331</ele><time>2026-04-02T12:17:07.905Z</time></trkpt><trkpt lat="42.9355095" lon="11.4096553"><ele>161.0</ele><time>2026-04-02T12:17:08.905Z</time></trkpt><trkpt lat="42.9354056" lon="11.409549"><ele>162.25</ele><time>2026-04-02T12:17:09.905Z</time></trkpt><trkpt lat="42.9352879" lon="11.4094885"><ele>163.5</ele><time>2026-04-02T12:17:10.905Z</time></trkpt><trkpt lat="42.9351553" lon="11.4094753"><ele>164.75</ele><time>2026-04-02T12:17:11.904Z</time></trkpt><trkpt lat="42.9350113" lon="11.4095036"><ele>166.0</ele><time>2026-04-02T12:17:12.905Z</time></trkpt><trkpt lat="42.9348591" lon="11.4095607"><ele>166.0</ele><time>2026-04-02T12:17:13.905Z</time></trkpt><trkpt lat="42.934697" lon="11.4096243"><ele>166.0</ele><time>2026-04-02T12:17:14.905Z</time></trkpt><trkpt lat="42.9345265" lon="11.4096886"><ele>166.0</ele><time>2026-04-02T12:17:15.905Z</time></trkpt><trkpt lat="42.9343542" lon="11.4097516"><ele>165.33333333333334</ele><time>2026-04-02T12:17:16.905Z</time></trkpt><trkpt lat="42.9341769" lon="11.4098187"><ele>164.66666666666666</ele><time>2026-04-02T12:17:17.905Z</time></trkpt><trkpt lat="42.9340012" lon="11.4099084"><ele>164.0</ele><time>2026-04-02T12:17:18.905Z</time></trkpt><trkpt lat="42.9338291" lon="11.4100314"><ele>164.0</ele><time>2026-04-02T12:17:19.905Z</time></trkpt><trkpt lat="42.9336645" lon="11.4101706"><ele>164.0</ele><time>2026-04-02T12:17:20.905Z</time></trkpt><trkpt lat="42.9335008" lon="11.4103067"><ele>164.0</ele><time>2026-04-02T12:17:21.905Z</time></trkpt><trkpt lat="42.9333389" lon="11.4104162"><ele>166.66666666666666</ele><time>2026-04-02T12:17:22.905Z</time></trkpt><trkpt lat="42.9331781" lon="11.4104971"><ele>169.33333333333334</ele><time>2026-04-02T12:17:23.905Z</time></trkpt><trkpt lat="42.9330101" lon="11.4105416"><ele>172.0</ele><time>2026-04-02T12:17:24.904Z</time></trkpt><trkpt lat="42.9328339" lon="11.4105552"><ele>172.0</ele><time>2026-04-02T12:17:25.905Z</time></trkpt><trkpt lat="42.932654" lon="11.4105413"><ele>172.0</ele><time>2026-04-02T12:17:26.905Z</time></trkpt><trkpt lat="42.9324692" lon="11.4104924"><ele>172.0</ele><time>2026-04-02T12:17:27.904Z</time></trkpt><trkpt lat="42.9322825" lon="11.4104039"><ele>171.33333333333334</ele><time>2026-04-02T12:17:28.905Z</time></trkpt><trkpt lat="42.9320995" lon="11.4102902"><ele>170.66666666666666</ele><time>2026-04-02T12:17:29.905Z</time></trkpt><trkpt lat="42.9319129" lon="11.4101635"><ele>170.0</ele><time>2026-04-02T12:17:30.905Z</time></trkpt><trkpt lat="42.9317216" lon="11.410043"><ele>171.66666666666666</ele><time>2026-04-02T12:17:31.905Z</time></trkpt><trkpt lat="42.9315278" lon="11.4099346"><ele>173.33333333333334</ele><time>2026-04-02T12:17:32.904Z</time></trkpt><trkpt lat="42.9313228" lon="11.409839"><ele>175.0</ele><time>2026-04-02T12:17:33.905Z</time></trkpt><trkpt lat="42.9311092" lon="11.4097529"><ele>175.0</ele><time>2026-04-02T12:17:34.904Z</time></trkpt><trkpt lat="42.930901" lon="11.4096688"><ele>175.0</ele><time>2026-04-02T12:17:35.905Z</time></trkpt><trkpt lat="42.9306853" lon="11.4096018"><ele>175.0</ele><time>2026-04-02T12:17:36.905Z</time></trkpt><trkpt lat="42.9304774" lon="11.4095289"><ele>176.33333333333334</ele><time>2026-04-02T12:17:37.905Z</time></trkpt><trkpt lat="42.9302701" lon="11.409462"><ele>177.66666666666666</ele><time>2026-04-02T12:17:38.905Z</time></trkpt><trkpt lat="42.9300634" lon="11.4093939"><ele>179.0</ele><time>2026-04-02T12:17:39.904Z</time></trkpt><trkpt lat="42.9298622" lon="11.4093266"><ele>181.0</ele><time>2026-04-02T12:17:40.905Z</time></trkpt><trkpt lat="42.9296606" lon="11.4092726"><ele>183.0</ele><time>2026-04-02T12:17:41.905Z</time></trkpt><trkpt lat="42.9294572" lon="11.4092361"><ele>185.0</ele><time>2026-04-02T12:17:42.905Z</time></trkpt><trkpt lat="42.9292493" lon="11.409216"><ele>187.0</ele><time>2026-04-02T12:17:43.905Z</time></trkpt><trkpt lat="42.9290387" lon="11.4092099"><ele>189.0</ele><time>2026-04-02T12:17:44.905Z</time></trkpt><trkpt lat="42.928828" lon="11.4092067"><ele>191.0</ele><time>2026-04-02T12:17:45.904Z</time></trkpt><trkpt lat="42.9286152" lon="11.4091973"><ele>191.0</ele><time>2026-04-02T12:17:46.905Z</time></trkpt><trkpt lat="42.928404" lon="11.4091972"><ele>191.0</ele><time>2026-04-02T12:17:47.905Z</time></trkpt><trkpt lat="42.9281983" lon="11.4091984"><ele>191.0</ele><time>2026-04-02T12:17:48.905Z</time></trkpt><trkpt lat="42.9279923" lon="11.4091965"><ele>192.66666666666666</ele><time>2026-04-02T12:17:49.904Z</time></trkpt><trkpt lat="42.927784" lon="11.4091889"><ele>194.33333333333331</ele><time>2026-04-02T12:17:50.905Z</time></trkpt><trkpt lat="42.9275793" lon="11.4091882"><ele>196.0</ele><time>2026-04-02T12:17:51.905Z</time></trkpt><trkpt lat="42.9273754" lon="11.4091869"><ele>198.33333333333331</ele><time>2026-04-02T12:17:52.905Z</time></trkpt><trkpt lat="42.9271748" lon="11.409189"><ele>200.66666666666669</ele><time>2026-04-02T12:17:53.905Z</time></trkpt><trkpt lat="42.926979" lon="11.4091855"><ele>203.0</ele><time>2026-04-02T12:17:54.905Z</time></trkpt><trkpt lat="42.9268013" lon="11.4091804"><ele>206.0</ele><time>2026-04-02T12:17:55.905Z</time></trkpt><trkpt lat="42.9266407" lon="11.409177"><ele>209.0</ele><time>2026-04-02T12:17:56.905Z</time></trkpt><trkpt lat="42.9264953" lon="11.4091724"><ele>212.0</ele><time>2026-04-02T12:17:57.905Z</time></trkpt><trkpt lat="42.9263558" lon="11.4091722"><ele>215.0</ele><time>2026-04-02T12:17:58.905Z</time></trkpt><trkpt lat="42.926216" lon="11.4091994"><ele>215.0</ele><time>2026-04-02T12:17:59.905Z</time></trkpt><trkpt lat="42.9260697" lon="11.4092565"><ele>215.0</ele><time>2026-04-02T12:18:00.905Z</time></trkpt><trkpt lat="42.9259194" lon="11.4093375"><ele>215.0</ele><time>2026-04-02T12:18:01.905Z</time></trkpt><trkpt lat="42.9257651" lon="11.4094321"><ele>215.0</ele><time>2026-04-02T12:18:02.905Z</time></trkpt><trkpt lat="42.92561" lon="11.4095213"><ele>215.0</ele><time>2026-04-02T12:18:03.905Z</time></trkpt><trkpt lat="42.925469" lon="11.4096011"><ele>215.0</ele><time>2026-04-02T12:18:04.905Z</time></trkpt><trkpt lat="42.9253317" lon="11.409689"><ele>215.0</ele><time>2026-04-02T12:18:05.905Z</time></trkpt><trkpt lat="42.9252045" lon="11.4097836"><ele>215.0</ele><time>2026-04-02T12:18:06.905Z</time></trkpt><trkpt lat="42.9250977" lon="11.4099071"><ele>215.0</ele><time>2026-04-02T12:18:07.905Z</time></trkpt><trkpt lat="42.9250193" lon="11.4100668"><ele>215.0</ele><time>2026-04-02T12:18:08.905Z</time></trkpt><trkpt lat="42.9249665" lon="11.4102464"><ele>217.5</ele><time>2026-04-02T12:18:09.905Z</time></trkpt><trkpt lat="42.9249423" lon="11.4104418"><ele>220.0</ele><time>2026-04-02T12:18:10.905Z</time></trkpt><trkpt lat="42.9249297" lon="11.4106473"><ele>222.5</ele><time>2026-04-02T12:18:11.905Z</time></trkpt><trkpt lat="42.9248979" lon="11.4108506"><ele>225.0</ele><time>2026-04-02T12:18:12.905Z</time></trkpt><trkpt lat="42.9248407" lon="11.4110189"><ele>225.0</ele><time>2026-04-02T12:18:13.905Z</time></trkpt><trkpt lat="42.9247623" lon="11.4111591"><ele>225.0</ele><time>2026-04-02T12:18:14.905Z</time></trkpt><trkpt lat="42.9246555" lon="11.4112701"><ele>225.0</ele><time>2026-04-02T12:18:15.905Z</time></trkpt><trkpt lat="42.924538" lon="11.4113266"><ele>225.0</ele><time>2026-04-02T12:18:16.905Z</time></trkpt><trkpt lat="42.9244055" lon="11.4113433"><ele>224.66666666666669</ele><time>2026-04-02T12:18:17.904Z</time></trkpt><trkpt lat="42.9242596" lon="11.4113299"><ele>224.33333333333334</ele><time>2026-04-02T12:18:18.905Z</time></trkpt><trkpt lat="42.9241074" lon="11.4113436"><ele>224.0</ele><time>2026-04-02T12:18:19.904Z</time></trkpt><trkpt lat="42.9239465" lon="11.4113998"><ele>224.0</ele><time>2026-04-02T12:18:20.905Z</time></trkpt><trkpt lat="42.9237902" lon="11.4114964"><ele>224.0</ele><time>2026-04-02T12:18:21.905Z</time></trkpt><trkpt lat="42.9236402" lon="11.4116211"><ele>224.0</ele><time>2026-04-02T12:18:22.905Z</time></trkpt><trkpt lat="42.9234996" lon="11.4117397"><ele>224.75</ele><time>2026-04-02T12:18:23.905Z</time></trkpt><trkpt lat="42.92337" lon="11.4118347"><ele>225.5</ele><time>2026-04-02T12:18:24.905Z</time></trkpt><trkpt lat="42.9232425" lon="11.4119067"><ele>226.25</ele><time>2026-04-02T12:18:25.905Z</time></trkpt><trkpt lat="42.923115" lon="11.4119447"><ele>227.0</ele><time>2026-04-02T12:18:26.904Z</time></trkpt><trkpt lat="42.9229769" lon="11.4119422"><ele>227.0</ele><time>2026-04-02T12:18:27.905Z</time></trkpt><trkpt lat="42.9228335" lon="11.4118928"><ele>227.0</ele><time>2026-04-02T12:18:28.904Z</time></trkpt><trkpt lat="42.9226874" lon="11.4118101"><ele>227.0</ele><time>2026-04-02T12:18:29.905Z</time></trkpt><trkpt lat="42.9225426" lon="11.4117043"><ele>227.33333333333334</ele><time>2026-04-02T12:18:30.905Z</time></trkpt><trkpt lat="42.9224076" lon="11.4116035"><ele>227.66666666666669</ele><time>2026-04-02T12:18:31.905Z</time></trkpt><trkpt lat="42.9222645" lon="11.4115151"><ele>228.0</ele><time>2026-04-02T12:18:32.905Z</time></trkpt><trkpt lat="42.9221095" lon="11.411453"><ele>228.0</ele><time>2026-04-02T12:18:33.905Z</time></trkpt><trkpt lat="42.9219421" lon="11.4114192"><ele>228.0</ele><time>2026-04-02T12:18:34.905Z</time></trkpt><trkpt lat="42.9217662" lon="11.4114115"><ele>228.0</ele><time>2026-04-02T12:18:35.905Z</time></trkpt><trkpt lat="42.9215887" lon="11.4114396"><ele>227.33333333333331</ele><time>2026-04-02T12:18:36.905Z</time></trkpt><trkpt lat="42.9214146" lon="11.4114961"><ele>226.66666666666666</ele><time>2026-04-02T12:18:37.905Z</time></trkpt><trkpt lat="42.9212416" lon="11.4115728"><ele>226.0</ele><time>2026-04-02T12:18:38.904Z</time></trkpt><trkpt lat="42.9210692" lon="11.41165"><ele>226.0</ele><time>2026-04-02T12:18:39.905Z</time></trkpt><trkpt lat="42.9209045" lon="11.4117264"><ele>226.0</ele><time>2026-04-02T12:18:40.905Z</time></trkpt><trkpt lat="42.9207521" lon="11.4117986"><ele>226.0</ele><time>2026-04-02T12:18:41.905Z</time></trkpt><trkpt lat="42.9206081" lon="11.4118621"><ele>226.5</ele><time>2026-04-02T12:18:42.905Z</time></trkpt><trkpt lat="42.9204738" lon="11.4119192"><ele>227.0</ele><time>2026-04-02T12:18:43.905Z</time></trkpt><trkpt lat="42.9203493" lon="11.4119706"><ele>227.5</ele><time>2026-04-02T12:18:44.905Z</time></trkpt><trkpt lat="42.9202246" lon="11.411999"><ele>228.0</ele><time>2026-04-02T12:18:45.905Z</time></trkpt><trkpt lat="42.9200882" lon="11.4119963"><ele>228.0</ele><time>2026-04-02T12:18:46.905Z</time></trkpt><trkpt lat="42.9199466" lon="11.4119453"><ele>228.0</ele><time>2026-04-02T12:18:47.905Z</time></trkpt><trkpt lat="42.9197963" lon="11.411856"><ele>228.0</ele><time>2026-04-02T12:18:48.904Z</time></trkpt><trkpt lat="42.9196519" lon="11.4117568"><ele>228.0</ele><time>2026-04-02T12:18:49.905Z</time></trkpt><trkpt lat="42.9195167" lon="11.4116477"><ele>228.0</ele><time>2026-04-02T12:18:50.905Z</time></trkpt><trkpt lat="42.9193815" lon="11.4115128"><ele>228.0</ele><time>2026-04-02T12:18:51.905Z</time></trkpt><trkpt lat="42.9192605" lon="11.4113356"><ele>225.33333333333331</ele><time>2026-04-02T12:18:52.904Z</time></trkpt><trkpt lat="42.9191515" lon="11.4111341"><ele>222.66666666666666</ele><time>2026-04-02T12:18:53.905Z</time></trkpt><trkpt lat="42.919042" lon="11.4109125"><ele>220.0</ele><time>2026-04-02T12:18:54.905Z</time></trkpt><trkpt lat="42.9189246" lon="11.4106899"><ele>219.33333333333331</ele><time>2026-04-02T12:18:55.905Z</time></trkpt><trkpt lat="42.9188054" lon="11.410478"><ele>218.66666666666669</ele><time>2026-04-02T12:18:56.905Z</time></trkpt><trkpt lat="42.9186829" lon="11.4102812"><ele>218.0</ele><time>2026-04-02T12:18:57.905Z</time></trkpt><trkpt lat="42.9185573" lon="11.4100955"><ele>218.0</ele><time>2026-04-02T12:18:58.905Z</time></trkpt><trkpt lat="42.9184341" lon="11.4099208"><ele>218.0</ele><time>2026-04-02T12:18:59.905Z</time></trkpt><trkpt lat="42.9183065" lon="11.4097592"><ele>218.0</ele><time>2026-04-02T12:19:00.905Z</time></trkpt><trkpt lat="42.9181577" lon="11.4096257"><ele>216.33333333333334</ele><time>2026-04-02T12:19:01.905Z</time></trkpt><trkpt lat="42.9179997" lon="11.4095334"><ele>214.66666666666669</ele><time>2026-04-02T12:19:02.905Z</time></trkpt><trkpt lat="42.9178414" lon="11.4094917"><ele>213.0</ele><time>2026-04-02T12:19:03.905Z</time></trkpt><trkpt lat="42.9176829" lon="11.4094956"><ele>213.33333333333331</ele><time>2026-04-02T12:19:04.905Z</time></trkpt><trkpt lat="42.9175312" lon="11.4095543"><ele>213.66666666666666</ele><time>2026-04-02T12:19:05.905Z</time></trkpt><trkpt lat="42.9173836" lon="11.4096733"><ele>214.0</ele><time>2026-04-02T12:19:06.905Z</time></trkpt><trkpt lat="42.9172349" lon="11.4098154"><ele>214.0</ele><time>2026-04-02T12:19:07.905Z</time></trkpt><trkpt lat="42.9170806" lon="11.4099645"><ele>214.0</ele><time>2026-04-02T12:19:08.905Z</time></trkpt><trkpt lat="42.9169153" lon="11.4101142"><ele>214.0</ele><time>2026-04-02T12:19:09.905Z</time></trkpt><trkpt lat="42.9167509" lon="11.4102737"><ele>215.66666666666666</ele><time>2026-04-02T12:19:10.905Z</time></trkpt><trkpt lat="42.9165919" lon="11.4104532"><ele>217.33333333333331</ele><time>2026-04-02T12:19:11.905Z</time></trkpt><trkpt lat="42.9164469" lon="11.4106465"><ele>219.0</ele><time>2026-04-02T12:19:12.904Z</time></trkpt><trkpt lat="42.9163064" lon="11.4108423"><ele>219.0</ele><time>2026-04-02T12:19:13.905Z</time></trkpt><trkpt lat="42.9161687" lon="11.4110295"><ele>219.0</ele><time>2026-04-02T12:19:14.905Z</time></trkpt><trkpt lat="42.9160326" lon="11.4112125"><ele>219.0</ele><time>2026-04-02T12:19:15.905Z</time></trkpt><trkpt lat="42.9158889" lon="11.4113816"><ele>221.0</ele><time>2026-04-02T12:19:16.905Z</time></trkpt><trkpt lat="42.9157303" lon="11.4115285"><ele>223.0</ele><time>2026-04-02T12:19:17.905Z</time></trkpt><trkpt lat="42.9155526" lon="11.411641"><ele>225.0</ele><time>2026-04-02T12:19:18.905Z</time></trkpt><trkpt lat="42.9153624" lon="11.4117206"><ele>225.0</ele><time>2026-04-02T12:19:19.905Z</time></trkpt><trkpt lat="42.9151603" lon="11.4117715"><ele>225.0</ele><time>2026-04-02T12:19:20.905Z</time></trkpt><trkpt lat="42.9149454" lon="11.4118094"><ele>225.0</ele><time>2026-04-02T12:19:21.905Z</time></trkpt><trkpt lat="42.9147286" lon="11.4118459"><ele>228.0</ele><time>2026-04-02T12:19:22.905Z</time></trkpt><trkpt lat="42.9145117" lon="11.4118854"><ele>231.0</ele><time>2026-04-02T12:19:23.905Z</time></trkpt><trkpt lat="42.9143019" lon="11.4119269"><ele>234.0</ele><time>2026-04-02T12:19:24.905Z</time></trkpt><trkpt lat="42.9141006" lon="11.4119713"><ele>235.33333333333331</ele><time>2026-04-02T12:19:25.905Z</time></trkpt><trkpt lat="42.9139125" lon="11.4120051"><ele>236.66666666666666</ele><time>2026-04-02T12:19:26.905Z</time></trkpt><trkpt lat="42.9137381" lon="11.4120323"><ele>238.0</ele><time>2026-04-02T12:19:27.905Z</time></trkpt><trkpt lat="42.913569" lon="11.4120479"><ele>238.0</ele><time>2026-04-02T12:19:28.905Z</time></trkpt><trkpt lat="42.913421" lon="11.4120303"><ele>238.0</ele><time>2026-04-02T12:19:29.905Z</time></trkpt><trkpt lat="42.9132854" lon="11.411972"><ele>238.0</ele><time>2026-04-02T12:19:30.905Z</time></trkpt><trkpt lat="42.9131636" lon="11.4118731"><ele>238.0</ele><time>2026-04-02T12:19:31.905Z</time></trkpt><trkpt lat="42.913048" lon="11.4117327"><ele>239.33333333333331</ele><time>2026-04-02T12:19:32.905Z</time></trkpt><trkpt lat="42.9129465" lon="11.4115608"><ele>240.66666666666669</ele><time>2026-04-02T12:19:33.905Z</time></trkpt><trkpt lat="42.912849" lon="11.411364"><ele>242.0</ele><time>2026-04-02T12:19:34.905Z</time></trkpt><trkpt lat="42.9127459" lon="11.4111588"><ele>242.33333333333334</ele><time>2026-04-02T12:19:35.905Z</time></trkpt><trkpt lat="42.9126419" lon="11.4109573"><ele>242.66666666666669</ele><time>2026-04-02T12:19:36.905Z</time></trkpt><trkpt lat="42.9125421" lon="11.4107686"><ele>243.0</ele><time>2026-04-02T12:19:37.905Z</time></trkpt><trkpt lat="42.9124419" lon="11.4105794"><ele>243.0</ele><time>2026-04-02T12:19:38.905Z</time></trkpt><trkpt lat="42.9123471" lon="11.4103997"><ele>243.0</ele><time>2026-04-02T12:19:39.905Z</time></trkpt><trkpt lat="42.9122594" lon="11.410228"><ele>243.0</ele><time>2026-04-02T12:19:40.905Z</time></trkpt><trkpt lat="42.9121639" lon="11.4100701"><ele>243.0</ele><time>2026-04-02T12:19:41.905Z</time></trkpt><trkpt lat="42.9120383" lon="11.4099284"><ele>243.0</ele><time>2026-04-02T12:19:42.905Z</time></trkpt><trkpt lat="42.9119246" lon="11.4098028"><ele>243.0</ele><time>2026-04-02T12:19:43.905Z</time></trkpt><trkpt lat="42.9118165" lon="11.4096974"><ele>243.0</ele><time>2026-04-02T12:19:44.905Z</time></trkpt><trkpt lat="42.911717" lon="11.4096056"><ele>242.60000000000002</ele><time>2026-04-02T12:19:45.905Z</time></trkpt><trkpt lat="42.9116209" lon="11.4095344"><ele>242.20000000000002</ele><time>2026-04-02T12:19:46.905Z</time></trkpt><trkpt lat="42.9115263" lon="11.4094959"><ele>241.8</ele><time>2026-04-02T12:19:47.905Z</time></trkpt><trkpt lat="42.9114264" lon="11.4094973"><ele>241.4</ele><time>2026-04-02T12:19:48.905Z</time></trkpt><trkpt lat="42.9113288" lon="11.4095265"><ele>241.0</ele><time>2026-04-02T12:19:49.905Z</time></trkpt><trkpt lat="42.9112213" lon="11.4095607"><ele>241.0</ele><time>2026-04-02T12:19:50.905Z</time></trkpt><trkpt lat="42.9111107" lon="11.4095679"><ele>241.0</ele><time>2026-04-02T12:19:51.905Z</time></trkpt><trkpt lat="42.9109835" lon="11.4095275"><ele>241.0</ele><time>2026-04-02T12:19:52.905Z</time></trkpt><trkpt lat="42.9108562" lon="11.409492"><ele>241.0</ele><time>2026-04-02T12:19:53.905Z</time></trkpt><trkpt lat="42.9107266" lon="11.4094599"><ele>241.5</ele><time>2026-04-02T12:19:54.904Z</time></trkpt><trkpt lat="42.910598" lon="11.409429"><ele>242.0</ele><time>2026-04-02T12:19:55.905Z</time></trkpt><trkpt lat="42.9104725" lon="11.4094017"><ele>242.5</ele><time>2026-04-02T12:19:56.905Z</time></trkpt><trkpt lat="42.9103563" lon="11.4093018"><ele>243.0</ele><time>2026-04-02T12:19:57.905Z</time></trkpt><trkpt lat="42.9102376" lon="11.4091923"><ele>243.0</ele><time>2026-04-02T12:19:58.905Z</time></trkpt><trkpt lat="42.910131" lon="11.4090622"><ele>243.0</ele><time>2026-04-02T12:19:59.905Z</time></trkpt><trkpt lat="42.9100468" lon="11.4089235"><ele>243.0</ele><time>2026-04-02T12:20:00.905Z</time></trkpt><trkpt lat="42.9099543" lon="11.4087971"><ele>243.0</ele><time>2026-04-02T12:20:01.905Z</time></trkpt><trkpt lat="42.9098471" lon="11.408682"><ele>242.5</ele><time>2026-04-02T12:20:02.905Z</time></trkpt><trkpt lat="42.9097269" lon="11.4085809"><ele>242.0</ele><time>2026-04-02T12:20:03.905Z</time></trkpt><trkpt lat="42.9096058" lon="11.4084794"><ele>241.5</ele><time>2026-04-02T12:20:04.905Z</time></trkpt><trkpt lat="42.9094899" lon="11.4083862"><ele>241.0</ele><time>2026-04-02T12:20:05.905Z</time></trkpt><trkpt lat="42.9093683" lon="11.408297"><ele>241.0</ele><time>2026-04-02T12:20:06.905Z</time></trkpt><trkpt lat="42.9092543" lon="11.4082135"><ele>241.0</ele><time>2026-04-02T12:20:07.905Z</time></trkpt><trkpt lat="42.9091377" lon="11.4081397"><ele>241.0</ele><time>2026-04-02T12:20:08.905Z</time></trkpt><trkpt lat="42.9090035" lon="11.4080953"><ele>241.0</ele><time>2026-04-02T12:20:09.905Z</time></trkpt><trkpt lat="42.9088717" lon="11.4080714"><ele>234.5</ele><time>2026-04-02T12:20:10.905Z</time></trkpt><trkpt lat="42.9087409" lon="11.4080587"><ele>228.0</ele><time>2026-04-02T12:20:11.905Z</time></trkpt><trkpt lat="42.9086186" lon="11.4080311"><ele>221.5</ele><time>2026-04-02T12:20:12.904Z</time></trkpt><trkpt lat="42.9085086" lon="11.4079545"><ele>215.0</ele><time>2026-04-02T12:20:13.905Z</time></trkpt><trkpt lat="42.9084275" lon="11.4078414"><ele>212.5</ele><time>2026-04-02T12:20:14.905Z</time></trkpt><trkpt lat="42.908377" lon="11.4076894"><ele>210.0</ele><time>2026-04-02T12:20:15.905Z</time></trkpt><trkpt lat="42.9083613" lon="11.4075215"><ele>207.5</ele><time>2026-04-02T12:20:16.905Z</time></trkpt><trkpt lat="42.9083799" lon="11.4073431"><ele>205.0</ele><time>2026-04-02T12:20:17.905Z</time></trkpt><trkpt lat="42.9084271" lon="11.4071571"><ele>205.0</ele><time>2026-04-02T12:20:18.905Z</time></trkpt><trkpt lat="42.9084731" lon="11.4069773"><ele>205.0</ele><time>2026-04-02T12:20:19.905Z</time></trkpt><trkpt lat="42.9085116" lon="11.4068049"><ele>205.0</ele><time>2026-04-02T12:20:20.905Z</time></trkpt><trkpt lat="42.9085222" lon="11.4066321"><ele>205.0</ele><time>2026-04-02T12:20:21.905Z</time></trkpt><trkpt lat="42.9084993" lon="11.4064629"><ele>204.0</ele><time>2026-04-02T12:20:22.905Z</time></trkpt><trkpt lat="42.9084614" lon="11.4063089"><ele>203.0</ele><time>2026-04-02T12:20:23.905Z</time></trkpt><trkpt lat="42.9084485" lon="11.4061502"><ele>202.0</ele><time>2026-04-02T12:20:24.904Z</time></trkpt><trkpt lat="42.9084626" lon="11.4059953"><ele>201.0</ele><time>2026-04-02T12:20:25.905Z</time></trkpt><trkpt lat="42.9085005" lon="11.4058599"><ele>201.0</ele><time>2026-04-02T12:20:26.904Z</time></trkpt><trkpt lat="42.908533" lon="11.4057379"><ele>201.0</ele><time>2026-04-02T12:20:27.905Z</time></trkpt><trkpt lat="42.9085295" lon="11.4056126"><ele>201.0</ele><time>2026-04-02T12:20:28.905Z</time></trkpt><trkpt lat="42.9084868" lon="11.4055151"><ele>201.0</ele><time>2026-04-02T12:20:29.905Z</time></trkpt><trkpt lat="42.9084099" lon="11.4054586"><ele>201.0</ele><time>2026-04-02T12:20:30.905Z</time></trkpt><trkpt lat="42.9083294" lon="11.4054679"><ele>201.0</ele><time>2026-04-02T12:20:31.905Z</time></trkpt><trkpt lat="42.9082464" lon="11.4055329"><ele>197.5</ele><time>2026-04-02T12:20:32.905Z</time></trkpt><trkpt lat="42.9081765" lon="11.4056521"><ele>194.0</ele><time>2026-04-02T12:20:33.905Z</time></trkpt><trkpt lat="42.9081121" lon="11.4058097"><ele>190.5</ele><time>2026-04-02T12:20:34.905Z</time></trkpt><trkpt lat="42.9080386" lon="11.4059614"><ele>187.0</ele><time>2026-04-02T12:20:35.905Z</time></trkpt><trkpt lat="42.9079656" lon="11.40607"><ele>187.0</ele><time>2026-04-02T12:20:36.905Z</time></trkpt><trkpt lat="42.9078889" lon="11.4061442"><ele>187.0</ele><time>2026-04-02T12:20:37.905Z</time></trkpt><trkpt lat="42.9078084" lon="11.4061537"><ele>187.0</ele><time>2026-04-02T12:20:38.904Z</time></trkpt><trkpt lat="42.9077401" lon="11.4060996"><ele>187.0</ele><time>2026-04-02T12:20:39.905Z</time></trkpt><trkpt lat="42.9077085" lon="11.4060034"><ele>187.0</ele><time>2026-04-02T12:20:40.905Z</time></trkpt><trkpt lat="42.9077117" lon="11.4058755"><ele>187.0</ele><time>2026-04-02T12:20:41.905Z</time></trkpt><trkpt lat="42.9077556" lon="11.4057231"><ele>187.0</ele><time>2026-04-02T12:20:42.905Z</time></trkpt><trkpt lat="42.9078113" lon="11.4055519"><ele>187.0</ele><time>2026-04-02T12:20:43.905Z</time></trkpt><trkpt lat="42.9078588" lon="11.4053757"><ele>187.0</ele><time>2026-04-02T12:20:44.905Z</time></trkpt><trkpt lat="42.9079016" lon="11.4051992"><ele>187.0</ele><time>2026-04-02T12:20:45.905Z</time></trkpt><trkpt lat="42.9079279" lon="11.405031"><ele>184.25</ele><time>2026-04-02T12:20:46.904Z</time></trkpt><trkpt lat="42.9079138" lon="11.4048509"><ele>181.5</ele><time>2026-04-02T12:20:47.905Z</time></trkpt><trkpt lat="42.9078621" lon="11.4046888"><ele>178.75</ele><time>2026-04-02T12:20:48.905Z</time></trkpt><trkpt lat="42.907782" lon="11.4045382"><ele>176.0</ele><time>2026-04-02T12:20:49.905Z</time></trkpt><trkpt lat="42.9076922" lon="11.4044124"><ele>174.60000000000002</ele><time>2026-04-02T12:20:50.905Z</time></trkpt><trkpt lat="42.9076054" lon="11.4043046"><ele>173.2</ele><time>2026-04-02T12:20:51.905Z</time></trkpt><trkpt lat="42.9075147" lon="11.4042294"><ele>171.8</ele><time>2026-04-02T12:20:52.905Z</time></trkpt><trkpt lat="42.9074174" lon="11.4042081"><ele>170.39999999999998</ele><time>2026-04-02T12:20:53.905Z</time></trkpt><trkpt lat="42.9073092" lon="11.4042311"><ele>169.0</ele><time>2026-04-02T12:20:54.905Z</time></trkpt><trkpt lat="42.907188" lon="11.4042807"><ele>170.0</ele><time>2026-04-02T12:20:55.905Z</time></trkpt><trkpt lat="42.9070543" lon="11.4043307"><ele>171.0</ele><time>2026-04-02T12:20:56.905Z</time></trkpt><trkpt lat="42.9069165" lon="11.4043815"><ele>172.0</ele><time>2026-04-02T12:20:57.905Z</time></trkpt><trkpt lat="42.9067824" lon="11.4044232"><ele>173.0</ele><time>2026-04-02T12:20:58.904Z</time></trkpt><trkpt lat="42.9066472" lon="11.4044429"><ele>173.0</ele><time>2026-04-02T12:20:59.905Z</time></trkpt><trkpt lat="42.9065124" lon="11.4044031"><ele>173.0</ele><time>2026-04-02T12:21:00.904Z</time></trkpt><trkpt lat="42.906387" lon="11.404315"><ele>173.0</ele><time>2026-04-02T12:21:01.905Z</time></trkpt><trkpt lat="42.906264" lon="11.4041982"><ele>173.0</ele><time>2026-04-02T12:21:02.905Z</time></trkpt><trkpt lat="42.9061286" lon="11.4040811"><ele>173.0</ele><time>2026-04-02T12:21:03.905Z</time></trkpt><trkpt lat="42.9059825" lon="11.4039568"><ele>173.0</ele><time>2026-04-02T12:21:04.905Z</time></trkpt><trkpt lat="42.9058327" lon="11.4038253"><ele>173.0</ele><time>2026-04-02T12:21:05.905Z</time></trkpt><trkpt lat="42.9056903" lon="11.4036774"><ele>174.0</ele><time>2026-04-02T12:21:06.905Z</time></trkpt><trkpt lat="42.9055604" lon="11.4035068"><ele>175.0</ele><time>2026-04-02T12:21:07.905Z</time></trkpt><trkpt lat="42.9054452" lon="11.403338"><ele>176.0</ele><time>2026-04-02T12:21:08.905Z</time></trkpt><trkpt lat="42.9053319" lon="11.4031955"><ele>176.0</ele><time>2026-04-02T12:21:09.905Z</time></trkpt><trkpt lat="42.9052095" lon="11.4030886"><ele>176.0</ele><time>2026-04-02T12:21:10.905Z</time></trkpt><trkpt lat="42.905069" lon="11.4030159"><ele>176.0</ele><time>2026-04-02T12:21:11.905Z</time></trkpt><trkpt lat="42.9049156" lon="11.4029928"><ele>176.0</ele><time>2026-04-02T12:21:12.905Z</time></trkpt><trkpt lat="42.9047469" lon="11.4030216"><ele>176.0</ele><time>2026-04-02T12:21:13.905Z</time></trkpt><trkpt lat="42.904572" lon="11.4030753"><ele>176.0</ele><time>2026-04-02T12:21:14.905Z</time></trkpt><trkpt lat="42.9043902" lon="11.4031378"><ele>175.0</ele><time>2026-04-02T12:21:15.905Z</time></trkpt><trkpt lat="42.9042113" lon="11.4031993"><ele>174.0</ele><time>2026-04-02T12:21:16.905Z</time></trkpt><trkpt lat="42.9040339" lon="11.4032534"><ele>173.0</ele><time>2026-04-02T12:21:17.905Z</time></trkpt><trkpt lat="42.9038636" lon="11.4033019"><ele>173.0</ele><time>2026-04-02T12:21:18.905Z</time></trkpt><trkpt lat="42.9037014" lon="11.4033342"><ele>173.0</ele><time>2026-04-02T12:21:19.905Z</time></trkpt><trkpt lat="42.9035375" lon="11.4033205"><ele>173.0</ele><time>2026-04-02T12:21:20.905Z</time></trkpt><trkpt lat="42.9033798" lon="11.4032493"><ele>172.66666666666666</ele><time>2026-04-02T12:21:21.905Z</time></trkpt><trkpt lat="42.9032298" lon="11.4031329"><ele>172.33333333333334</ele><time>2026-04-02T12:21:22.905Z</time></trkpt><trkpt lat="42.9030867" lon="11.4030036"><ele>172.0</ele><time>2026-04-02T12:21:23.905Z</time></trkpt><trkpt lat="42.9029744" lon="11.4028507"><ele>172.0</ele><time>2026-04-02T12:21:24.905Z</time></trkpt><trkpt lat="42.9029079" lon="11.4026712"><ele>172.0</ele><time>2026-04-02T12:21:25.905Z</time></trkpt><trkpt lat="42.9028819" lon="11.4024814"><ele>172.0</ele><time>2026-04-02T12:21:26.905Z</time></trkpt><trkpt lat="42.9028908" lon="11.4022787"><ele>172.0</ele><time>2026-04-02T12:21:27.905Z</time></trkpt><trkpt lat="42.9028953" lon="11.4020568"><ele>174.0</ele><time>2026-04-02T12:21:28.905Z</time></trkpt><trkpt lat="42.902903" lon="11.4018226"><ele>176.0</ele><time>2026-04-02T12:21:29.905Z</time></trkpt><trkpt lat="42.9029049" lon="11.4015873"><ele>178.0</ele><time>2026-04-02T12:21:30.905Z</time></trkpt><trkpt lat="42.9029026" lon="11.4013408"><ele>179.33333333333334</ele><time>2026-04-02T12:21:31.905Z</time></trkpt><trkpt lat="42.9029052" lon="11.4010899"><ele>180.66666666666666</ele><time>2026-04-02T12:21:32.905Z</time></trkpt><trkpt lat="42.9029117" lon="11.400839"><ele>182.0</ele><time>2026-04-02T12:21:33.905Z</time></trkpt><trkpt lat="42.9029189" lon="11.4005863"><ele>183.0</ele><time>2026-04-02T12:21:34.905Z</time></trkpt><trkpt lat="42.9029199" lon="11.4003612"><ele>184.0</ele><time>2026-04-02T12:21:35.905Z</time></trkpt><trkpt lat="42.9029066" lon="11.4001509"><ele>185.0</ele><time>2026-04-02T12:21:36.905Z</time></trkpt><trkpt lat="42.902885" lon="11.399977"><ele>186.0</ele><time>2026-04-02T12:21:37.905Z</time></trkpt><trkpt lat="42.9028347" lon="11.3998252"><ele>186.0</ele><time>2026-04-02T12:21:38.905Z</time></trkpt><trkpt lat="42.9027491" lon="11.3997027"><ele>186.0</ele><time>2026-04-02T12:21:39.905Z</time></trkpt><trkpt lat="42.9026371" lon="11.3996265"><ele>186.0</ele><time>2026-04-02T12:21:40.905Z</time></trkpt><trkpt lat="42.9024985" lon="11.3995922"><ele>186.0</ele><time>2026-04-02T12:21:41.905Z</time></trkpt><trkpt lat="42.9023481" lon="11.3996007"><ele>188.33333333333331</ele><time>2026-04-02T12:21:42.905Z</time></trkpt><trkpt lat="42.9021879" lon="11.3996467"><ele>190.66666666666666</ele><time>2026-04-02T12:21:43.905Z</time></trkpt><trkpt lat="42.9020189" lon="11.3997155"><ele>193.0</ele><time>2026-04-02T12:21:44.905Z</time></trkpt><trkpt lat="42.9018469" lon="11.3997951"><ele>194.33333333333331</ele><time>2026-04-02T12:21:45.905Z</time></trkpt><trkpt lat="42.9016784" lon="11.3999003"><ele>195.66666666666669</ele><time>2026-04-02T12:21:46.905Z</time></trkpt><trkpt lat="42.9015251" lon="11.4000336"><ele>197.0</ele><time>2026-04-02T12:21:47.905Z</time></trkpt><trkpt lat="42.9013723" lon="11.4001881"><ele>197.0</ele><time>2026-04-02T12:21:48.905Z</time></trkpt><trkpt lat="42.9012276" lon="11.4003512"><ele>197.0</ele><time>2026-04-02T12:21:49.905Z</time></trkpt><trkpt lat="42.90109" lon="11.4005289"><ele>197.0</ele><time>2026-04-02T12:21:50.905Z</time></trkpt><trkpt lat="42.9009611" lon="11.4007027"><ele>199.66666666666669</ele><time>2026-04-02T12:21:51.905Z</time></trkpt><trkpt lat="42.900842" lon="11.4008703"><ele>202.33333333333331</ele><time>2026-04-02T12:21:52.904Z</time></trkpt><trkpt lat="42.9007237" lon="11.4010285"><ele>205.0</ele><time>2026-04-02T12:21:53.905Z</time></trkpt><trkpt lat="42.9005875" lon="11.4011681"><ele>205.0</ele><time>2026-04-02T12:21:54.905Z</time></trkpt><trkpt lat="42.9004398" lon="11.4012868"><ele>205.0</ele><time>2026-04-02T12:21:55.905Z</time></trkpt><trkpt lat="42.9002807" lon="11.4013923"><ele>205.0</ele><time>2026-04-02T12:21:56.905Z</time></trkpt><trkpt lat="42.9001201" lon="11.4014976"><ele>207.66666666666666</ele><time>2026-04-02T12:21:57.905Z</time></trkpt><trkpt lat="42.8999566" lon="11.4015974"><ele>210.33333333333331</ele><time>2026-04-02T12:21:58.905Z</time></trkpt><trkpt lat="42.8997828" lon="11.4016813"><ele>213.0</ele><time>2026-04-02T12:21:59.905Z</time></trkpt><trkpt lat="42.8996017" lon="11.4017435"><ele>213.0</ele><time>2026-04-02T12:22:00.905Z</time></trkpt><trkpt lat="42.8994205" lon="11.4017844"><ele>213.0</ele><time>2026-04-02T12:22:01.905Z</time></trkpt><trkpt lat="42.8992402" lon="11.4018119"><ele>213.0</ele><time>2026-04-02T12:22:02.904Z</time></trkpt><trkpt lat="42.8990635" lon="11.4018569"><ele>216.66666666666669</ele><time>2026-04-02T12:22:03.904Z</time></trkpt><trkpt lat="42.898893" lon="11.4019295"><ele>220.33333333333334</ele><time>2026-04-02T12:22:04.905Z</time></trkpt><trkpt lat="42.8987301" lon="11.4020292"><ele>224.0</ele><time>2026-04-02T12:22:05.905Z</time></trkpt><trkpt lat="42.8985765" lon="11.4021309"><ele>222.0</ele><time>2026-04-02T12:22:06.905Z</time></trkpt><trkpt lat="42.8984245" lon="11.4022113"><ele>220.0</ele><time>2026-04-02T12:22:07.905Z</time></trkpt><trkpt lat="42.8982749" lon="11.4022532"><ele>218.0</ele><time>2026-04-02T12:22:08.905Z</time></trkpt><trkpt lat="42.8981168" lon="11.4022625"><ele>221.0</ele><time>2026-04-02T12:22:09.905Z</time></trkpt><trkpt lat="42.8979678" lon="11.4022386"><ele>224.0</ele><time>2026-04-02T12:22:10.905Z</time></trkpt><trkpt lat="42.8978388" lon="11.4021941"><ele>227.0</ele><time>2026-04-02T12:22:11.905Z</time></trkpt><trkpt lat="42.8977436" lon="11.4021221"><ele>230.0</ele><time>2026-04-02T12:22:12.905Z</time></trkpt><trkpt lat="42.8976893" lon="11.4020217"><ele>231.2</ele><time>2026-04-02T12:22:13.905Z</time></trkpt><trkpt lat="42.8976713" lon="11.4018945"><ele>232.4</ele><time>2026-04-02T12:22:14.905Z</time></trkpt><trkpt lat="42.8976807" lon="11.4017539"><ele>233.60000000000002</ele><time>2026-04-02T12:22:15.905Z</time></trkpt><trkpt lat="42.8976734" lon="11.4016071"><ele>234.8</ele><time>2026-04-02T12:22:16.905Z</time></trkpt><trkpt lat="42.8976337" lon="11.401452"><ele>236.0</ele><time>2026-04-02T12:22:17.905Z</time></trkpt><trkpt lat="42.897558" lon="11.4013065"><ele>239.25</ele><time>2026-04-02T12:22:18.905Z</time></trkpt><trkpt lat="42.8974594" lon="11.4011695"><ele>242.5</ele><time>2026-04-02T12:22:19.905Z</time></trkpt><trkpt lat="42.8973441" lon="11.4010269"><ele>245.75</ele><time>2026-04-02T12:22:20.905Z</time></trkpt><trkpt lat="42.8972287" lon="11.4008914"><ele>249.0</ele><time>2026-04-02T12:22:21.904Z</time></trkpt><trkpt lat="42.8971019" lon="11.4007434"><ele>249.0</ele><time>2026-04-02T12:22:22.905Z</time></trkpt><trkpt lat="42.8969732" lon="11.4005897"><ele>249.0</ele><time>2026-04-02T12:22:23.904Z</time></trkpt><trkpt lat="42.8968405" lon="11.4004244"><ele>249.0</ele><time>2026-04-02T12:22:24.905Z</time></trkpt><trkpt lat="42.8967035" lon="11.4002565"><ele>252.0</ele><time>2026-04-02T12:22:25.905Z</time></trkpt><trkpt lat="42.8965653" lon="11.4000793"><ele>255.0</ele><time>2026-04-02T12:22:26.905Z</time></trkpt><trkpt lat="42.8964288" lon="11.3999094"><ele>258.0</ele><time>2026-04-02T12:22:27.905Z</time></trkpt><trkpt lat="42.8963027" lon="11.3997543"><ele>257.6666666666667</ele><time>2026-04-02T12:22:28.904Z</time></trkpt><trkpt lat="42.8961821" lon="11.3996329"><ele>257.33333333333337</ele><time>2026-04-02T12:22:29.905Z</time></trkpt><trkpt lat="42.8960436" lon="11.3995355"><ele>257.0</ele><time>2026-04-02T12:22:30.905Z</time></trkpt><trkpt lat="42.8958936" lon="11.3994751"><ele>259.0</ele><time>2026-04-02T12:22:31.905Z</time></trkpt><trkpt lat="42.8957319" lon="11.3994352"><ele>261.0</ele><time>2026-04-02T12:22:32.905Z</time></trkpt><trkpt lat="42.8955567" lon="11.3993993"><ele>263.0</ele><time>2026-04-02T12:22:33.905Z</time></trkpt><trkpt lat="42.8953806" lon="11.3993636"><ele>263.0</ele><time>2026-04-02T12:22:34.905Z</time></trkpt><trkpt lat="42.8952178" lon="11.3993312"><ele>263.0</ele><time>2026-04-02T12:22:35.905Z</time></trkpt><trkpt lat="42.8950664" lon="11.3992848"><ele>263.0</ele><time>2026-04-02T12:22:36.905Z</time></trkpt><trkpt lat="42.8949323" lon="11.3992129"><ele>265.25</ele><time>2026-04-02T12:22:37.905Z</time></trkpt><trkpt lat="42.8948182" lon="11.3990998"><ele>267.5</ele><time>2026-04-02T12:22:38.905Z</time></trkpt><trkpt lat="42.894716" lon="11.3989682"><ele>269.75</ele><time>2026-04-02T12:22:39.905Z</time></trkpt><trkpt lat="42.8946178" lon="11.3988266"><ele>272.0</ele><time>2026-04-02T12:22:40.905Z</time></trkpt><trkpt lat="42.8945283" lon="11.3987069"><ele>272.0</ele><time>2026-04-02T12:22:41.904Z</time></trkpt><trkpt lat="42.8944401" lon="11.3986003"><ele>272.0</ele><time>2026-04-02T12:22:42.905Z</time></trkpt><trkpt lat="42.894356" lon="11.3985205"><ele>272.0</ele><time>2026-04-02T12:22:43.905Z</time></trkpt><trkpt lat="42.8942718" lon="11.3984739"><ele>272.0</ele><time>2026-04-02T12:22:44.905Z</time></trkpt><trkpt lat="42.8941854" lon="11.3984373"><ele>272.0</ele><time>2026-04-02T12:22:45.905Z</time></trkpt><trkpt lat="42.894097" lon="11.3984117"><ele>272.6666666666667</ele><time>2026-04-02T12:22:46.905Z</time></trkpt><trkpt lat="42.8940225" lon="11.3984049"><ele>273.33333333333337</ele><time>2026-04-02T12:22:47.905Z</time></trkpt><trkpt lat="42.8939165" lon="11.3984518"><ele>274.0</ele><time>2026-04-02T12:22:49.905Z</time></trkpt><trkpt lat="42.8938532" lon="11.3984983"><ele>274.6666666666667</ele><time>2026-04-02T12:22:51.905Z</time></trkpt><trkpt lat="42.8937913" lon="11.3985148"><ele>275.3333333333333</ele><time>2026-04-02T12:22:54.905Z</time></trkpt><trkpt lat="42.8937237" lon="11.3985084"><ele>276.0</ele><time>2026-04-02T12:25:34.904Z</time></trkpt><trkpt lat="42.8936697" lon="11.3984287"><ele>276.0</ele><time>2026-04-02T12:25:36.904Z</time></trkpt><trkpt lat="42.8936211" lon="11.3983578"><ele>276.0</ele><time>2026-04-02T12:25:38.904Z</time></trkpt><trkpt lat="42.8935297" lon="11.3982969"><ele>276.0</ele><time>2026-04-02T12:25:40.904Z</time></trkpt><trkpt lat="42.8934634" lon="11.3982768"><ele>276.0</ele><time>2026-04-02T12:25:41.904Z</time></trkpt><trkpt lat="42.8933646" lon="11.39826"><ele>276.0</ele><time>2026-04-02T12:25:43.904Z</time></trkpt><trkpt lat="42.8932935" lon="11.3982586"><ele>276.0</ele><time>2026-04-02T12:25:46.904Z</time></trkpt><trkpt lat="42.8932828" lon="11.3983751"><ele>276.0</ele><time>2026-04-02T12:25:50.904Z</time></trkpt><trkpt lat="42.8933853" lon="11.3985103"><ele>276.0</ele><time>2026-04-02T12:25:52.904Z</time></trkpt><trkpt lat="42.893457" lon="11.3985912"><ele>276.0</ele><time>2026-04-02T12:25:53.904Z</time></trkpt><trkpt lat="42.8935297" lon="11.3986856"><ele>276.0</ele><time>2026-04-02T12:25:54.904Z</time></trkpt><trkpt lat="42.8936163" lon="11.3988005"><ele>278.75</ele><time>2026-04-02T12:25:55.904Z</time></trkpt><trkpt lat="42.8937097" lon="11.3989227"><ele>281.5</ele><time>2026-04-02T12:25:56.903Z</time></trkpt><trkpt lat="42.8938118" lon="11.399047"><ele>284.25</ele><time>2026-04-02T12:25:57.904Z</time></trkpt><trkpt lat="42.8939221" lon="11.3991892"><ele>287.0</ele><time>2026-04-02T12:25:58.904Z</time></trkpt><trkpt lat="42.8940378" lon="11.3993367"><ele>287.0</ele><time>2026-04-02T12:25:59.904Z</time></trkpt><trkpt lat="42.8941535" lon="11.3994947"><ele>287.0</ele><time>2026-04-02T12:26:00.904Z</time></trkpt><trkpt lat="42.8942698" lon="11.3996549"><ele>287.0</ele><time>2026-04-02T12:26:01.904Z</time></trkpt><trkpt lat="42.8943788" lon="11.3998074"><ele>284.75</ele><time>2026-04-02T12:26:02.904Z</time></trkpt><trkpt lat="42.8944751" lon="11.3999457"><ele>282.5</ele><time>2026-04-02T12:26:03.904Z</time></trkpt><trkpt lat="42.8945578" lon="11.4000734"><ele>280.25</ele><time>2026-04-02T12:26:04.904Z</time></trkpt><trkpt lat="42.8946334" lon="11.4002192"><ele>278.0</ele><time>2026-04-02T12:26:05.904Z</time></trkpt><trkpt lat="42.8946889" lon="11.4003754"><ele>280.0</ele><time>2026-04-02T12:26:06.904Z</time></trkpt><trkpt lat="42.894727" lon="11.4005574"><ele>282.0</ele><time>2026-04-02T12:26:07.904Z</time></trkpt><trkpt lat="42.8947384" lon="11.4007396"><ele>284.0</ele><time>2026-04-02T12:26:08.904Z</time></trkpt><trkpt lat="42.8947209" lon="11.4009166"><ele>286.0</ele><time>2026-04-02T12:26:09.904Z</time></trkpt><trkpt lat="42.8946762" lon="11.4010885"><ele>286.0</ele><time>2026-04-02T12:26:10.904Z</time></trkpt><trkpt lat="42.8946136" lon="11.4012487"><ele>286.0</ele><time>2026-04-02T12:26:11.904Z</time></trkpt><trkpt lat="42.8945401" lon="11.4013886"><ele>286.0</ele><time>2026-04-02T12:26:12.904Z</time></trkpt><trkpt lat="42.894463" lon="11.4015005"><ele>286.0</ele><time>2026-04-02T12:26:13.904Z</time></trkpt><trkpt lat="42.8943965" lon="11.401591"><ele>285.5</ele><time>2026-04-02T12:26:14.903Z</time></trkpt><trkpt lat="42.8943487" lon="11.4016535"><ele>285.0</ele><time>2026-04-02T12:26:15.903Z</time></trkpt><trkpt lat="42.8942986" lon="11.4017157"><ele>284.5</ele><time>2026-04-02T12:26:17.904Z</time></trkpt><trkpt lat="42.8943658" lon="11.4017436"><ele>284.0</ele><time>2026-04-02T12:26:25.904Z</time></trkpt><trkpt lat="42.8944109" lon="11.401667"><ele>283.5</ele><time>2026-04-02T12:26:28.904Z</time></trkpt><trkpt lat="42.8943165" lon="11.4017249"><ele>283.0</ele><time>2026-04-02T12:27:30.904Z</time></trkpt><trkpt lat="42.8942622" lon="11.4018093"><ele>284.0</ele><time>2026-04-02T12:27:31.904Z</time></trkpt><trkpt lat="42.8941972" lon="11.4019094"><ele>285.0</ele><time>2026-04-02T12:27:32.904Z</time></trkpt><trkpt lat="42.8941245" lon="11.4020246"><ele>286.0</ele><time>2026-04-02T12:27:33.904Z</time></trkpt><trkpt lat="42.8940498" lon="11.402161"><ele>287.0</ele><time>2026-04-02T12:27:34.903Z</time></trkpt><trkpt lat="42.8939753" lon="11.4023039"><ele>287.0</ele><time>2026-04-02T12:27:35.904Z</time></trkpt><trkpt lat="42.8938961" lon="11.4024644"><ele>287.0</ele><time>2026-04-02T12:27:36.903Z</time></trkpt><trkpt lat="42.8938119" lon="11.4026343"><ele>287.0</ele><time>2026-04-02T12:27:37.904Z</time></trkpt><trkpt lat="42.8937226" lon="11.4028139"><ele>286.33333333333337</ele><time>2026-04-02T12:27:38.904Z</time></trkpt><trkpt lat="42.8936338" lon="11.4030027"><ele>285.6666666666667</ele><time>2026-04-02T12:27:39.903Z</time></trkpt><trkpt lat="42.893547" lon="11.4031995"><ele>285.0</ele><time>2026-04-02T12:27:40.904Z</time></trkpt><trkpt lat="42.8934689" lon="11.4034108"><ele>290.3333333333333</ele><time>2026-04-02T12:27:41.903Z</time></trkpt><trkpt lat="42.8934041" lon="11.4036279"><ele>295.66666666666663</ele><time>2026-04-02T12:27:42.904Z</time></trkpt><trkpt lat="42.8933458" lon="11.4038533"><ele>301.0</ele><time>2026-04-02T12:27:43.904Z</time></trkpt><trkpt lat="42.8932926" lon="11.4040698"><ele>301.3333333333333</ele><time>2026-04-02T12:27:44.904Z</time></trkpt><trkpt lat="42.8932394" lon="11.40429"><ele>301.6666666666667</ele><time>2026-04-02T12:27:45.904Z</time></trkpt><trkpt lat="42.8931945" lon="11.4045104"><ele>302.0</ele><time>2026-04-02T12:27:46.904Z</time></trkpt><trkpt lat="42.8931502" lon="11.4047396"><ele>301.33333333333337</ele><time>2026-04-02T12:27:47.903Z</time></trkpt><trkpt lat="42.8931059" lon="11.4049767"><ele>300.6666666666667</ele><time>2026-04-02T12:27:48.904Z</time></trkpt><trkpt lat="42.8930602" lon="11.4052192"><ele>300.0</ele><time>2026-04-02T12:27:49.904Z</time></trkpt><trkpt lat="42.8930137" lon="11.4054632"><ele>298.3333333333333</ele><time>2026-04-02T12:27:50.904Z</time></trkpt><trkpt lat="42.8929596" lon="11.4057116"><ele>296.66666666666663</ele><time>2026-04-02T12:27:51.904Z</time></trkpt><trkpt lat="42.8928993" lon="11.4059648"><ele>295.0</ele><time>2026-04-02T12:27:52.904Z</time></trkpt><trkpt lat="42.8928377" lon="11.4062195"><ele>292.0</ele><time>2026-04-02T12:27:53.904Z</time></trkpt><trkpt lat="42.8927733" lon="11.4064719"><ele>289.0</ele><time>2026-04-02T12:27:54.904Z</time></trkpt><trkpt lat="42.8927056" lon="11.4067042"><ele>286.0</ele><time>2026-04-02T12:27:55.903Z</time></trkpt><trkpt lat="42.892634" lon="11.406919"><ele>290.66666666666663</ele><time>2026-04-02T12:27:56.904Z</time></trkpt><trkpt lat="42.8925522" lon="11.4071301"><ele>295.3333333333333</ele><time>2026-04-02T12:27:57.903Z</time></trkpt><trkpt lat="42.8924594" lon="11.4073242"><ele>300.0</ele><time>2026-04-02T12:27:58.904Z</time></trkpt><trkpt lat="42.8923504" lon="11.4075014"><ele>300.0</ele><time>2026-04-02T12:27:59.904Z</time></trkpt><trkpt lat="42.892224" lon="11.4076594"><ele>300.0</ele><time>2026-04-02T12:28:00.904Z</time></trkpt><trkpt lat="42.8920896" lon="11.4077988"><ele>300.0</ele><time>2026-04-02T12:28:01.904Z</time></trkpt><trkpt lat="42.8919557" lon="11.4079355"><ele>300.3333333333333</ele><time>2026-04-02T12:28:02.904Z</time></trkpt><trkpt lat="42.8918246" lon="11.4080815"><ele>300.66666666666663</ele><time>2026-04-02T12:28:03.904Z</time></trkpt><trkpt lat="42.8917094" lon="11.4082551"><ele>301.0</ele><time>2026-04-02T12:28:04.904Z</time></trkpt><trkpt lat="42.8916041" lon="11.4084522"><ele>301.0</ele><time>2026-04-02T12:28:05.904Z</time></trkpt><trkpt lat="42.8915011" lon="11.4086631"><ele>301.0</ele><time>2026-04-02T12:28:06.903Z</time></trkpt><trkpt lat="42.8913963" lon="11.4088871"><ele>301.0</ele><time>2026-04-02T12:28:07.904Z</time></trkpt><trkpt lat="42.8912921" lon="11.4091141"><ele>299.0</ele><time>2026-04-02T12:28:08.904Z</time></trkpt><trkpt lat="42.8911835" lon="11.4093465"><ele>297.0</ele><time>2026-04-02T12:28:09.904Z</time></trkpt><trkpt lat="42.8910821" lon="11.4095822"><ele>295.0</ele><time>2026-04-02T12:28:10.904Z</time></trkpt><trkpt lat="42.8909961" lon="11.4098327"><ele>296.3333333333333</ele><time>2026-04-02T12:28:11.904Z</time></trkpt><trkpt lat="42.8909286" lon="11.4100885"><ele>297.6666666666667</ele><time>2026-04-02T12:28:12.904Z</time></trkpt><trkpt lat="42.8908796" lon="11.4103576"><ele>299.0</ele><time>2026-04-02T12:28:13.903Z</time></trkpt><trkpt lat="42.8908372" lon="11.4106309"><ele>299.0</ele><time>2026-04-02T12:28:14.904Z</time></trkpt><trkpt lat="42.8908101" lon="11.4109061"><ele>299.0</ele><time>2026-04-02T12:28:15.904Z</time></trkpt><trkpt lat="42.8907862" lon="11.4111829"><ele>299.0</ele><time>2026-04-02T12:28:16.904Z</time></trkpt><trkpt lat="42.8907662" lon="11.4114576"><ele>299.33333333333337</ele><time>2026-04-02T12:28:17.904Z</time></trkpt><trkpt lat="42.8907437" lon="11.4117374"><ele>299.6666666666667</ele><time>2026-04-02T12:28:18.904Z</time></trkpt><trkpt lat="42.8907174" lon="11.4120186"><ele>300.0</ele><time>2026-04-02T12:28:19.903Z</time></trkpt><trkpt lat="42.8906896" lon="11.4123017"><ele>299.3333333333333</ele><time>2026-04-02T12:28:20.904Z</time></trkpt><trkpt lat="42.8906606" lon="11.4125844"><ele>298.66666666666663</ele><time>2026-04-02T12:28:21.903Z</time></trkpt><trkpt lat="42.8906387" lon="11.4128701"><ele>298.0</ele><time>2026-04-02T12:28:22.904Z</time></trkpt><trkpt lat="42.8906181" lon="11.4131496"><ele>299.3333333333333</ele><time>2026-04-02T12:28:23.903Z</time></trkpt><trkpt lat="42.8906003" lon="11.4134201"><ele>300.6666666666667</ele><time>2026-04-02T12:28:24.904Z</time></trkpt><trkpt lat="42.8905858" lon="11.4136597"><ele>302.0</ele><time>2026-04-02T12:28:25.904Z</time></trkpt><trkpt lat="42.8905826" lon="11.4138769"><ele>303.5</ele><time>2026-04-02T12:28:26.904Z</time></trkpt><trkpt lat="42.8905814" lon="11.4140732"><ele>305.0</ele><time>2026-04-02T12:28:27.904Z</time></trkpt><trkpt lat="42.8905988" lon="11.4142471"><ele>306.5</ele><time>2026-04-02T12:28:28.903Z</time></trkpt><trkpt lat="42.8906277" lon="11.4144134"><ele>308.0</ele><time>2026-04-02T12:28:29.904Z</time></trkpt><trkpt lat="42.8906708" lon="11.4145816"><ele>308.25</ele><time>2026-04-02T12:28:30.904Z</time></trkpt><trkpt lat="42.8907282" lon="11.4147467"><ele>308.5</ele><time>2026-04-02T12:28:31.904Z</time></trkpt><trkpt lat="42.890795" lon="11.4149226"><ele>308.75</ele><time>2026-04-02T12:28:32.904Z</time></trkpt><trkpt lat="42.8908668" lon="11.4151001"><ele>309.0</ele><time>2026-04-02T12:28:33.904Z</time></trkpt><trkpt lat="42.890943" lon="11.4152865"><ele>309.0</ele><time>2026-04-02T12:28:34.904Z</time></trkpt><trkpt lat="42.8910186" lon="11.4154748"><ele>309.0</ele><time>2026-04-02T12:28:35.904Z</time></trkpt><trkpt lat="42.8910828" lon="11.4156564"><ele>309.0</ele><time>2026-04-02T12:28:36.904Z</time></trkpt><trkpt lat="42.8911273" lon="11.4158159"><ele>309.0</ele><time>2026-04-02T12:28:37.904Z</time></trkpt><trkpt lat="42.8911447" lon="11.4159672"><ele>310.0</ele><time>2026-04-02T12:28:38.904Z</time></trkpt><trkpt lat="42.8911384" lon="11.4161139"><ele>311.0</ele><time>2026-04-02T12:28:39.904Z</time></trkpt><trkpt lat="42.8910932" lon="11.4162567"><ele>312.0</ele><time>2026-04-02T12:28:40.904Z</time></trkpt><trkpt lat="42.891016" lon="11.4163825"><ele>313.0</ele><time>2026-04-02T12:28:41.903Z</time></trkpt><trkpt lat="42.890908" lon="11.4164873"><ele>318.0</ele><time>2026-04-02T12:28:42.904Z</time></trkpt><trkpt lat="42.8907769" lon="11.4165754"><ele>323.0</ele><time>2026-04-02T12:28:43.904Z</time></trkpt><trkpt lat="42.8906323" lon="11.4166742"><ele>328.0</ele><time>2026-04-02T12:28:44.904Z</time></trkpt><trkpt lat="42.8904868" lon="11.4167846"><ele>328.0</ele><time>2026-04-02T12:28:45.904Z</time></trkpt><trkpt lat="42.8903501" lon="11.4169195"><ele>328.0</ele><time>2026-04-02T12:28:46.904Z</time></trkpt><trkpt lat="42.8902123" lon="11.4170816"><ele>328.0</ele><time>2026-04-02T12:28:47.904Z</time></trkpt><trkpt lat="42.890088" lon="11.4172634"><ele>332.0</ele><time>2026-04-02T12:28:48.904Z</time></trkpt><trkpt lat="42.8899651" lon="11.4174537"><ele>336.0</ele><time>2026-04-02T12:28:49.903Z</time></trkpt><trkpt lat="42.8898366" lon="11.4176355"><ele>340.0</ele><time>2026-04-02T12:28:50.904Z</time></trkpt><trkpt lat="42.889694" lon="11.4178043"><ele>340.0</ele><time>2026-04-02T12:28:51.904Z</time></trkpt><trkpt lat="42.8895372" lon="11.4179627"><ele>340.0</ele><time>2026-04-02T12:28:52.904Z</time></trkpt><trkpt lat="42.8893738" lon="11.4181062"><ele>340.0</ele><time>2026-04-02T12:28:53.903Z</time></trkpt><trkpt lat="42.8892033" lon="11.4182593"><ele>344.0</ele><time>2026-04-02T12:28:54.904Z</time></trkpt><trkpt lat="42.8890303" lon="11.4184154"><ele>348.0</ele><time>2026-04-02T12:28:55.904Z</time></trkpt><trkpt lat="42.8888573" lon="11.4185688"><ele>352.0</ele><time>2026-04-02T12:28:56.904Z</time></trkpt><trkpt lat="42.8887003" lon="11.4187117"><ele>354.3333333333333</ele><time>2026-04-02T12:28:57.904Z</time></trkpt><trkpt lat="42.8885531" lon="11.4188405"><ele>356.6666666666667</ele><time>2026-04-02T12:28:58.904Z</time></trkpt><trkpt lat="42.8884225" lon="11.4189541"><ele>359.0</ele><time>2026-04-02T12:28:59.904Z</time></trkpt><trkpt lat="42.8883086" lon="11.4190477"><ele>359.0</ele><time>2026-04-02T12:29:00.904Z</time></trkpt><trkpt lat="42.8882208" lon="11.4191479"><ele>359.0</ele><time>2026-04-02T12:29:01.904Z</time></trkpt><trkpt lat="42.8881637" lon="11.4192607"><ele>359.0</ele><time>2026-04-02T12:29:02.904Z</time></trkpt><trkpt lat="42.8881425" lon="11.4193844"><ele>359.0</ele><time>2026-04-02T12:29:03.904Z</time></trkpt><trkpt lat="42.8881654" lon="11.4195089"><ele>359.0</ele><time>2026-04-02T12:29:04.904Z</time></trkpt><trkpt lat="42.8882242" lon="11.4196293"><ele>359.5</ele><time>2026-04-02T12:29:05.904Z</time></trkpt><trkpt lat="42.8883038" lon="11.4197533"><ele>360.0</ele><time>2026-04-02T12:29:06.904Z</time></trkpt><trkpt lat="42.8883881" lon="11.4199057"><ele>360.5</ele><time>2026-04-02T12:29:07.904Z</time></trkpt><trkpt lat="42.888463" lon="11.4200775"><ele>361.0</ele><time>2026-04-02T12:29:08.904Z</time></trkpt><trkpt lat="42.8885349" lon="11.420255"><ele>363.5</ele><time>2026-04-02T12:29:09.904Z</time></trkpt><trkpt lat="42.8886062" lon="11.4204373"><ele>366.0</ele><time>2026-04-02T12:29:10.904Z</time></trkpt><trkpt lat="42.8886698" lon="11.4206065"><ele>368.5</ele><time>2026-04-02T12:29:11.904Z</time></trkpt><trkpt lat="42.8887236" lon="11.4207684"><ele>371.0</ele><time>2026-04-02T12:29:12.904Z</time></trkpt><trkpt lat="42.8887603" lon="11.4209355"><ele>371.0</ele><time>2026-04-02T12:29:13.903Z</time></trkpt><trkpt lat="42.8887825" lon="11.4211003"><ele>371.0</ele><time>2026-04-02T12:29:14.903Z</time></trkpt><trkpt lat="42.8887996" lon="11.4212657"><ele>371.0</ele><time>2026-04-02T12:29:15.904Z</time></trkpt><trkpt lat="42.8888138" lon="11.421431"><ele>371.0</ele><time>2026-04-02T12:29:16.904Z</time></trkpt><trkpt lat="42.8888295" lon="11.421593"><ele>371.25</ele><time>2026-04-02T12:29:17.904Z</time></trkpt><trkpt lat="42.8888485" lon="11.421758"><ele>371.5</ele><time>2026-04-02T12:29:18.904Z</time></trkpt><trkpt lat="42.8888677" lon="11.4219328"><ele>371.75</ele><time>2026-04-02T12:29:19.903Z</time></trkpt><trkpt lat="42.888883" lon="11.4221317"><ele>372.0</ele><time>2026-04-02T12:29:20.904Z</time></trkpt><trkpt lat="42.8889023" lon="11.422336"><ele>373.6666666666667</ele><time>2026-04-02T12:29:21.904Z</time></trkpt><trkpt lat="42.8889269" lon="11.4225517"><ele>375.33333333333337</ele><time>2026-04-02T12:29:22.904Z</time></trkpt><trkpt lat="42.8889689" lon="11.4227783"><ele>377.0</ele><time>2026-04-02T12:29:23.903Z</time></trkpt><trkpt lat="42.8890275" lon="11.423016"><ele>378.0</ele><time>2026-04-02T12:29:24.904Z</time></trkpt><trkpt lat="42.8890969" lon="11.4232635"><ele>379.0</ele><time>2026-04-02T12:29:25.904Z</time></trkpt><trkpt lat="42.8891764" lon="11.4235108"><ele>380.0</ele><time>2026-04-02T12:29:26.904Z</time></trkpt><trkpt lat="42.8892534" lon="11.4237619"><ele>378.33333333333337</ele><time>2026-04-02T12:29:27.904Z</time></trkpt><trkpt lat="42.8893304" lon="11.4240067"><ele>376.6666666666667</ele><time>2026-04-02T12:29:28.903Z</time></trkpt><trkpt lat="42.8894064" lon="11.4242424"><ele>375.0</ele><time>2026-04-02T12:29:29.904Z</time></trkpt><trkpt lat="42.8894732" lon="11.4244521"><ele>375.0</ele><time>2026-04-02T12:29:30.904Z</time></trkpt><trkpt lat="42.8895223" lon="11.4246432"><ele>375.0</ele><time>2026-04-02T12:29:31.904Z</time></trkpt><trkpt lat="42.8895447" lon="11.4248502"><ele>375.0</ele><time>2026-04-02T12:29:32.904Z</time></trkpt><trkpt lat="42.8895404" lon="11.4250623"><ele>375.0</ele><time>2026-04-02T12:29:33.904Z</time></trkpt><trkpt lat="42.8895207" lon="11.4252857"><ele>375.0</ele><time>2026-04-02T12:29:34.904Z</time></trkpt><trkpt lat="42.8894954" lon="11.4255202"><ele>375.0</ele><time>2026-04-02T12:29:35.904Z</time></trkpt><trkpt lat="42.889467" lon="11.4257641"><ele>375.0</ele><time>2026-04-02T12:29:36.904Z</time></trkpt><trkpt lat="42.8894377" lon="11.4260126"><ele>375.0</ele><time>2026-04-02T12:29:37.903Z</time></trkpt><trkpt lat="42.8894088" lon="11.4262705"><ele>375.0</ele><time>2026-04-02T12:29:38.903Z</time></trkpt><trkpt lat="42.8893816" lon="11.4265299"><ele>374.3333333333333</ele><time>2026-04-02T12:29:39.904Z</time></trkpt><trkpt lat="42.8893498" lon="11.4267969"><ele>373.66666666666663</ele><time>2026-04-02T12:29:40.904Z</time></trkpt><trkpt lat="42.8893205" lon="11.4270523"><ele>373.0</ele><time>2026-04-02T12:29:41.904Z</time></trkpt><trkpt lat="42.8892905" lon="11.4272883"><ele>374.3333333333333</ele><time>2026-04-02T12:29:42.903Z</time></trkpt><trkpt lat="42.8892834" lon="11.4275105"><ele>375.6666666666667</ele><time>2026-04-02T12:29:43.904Z</time></trkpt><trkpt lat="42.8893039" lon="11.427734"><ele>377.0</ele><time>2026-04-02T12:29:44.904Z</time></trkpt><trkpt lat="42.8893467" lon="11.4279526"><ele>380.6666666666667</ele><time>2026-04-02T12:29:45.903Z</time></trkpt><trkpt lat="42.8894094" lon="11.4281723"><ele>384.33333333333337</ele><time>2026-04-02T12:29:46.904Z</time></trkpt><trkpt lat="42.8894944" lon="11.4283805"><ele>388.0</ele><time>2026-04-02T12:29:47.904Z</time></trkpt><trkpt lat="42.8896055" lon="11.4285787"><ele>388.0</ele><time>2026-04-02T12:29:48.904Z</time></trkpt><trkpt lat="42.8897387" lon="11.4287661"><ele>388.0</ele><time>2026-04-02T12:29:49.904Z</time></trkpt><trkpt lat="42.8898746" lon="11.4289404"><ele>388.0</ele><time>2026-04-02T12:29:50.904Z</time></trkpt><trkpt lat="42.8899975" lon="11.4290899"><ele>387.5</ele><time>2026-04-02T12:29:51.904Z</time></trkpt><trkpt lat="42.8900862" lon="11.4292277"><ele>387.0</ele><time>2026-04-02T12:29:52.904Z</time></trkpt><trkpt lat="42.8901366" lon="11.4293719"><ele>386.5</ele><time>2026-04-02T12:29:53.904Z</time></trkpt><trkpt lat="42.8901479" lon="11.429524"><ele>386.0</ele><time>2026-04-02T12:29:54.903Z</time></trkpt><trkpt lat="42.8901186" lon="11.4296822"><ele>391.66666666666663</ele><time>2026-04-02T12:29:55.904Z</time></trkpt><trkpt lat="42.8900592" lon="11.42985"><ele>397.33333333333337</ele><time>2026-04-02T12:29:56.904Z</time></trkpt><trkpt lat="42.8899935" lon="11.4300442"><ele>403.0</ele><time>2026-04-02T12:29:57.904Z</time></trkpt><trkpt lat="42.8899184" lon="11.4302533"><ele>403.0</ele><time>2026-04-02T12:29:58.904Z</time></trkpt><trkpt lat="42.8898287" lon="11.4304721"><ele>403.0</ele><time>2026-04-02T12:29:59.903Z</time></trkpt><trkpt lat="42.8897263" lon="11.4306942"><ele>403.0</ele><time>2026-04-02T12:30:00.904Z</time></trkpt><trkpt lat="42.8896115" lon="11.4309231"><ele>402.33333333333337</ele><time>2026-04-02T12:30:01.904Z</time></trkpt><trkpt lat="42.8894892" lon="11.4311643"><ele>401.66666666666663</ele><time>2026-04-02T12:30:02.904Z</time></trkpt><trkpt lat="42.8893668" lon="11.4313908"><ele>401.0</ele><time>2026-04-02T12:30:03.904Z</time></trkpt><trkpt lat="42.8892591" lon="11.4315943"><ele>405.3333333333333</ele><time>2026-04-02T12:30:04.904Z</time></trkpt><trkpt lat="42.889159" lon="11.4317805"><ele>409.66666666666663</ele><time>2026-04-02T12:30:05.903Z</time></trkpt><trkpt lat="42.8890671" lon="11.4319576"><ele>414.0</ele><time>2026-04-02T12:30:06.904Z</time></trkpt><trkpt lat="42.8889861" lon="11.432147"><ele>414.0</ele><time>2026-04-02T12:30:07.904Z</time></trkpt><trkpt lat="42.8889293" lon="11.4323601"><ele>414.0</ele><time>2026-04-02T12:30:08.904Z</time></trkpt><trkpt lat="42.8888898" lon="11.432583"><ele>414.0</ele><time>2026-04-02T12:30:09.903Z</time></trkpt><trkpt lat="42.8888869" lon="11.4328056"><ele>417.0</ele><time>2026-04-02T12:30:10.904Z</time></trkpt><trkpt lat="42.8889245" lon="11.433019"><ele>420.0</ele><time>2026-04-02T12:30:11.904Z</time></trkpt><trkpt lat="42.8889887" lon="11.4332197"><ele>423.0</ele><time>2026-04-02T12:30:12.904Z</time></trkpt><trkpt lat="42.8890506" lon="11.4334226"><ele>423.0</ele><time>2026-04-02T12:30:13.904Z</time></trkpt><trkpt lat="42.8890845" lon="11.4336414"><ele>423.0</ele><time>2026-04-02T12:30:14.904Z</time></trkpt><trkpt lat="42.8890824" lon="11.4338743"><ele>423.0</ele><time>2026-04-02T12:30:15.904Z</time></trkpt><trkpt lat="42.8890652" lon="11.4341239"><ele>425.0</ele><time>2026-04-02T12:30:16.904Z</time></trkpt><trkpt lat="42.8890384" lon="11.4343944"><ele>427.0</ele><time>2026-04-02T12:30:17.904Z</time></trkpt><trkpt lat="42.8890057" lon="11.4346854"><ele>429.0</ele><time>2026-04-02T12:30:18.904Z</time></trkpt><trkpt lat="42.8889726" lon="11.4349794"><ele>429.0</ele><time>2026-04-02T12:30:19.904Z</time></trkpt><trkpt lat="42.8889433" lon="11.4352674"><ele>429.0</ele><time>2026-04-02T12:30:20.904Z</time></trkpt><trkpt lat="42.8889183" lon="11.4355489"><ele>429.0</ele><time>2026-04-02T12:30:21.904Z</time></trkpt><trkpt lat="42.8888982" lon="11.4358267"><ele>430.33333333333337</ele><time>2026-04-02T12:30:22.903Z</time></trkpt><trkpt lat="42.8888763" lon="11.4360938"><ele>431.6666666666667</ele><time>2026-04-02T12:30:23.903Z</time></trkpt><trkpt lat="42.8888561" lon="11.4363474"><ele>433.0</ele><time>2026-04-02T12:30:24.904Z</time></trkpt><trkpt lat="42.8888422" lon="11.4365911"><ele>435.33333333333337</ele><time>2026-04-02T12:30:25.904Z</time></trkpt><trkpt lat="42.8888326" lon="11.4368258"><ele>437.66666666666663</ele><time>2026-04-02T12:30:26.904Z</time></trkpt><trkpt lat="42.8888406" lon="11.4370551"><ele>440.0</ele><time>2026-04-02T12:30:27.904Z</time></trkpt><trkpt lat="42.8888708" lon="11.4372792"><ele>443.0</ele><time>2026-04-02T12:30:28.903Z</time></trkpt><trkpt lat="42.8889291" lon="11.4374876"><ele>446.0</ele><time>2026-04-02T12:30:29.904Z</time></trkpt><trkpt lat="42.8890177" lon="11.4376905"><ele>449.0</ele><time>2026-04-02T12:30:30.903Z</time></trkpt><trkpt lat="42.8891271" lon="11.4378711"><ele>451.3333333333333</ele><time>2026-04-02T12:30:31.904Z</time></trkpt><trkpt lat="42.8892613" lon="11.4380319"><ele>453.66666666666663</ele><time>2026-04-02T12:30:32.904Z</time></trkpt><trkpt lat="42.889419" lon="11.4381713"><ele>456.0</ele><time>2026-04-02T12:30:33.904Z</time></trkpt><trkpt lat="42.8895885" lon="11.438295"><ele>456.0</ele><time>2026-04-02T12:30:34.904Z</time></trkpt><trkpt lat="42.889741" lon="11.4384098"><ele>456.0</ele><time>2026-04-02T12:30:35.904Z</time></trkpt><trkpt lat="42.8898666" lon="11.4385246"><ele>456.0</ele><time>2026-04-02T12:30:36.904Z</time></trkpt><trkpt lat="42.8899532" lon="11.4386462"><ele>456.0</ele><time>2026-04-02T12:30:37.904Z</time></trkpt><trkpt lat="42.8900168" lon="11.4387916"><ele>456.0</ele><time>2026-04-02T12:30:38.904Z</time></trkpt><trkpt lat="42.8900596" lon="11.4389628"><ele>456.0</ele><time>2026-04-02T12:30:39.903Z</time></trkpt><trkpt lat="42.8900835" lon="11.4391665"><ele>456.0</ele><time>2026-04-02T12:30:40.903Z</time></trkpt><trkpt lat="42.8901037" lon="11.4393949"><ele>453.33333333333337</ele><time>2026-04-02T12:30:41.904Z</time></trkpt><trkpt lat="42.8901303" lon="11.4396437"><ele>450.6666666666667</ele><time>2026-04-02T12:30:42.904Z</time></trkpt><trkpt lat="42.8901547" lon="11.4399105"><ele>448.0</ele><time>2026-04-02T12:30:43.904Z</time></trkpt><trkpt lat="42.890171" lon="11.440166"><ele>448.0</ele><time>2026-04-02T12:30:44.904Z</time></trkpt><trkpt lat="42.8901745" lon="11.4404199"><ele>448.0</ele><time>2026-04-02T12:30:45.904Z</time></trkpt><trkpt lat="42.8901564" lon="11.4406826"><ele>448.0</ele><time>2026-04-02T12:30:46.904Z</time></trkpt><trkpt lat="42.8901159" lon="11.440949"><ele>455.6666666666667</ele><time>2026-04-02T12:30:47.904Z</time></trkpt><trkpt lat="42.8900713" lon="11.4411939"><ele>463.33333333333337</ele><time>2026-04-02T12:30:48.904Z</time></trkpt><trkpt lat="42.8900277" lon="11.4413956"><ele>471.0</ele><time>2026-04-02T12:30:49.904Z</time></trkpt><trkpt lat="42.8899768" lon="11.4415592"><ele>471.0</ele><time>2026-04-02T12:30:50.904Z</time></trkpt><trkpt lat="42.889905" lon="11.4416922"><ele>471.0</ele><time>2026-04-02T12:30:51.904Z</time></trkpt><trkpt lat="42.8898058" lon="11.4417915"><ele>471.0</ele><time>2026-04-02T12:30:52.904Z</time></trkpt><trkpt lat="42.8896796" lon="11.441869"><ele>471.0</ele><time>2026-04-02T12:30:53.904Z</time></trkpt><trkpt lat="42.889533" lon="11.4419362"><ele>471.0</ele><time>2026-04-02T12:30:54.904Z</time></trkpt><trkpt lat="42.8893751" lon="11.4420049"><ele>471.0</ele><time>2026-04-02T12:30:55.904Z</time></trkpt><trkpt lat="42.8892213" lon="11.4420739"><ele>471.0</ele><time>2026-04-02T12:30:56.904Z</time></trkpt><trkpt lat="42.8890769" lon="11.4421297"><ele>470.0</ele><time>2026-04-02T12:30:57.904Z</time></trkpt><trkpt lat="42.8889254" lon="11.4421501"><ele>469.0</ele><time>2026-04-02T12:30:58.904Z</time></trkpt><trkpt lat="42.8887576" lon="11.4421183"><ele>468.0</ele><time>2026-04-02T12:30:59.904Z</time></trkpt><trkpt lat="42.8885887" lon="11.4420575"><ele>472.66666666666663</ele><time>2026-04-02T12:31:00.904Z</time></trkpt><trkpt lat="42.8884282" lon="11.4419917"><ele>477.3333333333333</ele><time>2026-04-02T12:31:01.904Z</time></trkpt><trkpt lat="42.8882604" lon="11.4419391"><ele>482.0</ele><time>2026-04-02T12:31:02.904Z</time></trkpt><trkpt lat="42.8880935" lon="11.441934"><ele>482.3333333333333</ele><time>2026-04-02T12:31:03.904Z</time></trkpt><trkpt lat="42.8879125" lon="11.4419684"><ele>482.66666666666663</ele><time>2026-04-02T12:31:04.904Z</time></trkpt><trkpt lat="42.8877327" lon="11.4420416"><ele>483.0</ele><time>2026-04-02T12:31:05.903Z</time></trkpt><trkpt lat="42.8875448" lon="11.4421151"><ele>483.33333333333337</ele><time>2026-04-02T12:31:06.904Z</time></trkpt><trkpt lat="42.8873429" lon="11.4421737"><ele>483.6666666666667</ele><time>2026-04-02T12:31:07.904Z</time></trkpt><trkpt lat="42.8871273" lon="11.4422097"><ele>484.0</ele><time>2026-04-02T12:31:08.904Z</time></trkpt><trkpt lat="42.8869113" lon="11.4422359"><ele>486.0</ele><time>2026-04-02T12:31:09.904Z</time></trkpt><trkpt lat="42.8867075" lon="11.4422591"><ele>488.0</ele><time>2026-04-02T12:31:10.904Z</time></trkpt><trkpt lat="42.8865184" lon="11.4422798"><ele>490.0</ele><time>2026-04-02T12:31:11.904Z</time></trkpt><trkpt lat="42.8863442" lon="11.4423023"><ele>490.0</ele><time>2026-04-02T12:31:12.904Z</time></trkpt><trkpt lat="42.886197" lon="11.4423294"><ele>490.0</ele><time>2026-04-02T12:31:13.904Z</time></trkpt><trkpt lat="42.8860681" lon="11.4423816"><ele>490.0</ele><time>2026-04-02T12:31:14.904Z</time></trkpt><trkpt lat="42.8859414" lon="11.4424738"><ele>490.0</ele><time>2026-04-02T12:31:15.904Z</time></trkpt><trkpt lat="42.8858222" lon="11.4426259"><ele>491.0</ele><time>2026-04-02T12:31:16.904Z</time></trkpt><trkpt lat="42.8857045" lon="11.4428145"><ele>492.0</ele><time>2026-04-02T12:31:17.903Z</time></trkpt><trkpt lat="42.8855768" lon="11.4430199"><ele>493.0</ele><time>2026-04-02T12:31:18.904Z</time></trkpt><trkpt lat="42.8854375" lon="11.4432424"><ele>493.6666666666667</ele><time>2026-04-02T12:31:19.904Z</time></trkpt><trkpt lat="42.8853095" lon="11.4434439"><ele>494.33333333333337</ele><time>2026-04-02T12:31:20.903Z</time></trkpt><trkpt lat="42.8851833" lon="11.4436229"><ele>495.0</ele><time>2026-04-02T12:31:21.904Z</time></trkpt><trkpt lat="42.8850602" lon="11.4437892"><ele>498.33333333333337</ele><time>2026-04-02T12:31:22.904Z</time></trkpt><trkpt lat="42.8849478" lon="11.4439549"><ele>501.6666666666667</ele><time>2026-04-02T12:31:23.904Z</time></trkpt><trkpt lat="42.8848514" lon="11.4441249"><ele>505.0</ele><time>2026-04-02T12:31:24.904Z</time></trkpt><trkpt lat="42.8847767" lon="11.4443176"><ele>505.0</ele><time>2026-04-02T12:31:25.904Z</time></trkpt><trkpt lat="42.8847309" lon="11.4445318"><ele>505.0</ele><time>2026-04-02T12:31:26.904Z</time></trkpt><trkpt lat="42.8847198" lon="11.4447529"><ele>505.0</ele><time>2026-04-02T12:31:27.903Z</time></trkpt><trkpt lat="42.8847409" lon="11.4449845"><ele>505.33333333333337</ele><time>2026-04-02T12:31:28.904Z</time></trkpt><trkpt lat="42.8847807" lon="11.4452195"><ele>505.66666666666663</ele><time>2026-04-02T12:31:29.903Z</time></trkpt><trkpt lat="42.8848043" lon="11.4454446"><ele>506.0</ele><time>2026-04-02T12:31:30.904Z</time></trkpt><trkpt lat="42.8848097" lon="11.4456446"><ele>507.0</ele><time>2026-04-02T12:31:31.904Z</time></trkpt><trkpt lat="42.8847837" lon="11.4458504"><ele>508.0</ele><time>2026-04-02T12:31:32.904Z</time></trkpt><trkpt lat="42.8847312" lon="11.4460617"><ele>509.0</ele><time>2026-04-02T12:31:33.904Z</time></trkpt><trkpt lat="42.8846721" lon="11.4462865"><ele>509.0</ele><time>2026-04-02T12:31:34.904Z</time></trkpt><trkpt lat="42.8846326" lon="11.4465395"><ele>509.0</ele><time>2026-04-02T12:31:35.904Z</time></trkpt><trkpt lat="42.8846096" lon="11.4467867"><ele>509.0</ele><time>2026-04-02T12:31:36.904Z</time></trkpt><trkpt lat="42.8845878" lon="11.4470044"><ele>508.66666666666663</ele><time>2026-04-02T12:31:37.903Z</time></trkpt><trkpt lat="42.8845414" lon="11.4472072"><ele>508.33333333333337</ele><time>2026-04-02T12:31:38.904Z</time></trkpt><trkpt lat="42.8844616" lon="11.4473974"><ele>508.0</ele><time>2026-04-02T12:31:39.903Z</time></trkpt><trkpt lat="42.8843511" lon="11.4475815"><ele>513.0</ele><time>2026-04-02T12:31:40.904Z</time></trkpt><trkpt lat="42.884222" lon="11.4477618"><ele>518.0</ele><time>2026-04-02T12:31:41.904Z</time></trkpt><trkpt lat="42.8840901" lon="11.4479544"><ele>523.0</ele><time>2026-04-02T12:31:42.904Z</time></trkpt><trkpt lat="42.8839676" lon="11.4481354"><ele>523.0</ele><time>2026-04-02T12:31:43.904Z</time></trkpt><trkpt lat="42.8838593" lon="11.4483233"><ele>523.0</ele><time>2026-04-02T12:31:44.903Z</time></trkpt><trkpt lat="42.8837713" lon="11.4485399"><ele>523.0</ele><time>2026-04-02T12:31:45.904Z</time></trkpt><trkpt lat="42.8837029" lon="11.448773"><ele>521.0</ele><time>2026-04-02T12:31:46.904Z</time></trkpt><trkpt lat="42.8836432" lon="11.4489922"><ele>519.0</ele><time>2026-04-02T12:31:47.904Z</time></trkpt><trkpt lat="42.8835566" lon="11.4492139"><ele>517.0</ele><time>2026-04-02T12:31:48.904Z</time></trkpt><trkpt lat="42.8834544" lon="11.4494176"><ele>521.6666666666667</ele><time>2026-04-02T12:31:49.904Z</time></trkpt><trkpt lat="42.8833395" lon="11.4495995"><ele>526.3333333333334</ele><time>2026-04-02T12:31:50.904Z</time></trkpt><trkpt lat="42.8831985" lon="11.4497652"><ele>531.0</ele><time>2026-04-02T12:31:51.904Z</time></trkpt><trkpt lat="42.883034" lon="11.4499045"><ele>531.0</ele><time>2026-04-02T12:31:52.904Z</time></trkpt><trkpt lat="42.8828713" lon="11.4500474"><ele>531.0</ele><time>2026-04-02T12:31:53.904Z</time></trkpt><trkpt lat="42.8827227" lon="11.4502173"><ele>531.0</ele><time>2026-04-02T12:31:54.904Z</time></trkpt><trkpt lat="42.882597" lon="11.4503781"><ele>535.0</ele><time>2026-04-02T12:31:55.904Z</time></trkpt><trkpt lat="42.8824889" lon="11.4505504"><ele>539.0</ele><time>2026-04-02T12:31:56.904Z</time></trkpt><trkpt lat="42.8823778" lon="11.4507297"><ele>543.0</ele><time>2026-04-02T12:31:57.904Z</time></trkpt><trkpt lat="42.8823348" lon="11.4509724"><ele>543.0</ele><time>2026-04-02T12:31:58.904Z</time></trkpt><trkpt lat="42.8822833" lon="11.4511997"><ele>543.0</ele><time>2026-04-02T12:31:59.904Z</time></trkpt><trkpt lat="42.8822468" lon="11.451435"><ele>543.0</ele><time>2026-04-02T12:32:00.904Z</time></trkpt><trkpt lat="42.8822109" lon="11.4516433"><ele>542.3333333333334</ele><time>2026-04-02T12:32:01.904Z</time></trkpt><trkpt lat="42.882145" lon="11.4518279"><ele>541.6666666666667</ele><time>2026-04-02T12:32:02.904Z</time></trkpt><trkpt lat="42.8820587" lon="11.4520134"><ele>541.0</ele><time>2026-04-02T12:32:03.904Z</time></trkpt><trkpt lat="42.8819592" lon="11.4521912"><ele>539.75</ele><time>2026-04-02T12:32:04.904Z</time></trkpt><trkpt lat="42.8818441" lon="11.4522938"><ele>538.5</ele><time>2026-04-02T12:32:05.904Z</time></trkpt><trkpt lat="42.8817165" lon="11.4523982"><ele>537.25</ele><time>2026-04-02T12:32:06.904Z</time></trkpt><trkpt lat="42.8816287" lon="11.4525381"><ele>536.0</ele><time>2026-04-02T12:32:07.904Z</time></trkpt><trkpt lat="42.8815693" lon="11.4527026"><ele>543.0</ele><time>2026-04-02T12:32:08.904Z</time></trkpt><trkpt lat="42.8815368" lon="11.4528968"><ele>550.0</ele><time>2026-04-02T12:32:09.904Z</time></trkpt><trkpt lat="42.8815286" lon="11.4531079"><ele>557.0</ele><time>2026-04-02T12:32:10.904Z</time></trkpt><trkpt lat="42.881523" lon="11.4533178"><ele>557.0</ele><time>2026-04-02T12:32:11.904Z</time></trkpt><trkpt lat="42.8814996" lon="11.4535165"><ele>557.0</ele><time>2026-04-02T12:32:12.904Z</time></trkpt><trkpt lat="42.8814336" lon="11.4536986"><ele>557.0</ele><time>2026-04-02T12:32:13.904Z</time></trkpt><trkpt lat="42.8813354" lon="11.4538712"><ele>558.6666666666666</ele><time>2026-04-02T12:32:14.904Z</time></trkpt><trkpt lat="42.881222" lon="11.4540408"><ele>560.3333333333334</ele><time>2026-04-02T12:32:15.904Z</time></trkpt><trkpt lat="42.8811044" lon="11.4542149"><ele>562.0</ele><time>2026-04-02T12:32:16.903Z</time></trkpt><trkpt lat="42.8809849" lon="11.4543894"><ele>564.3333333333334</ele><time>2026-04-02T12:32:17.904Z</time></trkpt><trkpt lat="42.8808609" lon="11.4545677"><ele>566.6666666666666</ele><time>2026-04-02T12:32:18.904Z</time></trkpt><trkpt lat="42.8807517" lon="11.4547403"><ele>569.0</ele><time>2026-04-02T12:32:19.904Z</time></trkpt><trkpt lat="42.8806588" lon="11.4548946"><ele>569.0</ele><time>2026-04-02T12:32:20.904Z</time></trkpt><trkpt lat="42.880595" lon="11.4550331"><ele>569.0</ele><time>2026-04-02T12:32:21.903Z</time></trkpt><trkpt lat="42.8805462" lon="11.4551235"><ele>569.0</ele><time>2026-04-02T12:32:22.904Z</time></trkpt><trkpt lat="42.8804559" lon="11.4551618"><ele>569.0</ele><time>2026-04-02T12:32:24.904Z</time></trkpt><trkpt lat="42.8804122" lon="11.4550275"><ele>569.0</ele><time>2026-04-02T12:32:26.904Z</time></trkpt><trkpt lat="42.8803946" lon="11.4549027"><ele>569.0</ele><time>2026-04-02T12:32:27.904Z</time></trkpt><trkpt lat="42.8803436" lon="11.4547387"><ele>569.0</ele><time>2026-04-02T12:32:28.904Z</time></trkpt><trkpt lat="42.8802675" lon="11.4545849"><ele>569.0</ele><time>2026-04-02T12:32:29.904Z</time></trkpt><trkpt lat="42.8801903" lon="11.4543924"><ele>569.0</ele><time>2026-04-02T12:32:30.904Z</time></trkpt><trkpt lat="42.8801254" lon="11.4541685"><ele>572.3333333333333</ele><time>2026-04-02T12:32:31.904Z</time></trkpt><trkpt lat="42.8800717" lon="11.4539282"><ele>575.6666666666666</ele><time>2026-04-02T12:32:32.904Z</time></trkpt><trkpt lat="42.8800271" lon="11.4536647"><ele>579.0</ele><time>2026-04-02T12:32:33.904Z</time></trkpt><trkpt lat="42.8800062" lon="11.4534009"><ele>579.0</ele><time>2026-04-02T12:32:34.904Z</time></trkpt><trkpt lat="42.8800054" lon="11.4531589"><ele>579.0</ele><time>2026-04-02T12:32:35.904Z</time></trkpt><trkpt lat="42.8800076" lon="11.4529496"><ele>579.0</ele><time>2026-04-02T12:32:36.904Z</time></trkpt><trkpt lat="42.8800002" lon="11.4527707"><ele>580.0</ele><time>2026-04-02T12:32:37.903Z</time></trkpt><trkpt lat="42.8799624" lon="11.452607"><ele>581.0</ele><time>2026-04-02T12:32:38.904Z</time></trkpt><trkpt lat="42.8798842" lon="11.4524665"><ele>582.0</ele><time>2026-04-02T12:32:39.904Z</time></trkpt><trkpt lat="42.879762" lon="11.4523518"><ele>583.0</ele><time>2026-04-02T12:32:40.904Z</time></trkpt><trkpt lat="42.8796075" lon="11.4522405"><ele>583.0</ele><time>2026-04-02T12:32:41.904Z</time></trkpt><trkpt lat="42.8794464" lon="11.4521281"><ele>583.0</ele><time>2026-04-02T12:32:42.904Z</time></trkpt><trkpt lat="42.879281" lon="11.4520206"><ele>583.0</ele><time>2026-04-02T12:32:43.904Z</time></trkpt><trkpt lat="42.8791176" lon="11.4519355"><ele>580.3333333333334</ele><time>2026-04-02T12:32:44.904Z</time></trkpt><trkpt lat="42.8789531" lon="11.4518793"><ele>577.6666666666666</ele><time>2026-04-02T12:32:45.904Z</time></trkpt><trkpt lat="42.8787853" lon="11.4518625"><ele>575.0</ele><time>2026-04-02T12:32:46.904Z</time></trkpt><trkpt lat="42.8786059" lon="11.4518876"><ele>574.3333333333333</ele><time>2026-04-02T12:32:47.903Z</time></trkpt><trkpt lat="42.8784052" lon="11.4519305"><ele>573.6666666666666</ele><time>2026-04-02T12:32:48.904Z</time></trkpt><trkpt lat="42.8782148" lon="11.4519617"><ele>573.0</ele><time>2026-04-02T12:32:49.904Z</time></trkpt><trkpt lat="42.8780471" lon="11.451994"><ele>573.0</ele><time>2026-04-02T12:32:50.904Z</time></trkpt><trkpt lat="42.8778941" lon="11.4520413"><ele>573.0</ele><time>2026-04-02T12:32:51.904Z</time></trkpt><trkpt lat="42.8777609" lon="11.4521117"><ele>573.0</ele><time>2026-04-02T12:32:52.904Z</time></trkpt><trkpt lat="42.8776484" lon="11.4521963"><ele>573.0</ele><time>2026-04-02T12:32:53.904Z</time></trkpt><trkpt lat="42.8775496" lon="11.452242"><ele>572.5</ele><time>2026-04-02T12:32:54.904Z</time></trkpt><trkpt lat="42.877456" lon="11.4522354"><ele>572.0</ele><time>2026-04-02T12:32:55.904Z</time></trkpt><trkpt lat="42.8773704" lon="11.4521623"><ele>571.5</ele><time>2026-04-02T12:32:56.904Z</time></trkpt><trkpt lat="42.8772928" lon="11.4520364"><ele>571.0</ele><time>2026-04-02T12:32:57.904Z</time></trkpt><trkpt lat="42.877225" lon="11.4518761"><ele>571.0</ele><time>2026-04-02T12:32:58.904Z</time></trkpt><trkpt lat="42.8771795" lon="11.4516698"><ele>571.0</ele><time>2026-04-02T12:32:59.904Z</time></trkpt><trkpt lat="42.8771666" lon="11.4514343"><ele>571.0</ele><time>2026-04-02T12:33:00.904Z</time></trkpt><trkpt lat="42.8771788" lon="11.4511859"><ele>569.75</ele><time>2026-04-02T12:33:01.903Z</time></trkpt><trkpt lat="42.8771872" lon="11.450954"><ele>568.5</ele><time>2026-04-02T12:33:02.903Z</time></trkpt><trkpt lat="42.8771914" lon="11.4507582"><ele>567.25</ele><time>2026-04-02T12:33:03.904Z</time></trkpt><trkpt lat="42.8771837" lon="11.4505882"><ele>566.0</ele><time>2026-04-02T12:33:04.904Z</time></trkpt><trkpt lat="42.8771496" lon="11.450422"><ele>566.0</ele><time>2026-04-02T12:33:05.904Z</time></trkpt><trkpt lat="42.8770693" lon="11.4502879"><ele>566.0</ele><time>2026-04-02T12:33:06.904Z</time></trkpt><trkpt lat="42.8769564" lon="11.4501837"><ele>566.0</ele><time>2026-04-02T12:33:07.904Z</time></trkpt><trkpt lat="42.8768167" lon="11.4500853"><ele>566.0</ele><time>2026-04-02T12:33:08.904Z</time></trkpt><trkpt lat="42.8766591" lon="11.4499914"><ele>569.3333333333333</ele><time>2026-04-02T12:33:09.904Z</time></trkpt><trkpt lat="42.8764886" lon="11.449916"><ele>572.6666666666666</ele><time>2026-04-02T12:33:10.903Z</time></trkpt><trkpt lat="42.8762999" lon="11.4498683"><ele>576.0</ele><time>2026-04-02T12:33:11.904Z</time></trkpt><trkpt lat="42.8760993" lon="11.4498407"><ele>577.3333333333334</ele><time>2026-04-02T12:33:12.904Z</time></trkpt><trkpt lat="42.8759116" lon="11.4498273"><ele>578.6666666666667</ele><time>2026-04-02T12:33:13.904Z</time></trkpt><trkpt lat="42.8757369" lon="11.4498098"><ele>580.0</ele><time>2026-04-02T12:33:14.904Z</time></trkpt><trkpt lat="42.8755817" lon="11.449776"><ele>580.0</ele><time>2026-04-02T12:33:15.904Z</time></trkpt><trkpt lat="42.8754517" lon="11.4497094"><ele>580.0</ele><time>2026-04-02T12:33:16.904Z</time></trkpt><trkpt lat="42.8753425" lon="11.449597"><ele>580.0</ele><time>2026-04-02T12:33:17.904Z</time></trkpt><trkpt lat="42.8752589" lon="11.4494295"><ele>580.0</ele><time>2026-04-02T12:33:18.904Z</time></trkpt><trkpt lat="42.8751879" lon="11.4492192"><ele>582.0</ele><time>2026-04-02T12:33:19.904Z</time></trkpt><trkpt lat="42.8751086" lon="11.4489908"><ele>584.0</ele><time>2026-04-02T12:33:20.904Z</time></trkpt><trkpt lat="42.8750306" lon="11.4487786"><ele>586.0</ele><time>2026-04-02T12:33:21.904Z</time></trkpt><trkpt lat="42.8749688" lon="11.4485777"><ele>586.0</ele><time>2026-04-02T12:33:22.904Z</time></trkpt><trkpt lat="42.874941" lon="11.4483677"><ele>586.0</ele><time>2026-04-02T12:33:23.904Z</time></trkpt><trkpt lat="42.874962" lon="11.448167"><ele>586.0</ele><time>2026-04-02T12:33:24.904Z</time></trkpt><trkpt lat="42.8750354" lon="11.4479696"><ele>581.0</ele><time>2026-04-02T12:33:25.904Z</time></trkpt><trkpt lat="42.8751441" lon="11.4477699"><ele>576.0</ele><time>2026-04-02T12:33:26.904Z</time></trkpt><trkpt lat="42.8752621" lon="11.4475553"><ele>571.0</ele><time>2026-04-02T12:33:27.904Z</time></trkpt><trkpt lat="42.8753698" lon="11.4473228"><ele>573.6666666666667</ele><time>2026-04-02T12:33:28.904Z</time></trkpt><trkpt lat="42.8754659" lon="11.4470926"><ele>576.3333333333334</ele><time>2026-04-02T12:33:29.904Z</time></trkpt><trkpt lat="42.8755529" lon="11.4468533"><ele>579.0</ele><time>2026-04-02T12:33:30.904Z</time></trkpt><trkpt lat="42.875608" lon="11.4466222"><ele>579.0</ele><time>2026-04-02T12:33:31.904Z</time></trkpt><trkpt lat="42.8756568" lon="11.4463955"><ele>579.0</ele><time>2026-04-02T12:33:32.904Z</time></trkpt><trkpt lat="42.8756939" lon="11.4461597"><ele>579.0</ele><time>2026-04-02T12:33:33.904Z</time></trkpt><trkpt lat="42.8757069" lon="11.4459252"><ele>580.0</ele><time>2026-04-02T12:33:34.904Z</time></trkpt><trkpt lat="42.875702" lon="11.4456795"><ele>581.0</ele><time>2026-04-02T12:33:35.904Z</time></trkpt><trkpt lat="42.8756905" lon="11.4454388"><ele>582.0</ele><time>2026-04-02T12:33:36.904Z</time></trkpt><trkpt lat="42.8756645" lon="11.4452325"><ele>582.0</ele><time>2026-04-02T12:33:37.904Z</time></trkpt><trkpt lat="42.8756231" lon="11.4450364"><ele>582.0</ele><time>2026-04-02T12:33:38.904Z</time></trkpt><trkpt lat="42.875545" lon="11.4448488"><ele>582.0</ele><time>2026-04-02T12:33:39.904Z</time></trkpt><trkpt lat="42.8754493" lon="11.4446952"><ele>582.0</ele><time>2026-04-02T12:33:40.904Z</time></trkpt><trkpt lat="42.8753778" lon="11.4445349"><ele>582.0</ele><time>2026-04-02T12:33:41.904Z</time></trkpt><trkpt lat="42.8753335" lon="11.4443503"><ele>582.0</ele><time>2026-04-02T12:33:42.904Z</time></trkpt><trkpt lat="42.8753439" lon="11.4441564"><ele>582.0</ele><time>2026-04-02T12:33:43.904Z</time></trkpt><trkpt lat="42.8753795" lon="11.4439699"><ele>581.5</ele><time>2026-04-02T12:33:44.904Z</time></trkpt><trkpt lat="42.875416" lon="11.4437884"><ele>581.0</ele><time>2026-04-02T12:33:45.904Z</time></trkpt><trkpt lat="42.8754102" lon="11.4436112"><ele>580.5</ele><time>2026-04-02T12:33:46.903Z</time></trkpt><trkpt lat="42.8753648" lon="11.4434527"><ele>580.0</ele><time>2026-04-02T12:33:47.904Z</time></trkpt><trkpt lat="42.8752691" lon="11.4433237"><ele>580.0</ele><time>2026-04-02T12:33:48.904Z</time></trkpt><trkpt lat="42.8751581" lon="11.4432062"><ele>580.0</ele><time>2026-04-02T12:33:49.904Z</time></trkpt><trkpt lat="42.8750664" lon="11.4430709"><ele>580.0</ele><time>2026-04-02T12:33:50.904Z</time></trkpt><trkpt lat="42.8749899" lon="11.4429201"><ele>580.0</ele><time>2026-04-02T12:33:51.904Z</time></trkpt><trkpt lat="42.8749139" lon="11.4427931"><ele>584.4</ele><time>2026-04-02T12:33:52.904Z</time></trkpt><trkpt lat="42.8748266" lon="11.4426797"><ele>588.8</ele><time>2026-04-02T12:33:53.904Z</time></trkpt><trkpt lat="42.8747339" lon="11.4425958"><ele>593.2</ele><time>2026-04-02T12:33:54.904Z</time></trkpt><trkpt lat="42.8746377" lon="11.4425586"><ele>597.6</ele><time>2026-04-02T12:33:55.904Z</time></trkpt><trkpt lat="42.874532" lon="11.4425658"><ele>602.0</ele><time>2026-04-02T12:33:56.904Z</time></trkpt><trkpt lat="42.8744361" lon="11.4425794"><ele>602.0</ele><time>2026-04-02T12:33:57.904Z</time></trkpt><trkpt lat="42.8743352" lon="11.4426362"><ele>602.0</ele><time>2026-04-02T12:33:58.904Z</time></trkpt><trkpt lat="42.8742537" lon="11.4428021"><ele>602.0</ele><time>2026-04-02T12:33:59.904Z</time></trkpt><trkpt lat="42.8741985" lon="11.4429713"><ele>602.0</ele><time>2026-04-02T12:34:00.904Z</time></trkpt><trkpt lat="42.8741509" lon="11.4431484"><ele>602.0</ele><time>2026-04-02T12:34:01.904Z</time></trkpt><trkpt lat="42.8740977" lon="11.443376"><ele>602.0</ele><time>2026-04-02T12:34:02.904Z</time></trkpt><trkpt lat="42.8740462" lon="11.4435992"><ele>602.0</ele><time>2026-04-02T12:34:03.904Z</time></trkpt><trkpt lat="42.8739826" lon="11.4438287"><ele>605.0</ele><time>2026-04-02T12:34:04.903Z</time></trkpt><trkpt lat="42.8739053" lon="11.4440597"><ele>608.0</ele><time>2026-04-02T12:34:05.904Z</time></trkpt><trkpt lat="42.8738111" lon="11.4442956"><ele>611.0</ele><time>2026-04-02T12:34:06.904Z</time></trkpt><trkpt lat="42.8737031" lon="11.444519"><ele>610.6666666666666</ele><time>2026-04-02T12:34:07.903Z</time></trkpt><trkpt lat="42.8736016" lon="11.4447068"><ele>610.3333333333334</ele><time>2026-04-02T12:34:08.904Z</time></trkpt><trkpt lat="42.8735" lon="11.4448839"><ele>610.0</ele><time>2026-04-02T12:34:09.904Z</time></trkpt><trkpt lat="42.8733681" lon="11.4450221"><ele>610.0</ele><time>2026-04-02T12:34:10.903Z</time></trkpt><trkpt lat="42.8732246" lon="11.4451112"><ele>610.0</ele><time>2026-04-02T12:34:11.904Z</time></trkpt><trkpt lat="42.8730698" lon="11.4451399"><ele>610.0</ele><time>2026-04-02T12:34:12.904Z</time></trkpt><trkpt lat="42.8729059" lon="11.4451101"><ele>610.0</ele><time>2026-04-02T12:34:13.904Z</time></trkpt><trkpt lat="42.8727399" lon="11.4450415"><ele>610.0</ele><time>2026-04-02T12:34:14.904Z</time></trkpt><trkpt lat="42.8725784" lon="11.4449777"><ele>610.0</ele><time>2026-04-02T12:34:15.903Z</time></trkpt><trkpt lat="42.8724287" lon="11.444932"><ele>611.25</ele><time>2026-04-02T12:34:16.904Z</time></trkpt><trkpt lat="42.8722872" lon="11.444924"><ele>612.5</ele><time>2026-04-02T12:34:17.904Z</time></trkpt><trkpt lat="42.8721423" lon="11.4449504"><ele>613.75</ele><time>2026-04-02T12:34:18.904Z</time></trkpt><trkpt lat="42.8720065" lon="11.4450267"><ele>615.0</ele><time>2026-04-02T12:34:19.903Z</time></trkpt><trkpt lat="42.8718818" lon="11.4451536"><ele>613.0</ele><time>2026-04-02T12:34:20.904Z</time></trkpt><trkpt lat="42.8717713" lon="11.445328"><ele>611.0</ele><time>2026-04-02T12:34:21.904Z</time></trkpt><trkpt lat="42.871672" lon="11.4455415"><ele>609.0</ele><time>2026-04-02T12:34:22.904Z</time></trkpt><trkpt lat="42.871571" lon="11.4457645"><ele>613.0</ele><time>2026-04-02T12:34:23.904Z</time></trkpt><trkpt lat="42.8714543" lon="11.4459596"><ele>617.0</ele><time>2026-04-02T12:34:24.904Z</time></trkpt><trkpt lat="42.871313" lon="11.4461259"><ele>621.0</ele><time>2026-04-02T12:34:25.904Z</time></trkpt><trkpt lat="42.8711511" lon="11.4462451"><ele>622.3333333333334</ele><time>2026-04-02T12:34:26.904Z</time></trkpt><trkpt lat="42.870976" lon="11.4463314"><ele>623.6666666666667</ele><time>2026-04-02T12:34:27.903Z</time></trkpt><trkpt lat="42.8707935" lon="11.4464145"><ele>625.0</ele><time>2026-04-02T12:34:28.903Z</time></trkpt><trkpt lat="42.8706122" lon="11.4465317"><ele>625.0</ele><time>2026-04-02T12:34:29.904Z</time></trkpt><trkpt lat="42.8704271" lon="11.4466707"><ele>625.0</ele><time>2026-04-02T12:34:30.904Z</time></trkpt><trkpt lat="42.8702365" lon="11.446829"><ele>625.0</ele><time>2026-04-02T12:34:31.904Z</time></trkpt><trkpt lat="42.8700449" lon="11.4469927"><ele>629.5</ele><time>2026-04-02T12:34:32.904Z</time></trkpt><trkpt lat="42.8698484" lon="11.447158"><ele>634.0</ele><time>2026-04-02T12:34:33.904Z</time></trkpt><trkpt lat="42.8696493" lon="11.447321"><ele>634.0</ele><time>2026-04-02T12:34:34.904Z</time></trkpt><trkpt lat="42.8694439" lon="11.4474836"><ele>634.0</ele><time>2026-04-02T12:34:35.903Z</time></trkpt><trkpt lat="42.8692426" lon="11.4476492"><ele>632.0</ele><time>2026-04-02T12:34:36.903Z</time></trkpt><trkpt lat="42.8690401" lon="11.4478167"><ele>630.0</ele><time>2026-04-02T12:34:37.904Z</time></trkpt><trkpt lat="42.8688366" lon="11.4479822"><ele>632.5</ele><time>2026-04-02T12:34:38.904Z</time></trkpt><trkpt lat="42.8686347" lon="11.448143"><ele>635.0</ele><time>2026-04-02T12:34:39.904Z</time></trkpt><trkpt lat="42.868436" lon="11.4483074"><ele>635.0</ele><time>2026-04-02T12:34:40.904Z</time></trkpt><trkpt lat="42.8682386" lon="11.4484693"><ele>635.0</ele><time>2026-04-02T12:34:41.904Z</time></trkpt><trkpt lat="42.8680534" lon="11.4486244"><ele>635.0</ele><time>2026-04-02T12:34:42.904Z</time></trkpt><trkpt lat="42.8678747" lon="11.4487718"><ele>637.0</ele><time>2026-04-02T12:34:43.904Z</time></trkpt><trkpt lat="42.8676997" lon="11.4489285"><ele>639.0</ele><time>2026-04-02T12:34:44.904Z</time></trkpt><trkpt lat="42.8675282" lon="11.4491036"><ele>641.0</ele><time>2026-04-02T12:34:45.904Z</time></trkpt><trkpt lat="42.8673609" lon="11.4492948"><ele>641.0</ele><time>2026-04-02T12:34:46.904Z</time></trkpt><trkpt lat="42.867198" lon="11.449514"><ele>641.0</ele><time>2026-04-02T12:34:47.904Z</time></trkpt><trkpt lat="42.8670358" lon="11.4497485"><ele>642.0</ele><time>2026-04-02T12:34:48.904Z</time></trkpt><trkpt lat="42.8668763" lon="11.4499973"><ele>643.0</ele><time>2026-04-02T12:34:49.904Z</time></trkpt><trkpt lat="42.8667153" lon="11.4502559"><ele>648.5</ele><time>2026-04-02T12:34:50.904Z</time></trkpt><trkpt lat="42.8665512" lon="11.4505106"><ele>654.0</ele><time>2026-04-02T12:34:51.904Z</time></trkpt><trkpt lat="42.8663888" lon="11.4507702"><ele>654.0</ele><time>2026-04-02T12:34:52.904Z</time></trkpt><trkpt lat="42.866229" lon="11.4510273"><ele>654.0</ele><time>2026-04-02T12:34:53.904Z</time></trkpt><trkpt lat="42.8660692" lon="11.4512818"><ele>656.0</ele><time>2026-04-02T12:34:54.903Z</time></trkpt><trkpt lat="42.8659143" lon="11.4515335"><ele>658.0</ele><time>2026-04-02T12:34:55.903Z</time></trkpt><trkpt lat="42.8657749" lon="11.4517531"><ele>658.0</ele><time>2026-04-02T12:34:56.904Z</time></trkpt><trkpt lat="42.8656342" lon="11.4519592"><ele>658.0</ele><time>2026-04-02T12:34:57.904Z</time></trkpt><trkpt lat="42.8654911" lon="11.4521466"><ele>658.0</ele><time>2026-04-02T12:34:58.903Z</time></trkpt><trkpt lat="42.8653293" lon="11.4523155"><ele>659.3333333333334</ele><time>2026-04-02T12:34:59.904Z</time></trkpt><trkpt lat="42.8651535" lon="11.4524423"><ele>660.6666666666666</ele><time>2026-04-02T12:35:00.904Z</time></trkpt><trkpt lat="42.8649662" lon="11.4525242"><ele>662.0</ele><time>2026-04-02T12:35:01.904Z</time></trkpt><trkpt lat="42.8647701" lon="11.4525615"><ele>662.0</ele><time>2026-04-02T12:35:02.904Z</time></trkpt><trkpt lat="42.8645748" lon="11.4525848"><ele>662.0</ele><time>2026-04-02T12:35:03.904Z</time></trkpt><trkpt lat="42.8643728" lon="11.4526349"><ele>662.0</ele><time>2026-04-02T12:35:04.904Z</time></trkpt><trkpt lat="42.8641645" lon="11.4527212"><ele>663.0</ele><time>2026-04-02T12:35:05.904Z</time></trkpt><trkpt lat="42.8639544" lon="11.4528465"><ele>664.0</ele><time>2026-04-02T12:35:06.904Z</time></trkpt><trkpt lat="42.8637446" lon="11.4530108"><ele>666.5</ele><time>2026-04-02T12:35:07.904Z</time></trkpt><trkpt lat="42.8635332" lon="11.4532037"><ele>669.0</ele><time>2026-04-02T12:35:08.904Z</time></trkpt><trkpt lat="42.8633243" lon="11.4534098"><ele>669.0</ele><time>2026-04-02T12:35:09.904Z</time></trkpt><trkpt lat="42.8631118" lon="11.4536132"><ele>669.0</ele><time>2026-04-02T12:35:10.904Z</time></trkpt><trkpt lat="42.8629107" lon="11.4538025"><ele>671.3333333333334</ele><time>2026-04-02T12:35:11.904Z</time></trkpt><trkpt lat="42.8627286" lon="11.4539746"><ele>673.6666666666667</ele><time>2026-04-02T12:35:12.904Z</time></trkpt><trkpt lat="42.8625654" lon="11.4541144"><ele>676.0</ele><time>2026-04-02T12:35:13.904Z</time></trkpt><trkpt lat="42.8624069" lon="11.4542049"><ele>676.0</ele><time>2026-04-02T12:35:14.904Z</time></trkpt><trkpt lat="42.8622435" lon="11.4542412"><ele>676.0</ele><time>2026-04-02T12:35:15.904Z</time></trkpt><trkpt lat="42.8620722" lon="11.4542248"><ele>676.0</ele><time>2026-04-02T12:35:16.904Z</time></trkpt><trkpt lat="42.8618939" lon="11.4541733"><ele>676.6666666666667</ele><time>2026-04-02T12:35:17.903Z</time></trkpt><trkpt lat="42.8616983" lon="11.4541151"><ele>677.3333333333334</ele><time>2026-04-02T12:35:18.904Z</time></trkpt><trkpt lat="42.8614981" lon="11.4540548"><ele>678.0</ele><time>2026-04-02T12:35:19.904Z</time></trkpt><trkpt lat="42.8613042" lon="11.4539961"><ele>678.0</ele><time>2026-04-02T12:35:20.904Z</time></trkpt><trkpt lat="42.8611065" lon="11.4539472"><ele>678.0</ele><time>2026-04-02T12:35:21.904Z</time></trkpt><trkpt lat="42.8608995" lon="11.4539339"><ele>678.0</ele><time>2026-04-02T12:35:22.904Z</time></trkpt><trkpt lat="42.8606838" lon="11.4539705"><ele>680.3333333333334</ele><time>2026-04-02T12:35:23.904Z</time></trkpt><trkpt lat="42.8604669" lon="11.4540338"><ele>682.6666666666667</ele><time>2026-04-02T12:35:24.904Z</time></trkpt><trkpt lat="42.8602675" lon="11.4540874"><ele>685.0</ele><time>2026-04-02T12:35:25.904Z</time></trkpt><trkpt lat="42.8600665" lon="11.4541177"><ele>686.3333333333334</ele><time>2026-04-02T12:35:26.904Z</time></trkpt><trkpt lat="42.8598633" lon="11.4541072"><ele>687.6666666666666</ele><time>2026-04-02T12:35:27.904Z</time></trkpt><trkpt lat="42.8596617" lon="11.4540529"><ele>689.0</ele><time>2026-04-02T12:35:28.904Z</time></trkpt><trkpt lat="42.8594573" lon="11.4539679"><ele>688.0</ele><time>2026-04-02T12:35:29.904Z</time></trkpt><trkpt lat="42.8592554" lon="11.4538506"><ele>687.0</ele><time>2026-04-02T12:35:30.904Z</time></trkpt><trkpt lat="42.8590586" lon="11.4536992"><ele>686.0</ele><time>2026-04-02T12:35:31.904Z</time></trkpt><trkpt lat="42.858869" lon="11.4535119"><ele>686.0</ele><time>2026-04-02T12:35:32.904Z</time></trkpt><trkpt lat="42.858689" lon="11.4533091"><ele>686.0</ele><time>2026-04-02T12:35:33.904Z</time></trkpt><trkpt lat="42.8585212" lon="11.4531201"><ele>687.6666666666666</ele><time>2026-04-02T12:35:34.904Z</time></trkpt><trkpt lat="42.8583573" lon="11.4529461"><ele>689.3333333333334</ele><time>2026-04-02T12:35:35.904Z</time></trkpt><trkpt lat="42.858204" lon="11.452805"><ele>691.0</ele><time>2026-04-02T12:35:36.904Z</time></trkpt><trkpt lat="42.8580647" lon="11.4527176"><ele>691.0</ele><time>2026-04-02T12:35:37.904Z</time></trkpt><trkpt lat="42.8579234" lon="11.4526654"><ele>691.0</ele><time>2026-04-02T12:35:38.904Z</time></trkpt><trkpt lat="42.8577808" lon="11.4526173"><ele>691.0</ele><time>2026-04-02T12:35:39.904Z</time></trkpt><trkpt lat="42.8576476" lon="11.4525748"><ele>691.0</ele><time>2026-04-02T12:35:40.904Z</time></trkpt><trkpt lat="42.8575057" lon="11.4525347"><ele>694.3333333333334</ele><time>2026-04-02T12:35:41.904Z</time></trkpt><trkpt lat="42.8573557" lon="11.4525156"><ele>697.6666666666666</ele><time>2026-04-02T12:35:42.904Z</time></trkpt><trkpt lat="42.8571891" lon="11.4525371"><ele>701.0</ele><time>2026-04-02T12:35:43.904Z</time></trkpt><trkpt lat="42.8570266" lon="11.4526059"><ele>701.0</ele><time>2026-04-02T12:35:44.904Z</time></trkpt><trkpt lat="42.8568464" lon="11.4527451"><ele>701.0</ele><time>2026-04-02T12:35:45.904Z</time></trkpt><trkpt lat="42.8566662" lon="11.4528832"><ele>701.0</ele><time>2026-04-02T12:35:46.904Z</time></trkpt><trkpt lat="42.8564685" lon="11.4530026"><ele>705.3333333333333</ele><time>2026-04-02T12:35:47.903Z</time></trkpt><trkpt lat="42.8562649" lon="11.4530905"><ele>709.6666666666666</ele><time>2026-04-02T12:35:48.904Z</time></trkpt><trkpt lat="42.8560428" lon="11.4531432"><ele>714.0</ele><time>2026-04-02T12:35:49.903Z</time></trkpt><trkpt lat="42.8558078" lon="11.453174"><ele>715.5</ele><time>2026-04-02T12:35:50.904Z</time></trkpt><trkpt lat="42.8555618" lon="11.453196"><ele>717.0</ele><time>2026-04-02T12:35:51.904Z</time></trkpt><trkpt lat="42.8553344" lon="11.4532247"><ele>717.0</ele><time>2026-04-02T12:35:52.904Z</time></trkpt><trkpt lat="42.8551489" lon="11.4532423"><ele>717.0</ele><time>2026-04-02T12:35:53.903Z</time></trkpt><trkpt lat="42.8549821" lon="11.453235"><ele>717.0</ele><time>2026-04-02T12:35:54.904Z</time></trkpt><trkpt lat="42.8548339" lon="11.4531776"><ele>718.0</ele><time>2026-04-02T12:35:55.904Z</time></trkpt><trkpt lat="42.8546983" lon="11.4530681"><ele>719.0</ele><time>2026-04-02T12:35:56.904Z</time></trkpt><trkpt lat="42.8545635" lon="11.452919"><ele>720.0</ele><time>2026-04-02T12:35:57.904Z</time></trkpt><trkpt lat="42.8544138" lon="11.4527791"><ele>719.6666666666666</ele><time>2026-04-02T12:35:58.904Z</time></trkpt><trkpt lat="42.85424" lon="11.4526544"><ele>719.3333333333333</ele><time>2026-04-02T12:35:59.904Z</time></trkpt><trkpt lat="42.8540481" lon="11.4525569"><ele>719.0</ele><time>2026-04-02T12:36:00.904Z</time></trkpt><trkpt lat="42.8538499" lon="11.4524827"><ele>719.0</ele><time>2026-04-02T12:36:01.904Z</time></trkpt><trkpt lat="42.8536424" lon="11.4524366"><ele>719.0</ele><time>2026-04-02T12:36:02.903Z</time></trkpt><trkpt lat="42.85344" lon="11.4524254"><ele>719.0</ele><time>2026-04-02T12:36:03.904Z</time></trkpt><trkpt lat="42.8532487" lon="11.4524275"><ele>721.6666666666666</ele><time>2026-04-02T12:36:04.904Z</time></trkpt><trkpt lat="42.8530752" lon="11.4524399"><ele>724.3333333333334</ele><time>2026-04-02T12:36:05.904Z</time></trkpt><trkpt lat="42.8529076" lon="11.4524821"><ele>727.0</ele><time>2026-04-02T12:36:06.904Z</time></trkpt><trkpt lat="42.8527337" lon="11.4525786"><ele>727.3333333333334</ele><time>2026-04-02T12:36:07.904Z</time></trkpt><trkpt lat="42.852586" lon="11.4527071"><ele>727.6666666666666</ele><time>2026-04-02T12:36:08.904Z</time></trkpt><trkpt lat="42.8524565" lon="11.452857"><ele>728.0</ele><time>2026-04-02T12:36:09.904Z</time></trkpt><trkpt lat="42.8523768" lon="11.453039"><ele>731.3333333333333</ele><time>2026-04-02T12:36:10.904Z</time></trkpt><trkpt lat="42.8523129" lon="11.4532392"><ele>734.6666666666666</ele><time>2026-04-02T12:36:11.904Z</time></trkpt><trkpt lat="42.8522804" lon="11.4534747"><ele>738.0</ele><time>2026-04-02T12:36:12.903Z</time></trkpt><trkpt lat="42.852263" lon="11.4537347"><ele>742.0</ele><time>2026-04-02T12:36:13.903Z</time></trkpt><trkpt lat="42.85225" lon="11.4540083"><ele>746.0</ele><time>2026-04-02T12:36:14.904Z</time></trkpt><trkpt lat="42.8522345" lon="11.4542876"><ele>750.0</ele><time>2026-04-02T12:36:15.903Z</time></trkpt><trkpt lat="42.8522252" lon="11.4545721"><ele>753.3333333333334</ele><time>2026-04-02T12:36:16.904Z</time></trkpt><trkpt lat="42.852236" lon="11.4548601"><ele>756.6666666666667</ele><time>2026-04-02T12:36:17.904Z</time></trkpt><trkpt lat="42.852266" lon="11.4551437"><ele>760.0</ele><time>2026-04-02T12:36:18.903Z</time></trkpt><trkpt lat="42.8522997" lon="11.4554238"><ele>762.0</ele><time>2026-04-02T12:36:19.904Z</time></trkpt><trkpt lat="42.8523271" lon="11.4556751"><ele>764.0</ele><time>2026-04-02T12:36:20.904Z</time></trkpt><trkpt lat="42.8523428" lon="11.4559048"><ele>766.0</ele><time>2026-04-02T12:36:21.903Z</time></trkpt><trkpt lat="42.8523383" lon="11.4561242"><ele>769.0</ele><time>2026-04-02T12:36:22.904Z</time></trkpt><trkpt lat="42.8522928" lon="11.456322"><ele>772.0</ele><time>2026-04-02T12:36:23.904Z</time></trkpt><trkpt lat="42.8521952" lon="11.4564894"><ele>775.0</ele><time>2026-04-02T12:36:24.904Z</time></trkpt><trkpt lat="42.8520698" lon="11.456642"><ele>775.0</ele><time>2026-04-02T12:36:25.904Z</time></trkpt><trkpt lat="42.8519447" lon="11.4567924"><ele>775.0</ele><time>2026-04-02T12:36:26.903Z</time></trkpt><trkpt lat="42.8518257" lon="11.4569426"><ele>775.0</ele><time>2026-04-02T12:36:27.904Z</time></trkpt><trkpt lat="42.8517131" lon="11.4570779"><ele>775.25</ele><time>2026-04-02T12:36:28.904Z</time></trkpt><trkpt lat="42.8516075" lon="11.4572052"><ele>775.5</ele><time>2026-04-02T12:36:29.904Z</time></trkpt><trkpt lat="42.8515057" lon="11.4573093"><ele>775.75</ele><time>2026-04-02T12:36:30.904Z</time></trkpt><trkpt lat="42.8513891" lon="11.4574002"><ele>776.0</ele><time>2026-04-02T12:36:31.904Z</time></trkpt><trkpt lat="42.8512615" lon="11.4574575"><ele>776.0</ele><time>2026-04-02T12:36:32.904Z</time></trkpt><trkpt lat="42.8511208" lon="11.4574843"><ele>776.0</ele><time>2026-04-02T12:36:33.903Z</time></trkpt><trkpt lat="42.8509861" lon="11.4575012"><ele>776.0</ele><time>2026-04-02T12:36:34.904Z</time></trkpt><trkpt lat="42.8508746" lon="11.4575413"><ele>776.0</ele><time>2026-04-02T12:36:35.904Z</time></trkpt><trkpt lat="42.850795" lon="11.4575987"><ele>775.4</ele><time>2026-04-02T12:36:36.904Z</time></trkpt><trkpt lat="42.8507226" lon="11.4576703"><ele>774.8</ele><time>2026-04-02T12:36:37.904Z</time></trkpt><trkpt lat="42.8507247" lon="11.4578144"><ele>774.1999999999999</ele><time>2026-04-02T12:36:38.904Z</time></trkpt><trkpt lat="42.8507263" lon="11.4579559"><ele>773.5999999999999</ele><time>2026-04-02T12:36:39.904Z</time></trkpt><trkpt lat="42.8507291" lon="11.4581148"><ele>773.0</ele><time>2026-04-02T12:36:40.904Z</time></trkpt><trkpt lat="42.8507321" lon="11.458291"><ele>773.0</ele><time>2026-04-02T12:36:41.904Z</time></trkpt><trkpt lat="42.8507302" lon="11.458471"><ele>773.0</ele><time>2026-04-02T12:36:42.904Z</time></trkpt><trkpt lat="42.8507255" lon="11.4586423"><ele>773.0</ele><time>2026-04-02T12:36:43.903Z</time></trkpt><trkpt lat="42.8507236" lon="11.4588113"><ele>773.0</ele><time>2026-04-02T12:36:44.904Z</time></trkpt><trkpt lat="42.8507239" lon="11.4589793"><ele>772.75</ele><time>2026-04-02T12:36:45.904Z</time></trkpt><trkpt lat="42.8507257" lon="11.4591493"><ele>772.5</ele><time>2026-04-02T12:36:46.904Z</time></trkpt><trkpt lat="42.850728" lon="11.4593231"><ele>772.25</ele><time>2026-04-02T12:36:47.903Z</time></trkpt><trkpt lat="42.8507314" lon="11.4594947"><ele>772.0</ele><time>2026-04-02T12:36:48.904Z</time></trkpt><trkpt lat="42.8507367" lon="11.4596613"><ele>771.8</ele><time>2026-04-02T12:36:49.904Z</time></trkpt><trkpt lat="42.8507406" lon="11.4598257"><ele>771.6</ele><time>2026-04-02T12:36:50.903Z</time></trkpt><trkpt lat="42.8507393" lon="11.45998"><ele>771.4</ele><time>2026-04-02T12:36:51.904Z</time></trkpt><trkpt lat="42.8507365" lon="11.4601227"><ele>771.1999999999999</ele><time>2026-04-02T12:36:52.903Z</time></trkpt><trkpt lat="42.8507236" lon="11.4602522"><ele>771.0</ele><time>2026-04-02T12:36:53.904Z</time></trkpt><trkpt lat="42.8506871" lon="11.4603663"><ele>773.5</ele><time>2026-04-02T12:36:54.904Z</time></trkpt><trkpt lat="42.8506176" lon="11.4604653"><ele>776.0</ele><time>2026-04-02T12:36:55.904Z</time></trkpt><trkpt lat="42.8505146" lon="11.4605568"><ele>778.5</ele><time>2026-04-02T12:36:56.904Z</time></trkpt><trkpt lat="42.8504099" lon="11.4606479"><ele>781.0</ele><time>2026-04-02T12:36:57.904Z</time></trkpt><trkpt lat="42.8503033" lon="11.4607347"><ele>781.0</ele><time>2026-04-02T12:36:58.904Z</time></trkpt><trkpt lat="42.8501894" lon="11.4608083"><ele>781.0</ele><time>2026-04-02T12:36:59.904Z</time></trkpt><trkpt lat="42.8500688" lon="11.4608942"><ele>781.0</ele><time>2026-04-02T12:37:00.904Z</time></trkpt><trkpt lat="42.8499521" lon="11.4609754"><ele>781.0</ele><time>2026-04-02T12:37:01.903Z</time></trkpt><trkpt lat="42.8498586" lon="11.461044"><ele>778.8</ele><time>2026-04-02T12:37:02.903Z</time></trkpt><trkpt lat="42.8497765" lon="11.4611121"><ele>776.5999999999999</ele><time>2026-04-02T12:37:03.904Z</time></trkpt><trkpt lat="42.8496906" lon="11.4611822"><ele>774.4</ele><time>2026-04-02T12:37:04.904Z</time></trkpt><trkpt lat="42.8496542" lon="11.4612983"><ele>772.2</ele><time>2026-04-02T12:37:05.904Z</time></trkpt><trkpt lat="42.8496226" lon="11.4614277"><ele>770.0</ele><time>2026-04-02T12:37:06.904Z</time></trkpt><trkpt lat="42.8496142" lon="11.4615757"><ele>770.0</ele><time>2026-04-02T12:37:07.904Z</time></trkpt><trkpt lat="42.8496346" lon="11.4617325"><ele>770.0</ele><time>2026-04-02T12:37:08.904Z</time></trkpt><trkpt lat="42.8496848" lon="11.4618992"><ele>770.0</ele><time>2026-04-02T12:37:09.904Z</time></trkpt><trkpt lat="42.8497508" lon="11.4620799"><ele>770.0</ele><time>2026-04-02T12:37:10.904Z</time></trkpt><trkpt lat="42.8497996" lon="11.4622709"><ele>769.75</ele><time>2026-04-02T12:37:11.904Z</time></trkpt><trkpt lat="42.8498218" lon="11.4624552"><ele>769.5</ele><time>2026-04-02T12:37:12.904Z</time></trkpt><trkpt lat="42.8498293" lon="11.4626244"><ele>769.25</ele><time>2026-04-02T12:37:13.904Z</time></trkpt><trkpt lat="42.8498123" lon="11.4627724"><ele>769.0</ele><time>2026-04-02T12:37:14.904Z</time></trkpt><trkpt lat="42.8497872" lon="11.4629107"><ele>769.0</ele><time>2026-04-02T12:37:15.904Z</time></trkpt><trkpt lat="42.8497405" lon="11.4630121"><ele>769.0</ele><time>2026-04-02T12:37:16.904Z</time></trkpt><trkpt lat="42.84965" lon="11.4630923"><ele>769.0</ele><time>2026-04-02T12:37:17.904Z</time></trkpt><trkpt lat="42.8494643" lon="11.4629246"><ele>769.0</ele><time>2026-04-02T12:37:18.904Z</time></trkpt><trkpt lat="42.8493487" lon="11.4628397"><ele>762.0</ele><time>2026-04-02T12:37:19.904Z</time></trkpt><trkpt lat="42.8492286" lon="11.462717"><ele>755.0</ele><time>2026-04-02T12:37:20.904Z</time></trkpt><trkpt lat="42.8491026" lon="11.4625624"><ele>748.0</ele><time>2026-04-02T12:37:21.904Z</time></trkpt><trkpt lat="42.8489707" lon="11.4624507"><ele>748.0</ele><time>2026-04-02T12:37:22.904Z</time></trkpt><trkpt lat="42.8488421" lon="11.4623592"><ele>748.0</ele><time>2026-04-02T12:37:23.904Z</time></trkpt><trkpt lat="42.8486914" lon="11.4623052"><ele>748.0</ele><time>2026-04-02T12:37:24.904Z</time></trkpt><trkpt lat="42.848521" lon="11.462293"><ele>748.6666666666667</ele><time>2026-04-02T12:37:25.904Z</time></trkpt><trkpt lat="42.8483414" lon="11.4623062"><ele>749.3333333333334</ele><time>2026-04-02T12:37:26.904Z</time></trkpt><trkpt lat="42.8481625" lon="11.4622942"><ele>750.0</ele><time>2026-04-02T12:37:27.904Z</time></trkpt><trkpt lat="42.8480161" lon="11.4622473"><ele>750.0</ele><time>2026-04-02T12:37:28.903Z</time></trkpt><trkpt lat="42.8478806" lon="11.4621979"><ele>750.0</ele><time>2026-04-02T12:37:29.904Z</time></trkpt><trkpt lat="42.8477542" lon="11.462181"><ele>750.0</ele><time>2026-04-02T12:37:30.904Z</time></trkpt><trkpt lat="42.8476574" lon="11.4622023"><ele>750.0</ele><time>2026-04-02T12:37:31.904Z</time></trkpt><trkpt lat="42.8475821" lon="11.462275"><ele>747.4</ele><time>2026-04-02T12:37:32.904Z</time></trkpt><trkpt lat="42.8475338" lon="11.4623909"><ele>744.8</ele><time>2026-04-02T12:37:33.904Z</time></trkpt><trkpt lat="42.8475151" lon="11.4625372"><ele>742.2</ele><time>2026-04-02T12:37:34.904Z</time></trkpt><trkpt lat="42.8474934" lon="11.4626775"><ele>739.6</ele><time>2026-04-02T12:37:35.904Z</time></trkpt><trkpt lat="42.8474464" lon="11.4627887"><ele>737.0</ele><time>2026-04-02T12:37:36.904Z</time></trkpt><trkpt lat="42.8473718" lon="11.4628603"><ele>737.0</ele><time>2026-04-02T12:37:37.904Z</time></trkpt><trkpt lat="42.8472934" lon="11.462871"><ele>737.0</ele><time>2026-04-02T12:37:38.903Z</time></trkpt><trkpt lat="42.8471981" lon="11.4628281"><ele>737.0</ele><time>2026-04-02T12:37:39.904Z</time></trkpt><trkpt lat="42.8471026" lon="11.4627466"><ele>737.0</ele><time>2026-04-02T12:37:40.904Z</time></trkpt><trkpt lat="42.8469982" lon="11.4626545"><ele>737.0</ele><time>2026-04-02T12:37:41.904Z</time></trkpt><trkpt lat="42.846878" lon="11.4625472"><ele>737.25</ele><time>2026-04-02T12:37:42.904Z</time></trkpt><trkpt lat="42.8467461" lon="11.4624346"><ele>737.5</ele><time>2026-04-02T12:37:43.904Z</time></trkpt><trkpt lat="42.8466175" lon="11.462333"><ele>737.75</ele><time>2026-04-02T12:37:44.904Z</time></trkpt><trkpt lat="42.8465053" lon="11.4622587"><ele>738.0</ele><time>2026-04-02T12:37:45.904Z</time></trkpt><trkpt lat="42.8464022" lon="11.4622155"><ele>738.0</ele><time>2026-04-02T12:37:46.904Z</time></trkpt><trkpt lat="42.8463021" lon="11.4622267"><ele>738.0</ele><time>2026-04-02T12:37:47.903Z</time></trkpt><trkpt lat="42.8462028" lon="11.4622792"><ele>738.0</ele><time>2026-04-02T12:37:48.904Z</time></trkpt><trkpt lat="42.8460977" lon="11.4623769"><ele>738.0</ele><time>2026-04-02T12:37:49.904Z</time></trkpt><trkpt lat="42.8459893" lon="11.4625057"><ele>738.0</ele><time>2026-04-02T12:37:50.903Z</time></trkpt><trkpt lat="42.8458813" lon="11.462673"><ele>738.0</ele><time>2026-04-02T12:37:51.904Z</time></trkpt><trkpt lat="42.8457895" lon="11.4628713"><ele>738.0</ele><time>2026-04-02T12:37:52.904Z</time></trkpt><trkpt lat="42.8457113" lon="11.4630947"><ele>740.75</ele><time>2026-04-02T12:37:53.904Z</time></trkpt><trkpt lat="42.8456543" lon="11.463308"><ele>743.5</ele><time>2026-04-02T12:37:54.904Z</time></trkpt><trkpt lat="42.8456038" lon="11.4634829"><ele>746.25</ele><time>2026-04-02T12:37:55.904Z</time></trkpt><trkpt lat="42.8455292" lon="11.4636265"><ele>749.0</ele><time>2026-04-02T12:37:56.904Z</time></trkpt><trkpt lat="42.8454423" lon="11.4637354"><ele>749.5</ele><time>2026-04-02T12:37:57.904Z</time></trkpt><trkpt lat="42.8453361" lon="11.4637871"><ele>750.0</ele><time>2026-04-02T12:37:58.904Z</time></trkpt><trkpt lat="42.8452135" lon="11.4637816"><ele>750.5</ele><time>2026-04-02T12:37:59.904Z</time></trkpt><trkpt lat="42.8450858" lon="11.4637435"><ele>751.0</ele><time>2026-04-02T12:38:00.903Z</time></trkpt><trkpt lat="42.8449492" lon="11.4637001"><ele>751.0</ele><time>2026-04-02T12:38:01.903Z</time></trkpt><trkpt lat="42.8448116" lon="11.4636512"><ele>751.0</ele><time>2026-04-02T12:38:02.904Z</time></trkpt><trkpt lat="42.8446704" lon="11.4635855"><ele>751.0</ele><time>2026-04-02T12:38:03.904Z</time></trkpt><trkpt lat="42.8445456" lon="11.4634877"><ele>751.0</ele><time>2026-04-02T12:38:04.904Z</time></trkpt><trkpt lat="42.8444437" lon="11.463386"><ele>751.0</ele><time>2026-04-02T12:38:05.904Z</time></trkpt><trkpt lat="42.8443549" lon="11.4632846"><ele>751.0</ele><time>2026-04-02T12:38:06.904Z</time></trkpt><trkpt lat="42.8442609" lon="11.4631889"><ele>751.0</ele><time>2026-04-02T12:38:07.904Z</time></trkpt><trkpt lat="42.8441546" lon="11.4631145"><ele>751.0</ele><time>2026-04-02T12:38:08.904Z</time></trkpt><trkpt lat="42.8440345" lon="11.4630729"><ele>753.5</ele><time>2026-04-02T12:38:09.904Z</time></trkpt><trkpt lat="42.8438939" lon="11.4630524"><ele>756.0</ele><time>2026-04-02T12:38:10.904Z</time></trkpt><trkpt lat="42.8437423" lon="11.4630516"><ele>758.5</ele><time>2026-04-02T12:38:11.904Z</time></trkpt><trkpt lat="42.8435938" lon="11.4630672"><ele>761.0</ele><time>2026-04-02T12:38:12.904Z</time></trkpt><trkpt lat="42.8434531" lon="11.4631105"><ele>761.0</ele><time>2026-04-02T12:38:13.904Z</time></trkpt><trkpt lat="42.843306" lon="11.463187"><ele>761.0</ele><time>2026-04-02T12:38:14.904Z</time></trkpt><trkpt lat="42.8431599" lon="11.463278"><ele>761.0</ele><time>2026-04-02T12:38:15.904Z</time></trkpt><trkpt lat="42.843007" lon="11.4633918"><ele>761.0</ele><time>2026-04-02T12:38:16.904Z</time></trkpt><trkpt lat="42.8428634" lon="11.4635202"><ele>761.0</ele><time>2026-04-02T12:38:17.904Z</time></trkpt><trkpt lat="42.8427015" lon="11.4636382"><ele>761.0</ele><time>2026-04-02T12:38:18.903Z</time></trkpt><trkpt lat="42.8425455" lon="11.4637227"><ele>759.0</ele><time>2026-04-02T12:38:19.903Z</time></trkpt><trkpt lat="42.8424032" lon="11.4637663"><ele>757.0</ele><time>2026-04-02T12:38:20.904Z</time></trkpt><trkpt lat="42.8422671" lon="11.463748"><ele>755.0</ele><time>2026-04-02T12:38:21.904Z</time></trkpt><trkpt lat="42.8421393" lon="11.4636836"><ele>753.0</ele><time>2026-04-02T12:38:22.904Z</time></trkpt><trkpt lat="42.8419988" lon="11.4636303"><ele>753.0</ele><time>2026-04-02T12:38:23.904Z</time></trkpt><trkpt lat="42.8418333" lon="11.463606"><ele>753.0</ele><time>2026-04-02T12:38:24.904Z</time></trkpt><trkpt lat="42.841648" lon="11.463584"><ele>753.0</ele><time>2026-04-02T12:38:25.904Z</time></trkpt><trkpt lat="42.8414613" lon="11.4635224"><ele>753.0</ele><time>2026-04-02T12:38:26.904Z</time></trkpt><trkpt lat="42.8412889" lon="11.4634538"><ele>753.0</ele><time>2026-04-02T12:38:27.904Z</time></trkpt><trkpt lat="42.8411199" lon="11.4633863"><ele>753.0</ele><time>2026-04-02T12:38:28.904Z</time></trkpt><trkpt lat="42.8409387" lon="11.4633301"><ele>754.3333333333334</ele><time>2026-04-02T12:38:29.904Z</time></trkpt><trkpt lat="42.8407623" lon="11.4632912"><ele>755.6666666666667</ele><time>2026-04-02T12:38:30.903Z</time></trkpt><trkpt lat="42.8405894" lon="11.4632721"><ele>757.0</ele><time>2026-04-02T12:38:31.904Z</time></trkpt><trkpt lat="42.8404334" lon="11.463273"><ele>757.0</ele><time>2026-04-02T12:38:32.904Z</time></trkpt><trkpt lat="42.8402915" lon="11.463314"><ele>757.0</ele><time>2026-04-02T12:38:33.903Z</time></trkpt><trkpt lat="42.8401668" lon="11.4633905"><ele>757.0</ele><time>2026-04-02T12:38:34.904Z</time></trkpt><trkpt lat="42.8400553" lon="11.4634773"><ele>757.0</ele><time>2026-04-02T12:38:35.904Z</time></trkpt><trkpt lat="42.8399314" lon="11.4635284"><ele>756.75</ele><time>2026-04-02T12:38:36.904Z</time></trkpt><trkpt lat="42.8398033" lon="11.4635248"><ele>756.5</ele><time>2026-04-02T12:38:37.904Z</time></trkpt><trkpt lat="42.8397028" lon="11.4634602"><ele>756.25</ele><time>2026-04-02T12:38:38.904Z</time></trkpt><trkpt lat="42.8396279" lon="11.4633393"><ele>756.0</ele><time>2026-04-02T12:38:39.904Z</time></trkpt><trkpt lat="42.8395639" lon="11.4631841"><ele>756.0</ele><time>2026-04-02T12:38:40.904Z</time></trkpt><trkpt lat="42.8395015" lon="11.4630327"><ele>756.0</ele><time>2026-04-02T12:38:41.904Z</time></trkpt><trkpt lat="42.839444" lon="11.4629077"><ele>756.0</ele><time>2026-04-02T12:38:42.904Z</time></trkpt><trkpt lat="42.8393759" lon="11.4628108"><ele>756.0</ele><time>2026-04-02T12:38:43.904Z</time></trkpt><trkpt lat="42.8392816" lon="11.4627515"><ele>756.0</ele><time>2026-04-02T12:38:44.904Z</time></trkpt><trkpt lat="42.8391672" lon="11.46273"><ele>753.5</ele><time>2026-04-02T12:38:45.904Z</time></trkpt><trkpt lat="42.8390335" lon="11.4627346"><ele>751.0</ele><time>2026-04-02T12:38:46.903Z</time></trkpt><trkpt lat="42.8389047" lon="11.4627255"><ele>748.5</ele><time>2026-04-02T12:38:47.904Z</time></trkpt><trkpt lat="42.8387784" lon="11.4626619"><ele>746.0</ele><time>2026-04-02T12:38:48.904Z</time></trkpt><trkpt lat="42.8386556" lon="11.4625357"><ele>746.0</ele><time>2026-04-02T12:38:49.904Z</time></trkpt><trkpt lat="42.8385187" lon="11.4624077"><ele>746.0</ele><time>2026-04-02T12:38:50.904Z</time></trkpt><trkpt lat="42.838371" lon="11.4623036"><ele>746.0</ele><time>2026-04-02T12:38:51.904Z</time></trkpt><trkpt lat="42.8382248" lon="11.4622089"><ele>747.25</ele><time>2026-04-02T12:38:52.904Z</time></trkpt><trkpt lat="42.8380795" lon="11.4621313"><ele>748.5</ele><time>2026-04-02T12:38:53.904Z</time></trkpt><trkpt lat="42.8379372" lon="11.462083"><ele>749.75</ele><time>2026-04-02T12:38:54.904Z</time></trkpt><trkpt lat="42.8378058" lon="11.4620768"><ele>751.0</ele><time>2026-04-02T12:38:55.904Z</time></trkpt><trkpt lat="42.8376872" lon="11.4621034"><ele>749.25</ele><time>2026-04-02T12:38:56.904Z</time></trkpt><trkpt lat="42.8375847" lon="11.4621726"><ele>747.5</ele><time>2026-04-02T12:38:57.904Z</time></trkpt><trkpt lat="42.8375011" lon="11.4622877"><ele>745.75</ele><time>2026-04-02T12:38:58.904Z</time></trkpt><trkpt lat="42.8374264" lon="11.4624154"><ele>744.0</ele><time>2026-04-02T12:38:59.904Z</time></trkpt><trkpt lat="42.8373306" lon="11.4625105"><ele>744.0</ele><time>2026-04-02T12:39:00.904Z</time></trkpt><trkpt lat="42.8372222" lon="11.4625617"><ele>744.0</ele><time>2026-04-02T12:39:01.904Z</time></trkpt><trkpt lat="42.8370849" lon="11.4625458"><ele>744.0</ele><time>2026-04-02T12:39:02.904Z</time></trkpt><trkpt lat="42.8369497" lon="11.4625076"><ele>744.0</ele><time>2026-04-02T12:39:03.904Z</time></trkpt><trkpt lat="42.8368263" lon="11.4624813"><ele>742.0</ele><time>2026-04-02T12:39:04.903Z</time></trkpt><trkpt lat="42.8366931" lon="11.4624896"><ele>740.0</ele><time>2026-04-02T12:39:05.903Z</time></trkpt><trkpt lat="42.8365453" lon="11.4625333"><ele>738.0</ele><time>2026-04-02T12:39:06.904Z</time></trkpt><trkpt lat="42.8363989" lon="11.4625984"><ele>736.0</ele><time>2026-04-02T12:39:07.904Z</time></trkpt><trkpt lat="42.8362727" lon="11.4626663"><ele>736.0</ele><time>2026-04-02T12:39:08.904Z</time></trkpt><trkpt lat="42.8361632" lon="11.4627453"><ele>736.0</ele><time>2026-04-02T12:39:09.904Z</time></trkpt><trkpt lat="42.8360906" lon="11.46284"><ele>736.0</ele><time>2026-04-02T12:39:10.904Z</time></trkpt><trkpt lat="42.8360474" lon="11.4629533"><ele>736.0</ele><time>2026-04-02T12:39:11.904Z</time></trkpt><trkpt lat="42.8360557" lon="11.4630757"><ele>736.0</ele><time>2026-04-02T12:39:12.904Z</time></trkpt><trkpt lat="42.8361028" lon="11.463193"><ele>738.0</ele><time>2026-04-02T12:39:13.903Z</time></trkpt><trkpt lat="42.8361817" lon="11.4633081"><ele>740.0</ele><time>2026-04-02T12:39:14.904Z</time></trkpt><trkpt lat="42.8362576" lon="11.463433"><ele>742.0</ele><time>2026-04-02T12:39:15.904Z</time></trkpt><trkpt lat="42.8363068" lon="11.4635738"><ele>744.0</ele><time>2026-04-02T12:39:16.904Z</time></trkpt><trkpt lat="42.8363252" lon="11.4637141"><ele>743.8000000000001</ele><time>2026-04-02T12:39:17.903Z</time></trkpt><trkpt lat="42.8363055" lon="11.4638556"><ele>743.6</ele><time>2026-04-02T12:39:18.904Z</time></trkpt><trkpt lat="42.8362485" lon="11.463991"><ele>743.4</ele><time>2026-04-02T12:39:19.903Z</time></trkpt><trkpt lat="42.8362096" lon="11.4641158"><ele>743.2</ele><time>2026-04-02T12:39:20.904Z</time></trkpt><trkpt lat="42.836205" lon="11.4642523"><ele>743.0</ele><time>2026-04-02T12:39:21.904Z</time></trkpt><trkpt lat="42.8362366" lon="11.4643998"><ele>743.0</ele><time>2026-04-02T12:39:22.904Z</time></trkpt><trkpt lat="42.8362936" lon="11.4645571"><ele>743.0</ele><time>2026-04-02T12:39:23.904Z</time></trkpt><trkpt lat="42.8363607" lon="11.4647452"><ele>743.0</ele><time>2026-04-02T12:39:24.904Z</time></trkpt><trkpt lat="42.836416" lon="11.464947"><ele>743.0</ele><time>2026-04-02T12:39:25.904Z</time></trkpt><trkpt lat="42.8364387" lon="11.4651569"><ele>742.6666666666666</ele><time>2026-04-02T12:39:26.903Z</time></trkpt><trkpt lat="42.8364278" lon="11.465374"><ele>742.3333333333334</ele><time>2026-04-02T12:39:27.904Z</time></trkpt><trkpt lat="42.8363823" lon="11.4655828"><ele>742.0</ele><time>2026-04-02T12:39:28.904Z</time></trkpt><trkpt lat="42.8363273" lon="11.4657734"><ele>742.0</ele><time>2026-04-02T12:39:29.904Z</time></trkpt><trkpt lat="42.8362922" lon="11.4659342"><ele>742.0</ele><time>2026-04-02T12:39:30.903Z</time></trkpt><trkpt lat="42.8362861" lon="11.4660869"><ele>742.0</ele><time>2026-04-02T12:39:31.904Z</time></trkpt><trkpt lat="42.8363116" lon="11.4662465"><ele>742.0</ele><time>2026-04-02T12:39:32.904Z</time></trkpt><trkpt lat="42.8363786" lon="11.4663956"><ele>741.25</ele><time>2026-04-02T12:39:33.904Z</time></trkpt><trkpt lat="42.8364363" lon="11.4665371"><ele>740.5</ele><time>2026-04-02T12:39:34.904Z</time></trkpt><trkpt lat="42.8364576" lon="11.466685"><ele>739.75</ele><time>2026-04-02T12:39:35.904Z</time></trkpt><trkpt lat="42.8364384" lon="11.4668381"><ele>739.0</ele><time>2026-04-02T12:39:36.904Z</time></trkpt><trkpt lat="42.8364232" lon="11.4669889"><ele>739.0</ele><time>2026-04-02T12:39:37.903Z</time></trkpt><trkpt lat="42.8362788" lon="11.4670402"><ele>739.0</ele><time>2026-04-02T12:39:38.904Z</time></trkpt><trkpt lat="42.8361748" lon="11.4670658"><ele>739.0</ele><time>2026-04-02T12:39:39.904Z</time></trkpt><trkpt lat="42.836045" lon="11.4670353"><ele>739.0</ele><time>2026-04-02T12:39:40.904Z</time></trkpt><trkpt lat="42.8359013" lon="11.4669742"><ele>734.5</ele><time>2026-04-02T12:39:41.904Z</time></trkpt><trkpt lat="42.835764" lon="11.4669051"><ele>730.0</ele><time>2026-04-02T12:39:42.904Z</time></trkpt><trkpt lat="42.8356448" lon="11.4668646"><ele>725.5</ele><time>2026-04-02T12:39:43.904Z</time></trkpt><trkpt lat="42.8355295" lon="11.4668691"><ele>721.0</ele><time>2026-04-02T12:39:44.904Z</time></trkpt><trkpt lat="42.835433" lon="11.4669189"><ele>721.0</ele><time>2026-04-02T12:39:45.904Z</time></trkpt><trkpt lat="42.835355" lon="11.4670116"><ele>721.0</ele><time>2026-04-02T12:39:46.903Z</time></trkpt><trkpt lat="42.8352841" lon="11.4671596"><ele>721.0</ele><time>2026-04-02T12:39:47.904Z</time></trkpt><trkpt lat="42.8351997" lon="11.4673064"><ele>721.0</ele><time>2026-04-02T12:39:48.904Z</time></trkpt><trkpt lat="42.8350903" lon="11.4674427"><ele>720.3333333333334</ele><time>2026-04-02T12:39:49.904Z</time></trkpt><trkpt lat="42.8349519" lon="11.4675543"><ele>719.6666666666666</ele><time>2026-04-02T12:39:50.904Z</time></trkpt><trkpt lat="42.8347784" lon="11.4676436"><ele>719.0</ele><time>2026-04-02T12:39:51.904Z</time></trkpt><trkpt lat="42.834585" lon="11.4677206"><ele>719.0</ele><time>2026-04-02T12:39:52.904Z</time></trkpt><trkpt lat="42.8343952" lon="11.4677671"><ele>719.0</ele><time>2026-04-02T12:39:53.904Z</time></trkpt><trkpt lat="42.8342029" lon="11.4677894"><ele>719.0</ele><time>2026-04-02T12:39:54.904Z</time></trkpt><trkpt lat="42.8340198" lon="11.4678026"><ele>714.3333333333333</ele><time>2026-04-02T12:39:55.904Z</time></trkpt><trkpt lat="42.8338342" lon="11.4677976"><ele>709.6666666666666</ele><time>2026-04-02T12:39:56.904Z</time></trkpt><trkpt lat="42.8336394" lon="11.4677705"><ele>705.0</ele><time>2026-04-02T12:39:57.904Z</time></trkpt><trkpt lat="42.8334357" lon="11.4677554"><ele>703.0</ele><time>2026-04-02T12:39:58.904Z</time></trkpt><trkpt lat="42.8332332" lon="11.4677546"><ele>701.0</ele><time>2026-04-02T12:39:59.903Z</time></trkpt><trkpt lat="42.8330176" lon="11.4677582"><ele>699.0</ele><time>2026-04-02T12:40:00.904Z</time></trkpt><trkpt lat="42.8328079" lon="11.4677574"><ele>698.0</ele><time>2026-04-02T12:40:01.904Z</time></trkpt><trkpt lat="42.8326168" lon="11.4677525"><ele>697.0</ele><time>2026-04-02T12:40:02.904Z</time></trkpt><trkpt lat="42.8324244" lon="11.4677181"><ele>696.0</ele><time>2026-04-02T12:40:03.904Z</time></trkpt><trkpt lat="42.8322346" lon="11.4676477"><ele>696.0</ele><time>2026-04-02T12:40:04.904Z</time></trkpt><trkpt lat="42.832061" lon="11.4675624"><ele>696.0</ele><time>2026-04-02T12:40:05.904Z</time></trkpt><trkpt lat="42.8319007" lon="11.4674843"><ele>696.0</ele><time>2026-04-02T12:40:06.904Z</time></trkpt><trkpt lat="42.8317594" lon="11.4674201"><ele>695.75</ele><time>2026-04-02T12:40:07.904Z</time></trkpt><trkpt lat="42.8316321" lon="11.4673753"><ele>695.5</ele><time>2026-04-02T12:40:08.904Z</time></trkpt><trkpt lat="42.8315016" lon="11.467371"><ele>695.25</ele><time>2026-04-02T12:40:09.904Z</time></trkpt><trkpt lat="42.8313722" lon="11.4674172"><ele>695.0</ele><time>2026-04-02T12:40:10.903Z</time></trkpt><trkpt lat="42.8312323" lon="11.467509"><ele>695.0</ele><time>2026-04-02T12:40:11.903Z</time></trkpt><trkpt lat="42.8310863" lon="11.4676236"><ele>695.0</ele><time>2026-04-02T12:40:12.903Z</time></trkpt><trkpt lat="42.8309311" lon="11.4677491"><ele>695.0</ele><time>2026-04-02T12:40:13.904Z</time></trkpt><trkpt lat="42.8307644" lon="11.4678762"><ele>696.6666666666666</ele><time>2026-04-02T12:40:14.903Z</time></trkpt><trkpt lat="42.8306128" lon="11.4679948"><ele>698.3333333333334</ele><time>2026-04-02T12:40:15.903Z</time></trkpt><trkpt lat="42.830466" lon="11.468104"><ele>700.0</ele><time>2026-04-02T12:40:16.903Z</time></trkpt><trkpt lat="42.8303169" lon="11.4682146"><ele>700.0</ele><time>2026-04-02T12:40:17.904Z</time></trkpt><trkpt lat="42.8301598" lon="11.4683278"><ele>700.0</ele><time>2026-04-02T12:40:18.904Z</time></trkpt><trkpt lat="42.8300007" lon="11.4684411"><ele>700.0</ele><time>2026-04-02T12:40:19.904Z</time></trkpt><trkpt lat="42.829849" lon="11.4685475"><ele>700.3333333333334</ele><time>2026-04-02T12:40:20.903Z</time></trkpt><trkpt lat="42.8297021" lon="11.4686518"><ele>700.6666666666666</ele><time>2026-04-02T12:40:21.904Z</time></trkpt><trkpt lat="42.8295542" lon="11.4687568"><ele>701.0</ele><time>2026-04-02T12:40:22.904Z</time></trkpt><trkpt lat="42.8294042" lon="11.4688692"><ele>701.0</ele><time>2026-04-02T12:40:23.904Z</time></trkpt><trkpt lat="42.8292507" lon="11.4689816"><ele>701.0</ele><time>2026-04-02T12:40:24.904Z</time></trkpt><trkpt lat="42.8290884" lon="11.4690875"><ele>701.0</ele><time>2026-04-02T12:40:25.904Z</time></trkpt><trkpt lat="42.8289209" lon="11.4691478"><ele>701.0</ele><time>2026-04-02T12:40:26.904Z</time></trkpt><trkpt lat="42.82874" lon="11.4691688"><ele>701.0</ele><time>2026-04-02T12:40:27.904Z</time></trkpt><trkpt lat="42.8285609" lon="11.4691775"><ele>701.0</ele><time>2026-04-02T12:40:28.904Z</time></trkpt><trkpt lat="42.8283687" lon="11.469209"><ele>700.6666666666666</ele><time>2026-04-02T12:40:29.904Z</time></trkpt><trkpt lat="42.8281673" lon="11.469255"><ele>700.3333333333334</ele><time>2026-04-02T12:40:30.904Z</time></trkpt><trkpt lat="42.827966" lon="11.4693034"><ele>700.0</ele><time>2026-04-02T12:40:31.904Z</time></trkpt><trkpt lat="42.8277573" lon="11.4693601"><ele>698.3333333333334</ele><time>2026-04-02T12:40:32.904Z</time></trkpt><trkpt lat="42.827547" lon="11.4694312"><ele>696.6666666666666</ele><time>2026-04-02T12:40:33.904Z</time></trkpt><trkpt lat="42.8273431" lon="11.4695236"><ele>695.0</ele><time>2026-04-02T12:40:34.904Z</time></trkpt><trkpt lat="42.8271477" lon="11.4696349"><ele>696.6666666666666</ele><time>2026-04-02T12:40:35.904Z</time></trkpt><trkpt lat="42.8269616" lon="11.4697613"><ele>698.3333333333334</ele><time>2026-04-02T12:40:36.904Z</time></trkpt><trkpt lat="42.8267861" lon="11.4698803"><ele>700.0</ele><time>2026-04-02T12:40:37.904Z</time></trkpt><trkpt lat="42.826616" lon="11.4699854"><ele>700.0</ele><time>2026-04-02T12:40:38.904Z</time></trkpt><trkpt lat="42.8264461" lon="11.4700668"><ele>700.0</ele><time>2026-04-02T12:40:39.904Z</time></trkpt><trkpt lat="42.8262878" lon="11.4701175"><ele>700.0</ele><time>2026-04-02T12:40:40.904Z</time></trkpt><trkpt lat="42.8261446" lon="11.470182"><ele>700.0</ele><time>2026-04-02T12:40:41.904Z</time></trkpt><trkpt lat="42.8260025" lon="11.4702873"><ele>700.0</ele><time>2026-04-02T12:40:42.904Z</time></trkpt><trkpt lat="42.8258675" lon="11.4704053"><ele>700.0</ele><time>2026-04-02T12:40:43.903Z</time></trkpt><trkpt lat="42.8257332" lon="11.4704894"><ele>698.75</ele><time>2026-04-02T12:40:44.904Z</time></trkpt><trkpt lat="42.8255977" lon="11.4705187"><ele>697.5</ele><time>2026-04-02T12:40:45.904Z</time></trkpt><trkpt lat="42.8254834" lon="11.4704977"><ele>696.25</ele><time>2026-04-02T12:40:46.904Z</time></trkpt><trkpt lat="42.8253884" lon="11.4704374"><ele>695.0</ele><time>2026-04-02T12:40:47.904Z</time></trkpt><trkpt lat="42.8253054" lon="11.4703208"><ele>695.0</ele><time>2026-04-02T12:40:48.904Z</time></trkpt><trkpt lat="42.8252325" lon="11.4701495"><ele>695.0</ele><time>2026-04-02T12:40:49.904Z</time></trkpt><trkpt lat="42.82516" lon="11.469954"><ele>695.0</ele><time>2026-04-02T12:40:50.904Z</time></trkpt><trkpt lat="42.8250981" lon="11.4697227"><ele>692.6666666666666</ele><time>2026-04-02T12:40:51.904Z</time></trkpt><trkpt lat="42.8250578" lon="11.469454"><ele>690.3333333333334</ele><time>2026-04-02T12:40:52.904Z</time></trkpt><trkpt lat="42.8250335" lon="11.4691594"><ele>688.0</ele><time>2026-04-02T12:40:53.904Z</time></trkpt><trkpt lat="42.8250282" lon="11.4688739"><ele>686.0</ele><time>2026-04-02T12:40:54.904Z</time></trkpt><trkpt lat="42.8250293" lon="11.4685974"><ele>684.0</ele><time>2026-04-02T12:40:55.903Z</time></trkpt><trkpt lat="42.825031" lon="11.4683502"><ele>682.0</ele><time>2026-04-02T12:40:56.904Z</time></trkpt><trkpt lat="42.8250415" lon="11.4681173"><ele>678.0</ele><time>2026-04-02T12:40:57.904Z</time></trkpt><trkpt lat="42.8250823" lon="11.4678874"><ele>674.0</ele><time>2026-04-02T12:40:58.904Z</time></trkpt><trkpt lat="42.8251551" lon="11.4676741"><ele>670.0</ele><time>2026-04-02T12:40:59.904Z</time></trkpt><trkpt lat="42.8252336" lon="11.4674694"><ele>668.6666666666667</ele><time>2026-04-02T12:41:00.904Z</time></trkpt><trkpt lat="42.8253133" lon="11.4672624"><ele>667.3333333333334</ele><time>2026-04-02T12:41:01.904Z</time></trkpt><trkpt lat="42.8253714" lon="11.4670256"><ele>666.0</ele><time>2026-04-02T12:41:02.903Z</time></trkpt><trkpt lat="42.8254108" lon="11.466764"><ele>663.3333333333334</ele><time>2026-04-02T12:41:03.904Z</time></trkpt><trkpt lat="42.8254437" lon="11.4664887"><ele>660.6666666666667</ele><time>2026-04-02T12:41:04.904Z</time></trkpt><trkpt lat="42.8254736" lon="11.4662091"><ele>658.0</ele><time>2026-04-02T12:41:05.904Z</time></trkpt><trkpt lat="42.8254967" lon="11.4659446"><ele>655.3333333333334</ele><time>2026-04-02T12:41:06.903Z</time></trkpt><trkpt lat="42.8255138" lon="11.4656982"><ele>652.6666666666666</ele><time>2026-04-02T12:41:07.904Z</time></trkpt><trkpt lat="42.8255303" lon="11.4654924"><ele>650.0</ele><time>2026-04-02T12:41:08.904Z</time></trkpt><trkpt lat="42.8255388" lon="11.4652925"><ele>649.5</ele><time>2026-04-02T12:41:09.904Z</time></trkpt><trkpt lat="42.8255196" lon="11.4651027"><ele>649.0</ele><time>2026-04-02T12:41:10.904Z</time></trkpt><trkpt lat="42.8254578" lon="11.4649431"><ele>648.5</ele><time>2026-04-02T12:41:11.904Z</time></trkpt><trkpt lat="42.825348" lon="11.4648026"><ele>648.0</ele><time>2026-04-02T12:41:12.904Z</time></trkpt><trkpt lat="42.8252031" lon="11.4646917"><ele>646.3333333333334</ele><time>2026-04-02T12:41:13.904Z</time></trkpt><trkpt lat="42.82503" lon="11.4645907"><ele>644.6666666666667</ele><time>2026-04-02T12:41:14.903Z</time></trkpt><trkpt lat="42.8248381" lon="11.464476"><ele>643.0</ele><time>2026-04-02T12:41:15.904Z</time></trkpt><trkpt lat="42.8246527" lon="11.4643535"><ele>643.0</ele><time>2026-04-02T12:41:16.903Z</time></trkpt><trkpt lat="42.8244934" lon="11.4642457"><ele>643.0</ele><time>2026-04-02T12:41:17.904Z</time></trkpt><trkpt lat="42.824361" lon="11.4641452"><ele>643.0</ele><time>2026-04-02T12:41:18.904Z</time></trkpt><trkpt lat="42.8242501" lon="11.4640789"><ele>643.25</ele><time>2026-04-02T12:41:19.904Z</time></trkpt><trkpt lat="42.8241371" lon="11.464047"><ele>643.5</ele><time>2026-04-02T12:41:20.904Z</time></trkpt><trkpt lat="42.8240155" lon="11.4640661"><ele>643.75</ele><time>2026-04-02T12:41:21.904Z</time></trkpt><trkpt lat="42.8238876" lon="11.4641279"><ele>644.0</ele><time>2026-04-02T12:41:22.904Z</time></trkpt><trkpt lat="42.8237538" lon="11.4642109"><ele>644.0</ele><time>2026-04-02T12:41:23.904Z</time></trkpt><trkpt lat="42.8236212" lon="11.4643199"><ele>644.0</ele><time>2026-04-02T12:41:24.903Z</time></trkpt><trkpt lat="42.8234858" lon="11.4644395"><ele>644.0</ele><time>2026-04-02T12:41:25.904Z</time></trkpt><trkpt lat="42.8233667" lon="11.4645878"><ele>643.25</ele><time>2026-04-02T12:41:26.904Z</time></trkpt><trkpt lat="42.8232643" lon="11.4647474"><ele>642.5</ele><time>2026-04-02T12:41:27.903Z</time></trkpt><trkpt lat="42.823173" lon="11.4649035"><ele>641.75</ele><time>2026-04-02T12:41:28.904Z</time></trkpt><trkpt lat="42.8230812" lon="11.4650291"><ele>641.0</ele><time>2026-04-02T12:41:29.904Z</time></trkpt><trkpt lat="42.8229666" lon="11.4651291"><ele>641.0</ele><time>2026-04-02T12:41:30.903Z</time></trkpt><trkpt lat="42.8228421" lon="11.4651707"><ele>641.0</ele><time>2026-04-02T12:41:31.904Z</time></trkpt><trkpt lat="42.822707" lon="11.465154"><ele>641.0</ele><time>2026-04-02T12:41:32.904Z</time></trkpt><trkpt lat="42.8225617" lon="11.4650821"><ele>641.0</ele><time>2026-04-02T12:41:33.904Z</time></trkpt><trkpt lat="42.8224195" lon="11.4649695"><ele>639.6666666666666</ele><time>2026-04-02T12:41:34.904Z</time></trkpt><trkpt lat="42.8222724" lon="11.4648067"><ele>638.3333333333334</ele><time>2026-04-02T12:41:35.904Z</time></trkpt><trkpt lat="42.822116" lon="11.46463"><ele>637.0</ele><time>2026-04-02T12:41:36.904Z</time></trkpt><trkpt lat="42.8219415" lon="11.4644651"><ele>633.6666666666667</ele><time>2026-04-02T12:41:37.904Z</time></trkpt><trkpt lat="42.8217715" lon="11.4643185"><ele>630.3333333333334</ele><time>2026-04-02T12:41:38.903Z</time></trkpt><trkpt lat="42.821623" lon="11.4641888"><ele>627.0</ele><time>2026-04-02T12:41:39.904Z</time></trkpt><trkpt lat="42.8214954" lon="11.4640543"><ele>627.0</ele><time>2026-04-02T12:41:40.904Z</time></trkpt><trkpt lat="42.8214021" lon="11.4639013"><ele>627.0</ele><time>2026-04-02T12:41:41.904Z</time></trkpt><trkpt lat="42.8213497" lon="11.4637158"><ele>627.0</ele><time>2026-04-02T12:41:42.904Z</time></trkpt><trkpt lat="42.8213278" lon="11.4635117"><ele>627.0</ele><time>2026-04-02T12:41:43.904Z</time></trkpt><trkpt lat="42.8212796" lon="11.463303"><ele>623.5</ele><time>2026-04-02T12:41:44.904Z</time></trkpt><trkpt lat="42.8212044" lon="11.4631021"><ele>620.0</ele><time>2026-04-02T12:41:45.904Z</time></trkpt><trkpt lat="42.8211149" lon="11.4629427"><ele>616.5</ele><time>2026-04-02T12:41:46.904Z</time></trkpt><trkpt lat="42.8210181" lon="11.4628195"><ele>613.0</ele><time>2026-04-02T12:41:47.903Z</time></trkpt><trkpt lat="42.8209043" lon="11.4627389"><ele>609.6666666666667</ele><time>2026-04-02T12:41:48.904Z</time></trkpt><trkpt lat="42.8207698" lon="11.4627126"><ele>606.3333333333334</ele><time>2026-04-02T12:41:49.904Z</time></trkpt><trkpt lat="42.8206109" lon="11.4627357"><ele>603.0</ele><time>2026-04-02T12:41:50.904Z</time></trkpt><trkpt lat="42.8204338" lon="11.4627916"><ele>603.0</ele><time>2026-04-02T12:41:51.904Z</time></trkpt><trkpt lat="42.8202468" lon="11.462875"><ele>603.0</ele><time>2026-04-02T12:41:52.904Z</time></trkpt><trkpt lat="42.8200601" lon="11.4629604"><ele>603.0</ele><time>2026-04-02T12:41:53.904Z</time></trkpt><trkpt lat="42.8198635" lon="11.463025"><ele>605.3333333333334</ele><time>2026-04-02T12:41:54.903Z</time></trkpt><trkpt lat="42.8196571" lon="11.4630495"><ele>607.6666666666667</ele><time>2026-04-02T12:41:55.904Z</time></trkpt><trkpt lat="42.8194543" lon="11.4630568"><ele>610.0</ele><time>2026-04-02T12:41:56.904Z</time></trkpt><trkpt lat="42.8192577" lon="11.4630829"><ele>610.0</ele><time>2026-04-02T12:41:57.903Z</time></trkpt><trkpt lat="42.8190633" lon="11.4631505"><ele>610.0</ele><time>2026-04-02T12:41:58.904Z</time></trkpt><trkpt lat="42.8188635" lon="11.4632419"><ele>610.0</ele><time>2026-04-02T12:41:59.904Z</time></trkpt><trkpt lat="42.8186536" lon="11.4633462"><ele>607.6666666666667</ele><time>2026-04-02T12:42:00.904Z</time></trkpt><trkpt lat="42.8184533" lon="11.4634383"><ele>605.3333333333334</ele><time>2026-04-02T12:42:01.904Z</time></trkpt><trkpt lat="42.818271" lon="11.4635131"><ele>603.0</ele><time>2026-04-02T12:42:02.904Z</time></trkpt><trkpt lat="42.8181075" lon="11.4635731"><ele>603.0</ele><time>2026-04-02T12:42:03.904Z</time></trkpt><trkpt lat="42.8179566" lon="11.4636028"><ele>603.0</ele><time>2026-04-02T12:42:04.903Z</time></trkpt><trkpt lat="42.8178242" lon="11.4635779"><ele>603.0</ele><time>2026-04-02T12:42:05.903Z</time></trkpt><trkpt lat="42.8177016" lon="11.46349"><ele>603.0</ele><time>2026-04-02T12:42:06.904Z</time></trkpt><trkpt lat="42.817594" lon="11.463351"><ele>605.6666666666666</ele><time>2026-04-02T12:42:07.903Z</time></trkpt><trkpt lat="42.8174893" lon="11.463206"><ele>608.3333333333333</ele><time>2026-04-02T12:42:08.904Z</time></trkpt><trkpt lat="42.8173564" lon="11.46309"><ele>611.0</ele><time>2026-04-02T12:42:09.904Z</time></trkpt><trkpt lat="42.8172012" lon="11.4630097"><ele>611.0</ele><time>2026-04-02T12:42:10.904Z</time></trkpt><trkpt lat="42.8170169" lon="11.4629725"><ele>611.0</ele><time>2026-04-02T12:42:11.903Z</time></trkpt><trkpt lat="42.816823" lon="11.462966"><ele>611.0</ele><time>2026-04-02T12:42:12.904Z</time></trkpt><trkpt lat="42.8166298" lon="11.4629611"><ele>609.0</ele><time>2026-04-02T12:42:13.903Z</time></trkpt><trkpt lat="42.8164632" lon="11.462924"><ele>607.0</ele><time>2026-04-02T12:42:14.904Z</time></trkpt><trkpt lat="42.8163243" lon="11.462864"><ele>605.0</ele><time>2026-04-02T12:42:15.904Z</time></trkpt><trkpt lat="42.816201" lon="11.4627649"><ele>605.0</ele><time>2026-04-02T12:42:16.904Z</time></trkpt><trkpt lat="42.8160901" lon="11.4626251"><ele>605.0</ele><time>2026-04-02T12:42:17.904Z</time></trkpt><trkpt lat="42.8159927" lon="11.4624363"><ele>605.0</ele><time>2026-04-02T12:42:18.904Z</time></trkpt><trkpt lat="42.8158939" lon="11.4622396"><ele>606.0</ele><time>2026-04-02T12:42:19.904Z</time></trkpt><trkpt lat="42.8158109" lon="11.4618985"><ele>607.0</ele><time>2026-04-02T12:42:20.904Z</time></trkpt><trkpt lat="42.8157167" lon="11.4615926"><ele>607.0</ele><time>2026-04-02T12:42:21.904Z</time></trkpt><trkpt lat="42.8156228" lon="11.4613006"><ele>607.0</ele><time>2026-04-02T12:42:22.904Z</time></trkpt><trkpt lat="42.8155402" lon="11.4610493"><ele>607.0</ele><time>2026-04-02T12:42:23.904Z</time></trkpt><trkpt lat="42.8154638" lon="11.4608284"><ele>606.3333333333334</ele><time>2026-04-02T12:42:24.903Z</time></trkpt><trkpt lat="42.8153734" lon="11.4606497"><ele>605.6666666666666</ele><time>2026-04-02T12:42:25.904Z</time></trkpt><trkpt lat="42.8152499" lon="11.4604921"><ele>605.0</ele><time>2026-04-02T12:42:26.904Z</time></trkpt><trkpt lat="42.8150972" lon="11.4603525"><ele>603.3333333333333</ele><time>2026-04-02T12:42:27.904Z</time></trkpt><trkpt lat="42.8149219" lon="11.4602051"><ele>601.6666666666666</ele><time>2026-04-02T12:42:28.904Z</time></trkpt><trkpt lat="42.814743" lon="11.4600454"><ele>600.0</ele><time>2026-04-02T12:42:29.904Z</time></trkpt><trkpt lat="42.8145722" lon="11.4598703"><ele>600.0</ele><time>2026-04-02T12:42:30.904Z</time></trkpt><trkpt lat="42.8143897" lon="11.4596841"><ele>600.0</ele><time>2026-04-02T12:42:31.904Z</time></trkpt><trkpt lat="42.8142042" lon="11.4595074"><ele>603.0</ele><time>2026-04-02T12:42:32.904Z</time></trkpt><trkpt lat="42.8139944" lon="11.4593195"><ele>606.0</ele><time>2026-04-02T12:42:33.904Z</time></trkpt><trkpt lat="42.8137822" lon="11.459142"><ele>606.0</ele><time>2026-04-02T12:42:34.904Z</time></trkpt><trkpt lat="42.8135987" lon="11.4589835"><ele>606.0</ele><time>2026-04-02T12:42:35.904Z</time></trkpt><trkpt lat="42.8134406" lon="11.45884"><ele>606.0</ele><time>2026-04-02T12:42:36.904Z</time></trkpt><trkpt lat="42.8133102" lon="11.4586725"><ele>608.0</ele><time>2026-04-02T12:42:37.904Z</time></trkpt><trkpt lat="42.8132126" lon="11.4584825"><ele>610.0</ele><time>2026-04-02T12:42:38.904Z</time></trkpt><trkpt lat="42.8131371" lon="11.4582894"><ele>612.0</ele><time>2026-04-02T12:42:39.904Z</time></trkpt><trkpt lat="42.8130716" lon="11.4581109"><ele>611.25</ele><time>2026-04-02T12:42:40.904Z</time></trkpt><trkpt lat="42.812995" lon="11.4579475"><ele>610.5</ele><time>2026-04-02T12:42:41.904Z</time></trkpt><trkpt lat="42.8129004" lon="11.4578081"><ele>609.75</ele><time>2026-04-02T12:42:42.904Z</time></trkpt><trkpt lat="42.8127832" lon="11.4577066"><ele>609.0</ele><time>2026-04-02T12:42:43.904Z</time></trkpt><trkpt lat="42.8126422" lon="11.4576493"><ele>609.0</ele><time>2026-04-02T12:42:44.904Z</time></trkpt><trkpt lat="42.8124807" lon="11.4576356"><ele>609.0</ele><time>2026-04-02T12:42:45.904Z</time></trkpt><trkpt lat="42.812303" lon="11.4576461"><ele>609.0</ele><time>2026-04-02T12:42:46.904Z</time></trkpt><trkpt lat="42.8121062" lon="11.4576635"><ele>609.0</ele><time>2026-04-02T12:42:47.904Z</time></trkpt><trkpt lat="42.8118984" lon="11.4576776"><ele>609.0</ele><time>2026-04-02T12:42:48.903Z</time></trkpt><trkpt lat="42.8116875" lon="11.4576843"><ele>609.0</ele><time>2026-04-02T12:42:49.904Z</time></trkpt><trkpt lat="42.8114706" lon="11.457695"><ele>608.0</ele><time>2026-04-02T12:42:50.904Z</time></trkpt><trkpt lat="42.8112512" lon="11.4577069"><ele>607.0</ele><time>2026-04-02T12:42:51.904Z</time></trkpt><trkpt lat="42.811029" lon="11.4577225"><ele>606.0</ele><time>2026-04-02T12:42:52.904Z</time></trkpt><trkpt lat="42.8108052" lon="11.457736"><ele>603.5</ele><time>2026-04-02T12:42:53.904Z</time></trkpt><trkpt lat="42.8105781" lon="11.4577463"><ele>601.0</ele><time>2026-04-02T12:42:54.904Z</time></trkpt><trkpt lat="42.8103496" lon="11.4577481"><ele>599.6666666666667</ele><time>2026-04-02T12:42:55.904Z</time></trkpt><trkpt lat="42.8101221" lon="11.4577486"><ele>598.3333333333334</ele><time>2026-04-02T12:42:56.904Z</time></trkpt><trkpt lat="42.8099058" lon="11.457755"><ele>597.0</ele><time>2026-04-02T12:42:57.904Z</time></trkpt><trkpt lat="42.809702" lon="11.4577673"><ele>597.0</ele><time>2026-04-02T12:42:58.904Z</time></trkpt><trkpt lat="42.8095025" lon="11.4577897"><ele>597.0</ele><time>2026-04-02T12:42:59.904Z</time></trkpt><trkpt lat="42.8093031" lon="11.4578409"><ele>597.0</ele><time>2026-04-02T12:43:00.904Z</time></trkpt><trkpt lat="42.809118" lon="11.4579065"><ele>600.0</ele><time>2026-04-02T12:43:01.904Z</time></trkpt><trkpt lat="42.8089542" lon="11.4579688"><ele>603.0</ele><time>2026-04-02T12:43:02.904Z</time></trkpt><trkpt lat="42.8088201" lon="11.4580281"><ele>606.0</ele><time>2026-04-02T12:43:03.904Z</time></trkpt><trkpt lat="42.8087051" lon="11.4581058"><ele>609.0</ele><time>2026-04-02T12:43:04.904Z</time></trkpt><trkpt lat="42.808615" lon="11.4582207"><ele>609.0</ele><time>2026-04-02T12:43:05.904Z</time></trkpt><trkpt lat="42.8085587" lon="11.4583611"><ele>609.0</ele><time>2026-04-02T12:43:06.903Z</time></trkpt><trkpt lat="42.8085305" lon="11.4585289"><ele>609.0</ele><time>2026-04-02T12:43:07.904Z</time></trkpt><trkpt lat="42.8085155" lon="11.458716"><ele>609.0</ele><time>2026-04-02T12:43:08.904Z</time></trkpt><trkpt lat="42.8084756" lon="11.4588951"><ele>609.0</ele><time>2026-04-02T12:43:09.904Z</time></trkpt><trkpt lat="42.8084055" lon="11.4590436"><ele>609.0</ele><time>2026-04-02T12:43:10.904Z</time></trkpt><trkpt lat="42.8083009" lon="11.4591759"><ele>609.0</ele><time>2026-04-02T12:43:11.903Z</time></trkpt><trkpt lat="42.8081665" lon="11.4593002"><ele>609.0</ele><time>2026-04-02T12:43:12.903Z</time></trkpt><trkpt lat="42.8080138" lon="11.4594285"><ele>609.0</ele><time>2026-04-02T12:43:13.904Z</time></trkpt><trkpt lat="42.8078498" lon="11.4595703"><ele>609.0</ele><time>2026-04-02T12:43:14.904Z</time></trkpt><trkpt lat="42.8076705" lon="11.4597154"><ele>609.0</ele><time>2026-04-02T12:43:15.904Z</time></trkpt><trkpt lat="42.807478" lon="11.459851"><ele>606.3333333333334</ele><time>2026-04-02T12:43:16.904Z</time></trkpt><trkpt lat="42.8072673" lon="11.4599678"><ele>603.6666666666667</ele><time>2026-04-02T12:43:17.904Z</time></trkpt><trkpt lat="42.8070574" lon="11.4600611"><ele>601.0</ele><time>2026-04-02T12:43:18.904Z</time></trkpt><trkpt lat="42.8068777" lon="11.4601268"><ele>598.3333333333334</ele><time>2026-04-02T12:43:19.904Z</time></trkpt><trkpt lat="42.806718" lon="11.4601616"><ele>595.6666666666666</ele><time>2026-04-02T12:43:20.904Z</time></trkpt><trkpt lat="42.8065636" lon="11.4601442"><ele>593.0</ele><time>2026-04-02T12:43:21.904Z</time></trkpt><trkpt lat="42.8064178" lon="11.4600663"><ele>593.0</ele><time>2026-04-02T12:43:22.904Z</time></trkpt><trkpt lat="42.8062624" lon="11.4599444"><ele>593.0</ele><time>2026-04-02T12:43:23.904Z</time></trkpt><trkpt lat="42.8060867" lon="11.4598056"><ele>593.0</ele><time>2026-04-02T12:43:24.904Z</time></trkpt><trkpt lat="42.8058886" lon="11.4596606"><ele>587.0</ele><time>2026-04-02T12:43:25.904Z</time></trkpt><trkpt lat="42.8056641" lon="11.4595127"><ele>581.0</ele><time>2026-04-02T12:43:26.904Z</time></trkpt><trkpt lat="42.8054194" lon="11.4593739"><ele>582.0</ele><time>2026-04-02T12:43:27.904Z</time></trkpt><trkpt lat="42.8051615" lon="11.4592434"><ele>583.0</ele><time>2026-04-02T12:43:28.903Z</time></trkpt><trkpt lat="42.8049141" lon="11.4591041"><ele>583.0</ele><time>2026-04-02T12:43:29.904Z</time></trkpt><trkpt lat="42.8046959" lon="11.4589813"><ele>583.0</ele><time>2026-04-02T12:43:30.904Z</time></trkpt><trkpt lat="42.8044937" lon="11.4588667"><ele>582.0</ele><time>2026-04-02T12:43:31.904Z</time></trkpt><trkpt lat="42.8043149" lon="11.4587718"><ele>581.0</ele><time>2026-04-02T12:43:32.904Z</time></trkpt><trkpt lat="42.8041478" lon="11.4586886"><ele>580.0</ele><time>2026-04-02T12:43:33.903Z</time></trkpt><trkpt lat="42.8039987" lon="11.4586179"><ele>580.0</ele><time>2026-04-02T12:43:34.904Z</time></trkpt><trkpt lat="42.8038599" lon="11.4585691"><ele>580.0</ele><time>2026-04-02T12:43:35.904Z</time></trkpt><trkpt lat="42.8037183" lon="11.4585623"><ele>580.0</ele><time>2026-04-02T12:43:36.904Z</time></trkpt><trkpt lat="42.803579" lon="11.4586189"><ele>580.0</ele><time>2026-04-02T12:43:37.904Z</time></trkpt><trkpt lat="42.8034454" lon="11.4587169"><ele>581.3333333333334</ele><time>2026-04-02T12:43:38.904Z</time></trkpt><trkpt lat="42.8033091" lon="11.4588412"><ele>582.6666666666666</ele><time>2026-04-02T12:43:39.904Z</time></trkpt><trkpt lat="42.8031758" lon="11.458956"><ele>584.0</ele><time>2026-04-02T12:43:40.904Z</time></trkpt><trkpt lat="42.8030384" lon="11.459053"><ele>584.0</ele><time>2026-04-02T12:43:41.904Z</time></trkpt><trkpt lat="42.8029013" lon="11.4591168"><ele>584.0</ele><time>2026-04-02T12:43:42.904Z</time></trkpt><trkpt lat="42.8027635" lon="11.4591369"><ele>584.0</ele><time>2026-04-02T12:43:43.904Z</time></trkpt><trkpt lat="42.8026314" lon="11.4591224"><ele>584.0</ele><time>2026-04-02T12:43:44.904Z</time></trkpt><trkpt lat="42.8025086" lon="11.4590942"><ele>583.0</ele><time>2026-04-02T12:43:45.904Z</time></trkpt><trkpt lat="42.8024012" lon="11.4590605"><ele>582.0</ele><time>2026-04-02T12:43:46.904Z</time></trkpt><trkpt lat="42.802324" lon="11.4590367"><ele>581.0</ele><time>2026-04-02T12:43:47.904Z</time></trkpt><trkpt lat="42.8022198" lon="11.4589961"><ele>580.0</ele><time>2026-04-02T12:43:49.904Z</time></trkpt><trkpt lat="42.8021438" lon="11.4589652"><ele>579.0</ele><time>2026-04-02T12:43:51.904Z</time></trkpt><trkpt lat="42.8020719" lon="11.4589505"><ele>579.0</ele><time>2026-04-02T12:43:54.904Z</time></trkpt><trkpt lat="42.8020203" lon="11.4590298"><ele>579.0</ele><time>2026-04-02T12:43:57.904Z</time></trkpt><trkpt lat="42.8020685" lon="11.4592135"><ele>579.0</ele><time>2026-04-02T12:43:59.904Z</time></trkpt><trkpt lat="42.8020889" lon="11.4593396"><ele>579.0</ele><time>2026-04-02T12:44:00.904Z</time></trkpt><trkpt lat="42.8021081" lon="11.4595061"><ele>579.0</ele><time>2026-04-02T12:44:01.904Z</time></trkpt><trkpt lat="42.8021289" lon="11.4596814"><ele>579.25</ele><time>2026-04-02T12:44:02.904Z</time></trkpt><trkpt lat="42.802152" lon="11.4598811"><ele>579.5</ele><time>2026-04-02T12:44:03.904Z</time></trkpt><trkpt lat="42.8021739" lon="11.4600865"><ele>579.75</ele><time>2026-04-02T12:44:04.903Z</time></trkpt><trkpt lat="42.8021907" lon="11.4602846"><ele>580.0</ele><time>2026-04-02T12:44:05.904Z</time></trkpt><trkpt lat="42.8022099" lon="11.460474"><ele>580.0</ele><time>2026-04-02T12:44:06.904Z</time></trkpt><trkpt lat="42.8022293" lon="11.4606418"><ele>580.0</ele><time>2026-04-02T12:44:07.904Z</time></trkpt><trkpt lat="42.8022493" lon="11.4608001"><ele>580.0</ele><time>2026-04-02T12:44:08.904Z</time></trkpt><trkpt lat="42.8022673" lon="11.4609562"><ele>580.0</ele><time>2026-04-02T12:44:09.904Z</time></trkpt><trkpt lat="42.8022821" lon="11.4611095"><ele>580.0</ele><time>2026-04-02T12:44:10.904Z</time></trkpt><trkpt lat="42.8022969" lon="11.4612565"><ele>580.0</ele><time>2026-04-02T12:44:11.904Z</time></trkpt><trkpt lat="42.8023083" lon="11.4613888"><ele>580.0</ele><time>2026-04-02T12:44:12.904Z</time></trkpt><trkpt lat="42.8023257" lon="11.4615201"><ele>580.0</ele><time>2026-04-02T12:44:13.904Z</time></trkpt><trkpt lat="42.8023642" lon="11.461653"><ele>580.0</ele><time>2026-04-02T12:44:14.904Z</time></trkpt><trkpt lat="42.8024345" lon="11.4617843"><ele>581.3333333333334</ele><time>2026-04-02T12:44:15.903Z</time></trkpt><trkpt lat="42.8025428" lon="11.4619027"><ele>582.6666666666666</ele><time>2026-04-02T12:44:16.904Z</time></trkpt><trkpt lat="42.8026769" lon="11.4620356"><ele>584.0</ele><time>2026-04-02T12:44:17.904Z</time></trkpt><trkpt lat="42.8028245" lon="11.4621963"><ele>578.3333333333333</ele><time>2026-04-02T12:44:18.904Z</time></trkpt><trkpt lat="42.8029867" lon="11.4623416"><ele>572.6666666666666</ele><time>2026-04-02T12:44:19.904Z</time></trkpt><trkpt lat="42.8031668" lon="11.4624822"><ele>567.0</ele><time>2026-04-02T12:44:20.904Z</time></trkpt><trkpt lat="42.8033599" lon="11.4626249"><ele>569.6666666666666</ele><time>2026-04-02T12:44:21.904Z</time></trkpt><trkpt lat="42.8035661" lon="11.4627639"><ele>572.3333333333333</ele><time>2026-04-02T12:44:22.903Z</time></trkpt><trkpt lat="42.8037569" lon="11.462885"><ele>575.0</ele><time>2026-04-02T12:44:23.904Z</time></trkpt><trkpt lat="42.8039438" lon="11.4630009"><ele>573.0</ele><time>2026-04-02T12:44:24.904Z</time></trkpt><trkpt lat="42.8041307" lon="11.4631044"><ele>571.0</ele><time>2026-04-02T12:44:25.904Z</time></trkpt><trkpt lat="42.8043119" lon="11.4631985"><ele>569.0</ele><time>2026-04-02T12:44:26.904Z</time></trkpt><trkpt lat="42.8044889" lon="11.4632938"><ele>569.0</ele><time>2026-04-02T12:44:27.904Z</time></trkpt><trkpt lat="42.804659" lon="11.4633849"><ele>569.0</ele><time>2026-04-02T12:44:28.904Z</time></trkpt><trkpt lat="42.8048251" lon="11.4634872"><ele>569.0</ele><time>2026-04-02T12:44:29.904Z</time></trkpt><trkpt lat="42.8049674" lon="11.4635913"><ele>569.0</ele><time>2026-04-02T12:44:30.904Z</time></trkpt><trkpt lat="42.8051108" lon="11.4637245"><ele>569.0</ele><time>2026-04-02T12:44:31.904Z</time></trkpt><trkpt lat="42.8052425" lon="11.4638831"><ele>569.0</ele><time>2026-04-02T12:44:32.904Z</time></trkpt><trkpt lat="42.8053581" lon="11.4640476"><ele>568.25</ele><time>2026-04-02T12:44:33.904Z</time></trkpt><trkpt lat="42.8054567" lon="11.4641975"><ele>567.5</ele><time>2026-04-02T12:44:34.904Z</time></trkpt><trkpt lat="42.8055442" lon="11.4643372"><ele>566.75</ele><time>2026-04-02T12:44:35.904Z</time></trkpt><trkpt lat="42.8056024" lon="11.4644782"><ele>566.0</ele><time>2026-04-02T12:44:36.904Z</time></trkpt><trkpt lat="42.8056387" lon="11.464646"><ele>566.0</ele><time>2026-04-02T12:44:37.904Z</time></trkpt><trkpt lat="42.8056331" lon="11.4648202"><ele>566.0</ele><time>2026-04-02T12:44:38.904Z</time></trkpt><trkpt lat="42.8055971" lon="11.4650132"><ele>566.0</ele><time>2026-04-02T12:44:39.904Z</time></trkpt><trkpt lat="42.8055472" lon="11.4652156"><ele>566.0</ele><time>2026-04-02T12:44:40.904Z</time></trkpt><trkpt lat="42.8054884" lon="11.4654273"><ele>567.0</ele><time>2026-04-02T12:44:41.904Z</time></trkpt><trkpt lat="42.8054161" lon="11.4656077"><ele>568.0</ele><time>2026-04-02T12:44:42.904Z</time></trkpt><trkpt lat="42.805317" lon="11.4657573"><ele>569.0</ele><time>2026-04-02T12:44:43.903Z</time></trkpt><trkpt lat="42.8051956" lon="11.4658656"><ele>570.0</ele><time>2026-04-02T12:44:44.904Z</time></trkpt><trkpt lat="42.8050547" lon="11.4659264"><ele>570.0</ele><time>2026-04-02T12:44:45.903Z</time></trkpt><trkpt lat="42.8049124" lon="11.4659836"><ele>570.0</ele><time>2026-04-02T12:44:46.904Z</time></trkpt><trkpt lat="42.8047866" lon="11.4660765"><ele>570.0</ele><time>2026-04-02T12:44:47.904Z</time></trkpt><trkpt lat="42.8046884" lon="11.4662119"><ele>570.0</ele><time>2026-04-02T12:44:48.904Z</time></trkpt><trkpt lat="42.8046178" lon="11.4663912"><ele>574.0</ele><time>2026-04-02T12:44:49.904Z</time></trkpt><trkpt lat="42.8045613" lon="11.4665904"><ele>578.0</ele><time>2026-04-02T12:44:50.904Z</time></trkpt><trkpt lat="42.8044785" lon="11.466793"><ele>582.0</ele><time>2026-04-02T12:44:51.904Z</time></trkpt><trkpt lat="42.8043742" lon="11.4669722"><ele>583.0</ele><time>2026-04-02T12:44:52.904Z</time></trkpt><trkpt lat="42.8042693" lon="11.467135"><ele>584.0</ele><time>2026-04-02T12:44:53.904Z</time></trkpt><trkpt lat="42.8040756" lon="11.467233"><ele>585.0</ele><time>2026-04-02T12:44:54.904Z</time></trkpt><trkpt lat="42.8039005" lon="11.4673241"><ele>585.0</ele><time>2026-04-02T12:44:55.903Z</time></trkpt><trkpt lat="42.8037201" lon="11.467403"><ele>585.0</ele><time>2026-04-02T12:44:56.904Z</time></trkpt><trkpt lat="42.8035477" lon="11.4675041"><ele>585.0</ele><time>2026-04-02T12:44:57.904Z</time></trkpt><trkpt lat="42.8033757" lon="11.467629"><ele>585.0</ele><time>2026-04-02T12:44:58.904Z</time></trkpt><trkpt lat="42.8032146" lon="11.4677866"><ele>585.0</ele><time>2026-04-02T12:44:59.904Z</time></trkpt><trkpt lat="42.8030562" lon="11.4679691"><ele>585.0</ele><time>2026-04-02T12:45:00.904Z</time></trkpt><trkpt lat="42.8028869" lon="11.4681601"><ele>587.0</ele><time>2026-04-02T12:45:01.904Z</time></trkpt><trkpt lat="42.8027078" lon="11.468358"><ele>589.0</ele><time>2026-04-02T12:45:02.903Z</time></trkpt><trkpt lat="42.802519" lon="11.4685662"><ele>592.0</ele><time>2026-04-02T12:45:03.904Z</time></trkpt><trkpt lat="42.802321" lon="11.4687763"><ele>595.0</ele><time>2026-04-02T12:45:04.904Z</time></trkpt><trkpt lat="42.8021178" lon="11.4689948"><ele>595.0</ele><time>2026-04-02T12:45:05.904Z</time></trkpt><trkpt lat="42.8019189" lon="11.4692147"><ele>595.0</ele><time>2026-04-02T12:45:06.904Z</time></trkpt><trkpt lat="42.8017345" lon="11.4694183"><ele>596.6666666666667</ele><time>2026-04-02T12:45:07.904Z</time></trkpt><trkpt lat="42.8015627" lon="11.4696108"><ele>598.3333333333334</ele><time>2026-04-02T12:45:08.904Z</time></trkpt><trkpt lat="42.801412" lon="11.4697817"><ele>600.0</ele><time>2026-04-02T12:45:09.904Z</time></trkpt><trkpt lat="42.8012853" lon="11.4699356"><ele>600.0</ele><time>2026-04-02T12:45:10.904Z</time></trkpt><trkpt lat="42.8011664" lon="11.4701045"><ele>600.0</ele><time>2026-04-02T12:45:11.904Z</time></trkpt><trkpt lat="42.8010476" lon="11.4702889"><ele>600.0</ele><time>2026-04-02T12:45:12.904Z</time></trkpt><trkpt lat="42.8009295" lon="11.4704965"><ele>600.6666666666666</ele><time>2026-04-02T12:45:13.904Z</time></trkpt><trkpt lat="42.800811" lon="11.4707199"><ele>601.3333333333333</ele><time>2026-04-02T12:45:14.904Z</time></trkpt><trkpt lat="42.8006975" lon="11.4709579"><ele>602.0</ele><time>2026-04-02T12:45:15.904Z</time></trkpt><trkpt lat="42.8005892" lon="11.4711765"><ele>604.6666666666666</ele><time>2026-04-02T12:45:16.904Z</time></trkpt><trkpt lat="42.8004729" lon="11.4713641"><ele>607.3333333333334</ele><time>2026-04-02T12:45:17.904Z</time></trkpt><trkpt lat="42.8003405" lon="11.4715177"><ele>610.0</ele><time>2026-04-02T12:45:18.904Z</time></trkpt><trkpt lat="42.8001847" lon="11.4716351"><ele>605.0</ele><time>2026-04-02T12:45:19.903Z</time></trkpt><trkpt lat="42.8000045" lon="11.4717127"><ele>600.0</ele><time>2026-04-02T12:45:20.904Z</time></trkpt><trkpt lat="42.7998152" lon="11.4717545"><ele>595.0</ele><time>2026-04-02T12:45:21.904Z</time></trkpt><trkpt lat="42.7996273" lon="11.4717809"><ele>595.0</ele><time>2026-04-02T12:45:22.904Z</time></trkpt><trkpt lat="42.7994539" lon="11.4718244"><ele>595.0</ele><time>2026-04-02T12:45:23.904Z</time></trkpt><trkpt lat="42.7992867" lon="11.4718946"><ele>595.0</ele><time>2026-04-02T12:45:24.904Z</time></trkpt><trkpt lat="42.7991242" lon="11.4720086"><ele>597.6666666666667</ele><time>2026-04-02T12:45:25.904Z</time></trkpt><trkpt lat="42.7989683" lon="11.4721704"><ele>600.3333333333334</ele><time>2026-04-02T12:45:26.904Z</time></trkpt><trkpt lat="42.7988279" lon="11.4723656"><ele>603.0</ele><time>2026-04-02T12:45:27.904Z</time></trkpt><trkpt lat="42.7987015" lon="11.4725571"><ele>603.0</ele><time>2026-04-02T12:45:28.904Z</time></trkpt><trkpt lat="42.7985805" lon="11.4727367"><ele>603.0</ele><time>2026-04-02T12:45:29.903Z</time></trkpt><trkpt lat="42.7984476" lon="11.4728947"><ele>603.0</ele><time>2026-04-02T12:45:30.904Z</time></trkpt><trkpt lat="42.798298" lon="11.4730254"><ele>601.3333333333334</ele><time>2026-04-02T12:45:31.904Z</time></trkpt><trkpt lat="42.7981287" lon="11.4731213"><ele>599.6666666666667</ele><time>2026-04-02T12:45:32.904Z</time></trkpt><trkpt lat="42.7979348" lon="11.4731768"><ele>598.0</ele><time>2026-04-02T12:45:33.904Z</time></trkpt><trkpt lat="42.79772" lon="11.4732116"><ele>597.5</ele><time>2026-04-02T12:45:34.904Z</time></trkpt><trkpt lat="42.7975027" lon="11.4732354"><ele>597.0</ele><time>2026-04-02T12:45:35.904Z</time></trkpt><trkpt lat="42.7972718" lon="11.4732629"><ele>597.0</ele><time>2026-04-02T12:45:36.904Z</time></trkpt><trkpt lat="42.7970402" lon="11.4732929"><ele>597.0</ele><time>2026-04-02T12:45:37.904Z</time></trkpt><trkpt lat="42.7968261" lon="11.4733215"><ele>597.0</ele><time>2026-04-02T12:45:38.904Z</time></trkpt><trkpt lat="42.7966208" lon="11.4733276"><ele>597.6666666666666</ele><time>2026-04-02T12:45:39.904Z</time></trkpt><trkpt lat="42.7964219" lon="11.4733003"><ele>598.3333333333333</ele><time>2026-04-02T12:45:40.904Z</time></trkpt><trkpt lat="42.7962223" lon="11.4732152"><ele>599.0</ele><time>2026-04-02T12:45:41.904Z</time></trkpt><trkpt lat="42.7960304" lon="11.4730852"><ele>594.5</ele><time>2026-04-02T12:45:42.904Z</time></trkpt><trkpt lat="42.7958285" lon="11.4729383"><ele>590.0</ele><time>2026-04-02T12:45:43.904Z</time></trkpt><trkpt lat="42.795635" lon="11.4727926"><ele>590.0</ele><time>2026-04-02T12:45:44.904Z</time></trkpt><trkpt lat="42.7954505" lon="11.4726503"><ele>590.0</ele><time>2026-04-02T12:45:45.904Z</time></trkpt><trkpt lat="42.7952746" lon="11.4725157"><ele>590.0</ele><time>2026-04-02T12:45:46.904Z</time></trkpt><trkpt lat="42.7951091" lon="11.4723934"><ele>593.3333333333333</ele><time>2026-04-02T12:45:47.904Z</time></trkpt><trkpt lat="42.7949534" lon="11.4722938"><ele>596.6666666666666</ele><time>2026-04-02T12:45:48.904Z</time></trkpt><trkpt lat="42.794802" lon="11.4722269"><ele>600.0</ele><time>2026-04-02T12:45:49.904Z</time></trkpt><trkpt lat="42.7946563" lon="11.4722135"><ele>600.0</ele><time>2026-04-02T12:45:50.904Z</time></trkpt><trkpt lat="42.7945203" lon="11.4722497"><ele>600.0</ele><time>2026-04-02T12:45:51.904Z</time></trkpt><trkpt lat="42.7943915" lon="11.4723476"><ele>600.0</ele><time>2026-04-02T12:45:52.903Z</time></trkpt><trkpt lat="42.7942629" lon="11.4724845"><ele>600.0</ele><time>2026-04-02T12:45:53.904Z</time></trkpt><trkpt lat="42.7941203" lon="11.4726385"><ele>599.6666666666666</ele><time>2026-04-02T12:45:54.904Z</time></trkpt><trkpt lat="42.7939833" lon="11.4727832"><ele>599.3333333333333</ele><time>2026-04-02T12:45:55.904Z</time></trkpt><trkpt lat="42.7938602" lon="11.4729301"><ele>599.0</ele><time>2026-04-02T12:45:56.904Z</time></trkpt><trkpt lat="42.7937537" lon="11.4731093"><ele>601.3333333333333</ele><time>2026-04-02T12:45:57.904Z</time></trkpt><trkpt lat="42.7936739" lon="11.4733178"><ele>603.6666666666666</ele><time>2026-04-02T12:45:58.904Z</time></trkpt><trkpt lat="42.7936142" lon="11.4735557"><ele>606.0</ele><time>2026-04-02T12:45:59.904Z</time></trkpt><trkpt lat="42.793588" lon="11.4738273"><ele>607.3333333333334</ele><time>2026-04-02T12:46:00.904Z</time></trkpt><trkpt lat="42.7935707" lon="11.4741119"><ele>608.6666666666667</ele><time>2026-04-02T12:46:01.904Z</time></trkpt><trkpt lat="42.7935557" lon="11.4743969"><ele>610.0</ele><time>2026-04-02T12:46:02.904Z</time></trkpt><trkpt lat="42.7935408" lon="11.4746677"><ele>610.6666666666667</ele><time>2026-04-02T12:46:03.904Z</time></trkpt><trkpt lat="42.7935312" lon="11.4749153"><ele>611.3333333333334</ele><time>2026-04-02T12:46:04.904Z</time></trkpt><trkpt lat="42.7935334" lon="11.4751617"><ele>612.0</ele><time>2026-04-02T12:46:05.904Z</time></trkpt><trkpt lat="42.7936033" lon="11.4754089"><ele>611.0</ele><time>2026-04-02T12:46:06.904Z</time></trkpt><trkpt lat="42.793674" lon="11.4756597"><ele>610.0</ele><time>2026-04-02T12:46:07.904Z</time></trkpt><trkpt lat="42.7937483" lon="11.4759208"><ele>609.0</ele><time>2026-04-02T12:46:08.904Z</time></trkpt><trkpt lat="42.7938296" lon="11.4761915"><ele>609.0</ele><time>2026-04-02T12:46:09.903Z</time></trkpt><trkpt lat="42.7939098" lon="11.476457"><ele>609.0</ele><time>2026-04-02T12:46:10.904Z</time></trkpt><trkpt lat="42.7939868" lon="11.4767063"><ele>609.0</ele><time>2026-04-02T12:46:11.904Z</time></trkpt><trkpt lat="42.7940555" lon="11.4769332"><ele>608.3333333333334</ele><time>2026-04-02T12:46:12.904Z</time></trkpt><trkpt lat="42.7941141" lon="11.4771624"><ele>607.6666666666667</ele><time>2026-04-02T12:46:13.904Z</time></trkpt><trkpt lat="42.7941413" lon="11.4773886"><ele>607.0</ele><time>2026-04-02T12:46:14.904Z</time></trkpt><trkpt lat="42.7941389" lon="11.4776144"><ele>607.0</ele><time>2026-04-02T12:46:15.904Z</time></trkpt><trkpt lat="42.7941087" lon="11.4778507"><ele>607.0</ele><time>2026-04-02T12:46:16.904Z</time></trkpt><trkpt lat="42.7940686" lon="11.4781021"><ele>607.0</ele><time>2026-04-02T12:46:17.904Z</time></trkpt><trkpt lat="42.7940246" lon="11.4783634"><ele>608.0</ele><time>2026-04-02T12:46:18.904Z</time></trkpt><trkpt lat="42.7939779" lon="11.4786367"><ele>609.0</ele><time>2026-04-02T12:46:19.904Z</time></trkpt><trkpt lat="42.7939289" lon="11.4789138"><ele>610.0</ele><time>2026-04-02T12:46:20.904Z</time></trkpt><trkpt lat="42.7938793" lon="11.4791923"><ele>611.0</ele><time>2026-04-02T12:46:21.904Z</time></trkpt><trkpt lat="42.7938279" lon="11.4794775"><ele>612.0</ele><time>2026-04-02T12:46:22.904Z</time></trkpt><trkpt lat="42.7937766" lon="11.4797611"><ele>613.0</ele><time>2026-04-02T12:46:23.904Z</time></trkpt><trkpt lat="42.7937225" lon="11.4800452"><ele>614.3333333333334</ele><time>2026-04-02T12:46:24.904Z</time></trkpt><trkpt lat="42.7936677" lon="11.480327"><ele>615.6666666666666</ele><time>2026-04-02T12:46:25.904Z</time></trkpt><trkpt lat="42.7936138" lon="11.4806031"><ele>617.0</ele><time>2026-04-02T12:46:26.904Z</time></trkpt><trkpt lat="42.7935625" lon="11.4808768"><ele>619.3333333333333</ele><time>2026-04-02T12:46:27.904Z</time></trkpt><trkpt lat="42.7935172" lon="11.481148"><ele>621.6666666666666</ele><time>2026-04-02T12:46:28.904Z</time></trkpt><trkpt lat="42.7934697" lon="11.4814099"><ele>624.0</ele><time>2026-04-02T12:46:29.904Z</time></trkpt><trkpt lat="42.7934182" lon="11.4816707"><ele>624.6666666666666</ele><time>2026-04-02T12:46:30.903Z</time></trkpt><trkpt lat="42.7933682" lon="11.4819286"><ele>625.3333333333333</ele><time>2026-04-02T12:46:31.904Z</time></trkpt><trkpt lat="42.7933154" lon="11.4821864"><ele>626.0</ele><time>2026-04-02T12:46:32.903Z</time></trkpt><trkpt lat="42.793265" lon="11.4824513"><ele>627.3333333333333</ele><time>2026-04-02T12:46:33.904Z</time></trkpt><trkpt lat="42.7932157" lon="11.482722"><ele>628.6666666666666</ele><time>2026-04-02T12:46:34.903Z</time></trkpt><trkpt lat="42.7931652" lon="11.4829914"><ele>630.0</ele><time>2026-04-02T12:46:35.904Z</time></trkpt><trkpt lat="42.7931132" lon="11.4832528"><ele>632.0</ele><time>2026-04-02T12:46:36.903Z</time></trkpt><trkpt lat="42.7930639" lon="11.4835164"><ele>634.0</ele><time>2026-04-02T12:46:37.904Z</time></trkpt><trkpt lat="42.7930166" lon="11.4837735"><ele>636.0</ele><time>2026-04-02T12:46:38.904Z</time></trkpt><trkpt lat="42.7929661" lon="11.484026"><ele>637.6666666666666</ele><time>2026-04-02T12:46:39.904Z</time></trkpt><trkpt lat="42.7928951" lon="11.4842743"><ele>639.3333333333333</ele><time>2026-04-02T12:46:40.904Z</time></trkpt><trkpt lat="42.7927945" lon="11.4845049"><ele>641.0</ele><time>2026-04-02T12:46:41.904Z</time></trkpt><trkpt lat="42.7926682" lon="11.4847301"><ele>641.0</ele><time>2026-04-02T12:46:42.904Z</time></trkpt><trkpt lat="42.7925221" lon="11.4849578"><ele>641.0</ele><time>2026-04-02T12:46:43.904Z</time></trkpt><trkpt lat="42.7923659" lon="11.4851921"><ele>646.5</ele><time>2026-04-02T12:46:44.904Z</time></trkpt><trkpt lat="42.7921975" lon="11.48544"><ele>652.0</ele><time>2026-04-02T12:46:45.904Z</time></trkpt><trkpt lat="42.7920205" lon="11.4856979"><ele>648.5</ele><time>2026-04-02T12:46:46.904Z</time></trkpt><trkpt lat="42.7918378" lon="11.4859708"><ele>645.0</ele><time>2026-04-02T12:46:47.904Z</time></trkpt><trkpt lat="42.7916472" lon="11.4862447"><ele>650.0</ele><time>2026-04-02T12:46:48.904Z</time></trkpt><trkpt lat="42.7914727" lon="11.4865006"><ele>655.0</ele><time>2026-04-02T12:46:49.903Z</time></trkpt><trkpt lat="42.7913089" lon="11.4867402"><ele>655.0</ele><time>2026-04-02T12:46:50.903Z</time></trkpt><trkpt lat="42.7911545" lon="11.4869597"><ele>655.0</ele><time>2026-04-02T12:46:51.904Z</time></trkpt><trkpt lat="42.7910071" lon="11.4871456"><ele>655.0</ele><time>2026-04-02T12:46:52.904Z</time></trkpt><trkpt lat="42.790853" lon="11.4872919"><ele>656.0</ele><time>2026-04-02T12:46:53.903Z</time></trkpt><trkpt lat="42.7906796" lon="11.4874033"><ele>657.0</ele><time>2026-04-02T12:46:54.904Z</time></trkpt><trkpt lat="42.7904946" lon="11.4874744"><ele>658.0</ele><time>2026-04-02T12:46:55.904Z</time></trkpt><trkpt lat="42.7903087" lon="11.4874961"><ele>658.0</ele><time>2026-04-02T12:46:56.903Z</time></trkpt><trkpt lat="42.7901166" lon="11.4874709"><ele>658.0</ele><time>2026-04-02T12:46:57.904Z</time></trkpt><trkpt lat="42.7899308" lon="11.4873978"><ele>658.0</ele><time>2026-04-02T12:46:58.904Z</time></trkpt><trkpt lat="42.7897563" lon="11.4872842"><ele>658.0</ele><time>2026-04-02T12:46:59.904Z</time></trkpt><trkpt lat="42.7896009" lon="11.487134"><ele>658.0</ele><time>2026-04-02T12:47:00.904Z</time></trkpt><trkpt lat="42.789473" lon="11.4869493"><ele>658.0</ele><time>2026-04-02T12:47:01.904Z</time></trkpt><trkpt lat="42.7893628" lon="11.4867579"><ele>660.6666666666667</ele><time>2026-04-02T12:47:02.904Z</time></trkpt><trkpt lat="42.7892446" lon="11.4865779"><ele>663.3333333333334</ele><time>2026-04-02T12:47:03.904Z</time></trkpt><trkpt lat="42.7891023" lon="11.4864269"><ele>666.0</ele><time>2026-04-02T12:47:04.904Z</time></trkpt><trkpt lat="42.7889509" lon="11.4863394"><ele>666.0</ele><time>2026-04-02T12:47:05.904Z</time></trkpt><trkpt lat="42.7887733" lon="11.4862866"><ele>666.0</ele><time>2026-04-02T12:47:06.904Z</time></trkpt><trkpt lat="42.7885964" lon="11.4862523"><ele>666.0</ele><time>2026-04-02T12:47:07.904Z</time></trkpt><trkpt lat="42.7884318" lon="11.4862179"><ele>663.5</ele><time>2026-04-02T12:47:08.904Z</time></trkpt><trkpt lat="42.7882746" lon="11.4861911"><ele>661.0</ele><time>2026-04-02T12:47:09.904Z</time></trkpt><trkpt lat="42.7881291" lon="11.4861626"><ele>658.5</ele><time>2026-04-02T12:47:10.904Z</time></trkpt><trkpt lat="42.7879918" lon="11.4861272"><ele>656.0</ele><time>2026-04-02T12:47:11.904Z</time></trkpt><trkpt lat="42.7878523" lon="11.4860746"><ele>656.0</ele><time>2026-04-02T12:47:12.904Z</time></trkpt><trkpt lat="42.787721" lon="11.4860014"><ele>656.0</ele><time>2026-04-02T12:47:13.904Z</time></trkpt><trkpt lat="42.7875888" lon="11.4859305"><ele>656.0</ele><time>2026-04-02T12:47:14.904Z</time></trkpt><trkpt lat="42.7874436" lon="11.4858933"><ele>656.0</ele><time>2026-04-02T12:47:15.904Z</time></trkpt><trkpt lat="42.7873042" lon="11.485879"><ele>657.25</ele><time>2026-04-02T12:47:16.904Z</time></trkpt><trkpt lat="42.7871688" lon="11.4858844"><ele>658.5</ele><time>2026-04-02T12:47:17.904Z</time></trkpt><trkpt lat="42.7870455" lon="11.4859453"><ele>659.75</ele><time>2026-04-02T12:47:18.904Z</time></trkpt><trkpt lat="42.786937" lon="11.48605"><ele>661.0</ele><time>2026-04-02T12:47:19.903Z</time></trkpt><trkpt lat="42.7868377" lon="11.4861973"><ele>664.75</ele><time>2026-04-02T12:47:20.904Z</time></trkpt><trkpt lat="42.7867523" lon="11.4863671"><ele>668.5</ele><time>2026-04-02T12:47:21.904Z</time></trkpt><trkpt lat="42.7866554" lon="11.4865099"><ele>672.25</ele><time>2026-04-02T12:47:22.904Z</time></trkpt><trkpt lat="42.7865424" lon="11.486581"><ele>676.0</ele><time>2026-04-02T12:47:23.904Z</time></trkpt><trkpt lat="42.7864284" lon="11.4865889"><ele>676.0</ele><time>2026-04-02T12:47:24.904Z</time></trkpt><trkpt lat="42.7863254" lon="11.486522"><ele>676.0</ele><time>2026-04-02T12:47:25.904Z</time></trkpt><trkpt lat="42.7862508" lon="11.4863913"><ele>676.0</ele><time>2026-04-02T12:47:26.904Z</time></trkpt><trkpt lat="42.7861953" lon="11.4862264"><ele>676.0</ele><time>2026-04-02T12:47:27.904Z</time></trkpt><trkpt lat="42.7861245" lon="11.4860483"><ele>675.0</ele><time>2026-04-02T12:47:28.904Z</time></trkpt><trkpt lat="42.7860084" lon="11.485872"><ele>674.0</ele><time>2026-04-02T12:47:29.904Z</time></trkpt><trkpt lat="42.7858712" lon="11.4857165"><ele>673.0</ele><time>2026-04-02T12:47:30.904Z</time></trkpt><trkpt lat="42.7857329" lon="11.4855824"><ele>669.3333333333334</ele><time>2026-04-02T12:47:31.904Z</time></trkpt><trkpt lat="42.7856187" lon="11.4854149"><ele>665.6666666666666</ele><time>2026-04-02T12:47:32.904Z</time></trkpt><trkpt lat="42.785535" lon="11.4852341"><ele>662.0</ele><time>2026-04-02T12:47:33.904Z</time></trkpt><trkpt lat="42.7854885" lon="11.4850447"><ele>662.0</ele><time>2026-04-02T12:47:34.904Z</time></trkpt><trkpt lat="42.785455" lon="11.4848702"><ele>662.0</ele><time>2026-04-02T12:47:35.904Z</time></trkpt><trkpt lat="42.7854105" lon="11.4847083"><ele>662.0</ele><time>2026-04-02T12:47:36.904Z</time></trkpt><trkpt lat="42.7853521" lon="11.4845579"><ele>662.0</ele><time>2026-04-02T12:47:37.904Z</time></trkpt><trkpt lat="42.785221" lon="11.4844926"><ele>664.25</ele><time>2026-04-02T12:47:38.904Z</time></trkpt><trkpt lat="42.785096" lon="11.4844374"><ele>666.5</ele><time>2026-04-02T12:47:39.903Z</time></trkpt><trkpt lat="42.7849593" lon="11.4843893"><ele>668.75</ele><time>2026-04-02T12:47:40.904Z</time></trkpt><trkpt lat="42.7848337" lon="11.4843401"><ele>671.0</ele><time>2026-04-02T12:47:41.904Z</time></trkpt><trkpt lat="42.7847139" lon="11.4842902"><ele>671.0</ele><time>2026-04-02T12:47:42.904Z</time></trkpt><trkpt lat="42.7846115" lon="11.4842461"><ele>671.0</ele><time>2026-04-02T12:47:43.904Z</time></trkpt><trkpt lat="42.7845308" lon="11.4842094"><ele>671.0</ele><time>2026-04-02T12:47:44.904Z</time></trkpt><trkpt lat="42.7844613" lon="11.484186"><ele>671.0</ele><time>2026-04-02T12:47:45.904Z</time></trkpt><trkpt lat="42.784378" lon="11.4841495"><ele>671.0</ele><time>2026-04-02T12:47:47.904Z</time></trkpt><trkpt lat="42.7842891" lon="11.4840417"><ele>670.8</ele><time>2026-04-02T12:47:49.904Z</time></trkpt><trkpt lat="42.7842279" lon="11.4839449"><ele>670.5999999999999</ele><time>2026-04-02T12:47:50.904Z</time></trkpt><trkpt lat="42.7841514" lon="11.4838567"><ele>670.4</ele><time>2026-04-02T12:47:51.904Z</time></trkpt><trkpt lat="42.7840493" lon="11.4837751"><ele>670.2</ele><time>2026-04-02T12:47:52.904Z</time></trkpt><trkpt lat="42.7839351" lon="11.4837059"><ele>670.0</ele><time>2026-04-02T12:47:53.904Z</time></trkpt><trkpt lat="42.7838081" lon="11.4836634"><ele>670.0</ele><time>2026-04-02T12:47:54.903Z</time></trkpt><trkpt lat="42.783661" lon="11.4836437"><ele>670.0</ele><time>2026-04-02T12:47:55.904Z</time></trkpt><trkpt lat="42.7835122" lon="11.4836353"><ele>670.0</ele><time>2026-04-02T12:47:56.903Z</time></trkpt><trkpt lat="42.7833648" lon="11.4836138"><ele>670.0</ele><time>2026-04-02T12:47:57.904Z</time></trkpt><trkpt lat="42.7832135" lon="11.4835689"><ele>671.3333333333334</ele><time>2026-04-02T12:47:58.904Z</time></trkpt><trkpt lat="42.7830559" lon="11.4835015"><ele>672.6666666666666</ele><time>2026-04-02T12:47:59.904Z</time></trkpt><trkpt lat="42.7828976" lon="11.4834316"><ele>674.0</ele><time>2026-04-02T12:48:00.903Z</time></trkpt><trkpt lat="42.7827316" lon="11.4833513"><ele>674.0</ele><time>2026-04-02T12:48:01.903Z</time></trkpt><trkpt lat="42.7825609" lon="11.4832628"><ele>674.0</ele><time>2026-04-02T12:48:02.904Z</time></trkpt><trkpt lat="42.7823896" lon="11.4831673"><ele>674.0</ele><time>2026-04-02T12:48:03.904Z</time></trkpt><trkpt lat="42.7822165" lon="11.4830723"><ele>674.0</ele><time>2026-04-02T12:48:04.904Z</time></trkpt><trkpt lat="42.7820436" lon="11.4829757"><ele>674.0</ele><time>2026-04-02T12:48:05.904Z</time></trkpt><trkpt lat="42.781891" lon="11.4828904"><ele>674.0</ele><time>2026-04-02T12:48:06.904Z</time></trkpt><trkpt lat="42.7817415" lon="11.4828092"><ele>673.6666666666666</ele><time>2026-04-02T12:48:07.904Z</time></trkpt><trkpt lat="42.7815791" lon="11.4827509"><ele>673.3333333333334</ele><time>2026-04-02T12:48:08.904Z</time></trkpt><trkpt lat="42.7814041" lon="11.4827302"><ele>673.0</ele><time>2026-04-02T12:48:09.904Z</time></trkpt><trkpt lat="42.7812235" lon="11.4827198"><ele>673.0</ele><time>2026-04-02T12:48:10.904Z</time></trkpt><trkpt lat="42.7810402" lon="11.4826905"><ele>673.0</ele><time>2026-04-02T12:48:11.904Z</time></trkpt><trkpt lat="42.7808495" lon="11.4826205"><ele>673.0</ele><time>2026-04-02T12:48:12.903Z</time></trkpt><trkpt lat="42.7806543" lon="11.4825296"><ele>673.3333333333334</ele><time>2026-04-02T12:48:13.904Z</time></trkpt><trkpt lat="42.780452" lon="11.4824343"><ele>673.6666666666666</ele><time>2026-04-02T12:48:14.904Z</time></trkpt><trkpt lat="42.7802418" lon="11.4823354"><ele>674.0</ele><time>2026-04-02T12:48:15.904Z</time></trkpt><trkpt lat="42.780037" lon="11.4822337"><ele>671.0</ele><time>2026-04-02T12:48:16.904Z</time></trkpt><trkpt lat="42.7798303" lon="11.4821069"><ele>668.0</ele><time>2026-04-02T12:48:17.904Z</time></trkpt><trkpt lat="42.7796272" lon="11.4819676"><ele>668.0</ele><time>2026-04-02T12:48:18.904Z</time></trkpt><trkpt lat="42.7794346" lon="11.4818089"><ele>668.0</ele><time>2026-04-02T12:48:19.904Z</time></trkpt><trkpt lat="42.7792469" lon="11.4816544"><ele>668.0</ele><time>2026-04-02T12:48:20.904Z</time></trkpt><trkpt lat="42.7790755" lon="11.4815071"><ele>668.0</ele><time>2026-04-02T12:48:21.904Z</time></trkpt><trkpt lat="42.7789232" lon="11.4813593"><ele>668.0</ele><time>2026-04-02T12:48:22.904Z</time></trkpt><trkpt lat="42.778793" lon="11.4812027"><ele>668.0</ele><time>2026-04-02T12:48:23.904Z</time></trkpt><trkpt lat="42.7786959" lon="11.4810348"><ele>665.6666666666666</ele><time>2026-04-02T12:48:24.904Z</time></trkpt><trkpt lat="42.7786347" lon="11.4808527"><ele>663.3333333333334</ele><time>2026-04-02T12:48:25.903Z</time></trkpt><trkpt lat="42.7786027" lon="11.4806448"><ele>661.0</ele><time>2026-04-02T12:48:26.903Z</time></trkpt><trkpt lat="42.7785893" lon="11.4804209"><ele>659.3333333333334</ele><time>2026-04-02T12:48:27.904Z</time></trkpt><trkpt lat="42.7785847" lon="11.4801957"><ele>657.6666666666666</ele><time>2026-04-02T12:48:28.904Z</time></trkpt><trkpt lat="42.7785747" lon="11.4799812"><ele>656.0</ele><time>2026-04-02T12:48:29.904Z</time></trkpt><trkpt lat="42.7785514" lon="11.4797709"><ele>660.0</ele><time>2026-04-02T12:48:30.904Z</time></trkpt><trkpt lat="42.7785026" lon="11.4795572"><ele>664.0</ele><time>2026-04-02T12:48:31.904Z</time></trkpt><trkpt lat="42.7784105" lon="11.4793574"><ele>668.0</ele><time>2026-04-02T12:48:32.904Z</time></trkpt><trkpt lat="42.7782883" lon="11.4791733"><ele>668.0</ele><time>2026-04-02T12:48:33.904Z</time></trkpt><trkpt lat="42.7781475" lon="11.4789913"><ele>668.0</ele><time>2026-04-02T12:48:34.904Z</time></trkpt><trkpt lat="42.7780049" lon="11.4788007"><ele>668.0</ele><time>2026-04-02T12:48:35.904Z</time></trkpt><trkpt lat="42.777862" lon="11.4786114"><ele>668.3333333333333</ele><time>2026-04-02T12:48:36.904Z</time></trkpt><trkpt lat="42.7777265" lon="11.4784323"><ele>668.6666666666666</ele><time>2026-04-02T12:48:37.904Z</time></trkpt><trkpt lat="42.7775899" lon="11.4782539"><ele>669.0</ele><time>2026-04-02T12:48:38.904Z</time></trkpt><trkpt lat="42.7774561" lon="11.4780787"><ele>665.6666666666666</ele><time>2026-04-02T12:48:39.903Z</time></trkpt><trkpt lat="42.7773185" lon="11.4779046"><ele>662.3333333333333</ele><time>2026-04-02T12:48:40.904Z</time></trkpt><trkpt lat="42.7771866" lon="11.4777314"><ele>659.0</ele><time>2026-04-02T12:48:41.904Z</time></trkpt><trkpt lat="42.7770545" lon="11.4775578"><ele>659.0</ele><time>2026-04-02T12:48:42.904Z</time></trkpt><trkpt lat="42.7769357" lon="11.4773651"><ele>659.0</ele><time>2026-04-02T12:48:43.904Z</time></trkpt><trkpt lat="42.7768285" lon="11.4771531"><ele>659.0</ele><time>2026-04-02T12:48:44.903Z</time></trkpt><trkpt lat="42.7767291" lon="11.4769225"><ele>659.6666666666666</ele><time>2026-04-02T12:48:45.904Z</time></trkpt><trkpt lat="42.7766347" lon="11.476682"><ele>660.3333333333334</ele><time>2026-04-02T12:48:46.904Z</time></trkpt><trkpt lat="42.77655" lon="11.4764451"><ele>661.0</ele><time>2026-04-02T12:48:47.904Z</time></trkpt><trkpt lat="42.7764646" lon="11.476208"><ele>658.6666666666667</ele><time>2026-04-02T12:48:48.904Z</time></trkpt><trkpt lat="42.7763893" lon="11.4759601"><ele>656.3333333333334</ele><time>2026-04-02T12:48:49.904Z</time></trkpt><trkpt lat="42.7763211" lon="11.4757001"><ele>654.0</ele><time>2026-04-02T12:48:50.904Z</time></trkpt><trkpt lat="42.7762626" lon="11.4754261"><ele>651.6666666666666</ele><time>2026-04-02T12:48:51.904Z</time></trkpt><trkpt lat="42.7762084" lon="11.4751575"><ele>649.3333333333333</ele><time>2026-04-02T12:48:52.904Z</time></trkpt><trkpt lat="42.7761484" lon="11.4748829"><ele>647.0</ele><time>2026-04-02T12:48:53.904Z</time></trkpt><trkpt lat="42.7760822" lon="11.4746062"><ele>648.0</ele><time>2026-04-02T12:48:54.904Z</time></trkpt><trkpt lat="42.7760215" lon="11.4743285"><ele>649.0</ele><time>2026-04-02T12:48:55.903Z</time></trkpt><trkpt lat="42.7759673" lon="11.474054"><ele>650.0</ele><time>2026-04-02T12:48:56.904Z</time></trkpt><trkpt lat="42.7759147" lon="11.4737791"><ele>648.0</ele><time>2026-04-02T12:48:57.904Z</time></trkpt><trkpt lat="42.7758603" lon="11.4735158"><ele>646.0</ele><time>2026-04-02T12:48:58.904Z</time></trkpt><trkpt lat="42.7758101" lon="11.4732556"><ele>644.0</ele><time>2026-04-02T12:48:59.904Z</time></trkpt><trkpt lat="42.7757591" lon="11.4730028"><ele>643.0</ele><time>2026-04-02T12:49:00.904Z</time></trkpt><trkpt lat="42.7757003" lon="11.4727597"><ele>642.0</ele><time>2026-04-02T12:49:01.904Z</time></trkpt><trkpt lat="42.7756236" lon="11.4725179"><ele>641.0</ele><time>2026-04-02T12:49:02.904Z</time></trkpt><trkpt lat="42.7755187" lon="11.4722844"><ele>642.6666666666666</ele><time>2026-04-02T12:49:03.904Z</time></trkpt><trkpt lat="42.7753933" lon="11.4720602"><ele>644.3333333333334</ele><time>2026-04-02T12:49:04.904Z</time></trkpt><trkpt lat="42.7752545" lon="11.4718373"><ele>646.0</ele><time>2026-04-02T12:49:05.903Z</time></trkpt><trkpt lat="42.7751234" lon="11.471614"><ele>647.0</ele><time>2026-04-02T12:49:06.904Z</time></trkpt><trkpt lat="42.7749982" lon="11.4714033"><ele>648.0</ele><time>2026-04-02T12:49:07.904Z</time></trkpt><trkpt lat="42.7748808" lon="11.4712064"><ele>649.0</ele><time>2026-04-02T12:49:08.904Z</time></trkpt><trkpt lat="42.7747783" lon="11.4710231"><ele>651.0</ele><time>2026-04-02T12:49:09.904Z</time></trkpt><trkpt lat="42.7747094" lon="11.4708348"><ele>653.0</ele><time>2026-04-02T12:49:10.904Z</time></trkpt><trkpt lat="42.7746682" lon="11.4706372"><ele>655.0</ele><time>2026-04-02T12:49:11.904Z</time></trkpt><trkpt lat="42.7746695" lon="11.4704466"><ele>657.0</ele><time>2026-04-02T12:49:12.904Z</time></trkpt><trkpt lat="42.7747072" lon="11.4702437"><ele>658.0</ele><time>2026-04-02T12:49:13.904Z</time></trkpt><trkpt lat="42.7747698" lon="11.4700327"><ele>659.0</ele><time>2026-04-02T12:49:14.904Z</time></trkpt><trkpt lat="42.7748464" lon="11.4698255"><ele>660.0</ele><time>2026-04-02T12:49:15.904Z</time></trkpt><trkpt lat="42.7749259" lon="11.469611"><ele>659.3333333333334</ele><time>2026-04-02T12:49:16.904Z</time></trkpt><trkpt lat="42.7750123" lon="11.4693882"><ele>658.6666666666667</ele><time>2026-04-02T12:49:17.904Z</time></trkpt><trkpt lat="42.7750935" lon="11.4691728"><ele>658.0</ele><time>2026-04-02T12:49:18.904Z</time></trkpt><trkpt lat="42.7751722" lon="11.4689809"><ele>662.25</ele><time>2026-04-02T12:49:19.904Z</time></trkpt><trkpt lat="42.7752358" lon="11.4687984"><ele>666.5</ele><time>2026-04-02T12:49:20.904Z</time></trkpt><trkpt lat="42.7752683" lon="11.4686213"><ele>670.75</ele><time>2026-04-02T12:49:21.904Z</time></trkpt><trkpt lat="42.7752593" lon="11.4684503"><ele>675.0</ele><time>2026-04-02T12:49:22.903Z</time></trkpt><trkpt lat="42.7752039" lon="11.4682901"><ele>675.0</ele><time>2026-04-02T12:49:23.904Z</time></trkpt><trkpt lat="42.7751087" lon="11.4681461"><ele>675.0</ele><time>2026-04-02T12:49:24.904Z</time></trkpt><trkpt lat="42.774983" lon="11.4680179"><ele>675.0</ele><time>2026-04-02T12:49:25.904Z</time></trkpt><trkpt lat="42.7748351" lon="11.4679058"><ele>675.0</ele><time>2026-04-02T12:49:26.903Z</time></trkpt><trkpt lat="42.7746793" lon="11.4677883"><ele>675.0</ele><time>2026-04-02T12:49:27.904Z</time></trkpt><trkpt lat="42.7745201" lon="11.4676695"><ele>675.0</ele><time>2026-04-02T12:49:28.903Z</time></trkpt><trkpt lat="42.7743675" lon="11.467541"><ele>675.0</ele><time>2026-04-02T12:49:29.904Z</time></trkpt><trkpt lat="42.7742255" lon="11.4673946"><ele>675.0</ele><time>2026-04-02T12:49:30.904Z</time></trkpt><trkpt lat="42.7741027" lon="11.4672297"><ele>675.0</ele><time>2026-04-02T12:49:31.903Z</time></trkpt><trkpt lat="42.7739833" lon="11.4670468"><ele>675.0</ele><time>2026-04-02T12:49:32.903Z</time></trkpt><trkpt lat="42.7738768" lon="11.4668418"><ele>675.0</ele><time>2026-04-02T12:49:33.904Z</time></trkpt><trkpt lat="42.7737819" lon="11.4666285"><ele>675.0</ele><time>2026-04-02T12:49:34.904Z</time></trkpt><trkpt lat="42.7737016" lon="11.4664248"><ele>676.0</ele><time>2026-04-02T12:49:35.904Z</time></trkpt><trkpt lat="42.7736114" lon="11.4662291"><ele>677.0</ele><time>2026-04-02T12:49:36.904Z</time></trkpt><trkpt lat="42.7734984" lon="11.4660468"><ele>678.0</ele><time>2026-04-02T12:49:37.904Z</time></trkpt><trkpt lat="42.7733577" lon="11.4658815"><ele>678.0</ele><time>2026-04-02T12:49:38.904Z</time></trkpt><trkpt lat="42.7731882" lon="11.4657491"><ele>678.0</ele><time>2026-04-02T12:49:39.903Z</time></trkpt><trkpt lat="42.7730063" lon="11.465626"><ele>678.0</ele><time>2026-04-02T12:49:40.904Z</time></trkpt><trkpt lat="42.7728145" lon="11.4655052"><ele>681.3333333333334</ele><time>2026-04-02T12:49:41.904Z</time></trkpt><trkpt lat="42.7726194" lon="11.4653855"><ele>684.6666666666667</ele><time>2026-04-02T12:49:42.904Z</time></trkpt><trkpt lat="42.7724341" lon="11.4652688"><ele>688.0</ele><time>2026-04-02T12:49:43.904Z</time></trkpt><trkpt lat="42.7722628" lon="11.4651697"><ele>688.0</ele><time>2026-04-02T12:49:44.904Z</time></trkpt><trkpt lat="42.7721067" lon="11.4650814"><ele>688.0</ele><time>2026-04-02T12:49:45.904Z</time></trkpt><trkpt lat="42.7719612" lon="11.4649868"><ele>688.0</ele><time>2026-04-02T12:49:46.904Z</time></trkpt><trkpt lat="42.7718292" lon="11.4648596"><ele>690.0</ele><time>2026-04-02T12:49:47.904Z</time></trkpt><trkpt lat="42.7717034" lon="11.4647084"><ele>692.0</ele><time>2026-04-02T12:49:48.904Z</time></trkpt><trkpt lat="42.7715918" lon="11.4645263"><ele>694.0</ele><time>2026-04-02T12:49:49.904Z</time></trkpt><trkpt lat="42.7714945" lon="11.4643242"><ele>694.0</ele><time>2026-04-02T12:49:50.904Z</time></trkpt><trkpt lat="42.7713985" lon="11.4641213"><ele>694.0</ele><time>2026-04-02T12:49:51.904Z</time></trkpt><trkpt lat="42.7713091" lon="11.4639354"><ele>694.0</ele><time>2026-04-02T12:49:52.904Z</time></trkpt><trkpt lat="42.7712143" lon="11.4637647"><ele>694.0</ele><time>2026-04-02T12:49:53.904Z</time></trkpt><trkpt lat="42.7710954" lon="11.4636186"><ele>694.0</ele><time>2026-04-02T12:49:54.904Z</time></trkpt><trkpt lat="42.7709462" lon="11.4635078"><ele>694.0</ele><time>2026-04-02T12:49:55.903Z</time></trkpt><trkpt lat="42.770776" lon="11.4634341"><ele>694.0</ele><time>2026-04-02T12:49:56.904Z</time></trkpt><trkpt lat="42.7706031" lon="11.463381"><ele>694.0</ele><time>2026-04-02T12:49:57.904Z</time></trkpt><trkpt lat="42.7704464" lon="11.4633194"><ele>694.0</ele><time>2026-04-02T12:49:58.903Z</time></trkpt><trkpt lat="42.7703098" lon="11.4632452"><ele>694.0</ele><time>2026-04-02T12:49:59.904Z</time></trkpt><trkpt lat="42.7701956" lon="11.4631332"><ele>694.0</ele><time>2026-04-02T12:50:00.904Z</time></trkpt><trkpt lat="42.7701086" lon="11.4629796"><ele>694.0</ele><time>2026-04-02T12:50:01.903Z</time></trkpt><trkpt lat="42.7700486" lon="11.4627832"><ele>694.0</ele><time>2026-04-02T12:50:02.903Z</time></trkpt><trkpt lat="42.7700028" lon="11.4625578"><ele>695.0</ele><time>2026-04-02T12:50:03.904Z</time></trkpt><trkpt lat="42.7699536" lon="11.4623236"><ele>696.0</ele><time>2026-04-02T12:50:04.904Z</time></trkpt><trkpt lat="42.7699025" lon="11.4620777"><ele>697.0</ele><time>2026-04-02T12:50:05.904Z</time></trkpt><trkpt lat="42.7698546" lon="11.4618156"><ele>696.3333333333334</ele><time>2026-04-02T12:50:06.904Z</time></trkpt><trkpt lat="42.7698" lon="11.4615391"><ele>695.6666666666666</ele><time>2026-04-02T12:50:07.904Z</time></trkpt><trkpt lat="42.7697417" lon="11.4612549"><ele>695.0</ele><time>2026-04-02T12:50:08.904Z</time></trkpt><trkpt lat="42.7696878" lon="11.4609792"><ele>695.0</ele><time>2026-04-02T12:50:09.904Z</time></trkpt><trkpt lat="42.7696393" lon="11.4607259"><ele>695.0</ele><time>2026-04-02T12:50:10.904Z</time></trkpt><trkpt lat="42.7695891" lon="11.4604984"><ele>695.0</ele><time>2026-04-02T12:50:11.904Z</time></trkpt><trkpt lat="42.7695249" lon="11.4602825"><ele>695.6666666666666</ele><time>2026-04-02T12:50:12.903Z</time></trkpt><trkpt lat="42.7694196" lon="11.460101"><ele>696.3333333333334</ele><time>2026-04-02T12:50:13.903Z</time></trkpt><trkpt lat="42.7692836" lon="11.4599492"><ele>697.0</ele><time>2026-04-02T12:50:14.904Z</time></trkpt><trkpt lat="42.7691155" lon="11.4598231"><ele>698.3333333333334</ele><time>2026-04-02T12:50:15.904Z</time></trkpt><trkpt lat="42.7689362" lon="11.4596966"><ele>699.6666666666666</ele><time>2026-04-02T12:50:16.903Z</time></trkpt><trkpt lat="42.7687649" lon="11.4595646"><ele>701.0</ele><time>2026-04-02T12:50:17.904Z</time></trkpt><trkpt lat="42.7686072" lon="11.4594152"><ele>701.6666666666666</ele><time>2026-04-02T12:50:18.904Z</time></trkpt><trkpt lat="42.7684607" lon="11.4592318"><ele>702.3333333333334</ele><time>2026-04-02T12:50:19.904Z</time></trkpt><trkpt lat="42.7683238" lon="11.4590198"><ele>703.0</ele><time>2026-04-02T12:50:20.904Z</time></trkpt><trkpt lat="42.7681942" lon="11.4587794"><ele>707.0</ele><time>2026-04-02T12:50:21.904Z</time></trkpt><trkpt lat="42.7680785" lon="11.4585764"><ele>711.0</ele><time>2026-04-02T12:50:22.904Z</time></trkpt><trkpt lat="42.7679761" lon="11.4583946"><ele>715.0</ele><time>2026-04-02T12:50:23.904Z</time></trkpt><trkpt lat="42.7678807" lon="11.4582499"><ele>715.0</ele><time>2026-04-02T12:50:24.904Z</time></trkpt><trkpt lat="42.7677703" lon="11.458138"><ele>715.0</ele><time>2026-04-02T12:50:25.904Z</time></trkpt><trkpt lat="42.7676471" lon="11.4580765"><ele>715.0</ele><time>2026-04-02T12:50:26.904Z</time></trkpt><trkpt lat="42.7675231" lon="11.4580684"><ele>715.0</ele><time>2026-04-02T12:50:27.904Z</time></trkpt><trkpt lat="42.7674124" lon="11.4581126"><ele>713.5</ele><time>2026-04-02T12:50:28.904Z</time></trkpt><trkpt lat="42.7673045" lon="11.4581763"><ele>712.0</ele><time>2026-04-02T12:50:29.904Z</time></trkpt><trkpt lat="42.7672184" lon="11.4583193"><ele>710.5</ele><time>2026-04-02T12:50:30.904Z</time></trkpt><trkpt lat="42.7671427" lon="11.4584761"><ele>709.0</ele><time>2026-04-02T12:50:31.904Z</time></trkpt><trkpt lat="42.7670729" lon="11.4586697"><ele>710.0</ele><time>2026-04-02T12:50:32.904Z</time></trkpt><trkpt lat="42.7670188" lon="11.4588805"><ele>711.0</ele><time>2026-04-02T12:50:33.904Z</time></trkpt><trkpt lat="42.7669147" lon="11.4590324"><ele>712.0</ele><time>2026-04-02T12:50:34.904Z</time></trkpt><trkpt lat="42.7667849" lon="11.4591632"><ele>712.0</ele><time>2026-04-02T12:50:35.904Z</time></trkpt><trkpt lat="42.7666301" lon="11.4592648"><ele>712.0</ele><time>2026-04-02T12:50:36.903Z</time></trkpt><trkpt lat="42.7664792" lon="11.4593545"><ele>712.0</ele><time>2026-04-02T12:50:37.904Z</time></trkpt><trkpt lat="42.7663388" lon="11.4594263"><ele>712.0</ele><time>2026-04-02T12:50:38.903Z</time></trkpt><trkpt lat="42.7661889" lon="11.4594486"><ele>712.0</ele><time>2026-04-02T12:50:39.904Z</time></trkpt><trkpt lat="42.7660397" lon="11.4594258"><ele>712.0</ele><time>2026-04-02T12:50:40.904Z</time></trkpt><trkpt lat="42.7658845" lon="11.4593486"><ele>711.0</ele><time>2026-04-02T12:50:41.903Z</time></trkpt><trkpt lat="42.7657181" lon="11.4592356"><ele>710.0</ele><time>2026-04-02T12:50:42.904Z</time></trkpt><trkpt lat="42.7655469" lon="11.4591177"><ele>709.0</ele><time>2026-04-02T12:50:43.904Z</time></trkpt><trkpt lat="42.7653551" lon="11.4589801"><ele>709.0</ele><time>2026-04-02T12:50:44.904Z</time></trkpt><trkpt lat="42.7651568" lon="11.4588378"><ele>709.0</ele><time>2026-04-02T12:50:45.903Z</time></trkpt><trkpt lat="42.7649698" lon="11.4587027"><ele>709.0</ele><time>2026-04-02T12:50:46.904Z</time></trkpt><trkpt lat="42.7647986" lon="11.4585731"><ele>709.0</ele><time>2026-04-02T12:50:47.904Z</time></trkpt><trkpt lat="42.7646361" lon="11.4584739"><ele>709.0</ele><time>2026-04-02T12:50:48.904Z</time></trkpt><trkpt lat="42.7644812" lon="11.4584243"><ele>709.0</ele><time>2026-04-02T12:50:49.904Z</time></trkpt><trkpt lat="42.7643288" lon="11.4584187"><ele>708.0</ele><time>2026-04-02T12:50:50.904Z</time></trkpt><trkpt lat="42.764182" lon="11.4584309"><ele>707.0</ele><time>2026-04-02T12:50:51.903Z</time></trkpt><trkpt lat="42.7640056" lon="11.4586125"><ele>706.0</ele><time>2026-04-02T12:50:52.904Z</time></trkpt><trkpt lat="42.7638423" lon="11.4587534"><ele>705.3333333333334</ele><time>2026-04-02T12:50:53.904Z</time></trkpt><trkpt lat="42.7636719" lon="11.4589159"><ele>704.6666666666666</ele><time>2026-04-02T12:50:54.904Z</time></trkpt><trkpt lat="42.7635081" lon="11.4590591"><ele>704.0</ele><time>2026-04-02T12:50:55.904Z</time></trkpt><trkpt lat="42.7633432" lon="11.4591848"><ele>704.0</ele><time>2026-04-02T12:50:56.904Z</time></trkpt><trkpt lat="42.7631674" lon="11.4592747"><ele>704.0</ele><time>2026-04-02T12:50:57.904Z</time></trkpt><trkpt lat="42.7629907" lon="11.4593133"><ele>704.0</ele><time>2026-04-02T12:50:58.904Z</time></trkpt><trkpt lat="42.7628017" lon="11.4593065"><ele>702.3333333333333</ele><time>2026-04-02T12:50:59.904Z</time></trkpt><trkpt lat="42.762593" lon="11.4592627"><ele>700.6666666666666</ele><time>2026-04-02T12:51:00.904Z</time></trkpt><trkpt lat="42.7623739" lon="11.4592234"><ele>699.0</ele><time>2026-04-02T12:51:01.904Z</time></trkpt><trkpt lat="42.7621427" lon="11.4591772"><ele>699.0</ele><time>2026-04-02T12:51:02.904Z</time></trkpt><trkpt lat="42.7619131" lon="11.4591285"><ele>699.0</ele><time>2026-04-02T12:51:03.904Z</time></trkpt><trkpt lat="42.7616978" lon="11.4590935"><ele>699.0</ele><time>2026-04-02T12:51:04.904Z</time></trkpt><trkpt lat="42.7614938" lon="11.4590613"><ele>698.6666666666666</ele><time>2026-04-02T12:51:05.904Z</time></trkpt><trkpt lat="42.7612975" lon="11.4590543"><ele>698.3333333333333</ele><time>2026-04-02T12:51:06.904Z</time></trkpt><trkpt lat="42.7611028" lon="11.45908"><ele>698.0</ele><time>2026-04-02T12:51:07.904Z</time></trkpt><trkpt lat="42.7608986" lon="11.4591419"><ele>697.0</ele><time>2026-04-02T12:51:08.904Z</time></trkpt><trkpt lat="42.760699" lon="11.4592462"><ele>696.0</ele><time>2026-04-02T12:51:09.904Z</time></trkpt><trkpt lat="42.7604961" lon="11.4593837"><ele>695.0</ele><time>2026-04-02T12:51:10.904Z</time></trkpt><trkpt lat="42.7602965" lon="11.4595555"><ele>692.0</ele><time>2026-04-02T12:51:11.904Z</time></trkpt><trkpt lat="42.7600938" lon="11.4597473"><ele>689.0</ele><time>2026-04-02T12:51:12.904Z</time></trkpt><trkpt lat="42.7598931" lon="11.4599328"><ele>689.0</ele><time>2026-04-02T12:51:13.904Z</time></trkpt><trkpt lat="42.7597061" lon="11.4601082"><ele>689.0</ele><time>2026-04-02T12:51:14.904Z</time></trkpt><trkpt lat="42.759532" lon="11.4602664"><ele>689.0</ele><time>2026-04-02T12:51:15.904Z</time></trkpt><trkpt lat="42.7593505" lon="11.460412"><ele>682.0</ele><time>2026-04-02T12:51:16.904Z</time></trkpt><trkpt lat="42.7591453" lon="11.4605284"><ele>675.0</ele><time>2026-04-02T12:51:17.904Z</time></trkpt><trkpt lat="42.7589195" lon="11.4606336"><ele>675.0</ele><time>2026-04-02T12:51:18.903Z</time></trkpt><trkpt lat="42.758684" lon="11.4607247"><ele>675.0</ele><time>2026-04-02T12:51:19.903Z</time></trkpt><trkpt lat="42.7584666" lon="11.4608098"><ele>675.0</ele><time>2026-04-02T12:51:20.904Z</time></trkpt><trkpt lat="42.7582677" lon="11.4608962"><ele>675.0</ele><time>2026-04-02T12:51:21.904Z</time></trkpt><trkpt lat="42.7580874" lon="11.4609675"><ele>675.0</ele><time>2026-04-02T12:51:22.904Z</time></trkpt><trkpt lat="42.7579108" lon="11.4610019"><ele>675.0</ele><time>2026-04-02T12:51:23.904Z</time></trkpt><trkpt lat="42.7577254" lon="11.4609857"><ele>675.0</ele><time>2026-04-02T12:51:24.904Z</time></trkpt><trkpt lat="42.7575432" lon="11.4609161"><ele>675.0</ele><time>2026-04-02T12:51:25.904Z</time></trkpt><trkpt lat="42.7573623" lon="11.4607772"><ele>672.6666666666666</ele><time>2026-04-02T12:51:26.904Z</time></trkpt><trkpt lat="42.7571865" lon="11.4605935"><ele>670.3333333333333</ele><time>2026-04-02T12:51:27.904Z</time></trkpt><trkpt lat="42.7570095" lon="11.4603986"><ele>668.0</ele><time>2026-04-02T12:51:28.904Z</time></trkpt><trkpt lat="42.7568443" lon="11.4602086"><ele>666.6666666666666</ele><time>2026-04-02T12:51:29.904Z</time></trkpt><trkpt lat="42.7566888" lon="11.4600347"><ele>665.3333333333334</ele><time>2026-04-02T12:51:30.904Z</time></trkpt><trkpt lat="42.7565459" lon="11.4598751"><ele>664.0</ele><time>2026-04-02T12:51:31.904Z</time></trkpt><trkpt lat="42.7564079" lon="11.4597299"><ele>661.6666666666667</ele><time>2026-04-02T12:51:32.904Z</time></trkpt><trkpt lat="42.7562529" lon="11.4596119"><ele>659.3333333333334</ele><time>2026-04-02T12:51:33.904Z</time></trkpt><trkpt lat="42.7560895" lon="11.4595378"><ele>657.0</ele><time>2026-04-02T12:51:34.904Z</time></trkpt><trkpt lat="42.755914" lon="11.459509"><ele>656.3333333333334</ele><time>2026-04-02T12:51:35.904Z</time></trkpt><trkpt lat="42.7557326" lon="11.4595377"><ele>655.6666666666667</ele><time>2026-04-02T12:51:36.904Z</time></trkpt><trkpt lat="42.7555318" lon="11.4596245"><ele>655.0</ele><time>2026-04-02T12:51:37.904Z</time></trkpt><trkpt lat="42.7553226" lon="11.4597336"><ele>654.0</ele><time>2026-04-02T12:51:38.904Z</time></trkpt><trkpt lat="42.7551228" lon="11.4598532"><ele>653.0</ele><time>2026-04-02T12:51:39.904Z</time></trkpt><trkpt lat="42.7549322" lon="11.4599681"><ele>652.0</ele><time>2026-04-02T12:51:40.904Z</time></trkpt><trkpt lat="42.754749" lon="11.4600714"><ele>652.0</ele><time>2026-04-02T12:51:41.904Z</time></trkpt><trkpt lat="42.7545724" lon="11.4601518"><ele>652.0</ele><time>2026-04-02T12:51:42.904Z</time></trkpt><trkpt lat="42.7543991" lon="11.4601917"><ele>652.0</ele><time>2026-04-02T12:51:43.904Z</time></trkpt><trkpt lat="42.7542296" lon="11.4601793"><ele>649.6666666666667</ele><time>2026-04-02T12:51:44.903Z</time></trkpt><trkpt lat="42.7540721" lon="11.4601039"><ele>647.3333333333334</ele><time>2026-04-02T12:51:45.904Z</time></trkpt><trkpt lat="42.7539374" lon="11.4599685"><ele>645.0</ele><time>2026-04-02T12:51:46.904Z</time></trkpt><trkpt lat="42.75383" lon="11.459775"><ele>642.6666666666666</ele><time>2026-04-02T12:51:47.904Z</time></trkpt><trkpt lat="42.7537433" lon="11.4595385"><ele>640.3333333333333</ele><time>2026-04-02T12:51:48.903Z</time></trkpt><trkpt lat="42.7536608" lon="11.459291"><ele>638.0</ele><time>2026-04-02T12:51:49.904Z</time></trkpt><trkpt lat="42.7535845" lon="11.4590729"><ele>637.3333333333333</ele><time>2026-04-02T12:51:50.903Z</time></trkpt><trkpt lat="42.7535036" lon="11.4588679"><ele>636.6666666666666</ele><time>2026-04-02T12:51:51.904Z</time></trkpt><trkpt lat="42.7534151" lon="11.4586904"><ele>636.0</ele><time>2026-04-02T12:51:52.904Z</time></trkpt><trkpt lat="42.7532954" lon="11.4585262"><ele>636.0</ele><time>2026-04-02T12:51:53.904Z</time></trkpt><trkpt lat="42.75315" lon="11.4583952"><ele>636.0</ele><time>2026-04-02T12:51:54.904Z</time></trkpt><trkpt lat="42.7529875" lon="11.4582908"><ele>636.0</ele><time>2026-04-02T12:51:55.904Z</time></trkpt><trkpt lat="42.7528208" lon="11.4581953"><ele>637.3333333333334</ele><time>2026-04-02T12:51:56.904Z</time></trkpt><trkpt lat="42.7525925" lon="11.4581542"><ele>638.6666666666667</ele><time>2026-04-02T12:51:57.904Z</time></trkpt><trkpt lat="42.7523853" lon="11.4581052"><ele>640.0</ele><time>2026-04-02T12:51:58.904Z</time></trkpt><trkpt lat="42.7521842" lon="11.4580688"><ele>640.0</ele><time>2026-04-02T12:51:59.904Z</time></trkpt><trkpt lat="42.7520029" lon="11.458023"><ele>640.0</ele><time>2026-04-02T12:52:00.904Z</time></trkpt><trkpt lat="42.7518339" lon="11.4579879"><ele>640.0</ele><time>2026-04-02T12:52:01.903Z</time></trkpt><trkpt lat="42.7516758" lon="11.4579753"><ele>639.75</ele><time>2026-04-02T12:52:02.904Z</time></trkpt><trkpt lat="42.7515239" lon="11.45799"><ele>639.5</ele><time>2026-04-02T12:52:03.904Z</time></trkpt><trkpt lat="42.751383" lon="11.4580298"><ele>639.25</ele><time>2026-04-02T12:52:04.904Z</time></trkpt><trkpt lat="42.7512591" lon="11.4580714"><ele>639.0</ele><time>2026-04-02T12:52:05.904Z</time></trkpt><trkpt lat="42.7511461" lon="11.4581217"><ele>639.0</ele><time>2026-04-02T12:52:06.903Z</time></trkpt><trkpt lat="42.7510488" lon="11.4581677"><ele>639.0</ele><time>2026-04-02T12:52:07.904Z</time></trkpt><trkpt lat="42.7509618" lon="11.4582033"><ele>639.0</ele><time>2026-04-02T12:52:08.903Z</time></trkpt><trkpt lat="42.7508925" lon="11.4582465"><ele>639.0</ele><time>2026-04-02T12:52:09.904Z</time></trkpt><trkpt lat="42.750836" lon="11.4583093"><ele>639.0</ele><time>2026-04-02T12:52:10.904Z</time></trkpt><trkpt lat="42.7508098" lon="11.4583948"><ele>639.0</ele><time>2026-04-02T12:52:11.904Z</time></trkpt><trkpt lat="42.7507843" lon="11.4584872"><ele>637.0</ele><time>2026-04-02T12:52:12.904Z</time></trkpt><trkpt lat="42.7508298" lon="11.4586141"><ele>635.0</ele><time>2026-04-02T12:52:13.904Z</time></trkpt><trkpt lat="42.7508697" lon="11.4587504"><ele>633.0</ele><time>2026-04-02T12:52:14.904Z</time></trkpt><trkpt lat="42.7508903" lon="11.4589168"><ele>631.0</ele><time>2026-04-02T12:52:15.904Z</time></trkpt><trkpt lat="42.7508794" lon="11.4590909"><ele>630.75</ele><time>2026-04-02T12:52:16.904Z</time></trkpt><trkpt lat="42.7508674" lon="11.4592658"><ele>630.5</ele><time>2026-04-02T12:52:17.904Z</time></trkpt><trkpt lat="42.7508703" lon="11.4594266"><ele>630.25</ele><time>2026-04-02T12:52:18.904Z</time></trkpt><trkpt lat="42.7508934" lon="11.4595864"><ele>630.0</ele><time>2026-04-02T12:52:19.904Z</time></trkpt><trkpt lat="42.7509412" lon="11.4597375"><ele>628.5</ele><time>2026-04-02T12:52:20.904Z</time></trkpt><trkpt lat="42.7509975" lon="11.45987"><ele>627.0</ele><time>2026-04-02T12:52:21.903Z</time></trkpt><trkpt lat="42.7510484" lon="11.4600092"><ele>625.5</ele><time>2026-04-02T12:52:22.904Z</time></trkpt><trkpt lat="42.7510719" lon="11.4601856"><ele>624.0</ele><time>2026-04-02T12:52:23.904Z</time></trkpt><trkpt lat="42.7510912" lon="11.4603473"><ele>626.75</ele><time>2026-04-02T12:52:24.904Z</time></trkpt><trkpt lat="42.7511184" lon="11.4605118"><ele>629.5</ele><time>2026-04-02T12:52:25.904Z</time></trkpt><trkpt lat="42.7511714" lon="11.4606859"><ele>632.25</ele><time>2026-04-02T12:52:26.904Z</time></trkpt><trkpt lat="42.751207" lon="11.4608616"><ele>635.0</ele><time>2026-04-02T12:52:27.904Z</time></trkpt><trkpt lat="42.751244" lon="11.4610286"><ele>635.0</ele><time>2026-04-02T12:52:28.904Z</time></trkpt><trkpt lat="42.7512662" lon="11.4611916"><ele>635.0</ele><time>2026-04-02T12:52:29.904Z</time></trkpt><trkpt lat="42.7512485" lon="11.4613421"><ele>635.0</ele><time>2026-04-02T12:52:30.904Z</time></trkpt><trkpt lat="42.7511959" lon="11.4614905"><ele>635.0</ele><time>2026-04-02T12:52:31.904Z</time></trkpt><trkpt lat="42.7511426" lon="11.4616493"><ele>634.75</ele><time>2026-04-02T12:52:32.904Z</time></trkpt><trkpt lat="42.7511039" lon="11.4618265"><ele>634.5</ele><time>2026-04-02T12:52:33.904Z</time></trkpt><trkpt lat="42.7510721" lon="11.4620007"><ele>634.25</ele><time>2026-04-02T12:52:34.904Z</time></trkpt><trkpt lat="42.7510389" lon="11.4621646"><ele>634.0</ele><time>2026-04-02T12:52:35.904Z</time></trkpt><trkpt lat="42.750981" lon="11.4623105"><ele>630.0</ele><time>2026-04-02T12:52:36.904Z</time></trkpt><trkpt lat="42.7509068" lon="11.4624345"><ele>626.0</ele><time>2026-04-02T12:52:37.904Z</time></trkpt><trkpt lat="42.7508191" lon="11.4625389"><ele>622.0</ele><time>2026-04-02T12:52:38.904Z</time></trkpt><trkpt lat="42.7507199" lon="11.4626146"><ele>618.0</ele><time>2026-04-02T12:52:39.904Z</time></trkpt><trkpt lat="42.7506332" lon="11.4626942"><ele>618.0</ele><time>2026-04-02T12:52:40.903Z</time></trkpt><trkpt lat="42.7505617" lon="11.4627958"><ele>618.0</ele><time>2026-04-02T12:52:41.904Z</time></trkpt><trkpt lat="42.7505012" lon="11.462903"><ele>618.0</ele><time>2026-04-02T12:52:42.904Z</time></trkpt><trkpt lat="42.7504529" lon="11.4630264"><ele>618.0</ele><time>2026-04-02T12:52:43.904Z</time></trkpt><trkpt lat="42.7504111" lon="11.4631506"><ele>618.0</ele><time>2026-04-02T12:52:44.904Z</time></trkpt><trkpt lat="42.7503772" lon="11.4632771"><ele>619.6</ele><time>2026-04-02T12:52:45.904Z</time></trkpt><trkpt lat="42.7503431" lon="11.4634044"><ele>621.1999999999999</ele><time>2026-04-02T12:52:46.903Z</time></trkpt><trkpt lat="42.7502871" lon="11.4635352"><ele>622.8</ele><time>2026-04-02T12:52:47.904Z</time></trkpt><trkpt lat="42.7502148" lon="11.4636353"><ele>624.4</ele><time>2026-04-02T12:52:48.904Z</time></trkpt><trkpt lat="42.7501454" lon="11.4637204"><ele>626.0</ele><time>2026-04-02T12:52:49.904Z</time></trkpt><trkpt lat="42.7500889" lon="11.4638284"><ele>622.0</ele><time>2026-04-02T12:52:50.904Z</time></trkpt><trkpt lat="42.750051" lon="11.4639673"><ele>618.0</ele><time>2026-04-02T12:52:51.904Z</time></trkpt><trkpt lat="42.7500318" lon="11.4641338"><ele>614.0</ele><time>2026-04-02T12:52:52.904Z</time></trkpt><trkpt lat="42.7500242" lon="11.464307"><ele>610.0</ele><time>2026-04-02T12:52:53.904Z</time></trkpt><trkpt lat="42.7500315" lon="11.4644591"><ele>610.0</ele><time>2026-04-02T12:52:54.904Z</time></trkpt><trkpt lat="42.7500547" lon="11.4645959"><ele>610.0</ele><time>2026-04-02T12:52:55.904Z</time></trkpt><trkpt lat="42.7501055" lon="11.4647316"><ele>610.0</ele><time>2026-04-02T12:52:56.904Z</time></trkpt><trkpt lat="42.7501773" lon="11.4648561"><ele>610.0</ele><time>2026-04-02T12:52:57.903Z</time></trkpt><trkpt lat="42.7502641" lon="11.4649608"><ele>610.0</ele><time>2026-04-02T12:52:58.904Z</time></trkpt><trkpt lat="42.750339" lon="11.4650515"><ele>613.8</ele><time>2026-04-02T12:52:59.904Z</time></trkpt><trkpt lat="42.7503883" lon="11.4651602"><ele>617.6</ele><time>2026-04-02T12:53:00.904Z</time></trkpt><trkpt lat="42.7503971" lon="11.4652764"><ele>621.4</ele><time>2026-04-02T12:53:01.904Z</time></trkpt><trkpt lat="42.750343" lon="11.4654547"><ele>625.2</ele><time>2026-04-02T12:53:03.904Z</time></trkpt><trkpt lat="42.7502898" lon="11.4655491"><ele>629.0</ele><time>2026-04-02T12:53:04.904Z</time></trkpt><trkpt lat="42.7502246" lon="11.4656436"><ele>626.8333333333333</ele><time>2026-04-02T12:53:05.904Z</time></trkpt><trkpt lat="42.7501535" lon="11.4657345"><ele>624.6666666666666</ele><time>2026-04-02T12:53:06.904Z</time></trkpt><trkpt lat="42.7500898" lon="11.4658132"><ele>622.5</ele><time>2026-04-02T12:53:07.904Z</time></trkpt><trkpt lat="42.7500344" lon="11.4658974"><ele>620.3333333333334</ele><time>2026-04-02T12:53:08.904Z</time></trkpt><trkpt lat="42.7499886" lon="11.465993"><ele>618.1666666666667</ele><time>2026-04-02T12:53:09.904Z</time></trkpt><trkpt lat="42.7499593" lon="11.4661058"><ele>616.0</ele><time>2026-04-02T12:53:10.904Z</time></trkpt><trkpt lat="42.7499462" lon="11.4662209"><ele>617.2</ele><time>2026-04-02T12:53:11.903Z</time></trkpt><trkpt lat="42.7499517" lon="11.46634"><ele>618.4000000000001</ele><time>2026-04-02T12:53:12.904Z</time></trkpt><trkpt lat="42.7499677" lon="11.466461"><ele>619.6</ele><time>2026-04-02T12:53:13.903Z</time></trkpt><trkpt lat="42.7499923" lon="11.4665734"><ele>620.8000000000001</ele><time>2026-04-02T12:53:14.904Z</time></trkpt><trkpt lat="42.7500291" lon="11.4667159"><ele>622.0</ele><time>2026-04-02T12:53:15.904Z</time></trkpt><trkpt lat="42.7500732" lon="11.4668678"><ele>622.0</ele><time>2026-04-02T12:53:16.904Z</time></trkpt><trkpt lat="42.7501091" lon="11.467029"><ele>622.0</ele><time>2026-04-02T12:53:17.904Z</time></trkpt><trkpt lat="42.7501369" lon="11.4671983"><ele>622.0</ele><time>2026-04-02T12:53:18.904Z</time></trkpt><trkpt lat="42.7501543" lon="11.4673485"><ele>622.0</ele><time>2026-04-02T12:53:19.904Z</time></trkpt><trkpt lat="42.7501849" lon="11.4674807"><ele>621.4</ele><time>2026-04-02T12:53:20.904Z</time></trkpt><trkpt lat="42.7502253" lon="11.4676069"><ele>620.8000000000001</ele><time>2026-04-02T12:53:21.904Z</time></trkpt><trkpt lat="42.7502693" lon="11.4677212"><ele>620.2</ele><time>2026-04-02T12:53:22.904Z</time></trkpt><trkpt lat="42.7503163" lon="11.4678326"><ele>619.6</ele><time>2026-04-02T12:53:23.904Z</time></trkpt><trkpt lat="42.7503532" lon="11.4679672"><ele>619.0</ele><time>2026-04-02T12:53:24.904Z</time></trkpt><trkpt lat="42.7503603" lon="11.4681127"><ele>619.0</ele><time>2026-04-02T12:53:25.904Z</time></trkpt><trkpt lat="42.7503384" lon="11.4682492"><ele>619.0</ele><time>2026-04-02T12:53:26.904Z</time></trkpt><trkpt lat="42.7502931" lon="11.4683828"><ele>619.0</ele><time>2026-04-02T12:53:27.904Z</time></trkpt><trkpt lat="42.7502382" lon="11.4685174"><ele>619.0</ele><time>2026-04-02T12:53:28.904Z</time></trkpt><trkpt lat="42.7501802" lon="11.4686613"><ele>619.0</ele><time>2026-04-02T12:53:29.904Z</time></trkpt><trkpt lat="42.7501283" lon="11.468827"><ele>620.5</ele><time>2026-04-02T12:53:30.904Z</time></trkpt><trkpt lat="42.750093" lon="11.4690081"><ele>622.0</ele><time>2026-04-02T12:53:31.904Z</time></trkpt><trkpt lat="42.7500685" lon="11.4691938"><ele>623.5</ele><time>2026-04-02T12:53:32.904Z</time></trkpt><trkpt lat="42.7500408" lon="11.4693739"><ele>625.0</ele><time>2026-04-02T12:53:33.904Z</time></trkpt><trkpt lat="42.7500075" lon="11.4695404"><ele>624.5</ele><time>2026-04-02T12:53:34.904Z</time></trkpt><trkpt lat="42.7499715" lon="11.4697084"><ele>624.0</ele><time>2026-04-02T12:53:35.904Z</time></trkpt><trkpt lat="42.749935" lon="11.4698606"><ele>623.5</ele><time>2026-04-02T12:53:36.904Z</time></trkpt><trkpt lat="42.749906" lon="11.4700098"><ele>623.0</ele><time>2026-04-02T12:53:37.903Z</time></trkpt><trkpt lat="42.7498868" lon="11.4701632"><ele>623.0</ele><time>2026-04-02T12:53:38.904Z</time></trkpt><trkpt lat="42.7498816" lon="11.4703285"><ele>623.0</ele><time>2026-04-02T12:53:39.904Z</time></trkpt><trkpt lat="42.7498841" lon="11.4704807"><ele>623.0</ele><time>2026-04-02T12:53:40.904Z</time></trkpt><trkpt lat="42.7498796" lon="11.4706307"><ele>623.0</ele><time>2026-04-02T12:53:41.904Z</time></trkpt><trkpt lat="42.7498627" lon="11.4707773"><ele>622.75</ele><time>2026-04-02T12:53:42.903Z</time></trkpt><trkpt lat="42.7498277" lon="11.4709245"><ele>622.5</ele><time>2026-04-02T12:53:43.904Z</time></trkpt><trkpt lat="42.7497853" lon="11.4710834"><ele>622.25</ele><time>2026-04-02T12:53:44.904Z</time></trkpt><trkpt lat="42.7497431" lon="11.471259"><ele>622.0</ele><time>2026-04-02T12:53:45.904Z</time></trkpt><trkpt lat="42.7496978" lon="11.4714245"><ele>621.25</ele><time>2026-04-02T12:53:46.904Z</time></trkpt><trkpt lat="42.7496484" lon="11.4715892"><ele>620.5</ele><time>2026-04-02T12:53:47.904Z</time></trkpt><trkpt lat="42.749586" lon="11.4717568"><ele>619.75</ele><time>2026-04-02T12:53:48.904Z</time></trkpt><trkpt lat="42.7495154" lon="11.4719147"><ele>619.0</ele><time>2026-04-02T12:53:49.904Z</time></trkpt><trkpt lat="42.7494401" lon="11.4720576"><ele>619.75</ele><time>2026-04-02T12:53:50.904Z</time></trkpt><trkpt lat="42.7493596" lon="11.4722008"><ele>620.5</ele><time>2026-04-02T12:53:51.904Z</time></trkpt><trkpt lat="42.7492722" lon="11.4723451"><ele>621.25</ele><time>2026-04-02T12:53:52.904Z</time></trkpt><trkpt lat="42.7491829" lon="11.4724903"><ele>622.0</ele><time>2026-04-02T12:53:53.904Z</time></trkpt><trkpt lat="42.7490986" lon="11.4726532"><ele>622.0</ele><time>2026-04-02T12:53:54.904Z</time></trkpt><trkpt lat="42.7490196" lon="11.4728259"><ele>622.0</ele><time>2026-04-02T12:53:55.903Z</time></trkpt><trkpt lat="42.7489394" lon="11.4730023"><ele>622.0</ele><time>2026-04-02T12:53:56.904Z</time></trkpt><trkpt lat="42.7488549" lon="11.4731607"><ele>622.0</ele><time>2026-04-02T12:53:57.904Z</time></trkpt><trkpt lat="42.7487668" lon="11.4733231"><ele>620.25</ele><time>2026-04-02T12:53:58.904Z</time></trkpt><trkpt lat="42.7486792" lon="11.4734767"><ele>618.5</ele><time>2026-04-02T12:53:59.904Z</time></trkpt><trkpt lat="42.7485941" lon="11.473619"><ele>616.75</ele><time>2026-04-02T12:54:00.904Z</time></trkpt><trkpt lat="42.7485138" lon="11.4737642"><ele>615.0</ele><time>2026-04-02T12:54:01.904Z</time></trkpt><trkpt lat="42.7484327" lon="11.4739003"><ele>615.0</ele><time>2026-04-02T12:54:02.904Z</time></trkpt><trkpt lat="42.7483408" lon="11.4740328"><ele>615.0</ele><time>2026-04-02T12:54:03.904Z</time></trkpt><trkpt lat="42.7482507" lon="11.4741598"><ele>615.0</ele><time>2026-04-02T12:54:04.904Z</time></trkpt><trkpt lat="42.7481641" lon="11.474302"><ele>615.0</ele><time>2026-04-02T12:54:05.904Z</time></trkpt><trkpt lat="42.7480747" lon="11.4744578"><ele>614.6666666666666</ele><time>2026-04-02T12:54:06.904Z</time></trkpt><trkpt lat="42.7479878" lon="11.4746221"><ele>614.3333333333333</ele><time>2026-04-02T12:54:07.904Z</time></trkpt><trkpt lat="42.7479031" lon="11.4747972"><ele>614.0</ele><time>2026-04-02T12:54:08.904Z</time></trkpt><trkpt lat="42.7478134" lon="11.4749623"><ele>614.0</ele><time>2026-04-02T12:54:09.904Z</time></trkpt><trkpt lat="42.7477248" lon="11.4751313"><ele>614.0</ele><time>2026-04-02T12:54:10.903Z</time></trkpt><trkpt lat="42.7476402" lon="11.4752852"><ele>614.0</ele><time>2026-04-02T12:54:11.904Z</time></trkpt><trkpt lat="42.747559" lon="11.4754358"><ele>614.0</ele><time>2026-04-02T12:54:12.904Z</time></trkpt><trkpt lat="42.7474818" lon="11.4755891"><ele>614.75</ele><time>2026-04-02T12:54:13.904Z</time></trkpt><trkpt lat="42.747406" lon="11.4757377"><ele>615.5</ele><time>2026-04-02T12:54:14.904Z</time></trkpt><trkpt lat="42.7473378" lon="11.4759042"><ele>616.25</ele><time>2026-04-02T12:54:15.904Z</time></trkpt><trkpt lat="42.7472832" lon="11.4760809"><ele>617.0</ele><time>2026-04-02T12:54:16.904Z</time></trkpt><trkpt lat="42.7472349" lon="11.4762657"><ele>617.0</ele><time>2026-04-02T12:54:17.904Z</time></trkpt><trkpt lat="42.7471856" lon="11.4764385"><ele>617.0</ele><time>2026-04-02T12:54:18.904Z</time></trkpt><trkpt lat="42.7471305" lon="11.4765845"><ele>617.0</ele><time>2026-04-02T12:54:19.904Z</time></trkpt><trkpt lat="42.7470699" lon="11.4766986"><ele>617.0</ele><time>2026-04-02T12:54:20.904Z</time></trkpt><trkpt lat="42.7469877" lon="11.4768076"><ele>617.0</ele><time>2026-04-02T12:54:21.904Z</time></trkpt><trkpt lat="42.7468927" lon="11.476907"><ele>617.0</ele><time>2026-04-02T12:54:22.904Z</time></trkpt><trkpt lat="42.7468144" lon="11.4770005"><ele>617.0</ele><time>2026-04-02T12:54:23.904Z</time></trkpt><trkpt lat="42.7467407" lon="11.4771162"><ele>617.0</ele><time>2026-04-02T12:54:24.904Z</time></trkpt><trkpt lat="42.746683" lon="11.4772463"><ele>617.0</ele><time>2026-04-02T12:54:25.904Z</time></trkpt><trkpt lat="42.7466419" lon="11.4773736"><ele>618.2</ele><time>2026-04-02T12:54:26.904Z</time></trkpt><trkpt lat="42.7466181" lon="11.4775104"><ele>619.4000000000001</ele><time>2026-04-02T12:54:27.904Z</time></trkpt><trkpt lat="42.7466081" lon="11.477656"><ele>620.5999999999999</ele><time>2026-04-02T12:54:28.904Z</time></trkpt><trkpt lat="42.746608" lon="11.4778212"><ele>621.8</ele><time>2026-04-02T12:54:29.904Z</time></trkpt><trkpt lat="42.7466101" lon="11.4779808"><ele>623.0</ele><time>2026-04-02T12:54:30.904Z</time></trkpt><trkpt lat="42.746599" lon="11.478126"><ele>623.6</ele><time>2026-04-02T12:54:31.903Z</time></trkpt><trkpt lat="42.7465839" lon="11.4782567"><ele>624.1999999999999</ele><time>2026-04-02T12:54:32.903Z</time></trkpt><trkpt lat="42.7465384" lon="11.4783725"><ele>624.8</ele><time>2026-04-02T12:54:33.904Z</time></trkpt><trkpt lat="42.7464604" lon="11.4784632"><ele>625.4</ele><time>2026-04-02T12:54:34.904Z</time></trkpt><trkpt lat="42.7463504" lon="11.4785317"><ele>626.0</ele><time>2026-04-02T12:54:35.904Z</time></trkpt><trkpt lat="42.7462272" lon="11.4785851"><ele>626.0</ele><time>2026-04-02T12:54:36.904Z</time></trkpt><trkpt lat="42.7461088" lon="11.4786456"><ele>626.0</ele><time>2026-04-02T12:54:37.904Z</time></trkpt><trkpt lat="42.7459848" lon="11.4787379"><ele>626.0</ele><time>2026-04-02T12:54:38.904Z</time></trkpt><trkpt lat="42.7458647" lon="11.478861"><ele>626.0</ele><time>2026-04-02T12:54:39.904Z</time></trkpt><trkpt lat="42.7457448" lon="11.4790111"><ele>626.0</ele><time>2026-04-02T12:54:40.904Z</time></trkpt><trkpt lat="42.7456137" lon="11.4791628"><ele>626.0</ele><time>2026-04-02T12:54:41.904Z</time></trkpt><trkpt lat="42.7454887" lon="11.4793078"><ele>626.0</ele><time>2026-04-02T12:54:42.904Z</time></trkpt><trkpt lat="42.74537" lon="11.479455"><ele>623.3333333333333</ele><time>2026-04-02T12:54:43.904Z</time></trkpt><trkpt lat="42.7452594" lon="11.479605"><ele>620.6666666666666</ele><time>2026-04-02T12:54:44.904Z</time></trkpt><trkpt lat="42.745155" lon="11.4797765"><ele>618.0</ele><time>2026-04-02T12:54:45.904Z</time></trkpt><trkpt lat="42.7450625" lon="11.4799654"><ele>618.0</ele><time>2026-04-02T12:54:46.904Z</time></trkpt><trkpt lat="42.7449692" lon="11.4801652"><ele>618.0</ele><time>2026-04-02T12:54:47.904Z</time></trkpt><trkpt lat="42.7448719" lon="11.4803667"><ele>618.0</ele><time>2026-04-02T12:54:48.904Z</time></trkpt><trkpt lat="42.7447732" lon="11.480555"><ele>618.0</ele><time>2026-04-02T12:54:49.904Z</time></trkpt><trkpt lat="42.7446782" lon="11.4807087"><ele>618.0</ele><time>2026-04-02T12:54:50.904Z</time></trkpt><trkpt lat="42.7445821" lon="11.4808453"><ele>618.0</ele><time>2026-04-02T12:54:51.904Z</time></trkpt><trkpt lat="42.7444801" lon="11.4809852"><ele>618.0</ele><time>2026-04-02T12:54:52.904Z</time></trkpt><trkpt lat="42.744373" lon="11.4811456"><ele>618.6666666666666</ele><time>2026-04-02T12:54:53.903Z</time></trkpt><trkpt lat="42.7442545" lon="11.481325"><ele>619.3333333333333</ele><time>2026-04-02T12:54:54.903Z</time></trkpt><trkpt lat="42.7441341" lon="11.4814944"><ele>620.0</ele><time>2026-04-02T12:54:55.904Z</time></trkpt><trkpt lat="42.7440214" lon="11.481654"><ele>620.0</ele><time>2026-04-02T12:54:56.903Z</time></trkpt><trkpt lat="42.7439178" lon="11.481796"><ele>620.0</ele><time>2026-04-02T12:54:57.904Z</time></trkpt><trkpt lat="42.7438204" lon="11.4819007"><ele>620.0</ele><time>2026-04-02T12:54:58.904Z</time></trkpt><trkpt lat="42.7437145" lon="11.4819743"><ele>620.0</ele><time>2026-04-02T12:54:59.904Z</time></trkpt><trkpt lat="42.7435932" lon="11.4820172"><ele>620.25</ele><time>2026-04-02T12:55:00.904Z</time></trkpt><trkpt lat="42.7434716" lon="11.4820159"><ele>620.5</ele><time>2026-04-02T12:55:01.904Z</time></trkpt><trkpt lat="42.7433546" lon="11.4820169"><ele>620.75</ele><time>2026-04-02T12:55:02.904Z</time></trkpt><trkpt lat="42.7432477" lon="11.4820423"><ele>621.0</ele><time>2026-04-02T12:55:03.904Z</time></trkpt><trkpt lat="42.7431478" lon="11.4820957"><ele>620.75</ele><time>2026-04-02T12:55:04.904Z</time></trkpt><trkpt lat="42.7430475" lon="11.4821854"><ele>620.5</ele><time>2026-04-02T12:55:05.904Z</time></trkpt><trkpt lat="42.7429421" lon="11.4822989"><ele>620.25</ele><time>2026-04-02T12:55:06.904Z</time></trkpt><trkpt lat="42.7428302" lon="11.4824365"><ele>620.0</ele><time>2026-04-02T12:55:07.904Z</time></trkpt><trkpt lat="42.7427142" lon="11.4825872"><ele>618.3333333333333</ele><time>2026-04-02T12:55:08.904Z</time></trkpt><trkpt lat="42.7425951" lon="11.4827475"><ele>616.6666666666666</ele><time>2026-04-02T12:55:09.904Z</time></trkpt><trkpt lat="42.7424749" lon="11.4829131"><ele>615.0</ele><time>2026-04-02T12:55:10.904Z</time></trkpt><trkpt lat="42.742356" lon="11.4830837"><ele>613.6666666666666</ele><time>2026-04-02T12:55:11.904Z</time></trkpt><trkpt lat="42.7422299" lon="11.4832551"><ele>612.3333333333333</ele><time>2026-04-02T12:55:12.904Z</time></trkpt><trkpt lat="42.7421091" lon="11.4834322"><ele>611.0</ele><time>2026-04-02T12:55:13.903Z</time></trkpt><trkpt lat="42.741992" lon="11.4836106"><ele>610.6666666666666</ele><time>2026-04-02T12:55:14.904Z</time></trkpt><trkpt lat="42.741883" lon="11.4837801"><ele>610.3333333333334</ele><time>2026-04-02T12:55:15.904Z</time></trkpt><trkpt lat="42.7417803" lon="11.4839373"><ele>610.0</ele><time>2026-04-02T12:55:16.904Z</time></trkpt><trkpt lat="42.7416749" lon="11.4840964"><ele>610.0</ele><time>2026-04-02T12:55:17.904Z</time></trkpt><trkpt lat="42.7415774" lon="11.4842346"><ele>610.0</ele><time>2026-04-02T12:55:18.904Z</time></trkpt><trkpt lat="42.7414907" lon="11.4843534"><ele>610.0</ele><time>2026-04-02T12:55:19.904Z</time></trkpt><trkpt lat="42.7414147" lon="11.4844576"><ele>610.0</ele><time>2026-04-02T12:55:20.904Z</time></trkpt><trkpt lat="42.7413478" lon="11.4845476"><ele>609.8333333333334</ele><time>2026-04-02T12:55:21.904Z</time></trkpt><trkpt lat="42.7413021" lon="11.4846337"><ele>609.6666666666667</ele><time>2026-04-02T12:55:22.904Z</time></trkpt><trkpt lat="42.7412687" lon="11.4847269"><ele>609.5</ele><time>2026-04-02T12:55:23.904Z</time></trkpt><trkpt lat="42.7412552" lon="11.4848223"><ele>609.3333333333334</ele><time>2026-04-02T12:55:24.904Z</time></trkpt><trkpt lat="42.7412501" lon="11.4849191"><ele>609.1666666666666</ele><time>2026-04-02T12:55:25.903Z</time></trkpt><trkpt lat="42.7412599" lon="11.4850359"><ele>609.0</ele><time>2026-04-02T12:55:26.904Z</time></trkpt><trkpt lat="42.7412777" lon="11.4851587"><ele>609.0</ele><time>2026-04-02T12:55:27.904Z</time></trkpt><trkpt lat="42.7413047" lon="11.4852906"><ele>609.0</ele><time>2026-04-02T12:55:28.904Z</time></trkpt><trkpt lat="42.741317" lon="11.4854175"><ele>609.0</ele><time>2026-04-02T12:55:29.904Z</time></trkpt><trkpt lat="42.7412933" lon="11.4855458"><ele>609.0</ele><time>2026-04-02T12:55:30.904Z</time></trkpt><trkpt lat="42.7412478" lon="11.4856652"><ele>609.0</ele><time>2026-04-02T12:55:31.904Z</time></trkpt><trkpt lat="42.7411959" lon="11.4857796"><ele>607.2</ele><time>2026-04-02T12:55:32.904Z</time></trkpt><trkpt lat="42.7411497" lon="11.4859009"><ele>605.4</ele><time>2026-04-02T12:55:33.904Z</time></trkpt><trkpt lat="42.7411279" lon="11.4860406"><ele>603.6</ele><time>2026-04-02T12:55:34.904Z</time></trkpt><trkpt lat="42.7411303" lon="11.4861898"><ele>601.8</ele><time>2026-04-02T12:55:35.904Z</time></trkpt><trkpt lat="42.7411498" lon="11.4863327"><ele>600.0</ele><time>2026-04-02T12:55:36.904Z</time></trkpt><trkpt lat="42.7411786" lon="11.4864595"><ele>598.5</ele><time>2026-04-02T12:55:37.904Z</time></trkpt><trkpt lat="42.7412052" lon="11.4865959"><ele>597.0</ele><time>2026-04-02T12:55:38.904Z</time></trkpt><trkpt lat="42.7412185" lon="11.4867477"><ele>595.5</ele><time>2026-04-02T12:55:39.904Z</time></trkpt><trkpt lat="42.7412212" lon="11.486912"><ele>594.0</ele><time>2026-04-02T12:55:40.904Z</time></trkpt><trkpt lat="42.7412147" lon="11.48707"><ele>594.6666666666666</ele><time>2026-04-02T12:55:41.903Z</time></trkpt><trkpt lat="42.7411955" lon="11.4872076"><ele>595.3333333333334</ele><time>2026-04-02T12:55:42.904Z</time></trkpt><trkpt lat="42.7411625" lon="11.4873316"><ele>596.0</ele><time>2026-04-02T12:55:43.904Z</time></trkpt><trkpt lat="42.7411253" lon="11.4874245"><ele>596.6666666666667</ele><time>2026-04-02T12:55:44.904Z</time></trkpt><trkpt lat="42.7410797" lon="11.4875026"><ele>597.3333333333334</ele><time>2026-04-02T12:55:45.904Z</time></trkpt><trkpt lat="42.7410152" lon="11.4875922"><ele>598.0</ele><time>2026-04-02T12:55:46.904Z</time></trkpt><trkpt lat="42.7409287" lon="11.4876795"><ele>598.0</ele><time>2026-04-02T12:55:47.903Z</time></trkpt><trkpt lat="42.7408541" lon="11.4877626"><ele>598.0</ele><time>2026-04-02T12:55:48.904Z</time></trkpt><trkpt lat="42.7407913" lon="11.4878356"><ele>598.0</ele><time>2026-04-02T12:55:49.904Z</time></trkpt><trkpt lat="42.7407343" lon="11.4879244"><ele>598.0</ele><time>2026-04-02T12:55:50.904Z</time></trkpt><trkpt lat="42.7406967" lon="11.4880377"><ele>598.0</ele><time>2026-04-02T12:55:51.904Z</time></trkpt><trkpt lat="42.7406887" lon="11.4881769"><ele>595.5</ele><time>2026-04-02T12:55:52.904Z</time></trkpt><trkpt lat="42.7407027" lon="11.4883407"><ele>593.0</ele><time>2026-04-02T12:55:53.904Z</time></trkpt><trkpt lat="42.7407402" lon="11.4885028"><ele>590.5</ele><time>2026-04-02T12:55:54.904Z</time></trkpt><trkpt lat="42.7407834" lon="11.4886435"><ele>588.0</ele><time>2026-04-02T12:55:55.904Z</time></trkpt><trkpt lat="42.7408154" lon="11.4887695"><ele>586.8333333333334</ele><time>2026-04-02T12:55:56.904Z</time></trkpt><trkpt lat="42.7408231" lon="11.4888899"><ele>585.6666666666666</ele><time>2026-04-02T12:55:57.903Z</time></trkpt><trkpt lat="42.740803" lon="11.4889988"><ele>584.5</ele><time>2026-04-02T12:55:58.904Z</time></trkpt><trkpt lat="42.7407503" lon="11.4890863"><ele>583.3333333333333</ele><time>2026-04-02T12:55:59.904Z</time></trkpt><trkpt lat="42.7406723" lon="11.4891438"><ele>582.1666666666666</ele><time>2026-04-02T12:56:00.904Z</time></trkpt><trkpt lat="42.7405941" lon="11.4891777"><ele>581.0</ele><time>2026-04-02T12:56:01.904Z</time></trkpt><trkpt lat="42.7405207" lon="11.4892037"><ele>581.0</ele><time>2026-04-02T12:56:02.904Z</time></trkpt><trkpt lat="42.7404346" lon="11.4892187"><ele>581.0</ele><time>2026-04-02T12:56:03.904Z</time></trkpt><trkpt lat="42.7403527" lon="11.4891979"><ele>581.0</ele><time>2026-04-02T12:56:04.904Z</time></trkpt><trkpt lat="42.7402626" lon="11.4891414"><ele>581.0</ele><time>2026-04-02T12:56:05.904Z</time></trkpt><trkpt lat="42.7401788" lon="11.4890395"><ele>581.0</ele><time>2026-04-02T12:56:06.904Z</time></trkpt><trkpt lat="42.7401092" lon="11.4889196"><ele>581.3333333333333</ele><time>2026-04-02T12:56:07.904Z</time></trkpt><trkpt lat="42.7400538" lon="11.4888088"><ele>581.6666666666666</ele><time>2026-04-02T12:56:08.904Z</time></trkpt><trkpt lat="42.7400023" lon="11.4887104"><ele>582.0</ele><time>2026-04-02T12:56:09.904Z</time></trkpt><trkpt lat="42.7399331" lon="11.4886472"><ele>582.3333333333334</ele><time>2026-04-02T12:56:10.904Z</time></trkpt><trkpt lat="42.7398537" lon="11.488636"><ele>582.6666666666667</ele><time>2026-04-02T12:56:11.903Z</time></trkpt><trkpt lat="42.7397755" lon="11.4886607"><ele>583.0</ele><time>2026-04-02T12:56:12.904Z</time></trkpt><trkpt lat="42.7396916" lon="11.4887115"><ele>581.25</ele><time>2026-04-02T12:56:13.904Z</time></trkpt><trkpt lat="42.7395835" lon="11.4887645"><ele>579.5</ele><time>2026-04-02T12:56:14.903Z</time></trkpt><trkpt lat="42.7394531" lon="11.4887861"><ele>577.75</ele><time>2026-04-02T12:56:15.904Z</time></trkpt><trkpt lat="42.7393091" lon="11.4887776"><ele>576.0</ele><time>2026-04-02T12:56:16.904Z</time></trkpt><trkpt lat="42.7391464" lon="11.4887702"><ele>576.25</ele><time>2026-04-02T12:56:17.904Z</time></trkpt><trkpt lat="42.7389999" lon="11.4887656"><ele>576.5</ele><time>2026-04-02T12:56:18.904Z</time></trkpt><trkpt lat="42.7388723" lon="11.4887631"><ele>576.75</ele><time>2026-04-02T12:56:19.904Z</time></trkpt><trkpt lat="42.7387567" lon="11.4887615"><ele>577.0</ele><time>2026-04-02T12:56:20.904Z</time></trkpt><trkpt lat="42.738649" lon="11.4887512"><ele>574.8000000000001</ele><time>2026-04-02T12:56:21.904Z</time></trkpt><trkpt lat="42.7385447" lon="11.4887231"><ele>572.6</ele><time>2026-04-02T12:56:22.903Z</time></trkpt><trkpt lat="42.7384495" lon="11.4886764"><ele>570.4000000000001</ele><time>2026-04-02T12:56:23.904Z</time></trkpt><trkpt lat="42.738356" lon="11.4886327"><ele>568.2</ele><time>2026-04-02T12:56:24.904Z</time></trkpt><trkpt lat="42.7382591" lon="11.4886098"><ele>566.0</ele><time>2026-04-02T12:56:25.904Z</time></trkpt><trkpt lat="42.7381504" lon="11.4886064"><ele>566.0</ele><time>2026-04-02T12:56:26.904Z</time></trkpt><trkpt lat="42.738041" lon="11.4886267"><ele>566.0</ele><time>2026-04-02T12:56:27.904Z</time></trkpt><trkpt lat="42.7379212" lon="11.488684"><ele>566.0</ele><time>2026-04-02T12:56:28.903Z</time></trkpt><trkpt lat="42.7378151" lon="11.4887744"><ele>566.0</ele><time>2026-04-02T12:56:29.904Z</time></trkpt><trkpt lat="42.737724" lon="11.4888771"><ele>562.6</ele><time>2026-04-02T12:56:30.904Z</time></trkpt><trkpt lat="42.7376352" lon="11.4889714"><ele>559.2</ele><time>2026-04-02T12:56:31.904Z</time></trkpt><trkpt lat="42.7375401" lon="11.4890448"><ele>555.8</ele><time>2026-04-02T12:56:32.904Z</time></trkpt><trkpt lat="42.7374374" lon="11.4891024"><ele>552.4</ele><time>2026-04-02T12:56:33.904Z</time></trkpt><trkpt lat="42.7373257" lon="11.4891373"><ele>549.0</ele><time>2026-04-02T12:56:34.904Z</time></trkpt><trkpt lat="42.7372099" lon="11.4891631"><ele>549.0</ele><time>2026-04-02T12:56:35.904Z</time></trkpt><trkpt lat="42.7370897" lon="11.4891923"><ele>549.0</ele><time>2026-04-02T12:56:36.904Z</time></trkpt><trkpt lat="42.7369614" lon="11.489232"><ele>549.0</ele><time>2026-04-02T12:56:37.904Z</time></trkpt><trkpt lat="42.7368369" lon="11.4892853"><ele>549.0</ele><time>2026-04-02T12:56:38.904Z</time></trkpt><trkpt lat="42.7367219" lon="11.4893628"><ele>547.75</ele><time>2026-04-02T12:56:39.904Z</time></trkpt><trkpt lat="42.7366145" lon="11.4894512"><ele>546.5</ele><time>2026-04-02T12:56:40.903Z</time></trkpt><trkpt lat="42.7365021" lon="11.4895435"><ele>545.25</ele><time>2026-04-02T12:56:41.904Z</time></trkpt><trkpt lat="42.736382" lon="11.4896295"><ele>544.0</ele><time>2026-04-02T12:56:42.904Z</time></trkpt><trkpt lat="42.7362564" lon="11.4897058"><ele>542.25</ele><time>2026-04-02T12:56:43.904Z</time></trkpt><trkpt lat="42.7361284" lon="11.4897624"><ele>540.5</ele><time>2026-04-02T12:56:44.904Z</time></trkpt><trkpt lat="42.7360115" lon="11.4898205"><ele>538.75</ele><time>2026-04-02T12:56:45.904Z</time></trkpt><trkpt lat="42.7359051" lon="11.4898688"><ele>537.0</ele><time>2026-04-02T12:56:46.904Z</time></trkpt><trkpt lat="42.7358008" lon="11.489925"><ele>536.4</ele><time>2026-04-02T12:56:47.903Z</time></trkpt><trkpt lat="42.7356962" lon="11.4899696"><ele>535.8000000000001</ele><time>2026-04-02T12:56:48.904Z</time></trkpt><trkpt lat="42.7355894" lon="11.4900079"><ele>535.2</ele><time>2026-04-02T12:56:49.904Z</time></trkpt><trkpt lat="42.7354852" lon="11.4900653"><ele>534.6</ele><time>2026-04-02T12:56:50.904Z</time></trkpt><trkpt lat="42.7353843" lon="11.4901393"><ele>534.0</ele><time>2026-04-02T12:56:51.904Z</time></trkpt><trkpt lat="42.7352948" lon="11.4902371"><ele>532.8</ele><time>2026-04-02T12:56:52.904Z</time></trkpt><trkpt lat="42.7352167" lon="11.4903463"><ele>531.5999999999999</ele><time>2026-04-02T12:56:53.904Z</time></trkpt><trkpt lat="42.735142" lon="11.4904504"><ele>530.4</ele><time>2026-04-02T12:56:54.904Z</time></trkpt><trkpt lat="42.7350593" lon="11.490533"><ele>529.1999999999999</ele><time>2026-04-02T12:56:55.904Z</time></trkpt><trkpt lat="42.7349759" lon="11.490601"><ele>528.0</ele><time>2026-04-02T12:56:56.904Z</time></trkpt><trkpt lat="42.7348528" lon="11.4905894"><ele>525.75</ele><time>2026-04-02T12:56:57.904Z</time></trkpt><trkpt lat="42.7347422" lon="11.4905817"><ele>523.5</ele><time>2026-04-02T12:56:58.904Z</time></trkpt><trkpt lat="42.7346204" lon="11.4905735"><ele>521.25</ele><time>2026-04-02T12:56:59.904Z</time></trkpt><trkpt lat="42.7344985" lon="11.4905826"><ele>519.0</ele><time>2026-04-02T12:57:00.904Z</time></trkpt><trkpt lat="42.7343784" lon="11.4906223"><ele>518.0</ele><time>2026-04-02T12:57:01.904Z</time></trkpt><trkpt lat="42.7342558" lon="11.4906822"><ele>517.0</ele><time>2026-04-02T12:57:02.904Z</time></trkpt><trkpt lat="42.7341479" lon="11.4907472"><ele>516.0</ele><time>2026-04-02T12:57:03.904Z</time></trkpt><trkpt lat="42.7340405" lon="11.4907946"><ele>515.0</ele><time>2026-04-02T12:57:04.904Z</time></trkpt><trkpt lat="42.7339221" lon="11.4908146"><ele>515.0</ele><time>2026-04-02T12:57:05.904Z</time></trkpt><trkpt lat="42.7337948" lon="11.4908002"><ele>515.0</ele><time>2026-04-02T12:57:06.904Z</time></trkpt><trkpt lat="42.7336587" lon="11.4907455"><ele>515.0</ele><time>2026-04-02T12:57:07.903Z</time></trkpt><trkpt lat="42.7335199" lon="11.4906587"><ele>515.0</ele><time>2026-04-02T12:57:08.904Z</time></trkpt><trkpt lat="42.7334036" lon="11.4905708"><ele>512.25</ele><time>2026-04-02T12:57:09.904Z</time></trkpt><trkpt lat="42.7333003" lon="11.490495"><ele>509.5</ele><time>2026-04-02T12:57:10.904Z</time></trkpt><trkpt lat="42.7331896" lon="11.4904248"><ele>506.75</ele><time>2026-04-02T12:57:11.904Z</time></trkpt><trkpt lat="42.733068" lon="11.4903712"><ele>504.0</ele><time>2026-04-02T12:57:12.903Z</time></trkpt><trkpt lat="42.7329439" lon="11.4903349"><ele>504.0</ele><time>2026-04-02T12:57:13.904Z</time></trkpt><trkpt lat="42.7328049" lon="11.4903269"><ele>504.0</ele><time>2026-04-02T12:57:14.904Z</time></trkpt><trkpt lat="42.7326532" lon="11.4903509"><ele>504.0</ele><time>2026-04-02T12:57:15.903Z</time></trkpt><trkpt lat="42.7325016" lon="11.4903859"><ele>504.0</ele><time>2026-04-02T12:57:16.904Z</time></trkpt><trkpt lat="42.7323546" lon="11.4904307"><ele>500.25</ele><time>2026-04-02T12:57:17.904Z</time></trkpt><trkpt lat="42.7322256" lon="11.4904808"><ele>496.5</ele><time>2026-04-02T12:57:18.904Z</time></trkpt><trkpt lat="42.7321055" lon="11.4905324"><ele>492.75</ele><time>2026-04-02T12:57:19.904Z</time></trkpt><trkpt lat="42.7319816" lon="11.4905432"><ele>489.0</ele><time>2026-04-02T12:57:20.904Z</time></trkpt><trkpt lat="42.7318639" lon="11.490518"><ele>489.25</ele><time>2026-04-02T12:57:21.904Z</time></trkpt><trkpt lat="42.7317407" lon="11.4904639"><ele>489.5</ele><time>2026-04-02T12:57:22.903Z</time></trkpt><trkpt lat="42.7316216" lon="11.4903762"><ele>489.75</ele><time>2026-04-02T12:57:23.904Z</time></trkpt><trkpt lat="42.7314958" lon="11.4902605"><ele>490.0</ele><time>2026-04-02T12:57:24.903Z</time></trkpt><trkpt lat="42.731361" lon="11.4901375"><ele>490.0</ele><time>2026-04-02T12:57:25.904Z</time></trkpt><trkpt lat="42.7312371" lon="11.4900211"><ele>490.0</ele><time>2026-04-02T12:57:26.904Z</time></trkpt><trkpt lat="42.7311242" lon="11.4899119"><ele>490.0</ele><time>2026-04-02T12:57:27.903Z</time></trkpt><trkpt lat="42.7310265" lon="11.4897947"><ele>490.0</ele><time>2026-04-02T12:57:28.904Z</time></trkpt><trkpt lat="42.7309362" lon="11.4896516"><ele>485.0</ele><time>2026-04-02T12:57:29.904Z</time></trkpt><trkpt lat="42.7308573" lon="11.4895031"><ele>480.0</ele><time>2026-04-02T12:57:30.903Z</time></trkpt><trkpt lat="42.730781" lon="11.4893563"><ele>475.0</ele><time>2026-04-02T12:57:31.904Z</time></trkpt><trkpt lat="42.73069" lon="11.489223"><ele>470.0</ele><time>2026-04-02T12:57:32.904Z</time></trkpt><trkpt lat="42.7305853" lon="11.4891024"><ele>470.0</ele><time>2026-04-02T12:57:33.904Z</time></trkpt><trkpt lat="42.7304625" lon="11.4889997"><ele>470.0</ele><time>2026-04-02T12:57:34.904Z</time></trkpt><trkpt lat="42.7303217" lon="11.4889242"><ele>470.0</ele><time>2026-04-02T12:57:35.903Z</time></trkpt><trkpt lat="42.7301578" lon="11.4888804"><ele>468.0</ele><time>2026-04-02T12:57:36.904Z</time></trkpt><trkpt lat="42.7299795" lon="11.4888538"><ele>466.0</ele><time>2026-04-02T12:57:37.904Z</time></trkpt><trkpt lat="42.729814" lon="11.4888369"><ele>464.0</ele><time>2026-04-02T12:57:38.904Z</time></trkpt><trkpt lat="42.7296646" lon="11.4888235"><ele>464.0</ele><time>2026-04-02T12:57:39.904Z</time></trkpt><trkpt lat="42.7295296" lon="11.4888138"><ele>464.0</ele><time>2026-04-02T12:57:40.904Z</time></trkpt><trkpt lat="42.7294042" lon="11.4887865"><ele>464.0</ele><time>2026-04-02T12:57:41.904Z</time></trkpt><trkpt lat="42.7292722" lon="11.4887215"><ele>464.0</ele><time>2026-04-02T12:57:42.904Z</time></trkpt><trkpt lat="42.729135" lon="11.4886385"><ele>463.3333333333333</ele><time>2026-04-02T12:57:43.904Z</time></trkpt><trkpt lat="42.7289806" lon="11.488564"><ele>462.66666666666663</ele><time>2026-04-02T12:57:44.904Z</time></trkpt><trkpt lat="42.7288346" lon="11.4885037"><ele>462.0</ele><time>2026-04-02T12:57:45.904Z</time></trkpt><trkpt lat="42.7286878" lon="11.4884392"><ele>460.66666666666663</ele><time>2026-04-02T12:57:46.904Z</time></trkpt><trkpt lat="42.7285374" lon="11.48835"><ele>459.3333333333333</ele><time>2026-04-02T12:57:47.904Z</time></trkpt><trkpt lat="42.7283829" lon="11.4882385"><ele>458.0</ele><time>2026-04-02T12:57:48.904Z</time></trkpt><trkpt lat="42.728225" lon="11.488126"><ele>458.0</ele><time>2026-04-02T12:57:49.904Z</time></trkpt><trkpt lat="42.728078" lon="11.4880169"><ele>458.0</ele><time>2026-04-02T12:57:50.904Z</time></trkpt><trkpt lat="42.7279246" lon="11.487919"><ele>458.0</ele><time>2026-04-02T12:57:51.904Z</time></trkpt><trkpt lat="42.7277742" lon="11.4878452"><ele>456.75</ele><time>2026-04-02T12:57:52.904Z</time></trkpt><trkpt lat="42.7276325" lon="11.4877871"><ele>455.5</ele><time>2026-04-02T12:57:53.904Z</time></trkpt><trkpt lat="42.7274918" lon="11.4877319"><ele>454.25</ele><time>2026-04-02T12:57:54.904Z</time></trkpt><trkpt lat="42.7273526" lon="11.4876599"><ele>453.0</ele><time>2026-04-02T12:57:55.903Z</time></trkpt><trkpt lat="42.7272193" lon="11.487558"><ele>453.0</ele><time>2026-04-02T12:57:56.904Z</time></trkpt><trkpt lat="42.7270972" lon="11.4874383"><ele>453.0</ele><time>2026-04-02T12:57:57.903Z</time></trkpt><trkpt lat="42.7269708" lon="11.487323"><ele>453.0</ele><time>2026-04-02T12:57:58.904Z</time></trkpt><trkpt lat="42.7268359" lon="11.4872118"><ele>452.0</ele><time>2026-04-02T12:57:59.904Z</time></trkpt><trkpt lat="42.7266853" lon="11.4871209"><ele>451.0</ele><time>2026-04-02T12:58:00.904Z</time></trkpt><trkpt lat="42.7265308" lon="11.4870339"><ele>450.0</ele><time>2026-04-02T12:58:01.904Z</time></trkpt><trkpt lat="42.7263933" lon="11.4869453"><ele>449.75</ele><time>2026-04-02T12:58:02.904Z</time></trkpt><trkpt lat="42.7262542" lon="11.4868562"><ele>449.5</ele><time>2026-04-02T12:58:03.903Z</time></trkpt><trkpt lat="42.7261204" lon="11.4867646"><ele>449.25</ele><time>2026-04-02T12:58:04.904Z</time></trkpt><trkpt lat="42.7259897" lon="11.4866842"><ele>449.0</ele><time>2026-04-02T12:58:05.904Z</time></trkpt><trkpt lat="42.7258709" lon="11.4866214"><ele>449.0</ele><time>2026-04-02T12:58:06.904Z</time></trkpt><trkpt lat="42.7257574" lon="11.4865804"><ele>449.0</ele><time>2026-04-02T12:58:07.904Z</time></trkpt><trkpt lat="42.7256268" lon="11.4865557"><ele>449.0</ele><time>2026-04-02T12:58:08.904Z</time></trkpt><trkpt lat="42.7254787" lon="11.4865455"><ele>449.0</ele><time>2026-04-02T12:58:09.903Z</time></trkpt><trkpt lat="42.7253183" lon="11.4865427"><ele>447.3333333333333</ele><time>2026-04-02T12:58:10.903Z</time></trkpt><trkpt lat="42.7251496" lon="11.4865494"><ele>445.66666666666663</ele><time>2026-04-02T12:58:11.904Z</time></trkpt><trkpt lat="42.724994" lon="11.486556"><ele>444.0</ele><time>2026-04-02T12:58:12.904Z</time></trkpt><trkpt lat="42.7248474" lon="11.4865509"><ele>444.0</ele><time>2026-04-02T12:58:13.904Z</time></trkpt><trkpt lat="42.7246954" lon="11.4865397"><ele>444.0</ele><time>2026-04-02T12:58:14.904Z</time></trkpt><trkpt lat="42.7245606" lon="11.4865244"><ele>444.0</ele><time>2026-04-02T12:58:15.904Z</time></trkpt><trkpt lat="42.7244392" lon="11.486488"><ele>444.0</ele><time>2026-04-02T12:58:16.903Z</time></trkpt><trkpt lat="42.7243313" lon="11.4864481"><ele>443.0</ele><time>2026-04-02T12:58:17.904Z</time></trkpt><trkpt lat="42.7242354" lon="11.4864101"><ele>442.0</ele><time>2026-04-02T12:58:18.903Z</time></trkpt><trkpt lat="42.7241484" lon="11.4863984"><ele>441.0</ele><time>2026-04-02T12:58:19.904Z</time></trkpt><trkpt lat="42.7240744" lon="11.4864195"><ele>440.0</ele><time>2026-04-02T12:58:20.904Z</time></trkpt><trkpt lat="42.7240168" lon="11.4864775"><ele>439.0</ele><time>2026-04-02T12:58:21.904Z</time></trkpt><trkpt lat="42.7239793" lon="11.4865806"><ele>438.0</ele><time>2026-04-02T12:58:22.904Z</time></trkpt><trkpt lat="42.7239583" lon="11.4867082"><ele>438.0</ele><time>2026-04-02T12:58:23.904Z</time></trkpt><trkpt lat="42.7239357" lon="11.4868413"><ele>438.0</ele><time>2026-04-02T12:58:24.904Z</time></trkpt><trkpt lat="42.7238912" lon="11.4869814"><ele>438.0</ele><time>2026-04-02T12:58:25.904Z</time></trkpt><trkpt lat="42.7238174" lon="11.4871202"><ele>438.0</ele><time>2026-04-02T12:58:26.904Z</time></trkpt><trkpt lat="42.7237203" lon="11.4872526"><ele>436.25</ele><time>2026-04-02T12:58:27.904Z</time></trkpt><trkpt lat="42.7236073" lon="11.4873841"><ele>434.5</ele><time>2026-04-02T12:58:28.904Z</time></trkpt><trkpt lat="42.7235049" lon="11.4875032"><ele>432.75</ele><time>2026-04-02T12:58:29.904Z</time></trkpt><trkpt lat="42.7234103" lon="11.4876126"><ele>431.0</ele><time>2026-04-02T12:58:30.904Z</time></trkpt><trkpt lat="42.7233043" lon="11.4877082"><ele>431.0</ele><time>2026-04-02T12:58:31.904Z</time></trkpt><trkpt lat="42.7231875" lon="11.4877815"><ele>431.0</ele><time>2026-04-02T12:58:32.904Z</time></trkpt><trkpt lat="42.7230512" lon="11.4878435"><ele>431.0</ele><time>2026-04-02T12:58:33.904Z</time></trkpt><trkpt lat="42.7229171" lon="11.4879009"><ele>431.0</ele><time>2026-04-02T12:58:34.904Z</time></trkpt><trkpt lat="42.7227764" lon="11.4879611"><ele>428.3333333333333</ele><time>2026-04-02T12:58:35.904Z</time></trkpt><trkpt lat="42.7226416" lon="11.4880341"><ele>425.66666666666663</ele><time>2026-04-02T12:58:36.904Z</time></trkpt><trkpt lat="42.7225079" lon="11.4881303"><ele>423.0</ele><time>2026-04-02T12:58:37.904Z</time></trkpt><trkpt lat="42.7223732" lon="11.4882501"><ele>423.0</ele><time>2026-04-02T12:58:38.904Z</time></trkpt><trkpt lat="42.7222431" lon="11.4883686"><ele>423.0</ele><time>2026-04-02T12:58:39.904Z</time></trkpt><trkpt lat="42.722116" lon="11.4884835"><ele>423.0</ele><time>2026-04-02T12:58:40.903Z</time></trkpt><trkpt lat="42.7219917" lon="11.4885973"><ele>420.75</ele><time>2026-04-02T12:58:41.904Z</time></trkpt><trkpt lat="42.7218751" lon="11.4886991"><ele>418.5</ele><time>2026-04-02T12:58:42.904Z</time></trkpt><trkpt lat="42.7217545" lon="11.4887779"><ele>416.25</ele><time>2026-04-02T12:58:43.904Z</time></trkpt><trkpt lat="42.7216293" lon="11.4888286"><ele>414.0</ele><time>2026-04-02T12:58:44.904Z</time></trkpt><trkpt lat="42.7214887" lon="11.4888483"><ele>413.0</ele><time>2026-04-02T12:58:45.904Z</time></trkpt><trkpt lat="42.7213431" lon="11.4888353"><ele>412.0</ele><time>2026-04-02T12:58:46.904Z</time></trkpt><trkpt lat="42.7211823" lon="11.4888209"><ele>411.0</ele><time>2026-04-02T12:58:47.904Z</time></trkpt><trkpt lat="42.721027" lon="11.4888189"><ele>411.0</ele><time>2026-04-02T12:58:48.904Z</time></trkpt><trkpt lat="42.7208855" lon="11.4888299"><ele>411.0</ele><time>2026-04-02T12:58:49.904Z</time></trkpt><trkpt lat="42.720744" lon="11.4888541"><ele>411.0</ele><time>2026-04-02T12:58:50.904Z</time></trkpt><trkpt lat="42.7205885" lon="11.488893"><ele>411.0</ele><time>2026-04-02T12:58:51.904Z</time></trkpt><trkpt lat="42.7204296" lon="11.4889511"><ele>411.0</ele><time>2026-04-02T12:58:52.904Z</time></trkpt><trkpt lat="42.7202848" lon="11.4890216"><ele>411.0</ele><time>2026-04-02T12:58:53.904Z</time></trkpt><trkpt lat="42.7201392" lon="11.4891111"><ele>411.0</ele><time>2026-04-02T12:58:54.904Z</time></trkpt><trkpt lat="42.7199988" lon="11.4892049"><ele>410.75</ele><time>2026-04-02T12:58:55.904Z</time></trkpt><trkpt lat="42.7198712" lon="11.4892913"><ele>410.5</ele><time>2026-04-02T12:58:56.904Z</time></trkpt><trkpt lat="42.7197459" lon="11.4893832"><ele>410.25</ele><time>2026-04-02T12:58:57.904Z</time></trkpt><trkpt lat="42.7196292" lon="11.4894738"><ele>410.0</ele><time>2026-04-02T12:58:58.904Z</time></trkpt><trkpt lat="42.7195237" lon="11.4895869"><ele>410.25</ele><time>2026-04-02T12:58:59.904Z</time></trkpt><trkpt lat="42.7194384" lon="11.4897216"><ele>410.5</ele><time>2026-04-02T12:59:00.904Z</time></trkpt><trkpt lat="42.719363" lon="11.4898818"><ele>410.75</ele><time>2026-04-02T12:59:01.904Z</time></trkpt><trkpt lat="42.7192906" lon="11.4900597"><ele>411.0</ele><time>2026-04-02T12:59:02.904Z</time></trkpt><trkpt lat="42.7192175" lon="11.4902488"><ele>410.66666666666663</ele><time>2026-04-02T12:59:03.904Z</time></trkpt><trkpt lat="42.7191432" lon="11.490444"><ele>410.3333333333333</ele><time>2026-04-02T12:59:04.904Z</time></trkpt><trkpt lat="42.7190673" lon="11.4906353"><ele>410.0</ele><time>2026-04-02T12:59:05.904Z</time></trkpt><trkpt lat="42.7189976" lon="11.4908025"><ele>410.0</ele><time>2026-04-02T12:59:06.904Z</time></trkpt><trkpt lat="42.7189351" lon="11.4909506"><ele>410.0</ele><time>2026-04-02T12:59:07.904Z</time></trkpt><trkpt lat="42.7188687" lon="11.4910841"><ele>410.0</ele><time>2026-04-02T12:59:08.904Z</time></trkpt><trkpt lat="42.7187946" lon="11.4912088"><ele>410.0</ele><time>2026-04-02T12:59:09.903Z</time></trkpt><trkpt lat="42.7187015" lon="11.4913231"><ele>410.75</ele><time>2026-04-02T12:59:10.904Z</time></trkpt><trkpt lat="42.7185824" lon="11.4914304"><ele>411.5</ele><time>2026-04-02T12:59:11.904Z</time></trkpt><trkpt lat="42.7184549" lon="11.4915298"><ele>412.25</ele><time>2026-04-02T12:59:12.904Z</time></trkpt><trkpt lat="42.7183375" lon="11.4916106"><ele>413.0</ele><time>2026-04-02T12:59:13.904Z</time></trkpt><trkpt lat="42.7182311" lon="11.4916772"><ele>413.0</ele><time>2026-04-02T12:59:14.904Z</time></trkpt><trkpt lat="42.7181372" lon="11.4917427"><ele>413.0</ele><time>2026-04-02T12:59:15.903Z</time></trkpt><trkpt lat="42.7180396" lon="11.4918095"><ele>413.0</ele><time>2026-04-02T12:59:16.904Z</time></trkpt><trkpt lat="42.7179398" lon="11.4918912"><ele>413.0</ele><time>2026-04-02T12:59:17.904Z</time></trkpt><trkpt lat="42.7178307" lon="11.4919667"><ele>413.75</ele><time>2026-04-02T12:59:18.904Z</time></trkpt><trkpt lat="42.7177188" lon="11.4920337"><ele>414.5</ele><time>2026-04-02T12:59:19.904Z</time></trkpt><trkpt lat="42.7176119" lon="11.4920596"><ele>415.25</ele><time>2026-04-02T12:59:20.904Z</time></trkpt><trkpt lat="42.7174977" lon="11.4920568"><ele>416.0</ele><time>2026-04-02T12:59:21.904Z</time></trkpt><trkpt lat="42.717384" lon="11.4920262"><ele>415.99999999999994</ele><time>2026-04-02T12:59:22.904Z</time></trkpt><trkpt lat="42.7172815" lon="11.4919904"><ele>416.0</ele><time>2026-04-02T12:59:23.904Z</time></trkpt><trkpt lat="42.7172006" lon="11.4919477"><ele>416.0</ele><time>2026-04-02T12:59:24.904Z</time></trkpt><trkpt lat="42.7171141" lon="11.4919254"><ele>416.0</ele><time>2026-04-02T12:59:25.904Z</time></trkpt><trkpt lat="42.7170277" lon="11.4919231"><ele>415.99999999999994</ele><time>2026-04-02T12:59:26.904Z</time></trkpt><trkpt lat="42.7169513" lon="11.4919462"><ele>416.0</ele><time>2026-04-02T12:59:27.904Z</time></trkpt><trkpt lat="42.7168653" lon="11.4919904"><ele>413.0</ele><time>2026-04-02T12:59:28.904Z</time></trkpt><trkpt lat="42.7167606" lon="11.4920307"><ele>410.0</ele><time>2026-04-02T12:59:29.904Z</time></trkpt><trkpt lat="42.7166417" lon="11.492058"><ele>407.0</ele><time>2026-04-02T12:59:30.904Z</time></trkpt><trkpt lat="42.7165048" lon="11.4920418"><ele>404.0</ele><time>2026-04-02T12:59:31.904Z</time></trkpt><trkpt lat="42.7163575" lon="11.4919949"><ele>404.0</ele><time>2026-04-02T12:59:32.904Z</time></trkpt><trkpt lat="42.716188" lon="11.4919387"><ele>404.0</ele><time>2026-04-02T12:59:33.904Z</time></trkpt><trkpt lat="42.7160002" lon="11.491877"><ele>404.0</ele><time>2026-04-02T12:59:34.904Z</time></trkpt><trkpt lat="42.7158236" lon="11.4918115"><ele>402.66666666666663</ele><time>2026-04-02T12:59:35.904Z</time></trkpt><trkpt lat="42.715663" lon="11.4917513"><ele>401.33333333333337</ele><time>2026-04-02T12:59:36.904Z</time></trkpt><trkpt lat="42.7154965" lon="11.4916829"><ele>400.0</ele><time>2026-04-02T12:59:37.904Z</time></trkpt><trkpt lat="42.7153182" lon="11.4916106"><ele>399.6666666666667</ele><time>2026-04-02T12:59:38.904Z</time></trkpt><trkpt lat="42.7151196" lon="11.491535"><ele>399.33333333333337</ele><time>2026-04-02T12:59:39.904Z</time></trkpt><trkpt lat="42.7149287" lon="11.491469"><ele>399.0</ele><time>2026-04-02T12:59:40.904Z</time></trkpt><trkpt lat="42.7147452" lon="11.4914003"><ele>399.0</ele><time>2026-04-02T12:59:41.904Z</time></trkpt><trkpt lat="42.7145649" lon="11.4913387"><ele>399.0</ele><time>2026-04-02T12:59:42.904Z</time></trkpt><trkpt lat="42.7143974" lon="11.4912706"><ele>399.0</ele><time>2026-04-02T12:59:43.903Z</time></trkpt><trkpt lat="42.7142509" lon="11.491209"><ele>396.5</ele><time>2026-04-02T12:59:44.904Z</time></trkpt><trkpt lat="42.7141108" lon="11.4911591"><ele>394.0</ele><time>2026-04-02T12:59:45.904Z</time></trkpt><trkpt lat="42.7139815" lon="11.4911147"><ele>391.5</ele><time>2026-04-02T12:59:46.904Z</time></trkpt><trkpt lat="42.713864" lon="11.4911006"><ele>389.0</ele><time>2026-04-02T12:59:47.904Z</time></trkpt><trkpt lat="42.713739" lon="11.4911252"><ele>389.0</ele><time>2026-04-02T12:59:48.904Z</time></trkpt><trkpt lat="42.713628" lon="11.4912087"><ele>389.0</ele><time>2026-04-02T12:59:49.904Z</time></trkpt><trkpt lat="42.7135114" lon="11.4913074"><ele>389.0</ele><time>2026-04-02T12:59:50.904Z</time></trkpt><trkpt lat="42.7133943" lon="11.491413"><ele>389.0</ele><time>2026-04-02T12:59:51.904Z</time></trkpt><trkpt lat="42.7132789" lon="11.4915169"><ele>387.25</ele><time>2026-04-02T12:59:52.903Z</time></trkpt><trkpt lat="42.7131641" lon="11.4916211"><ele>385.5</ele><time>2026-04-02T12:59:53.904Z</time></trkpt><trkpt lat="42.7130595" lon="11.4917259"><ele>383.75</ele><time>2026-04-02T12:59:54.904Z</time></trkpt><trkpt lat="42.7129627" lon="11.491816"><ele>382.0</ele><time>2026-04-02T12:59:55.903Z</time></trkpt><trkpt lat="42.7128751" lon="11.4918993"><ele>382.0</ele><time>2026-04-02T12:59:56.904Z</time></trkpt><trkpt lat="42.7127887" lon="11.4919442"><ele>382.0</ele><time>2026-04-02T12:59:57.904Z</time></trkpt><trkpt lat="42.7127112" lon="11.4919379"><ele>382.0</ele><time>2026-04-02T12:59:58.904Z</time></trkpt><trkpt lat="42.7126242" lon="11.4918008"><ele>382.0</ele><time>2026-04-02T13:00:00.904Z</time></trkpt><trkpt lat="42.7125938" lon="11.4916681"><ele>382.0</ele><time>2026-04-02T13:00:01.904Z</time></trkpt><trkpt lat="42.7125585" lon="11.491512"><ele>380.5</ele><time>2026-04-02T13:00:02.904Z</time></trkpt><trkpt lat="42.7125097" lon="11.4913255"><ele>379.0</ele><time>2026-04-02T13:00:03.903Z</time></trkpt><trkpt lat="42.7124537" lon="11.4911259"><ele>377.5</ele><time>2026-04-02T13:00:04.904Z</time></trkpt><trkpt lat="42.7124047" lon="11.4909413"><ele>376.0</ele><time>2026-04-02T13:00:05.904Z</time></trkpt><trkpt lat="42.7123536" lon="11.4907684"><ele>375.25</ele><time>2026-04-02T13:00:06.904Z</time></trkpt><trkpt lat="42.7122917" lon="11.4906006"><ele>374.5</ele><time>2026-04-02T13:00:07.903Z</time></trkpt><trkpt lat="42.7122204" lon="11.4904367"><ele>373.75</ele><time>2026-04-02T13:00:08.904Z</time></trkpt><trkpt lat="42.7121421" lon="11.4902818"><ele>373.0</ele><time>2026-04-02T13:00:09.904Z</time></trkpt><trkpt lat="42.7120677" lon="11.4901519"><ele>371.0</ele><time>2026-04-02T13:00:10.903Z</time></trkpt><trkpt lat="42.7119841" lon="11.4900574"><ele>369.0</ele><time>2026-04-02T13:00:11.904Z</time></trkpt><trkpt lat="42.7118765" lon="11.4899926"><ele>367.0</ele><time>2026-04-02T13:00:12.904Z</time></trkpt><trkpt lat="42.7117543" lon="11.4899734"><ele>365.0</ele><time>2026-04-02T13:00:13.904Z</time></trkpt><trkpt lat="42.7116145" lon="11.4899815"><ele>362.0</ele><time>2026-04-02T13:00:14.904Z</time></trkpt><trkpt lat="42.7114597" lon="11.4899984"><ele>359.0</ele><time>2026-04-02T13:00:15.904Z</time></trkpt><trkpt lat="42.711292" lon="11.4900232"><ele>356.0</ele><time>2026-04-02T13:00:16.904Z</time></trkpt><trkpt lat="42.7111117" lon="11.4900506"><ele>353.0</ele><time>2026-04-02T13:00:17.904Z</time></trkpt><trkpt lat="42.7109225" lon="11.4900801"><ele>350.0</ele><time>2026-04-02T13:00:18.904Z</time></trkpt><trkpt lat="42.710755" lon="11.4901028"><ele>347.0</ele><time>2026-04-02T13:00:19.904Z</time></trkpt><trkpt lat="42.7105988" lon="11.4901258"><ele>347.0</ele><time>2026-04-02T13:00:20.904Z</time></trkpt><trkpt lat="42.7104579" lon="11.4901376"><ele>347.0</ele><time>2026-04-02T13:00:21.904Z</time></trkpt><trkpt lat="42.7103269" lon="11.4901242"><ele>347.0</ele><time>2026-04-02T13:00:22.904Z</time></trkpt><trkpt lat="42.7102165" lon="11.4900859"><ele>347.0</ele><time>2026-04-02T13:00:23.904Z</time></trkpt><trkpt lat="42.7101246" lon="11.4900375"><ele>346.33333333333337</ele><time>2026-04-02T13:00:24.904Z</time></trkpt><trkpt lat="42.7100557" lon="11.489991"><ele>345.6666666666667</ele><time>2026-04-02T13:00:25.904Z</time></trkpt><trkpt lat="42.7099963" lon="11.4899475"><ele>345.0</ele><time>2026-04-02T13:00:26.904Z</time></trkpt><trkpt lat="42.7099397" lon="11.4899068"><ele>344.3333333333333</ele><time>2026-04-02T13:00:27.904Z</time></trkpt><trkpt lat="42.7098336" lon="11.4898234"><ele>343.66666666666663</ele><time>2026-04-02T13:00:29.904Z</time></trkpt><trkpt lat="42.7097713" lon="11.4897742"><ele>343.0</ele><time>2026-04-02T13:00:30.904Z</time></trkpt><trkpt lat="42.7097039" lon="11.4897158"><ele>343.0</ele><time>2026-04-02T13:00:31.904Z</time></trkpt><trkpt lat="42.7096305" lon="11.4896503"><ele>343.0</ele><time>2026-04-02T13:00:32.904Z</time></trkpt><trkpt lat="42.709553" lon="11.4895777"><ele>343.0</ele><time>2026-04-02T13:00:33.904Z</time></trkpt><trkpt lat="42.709473" lon="11.4894952"><ele>343.0</ele><time>2026-04-02T13:00:34.904Z</time></trkpt><trkpt lat="42.7093835" lon="11.4894054"><ele>343.0</ele><time>2026-04-02T13:00:35.904Z</time></trkpt><trkpt lat="42.7093015" lon="11.4893072"><ele>341.79999999999995</ele><time>2026-04-02T13:00:36.904Z</time></trkpt><trkpt lat="42.7092225" lon="11.4892149"><ele>340.6</ele><time>2026-04-02T13:00:37.904Z</time></trkpt><trkpt lat="42.7091444" lon="11.489133"><ele>339.4</ele><time>2026-04-02T13:00:38.904Z</time></trkpt><trkpt lat="42.7090666" lon="11.4890575"><ele>338.20000000000005</ele><time>2026-04-02T13:00:39.903Z</time></trkpt><trkpt lat="42.7089727" lon="11.4889886"><ele>337.0</ele><time>2026-04-02T13:00:40.904Z</time></trkpt><trkpt lat="42.7088611" lon="11.4889366"><ele>337.0</ele><time>2026-04-02T13:00:41.904Z</time></trkpt><trkpt lat="42.7087399" lon="11.4889017"><ele>337.0</ele><time>2026-04-02T13:00:42.904Z</time></trkpt><trkpt lat="42.7086065" lon="11.4888683"><ele>337.0</ele><time>2026-04-02T13:00:43.904Z</time></trkpt><trkpt lat="42.7084658" lon="11.4888386"><ele>337.0</ele><time>2026-04-02T13:00:44.904Z</time></trkpt><trkpt lat="42.7083339" lon="11.488805"><ele>336.0</ele><time>2026-04-02T13:00:45.904Z</time></trkpt><trkpt lat="42.7082025" lon="11.488782"><ele>335.0</ele><time>2026-04-02T13:00:46.904Z</time></trkpt><trkpt lat="42.7080768" lon="11.4887558"><ele>334.0</ele><time>2026-04-02T13:00:47.904Z</time></trkpt><trkpt lat="42.7079621" lon="11.4887131"><ele>333.0</ele><time>2026-04-02T13:00:48.904Z</time></trkpt><trkpt lat="42.7078606" lon="11.488646"><ele>331.59999999999997</ele><time>2026-04-02T13:00:49.904Z</time></trkpt><trkpt lat="42.7077769" lon="11.4885565"><ele>330.2</ele><time>2026-04-02T13:00:50.904Z</time></trkpt><trkpt lat="42.7077201" lon="11.4884611"><ele>328.8</ele><time>2026-04-02T13:00:51.904Z</time></trkpt><trkpt lat="42.7077048" lon="11.4883625"><ele>327.4</ele><time>2026-04-02T13:00:52.904Z</time></trkpt><trkpt lat="42.707725" lon="11.4882753"><ele>326.0</ele><time>2026-04-02T13:00:53.904Z</time></trkpt><trkpt lat="42.7078386" lon="11.4882193"><ele>326.0</ele><time>2026-04-02T13:00:55.904Z</time></trkpt><trkpt lat="42.7079042" lon="11.4882527"><ele>326.0</ele><time>2026-04-02T13:00:56.904Z</time></trkpt><trkpt lat="42.7079736" lon="11.4883069"><ele>326.0</ele><time>2026-04-02T13:00:57.904Z</time></trkpt><trkpt lat="42.7080486" lon="11.4883618"><ele>326.0</ele><time>2026-04-02T13:00:58.904Z</time></trkpt><trkpt lat="42.708119" lon="11.4883932"><ele>326.0</ele><time>2026-04-02T13:00:59.903Z</time></trkpt><trkpt lat="42.708186" lon="11.4883903"><ele>326.0</ele><time>2026-04-02T13:01:00.903Z</time></trkpt><trkpt lat="42.7082438" lon="11.4883535"><ele>326.0</ele><time>2026-04-02T13:01:01.903Z</time></trkpt><trkpt lat="42.7082982" lon="11.4882119"><ele>326.0</ele><time>2026-04-02T13:01:03.904Z</time></trkpt><trkpt lat="42.7082386" lon="11.4880751"><ele>326.0</ele><time>2026-04-02T13:01:05.903Z</time></trkpt><trkpt lat="42.7081219" lon="11.4879797"><ele>326.0</ele><time>2026-04-02T13:01:07.904Z</time></trkpt><trkpt lat="42.7080497" lon="11.4879309"><ele>326.0</ele><time>2026-04-02T13:01:08.904Z</time></trkpt><trkpt lat="42.7079714" lon="11.4878701"><ele>326.0</ele><time>2026-04-02T13:01:09.904Z</time></trkpt><trkpt lat="42.707893" lon="11.4878107"><ele>323.6666666666667</ele><time>2026-04-02T13:01:10.904Z</time></trkpt><trkpt lat="42.7078251" lon="11.4877512"><ele>321.33333333333337</ele><time>2026-04-02T13:01:11.904Z</time></trkpt><trkpt lat="42.707756" lon="11.4876913"><ele>319.0</ele><time>2026-04-02T13:01:12.904Z</time></trkpt><trkpt lat="42.7076868" lon="11.4876303"><ele>316.6666666666667</ele><time>2026-04-02T13:01:13.904Z</time></trkpt><trkpt lat="42.7076186" lon="11.4875743"><ele>314.3333333333333</ele><time>2026-04-02T13:01:14.904Z</time></trkpt><trkpt lat="42.7075655" lon="11.4875074"><ele>312.0</ele><time>2026-04-02T13:01:15.904Z</time></trkpt><trkpt lat="42.7075233" lon="11.4873796"><ele>312.0</ele><time>2026-04-02T13:01:17.904Z</time></trkpt><trkpt lat="42.7075676" lon="11.4872733"><ele>312.0</ele><time>2026-04-02T13:01:19.904Z</time></trkpt><trkpt lat="42.7076656" lon="11.4872603"><ele>312.0</ele><time>2026-04-02T13:01:21.904Z</time></trkpt><trkpt lat="42.7077788" lon="11.4872608"><ele>312.0</ele><time>2026-04-02T13:01:23.904Z</time></trkpt><trkpt lat="42.7078431" lon="11.4872499"><ele>312.0</ele><time>2026-04-02T13:01:24.904Z</time></trkpt><trkpt lat="42.707916" lon="11.4872472"><ele>312.0</ele><time>2026-04-02T13:01:25.904Z</time></trkpt><trkpt lat="42.7079956" lon="11.4872404"><ele>311.6666666666667</ele><time>2026-04-02T13:01:26.904Z</time></trkpt><trkpt lat="42.7080631" lon="11.4872318"><ele>311.3333333333333</ele><time>2026-04-02T13:01:27.904Z</time></trkpt><trkpt lat="42.7081514" lon="11.4871606"><ele>311.0</ele><time>2026-04-02T13:01:29.903Z</time></trkpt><trkpt lat="42.7081495" lon="11.4870384"><ele>310.66666666666663</ele><time>2026-04-02T13:01:31.903Z</time></trkpt><trkpt lat="42.7081051" lon="11.4869704"><ele>310.3333333333333</ele><time>2026-04-02T13:01:32.904Z</time></trkpt><trkpt lat="42.7080399" lon="11.4868987"><ele>310.0</ele><time>2026-04-02T13:01:33.904Z</time></trkpt><trkpt lat="42.7079516" lon="11.4868169"><ele>307.5</ele><time>2026-04-02T13:01:34.904Z</time></trkpt><trkpt lat="42.7078597" lon="11.4867201"><ele>305.0</ele><time>2026-04-02T13:01:35.904Z</time></trkpt><trkpt lat="42.707769" lon="11.4866182"><ele>302.5</ele><time>2026-04-02T13:01:36.904Z</time></trkpt><trkpt lat="42.7076778" lon="11.4865172"><ele>300.0</ele><time>2026-04-02T13:01:37.904Z</time></trkpt><trkpt lat="42.7075734" lon="11.486409"><ele>300.0</ele><time>2026-04-02T13:01:38.904Z</time></trkpt><trkpt lat="42.7074537" lon="11.4863091"><ele>300.0</ele><time>2026-04-02T13:01:39.904Z</time></trkpt><trkpt lat="42.7073263" lon="11.486221"><ele>300.0</ele><time>2026-04-02T13:01:40.904Z</time></trkpt><trkpt lat="42.7071987" lon="11.486136"><ele>300.0</ele><time>2026-04-02T13:01:41.904Z</time></trkpt><trkpt lat="42.7070985" lon="11.4860717"><ele>297.1666666666667</ele><time>2026-04-02T13:01:42.904Z</time></trkpt><trkpt lat="42.7070127" lon="11.4860244"><ele>294.3333333333333</ele><time>2026-04-02T13:01:43.904Z</time></trkpt><trkpt lat="42.7069304" lon="11.4859838"><ele>291.5</ele><time>2026-04-02T13:01:44.904Z</time></trkpt><trkpt lat="42.706851" lon="11.4859456"><ele>288.66666666666663</ele><time>2026-04-02T13:01:45.904Z</time></trkpt><trkpt lat="42.7067742" lon="11.4859149"><ele>285.8333333333333</ele><time>2026-04-02T13:01:46.904Z</time></trkpt><trkpt lat="42.7066792" lon="11.4858895"><ele>283.0</ele><time>2026-04-02T13:01:47.903Z</time></trkpt><trkpt lat="42.7065885" lon="11.4858611"><ele>282.6</ele><time>2026-04-02T13:01:48.904Z</time></trkpt><trkpt lat="42.7064732" lon="11.4858376"><ele>282.20000000000005</ele><time>2026-04-02T13:01:49.904Z</time></trkpt><trkpt lat="42.7063737" lon="11.485815"><ele>281.8</ele><time>2026-04-02T13:01:50.904Z</time></trkpt><trkpt lat="42.7062718" lon="11.4857964"><ele>281.40000000000003</ele><time>2026-04-02T13:01:51.904Z</time></trkpt><trkpt lat="42.7061746" lon="11.4857778"><ele>281.0</ele><time>2026-04-02T13:01:52.904Z</time></trkpt><trkpt lat="42.7060773" lon="11.4857677"><ele>279.40000000000003</ele><time>2026-04-02T13:01:53.904Z</time></trkpt><trkpt lat="42.7059756" lon="11.485771"><ele>277.8</ele><time>2026-04-02T13:01:54.904Z</time></trkpt><trkpt lat="42.7058768" lon="11.4857957"><ele>276.20000000000005</ele><time>2026-04-02T13:01:55.904Z</time></trkpt><trkpt lat="42.7057859" lon="11.4858312"><ele>274.6</ele><time>2026-04-02T13:01:56.904Z</time></trkpt><trkpt lat="42.7057014" lon="11.4858934"><ele>273.0</ele><time>2026-04-02T13:01:57.904Z</time></trkpt><trkpt lat="42.705623" lon="11.4859843"><ele>273.0</ele><time>2026-04-02T13:01:58.904Z</time></trkpt><trkpt lat="42.7055478" lon="11.4860955"><ele>273.0</ele><time>2026-04-02T13:01:59.904Z</time></trkpt><trkpt lat="42.7054728" lon="11.4862082"><ele>273.0</ele><time>2026-04-02T13:02:00.904Z</time></trkpt><trkpt lat="42.7053968" lon="11.4863236"><ele>273.0</ele><time>2026-04-02T13:02:01.904Z</time></trkpt><trkpt lat="42.7053286" lon="11.4864326"><ele>273.0</ele><time>2026-04-02T13:02:02.904Z</time></trkpt><trkpt lat="42.7052596" lon="11.4865384"><ele>270.8</ele><time>2026-04-02T13:02:03.904Z</time></trkpt><trkpt lat="42.7051912" lon="11.4866371"><ele>268.6</ele><time>2026-04-02T13:02:04.904Z</time></trkpt><trkpt lat="42.7051137" lon="11.4867218"><ele>266.4</ele><time>2026-04-02T13:02:05.903Z</time></trkpt><trkpt lat="42.7050156" lon="11.4867904"><ele>264.2</ele><time>2026-04-02T13:02:06.904Z</time></trkpt><trkpt lat="42.7049117" lon="11.4868385"><ele>262.0</ele><time>2026-04-02T13:02:07.904Z</time></trkpt><trkpt lat="42.7048082" lon="11.4868709"><ele>262.0</ele><time>2026-04-02T13:02:08.904Z</time></trkpt><trkpt lat="42.7047087" lon="11.4869023"><ele>262.0</ele><time>2026-04-02T13:02:09.904Z</time></trkpt><trkpt lat="42.7046135" lon="11.4869435"><ele>262.0</ele><time>2026-04-02T13:02:10.904Z</time></trkpt><trkpt lat="42.7045199" lon="11.4870062"><ele>262.0</ele><time>2026-04-02T13:02:11.904Z</time></trkpt><trkpt lat="42.7044377" lon="11.4870981"><ele>262.0</ele><time>2026-04-02T13:02:12.904Z</time></trkpt><trkpt lat="42.7043666" lon="11.487211"><ele>259.8333333333333</ele><time>2026-04-02T13:02:13.903Z</time></trkpt><trkpt lat="42.7043089" lon="11.4873243"><ele>257.66666666666663</ele><time>2026-04-02T13:02:14.904Z</time></trkpt><trkpt lat="42.704256" lon="11.4874215"><ele>255.5</ele><time>2026-04-02T13:02:15.904Z</time></trkpt><trkpt lat="42.7042046" lon="11.4875069"><ele>253.33333333333331</ele><time>2026-04-02T13:02:16.904Z</time></trkpt><trkpt lat="42.7041514" lon="11.4875753"><ele>251.16666666666666</ele><time>2026-04-02T13:02:17.904Z</time></trkpt><trkpt lat="42.7040598" lon="11.4876019"><ele>249.0</ele><time>2026-04-02T13:02:19.904Z</time></trkpt><trkpt lat="42.703996" lon="11.487532"><ele>249.0</ele><time>2026-04-02T13:02:21.904Z</time></trkpt><trkpt lat="42.7039679" lon="11.4874538"><ele>249.0</ele><time>2026-04-02T13:02:22.904Z</time></trkpt><trkpt lat="42.7039485" lon="11.4873485"><ele>249.0</ele><time>2026-04-02T13:02:23.904Z</time></trkpt><trkpt lat="42.7039378" lon="11.4872351"><ele>249.0</ele><time>2026-04-02T13:02:24.903Z</time></trkpt><trkpt lat="42.7039269" lon="11.4871109"><ele>249.0</ele><time>2026-04-02T13:02:25.903Z</time></trkpt><trkpt lat="42.7039047" lon="11.4869926"><ele>249.0</ele><time>2026-04-02T13:02:26.904Z</time></trkpt><trkpt lat="42.7038698" lon="11.4868883"><ele>249.6</ele><time>2026-04-02T13:02:27.904Z</time></trkpt><trkpt lat="42.7038291" lon="11.4867753"><ele>250.2</ele><time>2026-04-02T13:02:28.903Z</time></trkpt><trkpt lat="42.7037786" lon="11.4866706"><ele>250.79999999999998</ele><time>2026-04-02T13:02:29.904Z</time></trkpt><trkpt lat="42.7037125" lon="11.4865857"><ele>251.39999999999998</ele><time>2026-04-02T13:02:30.904Z</time></trkpt><trkpt lat="42.7036318" lon="11.4865192"><ele>252.0</ele><time>2026-04-02T13:02:31.904Z</time></trkpt><trkpt lat="42.7035411" lon="11.4864726"><ele>249.39999999999998</ele><time>2026-04-02T13:02:32.904Z</time></trkpt><trkpt lat="42.7034515" lon="11.4864418"><ele>246.79999999999998</ele><time>2026-04-02T13:02:33.904Z</time></trkpt><trkpt lat="42.703351" lon="11.4864121"><ele>244.2</ele><time>2026-04-02T13:02:34.904Z</time></trkpt><trkpt lat="42.7032578" lon="11.4863791"><ele>241.6</ele><time>2026-04-02T13:02:35.904Z</time></trkpt><trkpt lat="42.7031698" lon="11.4863341"><ele>239.0</ele><time>2026-04-02T13:02:36.904Z</time></trkpt><trkpt lat="42.703096" lon="11.4862755"><ele>239.00000000000003</ele><time>2026-04-02T13:02:37.903Z</time></trkpt><trkpt lat="42.7030374" lon="11.4862238"><ele>239.0</ele><time>2026-04-02T13:02:38.904Z</time></trkpt><trkpt lat="42.702967" lon="11.4861266"><ele>239.0</ele><time>2026-04-02T13:02:40.904Z</time></trkpt><trkpt lat="42.7029377" lon="11.4860106"><ele>239.0</ele><time>2026-04-02T13:02:42.903Z</time></trkpt><trkpt lat="42.7029315" lon="11.4858962"><ele>239.00000000000003</ele><time>2026-04-02T13:02:44.904Z</time></trkpt><trkpt lat="42.702943" lon="11.4857884"><ele>239.0</ele><time>2026-04-02T13:02:46.904Z</time></trkpt><trkpt lat="42.7029694" lon="11.4856521"><ele>239.0</ele><time>2026-04-02T13:02:48.904Z</time></trkpt><trkpt lat="42.703" lon="11.4854926"><ele>238.99999999999997</ele><time>2026-04-02T13:02:50.904Z</time></trkpt><trkpt lat="42.7030158" lon="11.4854085"><ele>238.99999999999997</ele><time>2026-04-02T13:02:51.904Z</time></trkpt><trkpt lat="42.703051" lon="11.4852511"><ele>239.0</ele><time>2026-04-02T13:02:53.904Z</time></trkpt><trkpt lat="42.7030725" lon="11.4851632"><ele>239.0</ele><time>2026-04-02T13:02:54.904Z</time></trkpt><trkpt lat="42.7031298" lon="11.4850179"><ele>238.00000000000003</ele><time>2026-04-02T13:02:56.904Z</time></trkpt><trkpt lat="42.7031723" lon="11.4849436"><ele>237.0</ele><time>2026-04-02T13:02:57.904Z</time></trkpt><trkpt lat="42.7032181" lon="11.4848643"><ele>236.0</ele><time>2026-04-02T13:02:58.904Z</time></trkpt><trkpt lat="42.7032775" lon="11.4847744"><ele>235.0</ele><time>2026-04-02T13:02:59.904Z</time></trkpt><trkpt lat="42.7033375" lon="11.4846832"><ele>234.00000000000003</ele><time>2026-04-02T13:03:00.904Z</time></trkpt><trkpt lat="42.7033978" lon="11.4845947"><ele>233.0</ele><time>2026-04-02T13:03:01.904Z</time></trkpt><trkpt lat="42.7034602" lon="11.4845051"><ele>232.60000000000002</ele><time>2026-04-02T13:03:02.904Z</time></trkpt><trkpt lat="42.7035139" lon="11.4844067"><ele>232.20000000000002</ele><time>2026-04-02T13:03:03.904Z</time></trkpt><trkpt lat="42.7035591" lon="11.4843048"><ele>231.8</ele><time>2026-04-02T13:03:04.904Z</time></trkpt><trkpt lat="42.7035917" lon="11.4841839"><ele>231.4</ele><time>2026-04-02T13:03:05.904Z</time></trkpt><trkpt lat="42.7036105" lon="11.48405"><ele>231.0</ele><time>2026-04-02T13:03:06.904Z</time></trkpt><trkpt lat="42.7036095" lon="11.4839111"><ele>231.0</ele><time>2026-04-02T13:03:07.904Z</time></trkpt><trkpt lat="42.7036037" lon="11.4837648"><ele>231.0</ele><time>2026-04-02T13:03:08.904Z</time></trkpt><trkpt lat="42.7035948" lon="11.4836082"><ele>231.0</ele><time>2026-04-02T13:03:09.904Z</time></trkpt><trkpt lat="42.7035856" lon="11.4834462"><ele>231.0</ele><time>2026-04-02T13:03:10.904Z</time></trkpt><trkpt lat="42.7035756" lon="11.4832835"><ele>229.4</ele><time>2026-04-02T13:03:11.904Z</time></trkpt><trkpt lat="42.7035737" lon="11.4831305"><ele>227.8</ele><time>2026-04-02T13:03:12.904Z</time></trkpt><trkpt lat="42.7035702" lon="11.4829992"><ele>226.20000000000002</ele><time>2026-04-02T13:03:13.904Z</time></trkpt><trkpt lat="42.7035771" lon="11.4828577"><ele>224.60000000000002</ele><time>2026-04-02T13:03:14.903Z</time></trkpt><trkpt lat="42.7035984" lon="11.4827029"><ele>223.0</ele><time>2026-04-02T13:03:15.904Z</time></trkpt><trkpt lat="42.7036318" lon="11.4825486"><ele>223.0</ele><time>2026-04-02T13:03:16.904Z</time></trkpt><trkpt lat="42.7036755" lon="11.482414"><ele>223.0</ele><time>2026-04-02T13:03:17.904Z</time></trkpt><trkpt lat="42.7037317" lon="11.4822823"><ele>223.0</ele><time>2026-04-02T13:03:18.904Z</time></trkpt><trkpt lat="42.7038048" lon="11.4821531"><ele>223.0</ele><time>2026-04-02T13:03:19.903Z</time></trkpt><trkpt lat="42.7038993" lon="11.4820245"><ele>224.25</ele><time>2026-04-02T13:03:20.904Z</time></trkpt><trkpt lat="42.7040002" lon="11.4819008"><ele>225.5</ele><time>2026-04-02T13:03:21.904Z</time></trkpt><trkpt lat="42.7040866" lon="11.4817811"><ele>226.75</ele><time>2026-04-02T13:03:22.903Z</time></trkpt><trkpt lat="42.7041669" lon="11.4816716"><ele>228.0</ele><time>2026-04-02T13:03:23.904Z</time></trkpt><trkpt lat="42.7042337" lon="11.4815432"><ele>228.0</ele><time>2026-04-02T13:03:24.904Z</time></trkpt><trkpt lat="42.7042807" lon="11.4813859"><ele>228.0</ele><time>2026-04-02T13:03:25.904Z</time></trkpt><trkpt lat="42.7043079" lon="11.4812022"><ele>228.0</ele><time>2026-04-02T13:03:26.904Z</time></trkpt><trkpt lat="42.7043262" lon="11.4810096"><ele>228.0</ele><time>2026-04-02T13:03:27.904Z</time></trkpt><trkpt lat="42.7043407" lon="11.4808119"><ele>229.5</ele><time>2026-04-02T13:03:28.904Z</time></trkpt><trkpt lat="42.7043586" lon="11.4806166"><ele>231.0</ele><time>2026-04-02T13:03:29.904Z</time></trkpt><trkpt lat="42.7043976" lon="11.4804406"><ele>232.5</ele><time>2026-04-02T13:03:30.904Z</time></trkpt><trkpt lat="42.7044563" lon="11.4802905"><ele>234.0</ele><time>2026-04-02T13:03:31.904Z</time></trkpt><trkpt lat="42.7045383" lon="11.4801471"><ele>235.25</ele><time>2026-04-02T13:03:32.903Z</time></trkpt><trkpt lat="42.7046295" lon="11.4800028"><ele>236.5</ele><time>2026-04-02T13:03:33.904Z</time></trkpt><trkpt lat="42.7047226" lon="11.4798663"><ele>237.75</ele><time>2026-04-02T13:03:34.904Z</time></trkpt><trkpt lat="42.7048168" lon="11.4797285"><ele>239.0</ele><time>2026-04-02T13:03:35.904Z</time></trkpt><trkpt lat="42.7049046" lon="11.4795941"><ele>239.0</ele><time>2026-04-02T13:03:36.904Z</time></trkpt><trkpt lat="42.7049872" lon="11.4794632"><ele>239.0</ele><time>2026-04-02T13:03:37.904Z</time></trkpt><trkpt lat="42.7050684" lon="11.4793453"><ele>239.0</ele><time>2026-04-02T13:03:38.904Z</time></trkpt><trkpt lat="42.7051445" lon="11.4792327"><ele>239.0</ele><time>2026-04-02T13:03:39.904Z</time></trkpt><trkpt lat="42.7052174" lon="11.4791272"><ele>240.0</ele><time>2026-04-02T13:03:40.904Z</time></trkpt><trkpt lat="42.705287" lon="11.4790321"><ele>240.99999999999997</ele><time>2026-04-02T13:03:41.904Z</time></trkpt><trkpt lat="42.7053464" lon="11.4789556"><ele>241.99999999999997</ele><time>2026-04-02T13:03:42.904Z</time></trkpt><trkpt lat="42.7054164" lon="11.4788347"><ele>243.0</ele><time>2026-04-02T13:03:44.904Z</time></trkpt><trkpt lat="42.7053776" lon="11.4787158"><ele>244.0</ele><time>2026-04-02T13:03:47.904Z</time></trkpt><trkpt lat="42.7053191" lon="11.4786823"><ele>243.5</ele><time>2026-04-02T13:03:48.904Z</time></trkpt><trkpt lat="42.7052287" lon="11.4786487"><ele>243.0</ele><time>2026-04-02T13:03:49.904Z</time></trkpt><trkpt lat="42.7051192" lon="11.4786245"><ele>242.5</ele><time>2026-04-02T13:03:50.904Z</time></trkpt><trkpt lat="42.7049881" lon="11.4785917"><ele>242.0</ele><time>2026-04-02T13:03:51.904Z</time></trkpt><trkpt lat="42.704849" lon="11.4785575"><ele>242.0</ele><time>2026-04-02T13:03:52.904Z</time></trkpt><trkpt lat="42.7046919" lon="11.478517"><ele>242.0</ele><time>2026-04-02T13:03:53.904Z</time></trkpt><trkpt lat="42.7045253" lon="11.4784785"><ele>242.0</ele><time>2026-04-02T13:03:54.904Z</time></trkpt><trkpt lat="42.704353" lon="11.4784354"><ele>241.0</ele><time>2026-04-02T13:03:55.904Z</time></trkpt><trkpt lat="42.7041797" lon="11.4783875"><ele>240.0</ele><time>2026-04-02T13:03:56.904Z</time></trkpt><trkpt lat="42.7039994" lon="11.4783492"><ele>239.0</ele><time>2026-04-02T13:03:57.904Z</time></trkpt><trkpt lat="42.7038103" lon="11.478313"><ele>239.0</ele><time>2026-04-02T13:03:58.904Z</time></trkpt><trkpt lat="42.7036152" lon="11.4782674"><ele>239.0</ele><time>2026-04-02T13:03:59.904Z</time></trkpt><trkpt lat="42.7034227" lon="11.4782201"><ele>239.0</ele><time>2026-04-02T13:04:00.904Z</time></trkpt><trkpt lat="42.7032373" lon="11.4781742"><ele>238.66666666666669</ele><time>2026-04-02T13:04:01.903Z</time></trkpt><trkpt lat="42.7030473" lon="11.4781298"><ele>238.33333333333331</ele><time>2026-04-02T13:04:02.904Z</time></trkpt><trkpt lat="42.7028535" lon="11.4780855"><ele>238.0</ele><time>2026-04-02T13:04:03.904Z</time></trkpt><trkpt lat="42.7026583" lon="11.4780418"><ele>238.0</ele><time>2026-04-02T13:04:04.904Z</time></trkpt><trkpt lat="42.7024599" lon="11.4779966"><ele>238.0</ele><time>2026-04-02T13:04:05.904Z</time></trkpt><trkpt lat="42.7022532" lon="11.4779507"><ele>238.0</ele><time>2026-04-02T13:04:06.904Z</time></trkpt><trkpt lat="42.7020571" lon="11.4779099"><ele>238.66666666666666</ele><time>2026-04-02T13:04:07.904Z</time></trkpt><trkpt lat="42.7018775" lon="11.4778596"><ele>239.33333333333331</ele><time>2026-04-02T13:04:08.904Z</time></trkpt><trkpt lat="42.7017058" lon="11.4778219"><ele>240.0</ele><time>2026-04-02T13:04:09.904Z</time></trkpt><trkpt lat="42.7015394" lon="11.4777794"><ele>240.0</ele><time>2026-04-02T13:04:10.904Z</time></trkpt><trkpt lat="42.7013814" lon="11.4777401"><ele>240.0</ele><time>2026-04-02T13:04:11.904Z</time></trkpt><trkpt lat="42.7012262" lon="11.4777013"><ele>240.0</ele><time>2026-04-02T13:04:12.904Z</time></trkpt><trkpt lat="42.7010741" lon="11.477673"><ele>238.66666666666669</ele><time>2026-04-02T13:04:13.904Z</time></trkpt><trkpt lat="42.7009197" lon="11.4776503"><ele>237.33333333333334</ele><time>2026-04-02T13:04:14.904Z</time></trkpt><trkpt lat="42.7007594" lon="11.4776418"><ele>236.0</ele><time>2026-04-02T13:04:15.904Z</time></trkpt><trkpt lat="42.700609" lon="11.4776434"><ele>236.0</ele><time>2026-04-02T13:04:16.904Z</time></trkpt><trkpt lat="42.7004719" lon="11.4776485"><ele>236.0</ele><time>2026-04-02T13:04:17.903Z</time></trkpt><trkpt lat="42.7003415" lon="11.477639"><ele>236.0</ele><time>2026-04-02T13:04:18.904Z</time></trkpt><trkpt lat="42.7002376" lon="11.4776041"><ele>236.0</ele><time>2026-04-02T13:04:19.904Z</time></trkpt><trkpt lat="42.7001459" lon="11.4775432"><ele>236.0</ele><time>2026-04-02T13:04:20.904Z</time></trkpt><trkpt lat="42.7000756" lon="11.4774631"><ele>236.00000000000003</ele><time>2026-04-02T13:04:21.904Z</time></trkpt><trkpt lat="42.7000326" lon="11.4773646"><ele>236.00000000000003</ele><time>2026-04-02T13:04:22.904Z</time></trkpt><trkpt lat="42.7000111" lon="11.4772524"><ele>236.0</ele><time>2026-04-02T13:04:23.904Z</time></trkpt><trkpt lat="42.699997" lon="11.4771127"><ele>236.0</ele><time>2026-04-02T13:04:24.904Z</time></trkpt><trkpt lat="42.6999722" lon="11.4769572"><ele>236.0</ele><time>2026-04-02T13:04:25.904Z</time></trkpt><trkpt lat="42.6999314" lon="11.476784"><ele>236.0</ele><time>2026-04-02T13:04:26.904Z</time></trkpt><trkpt lat="42.6998802" lon="11.4765946"><ele>236.0</ele><time>2026-04-02T13:04:27.904Z</time></trkpt><trkpt lat="42.6998189" lon="11.4763955"><ele>236.0</ele><time>2026-04-02T13:04:28.904Z</time></trkpt><trkpt lat="42.6997576" lon="11.4761865"><ele>237.66666666666669</ele><time>2026-04-02T13:04:29.904Z</time></trkpt><trkpt lat="42.6997015" lon="11.475986"><ele>239.33333333333331</ele><time>2026-04-02T13:04:30.904Z</time></trkpt><trkpt lat="42.6996456" lon="11.4757814"><ele>241.0</ele><time>2026-04-02T13:04:31.904Z</time></trkpt><trkpt lat="42.6995832" lon="11.475585"><ele>241.33333333333331</ele><time>2026-04-02T13:04:32.903Z</time></trkpt><trkpt lat="42.6995269" lon="11.4753887"><ele>241.66666666666669</ele><time>2026-04-02T13:04:33.904Z</time></trkpt><trkpt lat="42.6994708" lon="11.4752081"><ele>242.0</ele><time>2026-04-02T13:04:34.904Z</time></trkpt><trkpt lat="42.699399" lon="11.4750268"><ele>241.33333333333334</ele><time>2026-04-02T13:04:35.904Z</time></trkpt><trkpt lat="42.6992998" lon="11.4748626"><ele>240.66666666666669</ele><time>2026-04-02T13:04:36.904Z</time></trkpt><trkpt lat="42.6991719" lon="11.4747196"><ele>240.0</ele><time>2026-04-02T13:04:37.904Z</time></trkpt><trkpt lat="42.6990205" lon="11.4745912"><ele>240.0</ele><time>2026-04-02T13:04:38.904Z</time></trkpt><trkpt lat="42.6988496" lon="11.4744788"><ele>240.0</ele><time>2026-04-02T13:04:39.904Z</time></trkpt><trkpt lat="42.6986802" lon="11.4743714"><ele>240.0</ele><time>2026-04-02T13:04:40.904Z</time></trkpt><trkpt lat="42.6985165" lon="11.4742727"><ele>240.0</ele><time>2026-04-02T13:04:41.904Z</time></trkpt><trkpt lat="42.698366" lon="11.474178"><ele>240.0</ele><time>2026-04-02T13:04:42.904Z</time></trkpt><trkpt lat="42.698229" lon="11.4740818"><ele>240.0</ele><time>2026-04-02T13:04:43.904Z</time></trkpt><trkpt lat="42.6980928" lon="11.4739855"><ele>240.0</ele><time>2026-04-02T13:04:44.904Z</time></trkpt><trkpt lat="42.6979586" lon="11.4739006"><ele>240.0</ele><time>2026-04-02T13:04:45.904Z</time></trkpt><trkpt lat="42.6978336" lon="11.4738189"><ele>240.0</ele><time>2026-04-02T13:04:46.904Z</time></trkpt><trkpt lat="42.6977193" lon="11.4737401"><ele>240.0</ele><time>2026-04-02T13:04:47.904Z</time></trkpt><trkpt lat="42.6976084" lon="11.4736739"><ele>240.0</ele><time>2026-04-02T13:04:48.904Z</time></trkpt><trkpt lat="42.6974983" lon="11.4736216"><ele>240.0</ele><time>2026-04-02T13:04:49.904Z</time></trkpt><trkpt lat="42.6973758" lon="11.4735843"><ele>240.0</ele><time>2026-04-02T13:04:50.904Z</time></trkpt><trkpt lat="42.697249" lon="11.4735659"><ele>240.0</ele><time>2026-04-02T13:04:51.904Z</time></trkpt><trkpt lat="42.6971074" lon="11.4735644"><ele>240.0</ele><time>2026-04-02T13:04:52.904Z</time></trkpt><trkpt lat="42.6969606" lon="11.4735764"><ele>240.0</ele><time>2026-04-02T13:04:53.904Z</time></trkpt><trkpt lat="42.6968102" lon="11.4735909"><ele>240.0</ele><time>2026-04-02T13:04:54.904Z</time></trkpt><trkpt lat="42.6966518" lon="11.4736101"><ele>240.0</ele><time>2026-04-02T13:04:55.904Z</time></trkpt><trkpt lat="42.6965001" lon="11.4736288"><ele>240.0</ele><time>2026-04-02T13:04:56.904Z</time></trkpt><trkpt lat="42.6963577" lon="11.473646"><ele>240.0</ele><time>2026-04-02T13:04:57.904Z</time></trkpt><trkpt lat="42.6962187" lon="11.4736651"><ele>240.0</ele><time>2026-04-02T13:04:58.904Z</time></trkpt><trkpt lat="42.6960792" lon="11.47367"><ele>240.0</ele><time>2026-04-02T13:04:59.904Z</time></trkpt><trkpt lat="42.6959553" lon="11.4736652"><ele>240.0</ele><time>2026-04-02T13:05:00.904Z</time></trkpt><trkpt lat="42.6958404" lon="11.4736627"><ele>240.0</ele><time>2026-04-02T13:05:01.904Z</time></trkpt><trkpt lat="42.6957348" lon="11.473666"><ele>240.0</ele><time>2026-04-02T13:05:02.903Z</time></trkpt><trkpt lat="42.6956337" lon="11.4736642"><ele>240.0</ele><time>2026-04-02T13:05:03.904Z</time></trkpt><trkpt lat="42.6955481" lon="11.4736739"><ele>240.0</ele><time>2026-04-02T13:05:04.904Z</time></trkpt><trkpt lat="42.6954644" lon="11.4737013"><ele>240.0</ele><time>2026-04-02T13:05:05.904Z</time></trkpt><trkpt lat="42.6953844" lon="11.4737464"><ele>240.0</ele><time>2026-04-02T13:05:06.904Z</time></trkpt><trkpt lat="42.6953162" lon="11.4738217"><ele>240.0</ele><time>2026-04-02T13:05:07.904Z</time></trkpt><trkpt lat="42.6952443" lon="11.4739209"><ele>240.0</ele><time>2026-04-02T13:05:08.903Z</time></trkpt><trkpt lat="42.6951763" lon="11.4740409"><ele>241.0</ele><time>2026-04-02T13:05:09.904Z</time></trkpt><trkpt lat="42.6951013" lon="11.4741816"><ele>242.0</ele><time>2026-04-02T13:05:10.904Z</time></trkpt><trkpt lat="42.6950151" lon="11.4743333"><ele>243.0</ele><time>2026-04-02T13:05:11.904Z</time></trkpt><trkpt lat="42.6949268" lon="11.4744864"><ele>244.0</ele><time>2026-04-02T13:05:12.904Z</time></trkpt><trkpt lat="42.6948407" lon="11.4746423"><ele>244.5</ele><time>2026-04-02T13:05:13.904Z</time></trkpt><trkpt lat="42.6947557" lon="11.4747969"><ele>245.0</ele><time>2026-04-02T13:05:14.903Z</time></trkpt><trkpt lat="42.6946771" lon="11.4749471"><ele>245.5</ele><time>2026-04-02T13:05:15.904Z</time></trkpt><trkpt lat="42.6946027" lon="11.4750852"><ele>246.0</ele><time>2026-04-02T13:05:16.904Z</time></trkpt><trkpt lat="42.6945272" lon="11.4752178"><ele>246.0</ele><time>2026-04-02T13:05:17.904Z</time></trkpt><trkpt lat="42.6944452" lon="11.4753328"><ele>246.0</ele><time>2026-04-02T13:05:18.904Z</time></trkpt><trkpt lat="42.6943559" lon="11.4754213"><ele>246.0</ele><time>2026-04-02T13:05:19.904Z</time></trkpt><trkpt lat="42.6942558" lon="11.4754903"><ele>246.0</ele><time>2026-04-02T13:05:20.904Z</time></trkpt><trkpt lat="42.694142" lon="11.4755354"><ele>245.0</ele><time>2026-04-02T13:05:21.904Z</time></trkpt><trkpt lat="42.6940108" lon="11.4755722"><ele>244.0</ele><time>2026-04-02T13:05:22.904Z</time></trkpt><trkpt lat="42.6938735" lon="11.4756074"><ele>243.0</ele><time>2026-04-02T13:05:23.903Z</time></trkpt><trkpt lat="42.6937233" lon="11.4756421"><ele>242.0</ele><time>2026-04-02T13:05:24.904Z</time></trkpt><trkpt lat="42.6935689" lon="11.4756727"><ele>242.0</ele><time>2026-04-02T13:05:25.904Z</time></trkpt><trkpt lat="42.6934184" lon="11.475704"><ele>242.0</ele><time>2026-04-02T13:05:26.904Z</time></trkpt><trkpt lat="42.6932637" lon="11.4757369"><ele>242.0</ele><time>2026-04-02T13:05:27.904Z</time></trkpt><trkpt lat="42.693114" lon="11.4757695"><ele>242.0</ele><time>2026-04-02T13:05:28.904Z</time></trkpt><trkpt lat="42.6929692" lon="11.4757985"><ele>242.0</ele><time>2026-04-02T13:05:29.904Z</time></trkpt><trkpt lat="42.6928342" lon="11.4758305"><ele>242.0</ele><time>2026-04-02T13:05:30.904Z</time></trkpt><trkpt lat="42.6927125" lon="11.4758516"><ele>242.0</ele><time>2026-04-02T13:05:31.904Z</time></trkpt><trkpt lat="42.6926104" lon="11.4758584"><ele>243.0</ele><time>2026-04-02T13:05:32.904Z</time></trkpt><trkpt lat="42.6925214" lon="11.4758319"><ele>244.0</ele><time>2026-04-02T13:05:33.904Z</time></trkpt><trkpt lat="42.6924487" lon="11.4757822"><ele>245.0</ele><time>2026-04-02T13:05:34.904Z</time></trkpt><trkpt lat="42.6923957" lon="11.4757243"><ele>246.0</ele><time>2026-04-02T13:05:35.904Z</time></trkpt><trkpt lat="42.6923501" lon="11.4755729"><ele>247.0</ele><time>2026-04-02T13:05:37.904Z</time></trkpt><trkpt lat="42.6923821" lon="11.475403"><ele>247.83333333333331</ele><time>2026-04-02T13:05:39.904Z</time></trkpt><trkpt lat="42.6924242" lon="11.4753189"><ele>248.66666666666666</ele><time>2026-04-02T13:05:40.904Z</time></trkpt><trkpt lat="42.6924782" lon="11.4752384"><ele>249.5</ele><time>2026-04-02T13:05:41.904Z</time></trkpt><trkpt lat="42.6925378" lon="11.4751527"><ele>250.33333333333331</ele><time>2026-04-02T13:05:42.904Z</time></trkpt><trkpt lat="42.6925993" lon="11.4750658"><ele>251.16666666666666</ele><time>2026-04-02T13:05:43.904Z</time></trkpt><trkpt lat="42.6926448" lon="11.4749798"><ele>252.0</ele><time>2026-04-02T13:05:44.904Z</time></trkpt><trkpt lat="42.6926739" lon="11.4748913"><ele>252.0</ele><time>2026-04-02T13:05:45.903Z</time></trkpt><trkpt lat="42.6926879" lon="11.474791"><ele>252.0</ele><time>2026-04-02T13:05:46.904Z</time></trkpt><trkpt lat="42.6926745" lon="11.4746928"><ele>252.0</ele><time>2026-04-02T13:05:47.904Z</time></trkpt><trkpt lat="42.6926312" lon="11.4746034"><ele>252.0</ele><time>2026-04-02T13:05:48.904Z</time></trkpt><trkpt lat="42.6925613" lon="11.4745412"><ele>252.0</ele><time>2026-04-02T13:05:49.904Z</time></trkpt><trkpt lat="42.6924701" lon="11.474511"><ele>252.0</ele><time>2026-04-02T13:05:50.904Z</time></trkpt><trkpt lat="42.6923697" lon="11.4745006"><ele>252.2</ele><time>2026-04-02T13:05:51.904Z</time></trkpt><trkpt lat="42.6922645" lon="11.4744981"><ele>252.39999999999998</ele><time>2026-04-02T13:05:52.904Z</time></trkpt><trkpt lat="42.6921594" lon="11.474498"><ele>252.60000000000002</ele><time>2026-04-02T13:05:53.904Z</time></trkpt><trkpt lat="42.6920537" lon="11.474496"><ele>252.8</ele><time>2026-04-02T13:05:54.904Z</time></trkpt><trkpt lat="42.6919496" lon="11.4744958"><ele>253.0</ele><time>2026-04-02T13:05:55.904Z</time></trkpt><trkpt lat="42.691842" lon="11.4744851"><ele>254.25</ele><time>2026-04-02T13:05:56.904Z</time></trkpt><trkpt lat="42.6917364" lon="11.4744663"><ele>255.5</ele><time>2026-04-02T13:05:57.904Z</time></trkpt><trkpt lat="42.6916288" lon="11.4744401"><ele>256.75</ele><time>2026-04-02T13:05:58.904Z</time></trkpt><trkpt lat="42.6915171" lon="11.4743988"><ele>258.0</ele><time>2026-04-02T13:05:59.904Z</time></trkpt><trkpt lat="42.6914027" lon="11.4743503"><ele>258.0</ele><time>2026-04-02T13:06:00.904Z</time></trkpt><trkpt lat="42.6912877" lon="11.4743006"><ele>258.0</ele><time>2026-04-02T13:06:01.904Z</time></trkpt><trkpt lat="42.6911749" lon="11.4742458"><ele>258.0</ele><time>2026-04-02T13:06:02.904Z</time></trkpt><trkpt lat="42.691054" lon="11.4741953"><ele>258.0</ele><time>2026-04-02T13:06:03.903Z</time></trkpt><trkpt lat="42.6909397" lon="11.4741408"><ele>258.0</ele><time>2026-04-02T13:06:04.903Z</time></trkpt><trkpt lat="42.6908297" lon="11.4740908"><ele>258.0</ele><time>2026-04-02T13:06:05.904Z</time></trkpt><trkpt lat="42.6907149" lon="11.4740464"><ele>258.0</ele><time>2026-04-02T13:06:06.904Z</time></trkpt><trkpt lat="42.6905964" lon="11.4740108"><ele>258.0</ele><time>2026-04-02T13:06:07.904Z</time></trkpt><trkpt lat="42.690474" lon="11.4739811"><ele>258.0</ele><time>2026-04-02T13:06:08.904Z</time></trkpt><trkpt lat="42.6903438" lon="11.4739577"><ele>258.0</ele><time>2026-04-02T13:06:09.904Z</time></trkpt><trkpt lat="42.6902094" lon="11.4739481"><ele>258.0</ele><time>2026-04-02T13:06:10.904Z</time></trkpt><trkpt lat="42.6900723" lon="11.4739379"><ele>258.0</ele><time>2026-04-02T13:06:11.903Z</time></trkpt><trkpt lat="42.6899347" lon="11.473932"><ele>257.5</ele><time>2026-04-02T13:06:12.904Z</time></trkpt><trkpt lat="42.6897959" lon="11.4739289"><ele>257.0</ele><time>2026-04-02T13:06:13.904Z</time></trkpt><trkpt lat="42.6896575" lon="11.4739233"><ele>256.5</ele><time>2026-04-02T13:06:14.904Z</time></trkpt><trkpt lat="42.6895127" lon="11.4739191"><ele>256.0</ele><time>2026-04-02T13:06:15.904Z</time></trkpt><trkpt lat="42.6893683" lon="11.4739125"><ele>255.0</ele><time>2026-04-02T13:06:16.904Z</time></trkpt><trkpt lat="42.6892226" lon="11.4739029"><ele>254.0</ele><time>2026-04-02T13:06:17.904Z</time></trkpt><trkpt lat="42.6890784" lon="11.4738933"><ele>253.0</ele><time>2026-04-02T13:06:18.904Z</time></trkpt><trkpt lat="42.6889303" lon="11.4738913"><ele>252.0</ele><time>2026-04-02T13:06:19.903Z</time></trkpt><trkpt lat="42.6887777" lon="11.4738815"><ele>252.0</ele><time>2026-04-02T13:06:20.904Z</time></trkpt><trkpt lat="42.6886192" lon="11.473874"><ele>252.0</ele><time>2026-04-02T13:06:21.904Z</time></trkpt><trkpt lat="42.6884595" lon="11.47387"><ele>252.0</ele><time>2026-04-02T13:06:22.904Z</time></trkpt><trkpt lat="42.6882962" lon="11.4738681"><ele>250.0</ele><time>2026-04-02T13:06:23.904Z</time></trkpt><trkpt lat="42.6881273" lon="11.4738595"><ele>248.0</ele><time>2026-04-02T13:06:24.904Z</time></trkpt><trkpt lat="42.6879661" lon="11.4738493"><ele>246.0</ele><time>2026-04-02T13:06:25.904Z</time></trkpt><trkpt lat="42.6878067" lon="11.4738393"><ele>243.66666666666669</ele><time>2026-04-02T13:06:26.904Z</time></trkpt><trkpt lat="42.6876441" lon="11.4738334"><ele>241.33333333333334</ele><time>2026-04-02T13:06:27.904Z</time></trkpt><trkpt lat="42.6874792" lon="11.4738214"><ele>239.0</ele><time>2026-04-02T13:06:28.904Z</time></trkpt><trkpt lat="42.6873206" lon="11.4738153"><ele>239.0</ele><time>2026-04-02T13:06:29.904Z</time></trkpt><trkpt lat="42.687174" lon="11.4738108"><ele>239.0</ele><time>2026-04-02T13:06:30.904Z</time></trkpt><trkpt lat="42.6870306" lon="11.4738108"><ele>239.0</ele><time>2026-04-02T13:06:31.904Z</time></trkpt><trkpt lat="42.6868976" lon="11.473798"><ele>239.0</ele><time>2026-04-02T13:06:32.904Z</time></trkpt><trkpt lat="42.6867775" lon="11.4737626"><ele>238.33333333333334</ele><time>2026-04-02T13:06:33.903Z</time></trkpt><trkpt lat="42.6866909" lon="11.4737177"><ele>237.66666666666669</ele><time>2026-04-02T13:06:34.904Z</time></trkpt><trkpt lat="42.6866265" lon="11.4736464"><ele>237.0</ele><time>2026-04-02T13:06:35.904Z</time></trkpt><trkpt lat="42.6865846" lon="11.4735491"><ele>236.33333333333331</ele><time>2026-04-02T13:06:36.904Z</time></trkpt><trkpt lat="42.6865742" lon="11.473441"><ele>235.66666666666666</ele><time>2026-04-02T13:06:37.904Z</time></trkpt><trkpt lat="42.6865982" lon="11.4733322"><ele>235.0</ele><time>2026-04-02T13:06:38.904Z</time></trkpt><trkpt lat="42.686637" lon="11.4732445"><ele>234.99999999999997</ele><time>2026-04-02T13:06:39.904Z</time></trkpt><trkpt lat="42.6866638" lon="11.4731486"><ele>235.0</ele><time>2026-04-02T13:06:40.904Z</time></trkpt><trkpt lat="42.686658" lon="11.4730516"><ele>235.0</ele><time>2026-04-02T13:06:41.904Z</time></trkpt><trkpt lat="42.68663" lon="11.4729712"><ele>235.0</ele><time>2026-04-02T13:06:42.904Z</time></trkpt><trkpt lat="42.6865438" lon="11.4728826"><ele>234.99999999999997</ele><time>2026-04-02T13:06:44.904Z</time></trkpt><trkpt lat="42.6864463" lon="11.4729154"><ele>235.0</ele><time>2026-04-02T13:06:45.904Z</time></trkpt><trkpt lat="42.6863709" lon="11.4729503"><ele>235.0</ele><time>2026-04-02T13:06:46.903Z</time></trkpt><trkpt lat="42.6863011" lon="11.4730003"><ele>235.0</ele><time>2026-04-02T13:06:47.904Z</time></trkpt><trkpt lat="42.686232" lon="11.4730466"><ele>235.0</ele><time>2026-04-02T13:06:48.904Z</time></trkpt><trkpt lat="42.6861564" lon="11.4730992"><ele>235.0</ele><time>2026-04-02T13:06:49.904Z</time></trkpt><trkpt lat="42.6860772" lon="11.4731859"><ele>235.0</ele><time>2026-04-02T13:06:50.904Z</time></trkpt><trkpt lat="42.686002" lon="11.4733127"><ele>233.0</ele><time>2026-04-02T13:06:51.904Z</time></trkpt><trkpt lat="42.685929" lon="11.4734681"><ele>231.0</ele><time>2026-04-02T13:06:52.904Z</time></trkpt><trkpt lat="42.6858629" lon="11.4736173"><ele>229.0</ele><time>2026-04-02T13:06:53.904Z</time></trkpt><trkpt lat="42.6858049" lon="11.4737728"><ele>227.0</ele><time>2026-04-02T13:06:54.904Z</time></trkpt><trkpt lat="42.685761" lon="11.4739378"><ele>226.0</ele><time>2026-04-02T13:06:55.904Z</time></trkpt><trkpt lat="42.6857369" lon="11.4741258"><ele>225.0</ele><time>2026-04-02T13:06:56.904Z</time></trkpt><trkpt lat="42.6857341" lon="11.4743238"><ele>224.0</ele><time>2026-04-02T13:06:57.904Z</time></trkpt><trkpt lat="42.6857385" lon="11.4745407"><ele>223.0</ele><time>2026-04-02T13:06:58.904Z</time></trkpt><trkpt lat="42.6857448" lon="11.4747641"><ele>220.0</ele><time>2026-04-02T13:06:59.904Z</time></trkpt><trkpt lat="42.6857539" lon="11.4749809"><ele>217.0</ele><time>2026-04-02T13:07:00.904Z</time></trkpt><trkpt lat="42.6857616" lon="11.4751946"><ele>214.0</ele><time>2026-04-02T13:07:01.904Z</time></trkpt><trkpt lat="42.6857713" lon="11.4753845"><ele>211.5</ele><time>2026-04-02T13:07:02.904Z</time></trkpt><trkpt lat="42.6857787" lon="11.4755644"><ele>209.0</ele><time>2026-04-02T13:07:03.904Z</time></trkpt><trkpt lat="42.6857714" lon="11.4757461"><ele>206.5</ele><time>2026-04-02T13:07:04.904Z</time></trkpt><trkpt lat="42.6857398" lon="11.4759395"><ele>204.0</ele><time>2026-04-02T13:07:05.904Z</time></trkpt><trkpt lat="42.6856902" lon="11.4761424"><ele>202.33333333333331</ele><time>2026-04-02T13:07:06.904Z</time></trkpt><trkpt lat="42.6856249" lon="11.476365"><ele>200.66666666666666</ele><time>2026-04-02T13:07:07.904Z</time></trkpt><trkpt lat="42.6855437" lon="11.4765984"><ele>199.0</ele><time>2026-04-02T13:07:08.904Z</time></trkpt><trkpt lat="42.6854587" lon="11.4768419"><ele>199.0</ele><time>2026-04-02T13:07:09.904Z</time></trkpt><trkpt lat="42.6853668" lon="11.4770899"><ele>199.0</ele><time>2026-04-02T13:07:10.904Z</time></trkpt><trkpt lat="42.6852825" lon="11.4773231"><ele>199.0</ele><time>2026-04-02T13:07:11.904Z</time></trkpt><trkpt lat="42.6852075" lon="11.4775224"><ele>198.5</ele><time>2026-04-02T13:07:12.904Z</time></trkpt><trkpt lat="42.6851378" lon="11.477708"><ele>198.0</ele><time>2026-04-02T13:07:13.904Z</time></trkpt><trkpt lat="42.6850802" lon="11.4778882"><ele>197.5</ele><time>2026-04-02T13:07:14.904Z</time></trkpt><trkpt lat="42.6850316" lon="11.478079"><ele>197.0</ele><time>2026-04-02T13:07:15.904Z</time></trkpt><trkpt lat="42.6850061" lon="11.4782678"><ele>197.0</ele><time>2026-04-02T13:07:16.904Z</time></trkpt><trkpt lat="42.684996" lon="11.4784439"><ele>197.0</ele><time>2026-04-02T13:07:17.904Z</time></trkpt><trkpt lat="42.6849994" lon="11.4785918"><ele>197.0</ele><time>2026-04-02T13:07:18.904Z</time></trkpt><trkpt lat="42.6850049" lon="11.4787042"><ele>197.0</ele><time>2026-04-02T13:07:19.904Z</time></trkpt><trkpt lat="42.6849962" lon="11.4788325"><ele>197.0</ele><time>2026-04-02T13:07:21.904Z</time></trkpt><trkpt lat="42.6849383" lon="11.4788737"><ele>197.00000000000003</ele><time>2026-04-02T13:07:25.904Z</time></trkpt><trkpt lat="42.6848841" lon="11.4787785"><ele>197.0</ele><time>2026-04-02T13:07:28.904Z</time></trkpt><trkpt lat="42.684818" lon="11.4786395"><ele>197.0</ele><time>2026-04-02T13:07:30.904Z</time></trkpt><trkpt lat="42.684774" lon="11.478559"><ele>197.0</ele><time>2026-04-02T13:07:31.904Z</time></trkpt><trkpt lat="42.6847166" lon="11.4784877"><ele>197.00000000000003</ele><time>2026-04-02T13:07:32.904Z</time></trkpt><trkpt lat="42.684655" lon="11.4784318"><ele>197.0</ele><time>2026-04-02T13:07:33.904Z</time></trkpt><trkpt lat="42.6845864" lon="11.4783708"><ele>197.0</ele><time>2026-04-02T13:07:35.904Z</time></trkpt><trkpt lat="42.6845088" lon="11.4783216"><ele>197.0</ele><time>2026-04-02T13:08:12.904Z</time></trkpt><trkpt lat="42.6844312" lon="11.4782832"><ele>197.0</ele><time>2026-04-02T13:08:13.904Z</time></trkpt><trkpt lat="42.6843372" lon="11.4782309"><ele>197.0</ele><time>2026-04-02T13:08:14.904Z</time></trkpt><trkpt lat="42.6842032" lon="11.4781536"><ele>197.0</ele><time>2026-04-02T13:08:15.903Z</time></trkpt><trkpt lat="42.6840692" lon="11.4780707"><ele>197.33333333333334</ele><time>2026-04-02T13:08:16.904Z</time></trkpt><trkpt lat="42.6839229" lon="11.4779785"><ele>197.66666666666669</ele><time>2026-04-02T13:08:17.904Z</time></trkpt><trkpt lat="42.6837801" lon="11.4778895"><ele>198.0</ele><time>2026-04-02T13:08:18.903Z</time></trkpt><trkpt lat="42.6836376" lon="11.4778019"><ele>198.33333333333331</ele><time>2026-04-02T13:08:19.904Z</time></trkpt><trkpt lat="42.6834919" lon="11.4777172"><ele>198.66666666666666</ele><time>2026-04-02T13:08:20.903Z</time></trkpt><trkpt lat="42.6833481" lon="11.4776319"><ele>199.0</ele><time>2026-04-02T13:08:21.903Z</time></trkpt><trkpt lat="42.6832028" lon="11.4775475"><ele>199.0</ele><time>2026-04-02T13:08:22.904Z</time></trkpt><trkpt lat="42.6830576" lon="11.4774661"><ele>199.0</ele><time>2026-04-02T13:08:23.904Z</time></trkpt><trkpt lat="42.6829123" lon="11.477383"><ele>199.0</ele><time>2026-04-02T13:08:24.904Z</time></trkpt><trkpt lat="42.6827748" lon="11.4772956"><ele>200.5</ele><time>2026-04-02T13:08:25.904Z</time></trkpt><trkpt lat="42.6826343" lon="11.4771976"><ele>202.0</ele><time>2026-04-02T13:08:26.904Z</time></trkpt><trkpt lat="42.6825061" lon="11.4771032"><ele>203.5</ele><time>2026-04-02T13:08:27.903Z</time></trkpt><trkpt lat="42.6823847" lon="11.4770238"><ele>205.0</ele><time>2026-04-02T13:08:28.904Z</time></trkpt><trkpt lat="42.6822586" lon="11.476944"><ele>205.0</ele><time>2026-04-02T13:08:29.904Z</time></trkpt><trkpt lat="42.6821396" lon="11.4768727"><ele>205.0</ele><time>2026-04-02T13:08:30.904Z</time></trkpt><trkpt lat="42.682025" lon="11.4768074"><ele>205.0</ele><time>2026-04-02T13:08:31.904Z</time></trkpt><trkpt lat="42.681905" lon="11.4767514"><ele>205.0</ele><time>2026-04-02T13:08:32.903Z</time></trkpt><trkpt lat="42.6817846" lon="11.4767017"><ele>205.5</ele><time>2026-04-02T13:08:33.904Z</time></trkpt><trkpt lat="42.681657" lon="11.4766635"><ele>206.0</ele><time>2026-04-02T13:08:34.904Z</time></trkpt><trkpt lat="42.6815103" lon="11.4766452"><ele>206.5</ele><time>2026-04-02T13:08:35.904Z</time></trkpt><trkpt lat="42.6813492" lon="11.4766401"><ele>207.0</ele><time>2026-04-02T13:08:36.904Z</time></trkpt><trkpt lat="42.6811731" lon="11.4766438"><ele>207.0</ele><time>2026-04-02T13:08:37.904Z</time></trkpt><trkpt lat="42.6809903" lon="11.476638"><ele>207.0</ele><time>2026-04-02T13:08:38.904Z</time></trkpt><trkpt lat="42.6807915" lon="11.4766385"><ele>207.0</ele><time>2026-04-02T13:08:39.904Z</time></trkpt><trkpt lat="42.6805888" lon="11.4766415"><ele>207.0</ele><time>2026-04-02T13:08:40.904Z</time></trkpt><trkpt lat="42.680378" lon="11.4766453"><ele>207.0</ele><time>2026-04-02T13:08:41.904Z</time></trkpt><trkpt lat="42.6801566" lon="11.4766485"><ele>207.0</ele><time>2026-04-02T13:08:42.904Z</time></trkpt><trkpt lat="42.6799514" lon="11.4766477"><ele>207.0</ele><time>2026-04-02T13:08:43.904Z</time></trkpt><trkpt lat="42.6797498" lon="11.4766485"><ele>207.0</ele><time>2026-04-02T13:08:44.904Z</time></trkpt><trkpt lat="42.679562" lon="11.4766513"><ele>207.0</ele><time>2026-04-02T13:08:45.904Z</time></trkpt><trkpt lat="42.6793791" lon="11.4766522"><ele>207.66666666666669</ele><time>2026-04-02T13:08:46.904Z</time></trkpt><trkpt lat="42.679201" lon="11.4766542"><ele>208.33333333333334</ele><time>2026-04-02T13:08:47.904Z</time></trkpt><trkpt lat="42.6790316" lon="11.4766551"><ele>209.0</ele><time>2026-04-02T13:08:48.904Z</time></trkpt><trkpt lat="42.6788714" lon="11.4766558"><ele>209.0</ele><time>2026-04-02T13:08:49.904Z</time></trkpt><trkpt lat="42.6787317" lon="11.4766563"><ele>209.0</ele><time>2026-04-02T13:08:50.904Z</time></trkpt><trkpt lat="42.6785985" lon="11.4766613"><ele>209.0</ele><time>2026-04-02T13:08:51.904Z</time></trkpt><trkpt lat="42.6784783" lon="11.4766649"><ele>209.0</ele><time>2026-04-02T13:08:52.904Z</time></trkpt><trkpt lat="42.6783669" lon="11.4766633"><ele>209.0</ele><time>2026-04-02T13:08:53.904Z</time></trkpt><trkpt lat="42.6782679" lon="11.4766655"><ele>209.0</ele><time>2026-04-02T13:08:54.904Z</time></trkpt><trkpt lat="42.6781691" lon="11.4766621"><ele>209.0</ele><time>2026-04-02T13:08:55.903Z</time></trkpt><trkpt lat="42.6780611" lon="11.4766454"><ele>209.0</ele><time>2026-04-02T13:08:56.904Z</time></trkpt><trkpt lat="42.6779507" lon="11.4766262"><ele>209.0</ele><time>2026-04-02T13:08:57.904Z</time></trkpt><trkpt lat="42.6778372" lon="11.4765988"><ele>207.5</ele><time>2026-04-02T13:08:58.904Z</time></trkpt><trkpt lat="42.677712" lon="11.476554"><ele>206.0</ele><time>2026-04-02T13:08:59.904Z</time></trkpt><trkpt lat="42.6775765" lon="11.4764916"><ele>204.5</ele><time>2026-04-02T13:09:00.904Z</time></trkpt><trkpt lat="42.6774326" lon="11.4764135"><ele>203.0</ele><time>2026-04-02T13:09:01.904Z</time></trkpt><trkpt lat="42.6772789" lon="11.4763312"><ele>201.33333333333334</ele><time>2026-04-02T13:09:02.904Z</time></trkpt><trkpt lat="42.6771182" lon="11.4762439"><ele>199.66666666666669</ele><time>2026-04-02T13:09:03.903Z</time></trkpt><trkpt lat="42.6769591" lon="11.4761602"><ele>198.0</ele><time>2026-04-02T13:09:04.904Z</time></trkpt><trkpt lat="42.6768104" lon="11.4760834"><ele>197.33333333333331</ele><time>2026-04-02T13:09:05.904Z</time></trkpt><trkpt lat="42.6766588" lon="11.4760076"><ele>196.66666666666666</ele><time>2026-04-02T13:09:06.904Z</time></trkpt><trkpt lat="42.6765043" lon="11.4759333"><ele>196.0</ele><time>2026-04-02T13:09:07.903Z</time></trkpt><trkpt lat="42.6763446" lon="11.4758627"><ele>196.0</ele><time>2026-04-02T13:09:08.904Z</time></trkpt><trkpt lat="42.6761854" lon="11.4757932"><ele>196.0</ele><time>2026-04-02T13:09:09.904Z</time></trkpt><trkpt lat="42.6760372" lon="11.4757187"><ele>196.0</ele><time>2026-04-02T13:09:10.904Z</time></trkpt><trkpt lat="42.6758881" lon="11.4756431"><ele>195.33333333333331</ele><time>2026-04-02T13:09:11.904Z</time></trkpt><trkpt lat="42.6757306" lon="11.4755648"><ele>194.66666666666669</ele><time>2026-04-02T13:09:12.904Z</time></trkpt><trkpt lat="42.6755706" lon="11.4754866"><ele>194.0</ele><time>2026-04-02T13:09:13.904Z</time></trkpt><trkpt lat="42.6754121" lon="11.4754043"><ele>192.66666666666669</ele><time>2026-04-02T13:09:14.904Z</time></trkpt><trkpt lat="42.6752546" lon="11.4753134"><ele>191.33333333333334</ele><time>2026-04-02T13:09:15.904Z</time></trkpt><trkpt lat="42.6751014" lon="11.4752338"><ele>190.0</ele><time>2026-04-02T13:09:16.904Z</time></trkpt><trkpt lat="42.6749548" lon="11.4751631"><ele>190.0</ele><time>2026-04-02T13:09:17.904Z</time></trkpt><trkpt lat="42.6748178" lon="11.47509"><ele>190.0</ele><time>2026-04-02T13:09:18.904Z</time></trkpt><trkpt lat="42.6746816" lon="11.4750152"><ele>190.0</ele><time>2026-04-02T13:09:19.904Z</time></trkpt><trkpt lat="42.6745496" lon="11.474944"><ele>190.0</ele><time>2026-04-02T13:09:20.904Z</time></trkpt><trkpt lat="42.6744067" lon="11.4748754"><ele>188.33333333333334</ele><time>2026-04-02T13:09:21.904Z</time></trkpt><trkpt lat="42.674268" lon="11.4748061"><ele>186.66666666666666</ele><time>2026-04-02T13:09:22.904Z</time></trkpt><trkpt lat="42.6741246" lon="11.4747367"><ele>185.0</ele><time>2026-04-02T13:09:23.904Z</time></trkpt><trkpt lat="42.6739735" lon="11.4746626"><ele>184.33333333333331</ele><time>2026-04-02T13:09:24.904Z</time></trkpt><trkpt lat="42.6738204" lon="11.4745836"><ele>183.66666666666666</ele><time>2026-04-02T13:09:25.903Z</time></trkpt><trkpt lat="42.6736637" lon="11.4745054"><ele>183.0</ele><time>2026-04-02T13:09:26.904Z</time></trkpt><trkpt lat="42.6735061" lon="11.4744199"><ele>181.66666666666666</ele><time>2026-04-02T13:09:27.904Z</time></trkpt><trkpt lat="42.6733592" lon="11.4743419"><ele>180.33333333333331</ele><time>2026-04-02T13:09:28.904Z</time></trkpt><trkpt lat="42.6732093" lon="11.4742685"><ele>179.0</ele><time>2026-04-02T13:09:29.904Z</time></trkpt><trkpt lat="42.6730598" lon="11.4741875"><ele>179.0</ele><time>2026-04-02T13:09:30.904Z</time></trkpt><trkpt lat="42.6729114" lon="11.4741071"><ele>179.0</ele><time>2026-04-02T13:09:31.904Z</time></trkpt><trkpt lat="42.6727638" lon="11.4740306"><ele>179.0</ele><time>2026-04-02T13:09:32.904Z</time></trkpt><trkpt lat="42.6726175" lon="11.4739621"><ele>178.33333333333331</ele><time>2026-04-02T13:09:33.904Z</time></trkpt><trkpt lat="42.6724712" lon="11.4738934"><ele>177.66666666666666</ele><time>2026-04-02T13:09:34.904Z</time></trkpt><trkpt lat="42.6723279" lon="11.4738242"><ele>177.0</ele><time>2026-04-02T13:09:35.904Z</time></trkpt><trkpt lat="42.6721881" lon="11.4737562"><ele>176.33333333333334</ele><time>2026-04-02T13:09:36.904Z</time></trkpt><trkpt lat="42.6720468" lon="11.4736903"><ele>175.66666666666669</ele><time>2026-04-02T13:09:37.904Z</time></trkpt><trkpt lat="42.6719021" lon="11.473623"><ele>175.0</ele><time>2026-04-02T13:09:38.904Z</time></trkpt><trkpt lat="42.6717587" lon="11.4735524"><ele>175.0</ele><time>2026-04-02T13:09:39.904Z</time></trkpt><trkpt lat="42.6716191" lon="11.4734764"><ele>175.0</ele><time>2026-04-02T13:09:40.903Z</time></trkpt><trkpt lat="42.671475" lon="11.473397"><ele>175.0</ele><time>2026-04-02T13:09:41.904Z</time></trkpt><trkpt lat="42.6713267" lon="11.4733229"><ele>175.0</ele><time>2026-04-02T13:09:42.904Z</time></trkpt><trkpt lat="42.6711804" lon="11.4732515"><ele>175.0</ele><time>2026-04-02T13:09:43.904Z</time></trkpt><trkpt lat="42.6710396" lon="11.4731805"><ele>175.0</ele><time>2026-04-02T13:09:44.904Z</time></trkpt><trkpt lat="42.6708947" lon="11.4731126"><ele>175.25</ele><time>2026-04-02T13:09:45.904Z</time></trkpt><trkpt lat="42.6707521" lon="11.4730412"><ele>175.5</ele><time>2026-04-02T13:09:46.904Z</time></trkpt><trkpt lat="42.6706196" lon="11.4729755"><ele>175.75</ele><time>2026-04-02T13:09:47.904Z</time></trkpt><trkpt lat="42.6704966" lon="11.4729121"><ele>176.0</ele><time>2026-04-02T13:09:48.904Z</time></trkpt><trkpt lat="42.6703801" lon="11.4728564"><ele>173.5</ele><time>2026-04-02T13:09:49.904Z</time></trkpt><trkpt lat="42.6702713" lon="11.4727978"><ele>171.0</ele><time>2026-04-02T13:09:50.904Z</time></trkpt><trkpt lat="42.6701691" lon="11.472733"><ele>168.5</ele><time>2026-04-02T13:09:51.904Z</time></trkpt><trkpt lat="42.6700691" lon="11.4726501"><ele>166.0</ele><time>2026-04-02T13:09:52.903Z</time></trkpt><trkpt lat="42.6699757" lon="11.4725575"><ele>166.0</ele><time>2026-04-02T13:09:53.904Z</time></trkpt><trkpt lat="42.6698965" lon="11.4724491"><ele>166.0</ele><time>2026-04-02T13:09:54.903Z</time></trkpt><trkpt lat="42.6698247" lon="11.472322"><ele>166.0</ele><time>2026-04-02T13:09:55.904Z</time></trkpt><trkpt lat="42.6697593" lon="11.4721755"><ele>166.0</ele><time>2026-04-02T13:09:56.904Z</time></trkpt><trkpt lat="42.6696993" lon="11.4720207"><ele>165.0</ele><time>2026-04-02T13:09:57.903Z</time></trkpt><trkpt lat="42.669644" lon="11.4718684"><ele>164.0</ele><time>2026-04-02T13:09:58.904Z</time></trkpt><trkpt lat="42.6695909" lon="11.4717116"><ele>163.0</ele><time>2026-04-02T13:09:59.904Z</time></trkpt><trkpt lat="42.6695369" lon="11.4715606"><ele>162.0</ele><time>2026-04-02T13:10:00.904Z</time></trkpt><trkpt lat="42.6694849" lon="11.4714165"><ele>159.25</ele><time>2026-04-02T13:10:01.904Z</time></trkpt><trkpt lat="42.6694401" lon="11.4712627"><ele>156.5</ele><time>2026-04-02T13:10:02.904Z</time></trkpt><trkpt lat="42.6694064" lon="11.4710953"><ele>153.75</ele><time>2026-04-02T13:10:03.904Z</time></trkpt><trkpt lat="42.6693776" lon="11.4709151"><ele>151.0</ele><time>2026-04-02T13:10:04.904Z</time></trkpt><trkpt lat="42.6693547" lon="11.4707244"><ele>151.0</ele><time>2026-04-02T13:10:05.904Z</time></trkpt><trkpt lat="42.6693357" lon="11.470543"><ele>151.0</ele><time>2026-04-02T13:10:06.904Z</time></trkpt><trkpt lat="42.6693197" lon="11.4703651"><ele>151.0</ele><time>2026-04-02T13:10:07.904Z</time></trkpt><trkpt lat="42.6693023" lon="11.4701849"><ele>151.0</ele><time>2026-04-02T13:10:08.904Z</time></trkpt><trkpt lat="42.6692863" lon="11.4700119"><ele>150.25</ele><time>2026-04-02T13:10:09.904Z</time></trkpt><trkpt lat="42.6692715" lon="11.4698393"><ele>149.5</ele><time>2026-04-02T13:10:10.904Z</time></trkpt><trkpt lat="42.6692573" lon="11.4696641"><ele>148.75</ele><time>2026-04-02T13:10:11.903Z</time></trkpt><trkpt lat="42.6692402" lon="11.4694871"><ele>148.0</ele><time>2026-04-02T13:10:12.904Z</time></trkpt><trkpt lat="42.6692244" lon="11.4693113"><ele>146.75</ele><time>2026-04-02T13:10:13.904Z</time></trkpt><trkpt lat="42.669213" lon="11.4691465"><ele>145.5</ele><time>2026-04-02T13:10:14.904Z</time></trkpt><trkpt lat="42.6691971" lon="11.4689813"><ele>144.25</ele><time>2026-04-02T13:10:15.904Z</time></trkpt><trkpt lat="42.6691756" lon="11.4688094"><ele>143.0</ele><time>2026-04-02T13:10:16.904Z</time></trkpt><trkpt lat="42.6691567" lon="11.4686306"><ele>142.25</ele><time>2026-04-02T13:10:17.904Z</time></trkpt><trkpt lat="42.6691365" lon="11.4684421"><ele>141.5</ele><time>2026-04-02T13:10:18.904Z</time></trkpt><trkpt lat="42.6691166" lon="11.4682513"><ele>140.75</ele><time>2026-04-02T13:10:19.904Z</time></trkpt><trkpt lat="42.6690995" lon="11.4680603"><ele>140.0</ele><time>2026-04-02T13:10:20.904Z</time></trkpt><trkpt lat="42.6690792" lon="11.4678634"><ele>141.5</ele><time>2026-04-02T13:10:21.904Z</time></trkpt><trkpt lat="42.6690526" lon="11.4676577"><ele>143.0</ele><time>2026-04-02T13:10:22.904Z</time></trkpt><trkpt lat="42.6690286" lon="11.4674576"><ele>144.5</ele><time>2026-04-02T13:10:23.904Z</time></trkpt><trkpt lat="42.6690089" lon="11.4672755"><ele>146.0</ele><time>2026-04-02T13:10:24.904Z</time></trkpt><trkpt lat="42.6690016" lon="11.4670935"><ele>148.33333333333331</ele><time>2026-04-02T13:10:25.904Z</time></trkpt><trkpt lat="42.6690081" lon="11.4669061"><ele>150.66666666666666</ele><time>2026-04-02T13:10:26.904Z</time></trkpt><trkpt lat="42.6690198" lon="11.466701"><ele>153.0</ele><time>2026-04-02T13:10:27.904Z</time></trkpt><trkpt lat="42.6690278" lon="11.4664771"><ele>154.0</ele><time>2026-04-02T13:10:28.904Z</time></trkpt><trkpt lat="42.6690421" lon="11.4662481"><ele>155.0</ele><time>2026-04-02T13:10:29.904Z</time></trkpt><trkpt lat="42.6690547" lon="11.4660075"><ele>156.0</ele><time>2026-04-02T13:10:30.904Z</time></trkpt><trkpt lat="42.6690641" lon="11.4657637"><ele>156.0</ele><time>2026-04-02T13:10:31.904Z</time></trkpt><trkpt lat="42.6690757" lon="11.4655184"><ele>156.0</ele><time>2026-04-02T13:10:32.904Z</time></trkpt><trkpt lat="42.6690863" lon="11.4652849"><ele>156.0</ele><time>2026-04-02T13:10:33.904Z</time></trkpt><trkpt lat="42.669096" lon="11.4650588"><ele>156.66666666666666</ele><time>2026-04-02T13:10:34.904Z</time></trkpt><trkpt lat="42.6691022" lon="11.4648387"><ele>157.33333333333331</ele><time>2026-04-02T13:10:35.904Z</time></trkpt><trkpt lat="42.6691062" lon="11.4646301"><ele>158.0</ele><time>2026-04-02T13:10:36.904Z</time></trkpt><trkpt lat="42.6691111" lon="11.4644198"><ele>158.0</ele><time>2026-04-02T13:10:37.904Z</time></trkpt><trkpt lat="42.669119" lon="11.4642072"><ele>158.0</ele><time>2026-04-02T13:10:38.904Z</time></trkpt><trkpt lat="42.6691282" lon="11.4639915"><ele>158.0</ele><time>2026-04-02T13:10:39.904Z</time></trkpt><trkpt lat="42.6691393" lon="11.46377"><ele>158.0</ele><time>2026-04-02T13:10:40.904Z</time></trkpt><trkpt lat="42.6691472" lon="11.4635467"><ele>158.0</ele><time>2026-04-02T13:10:41.904Z</time></trkpt><trkpt lat="42.6691584" lon="11.463322"><ele>158.0</ele><time>2026-04-02T13:10:42.904Z</time></trkpt><trkpt lat="42.6691699" lon="11.4630939"><ele>157.66666666666666</ele><time>2026-04-02T13:10:43.904Z</time></trkpt><trkpt lat="42.6691791" lon="11.4628649"><ele>157.33333333333334</ele><time>2026-04-02T13:10:44.904Z</time></trkpt><trkpt lat="42.6691869" lon="11.4626373"><ele>157.0</ele><time>2026-04-02T13:10:45.903Z</time></trkpt><trkpt lat="42.669196" lon="11.4624141"><ele>157.0</ele><time>2026-04-02T13:10:46.904Z</time></trkpt><trkpt lat="42.6692049" lon="11.4621934"><ele>157.0</ele><time>2026-04-02T13:10:47.904Z</time></trkpt><trkpt lat="42.6692133" lon="11.4619796"><ele>157.0</ele><time>2026-04-02T13:10:48.904Z</time></trkpt><trkpt lat="42.6692216" lon="11.4617802"><ele>157.0</ele><time>2026-04-02T13:10:49.904Z</time></trkpt><trkpt lat="42.6692258" lon="11.4615953"><ele>157.0</ele><time>2026-04-02T13:10:50.904Z</time></trkpt><trkpt lat="42.6692331" lon="11.4614246"><ele>157.0</ele><time>2026-04-02T13:10:51.904Z</time></trkpt><trkpt lat="42.6692405" lon="11.4612735"><ele>157.0</ele><time>2026-04-02T13:10:52.904Z</time></trkpt><trkpt lat="42.6692374" lon="11.4611383"><ele>157.33333333333334</ele><time>2026-04-02T13:10:53.903Z</time></trkpt><trkpt lat="42.6692258" lon="11.461022"><ele>157.66666666666669</ele><time>2026-04-02T13:10:54.904Z</time></trkpt><trkpt lat="42.669192" lon="11.460883"><ele>158.0</ele><time>2026-04-02T13:10:56.903Z</time></trkpt><trkpt lat="42.6691523" lon="11.4607874"><ele>158.33333333333334</ele><time>2026-04-02T13:10:59.904Z</time></trkpt><trkpt lat="42.6690775" lon="11.4608027"><ele>158.66666666666666</ele><time>2026-04-02T13:11:33.904Z</time></trkpt><trkpt lat="42.6689881" lon="11.4608463"><ele>159.0</ele><time>2026-04-02T13:11:37.903Z</time></trkpt><trkpt lat="42.6689159" lon="11.4608669"><ele>159.0</ele><time>2026-04-02T13:11:39.904Z</time></trkpt><trkpt lat="42.6688356" lon="11.4608927"><ele>159.0</ele><time>2026-04-02T13:11:41.903Z</time></trkpt><trkpt lat="42.6687469" lon="11.4609235"><ele>159.0</ele><time>2026-04-02T13:11:43.903Z</time></trkpt><trkpt lat="42.6686631" lon="11.4609601"><ele>159.0</ele><time>2026-04-02T13:11:45.904Z</time></trkpt><trkpt lat="42.6685751" lon="11.4609886"><ele>159.0</ele><time>2026-04-02T13:11:47.904Z</time></trkpt><trkpt lat="42.668484" lon="11.4610289"><ele>159.0</ele><time>2026-04-02T13:11:49.903Z</time></trkpt><trkpt lat="42.668379" lon="11.4610895"><ele>158.0</ele><time>2026-04-02T13:11:51.904Z</time></trkpt><trkpt lat="42.6682666" lon="11.4611529"><ele>157.0</ele><time>2026-04-02T13:11:53.904Z</time></trkpt><trkpt lat="42.6682079" lon="11.4611859"><ele>156.0</ele><time>2026-04-02T13:11:54.904Z</time></trkpt><trkpt lat="42.6681045" lon="11.461255"><ele>155.0</ele><time>2026-04-02T13:11:56.904Z</time></trkpt><trkpt lat="42.6680089" lon="11.4613202"><ele>154.0</ele><time>2026-04-02T13:11:58.904Z</time></trkpt><trkpt lat="42.6678959" lon="11.4613945"><ele>153.71428571428572</ele><time>2026-04-02T13:12:00.904Z</time></trkpt><trkpt lat="42.667826" lon="11.4614459"><ele>153.42857142857144</ele><time>2026-04-02T13:12:01.904Z</time></trkpt><trkpt lat="42.6677574" lon="11.4614954"><ele>153.14285714285714</ele><time>2026-04-02T13:12:02.904Z</time></trkpt><trkpt lat="42.6676948" lon="11.4615372"><ele>152.85714285714286</ele><time>2026-04-02T13:12:03.904Z</time></trkpt><trkpt lat="42.6676295" lon="11.461583"><ele>152.57142857142858</ele><time>2026-04-02T13:12:04.904Z</time></trkpt><trkpt lat="42.667568" lon="11.4616231"><ele>152.28571428571428</ele><time>2026-04-02T13:12:05.904Z</time></trkpt><trkpt lat="42.6675046" lon="11.4616715"><ele>152.0</ele><time>2026-04-02T13:12:06.904Z</time></trkpt><trkpt lat="42.6674436" lon="11.4617137"><ele>151.42857142857142</ele><time>2026-04-02T13:12:07.904Z</time></trkpt><trkpt lat="42.6673815" lon="11.4617566"><ele>150.85714285714286</ele><time>2026-04-02T13:12:08.904Z</time></trkpt><trkpt lat="42.6673158" lon="11.4618033"><ele>150.28571428571428</ele><time>2026-04-02T13:12:09.904Z</time></trkpt><trkpt lat="42.6672542" lon="11.4618435"><ele>149.71428571428572</ele><time>2026-04-02T13:12:10.904Z</time></trkpt><trkpt lat="42.6671907" lon="11.4618852"><ele>149.14285714285714</ele><time>2026-04-02T13:12:11.904Z</time></trkpt><trkpt lat="42.6671286" lon="11.4619278"><ele>148.57142857142858</ele><time>2026-04-02T13:12:12.904Z</time></trkpt><trkpt lat="42.6670652" lon="11.4619719"><ele>148.0</ele><time>2026-04-02T13:12:13.904Z</time></trkpt><trkpt lat="42.6670046" lon="11.4620209"><ele>148.0</ele><time>2026-04-02T13:12:14.904Z</time></trkpt><trkpt lat="42.6669396" lon="11.4620643"><ele>148.0</ele><time>2026-04-02T13:12:15.904Z</time></trkpt><trkpt lat="42.6668766" lon="11.4621042"><ele>148.0</ele><time>2026-04-02T13:12:16.904Z</time></trkpt><trkpt lat="42.6668088" lon="11.4621443"><ele>148.0</ele><time>2026-04-02T13:12:17.904Z</time></trkpt><trkpt lat="42.6667388" lon="11.4621832"><ele>148.0</ele><time>2026-04-02T13:12:18.903Z</time></trkpt><trkpt lat="42.6666713" lon="11.4622305"><ele>148.0</ele><time>2026-04-02T13:12:19.904Z</time></trkpt><trkpt lat="42.6666072" lon="11.4622765"><ele>148.0</ele><time>2026-04-02T13:12:20.904Z</time></trkpt><trkpt lat="42.6665409" lon="11.4623215"><ele>147.42857142857144</ele><time>2026-04-02T13:12:21.904Z</time></trkpt><trkpt lat="42.6664843" lon="11.4623679"><ele>146.85714285714286</ele><time>2026-04-02T13:12:22.904Z</time></trkpt><trkpt lat="42.6664247" lon="11.4624207"><ele>146.28571428571428</ele><time>2026-04-02T13:12:23.904Z</time></trkpt><trkpt lat="42.6663694" lon="11.4624826"><ele>145.71428571428572</ele><time>2026-04-02T13:12:24.904Z</time></trkpt><trkpt lat="42.6663153" lon="11.4625472"><ele>145.14285714285714</ele><time>2026-04-02T13:12:25.904Z</time></trkpt><trkpt lat="42.6662555" lon="11.4626151"><ele>144.57142857142858</ele><time>2026-04-02T13:12:26.903Z</time></trkpt><trkpt lat="42.6662035" lon="11.4626799"><ele>144.0</ele><time>2026-04-02T13:12:27.904Z</time></trkpt><trkpt lat="42.6661504" lon="11.4627527"><ele>143.5</ele><time>2026-04-02T13:12:28.904Z</time></trkpt><trkpt lat="42.6660963" lon="11.4628317"><ele>143.0</ele><time>2026-04-02T13:12:29.904Z</time></trkpt><trkpt lat="42.6660472" lon="11.4629051"><ele>142.5</ele><time>2026-04-02T13:12:30.904Z</time></trkpt><trkpt lat="42.6659972" lon="11.4629881"><ele>142.0</ele><time>2026-04-02T13:12:31.904Z</time></trkpt><trkpt lat="42.6659531" lon="11.4630724"><ele>141.5</ele><time>2026-04-02T13:12:32.904Z</time></trkpt><trkpt lat="42.6659137" lon="11.4631566"><ele>141.0</ele><time>2026-04-02T13:12:33.904Z</time></trkpt><trkpt lat="42.6658759" lon="11.4632472"><ele>141.0</ele><time>2026-04-02T13:12:34.904Z</time></trkpt><trkpt lat="42.6658448" lon="11.4633406"><ele>141.0</ele><time>2026-04-02T13:12:35.904Z</time></trkpt><trkpt lat="42.6658173" lon="11.463443"><ele>141.0</ele><time>2026-04-02T13:12:36.904Z</time></trkpt><trkpt lat="42.6657956" lon="11.4635393"><ele>141.0</ele><time>2026-04-02T13:12:37.904Z</time></trkpt><trkpt lat="42.6657715" lon="11.4636413"><ele>141.0</ele><time>2026-04-02T13:12:38.904Z</time></trkpt><trkpt lat="42.6657488" lon="11.4637427"><ele>141.0</ele><time>2026-04-02T13:12:39.904Z</time></trkpt><trkpt lat="42.6657264" lon="11.4638468"><ele>141.2</ele><time>2026-04-02T13:12:40.904Z</time></trkpt><trkpt lat="42.665702" lon="11.4639387"><ele>141.39999999999998</ele><time>2026-04-02T13:12:41.904Z</time></trkpt><trkpt lat="42.6656633" lon="11.4640869"><ele>141.6</ele><time>2026-04-02T13:12:43.904Z</time></trkpt><trkpt lat="42.6656261" lon="11.4642078"><ele>141.79999999999998</ele><time>2026-04-02T13:12:45.904Z</time></trkpt><trkpt lat="42.6655641" lon="11.4643186"><ele>142.0</ele><time>2026-04-02T13:12:47.904Z</time></trkpt><trkpt lat="42.6654917" lon="11.4644307"><ele>142.0</ele><time>2026-04-02T13:12:49.904Z</time></trkpt><trkpt lat="42.6654485" lon="11.464494"><ele>142.0</ele><time>2026-04-02T13:12:50.904Z</time></trkpt><trkpt lat="42.6654084" lon="11.4645627"><ele>142.0</ele><time>2026-04-02T13:12:51.904Z</time></trkpt><trkpt lat="42.6653678" lon="11.464633"><ele>142.0</ele><time>2026-04-02T13:12:52.904Z</time></trkpt><trkpt lat="42.6653266" lon="11.464709"><ele>142.0</ele><time>2026-04-02T13:12:53.904Z</time></trkpt><trkpt lat="42.6652475" lon="11.4648386"><ele>142.0</ele><time>2026-04-02T13:12:55.903Z</time></trkpt><trkpt lat="42.6652016" lon="11.4649105"><ele>139.83333333333334</ele><time>2026-04-02T13:12:56.904Z</time></trkpt><trkpt lat="42.6651504" lon="11.4649963"><ele>137.66666666666669</ele><time>2026-04-02T13:12:57.903Z</time></trkpt><trkpt lat="42.6651011" lon="11.4650745"><ele>135.5</ele><time>2026-04-02T13:12:58.904Z</time></trkpt><trkpt lat="42.665056" lon="11.4651489"><ele>133.33333333333334</ele><time>2026-04-02T13:12:59.903Z</time></trkpt><trkpt lat="42.6650113" lon="11.465228"><ele>131.16666666666666</ele><time>2026-04-02T13:13:00.903Z</time></trkpt><trkpt lat="42.6649609" lon="11.465313"><ele>129.0</ele><time>2026-04-02T13:13:01.904Z</time></trkpt><trkpt lat="42.6649119" lon="11.4653997"><ele>129.57142857142856</ele><time>2026-04-02T13:13:02.904Z</time></trkpt><trkpt lat="42.6648651" lon="11.4654777"><ele>130.14285714285714</ele><time>2026-04-02T13:13:03.904Z</time></trkpt><trkpt lat="42.6648238" lon="11.465545"><ele>130.71428571428572</ele><time>2026-04-02T13:13:04.904Z</time></trkpt><trkpt lat="42.6647786" lon="11.4656208"><ele>131.28571428571428</ele><time>2026-04-02T13:13:05.904Z</time></trkpt><trkpt lat="42.6647346" lon="11.4656907"><ele>131.85714285714286</ele><time>2026-04-02T13:13:06.904Z</time></trkpt><trkpt lat="42.6646857" lon="11.4657732"><ele>132.42857142857142</ele><time>2026-04-02T13:13:07.904Z</time></trkpt><trkpt lat="42.6646371" lon="11.4658454"><ele>133.0</ele><time>2026-04-02T13:13:08.904Z</time></trkpt><trkpt lat="42.6645574" lon="11.4659839"><ele>133.0</ele><time>2026-04-02T13:13:10.904Z</time></trkpt><trkpt lat="42.6645199" lon="11.4660653"><ele>133.0</ele><time>2026-04-02T13:13:11.904Z</time></trkpt><trkpt lat="42.6644844" lon="11.4661555"><ele>133.0</ele><time>2026-04-02T13:13:12.903Z</time></trkpt><trkpt lat="42.6644472" lon="11.4662489"><ele>133.0</ele><time>2026-04-02T13:13:13.904Z</time></trkpt><trkpt lat="42.6644175" lon="11.4663389"><ele>133.0</ele><time>2026-04-02T13:13:14.904Z</time></trkpt><trkpt lat="42.6643943" lon="11.4664301"><ele>133.0</ele><time>2026-04-02T13:13:15.904Z</time></trkpt><trkpt lat="42.6643724" lon="11.4665173"><ele>133.0</ele><time>2026-04-02T13:13:16.904Z</time></trkpt><trkpt lat="42.6643484" lon="11.4666028"><ele>132.66666666666669</ele><time>2026-04-02T13:13:17.904Z</time></trkpt><trkpt lat="42.6643173" lon="11.4666963"><ele>132.33333333333334</ele><time>2026-04-02T13:13:18.904Z</time></trkpt><trkpt lat="42.6642873" lon="11.4667891"><ele>132.0</ele><time>2026-04-02T13:13:19.904Z</time></trkpt><trkpt lat="42.6642579" lon="11.4668859"><ele>131.66666666666666</ele><time>2026-04-02T13:13:20.904Z</time></trkpt><trkpt lat="42.6642265" lon="11.4669879"><ele>131.33333333333331</ele><time>2026-04-02T13:13:21.903Z</time></trkpt><trkpt lat="42.6641913" lon="11.4671"><ele>131.0</ele><time>2026-04-02T13:13:22.904Z</time></trkpt><trkpt lat="42.6641578" lon="11.4672101"><ele>130.85714285714286</ele><time>2026-04-02T13:13:23.904Z</time></trkpt><trkpt lat="42.6641235" lon="11.4673175"><ele>130.71428571428572</ele><time>2026-04-02T13:13:24.904Z</time></trkpt><trkpt lat="42.6640928" lon="11.4674217"><ele>130.57142857142858</ele><time>2026-04-02T13:13:25.904Z</time></trkpt><trkpt lat="42.6640648" lon="11.4675166"><ele>130.42857142857144</ele><time>2026-04-02T13:13:26.904Z</time></trkpt><trkpt lat="42.6640447" lon="11.4676023"><ele>130.28571428571428</ele><time>2026-04-02T13:13:27.904Z</time></trkpt><trkpt lat="42.6640262" lon="11.4676886"><ele>130.14285714285717</ele><time>2026-04-02T13:13:28.904Z</time></trkpt><trkpt lat="42.6640094" lon="11.4677758"><ele>130.0</ele><time>2026-04-02T13:13:29.904Z</time></trkpt><trkpt lat="42.6639909" lon="11.4678649"><ele>129.57142857142858</ele><time>2026-04-02T13:13:30.903Z</time></trkpt><trkpt lat="42.6639759" lon="11.4679516"><ele>129.14285714285714</ele><time>2026-04-02T13:13:31.904Z</time></trkpt><trkpt lat="42.6639623" lon="11.4680375"><ele>128.71428571428572</ele><time>2026-04-02T13:13:32.904Z</time></trkpt><trkpt lat="42.6639457" lon="11.4681266"><ele>128.28571428571428</ele><time>2026-04-02T13:13:33.904Z</time></trkpt><trkpt lat="42.6639375" lon="11.4682153"><ele>127.85714285714286</ele><time>2026-04-02T13:13:34.904Z</time></trkpt><trkpt lat="42.6639294" lon="11.4683095"><ele>127.42857142857143</ele><time>2026-04-02T13:13:35.904Z</time></trkpt><trkpt lat="42.6639206" lon="11.4684059"><ele>127.0</ele><time>2026-04-02T13:13:36.904Z</time></trkpt><trkpt lat="42.6639143" lon="11.4684961"><ele>127.0</ele><time>2026-04-02T13:13:37.904Z</time></trkpt><trkpt lat="42.6639059" lon="11.4685924"><ele>126.99999999999999</ele><time>2026-04-02T13:13:38.904Z</time></trkpt><trkpt lat="42.663892" lon="11.4686823"><ele>126.99999999999999</ele><time>2026-04-02T13:13:39.904Z</time></trkpt><trkpt lat="42.6638598" lon="11.4688454"><ele>127.0</ele><time>2026-04-02T13:13:41.904Z</time></trkpt><trkpt lat="42.6638387" lon="11.4690052"><ele>127.0</ele><time>2026-04-02T13:13:43.903Z</time></trkpt><trkpt lat="42.6638302" lon="11.4691015"><ele>126.83333333333334</ele><time>2026-04-02T13:13:44.904Z</time></trkpt><trkpt lat="42.6638291" lon="11.4692083"><ele>126.66666666666667</ele><time>2026-04-02T13:13:45.904Z</time></trkpt><trkpt lat="42.663827" lon="11.4693273"><ele>126.5</ele><time>2026-04-02T13:13:46.904Z</time></trkpt><trkpt lat="42.6638292" lon="11.4694521"><ele>126.33333333333334</ele><time>2026-04-02T13:13:47.904Z</time></trkpt><trkpt lat="42.663829" lon="11.4695742"><ele>126.16666666666667</ele><time>2026-04-02T13:13:48.904Z</time></trkpt><trkpt lat="42.6638249" lon="11.4696934"><ele>126.0</ele><time>2026-04-02T13:13:49.904Z</time></trkpt><trkpt lat="42.6638233" lon="11.4698135"><ele>126.0</ele><time>2026-04-02T13:13:50.904Z</time></trkpt><trkpt lat="42.6638182" lon="11.4699359"><ele>126.0</ele><time>2026-04-02T13:13:51.904Z</time></trkpt><trkpt lat="42.6638151" lon="11.4700558"><ele>126.0</ele><time>2026-04-02T13:13:52.904Z</time></trkpt><trkpt lat="42.6638029" lon="11.4701844"><ele>126.0</ele><time>2026-04-02T13:13:53.904Z</time></trkpt><trkpt lat="42.6637848" lon="11.4703022"><ele>126.0</ele><time>2026-04-02T13:13:54.904Z</time></trkpt><trkpt lat="42.6637627" lon="11.4704041"><ele>126.0</ele><time>2026-04-02T13:13:55.903Z</time></trkpt><trkpt lat="42.6637134" lon="11.47053"><ele>126.0</ele><time>2026-04-02T13:13:57.904Z</time></trkpt><trkpt lat="42.6636666" lon="11.4705888"><ele>126.0</ele><time>2026-04-02T13:14:00.904Z</time></trkpt><trkpt lat="42.6636605" lon="11.4706922"><ele>126.0</ele><time>2026-04-02T13:14:36.904Z</time></trkpt><trkpt lat="42.6637223" lon="11.4706632"><ele>126.0</ele><time>2026-04-02T13:14:48.904Z</time></trkpt><trkpt lat="42.66375" lon="11.4705381"><ele>126.0</ele><time>2026-04-02T13:14:51.904Z</time></trkpt><trkpt lat="42.6637793" lon="11.4704277"><ele>126.0</ele><time>2026-04-02T13:14:54.904Z</time></trkpt><trkpt lat="42.6638007" lon="11.470347"><ele>126.0</ele><time>2026-04-02T13:14:56.903Z</time></trkpt><trkpt lat="42.6638187" lon="11.4702504"><ele>126.0</ele><time>2026-04-02T13:14:58.904Z</time></trkpt><trkpt lat="42.6638326" lon="11.4701368"><ele>126.0</ele><time>2026-04-02T13:15:00.904Z</time></trkpt><trkpt lat="42.6638406" lon="11.4700105"><ele>126.0</ele><time>2026-04-02T13:15:02.904Z</time></trkpt><trkpt lat="42.6638438" lon="11.4699006"><ele>126.0</ele><time>2026-04-02T13:15:04.903Z</time></trkpt><trkpt lat="42.6638435" lon="11.469778"><ele>126.0</ele><time>2026-04-02T13:15:06.904Z</time></trkpt><trkpt lat="42.6638472" lon="11.4695256"><ele>126.0</ele><time>2026-04-02T13:15:11.904Z</time></trkpt><trkpt lat="42.6638423" lon="11.4694127"><ele>126.0</ele><time>2026-04-02T13:15:27.904Z</time></trkpt><trkpt lat="42.6638472" lon="11.4692899"><ele>126.0</ele><time>2026-04-02T13:15:29.904Z</time></trkpt><trkpt lat="42.6638535" lon="11.4691469"><ele>126.0</ele><time>2026-04-02T13:15:31.904Z</time></trkpt><trkpt lat="42.6638626" lon="11.468982"><ele>126.0</ele><time>2026-04-02T13:15:33.904Z</time></trkpt><trkpt lat="42.6638803" lon="11.4688292"><ele>126.19999999999999</ele><time>2026-04-02T13:15:35.904Z</time></trkpt><trkpt lat="42.6639057" lon="11.4686743"><ele>126.39999999999999</ele><time>2026-04-02T13:15:37.904Z</time></trkpt><trkpt lat="42.6639201" lon="11.4685842"><ele>126.6</ele><time>2026-04-02T13:15:38.904Z</time></trkpt><trkpt lat="42.6639445" lon="11.4684159"><ele>126.8</ele><time>2026-04-02T13:15:40.904Z</time></trkpt><trkpt lat="42.6639541" lon="11.4683175"><ele>127.0</ele><time>2026-04-02T13:15:41.904Z</time></trkpt><trkpt lat="42.6639625" lon="11.4682118"><ele>127.00000000000001</ele><time>2026-04-02T13:15:42.904Z</time></trkpt><trkpt lat="42.6639737" lon="11.4681142"><ele>127.0</ele><time>2026-04-02T13:15:43.904Z</time></trkpt><trkpt lat="42.6639908" lon="11.4680014"><ele>127.0</ele><time>2026-04-02T13:15:44.904Z</time></trkpt><trkpt lat="42.6640091" lon="11.467884"><ele>127.0</ele><time>2026-04-02T13:15:45.904Z</time></trkpt><trkpt lat="42.66403" lon="11.4677636"><ele>127.00000000000001</ele><time>2026-04-02T13:15:46.904Z</time></trkpt><trkpt lat="42.6640536" lon="11.4676423"><ele>127.0</ele><time>2026-04-02T13:15:47.904Z</time></trkpt><trkpt lat="42.6640809" lon="11.4675288"><ele>127.50000000000001</ele><time>2026-04-02T13:15:48.904Z</time></trkpt><trkpt lat="42.6641125" lon="11.4674246"><ele>128.0</ele><time>2026-04-02T13:15:49.904Z</time></trkpt><trkpt lat="42.6641437" lon="11.4673137"><ele>128.5</ele><time>2026-04-02T13:15:50.904Z</time></trkpt><trkpt lat="42.6641778" lon="11.4671987"><ele>129.0</ele><time>2026-04-02T13:15:51.904Z</time></trkpt><trkpt lat="42.6642096" lon="11.467087"><ele>129.5</ele><time>2026-04-02T13:15:52.904Z</time></trkpt><trkpt lat="42.6642423" lon="11.4669732"><ele>130.0</ele><time>2026-04-02T13:15:53.904Z</time></trkpt><trkpt lat="42.6642794" lon="11.4668557"><ele>130.2</ele><time>2026-04-02T13:15:54.904Z</time></trkpt><trkpt lat="42.6643154" lon="11.4667333"><ele>130.4</ele><time>2026-04-02T13:15:55.904Z</time></trkpt><trkpt lat="42.6643525" lon="11.466614"><ele>130.6</ele><time>2026-04-02T13:15:56.904Z</time></trkpt><trkpt lat="42.6643926" lon="11.4664911"><ele>130.8</ele><time>2026-04-02T13:15:57.904Z</time></trkpt><trkpt lat="42.6644353" lon="11.4663672"><ele>131.0</ele><time>2026-04-02T13:15:58.904Z</time></trkpt><trkpt lat="42.6644806" lon="11.4662362"><ele>131.4</ele><time>2026-04-02T13:15:59.904Z</time></trkpt><trkpt lat="42.6645261" lon="11.4661214"><ele>131.8</ele><time>2026-04-02T13:16:00.904Z</time></trkpt><trkpt lat="42.6645696" lon="11.4660179"><ele>132.20000000000002</ele><time>2026-04-02T13:16:01.904Z</time></trkpt><trkpt lat="42.6646211" lon="11.4659119"><ele>132.6</ele><time>2026-04-02T13:16:02.904Z</time></trkpt><trkpt lat="42.6646802" lon="11.4658105"><ele>133.0</ele><time>2026-04-02T13:16:03.903Z</time></trkpt><trkpt lat="42.6647417" lon="11.465709"><ele>133.0</ele><time>2026-04-02T13:16:04.904Z</time></trkpt><trkpt lat="42.6648046" lon="11.4656064"><ele>133.0</ele><time>2026-04-02T13:16:05.904Z</time></trkpt><trkpt lat="42.6648632" lon="11.4655025"><ele>133.0</ele><time>2026-04-02T13:16:06.904Z</time></trkpt><trkpt lat="42.6649206" lon="11.4654025"><ele>133.0</ele><time>2026-04-02T13:16:07.904Z</time></trkpt><trkpt lat="42.6649813" lon="11.4653036"><ele>133.0</ele><time>2026-04-02T13:16:08.904Z</time></trkpt><trkpt lat="42.6650431" lon="11.4652026"><ele>132.20000000000002</ele><time>2026-04-02T13:16:09.904Z</time></trkpt><trkpt lat="42.6651024" lon="11.4651012"><ele>131.4</ele><time>2026-04-02T13:16:10.904Z</time></trkpt><trkpt lat="42.6651591" lon="11.4650026"><ele>130.60000000000002</ele><time>2026-04-02T13:16:11.904Z</time></trkpt><trkpt lat="42.6652169" lon="11.4649044"><ele>129.8</ele><time>2026-04-02T13:16:12.904Z</time></trkpt><trkpt lat="42.6652849" lon="11.4648049"><ele>129.0</ele><time>2026-04-02T13:16:13.904Z</time></trkpt><trkpt lat="42.6653514" lon="11.4646997"><ele>131.6</ele><time>2026-04-02T13:16:14.904Z</time></trkpt><trkpt lat="42.6654122" lon="11.4645973"><ele>134.2</ele><time>2026-04-02T13:16:15.904Z</time></trkpt><trkpt lat="42.6654714" lon="11.4644954"><ele>136.79999999999998</ele><time>2026-04-02T13:16:16.904Z</time></trkpt><trkpt lat="42.6655319" lon="11.464398"><ele>139.4</ele><time>2026-04-02T13:16:17.904Z</time></trkpt><trkpt lat="42.6655906" lon="11.4643035"><ele>142.0</ele><time>2026-04-02T13:16:18.904Z</time></trkpt><trkpt lat="42.6656402" lon="11.4642125"><ele>142.0</ele><time>2026-04-02T13:16:19.904Z</time></trkpt><trkpt lat="42.6656834" lon="11.464122"><ele>142.0</ele><time>2026-04-02T13:16:20.904Z</time></trkpt><trkpt lat="42.6657184" lon="11.4640233"><ele>142.0</ele><time>2026-04-02T13:16:21.904Z</time></trkpt><trkpt lat="42.6657499" lon="11.4638987"><ele>142.0</ele><time>2026-04-02T13:16:22.904Z</time></trkpt><trkpt lat="42.6657728" lon="11.4637732"><ele>142.0</ele><time>2026-04-02T13:16:23.904Z</time></trkpt><trkpt lat="42.6657992" lon="11.46365"><ele>142.0</ele><time>2026-04-02T13:16:24.904Z</time></trkpt><trkpt lat="42.6658238" lon="11.4635282"><ele>141.79999999999998</ele><time>2026-04-02T13:16:25.904Z</time></trkpt><trkpt lat="42.6658541" lon="11.4634135"><ele>141.6</ele><time>2026-04-02T13:16:26.904Z</time></trkpt><trkpt lat="42.6658908" lon="11.4632936"><ele>141.39999999999998</ele><time>2026-04-02T13:16:27.904Z</time></trkpt><trkpt lat="42.6659322" lon="11.463175"><ele>141.2</ele><time>2026-04-02T13:16:28.904Z</time></trkpt><trkpt lat="42.6659838" lon="11.4630576"><ele>141.0</ele><time>2026-04-02T13:16:29.904Z</time></trkpt><trkpt lat="42.6660484" lon="11.4629413"><ele>141.6</ele><time>2026-04-02T13:16:30.904Z</time></trkpt><trkpt lat="42.6661211" lon="11.4628308"><ele>142.2</ele><time>2026-04-02T13:16:31.904Z</time></trkpt><trkpt lat="42.6661951" lon="11.4627299"><ele>142.8</ele><time>2026-04-02T13:16:32.904Z</time></trkpt><trkpt lat="42.6662737" lon="11.4626296"><ele>143.4</ele><time>2026-04-02T13:16:33.904Z</time></trkpt><trkpt lat="42.6663385" lon="11.4625462"><ele>144.0</ele><time>2026-04-02T13:16:34.904Z</time></trkpt><trkpt lat="42.6664019" lon="11.4624689"><ele>144.0</ele><time>2026-04-02T13:16:35.904Z</time></trkpt><trkpt lat="42.6664672" lon="11.4623901"><ele>144.0</ele><time>2026-04-02T13:16:36.904Z</time></trkpt><trkpt lat="42.6665434" lon="11.4623228"><ele>144.0</ele><time>2026-04-02T13:16:37.904Z</time></trkpt><trkpt lat="42.6666219" lon="11.4622677"><ele>144.0</ele><time>2026-04-02T13:16:38.904Z</time></trkpt><trkpt lat="42.6667106" lon="11.4622128"><ele>144.0</ele><time>2026-04-02T13:16:39.904Z</time></trkpt><trkpt lat="42.6668055" lon="11.4621559"><ele>144.8</ele><time>2026-04-02T13:16:40.904Z</time></trkpt><trkpt lat="42.6668974" lon="11.4620979"><ele>145.60000000000002</ele><time>2026-04-02T13:16:41.903Z</time></trkpt><trkpt lat="42.6669935" lon="11.4620355"><ele>146.4</ele><time>2026-04-02T13:16:42.904Z</time></trkpt><trkpt lat="42.6670901" lon="11.4619645"><ele>147.20000000000002</ele><time>2026-04-02T13:16:43.904Z</time></trkpt><trkpt lat="42.6671887" lon="11.4618988"><ele>148.0</ele><time>2026-04-02T13:16:44.904Z</time></trkpt><trkpt lat="42.6672858" lon="11.4618332"><ele>148.0</ele><time>2026-04-02T13:16:45.904Z</time></trkpt><trkpt lat="42.6673827" lon="11.4617646"><ele>148.0</ele><time>2026-04-02T13:16:46.903Z</time></trkpt><trkpt lat="42.667475" lon="11.4616992"><ele>148.0</ele><time>2026-04-02T13:16:47.904Z</time></trkpt><trkpt lat="42.6675725" lon="11.4616333"><ele>148.0</ele><time>2026-04-02T13:16:48.904Z</time></trkpt><trkpt lat="42.6676718" lon="11.4615686"><ele>148.0</ele><time>2026-04-02T13:16:49.904Z</time></trkpt><trkpt lat="42.6677711" lon="11.461499"><ele>148.8</ele><time>2026-04-02T13:16:50.903Z</time></trkpt><trkpt lat="42.6678717" lon="11.4614366"><ele>149.60000000000002</ele><time>2026-04-02T13:16:51.903Z</time></trkpt><trkpt lat="42.667964" lon="11.4613692"><ele>150.39999999999998</ele><time>2026-04-02T13:16:52.903Z</time></trkpt><trkpt lat="42.6680618" lon="11.4613032"><ele>151.2</ele><time>2026-04-02T13:16:53.904Z</time></trkpt><trkpt lat="42.6681578" lon="11.461237"><ele>152.0</ele><time>2026-04-02T13:16:54.904Z</time></trkpt><trkpt lat="42.6682573" lon="11.4611745"><ele>152.4</ele><time>2026-04-02T13:16:55.904Z</time></trkpt><trkpt lat="42.668358" lon="11.4611174"><ele>152.79999999999998</ele><time>2026-04-02T13:16:56.904Z</time></trkpt><trkpt lat="42.6684548" lon="11.4610603"><ele>153.2</ele><time>2026-04-02T13:16:57.904Z</time></trkpt><trkpt lat="42.6685549" lon="11.4610085"><ele>153.6</ele><time>2026-04-02T13:16:58.904Z</time></trkpt><trkpt lat="42.6686564" lon="11.4609694"><ele>154.0</ele><time>2026-04-02T13:16:59.904Z</time></trkpt><trkpt lat="42.6687549" lon="11.460926"><ele>154.83333333333334</ele><time>2026-04-02T13:17:00.904Z</time></trkpt><trkpt lat="42.6688497" lon="11.4608941"><ele>155.66666666666669</ele><time>2026-04-02T13:17:01.903Z</time></trkpt><trkpt lat="42.6689329" lon="11.4608648"><ele>156.5</ele><time>2026-04-02T13:17:02.904Z</time></trkpt><trkpt lat="42.668998" lon="11.4608469"><ele>157.33333333333334</ele><time>2026-04-02T13:17:03.904Z</time></trkpt><trkpt lat="42.6690914" lon="11.4608143"><ele>158.16666666666666</ele><time>2026-04-02T13:17:05.904Z</time></trkpt><trkpt lat="42.669132" lon="11.4607445"><ele>159.0</ele><time>2026-04-02T13:17:11.904Z</time></trkpt><trkpt lat="42.669089" lon="11.4606584"><ele>159.0</ele><time>2026-04-02T13:17:14.904Z</time></trkpt><trkpt lat="42.6690366" lon="11.4605943"><ele>159.0</ele><time>2026-04-02T13:18:33.907Z</time></trkpt><trkpt lat="42.668946" lon="11.4605155"><ele>159.0</ele><time>2026-04-02T13:18:35.915Z</time></trkpt><trkpt lat="42.6688713" lon="11.4604638"><ele>159.0</ele><time>2026-04-02T13:18:36.906Z</time></trkpt><trkpt lat="42.668783" lon="11.4604104"><ele>159.0</ele><time>2026-04-02T13:18:37.906Z</time></trkpt><trkpt lat="42.6686795" lon="11.4603584"><ele>160.25</ele><time>2026-04-02T13:18:38.908Z</time></trkpt><trkpt lat="42.6685681" lon="11.4603118"><ele>161.5</ele><time>2026-04-02T13:18:39.908Z</time></trkpt><trkpt lat="42.6684531" lon="11.4602634"><ele>162.75</ele><time>2026-04-02T13:18:40.908Z</time></trkpt><trkpt lat="42.6683362" lon="11.4602113"><ele>164.0</ele><time>2026-04-02T13:18:41.907Z</time></trkpt><trkpt lat="42.6682164" lon="11.46016"><ele>164.0</ele><time>2026-04-02T13:18:42.907Z</time></trkpt><trkpt lat="42.668089" lon="11.4601046"><ele>164.0</ele><time>2026-04-02T13:18:43.907Z</time></trkpt><trkpt lat="42.6679563" lon="11.4600464"><ele>164.0</ele><time>2026-04-02T13:18:44.908Z</time></trkpt><trkpt lat="42.6678207" lon="11.4599868"><ele>164.0</ele><time>2026-04-02T13:18:45.908Z</time></trkpt><trkpt lat="42.667678" lon="11.4599275"><ele>163.75</ele><time>2026-04-02T13:18:46.906Z</time></trkpt><trkpt lat="42.6675376" lon="11.4598677"><ele>163.5</ele><time>2026-04-02T13:18:47.912Z</time></trkpt><trkpt lat="42.6674082" lon="11.4598118"><ele>163.25</ele><time>2026-04-02T13:18:48.912Z</time></trkpt><trkpt lat="42.6672826" lon="11.4597544"><ele>163.0</ele><time>2026-04-02T13:18:49.914Z</time></trkpt><trkpt lat="42.6671574" lon="11.4596963"><ele>163.0</ele><time>2026-04-02T13:18:50.913Z</time></trkpt><trkpt lat="42.6670322" lon="11.4596428"><ele>163.0</ele><time>2026-04-02T13:18:51.912Z</time></trkpt><trkpt lat="42.6669087" lon="11.4595871"><ele>163.0</ele><time>2026-04-02T13:18:52.906Z</time></trkpt><trkpt lat="42.6667821" lon="11.4595264"><ele>163.0</ele><time>2026-04-02T13:18:53.911Z</time></trkpt><trkpt lat="42.6666525" lon="11.4594662"><ele>165.25</ele><time>2026-04-02T13:18:54.92Z</time></trkpt><trkpt lat="42.6665171" lon="11.4594017"><ele>167.5</ele><time>2026-04-02T13:18:55.908Z</time></trkpt><trkpt lat="42.666374" lon="11.459342"><ele>169.75</ele><time>2026-04-02T13:18:56.907Z</time></trkpt><trkpt lat="42.6662324" lon="11.4592816"><ele>172.0</ele><time>2026-04-02T13:18:57.906Z</time></trkpt><trkpt lat="42.6660888" lon="11.459219"><ele>172.5</ele><time>2026-04-02T13:18:58.907Z</time></trkpt><trkpt lat="42.6659535" lon="11.459163"><ele>173.0</ele><time>2026-04-02T13:18:59.907Z</time></trkpt><trkpt lat="42.6658287" lon="11.4591111"><ele>173.5</ele><time>2026-04-02T13:19:00.908Z</time></trkpt><trkpt lat="42.6657007" lon="11.4590506"><ele>174.0</ele><time>2026-04-02T13:19:01.911Z</time></trkpt><trkpt lat="42.6655894" lon="11.4589998"><ele>174.0</ele><time>2026-04-02T13:19:02.908Z</time></trkpt><trkpt lat="42.6654717" lon="11.4589593"><ele>174.0</ele><time>2026-04-02T13:19:03.908Z</time></trkpt><trkpt lat="42.6653518" lon="11.4589345"><ele>174.0</ele><time>2026-04-02T13:19:04.913Z</time></trkpt><trkpt lat="42.6652352" lon="11.4589325"><ele>174.0</ele><time>2026-04-02T13:19:05.907Z</time></trkpt><trkpt lat="42.6651178" lon="11.4589535"><ele>174.25</ele><time>2026-04-02T13:19:06.911Z</time></trkpt><trkpt lat="42.6649922" lon="11.4589992"><ele>174.5</ele><time>2026-04-02T13:19:07.912Z</time></trkpt><trkpt lat="42.6648568" lon="11.4590596"><ele>174.75</ele><time>2026-04-02T13:19:08.907Z</time></trkpt><trkpt lat="42.6647084" lon="11.4591333"><ele>175.0</ele><time>2026-04-02T13:19:09.909Z</time></trkpt><trkpt lat="42.6645579" lon="11.45921"><ele>174.25</ele><time>2026-04-02T13:19:10.907Z</time></trkpt><trkpt lat="42.6644145" lon="11.4592807"><ele>173.5</ele><time>2026-04-02T13:19:11.914Z</time></trkpt><trkpt lat="42.664276" lon="11.4593494"><ele>172.75</ele><time>2026-04-02T13:19:12.906Z</time></trkpt><trkpt lat="42.6641367" lon="11.4594157"><ele>172.0</ele><time>2026-04-02T13:19:13.906Z</time></trkpt><trkpt lat="42.6640002" lon="11.4594816"><ele>172.0</ele><time>2026-04-02T13:19:14.907Z</time></trkpt><trkpt lat="42.6638679" lon="11.4595428"><ele>172.0</ele><time>2026-04-02T13:19:15.908Z</time></trkpt><trkpt lat="42.6637339" lon="11.4596023"><ele>172.0</ele><time>2026-04-02T13:19:16.906Z</time></trkpt><trkpt lat="42.6635956" lon="11.4596615"><ele>172.0</ele><time>2026-04-02T13:19:17.907Z</time></trkpt><trkpt lat="42.6634532" lon="11.4597176"><ele>173.0</ele><time>2026-04-02T13:19:18.906Z</time></trkpt><trkpt lat="42.6633042" lon="11.4597634"><ele>174.0</ele><time>2026-04-02T13:19:19.908Z</time></trkpt><trkpt lat="42.6631517" lon="11.4598036"><ele>175.0</ele><time>2026-04-02T13:19:20.907Z</time></trkpt><trkpt lat="42.6630002" lon="11.4598436"><ele>175.0</ele><time>2026-04-02T13:19:21.907Z</time></trkpt><trkpt lat="42.6628555" lon="11.459877"><ele>175.0</ele><time>2026-04-02T13:19:22.912Z</time></trkpt><trkpt lat="42.6627097" lon="11.459924"><ele>175.0</ele><time>2026-04-02T13:19:23.906Z</time></trkpt><trkpt lat="42.6625657" lon="11.4599696"><ele>175.0</ele><time>2026-04-02T13:19:24.911Z</time></trkpt><trkpt lat="42.66242" lon="11.4600188"><ele>175.0</ele><time>2026-04-02T13:19:25.907Z</time></trkpt><trkpt lat="42.6622731" lon="11.4600571"><ele>175.0</ele><time>2026-04-02T13:19:26.91Z</time></trkpt><trkpt lat="42.6621321" lon="11.4600995"><ele>175.0</ele><time>2026-04-02T13:19:27.91Z</time></trkpt><trkpt lat="42.6619931" lon="11.4601412"><ele>175.0</ele><time>2026-04-02T13:19:28.915Z</time></trkpt><trkpt lat="42.6618605" lon="11.4601728"><ele>176.0</ele><time>2026-04-02T13:19:29.905Z</time></trkpt><trkpt lat="42.6617275" lon="11.4601955"><ele>177.0</ele><time>2026-04-02T13:19:30.907Z</time></trkpt><trkpt lat="42.6615918" lon="11.4602064"><ele>178.0</ele><time>2026-04-02T13:19:31.909Z</time></trkpt><trkpt lat="42.6614487" lon="11.4602084"><ele>179.0</ele><time>2026-04-02T13:19:32.908Z</time></trkpt><trkpt lat="42.6612973" lon="11.4602027"><ele>179.0</ele><time>2026-04-02T13:19:33.904Z</time></trkpt><trkpt lat="42.6611353" lon="11.4601975"><ele>179.0</ele><time>2026-04-02T13:19:34.906Z</time></trkpt><trkpt lat="42.6608955" lon="11.4601927"><ele>179.0</ele><time>2026-04-02T13:19:36.857Z</time></trkpt><trkpt lat="42.6606443" lon="11.4601853"><ele>179.0</ele><time>2026-04-02T13:19:37.908Z</time></trkpt><trkpt lat="42.6604897" lon="11.460185"><ele>179.0</ele><time>2026-04-02T13:19:38.907Z</time></trkpt><trkpt lat="42.6603382" lon="11.4601822"><ele>179.0</ele><time>2026-04-02T13:19:39.908Z</time></trkpt><trkpt lat="42.6601941" lon="11.4601821"><ele>179.0</ele><time>2026-04-02T13:19:40.909Z</time></trkpt><trkpt lat="42.6600644" lon="11.4601953"><ele>179.0</ele><time>2026-04-02T13:19:41.908Z</time></trkpt><trkpt lat="42.659925" lon="11.4602022"><ele>179.0</ele><time>2026-04-02T13:19:42.906Z</time></trkpt><trkpt lat="42.6596458" lon="11.4602264"><ele>179.0</ele><time>2026-04-02T13:19:44.906Z</time></trkpt><trkpt lat="42.6595084" lon="11.4602466"><ele>179.0</ele><time>2026-04-02T13:19:45.907Z</time></trkpt><trkpt lat="42.6593729" lon="11.4602686"><ele>179.0</ele><time>2026-04-02T13:19:46.907Z</time></trkpt><trkpt lat="42.6592405" lon="11.4602971"><ele>179.0</ele><time>2026-04-02T13:19:47.907Z</time></trkpt><trkpt lat="42.6591206" lon="11.4603251"><ele>178.79999999999998</ele><time>2026-04-02T13:19:48.909Z</time></trkpt><trkpt lat="42.6590066" lon="11.4603523"><ele>178.6</ele><time>2026-04-02T13:19:49.907Z</time></trkpt><trkpt lat="42.6589016" lon="11.4603695"><ele>178.4</ele><time>2026-04-02T13:19:50.916Z</time></trkpt><trkpt lat="42.6588058" lon="11.4603811"><ele>178.2</ele><time>2026-04-02T13:19:51.907Z</time></trkpt><trkpt lat="42.6587101" lon="11.4603834"><ele>178.0</ele><time>2026-04-02T13:19:52.907Z</time></trkpt><trkpt lat="42.6586106" lon="11.4603755"><ele>175.75</ele><time>2026-04-02T13:19:53.908Z</time></trkpt><trkpt lat="42.6585044" lon="11.460357"><ele>173.5</ele><time>2026-04-02T13:19:54.906Z</time></trkpt><trkpt lat="42.6583885" lon="11.4603217"><ele>171.25</ele><time>2026-04-02T13:19:55.907Z</time></trkpt><trkpt lat="42.6582679" lon="11.4602697"><ele>169.0</ele><time>2026-04-02T13:19:56.911Z</time></trkpt><trkpt lat="42.658151" lon="11.4602177"><ele>169.0</ele><time>2026-04-02T13:19:57.907Z</time></trkpt><trkpt lat="42.6580398" lon="11.4601606"><ele>169.0</ele><time>2026-04-02T13:19:58.91Z</time></trkpt><trkpt lat="42.6579325" lon="11.460103"><ele>169.0</ele><time>2026-04-02T13:19:59.909Z</time></trkpt><trkpt lat="42.6578282" lon="11.4600463"><ele>169.0</ele><time>2026-04-02T13:20:00.908Z</time></trkpt><trkpt lat="42.6577268" lon="11.4599951"><ele>168.0</ele><time>2026-04-02T13:20:01.907Z</time></trkpt><trkpt lat="42.6576286" lon="11.4599446"><ele>167.0</ele><time>2026-04-02T13:20:02.907Z</time></trkpt><trkpt lat="42.6575347" lon="11.4598916"><ele>166.0</ele><time>2026-04-02T13:20:03.907Z</time></trkpt><trkpt lat="42.6573331" lon="11.459792"><ele>165.0</ele><time>2026-04-02T13:20:05.912Z</time></trkpt><trkpt lat="42.6572372" lon="11.4597423"><ele>165.0</ele><time>2026-04-02T13:20:06.906Z</time></trkpt><trkpt lat="42.657141" lon="11.4596902"><ele>165.0</ele><time>2026-04-02T13:20:07.908Z</time></trkpt><trkpt lat="42.6570489" lon="11.4596412"><ele>165.0</ele><time>2026-04-02T13:20:08.909Z</time></trkpt><trkpt lat="42.656964" lon="11.4595979"><ele>165.0</ele><time>2026-04-02T13:20:09.909Z</time></trkpt><trkpt lat="42.6568746" lon="11.4595642"><ele>165.0</ele><time>2026-04-02T13:20:10.908Z</time></trkpt><trkpt lat="42.6567796" lon="11.4595356"><ele>164.6</ele><time>2026-04-02T13:20:11.906Z</time></trkpt><trkpt lat="42.6566863" lon="11.4595218"><ele>164.2</ele><time>2026-04-02T13:20:12.907Z</time></trkpt><trkpt lat="42.6565987" lon="11.4595298"><ele>163.8</ele><time>2026-04-02T13:20:13.906Z</time></trkpt><trkpt lat="42.6565023" lon="11.4595587"><ele>163.4</ele><time>2026-04-02T13:20:14.907Z</time></trkpt><trkpt lat="42.6564072" lon="11.459602"><ele>163.0</ele><time>2026-04-02T13:20:15.908Z</time></trkpt><trkpt lat="42.6563052" lon="11.4596637"><ele>163.0</ele><time>2026-04-02T13:20:16.911Z</time></trkpt><trkpt lat="42.6562165" lon="11.4597393"><ele>163.0</ele><time>2026-04-02T13:20:17.908Z</time></trkpt><trkpt lat="42.656135" lon="11.4598253"><ele>163.0</ele><time>2026-04-02T13:20:18.907Z</time></trkpt><trkpt lat="42.6560577" lon="11.459913"><ele>163.0</ele><time>2026-04-02T13:20:19.909Z</time></trkpt><trkpt lat="42.6559911" lon="11.4599935"><ele>163.0</ele><time>2026-04-02T13:20:20.908Z</time></trkpt><trkpt lat="42.6559208" lon="11.4600828"><ele>162.60000000000002</ele><time>2026-04-02T13:20:21.906Z</time></trkpt><trkpt lat="42.6558445" lon="11.4601867"><ele>162.20000000000002</ele><time>2026-04-02T13:20:22.906Z</time></trkpt><trkpt lat="42.6557674" lon="11.4602938"><ele>161.8</ele><time>2026-04-02T13:20:23.908Z</time></trkpt><trkpt lat="42.655695" lon="11.4603903"><ele>161.4</ele><time>2026-04-02T13:20:24.91Z</time></trkpt><trkpt lat="42.6556311" lon="11.4604793"><ele>161.0</ele><time>2026-04-02T13:20:25.906Z</time></trkpt><trkpt lat="42.6555693" lon="11.4605562"><ele>161.0</ele><time>2026-04-02T13:20:26.908Z</time></trkpt><trkpt lat="42.6555051" lon="11.4606203"><ele>161.0</ele><time>2026-04-02T13:20:27.907Z</time></trkpt><trkpt lat="42.6554366" lon="11.4606769"><ele>161.0</ele><time>2026-04-02T13:20:28.906Z</time></trkpt><trkpt lat="42.6553677" lon="11.4607258"><ele>161.0</ele><time>2026-04-02T13:20:29.905Z</time></trkpt><trkpt lat="42.655297" lon="11.4607614"><ele>161.0</ele><time>2026-04-02T13:20:30.906Z</time></trkpt><trkpt lat="42.6552187" lon="11.4607795"><ele>161.0</ele><time>2026-04-02T13:20:31.907Z</time></trkpt><trkpt lat="42.6551373" lon="11.4607817"><ele>158.8</ele><time>2026-04-02T13:20:32.918Z</time></trkpt><trkpt lat="42.6550514" lon="11.4607669"><ele>156.60000000000002</ele><time>2026-04-02T13:20:33.913Z</time></trkpt><trkpt lat="42.6549596" lon="11.4607395"><ele>154.4</ele><time>2026-04-02T13:20:34.91Z</time></trkpt><trkpt lat="42.6548507" lon="11.46071"><ele>152.2</ele><time>2026-04-02T13:20:35.908Z</time></trkpt><trkpt lat="42.6547289" lon="11.4606777"><ele>150.0</ele><time>2026-04-02T13:20:36.908Z</time></trkpt><trkpt lat="42.6545978" lon="11.4606403"><ele>149.0</ele><time>2026-04-02T13:20:37.906Z</time></trkpt><trkpt lat="42.6544513" lon="11.4606019"><ele>148.0</ele><time>2026-04-02T13:20:38.907Z</time></trkpt><trkpt lat="42.6543114" lon="11.4605643"><ele>147.0</ele><time>2026-04-02T13:20:39.906Z</time></trkpt><trkpt lat="42.6541557" lon="11.4605299"><ele>147.0</ele><time>2026-04-02T13:20:40.908Z</time></trkpt><trkpt lat="42.6539879" lon="11.4604854"><ele>147.0</ele><time>2026-04-02T13:20:41.907Z</time></trkpt><trkpt lat="42.6538311" lon="11.4604398"><ele>147.0</ele><time>2026-04-02T13:20:42.909Z</time></trkpt><trkpt lat="42.653672" lon="11.4603932"><ele>147.0</ele><time>2026-04-02T13:20:43.907Z</time></trkpt><trkpt lat="42.6535032" lon="11.460343"><ele>147.0</ele><time>2026-04-02T13:20:44.91Z</time></trkpt><trkpt lat="42.6533307" lon="11.460289"><ele>147.0</ele><time>2026-04-02T13:20:45.905Z</time></trkpt><trkpt lat="42.6531573" lon="11.4602374"><ele>147.0</ele><time>2026-04-02T13:20:46.907Z</time></trkpt><trkpt lat="42.6529887" lon="11.4601902"><ele>147.0</ele><time>2026-04-02T13:20:47.909Z</time></trkpt><trkpt lat="42.6528157" lon="11.4601445"><ele>147.0</ele><time>2026-04-02T13:20:48.917Z</time></trkpt><trkpt lat="42.6526429" lon="11.4600926"><ele>145.66666666666666</ele><time>2026-04-02T13:20:49.91Z</time></trkpt><trkpt lat="42.6524758" lon="11.4600425"><ele>144.33333333333331</ele><time>2026-04-02T13:20:50.907Z</time></trkpt><trkpt lat="42.6523096" lon="11.4599944"><ele>143.0</ele><time>2026-04-02T13:20:51.907Z</time></trkpt><trkpt lat="42.6521436" lon="11.4599496"><ele>143.0</ele><time>2026-04-02T13:20:52.91Z</time></trkpt><trkpt lat="42.6519783" lon="11.4599054"><ele>143.0</ele><time>2026-04-02T13:20:53.905Z</time></trkpt><trkpt lat="42.6518146" lon="11.4598617"><ele>143.0</ele><time>2026-04-02T13:20:54.907Z</time></trkpt><trkpt lat="42.651655" lon="11.4598186"><ele>142.5</ele><time>2026-04-02T13:20:55.91Z</time></trkpt><trkpt lat="42.651498" lon="11.4597744"><ele>142.0</ele><time>2026-04-02T13:20:56.91Z</time></trkpt><trkpt lat="42.6513572" lon="11.4597314"><ele>141.5</ele><time>2026-04-02T13:20:57.913Z</time></trkpt><trkpt lat="42.6512247" lon="11.4596819"><ele>141.0</ele><time>2026-04-02T13:20:58.909Z</time></trkpt><trkpt lat="42.651104" lon="11.4596117"><ele>140.5</ele><time>2026-04-02T13:20:59.906Z</time></trkpt><trkpt lat="42.6509893" lon="11.459511"><ele>140.0</ele><time>2026-04-02T13:21:00.908Z</time></trkpt><trkpt lat="42.6508859" lon="11.4593784"><ele>139.5</ele><time>2026-04-02T13:21:01.91Z</time></trkpt><trkpt lat="42.6507923" lon="11.4592185"><ele>139.0</ele><time>2026-04-02T13:21:02.907Z</time></trkpt><trkpt lat="42.6506948" lon="11.4590509"><ele>139.0</ele><time>2026-04-02T13:21:03.907Z</time></trkpt><trkpt lat="42.6505948" lon="11.4588727"><ele>139.0</ele><time>2026-04-02T13:21:04.909Z</time></trkpt><trkpt lat="42.6504919" lon="11.4586822"><ele>139.0</ele><time>2026-04-02T13:21:05.906Z</time></trkpt><trkpt lat="42.6503908" lon="11.4584976"><ele>138.33333333333334</ele><time>2026-04-02T13:21:06.909Z</time></trkpt><trkpt lat="42.650297" lon="11.4583209"><ele>137.66666666666666</ele><time>2026-04-02T13:21:07.907Z</time></trkpt><trkpt lat="42.6502059" lon="11.4581457"><ele>137.0</ele><time>2026-04-02T13:21:08.906Z</time></trkpt><trkpt lat="42.6501182" lon="11.457977"><ele>136.25</ele><time>2026-04-02T13:21:09.908Z</time></trkpt><trkpt lat="42.650026" lon="11.4578183"><ele>135.5</ele><time>2026-04-02T13:21:10.907Z</time></trkpt><trkpt lat="42.649927" lon="11.4576835"><ele>134.75</ele><time>2026-04-02T13:21:11.911Z</time></trkpt><trkpt lat="42.6498106" lon="11.4575758"><ele>134.0</ele><time>2026-04-02T13:21:12.906Z</time></trkpt><trkpt lat="42.6496849" lon="11.457513"><ele>134.0</ele><time>2026-04-02T13:21:13.91Z</time></trkpt><trkpt lat="42.6495456" lon="11.4574937"><ele>134.0</ele><time>2026-04-02T13:21:14.906Z</time></trkpt><trkpt lat="42.6493923" lon="11.4575211"><ele>134.0</ele><time>2026-04-02T13:21:15.907Z</time></trkpt><trkpt lat="42.6492251" lon="11.4575883"><ele>133.66666666666666</ele><time>2026-04-02T13:21:16.906Z</time></trkpt><trkpt lat="42.6490459" lon="11.4576795"><ele>133.33333333333334</ele><time>2026-04-02T13:21:17.907Z</time></trkpt><trkpt lat="42.6488543" lon="11.4577785"><ele>133.0</ele><time>2026-04-02T13:21:18.907Z</time></trkpt><trkpt lat="42.6486656" lon="11.4578695"><ele>131.66666666666669</ele><time>2026-04-02T13:21:19.908Z</time></trkpt><trkpt lat="42.6484879" lon="11.4579613"><ele>130.33333333333334</ele><time>2026-04-02T13:21:20.91Z</time></trkpt><trkpt lat="42.6483184" lon="11.458052"><ele>129.0</ele><time>2026-04-02T13:21:21.911Z</time></trkpt><trkpt lat="42.648159" lon="11.4581336"><ele>129.0</ele><time>2026-04-02T13:21:22.907Z</time></trkpt><trkpt lat="42.6480172" lon="11.4582053"><ele>129.0</ele><time>2026-04-02T13:21:23.907Z</time></trkpt><trkpt lat="42.6478883" lon="11.4582625"><ele>129.0</ele><time>2026-04-02T13:21:24.909Z</time></trkpt><trkpt lat="42.6477637" lon="11.4582882"><ele>129.0</ele><time>2026-04-02T13:21:25.908Z</time></trkpt><trkpt lat="42.6476309" lon="11.4582757"><ele>127.33333333333334</ele><time>2026-04-02T13:21:26.908Z</time></trkpt><trkpt lat="42.647497" lon="11.4582249"><ele>125.66666666666667</ele><time>2026-04-02T13:21:27.909Z</time></trkpt><trkpt lat="42.6473609" lon="11.4581293"><ele>124.0</ele><time>2026-04-02T13:21:28.91Z</time></trkpt><trkpt lat="42.6472241" lon="11.4580118"><ele>125.33333333333334</ele><time>2026-04-02T13:21:29.907Z</time></trkpt><trkpt lat="42.6470867" lon="11.4578617"><ele>126.66666666666666</ele><time>2026-04-02T13:21:30.912Z</time></trkpt><trkpt lat="42.6469513" lon="11.4576788"><ele>128.0</ele><time>2026-04-02T13:21:31.908Z</time></trkpt><trkpt lat="42.6468177" lon="11.4574757"><ele>124.75</ele><time>2026-04-02T13:21:32.926Z</time></trkpt><trkpt lat="42.6467109" lon="11.4573023"><ele>121.5</ele><time>2026-04-02T13:21:33.906Z</time></trkpt><trkpt lat="42.6466285" lon="11.4571543"><ele>118.25</ele><time>2026-04-02T13:21:34.908Z</time></trkpt><trkpt lat="42.6465654" lon="11.4570147"><ele>115.0</ele><time>2026-04-02T13:21:35.907Z</time></trkpt><trkpt lat="42.6465194" lon="11.4568666"><ele>115.0</ele><time>2026-04-02T13:21:36.908Z</time></trkpt><trkpt lat="42.6464963" lon="11.4567027"><ele>115.0</ele><time>2026-04-02T13:21:37.909Z</time></trkpt><trkpt lat="42.6464997" lon="11.4565194"><ele>115.0</ele><time>2026-04-02T13:21:38.914Z</time></trkpt><trkpt lat="42.6465231" lon="11.4563208"><ele>115.0</ele><time>2026-04-02T13:21:39.909Z</time></trkpt><trkpt lat="42.6465534" lon="11.4561148"><ele>113.25</ele><time>2026-04-02T13:21:40.907Z</time></trkpt><trkpt lat="42.6465825" lon="11.4559213"><ele>111.5</ele><time>2026-04-02T13:21:41.907Z</time></trkpt><trkpt lat="42.6466154" lon="11.4557241"><ele>109.75</ele><time>2026-04-02T13:21:42.91Z</time></trkpt><trkpt lat="42.6466489" lon="11.4555377"><ele>108.0</ele><time>2026-04-02T13:21:43.909Z</time></trkpt><trkpt lat="42.6466792" lon="11.4553508"><ele>107.0</ele><time>2026-04-02T13:21:44.907Z</time></trkpt><trkpt lat="42.646712" lon="11.4551622"><ele>106.0</ele><time>2026-04-02T13:21:45.909Z</time></trkpt><trkpt lat="42.6467425" lon="11.4549808"><ele>105.0</ele><time>2026-04-02T13:21:46.908Z</time></trkpt><trkpt lat="42.6467883" lon="11.4546723"><ele>105.0</ele><time>2026-04-02T13:21:48.91Z</time></trkpt><trkpt lat="42.646814" lon="11.4545496"><ele>105.0</ele><time>2026-04-02T13:21:49.918Z</time></trkpt><trkpt lat="42.6468343" lon="11.4544304"><ele>105.0</ele><time>2026-04-02T13:21:50.909Z</time></trkpt><trkpt lat="42.6468516" lon="11.4543121"><ele>105.0</ele><time>2026-04-02T13:21:51.909Z</time></trkpt><trkpt lat="42.6468687" lon="11.4542004"><ele>105.0</ele><time>2026-04-02T13:21:52.908Z</time></trkpt><trkpt lat="42.6468839" lon="11.4541054"><ele>105.0</ele><time>2026-04-02T13:21:53.91Z</time></trkpt><trkpt lat="42.6469073" lon="11.4539847"><ele>105.0</ele><time>2026-04-02T13:21:55.909Z</time></trkpt><trkpt lat="42.6469201" lon="11.4538949"><ele>105.0</ele><time>2026-04-02T13:21:57.909Z</time></trkpt><trkpt lat="42.6469416" lon="11.4537856"><ele>105.0</ele><time>2026-04-02T13:22:00.911Z</time></trkpt><trkpt lat="42.6469673" lon="11.4536667"><ele>105.0</ele><time>2026-04-02T13:22:03.907Z</time></trkpt><trkpt lat="42.6470005" lon="11.4535159"><ele>105.0</ele><time>2026-04-02T13:22:05.911Z</time></trkpt><trkpt lat="42.6470171" lon="11.4534169"><ele>105.0</ele><time>2026-04-02T13:22:06.91Z</time></trkpt><trkpt lat="42.6470277" lon="11.4533275"><ele>105.0</ele><time>2026-04-02T13:22:07.907Z</time></trkpt><trkpt lat="42.6470225" lon="11.4532338"><ele>105.0</ele><time>2026-04-02T13:22:08.91Z</time></trkpt><trkpt lat="42.6470021" lon="11.4531401"><ele>105.0</ele><time>2026-04-02T13:22:09.913Z</time></trkpt><trkpt lat="42.6469647" lon="11.4530504"><ele>105.0</ele><time>2026-04-02T13:22:10.907Z</time></trkpt><trkpt lat="42.6469052" lon="11.452969"><ele>105.0</ele><time>2026-04-02T13:22:11.91Z</time></trkpt><trkpt lat="42.646827" lon="11.4529027"><ele>105.0</ele><time>2026-04-02T13:22:12.909Z</time></trkpt><trkpt lat="42.6467288" lon="11.4528497"><ele>105.0</ele><time>2026-04-02T13:22:13.913Z</time></trkpt><trkpt lat="42.646614" lon="11.4528151"><ele>105.0</ele><time>2026-04-02T13:22:14.908Z</time></trkpt><trkpt lat="42.6464799" lon="11.4527945"><ele>105.0</ele><time>2026-04-02T13:22:15.908Z</time></trkpt><trkpt lat="42.646327" lon="11.4527752"><ele>105.0</ele><time>2026-04-02T13:22:16.906Z</time></trkpt><trkpt lat="42.6461503" lon="11.4527545"><ele>104.33333333333334</ele><time>2026-04-02T13:22:17.913Z</time></trkpt><trkpt lat="42.6459528" lon="11.4527299"><ele>103.66666666666667</ele><time>2026-04-02T13:22:18.908Z</time></trkpt><trkpt lat="42.6457469" lon="11.452706"><ele>103.0</ele><time>2026-04-02T13:22:19.908Z</time></trkpt><trkpt lat="42.6455434" lon="11.4526827"><ele>103.0</ele><time>2026-04-02T13:22:20.91Z</time></trkpt><trkpt lat="42.6453563" lon="11.4526569"><ele>103.0</ele><time>2026-04-02T13:22:21.908Z</time></trkpt><trkpt lat="42.6451782" lon="11.4526282"><ele>103.0</ele><time>2026-04-02T13:22:22.907Z</time></trkpt><trkpt lat="42.6449964" lon="11.4526024"><ele>102.66666666666667</ele><time>2026-04-02T13:22:23.908Z</time></trkpt><trkpt lat="42.6448167" lon="11.4525742"><ele>102.33333333333334</ele><time>2026-04-02T13:22:24.909Z</time></trkpt><trkpt lat="42.6446482" lon="11.4525531"><ele>102.0</ele><time>2026-04-02T13:22:25.908Z</time></trkpt><trkpt lat="42.644494" lon="11.452536"><ele>102.0</ele><time>2026-04-02T13:22:26.913Z</time></trkpt><trkpt lat="42.6443436" lon="11.4525295"><ele>102.0</ele><time>2026-04-02T13:22:27.908Z</time></trkpt><trkpt lat="42.644187" lon="11.4525368"><ele>102.0</ele><time>2026-04-02T13:22:28.906Z</time></trkpt><trkpt lat="42.6440144" lon="11.4525615"><ele>102.0</ele><time>2026-04-02T13:22:29.912Z</time></trkpt><trkpt lat="42.643823" lon="11.4526003"><ele>102.0</ele><time>2026-04-02T13:22:30.909Z</time></trkpt><trkpt lat="42.6436177" lon="11.4526521"><ele>102.0</ele><time>2026-04-02T13:22:31.909Z</time></trkpt><trkpt lat="42.6434024" lon="11.4527071"><ele>102.0</ele><time>2026-04-02T13:22:32.91Z</time></trkpt><trkpt lat="42.6431833" lon="11.4527674"><ele>102.0</ele><time>2026-04-02T13:22:33.908Z</time></trkpt><trkpt lat="42.6429632" lon="11.4528295"><ele>102.0</ele><time>2026-04-02T13:22:34.913Z</time></trkpt><trkpt lat="42.6427444" lon="11.4528911"><ele>102.0</ele><time>2026-04-02T13:22:35.907Z</time></trkpt><trkpt lat="42.6425294" lon="11.4529546"><ele>102.0</ele><time>2026-04-02T13:22:36.908Z</time></trkpt><trkpt lat="42.6423158" lon="11.4530118"><ele>102.0</ele><time>2026-04-02T13:22:37.907Z</time></trkpt><trkpt lat="42.6421003" lon="11.4530757"><ele>101.0</ele><time>2026-04-02T13:22:38.916Z</time></trkpt><trkpt lat="42.6418891" lon="11.4531394"><ele>100.0</ele><time>2026-04-02T13:22:39.907Z</time></trkpt><trkpt lat="42.6416868" lon="11.4532027"><ele>99.0</ele><time>2026-04-02T13:22:40.911Z</time></trkpt><trkpt lat="42.6414983" lon="11.4532611"><ele>99.0</ele><time>2026-04-02T13:22:41.905Z</time></trkpt><trkpt lat="42.6413123" lon="11.4533161"><ele>99.0</ele><time>2026-04-02T13:22:42.907Z</time></trkpt><trkpt lat="42.6411245" lon="11.4533753"><ele>99.0</ele><time>2026-04-02T13:22:43.907Z</time></trkpt><trkpt lat="42.6409274" lon="11.453435"><ele>102.33333333333334</ele><time>2026-04-02T13:22:44.91Z</time></trkpt><trkpt lat="42.640741" lon="11.4534892"><ele>105.66666666666667</ele><time>2026-04-02T13:22:45.905Z</time></trkpt><trkpt lat="42.6405715" lon="11.4535402"><ele>109.0</ele><time>2026-04-02T13:22:46.907Z</time></trkpt><trkpt lat="42.6404187" lon="11.4535802"><ele>109.75</ele><time>2026-04-02T13:22:47.907Z</time></trkpt><trkpt lat="42.6402792" lon="11.4536216"><ele>110.5</ele><time>2026-04-02T13:22:48.91Z</time></trkpt><trkpt lat="42.6401392" lon="11.4536645"><ele>111.25</ele><time>2026-04-02T13:22:49.914Z</time></trkpt><trkpt lat="42.6400003" lon="11.4537119"><ele>112.0</ele><time>2026-04-02T13:22:50.915Z</time></trkpt><trkpt lat="42.6398628" lon="11.4537409"><ele>112.0</ele><time>2026-04-02T13:22:51.908Z</time></trkpt><trkpt lat="42.639726" lon="11.4537606"><ele>112.0</ele><time>2026-04-02T13:22:52.909Z</time></trkpt><trkpt lat="42.6395992" lon="11.4537652"><ele>112.0</ele><time>2026-04-02T13:22:53.912Z</time></trkpt><trkpt lat="42.6394727" lon="11.4537477"><ele>112.0</ele><time>2026-04-02T13:22:54.909Z</time></trkpt><trkpt lat="42.639352" lon="11.4537091"><ele>111.66666666666667</ele><time>2026-04-02T13:22:55.909Z</time></trkpt><trkpt lat="42.6392393" lon="11.4536628"><ele>111.33333333333334</ele><time>2026-04-02T13:22:56.914Z</time></trkpt><trkpt lat="42.6391426" lon="11.4536146"><ele>111.0</ele><time>2026-04-02T13:22:57.908Z</time></trkpt><trkpt lat="42.6390612" lon="11.4535674"><ele>110.66666666666666</ele><time>2026-04-02T13:22:58.908Z</time></trkpt><trkpt lat="42.6389945" lon="11.4535234"><ele>110.33333333333333</ele><time>2026-04-02T13:22:59.91Z</time></trkpt><trkpt lat="42.638937" lon="11.4534845"><ele>110.0</ele><time>2026-04-02T13:23:00.908Z</time></trkpt><trkpt lat="42.638862" lon="11.4534412"><ele>110.0</ele><time>2026-04-02T13:23:02.908Z</time></trkpt><trkpt lat="42.6387722" lon="11.4534756"><ele>110.0</ele><time>2026-04-02T13:23:05.912Z</time></trkpt><trkpt lat="42.6387328" lon="11.4535531"><ele>110.0</ele><time>2026-04-02T13:23:06.917Z</time></trkpt><trkpt lat="42.6386925" lon="11.4536806"><ele>110.0</ele><time>2026-04-02T13:23:07.909Z</time></trkpt><trkpt lat="42.6386532" lon="11.4538486"><ele>110.0</ele><time>2026-04-02T13:23:08.913Z</time></trkpt><trkpt lat="42.6386099" lon="11.4540388"><ele>108.66666666666666</ele><time>2026-04-02T13:23:09.907Z</time></trkpt><trkpt lat="42.6385579" lon="11.4542507"><ele>107.33333333333334</ele><time>2026-04-02T13:23:10.91Z</time></trkpt><trkpt lat="42.6385018" lon="11.4544867"><ele>106.0</ele><time>2026-04-02T13:23:11.909Z</time></trkpt><trkpt lat="42.6384403" lon="11.4547368"><ele>105.66666666666667</ele><time>2026-04-02T13:23:12.909Z</time></trkpt><trkpt lat="42.638378" lon="11.4549919"><ele>105.33333333333334</ele><time>2026-04-02T13:23:13.907Z</time></trkpt><trkpt lat="42.6383212" lon="11.4552325"><ele>105.0</ele><time>2026-04-02T13:23:14.909Z</time></trkpt><trkpt lat="42.6382583" lon="11.4554733"><ele>104.0</ele><time>2026-04-02T13:23:15.908Z</time></trkpt><trkpt lat="42.638201" lon="11.4557118"><ele>103.0</ele><time>2026-04-02T13:23:16.91Z</time></trkpt><trkpt lat="42.638145" lon="11.4559411"><ele>102.0</ele><time>2026-04-02T13:23:17.906Z</time></trkpt><trkpt lat="42.6380937" lon="11.4561583"><ele>101.0</ele><time>2026-04-02T13:23:18.906Z</time></trkpt><trkpt lat="42.6380433" lon="11.4563583"><ele>100.0</ele><time>2026-04-02T13:23:19.907Z</time></trkpt><trkpt lat="42.6379958" lon="11.4565534"><ele>99.0</ele><time>2026-04-02T13:23:20.913Z</time></trkpt><trkpt lat="42.6379506" lon="11.4567324"><ele>98.0</ele><time>2026-04-02T13:23:21.905Z</time></trkpt><trkpt lat="42.6379094" lon="11.4568989"><ele>98.0</ele><time>2026-04-02T13:23:22.907Z</time></trkpt><trkpt lat="42.6378807" lon="11.4570341"><ele>98.0</ele><time>2026-04-02T13:23:23.91Z</time></trkpt><trkpt lat="42.6378836" lon="11.4571634"><ele>98.0</ele><time>2026-04-02T13:23:24.909Z</time></trkpt><trkpt lat="42.6379204" lon="11.4572771"><ele>98.0</ele><time>2026-04-02T13:23:25.91Z</time></trkpt><trkpt lat="42.6379931" lon="11.4573826"><ele>98.0</ele><time>2026-04-02T13:23:26.907Z</time></trkpt><trkpt lat="42.6380999" lon="11.4574773"><ele>100.33333333333333</ele><time>2026-04-02T13:23:27.909Z</time></trkpt><trkpt lat="42.6382261" lon="11.4575729"><ele>102.66666666666666</ele><time>2026-04-02T13:23:28.907Z</time></trkpt><trkpt lat="42.6383725" lon="11.4576762"><ele>105.0</ele><time>2026-04-02T13:23:29.91Z</time></trkpt><trkpt lat="42.6385197" lon="11.4577847"><ele>105.5</ele><time>2026-04-02T13:23:30.91Z</time></trkpt><trkpt lat="42.6388139" lon="11.4580125"><ele>106.0</ele><time>2026-04-02T13:23:32.908Z</time></trkpt><trkpt lat="42.6389576" lon="11.4581385"><ele>106.0</ele><time>2026-04-02T13:23:33.913Z</time></trkpt><trkpt lat="42.639098" lon="11.4582875"><ele>106.0</ele><time>2026-04-02T13:23:34.906Z</time></trkpt><trkpt lat="42.6392319" lon="11.4584589"><ele>106.0</ele><time>2026-04-02T13:23:35.909Z</time></trkpt><trkpt lat="42.639364" lon="11.4586423"><ele>104.0</ele><time>2026-04-02T13:23:36.913Z</time></trkpt><trkpt lat="42.639494" lon="11.4588441"><ele>102.0</ele><time>2026-04-02T13:23:37.907Z</time></trkpt><trkpt lat="42.6396304" lon="11.4590487"><ele>100.0</ele><time>2026-04-02T13:23:38.91Z</time></trkpt><trkpt lat="42.6397684" lon="11.4592629"><ele>100.0</ele><time>2026-04-02T13:23:39.914Z</time></trkpt><trkpt lat="42.6399009" lon="11.459474"><ele>100.0</ele><time>2026-04-02T13:23:40.907Z</time></trkpt><trkpt lat="42.640038" lon="11.4596871"><ele>100.0</ele><time>2026-04-02T13:23:41.906Z</time></trkpt><trkpt lat="42.6401647" lon="11.4598848"><ele>100.66666666666667</ele><time>2026-04-02T13:23:42.907Z</time></trkpt><trkpt lat="42.6402744" lon="11.4600675"><ele>101.33333333333334</ele><time>2026-04-02T13:23:43.907Z</time></trkpt><trkpt lat="42.6403758" lon="11.4602521"><ele>102.0</ele><time>2026-04-02T13:23:44.908Z</time></trkpt><trkpt lat="42.6404657" lon="11.4604578"><ele>103.0</ele><time>2026-04-02T13:23:45.906Z</time></trkpt><trkpt lat="42.6405346" lon="11.4606846"><ele>104.0</ele><time>2026-04-02T13:23:46.908Z</time></trkpt><trkpt lat="42.6405956" lon="11.4609293"><ele>105.0</ele><time>2026-04-02T13:23:47.905Z</time></trkpt><trkpt lat="42.6406604" lon="11.4611738"><ele>106.0</ele><time>2026-04-02T13:23:48.907Z</time></trkpt><trkpt lat="42.6407191" lon="11.461401"><ele>107.0</ele><time>2026-04-02T13:23:49.905Z</time></trkpt><trkpt lat="42.6407772" lon="11.4616127"><ele>108.0</ele><time>2026-04-02T13:23:50.908Z</time></trkpt><trkpt lat="42.6408352" lon="11.4618233"><ele>108.0</ele><time>2026-04-02T13:23:51.907Z</time></trkpt><trkpt lat="42.6408842" lon="11.4620362"><ele>108.0</ele><time>2026-04-02T13:23:52.908Z</time></trkpt><trkpt lat="42.6409185" lon="11.4622514"><ele>108.0</ele><time>2026-04-02T13:23:53.905Z</time></trkpt><trkpt lat="42.6409253" lon="11.4624776"><ele>109.0</ele><time>2026-04-02T13:23:54.908Z</time></trkpt><trkpt lat="42.6408979" lon="11.4627125"><ele>110.0</ele><time>2026-04-02T13:23:55.908Z</time></trkpt><trkpt lat="42.6408475" lon="11.4629618"><ele>111.0</ele><time>2026-04-02T13:23:56.908Z</time></trkpt><trkpt lat="42.6407776" lon="11.4632163"><ele>111.0</ele><time>2026-04-02T13:23:57.911Z</time></trkpt><trkpt lat="42.6407065" lon="11.4634754"><ele>111.0</ele><time>2026-04-02T13:23:58.908Z</time></trkpt><trkpt lat="42.640633" lon="11.4637388"><ele>111.0</ele><time>2026-04-02T13:23:59.907Z</time></trkpt><trkpt lat="42.6405541" lon="11.4640194"><ele>110.33333333333334</ele><time>2026-04-02T13:24:00.909Z</time></trkpt><trkpt lat="42.6404723" lon="11.4642972"><ele>109.66666666666667</ele><time>2026-04-02T13:24:01.906Z</time></trkpt><trkpt lat="42.6403755" lon="11.4645667"><ele>109.0</ele><time>2026-04-02T13:24:02.914Z</time></trkpt><trkpt lat="42.6402579" lon="11.4648318"><ele>109.0</ele><time>2026-04-02T13:24:03.91Z</time></trkpt><trkpt lat="42.6401355" lon="11.4650886"><ele>109.0</ele><time>2026-04-02T13:24:04.907Z</time></trkpt><trkpt lat="42.6400079" lon="11.4653125"><ele>109.0</ele><time>2026-04-02T13:24:05.908Z</time></trkpt><trkpt lat="42.6398894" lon="11.465526"><ele>111.0</ele><time>2026-04-02T13:24:06.906Z</time></trkpt><trkpt lat="42.6397804" lon="11.4657497"><ele>113.0</ele><time>2026-04-02T13:24:07.907Z</time></trkpt><trkpt lat="42.639686" lon="11.4659977"><ele>115.0</ele><time>2026-04-02T13:24:08.911Z</time></trkpt><trkpt lat="42.6396031" lon="11.4662605"><ele>114.66666666666667</ele><time>2026-04-02T13:24:09.912Z</time></trkpt><trkpt lat="42.6395287" lon="11.4665197"><ele>114.33333333333334</ele><time>2026-04-02T13:24:10.925Z</time></trkpt><trkpt lat="42.6394603" lon="11.4667753"><ele>114.0</ele><time>2026-04-02T13:24:11.912Z</time></trkpt><trkpt lat="42.6394083" lon="11.46705"><ele>115.5</ele><time>2026-04-02T13:24:12.909Z</time></trkpt><trkpt lat="42.6393425" lon="11.4676098"><ele>117.0</ele><time>2026-04-02T13:24:14.914Z</time></trkpt><trkpt lat="42.6393182" lon="11.4678903"><ele>117.66666666666666</ele><time>2026-04-02T13:24:15.924Z</time></trkpt><trkpt lat="42.6392967" lon="11.4681682"><ele>118.33333333333333</ele><time>2026-04-02T13:24:16.911Z</time></trkpt><trkpt lat="42.6392731" lon="11.4684475"><ele>119.0</ele><time>2026-04-02T13:24:17.91Z</time></trkpt><trkpt lat="42.6392495" lon="11.4687277"><ele>119.66666666666666</ele><time>2026-04-02T13:24:18.909Z</time></trkpt><trkpt lat="42.6392288" lon="11.4690053"><ele>120.33333333333334</ele><time>2026-04-02T13:24:19.907Z</time></trkpt><trkpt lat="42.6392058" lon="11.4692837"><ele>121.0</ele><time>2026-04-02T13:24:20.91Z</time></trkpt><trkpt lat="42.6391816" lon="11.4695626"><ele>121.0</ele><time>2026-04-02T13:24:21.907Z</time></trkpt><trkpt lat="42.639156" lon="11.4698419"><ele>121.0</ele><time>2026-04-02T13:24:22.906Z</time></trkpt><trkpt lat="42.63913" lon="11.470117"><ele>121.0</ele><time>2026-04-02T13:24:23.911Z</time></trkpt><trkpt lat="42.6391057" lon="11.4703908"><ele>122.66666666666667</ele><time>2026-04-02T13:24:24.907Z</time></trkpt><trkpt lat="42.6390811" lon="11.4706685"><ele>124.33333333333334</ele><time>2026-04-02T13:24:25.91Z</time></trkpt><trkpt lat="42.6390575" lon="11.470946"><ele>126.0</ele><time>2026-04-02T13:24:26.907Z</time></trkpt><trkpt lat="42.6390405" lon="11.4712291"><ele>126.33333333333334</ele><time>2026-04-02T13:24:27.907Z</time></trkpt><trkpt lat="42.6390285" lon="11.4715154"><ele>126.66666666666667</ele><time>2026-04-02T13:24:28.906Z</time></trkpt><trkpt lat="42.6390226" lon="11.4718137"><ele>127.0</ele><time>2026-04-02T13:24:29.907Z</time></trkpt><trkpt lat="42.6390152" lon="11.4721157"><ele>127.0</ele><time>2026-04-02T13:24:30.907Z</time></trkpt><trkpt lat="42.6389917" lon="11.4724189"><ele>127.0</ele><time>2026-04-02T13:24:31.911Z</time></trkpt><trkpt lat="42.6389595" lon="11.4727162"><ele>127.0</ele><time>2026-04-02T13:24:32.908Z</time></trkpt><trkpt lat="42.6389122" lon="11.4730148"><ele>127.33333333333334</ele><time>2026-04-02T13:24:33.908Z</time></trkpt><trkpt lat="42.6388514" lon="11.4733077"><ele>127.66666666666666</ele><time>2026-04-02T13:24:34.91Z</time></trkpt><trkpt lat="42.6387814" lon="11.4735849"><ele>128.0</ele><time>2026-04-02T13:24:35.906Z</time></trkpt><trkpt lat="42.6386896" lon="11.4738543"><ele>126.5</ele><time>2026-04-02T13:24:36.91Z</time></trkpt><trkpt lat="42.6385723" lon="11.4741136"><ele>125.0</ele><time>2026-04-02T13:24:37.908Z</time></trkpt><trkpt lat="42.6384374" lon="11.4743623"><ele>127.0</ele><time>2026-04-02T13:24:38.908Z</time></trkpt><trkpt lat="42.638286" lon="11.4746117"><ele>129.0</ele><time>2026-04-02T13:24:39.916Z</time></trkpt><trkpt lat="42.6381363" lon="11.4748639"><ele>129.0</ele><time>2026-04-02T13:24:40.907Z</time></trkpt><trkpt lat="42.6379846" lon="11.4751203"><ele>129.0</ele><time>2026-04-02T13:24:41.907Z</time></trkpt><trkpt lat="42.63783" lon="11.4753722"><ele>129.0</ele><time>2026-04-02T13:24:42.912Z</time></trkpt><trkpt lat="42.6376733" lon="11.4756225"><ele>129.0</ele><time>2026-04-02T13:24:43.909Z</time></trkpt><trkpt lat="42.6375192" lon="11.4758768"><ele>129.0</ele><time>2026-04-02T13:24:44.908Z</time></trkpt><trkpt lat="42.6373671" lon="11.4761335"><ele>129.0</ele><time>2026-04-02T13:24:45.91Z</time></trkpt><trkpt lat="42.6372121" lon="11.4763912"><ele>131.5</ele><time>2026-04-02T13:24:46.907Z</time></trkpt><trkpt lat="42.6370571" lon="11.4766495"><ele>134.0</ele><time>2026-04-02T13:24:47.909Z</time></trkpt><trkpt lat="42.6369013" lon="11.4768991"><ele>136.0</ele><time>2026-04-02T13:24:48.912Z</time></trkpt><trkpt lat="42.6367489" lon="11.4771528"><ele>138.0</ele><time>2026-04-02T13:24:49.91Z</time></trkpt><trkpt lat="42.6365973" lon="11.4774017"><ele>138.0</ele><time>2026-04-02T13:24:50.906Z</time></trkpt><trkpt lat="42.6364486" lon="11.4776474"><ele>138.0</ele><time>2026-04-02T13:24:51.908Z</time></trkpt><trkpt lat="42.6363032" lon="11.4778941"><ele>139.5</ele><time>2026-04-02T13:24:52.909Z</time></trkpt><trkpt lat="42.6361584" lon="11.4781385"><ele>141.0</ele><time>2026-04-02T13:24:53.907Z</time></trkpt><trkpt lat="42.636012" lon="11.4783784"><ele>142.0</ele><time>2026-04-02T13:24:54.911Z</time></trkpt><trkpt lat="42.635866" lon="11.4786189"><ele>143.0</ele><time>2026-04-02T13:24:55.914Z</time></trkpt><trkpt lat="42.6357177" lon="11.4788576"><ele>145.5</ele><time>2026-04-02T13:24:56.911Z</time></trkpt><trkpt lat="42.635572" lon="11.4790992"><ele>148.0</ele><time>2026-04-02T13:24:57.909Z</time></trkpt><trkpt lat="42.6354297" lon="11.4793452"><ele>146.5</ele><time>2026-04-02T13:24:58.91Z</time></trkpt><trkpt lat="42.6352866" lon="11.4795835"><ele>145.0</ele><time>2026-04-02T13:24:59.914Z</time></trkpt><trkpt lat="42.6351396" lon="11.4798218"><ele>150.5</ele><time>2026-04-02T13:25:00.908Z</time></trkpt><trkpt lat="42.6349898" lon="11.4800552"><ele>156.0</ele><time>2026-04-02T13:25:01.907Z</time></trkpt><trkpt lat="42.6348358" lon="11.4802908"><ele>161.0</ele><time>2026-04-02T13:25:02.91Z</time></trkpt><trkpt lat="42.6346725" lon="11.4805299"><ele>166.0</ele><time>2026-04-02T13:25:03.909Z</time></trkpt><trkpt lat="42.6345179" lon="11.4807551"><ele>167.33333333333334</ele><time>2026-04-02T13:25:04.907Z</time></trkpt><trkpt lat="42.6343706" lon="11.4809693"><ele>168.66666666666666</ele><time>2026-04-02T13:25:05.907Z</time></trkpt><trkpt lat="42.6342278" lon="11.4811718"><ele>170.0</ele><time>2026-04-02T13:25:06.907Z</time></trkpt><trkpt lat="42.6340896" lon="11.4813665"><ele>170.0</ele><time>2026-04-02T13:25:07.908Z</time></trkpt><trkpt lat="42.6339545" lon="11.4815622"><ele>170.0</ele><time>2026-04-02T13:25:08.907Z</time></trkpt><trkpt lat="42.6338253" lon="11.4817499"><ele>170.0</ele><time>2026-04-02T13:25:09.907Z</time></trkpt><trkpt lat="42.6336984" lon="11.4819431"><ele>170.66666666666666</ele><time>2026-04-02T13:25:10.907Z</time></trkpt><trkpt lat="42.6335768" lon="11.4821573"><ele>171.33333333333334</ele><time>2026-04-02T13:25:11.907Z</time></trkpt><trkpt lat="42.6334562" lon="11.4823952"><ele>172.0</ele><time>2026-04-02T13:25:12.908Z</time></trkpt><trkpt lat="42.6333319" lon="11.4826437"><ele>172.0</ele><time>2026-04-02T13:25:13.909Z</time></trkpt><trkpt lat="42.6332075" lon="11.4828833"><ele>172.0</ele><time>2026-04-02T13:25:14.907Z</time></trkpt><trkpt lat="42.6330859" lon="11.4831068"><ele>172.0</ele><time>2026-04-02T13:25:15.922Z</time></trkpt><trkpt lat="42.6329654" lon="11.48333"><ele>172.33333333333334</ele><time>2026-04-02T13:25:16.91Z</time></trkpt><trkpt lat="42.6328553" lon="11.4835587"><ele>172.66666666666666</ele><time>2026-04-02T13:25:17.913Z</time></trkpt><trkpt lat="42.6327391" lon="11.4837969"><ele>173.0</ele><time>2026-04-02T13:25:18.908Z</time></trkpt><trkpt lat="42.6326368" lon="11.4840032"><ele>174.0</ele><time>2026-04-02T13:25:19.905Z</time></trkpt><trkpt lat="42.6325374" lon="11.4841947"><ele>175.0</ele><time>2026-04-02T13:25:20.909Z</time></trkpt><trkpt lat="42.6324313" lon="11.484366"><ele>176.0</ele><time>2026-04-02T13:25:21.907Z</time></trkpt><trkpt lat="42.6323103" lon="11.4845567"><ele>177.0</ele><time>2026-04-02T13:25:22.907Z</time></trkpt><trkpt lat="42.6321744" lon="11.4847501"><ele>178.0</ele><time>2026-04-02T13:25:23.907Z</time></trkpt><trkpt lat="42.6320278" lon="11.4849526"><ele>179.0</ele><time>2026-04-02T13:25:24.916Z</time></trkpt><trkpt lat="42.6318671" lon="11.4851542"><ele>179.66666666666666</ele><time>2026-04-02T13:25:25.907Z</time></trkpt><trkpt lat="42.6317127" lon="11.4853472"><ele>180.33333333333334</ele><time>2026-04-02T13:25:26.912Z</time></trkpt><trkpt lat="42.6315571" lon="11.4855412"><ele>181.0</ele><time>2026-04-02T13:25:27.907Z</time></trkpt><trkpt lat="42.6314066" lon="11.4857373"><ele>182.0</ele><time>2026-04-02T13:25:28.909Z</time></trkpt><trkpt lat="42.6312543" lon="11.4859261"><ele>183.0</ele><time>2026-04-02T13:25:29.91Z</time></trkpt><trkpt lat="42.6311022" lon="11.4861215"><ele>184.0</ele><time>2026-04-02T13:25:30.909Z</time></trkpt><trkpt lat="42.6309565" lon="11.4863138"><ele>186.66666666666669</ele><time>2026-04-02T13:25:31.908Z</time></trkpt><trkpt lat="42.6308118" lon="11.4865045"><ele>189.33333333333334</ele><time>2026-04-02T13:25:32.909Z</time></trkpt><trkpt lat="42.6306686" lon="11.4866934"><ele>192.0</ele><time>2026-04-02T13:25:33.912Z</time></trkpt><trkpt lat="42.6305254" lon="11.4868781"><ele>192.0</ele><time>2026-04-02T13:25:34.908Z</time></trkpt><trkpt lat="42.6303817" lon="11.4870679"><ele>192.0</ele><time>2026-04-02T13:25:35.908Z</time></trkpt><trkpt lat="42.6302343" lon="11.4872642"><ele>192.0</ele><time>2026-04-02T13:25:36.908Z</time></trkpt><trkpt lat="42.6299329" lon="11.4876526"><ele>196.0</ele><time>2026-04-02T13:25:38.908Z</time></trkpt><trkpt lat="42.6297838" lon="11.4878481"><ele>200.0</ele><time>2026-04-02T13:25:39.909Z</time></trkpt><trkpt lat="42.6296349" lon="11.4880465"><ele>204.0</ele><time>2026-04-02T13:25:40.907Z</time></trkpt><trkpt lat="42.629484" lon="11.4882435"><ele>206.0</ele><time>2026-04-02T13:25:41.913Z</time></trkpt><trkpt lat="42.6293312" lon="11.4884396"><ele>208.0</ele><time>2026-04-02T13:25:42.908Z</time></trkpt><trkpt lat="42.6291829" lon="11.4886355"><ele>210.0</ele><time>2026-04-02T13:25:43.907Z</time></trkpt><trkpt lat="42.6290436" lon="11.4888195"><ele>212.0</ele><time>2026-04-02T13:25:44.915Z</time></trkpt><trkpt lat="42.6289075" lon="11.4890032"><ele>214.0</ele><time>2026-04-02T13:25:45.91Z</time></trkpt><trkpt lat="42.6287789" lon="11.4891773"><ele>216.0</ele><time>2026-04-02T13:25:46.908Z</time></trkpt><trkpt lat="42.6286478" lon="11.4893479"><ele>215.66666666666669</ele><time>2026-04-02T13:25:47.907Z</time></trkpt><trkpt lat="42.6285156" lon="11.4895093"><ele>215.33333333333334</ele><time>2026-04-02T13:25:48.91Z</time></trkpt><trkpt lat="42.6283641" lon="11.4896622"><ele>215.0</ele><time>2026-04-02T13:25:49.916Z</time></trkpt><trkpt lat="42.6281991" lon="11.4898014"><ele>215.0</ele><time>2026-04-02T13:25:50.91Z</time></trkpt><trkpt lat="42.6280201" lon="11.4899244"><ele>215.0</ele><time>2026-04-02T13:25:51.908Z</time></trkpt><trkpt lat="42.6278301" lon="11.490044"><ele>215.0</ele><time>2026-04-02T13:25:52.906Z</time></trkpt><trkpt lat="42.6276386" lon="11.4901702"><ele>217.66666666666669</ele><time>2026-04-02T13:25:53.909Z</time></trkpt><trkpt lat="42.6274476" lon="11.4902907"><ele>220.33333333333331</ele><time>2026-04-02T13:25:54.907Z</time></trkpt><trkpt lat="42.6272627" lon="11.4904115"><ele>223.0</ele><time>2026-04-02T13:25:55.907Z</time></trkpt><trkpt lat="42.6270907" lon="11.4905163"><ele>225.66666666666666</ele><time>2026-04-02T13:25:56.907Z</time></trkpt><trkpt lat="42.626929" lon="11.4906163"><ele>228.33333333333331</ele><time>2026-04-02T13:25:57.906Z</time></trkpt><trkpt lat="42.6267779" lon="11.490711"><ele>231.0</ele><time>2026-04-02T13:25:58.923Z</time></trkpt><trkpt lat="42.6266352" lon="11.4907959"><ele>231.0</ele><time>2026-04-02T13:25:59.907Z</time></trkpt><trkpt lat="42.626485" lon="11.4908603"><ele>231.0</ele><time>2026-04-02T13:26:00.911Z</time></trkpt><trkpt lat="42.6263229" lon="11.4909084"><ele>231.0</ele><time>2026-04-02T13:26:01.91Z</time></trkpt><trkpt lat="42.6261507" lon="11.4909516"><ele>230.66666666666669</ele><time>2026-04-02T13:26:02.911Z</time></trkpt><trkpt lat="42.6259687" lon="11.490991"><ele>230.33333333333334</ele><time>2026-04-02T13:26:03.908Z</time></trkpt><trkpt lat="42.6257946" lon="11.4910251"><ele>230.0</ele><time>2026-04-02T13:26:04.909Z</time></trkpt><trkpt lat="42.6256339" lon="11.4910603"><ele>230.0</ele><time>2026-04-02T13:26:05.909Z</time></trkpt><trkpt lat="42.6254838" lon="11.4910876"><ele>230.0</ele><time>2026-04-02T13:26:06.907Z</time></trkpt><trkpt lat="42.6253353" lon="11.4911087"><ele>230.0</ele><time>2026-04-02T13:26:07.908Z</time></trkpt><trkpt lat="42.6251812" lon="11.4911365"><ele>230.33333333333334</ele><time>2026-04-02T13:26:08.907Z</time></trkpt><trkpt lat="42.625028" lon="11.4911892"><ele>230.66666666666669</ele><time>2026-04-02T13:26:09.914Z</time></trkpt><trkpt lat="42.6248844" lon="11.4912984"><ele>231.0</ele><time>2026-04-02T13:26:10.906Z</time></trkpt><trkpt lat="42.6247402" lon="11.491439"><ele>231.0</ele><time>2026-04-02T13:26:11.909Z</time></trkpt><trkpt lat="42.6245977" lon="11.4915925"><ele>231.0</ele><time>2026-04-02T13:26:12.909Z</time></trkpt><trkpt lat="42.6244372" lon="11.4917361"><ele>231.0</ele><time>2026-04-02T13:26:13.914Z</time></trkpt><trkpt lat="42.6242595" lon="11.491878"><ele>232.33333333333331</ele><time>2026-04-02T13:26:14.907Z</time></trkpt><trkpt lat="42.6240655" lon="11.492011"><ele>233.66666666666666</ele><time>2026-04-02T13:26:15.907Z</time></trkpt><trkpt lat="42.623863" lon="11.4921432"><ele>235.0</ele><time>2026-04-02T13:26:16.907Z</time></trkpt><trkpt lat="42.6236573" lon="11.4922744"><ele>239.0</ele><time>2026-04-02T13:26:17.909Z</time></trkpt><trkpt lat="42.623449" lon="11.4924053"><ele>243.0</ele><time>2026-04-02T13:26:18.907Z</time></trkpt><trkpt lat="42.6232572" lon="11.4925288"><ele>247.0</ele><time>2026-04-02T13:26:19.907Z</time></trkpt><trkpt lat="42.6230788" lon="11.4926408"><ele>247.0</ele><time>2026-04-02T13:26:20.906Z</time></trkpt><trkpt lat="42.6229136" lon="11.4927418"><ele>247.0</ele><time>2026-04-02T13:26:21.909Z</time></trkpt><trkpt lat="42.6227503" lon="11.4928276"><ele>247.0</ele><time>2026-04-02T13:26:22.906Z</time></trkpt><trkpt lat="42.6225935" lon="11.4928886"><ele>253.0</ele><time>2026-04-02T13:26:23.907Z</time></trkpt><trkpt lat="42.6224252" lon="11.4929074"><ele>259.0</ele><time>2026-04-02T13:26:24.908Z</time></trkpt><trkpt lat="42.6222455" lon="11.4929034"><ele>265.0</ele><time>2026-04-02T13:26:25.907Z</time></trkpt><trkpt lat="42.6220531" lon="11.4928965"><ele>267.66666666666663</ele><time>2026-04-02T13:26:26.907Z</time></trkpt><trkpt lat="42.621855" lon="11.4928847"><ele>270.3333333333333</ele><time>2026-04-02T13:26:27.921Z</time></trkpt><trkpt lat="42.6216459" lon="11.4928684"><ele>273.0</ele><time>2026-04-02T13:26:28.908Z</time></trkpt><trkpt lat="42.6214382" lon="11.4928498"><ele>273.0</ele><time>2026-04-02T13:26:29.908Z</time></trkpt><trkpt lat="42.6212348" lon="11.4928268"><ele>273.0</ele><time>2026-04-02T13:26:30.909Z</time></trkpt><trkpt lat="42.6210494" lon="11.4927892"><ele>273.0</ele><time>2026-04-02T13:26:31.908Z</time></trkpt><trkpt lat="42.6208855" lon="11.4927232"><ele>272.6666666666667</ele><time>2026-04-02T13:26:32.909Z</time></trkpt><trkpt lat="42.6207459" lon="11.4926275"><ele>272.33333333333337</ele><time>2026-04-02T13:26:33.911Z</time></trkpt><trkpt lat="42.6206156" lon="11.4925006"><ele>272.0</ele><time>2026-04-02T13:26:34.906Z</time></trkpt><trkpt lat="42.6204986" lon="11.4923496"><ele>272.0</ele><time>2026-04-02T13:26:35.907Z</time></trkpt><trkpt lat="42.620406" lon="11.4921981"><ele>272.0</ele><time>2026-04-02T13:26:36.907Z</time></trkpt><trkpt lat="42.6203392" lon="11.4920631"><ele>272.0</ele><time>2026-04-02T13:26:37.908Z</time></trkpt><trkpt lat="42.6202942" lon="11.4919559"><ele>272.0</ele><time>2026-04-02T13:26:38.907Z</time></trkpt><trkpt lat="42.6202522" lon="11.4918719"><ele>272.0</ele><time>2026-04-02T13:26:39.908Z</time></trkpt><trkpt lat="42.6201415" lon="11.4918192"><ele>272.2</ele><time>2026-04-02T13:26:41.909Z</time></trkpt><trkpt lat="42.6200676" lon="11.4918421"><ele>272.4</ele><time>2026-04-02T13:26:42.907Z</time></trkpt><trkpt lat="42.6199948" lon="11.4918838"><ele>272.6</ele><time>2026-04-02T13:26:43.909Z</time></trkpt><trkpt lat="42.6199029" lon="11.4919545"><ele>272.8</ele><time>2026-04-02T13:26:44.911Z</time></trkpt><trkpt lat="42.6197857" lon="11.4920306"><ele>273.0</ele><time>2026-04-02T13:26:45.906Z</time></trkpt><trkpt lat="42.6196655" lon="11.4921177"><ele>273.0</ele><time>2026-04-02T13:26:46.909Z</time></trkpt><trkpt lat="42.6195441" lon="11.4922468"><ele>273.0</ele><time>2026-04-02T13:26:47.908Z</time></trkpt><trkpt lat="42.6194272" lon="11.4924135"><ele>273.0</ele><time>2026-04-02T13:26:48.909Z</time></trkpt><trkpt lat="42.6193081" lon="11.4925936"><ele>274.0</ele><time>2026-04-02T13:26:49.906Z</time></trkpt><trkpt lat="42.6191858" lon="11.4927683"><ele>275.0</ele><time>2026-04-02T13:26:50.91Z</time></trkpt><trkpt lat="42.6190733" lon="11.4929354"><ele>276.0</ele><time>2026-04-02T13:26:51.909Z</time></trkpt><trkpt lat="42.6189698" lon="11.4931276"><ele>276.0</ele><time>2026-04-02T13:26:52.909Z</time></trkpt><trkpt lat="42.618884" lon="11.4933394"><ele>276.0</ele><time>2026-04-02T13:26:53.907Z</time></trkpt><trkpt lat="42.6188267" lon="11.4935382"><ele>276.0</ele><time>2026-04-02T13:26:54.908Z</time></trkpt><trkpt lat="42.6187772" lon="11.4937254"><ele>275.75</ele><time>2026-04-02T13:26:55.909Z</time></trkpt><trkpt lat="42.6187221" lon="11.4938866"><ele>275.5</ele><time>2026-04-02T13:26:56.907Z</time></trkpt><trkpt lat="42.6186553" lon="11.4940158"><ele>275.25</ele><time>2026-04-02T13:26:57.914Z</time></trkpt><trkpt lat="42.6185747" lon="11.4941137"><ele>275.0</ele><time>2026-04-02T13:26:58.908Z</time></trkpt><trkpt lat="42.618476" lon="11.4941852"><ele>275.0</ele><time>2026-04-02T13:26:59.908Z</time></trkpt><trkpt lat="42.6183377" lon="11.4941898"><ele>275.0</ele><time>2026-04-02T13:27:00.909Z</time></trkpt><trkpt lat="42.6180877" lon="11.4940709"><ele>275.0</ele><time>2026-04-02T13:27:02.912Z</time></trkpt><trkpt lat="42.617988" lon="11.4939716"><ele>275.0</ele><time>2026-04-02T13:27:03.912Z</time></trkpt><trkpt lat="42.6178781" lon="11.4939037"><ele>275.0</ele><time>2026-04-02T13:27:04.908Z</time></trkpt><trkpt lat="42.6177508" lon="11.4938841"><ele>275.0</ele><time>2026-04-02T13:27:05.908Z</time></trkpt><trkpt lat="42.6176367" lon="11.4939153"><ele>275.0</ele><time>2026-04-02T13:27:06.907Z</time></trkpt><trkpt lat="42.6175286" lon="11.4939981"><ele>274.75</ele><time>2026-04-02T13:27:07.907Z</time></trkpt><trkpt lat="42.6174298" lon="11.4941335"><ele>274.5</ele><time>2026-04-02T13:27:08.907Z</time></trkpt><trkpt lat="42.6173458" lon="11.4942948"><ele>274.25</ele><time>2026-04-02T13:27:09.907Z</time></trkpt><trkpt lat="42.617287" lon="11.4944706"><ele>274.0</ele><time>2026-04-02T13:27:10.908Z</time></trkpt><trkpt lat="42.6172454" lon="11.4946364"><ele>271.8</ele><time>2026-04-02T13:27:11.908Z</time></trkpt><trkpt lat="42.6172083" lon="11.4947929"><ele>269.59999999999997</ele><time>2026-04-02T13:27:12.909Z</time></trkpt><trkpt lat="42.6171488" lon="11.4949153"><ele>267.4</ele><time>2026-04-02T13:27:13.907Z</time></trkpt><trkpt lat="42.6170548" lon="11.4949867"><ele>265.2</ele><time>2026-04-02T13:27:14.913Z</time></trkpt><trkpt lat="42.6169526" lon="11.495011"><ele>263.0</ele><time>2026-04-02T13:27:15.908Z</time></trkpt><trkpt lat="42.616831" lon="11.4949661"><ele>263.0</ele><time>2026-04-02T13:27:16.908Z</time></trkpt><trkpt lat="42.6167023" lon="11.4948689"><ele>263.0</ele><time>2026-04-02T13:27:17.914Z</time></trkpt><trkpt lat="42.6165676" lon="11.4947491"><ele>263.0</ele><time>2026-04-02T13:27:18.907Z</time></trkpt><trkpt lat="42.6164473" lon="11.4946447"><ele>263.33333333333337</ele><time>2026-04-02T13:27:19.911Z</time></trkpt><trkpt lat="42.6163238" lon="11.4945571"><ele>263.6666666666667</ele><time>2026-04-02T13:27:20.907Z</time></trkpt><trkpt lat="42.6161925" lon="11.4945093"><ele>264.0</ele><time>2026-04-02T13:27:21.906Z</time></trkpt><trkpt lat="42.6158945" lon="11.4945619"><ele>264.5</ele><time>2026-04-02T13:27:23.906Z</time></trkpt><trkpt lat="42.6157417" lon="11.4946171"><ele>265.0</ele><time>2026-04-02T13:27:24.907Z</time></trkpt><trkpt lat="42.6156081" lon="11.4946771"><ele>265.5</ele><time>2026-04-02T13:27:25.91Z</time></trkpt><trkpt lat="42.6154835" lon="11.4947546"><ele>266.0</ele><time>2026-04-02T13:27:26.907Z</time></trkpt><trkpt lat="42.6153842" lon="11.4948641"><ele>266.75</ele><time>2026-04-02T13:27:27.907Z</time></trkpt><trkpt lat="42.6153193" lon="11.4950001"><ele>267.5</ele><time>2026-04-02T13:27:28.909Z</time></trkpt><trkpt lat="42.6152861" lon="11.4951626"><ele>268.25</ele><time>2026-04-02T13:27:29.907Z</time></trkpt><trkpt lat="42.6152946" lon="11.4953334"><ele>269.0</ele><time>2026-04-02T13:27:30.908Z</time></trkpt><trkpt lat="42.6153359" lon="11.4955215"><ele>269.0</ele><time>2026-04-02T13:27:31.908Z</time></trkpt><trkpt lat="42.6153721" lon="11.4957173"><ele>269.0</ele><time>2026-04-02T13:27:32.916Z</time></trkpt><trkpt lat="42.6153664" lon="11.4959283"><ele>269.0</ele><time>2026-04-02T13:27:33.907Z</time></trkpt><trkpt lat="42.6153256" lon="11.4961244"><ele>271.0</ele><time>2026-04-02T13:27:34.908Z</time></trkpt><trkpt lat="42.6152741" lon="11.4963208"><ele>273.0</ele><time>2026-04-02T13:27:35.907Z</time></trkpt><trkpt lat="42.6152227" lon="11.4965167"><ele>275.0</ele><time>2026-04-02T13:27:36.907Z</time></trkpt><trkpt lat="42.6151695" lon="11.4966989"><ele>275.0</ele><time>2026-04-02T13:27:37.907Z</time></trkpt><trkpt lat="42.6151134" lon="11.496881"><ele>275.0</ele><time>2026-04-02T13:27:38.905Z</time></trkpt><trkpt lat="42.6150604" lon="11.4970559"><ele>275.0</ele><time>2026-04-02T13:27:39.906Z</time></trkpt><trkpt lat="42.615012" lon="11.4972349"><ele>275.0</ele><time>2026-04-02T13:27:40.91Z</time></trkpt><trkpt lat="42.6149762" lon="11.4974168"><ele>276.5</ele><time>2026-04-02T13:27:41.909Z</time></trkpt><trkpt lat="42.6149688" lon="11.4975962"><ele>278.0</ele><time>2026-04-02T13:27:42.907Z</time></trkpt><trkpt lat="42.614988" lon="11.4977556"><ele>279.5</ele><time>2026-04-02T13:27:43.907Z</time></trkpt><trkpt lat="42.6150438" lon="11.4979052"><ele>281.0</ele><time>2026-04-02T13:27:44.914Z</time></trkpt><trkpt lat="42.6151179" lon="11.4980431"><ele>281.40000000000003</ele><time>2026-04-02T13:27:45.906Z</time></trkpt><trkpt lat="42.6151923" lon="11.4981783"><ele>281.8</ele><time>2026-04-02T13:27:46.906Z</time></trkpt><trkpt lat="42.6152482" lon="11.4983119"><ele>282.20000000000005</ele><time>2026-04-02T13:27:47.907Z</time></trkpt><trkpt lat="42.6152689" lon="11.4984405"><ele>282.6</ele><time>2026-04-02T13:27:48.906Z</time></trkpt><trkpt lat="42.6152687" lon="11.4985678"><ele>283.0</ele><time>2026-04-02T13:27:49.906Z</time></trkpt><trkpt lat="42.6152409" lon="11.4986856"><ele>284.4</ele><time>2026-04-02T13:27:50.911Z</time></trkpt><trkpt lat="42.6151847" lon="11.4987844"><ele>285.8</ele><time>2026-04-02T13:27:51.91Z</time></trkpt><trkpt lat="42.6151119" lon="11.4988574"><ele>287.2</ele><time>2026-04-02T13:27:52.912Z</time></trkpt><trkpt lat="42.6150313" lon="11.4989088"><ele>288.6</ele><time>2026-04-02T13:27:53.908Z</time></trkpt><trkpt lat="42.6149386" lon="11.4989645"><ele>290.0</ele><time>2026-04-02T13:27:54.908Z</time></trkpt><trkpt lat="42.6148452" lon="11.4990442"><ele>290.0</ele><time>2026-04-02T13:27:55.908Z</time></trkpt><trkpt lat="42.6147636" lon="11.4991509"><ele>290.0</ele><time>2026-04-02T13:27:56.909Z</time></trkpt><trkpt lat="42.6147043" lon="11.4992833"><ele>290.0</ele><time>2026-04-02T13:27:57.911Z</time></trkpt><trkpt lat="42.6146551" lon="11.4994275"><ele>290.0</ele><time>2026-04-02T13:27:58.907Z</time></trkpt><trkpt lat="42.6146047" lon="11.4995877"><ele>291.0</ele><time>2026-04-02T13:27:59.908Z</time></trkpt><trkpt lat="42.6145351" lon="11.4997407"><ele>292.0</ele><time>2026-04-02T13:28:00.908Z</time></trkpt><trkpt lat="42.614437" lon="11.4998909"><ele>293.0</ele><time>2026-04-02T13:28:01.906Z</time></trkpt><trkpt lat="42.6143122" lon="11.5000213"><ele>294.0</ele><time>2026-04-02T13:28:02.908Z</time></trkpt><trkpt lat="42.6141766" lon="11.5001409"><ele>294.0</ele><time>2026-04-02T13:28:03.911Z</time></trkpt><trkpt lat="42.6138807" lon="11.5003757"><ele>294.0</ele><time>2026-04-02T13:28:05.907Z</time></trkpt><trkpt lat="42.6137311" lon="11.5005064"><ele>296.6666666666667</ele><time>2026-04-02T13:28:06.908Z</time></trkpt><trkpt lat="42.6135825" lon="11.5006308"><ele>299.33333333333337</ele><time>2026-04-02T13:28:07.908Z</time></trkpt><trkpt lat="42.613424" lon="11.5007704"><ele>302.0</ele><time>2026-04-02T13:28:08.909Z</time></trkpt><trkpt lat="42.6132721" lon="11.5008977"><ele>302.0</ele><time>2026-04-02T13:28:09.911Z</time></trkpt><trkpt lat="42.6131331" lon="11.501012"><ele>302.0</ele><time>2026-04-02T13:28:10.908Z</time></trkpt><trkpt lat="42.6130112" lon="11.5011137"><ele>302.0</ele><time>2026-04-02T13:28:11.907Z</time></trkpt><trkpt lat="42.6129057" lon="11.5012048"><ele>302.0</ele><time>2026-04-02T13:28:12.911Z</time></trkpt><trkpt lat="42.6128115" lon="11.5012864"><ele>304.75</ele><time>2026-04-02T13:28:13.906Z</time></trkpt><trkpt lat="42.6127095" lon="11.5013699"><ele>307.5</ele><time>2026-04-02T13:28:14.909Z</time></trkpt><trkpt lat="42.6125963" lon="11.5014073"><ele>310.25</ele><time>2026-04-02T13:28:15.907Z</time></trkpt><trkpt lat="42.6124861" lon="11.5013907"><ele>313.0</ele><time>2026-04-02T13:28:16.908Z</time></trkpt><trkpt lat="42.6123859" lon="11.5013321"><ele>310.8</ele><time>2026-04-02T13:28:17.908Z</time></trkpt><trkpt lat="42.6123038" lon="11.5012346"><ele>308.6</ele><time>2026-04-02T13:28:18.91Z</time></trkpt><trkpt lat="42.612239" lon="11.5011195"><ele>306.4</ele><time>2026-04-02T13:28:19.909Z</time></trkpt><trkpt lat="42.6121849" lon="11.5009937"><ele>304.2</ele><time>2026-04-02T13:28:20.908Z</time></trkpt><trkpt lat="42.6121144" lon="11.5008771"><ele>302.0</ele><time>2026-04-02T13:28:21.905Z</time></trkpt><trkpt lat="42.6120199" lon="11.5007649"><ele>302.6666666666667</ele><time>2026-04-02T13:28:22.906Z</time></trkpt><trkpt lat="42.6118976" lon="11.5006548"><ele>303.3333333333333</ele><time>2026-04-02T13:28:23.909Z</time></trkpt><trkpt lat="42.6117509" lon="11.5005434"><ele>304.0</ele><time>2026-04-02T13:28:24.909Z</time></trkpt><trkpt lat="42.611443" lon="11.5003176"><ele>304.0</ele><time>2026-04-02T13:28:26.907Z</time></trkpt><trkpt lat="42.6112919" lon="11.5002085"><ele>304.0</ele><time>2026-04-02T13:28:27.908Z</time></trkpt><trkpt lat="42.6111585" lon="11.500113"><ele>304.0</ele><time>2026-04-02T13:28:28.907Z</time></trkpt><trkpt lat="42.6110338" lon="11.500039"><ele>307.25</ele><time>2026-04-02T13:28:29.908Z</time></trkpt><trkpt lat="42.610908" lon="11.5000116"><ele>310.5</ele><time>2026-04-02T13:28:30.907Z</time></trkpt><trkpt lat="42.6107779" lon="11.5000408"><ele>313.75</ele><time>2026-04-02T13:28:31.914Z</time></trkpt><trkpt lat="42.6106548" lon="11.5001291"><ele>317.0</ele><time>2026-04-02T13:28:32.905Z</time></trkpt><trkpt lat="42.6105383" lon="11.5002247"><ele>317.0</ele><time>2026-04-02T13:28:33.907Z</time></trkpt><trkpt lat="42.6104054" lon="11.5002882"><ele>317.0</ele><time>2026-04-02T13:28:34.907Z</time></trkpt><trkpt lat="42.6102738" lon="11.5002922"><ele>317.0</ele><time>2026-04-02T13:28:35.905Z</time></trkpt><trkpt lat="42.6100207" lon="11.5002086"><ele>317.0</ele><time>2026-04-02T13:28:37.908Z</time></trkpt><trkpt lat="42.6098841" lon="11.5002199"><ele>317.0</ele><time>2026-04-02T13:28:38.909Z</time></trkpt><trkpt lat="42.6097303" lon="11.5002745"><ele>317.0</ele><time>2026-04-02T13:28:39.907Z</time></trkpt><trkpt lat="42.6095844" lon="11.5003803"><ele>320.33333333333337</ele><time>2026-04-02T13:28:40.908Z</time></trkpt><trkpt lat="42.6094581" lon="11.5004979"><ele>323.6666666666667</ele><time>2026-04-02T13:28:41.907Z</time></trkpt><trkpt lat="42.6093449" lon="11.5006574"><ele>327.0</ele><time>2026-04-02T13:28:42.908Z</time></trkpt><trkpt lat="42.609249" lon="11.5008547"><ele>327.0</ele><time>2026-04-02T13:28:43.907Z</time></trkpt><trkpt lat="42.6091759" lon="11.5010775"><ele>327.0</ele><time>2026-04-02T13:28:44.908Z</time></trkpt><trkpt lat="42.6091065" lon="11.501319"><ele>327.0</ele><time>2026-04-02T13:28:45.906Z</time></trkpt><trkpt lat="42.6090367" lon="11.5015683"><ele>329.6666666666667</ele><time>2026-04-02T13:28:46.908Z</time></trkpt><trkpt lat="42.6089719" lon="11.5018163"><ele>332.33333333333337</ele><time>2026-04-02T13:28:47.907Z</time></trkpt><trkpt lat="42.6089114" lon="11.502053"><ele>335.0</ele><time>2026-04-02T13:28:48.908Z</time></trkpt><trkpt lat="42.6088615" lon="11.502272"><ele>337.33333333333337</ele><time>2026-04-02T13:28:49.907Z</time></trkpt><trkpt lat="42.6088117" lon="11.5024791"><ele>339.6666666666667</ele><time>2026-04-02T13:28:50.912Z</time></trkpt><trkpt lat="42.6087509" lon="11.5026827"><ele>342.0</ele><time>2026-04-02T13:28:51.907Z</time></trkpt><trkpt lat="42.6086737" lon="11.5028635"><ele>339.0</ele><time>2026-04-02T13:28:52.908Z</time></trkpt><trkpt lat="42.6085914" lon="11.5030131"><ele>336.0</ele><time>2026-04-02T13:28:53.906Z</time></trkpt><trkpt lat="42.6085159" lon="11.5031815"><ele>333.0</ele><time>2026-04-02T13:28:54.907Z</time></trkpt><trkpt lat="42.6084747" lon="11.5033587"><ele>330.0</ele><time>2026-04-02T13:28:55.909Z</time></trkpt><trkpt lat="42.6084722" lon="11.5035497"><ele>330.0</ele><time>2026-04-02T13:28:56.907Z</time></trkpt><trkpt lat="42.6085959" lon="11.5039155"><ele>330.0</ele><time>2026-04-02T13:28:58.913Z</time></trkpt><trkpt lat="42.6086939" lon="11.5040748"><ele>330.0</ele><time>2026-04-02T13:28:59.908Z</time></trkpt><trkpt lat="42.6087907" lon="11.5042171"><ele>334.25</ele><time>2026-04-02T13:29:00.911Z</time></trkpt><trkpt lat="42.6088833" lon="11.5043508"><ele>338.5</ele><time>2026-04-02T13:29:01.909Z</time></trkpt><trkpt lat="42.6089694" lon="11.504478"><ele>342.75</ele><time>2026-04-02T13:29:02.915Z</time></trkpt><trkpt lat="42.609045" lon="11.5045995"><ele>347.0</ele><time>2026-04-02T13:29:03.908Z</time></trkpt><trkpt lat="42.6091041" lon="11.5047265"><ele>347.0</ele><time>2026-04-02T13:29:04.91Z</time></trkpt><trkpt lat="42.6091449" lon="11.5048513"><ele>347.0</ele><time>2026-04-02T13:29:05.908Z</time></trkpt><trkpt lat="42.6091552" lon="11.5049695"><ele>347.0</ele><time>2026-04-02T13:29:06.907Z</time></trkpt><trkpt lat="42.60914" lon="11.5050784"><ele>347.0</ele><time>2026-04-02T13:29:07.91Z</time></trkpt><trkpt lat="42.6090887" lon="11.5051832"><ele>347.0</ele><time>2026-04-02T13:29:08.909Z</time></trkpt><trkpt lat="42.609008" lon="11.5052549"><ele>347.0</ele><time>2026-04-02T13:29:09.908Z</time></trkpt><trkpt lat="42.6089257" lon="11.5053148"><ele>347.0</ele><time>2026-04-02T13:29:10.908Z</time></trkpt><trkpt lat="42.6088235" lon="11.5053073"><ele>347.0</ele><time>2026-04-02T13:29:11.909Z</time></trkpt><trkpt lat="42.6087366" lon="11.505327"><ele>347.0</ele><time>2026-04-02T13:29:12.91Z</time></trkpt><trkpt lat="42.6086691" lon="11.5053953"><ele>347.0</ele><time>2026-04-02T13:29:13.909Z</time></trkpt><trkpt lat="42.6086279" lon="11.5054849"><ele>347.0</ele><time>2026-04-02T13:29:14.908Z</time></trkpt><trkpt lat="42.6086129" lon="11.5055892"><ele>347.0</ele><time>2026-04-02T13:29:15.907Z</time></trkpt><trkpt lat="42.6086248" lon="11.5056966"><ele>347.0</ele><time>2026-04-02T13:29:16.908Z</time></trkpt><trkpt lat="42.6086555" lon="11.505801"><ele>347.0</ele><time>2026-04-02T13:29:17.911Z</time></trkpt><trkpt lat="42.6086942" lon="11.5059019"><ele>347.0</ele><time>2026-04-02T13:29:18.907Z</time></trkpt><trkpt lat="42.6087174" lon="11.5060099"><ele>347.0</ele><time>2026-04-02T13:29:19.91Z</time></trkpt><trkpt lat="42.6087177" lon="11.50612"><ele>347.0</ele><time>2026-04-02T13:29:20.915Z</time></trkpt><trkpt lat="42.6086824" lon="11.5062204"><ele>349.6</ele><time>2026-04-02T13:29:21.906Z</time></trkpt><trkpt lat="42.6086196" lon="11.5063017"><ele>352.20000000000005</ele><time>2026-04-02T13:29:22.913Z</time></trkpt><trkpt lat="42.6085347" lon="11.5063561"><ele>354.8</ele><time>2026-04-02T13:29:23.916Z</time></trkpt><trkpt lat="42.6084335" lon="11.5063818"><ele>357.4</ele><time>2026-04-02T13:29:24.914Z</time></trkpt><trkpt lat="42.6083219" lon="11.5063897"><ele>360.0</ele><time>2026-04-02T13:29:25.907Z</time></trkpt><trkpt lat="42.6082013" lon="11.5063785"><ele>360.0</ele><time>2026-04-02T13:29:26.907Z</time></trkpt><trkpt lat="42.6080812" lon="11.5063771"><ele>360.0</ele><time>2026-04-02T13:29:27.907Z</time></trkpt><trkpt lat="42.6079603" lon="11.5063984"><ele>360.0</ele><time>2026-04-02T13:29:28.908Z</time></trkpt><trkpt lat="42.6078418" lon="11.5064524"><ele>360.0</ele><time>2026-04-02T13:29:29.907Z</time></trkpt><trkpt lat="42.6077398" lon="11.5065346"><ele>359.0</ele><time>2026-04-02T13:29:30.909Z</time></trkpt><trkpt lat="42.6076552" lon="11.5066421"><ele>358.0</ele><time>2026-04-02T13:29:31.907Z</time></trkpt><trkpt lat="42.6076101" lon="11.5067829"><ele>357.0</ele><time>2026-04-02T13:29:32.907Z</time></trkpt><trkpt lat="42.6075974" lon="11.5069386"><ele>356.0</ele><time>2026-04-02T13:29:33.908Z</time></trkpt><trkpt lat="42.6076148" lon="11.507103"><ele>356.0</ele><time>2026-04-02T13:29:34.907Z</time></trkpt><trkpt lat="42.6076502" lon="11.5072603"><ele>356.0</ele><time>2026-04-02T13:29:35.906Z</time></trkpt><trkpt lat="42.6077201" lon="11.5074074"><ele>356.0</ele><time>2026-04-02T13:29:36.908Z</time></trkpt><trkpt lat="42.6077974" lon="11.5075363"><ele>356.0</ele><time>2026-04-02T13:29:37.913Z</time></trkpt><trkpt lat="42.6078762" lon="11.5076631"><ele>358.6</ele><time>2026-04-02T13:29:38.907Z</time></trkpt><trkpt lat="42.60794" lon="11.5077857"><ele>361.20000000000005</ele><time>2026-04-02T13:29:39.907Z</time></trkpt><trkpt lat="42.6079772" lon="11.5079254"><ele>363.79999999999995</ele><time>2026-04-02T13:29:40.907Z</time></trkpt><trkpt lat="42.6079692" lon="11.5080615"><ele>366.4</ele><time>2026-04-02T13:29:41.906Z</time></trkpt><trkpt lat="42.607923" lon="11.5081752"><ele>369.0</ele><time>2026-04-02T13:29:42.908Z</time></trkpt><trkpt lat="42.607858" lon="11.50827"><ele>369.2</ele><time>2026-04-02T13:29:43.907Z</time></trkpt><trkpt lat="42.6077996" lon="11.5083755"><ele>369.4</ele><time>2026-04-02T13:29:44.909Z</time></trkpt><trkpt lat="42.6077756" lon="11.5085336"><ele>369.6</ele><time>2026-04-02T13:29:45.908Z</time></trkpt><trkpt lat="42.607777" lon="11.5086807"><ele>369.8</ele><time>2026-04-02T13:29:46.907Z</time></trkpt><trkpt lat="42.6078009" lon="11.5088223"><ele>370.0</ele><time>2026-04-02T13:29:47.909Z</time></trkpt><trkpt lat="42.607847" lon="11.508951"><ele>371.0</ele><time>2026-04-02T13:29:48.907Z</time></trkpt><trkpt lat="42.6079124" lon="11.5090649"><ele>372.0</ele><time>2026-04-02T13:29:49.907Z</time></trkpt><trkpt lat="42.6079849" lon="11.5091689"><ele>373.0</ele><time>2026-04-02T13:29:50.907Z</time></trkpt><trkpt lat="42.6080538" lon="11.5092604"><ele>374.0</ele><time>2026-04-02T13:29:51.909Z</time></trkpt><trkpt lat="42.6080998" lon="11.5093667"><ele>375.0</ele><time>2026-04-02T13:29:52.908Z</time></trkpt><trkpt lat="42.6081173" lon="11.5094838"><ele>375.8</ele><time>2026-04-02T13:29:53.911Z</time></trkpt><trkpt lat="42.6080968" lon="11.5095881"><ele>376.6</ele><time>2026-04-02T13:29:54.907Z</time></trkpt><trkpt lat="42.6080455" lon="11.5096672"><ele>377.4</ele><time>2026-04-02T13:29:55.907Z</time></trkpt><trkpt lat="42.6079667" lon="11.5097002"><ele>378.2</ele><time>2026-04-02T13:29:56.907Z</time></trkpt><trkpt lat="42.60787" lon="11.5097111"><ele>379.0</ele><time>2026-04-02T13:29:57.908Z</time></trkpt><trkpt lat="42.607753" lon="11.5096981"><ele>381.0</ele><time>2026-04-02T13:29:58.906Z</time></trkpt><trkpt lat="42.6075968" lon="11.5096404"><ele>383.0</ele><time>2026-04-02T13:29:59.911Z</time></trkpt><trkpt lat="42.6074345" lon="11.5095786"><ele>385.0</ele><time>2026-04-02T13:30:00.907Z</time></trkpt><trkpt lat="42.607265" lon="11.509517"><ele>381.75</ele><time>2026-04-02T13:30:01.908Z</time></trkpt><trkpt lat="42.6071088" lon="11.5094642"><ele>378.5</ele><time>2026-04-02T13:30:02.907Z</time></trkpt><trkpt lat="42.6069818" lon="11.5094285"><ele>375.25</ele><time>2026-04-02T13:30:03.908Z</time></trkpt><trkpt lat="42.6068693" lon="11.5094194"><ele>372.0</ele><time>2026-04-02T13:30:04.909Z</time></trkpt><trkpt lat="42.6067464" lon="11.5094619"><ele>372.0</ele><time>2026-04-02T13:30:05.906Z</time></trkpt><trkpt lat="42.6066565" lon="11.5095526"><ele>372.0</ele><time>2026-04-02T13:30:06.917Z</time></trkpt><trkpt lat="42.6066072" lon="11.5096759"><ele>372.0</ele><time>2026-04-02T13:30:07.907Z</time></trkpt><trkpt lat="42.6066016" lon="11.509819"><ele>372.0</ele><time>2026-04-02T13:30:08.907Z</time></trkpt><trkpt lat="42.6066529" lon="11.5099612"><ele>372.0</ele><time>2026-04-02T13:30:09.907Z</time></trkpt><trkpt lat="42.6068403" lon="11.5102518"><ele>373.5</ele><time>2026-04-02T13:30:11.908Z</time></trkpt><trkpt lat="42.6069368" lon="11.5103758"><ele>375.0</ele><time>2026-04-02T13:30:12.908Z</time></trkpt><trkpt lat="42.6070309" lon="11.5104957"><ele>376.5</ele><time>2026-04-02T13:30:13.906Z</time></trkpt><trkpt lat="42.6071225" lon="11.5106084"><ele>378.0</ele><time>2026-04-02T13:30:14.909Z</time></trkpt><trkpt lat="42.6071998" lon="11.5107124"><ele>380.79999999999995</ele><time>2026-04-02T13:30:15.909Z</time></trkpt><trkpt lat="42.6072491" lon="11.5108282"><ele>383.6</ele><time>2026-04-02T13:30:16.907Z</time></trkpt><trkpt lat="42.6072659" lon="11.5109497"><ele>386.4</ele><time>2026-04-02T13:30:17.907Z</time></trkpt><trkpt lat="42.6072405" lon="11.5110616"><ele>389.20000000000005</ele><time>2026-04-02T13:30:18.909Z</time></trkpt><trkpt lat="42.6071788" lon="11.5111475"><ele>392.0</ele><time>2026-04-02T13:30:19.906Z</time></trkpt><trkpt lat="42.6070886" lon="11.5111951"><ele>390.0</ele><time>2026-04-02T13:30:20.907Z</time></trkpt><trkpt lat="42.6069651" lon="11.5112331"><ele>388.0</ele><time>2026-04-02T13:30:21.906Z</time></trkpt><trkpt lat="42.6068101" lon="11.5112695"><ele>386.0</ele><time>2026-04-02T13:30:22.91Z</time></trkpt><trkpt lat="42.6066218" lon="11.5112956"><ele>390.0</ele><time>2026-04-02T13:30:23.907Z</time></trkpt><trkpt lat="42.6064343" lon="11.5113022"><ele>394.0</ele><time>2026-04-02T13:30:24.907Z</time></trkpt><trkpt lat="42.6062656" lon="11.5113082"><ele>398.0</ele><time>2026-04-02T13:30:25.909Z</time></trkpt><trkpt lat="42.6061094" lon="11.5113336"><ele>398.0</ele><time>2026-04-02T13:30:26.912Z</time></trkpt><trkpt lat="42.6059658" lon="11.5113721"><ele>398.0</ele><time>2026-04-02T13:30:27.909Z</time></trkpt><trkpt lat="42.6058819" lon="11.5114892"><ele>398.0</ele><time>2026-04-02T13:30:28.907Z</time></trkpt><trkpt lat="42.6058063" lon="11.5116286"><ele>398.0</ele><time>2026-04-02T13:30:29.907Z</time></trkpt><trkpt lat="42.6057668" lon="11.5118143"><ele>400.0</ele><time>2026-04-02T13:30:30.908Z</time></trkpt><trkpt lat="42.6057413" lon="11.5122346"><ele>402.0</ele><time>2026-04-02T13:30:32.907Z</time></trkpt><trkpt lat="42.605768" lon="11.512452"><ele>402.0</ele><time>2026-04-02T13:30:33.907Z</time></trkpt><trkpt lat="42.6058294" lon="11.5126816"><ele>402.0</ele><time>2026-04-02T13:30:34.907Z</time></trkpt><trkpt lat="42.6059009" lon="11.512911"><ele>402.0</ele><time>2026-04-02T13:30:35.909Z</time></trkpt><trkpt lat="42.605964" lon="11.5131088"><ele>401.25</ele><time>2026-04-02T13:30:36.908Z</time></trkpt><trkpt lat="42.6059999" lon="11.5132879"><ele>400.5</ele><time>2026-04-02T13:30:37.906Z</time></trkpt><trkpt lat="42.605998" lon="11.5134465"><ele>399.75</ele><time>2026-04-02T13:30:38.908Z</time></trkpt><trkpt lat="42.6059504" lon="11.51358"><ele>399.0</ele><time>2026-04-02T13:30:39.907Z</time></trkpt><trkpt lat="42.6058603" lon="11.5136743"><ele>399.0</ele><time>2026-04-02T13:30:40.907Z</time></trkpt><trkpt lat="42.6057455" lon="11.5137148"><ele>399.0</ele><time>2026-04-02T13:30:41.907Z</time></trkpt><trkpt lat="42.6056229" lon="11.5137085"><ele>399.0</ele><time>2026-04-02T13:30:42.914Z</time></trkpt><trkpt lat="42.6054906" lon="11.5136358"><ele>399.0</ele><time>2026-04-02T13:30:43.907Z</time></trkpt><trkpt lat="42.6053547" lon="11.51358"><ele>398.75</ele><time>2026-04-02T13:30:44.906Z</time></trkpt><trkpt lat="42.6052323" lon="11.5135429"><ele>398.5</ele><time>2026-04-02T13:30:45.907Z</time></trkpt><trkpt lat="42.6051105" lon="11.5135505"><ele>398.25</ele><time>2026-04-02T13:30:46.908Z</time></trkpt><trkpt lat="42.6050006" lon="11.5136334"><ele>398.0</ele><time>2026-04-02T13:30:47.909Z</time></trkpt><trkpt lat="42.6049169" lon="11.5137732"><ele>400.75</ele><time>2026-04-02T13:30:48.913Z</time></trkpt><trkpt lat="42.6048633" lon="11.5139493"><ele>403.5</ele><time>2026-04-02T13:30:49.907Z</time></trkpt><trkpt lat="42.6048321" lon="11.5141186"><ele>406.25</ele><time>2026-04-02T13:30:50.908Z</time></trkpt><trkpt lat="42.6047744" lon="11.5142612"><ele>409.0</ele><time>2026-04-02T13:30:51.907Z</time></trkpt><trkpt lat="42.604692" lon="11.51436"><ele>409.0</ele><time>2026-04-02T13:30:52.908Z</time></trkpt><trkpt lat="42.604585" lon="11.5143987"><ele>409.0</ele><time>2026-04-02T13:30:53.906Z</time></trkpt><trkpt lat="42.6044763" lon="11.5143822"><ele>409.0</ele><time>2026-04-02T13:30:54.909Z</time></trkpt><trkpt lat="42.604344" lon="11.514288"><ele>409.0</ele><time>2026-04-02T13:30:55.911Z</time></trkpt><trkpt lat="42.6042154" lon="11.5141984"><ele>409.0</ele><time>2026-04-02T13:30:56.908Z</time></trkpt><trkpt lat="42.6040564" lon="11.5141284"><ele>409.0</ele><time>2026-04-02T13:30:57.907Z</time></trkpt><trkpt lat="42.6038875" lon="11.514102"><ele>409.0</ele><time>2026-04-02T13:30:58.909Z</time></trkpt><trkpt lat="42.6037087" lon="11.5141222"><ele>409.6666666666667</ele><time>2026-04-02T13:30:59.917Z</time></trkpt><trkpt lat="42.6035433" lon="11.5141698"><ele>410.33333333333337</ele><time>2026-04-02T13:31:00.907Z</time></trkpt><trkpt lat="42.6034001" lon="11.514222"><ele>411.0</ele><time>2026-04-02T13:31:01.907Z</time></trkpt><trkpt lat="42.6032838" lon="11.5143201"><ele>411.0</ele><time>2026-04-02T13:31:02.908Z</time></trkpt><trkpt lat="42.6031941" lon="11.5144665"><ele>411.0</ele><time>2026-04-02T13:31:03.907Z</time></trkpt><trkpt lat="42.6031524" lon="11.5146444"><ele>411.0</ele><time>2026-04-02T13:31:04.905Z</time></trkpt><trkpt lat="42.6031405" lon="11.5148348"><ele>411.0</ele><time>2026-04-02T13:31:05.906Z</time></trkpt><trkpt lat="42.6031263" lon="11.5150187"><ele>412.5</ele><time>2026-04-02T13:31:06.907Z</time></trkpt><trkpt lat="42.6030733" lon="11.5151744"><ele>414.0</ele><time>2026-04-02T13:31:07.909Z</time></trkpt><trkpt lat="42.6029763" lon="11.5152818"><ele>415.5</ele><time>2026-04-02T13:31:08.907Z</time></trkpt><trkpt lat="42.6028619" lon="11.5153646"><ele>417.0</ele><time>2026-04-02T13:31:09.909Z</time></trkpt><trkpt lat="42.6027282" lon="11.5154708"><ele>417.0</ele><time>2026-04-02T13:31:10.908Z</time></trkpt><trkpt lat="42.6025893" lon="11.5156127"><ele>417.0</ele><time>2026-04-02T13:31:11.906Z</time></trkpt><trkpt lat="42.6024556" lon="11.5157702"><ele>417.0</ele><time>2026-04-02T13:31:12.907Z</time></trkpt><trkpt lat="42.6022444" lon="11.5161412"><ele>420.25</ele><time>2026-04-02T13:31:14.908Z</time></trkpt><trkpt lat="42.6021874" lon="11.5163446"><ele>423.5</ele><time>2026-04-02T13:31:15.913Z</time></trkpt><trkpt lat="42.6021418" lon="11.5165413"><ele>426.75</ele><time>2026-04-02T13:31:16.928Z</time></trkpt><trkpt lat="42.6020898" lon="11.5167"><ele>430.0</ele><time>2026-04-02T13:31:17.906Z</time></trkpt><trkpt lat="42.6020009" lon="11.5168137"><ele>426.0</ele><time>2026-04-02T13:31:18.907Z</time></trkpt><trkpt lat="42.6018882" lon="11.5168648"><ele>422.0</ele><time>2026-04-02T13:31:19.909Z</time></trkpt><trkpt lat="42.601755" lon="11.5168502"><ele>418.0</ele><time>2026-04-02T13:31:20.908Z</time></trkpt><trkpt lat="42.6016182" lon="11.5168215"><ele>414.0</ele><time>2026-04-02T13:31:21.907Z</time></trkpt><trkpt lat="42.6014338" lon="11.5167478"><ele>414.0</ele><time>2026-04-02T13:31:22.909Z</time></trkpt><trkpt lat="42.6012487" lon="11.5166906"><ele>414.0</ele><time>2026-04-02T13:31:23.909Z</time></trkpt><trkpt lat="42.6010627" lon="11.5166384"><ele>414.0</ele><time>2026-04-02T13:31:24.907Z</time></trkpt><trkpt lat="42.6008904" lon="11.5165925"><ele>415.0</ele><time>2026-04-02T13:31:25.906Z</time></trkpt><trkpt lat="42.6007353" lon="11.5165244"><ele>416.0</ele><time>2026-04-02T13:31:26.908Z</time></trkpt><trkpt lat="42.6006069" lon="11.5164329"><ele>417.0</ele><time>2026-04-02T13:31:27.906Z</time></trkpt><trkpt lat="42.6005196" lon="11.5163013"><ele>418.0</ele><time>2026-04-02T13:31:28.909Z</time></trkpt><trkpt lat="42.6004611" lon="11.516121"><ele>413.6666666666667</ele><time>2026-04-02T13:31:29.906Z</time></trkpt><trkpt lat="42.6004341" lon="11.5159079"><ele>409.33333333333337</ele><time>2026-04-02T13:31:30.906Z</time></trkpt><trkpt lat="42.6004083" lon="11.5156797"><ele>405.0</ele><time>2026-04-02T13:31:31.908Z</time></trkpt><trkpt lat="42.6003598" lon="11.5154837"><ele>407.5</ele><time>2026-04-02T13:31:32.91Z</time></trkpt><trkpt lat="42.6002928" lon="11.5153106"><ele>410.0</ele><time>2026-04-02T13:31:33.909Z</time></trkpt><trkpt lat="42.6001946" lon="11.5151995"><ele>412.5</ele><time>2026-04-02T13:31:34.911Z</time></trkpt><trkpt lat="42.6000749" lon="11.5151457"><ele>415.0</ele><time>2026-04-02T13:31:35.907Z</time></trkpt><trkpt lat="42.5999431" lon="11.5151384"><ele>415.0</ele><time>2026-04-02T13:31:36.911Z</time></trkpt><trkpt lat="42.5997835" lon="11.5152193"><ele>415.0</ele><time>2026-04-02T13:31:37.907Z</time></trkpt><trkpt lat="42.5996243" lon="11.5153124"><ele>415.0</ele><time>2026-04-02T13:31:38.91Z</time></trkpt><trkpt lat="42.5994542" lon="11.5154058"><ele>415.6666666666667</ele><time>2026-04-02T13:31:39.91Z</time></trkpt><trkpt lat="42.5992691" lon="11.5155055"><ele>416.33333333333337</ele><time>2026-04-02T13:31:40.908Z</time></trkpt><trkpt lat="42.5990893" lon="11.5155981"><ele>417.0</ele><time>2026-04-02T13:31:41.911Z</time></trkpt><trkpt lat="42.5989182" lon="11.5156873"><ele>417.0</ele><time>2026-04-02T13:31:42.91Z</time></trkpt><trkpt lat="42.598764" lon="11.5157747"><ele>417.0</ele><time>2026-04-02T13:31:43.907Z</time></trkpt><trkpt lat="42.5986293" lon="11.5158579"><ele>417.0</ele><time>2026-04-02T13:31:44.907Z</time></trkpt><trkpt lat="42.5985131" lon="11.5159418"><ele>417.0</ele><time>2026-04-02T13:31:45.909Z</time></trkpt><trkpt lat="42.5984086" lon="11.5160527"><ele>414.0</ele><time>2026-04-02T13:31:46.908Z</time></trkpt><trkpt lat="42.598337" lon="11.5162055"><ele>411.0</ele><time>2026-04-02T13:31:47.907Z</time></trkpt><trkpt lat="42.5983129" lon="11.5163945"><ele>408.0</ele><time>2026-04-02T13:31:48.908Z</time></trkpt><trkpt lat="42.5983148" lon="11.5165921"><ele>405.0</ele><time>2026-04-02T13:31:49.911Z</time></trkpt><trkpt lat="42.5983291" lon="11.5167971"><ele>405.0</ele><time>2026-04-02T13:31:50.907Z</time></trkpt><trkpt lat="42.5983379" lon="11.5169983"><ele>405.0</ele><time>2026-04-02T13:31:51.908Z</time></trkpt><trkpt lat="42.5983363" lon="11.5171736"><ele>405.0</ele><time>2026-04-02T13:31:52.908Z</time></trkpt><trkpt lat="42.5983052" lon="11.5173307"><ele>405.0</ele><time>2026-04-02T13:31:53.907Z</time></trkpt><trkpt lat="42.5982578" lon="11.5174708"><ele>405.33333333333337</ele><time>2026-04-02T13:31:54.908Z</time></trkpt><trkpt lat="42.5981252" lon="11.5175404"><ele>405.6666666666667</ele><time>2026-04-02T13:31:55.907Z</time></trkpt><trkpt lat="42.5979879" lon="11.5175964"><ele>406.0</ele><time>2026-04-02T13:31:56.908Z</time></trkpt><trkpt lat="42.5978234" lon="11.5176342"><ele>402.0</ele><time>2026-04-02T13:31:57.906Z</time></trkpt><trkpt lat="42.5976459" lon="11.5176741"><ele>398.0</ele><time>2026-04-02T13:31:58.911Z</time></trkpt><trkpt lat="42.5974672" lon="11.5177343"><ele>394.0</ele><time>2026-04-02T13:31:59.906Z</time></trkpt><trkpt lat="42.5972998" lon="11.5178005"><ele>394.0</ele><time>2026-04-02T13:32:00.908Z</time></trkpt><trkpt lat="42.5971488" lon="11.5178669"><ele>394.0</ele><time>2026-04-02T13:32:01.912Z</time></trkpt><trkpt lat="42.5970139" lon="11.5179334"><ele>394.0</ele><time>2026-04-02T13:32:02.907Z</time></trkpt><trkpt lat="42.5968967" lon="11.5180098"><ele>394.0</ele><time>2026-04-02T13:32:03.909Z</time></trkpt><trkpt lat="42.5968061" lon="11.5181186"><ele>393.25</ele><time>2026-04-02T13:32:04.907Z</time></trkpt><trkpt lat="42.5967546" lon="11.5182666"><ele>392.5</ele><time>2026-04-02T13:32:05.907Z</time></trkpt><trkpt lat="42.5967497" lon="11.5184215"><ele>391.75</ele><time>2026-04-02T13:32:06.908Z</time></trkpt><trkpt lat="42.5967928" lon="11.5185595"><ele>391.0</ele><time>2026-04-02T13:32:07.908Z</time></trkpt><trkpt lat="42.5968695" lon="11.5186681"><ele>391.0</ele><time>2026-04-02T13:32:08.909Z</time></trkpt><trkpt lat="42.5969876" lon="11.5187305"><ele>391.0</ele><time>2026-04-02T13:32:09.91Z</time></trkpt><trkpt lat="42.5971216" lon="11.5187493"><ele>391.0</ele><time>2026-04-02T13:32:10.91Z</time></trkpt><trkpt lat="42.5972372" lon="11.5187732"><ele>391.0</ele><time>2026-04-02T13:32:11.908Z</time></trkpt><trkpt lat="42.5973397" lon="11.5188341"><ele>392.0</ele><time>2026-04-02T13:32:12.907Z</time></trkpt><trkpt lat="42.5974048" lon="11.5189354"><ele>393.0</ele><time>2026-04-02T13:32:13.909Z</time></trkpt><trkpt lat="42.5974201" lon="11.5190529"><ele>394.0</ele><time>2026-04-02T13:32:14.908Z</time></trkpt><trkpt lat="42.5973898" lon="11.5191818"><ele>395.0</ele><time>2026-04-02T13:32:15.907Z</time></trkpt><trkpt lat="42.5972373" lon="11.5194847"><ele>393.75</ele><time>2026-04-02T13:32:17.907Z</time></trkpt><trkpt lat="42.5971742" lon="11.5196428"><ele>392.5</ele><time>2026-04-02T13:32:18.908Z</time></trkpt><trkpt lat="42.5971033" lon="11.5197812"><ele>391.25</ele><time>2026-04-02T13:32:19.906Z</time></trkpt><trkpt lat="42.5970046" lon="11.5198881"><ele>390.0</ele><time>2026-04-02T13:32:20.909Z</time></trkpt><trkpt lat="42.5968691" lon="11.5199467"><ele>390.0</ele><time>2026-04-02T13:32:21.91Z</time></trkpt><trkpt lat="42.5967045" lon="11.5199477"><ele>390.0</ele><time>2026-04-02T13:32:22.907Z</time></trkpt><trkpt lat="42.5965388" lon="11.5199057"><ele>390.0</ele><time>2026-04-02T13:32:23.908Z</time></trkpt><trkpt lat="42.5963765" lon="11.5198754"><ele>390.0</ele><time>2026-04-02T13:32:24.908Z</time></trkpt><trkpt lat="42.5962135" lon="11.5198741"><ele>390.0</ele><time>2026-04-02T13:32:25.908Z</time></trkpt><trkpt lat="42.5960603" lon="11.5198998"><ele>390.0</ele><time>2026-04-02T13:32:26.907Z</time></trkpt><trkpt lat="42.5959215" lon="11.5199753"><ele>389.0</ele><time>2026-04-02T13:32:27.906Z</time></trkpt><trkpt lat="42.595799" lon="11.5200544"><ele>388.0</ele><time>2026-04-02T13:32:28.913Z</time></trkpt><trkpt lat="42.5956741" lon="11.5200805"><ele>387.0</ele><time>2026-04-02T13:32:29.909Z</time></trkpt><trkpt lat="42.5955562" lon="11.5200532"><ele>386.0</ele><time>2026-04-02T13:32:30.908Z</time></trkpt><trkpt lat="42.5954496" lon="11.5199597"><ele>386.0</ele><time>2026-04-02T13:32:31.91Z</time></trkpt><trkpt lat="42.5953648" lon="11.519833"><ele>386.0</ele><time>2026-04-02T13:32:32.906Z</time></trkpt><trkpt lat="42.5952759" lon="11.5197298"><ele>386.0</ele><time>2026-04-02T13:32:33.908Z</time></trkpt><trkpt lat="42.5951646" lon="11.5196562"><ele>386.0</ele><time>2026-04-02T13:32:34.917Z</time></trkpt><trkpt lat="42.595042" lon="11.5196425"><ele>385.75</ele><time>2026-04-02T13:32:35.909Z</time></trkpt><trkpt lat="42.5949118" lon="11.5196858"><ele>385.5</ele><time>2026-04-02T13:32:36.907Z</time></trkpt><trkpt lat="42.5947898" lon="11.5197195"><ele>385.25</ele><time>2026-04-02T13:32:37.907Z</time></trkpt><trkpt lat="42.5946757" lon="11.5196855"><ele>385.0</ele><time>2026-04-02T13:32:38.907Z</time></trkpt><trkpt lat="42.5945679" lon="11.519599"><ele>382.0</ele><time>2026-04-02T13:32:39.906Z</time></trkpt><trkpt lat="42.5944795" lon="11.519496"><ele>379.0</ele><time>2026-04-02T13:32:40.906Z</time></trkpt><trkpt lat="42.5943785" lon="11.5194175"><ele>376.0</ele><time>2026-04-02T13:32:41.912Z</time></trkpt><trkpt lat="42.5942689" lon="11.519385"><ele>373.0</ele><time>2026-04-02T13:32:42.905Z</time></trkpt><trkpt lat="42.5941491" lon="11.5194177"><ele>373.0</ele><time>2026-04-02T13:32:43.907Z</time></trkpt><trkpt lat="42.5940318" lon="11.5194982"><ele>373.0</ele><time>2026-04-02T13:32:44.907Z</time></trkpt><trkpt lat="42.5939219" lon="11.5196267"><ele>373.0</ele><time>2026-04-02T13:32:45.906Z</time></trkpt><trkpt lat="42.5938301" lon="11.5197743"><ele>373.0</ele><time>2026-04-02T13:32:46.907Z</time></trkpt><trkpt lat="42.5937642" lon="11.5199333"><ele>372.75</ele><time>2026-04-02T13:32:47.908Z</time></trkpt><trkpt lat="42.5937156" lon="11.5200912"><ele>372.5</ele><time>2026-04-02T13:32:48.913Z</time></trkpt><trkpt lat="42.5936667" lon="11.5202422"><ele>372.25</ele><time>2026-04-02T13:32:49.91Z</time></trkpt><trkpt lat="42.5935939" lon="11.5203638"><ele>372.0</ele><time>2026-04-02T13:32:50.914Z</time></trkpt><trkpt lat="42.5934909" lon="11.5204536"><ele>372.5</ele><time>2026-04-02T13:32:51.907Z</time></trkpt><trkpt lat="42.5933656" lon="11.5205044"><ele>373.0</ele><time>2026-04-02T13:32:52.914Z</time></trkpt><trkpt lat="42.5932307" lon="11.5205238"><ele>373.5</ele><time>2026-04-02T13:32:53.907Z</time></trkpt><trkpt lat="42.5930881" lon="11.5205123"><ele>374.0</ele><time>2026-04-02T13:32:54.91Z</time></trkpt><trkpt lat="42.5929437" lon="11.520493"><ele>372.0</ele><time>2026-04-02T13:32:55.907Z</time></trkpt><trkpt lat="42.5928068" lon="11.5204775"><ele>370.0</ele><time>2026-04-02T13:32:56.908Z</time></trkpt><trkpt lat="42.592686" lon="11.5204646"><ele>368.0</ele><time>2026-04-02T13:32:57.907Z</time></trkpt><trkpt lat="42.5924709" lon="11.5204434"><ele>368.0</ele><time>2026-04-02T13:32:59.913Z</time></trkpt><trkpt lat="42.5923767" lon="11.5204347"><ele>368.0</ele><time>2026-04-02T13:33:00.907Z</time></trkpt><trkpt lat="42.5922902" lon="11.5204245"><ele>368.0</ele><time>2026-04-02T13:33:01.911Z</time></trkpt><trkpt lat="42.5922085" lon="11.5204149"><ele>368.0</ele><time>2026-04-02T13:33:02.911Z</time></trkpt><trkpt lat="42.5921308" lon="11.5204095"><ele>368.0</ele><time>2026-04-02T13:33:03.915Z</time></trkpt><trkpt lat="42.5920457" lon="11.5204091"><ele>368.0</ele><time>2026-04-02T13:33:04.909Z</time></trkpt><trkpt lat="42.5919411" lon="11.5204056"><ele>370.0</ele><time>2026-04-02T13:33:05.906Z</time></trkpt><trkpt lat="42.5918293" lon="11.5203933"><ele>372.0</ele><time>2026-04-02T13:33:06.909Z</time></trkpt><trkpt lat="42.5917063" lon="11.5203706"><ele>374.0</ele><time>2026-04-02T13:33:07.907Z</time></trkpt><trkpt lat="42.5915866" lon="11.5203405"><ele>376.0</ele><time>2026-04-02T13:33:08.916Z</time></trkpt><trkpt lat="42.5914628" lon="11.5203123"><ele>376.0</ele><time>2026-04-02T13:33:09.908Z</time></trkpt><trkpt lat="42.5913386" lon="11.5202847"><ele>376.0</ele><time>2026-04-02T13:33:10.907Z</time></trkpt><trkpt lat="42.5912117" lon="11.520266"><ele>376.0</ele><time>2026-04-02T13:33:11.908Z</time></trkpt><trkpt lat="42.5910958" lon="11.5202455"><ele>376.0</ele><time>2026-04-02T13:33:12.91Z</time></trkpt><trkpt lat="42.5909916" lon="11.5202286"><ele>376.8</ele><time>2026-04-02T13:33:13.909Z</time></trkpt><trkpt lat="42.5908885" lon="11.5202107"><ele>377.6</ele><time>2026-04-02T13:33:14.908Z</time></trkpt><trkpt lat="42.5907914" lon="11.5201957"><ele>378.4</ele><time>2026-04-02T13:33:15.912Z</time></trkpt><trkpt lat="42.5907118" lon="11.520183"><ele>379.2</ele><time>2026-04-02T13:33:16.907Z</time></trkpt><trkpt lat="42.5906332" lon="11.5201705"><ele>380.0</ele><time>2026-04-02T13:33:17.91Z</time></trkpt><trkpt lat="42.5905415" lon="11.5201469"><ele>380.0</ele><time>2026-04-02T13:33:18.908Z</time></trkpt><trkpt lat="42.5904341" lon="11.5201085"><ele>380.0</ele><time>2026-04-02T13:33:19.908Z</time></trkpt><trkpt lat="42.5903218" lon="11.520053"><ele>380.0</ele><time>2026-04-02T13:33:20.907Z</time></trkpt><trkpt lat="42.5902013" lon="11.5199793"><ele>380.0</ele><time>2026-04-02T13:33:21.915Z</time></trkpt><trkpt lat="42.5900953" lon="11.5199057"><ele>382.0</ele><time>2026-04-02T13:33:22.908Z</time></trkpt><trkpt lat="42.5899976" lon="11.5198422"><ele>384.0</ele><time>2026-04-02T13:33:23.909Z</time></trkpt><trkpt lat="42.5899117" lon="11.519795"><ele>386.0</ele><time>2026-04-02T13:33:24.911Z</time></trkpt><trkpt lat="42.5898317" lon="11.5197464"><ele>388.0</ele><time>2026-04-02T13:33:25.907Z</time></trkpt><trkpt lat="42.5897362" lon="11.5196815"><ele>390.0</ele><time>2026-04-02T13:33:26.909Z</time></trkpt><trkpt lat="42.5896255" lon="11.5196213"><ele>389.75</ele><time>2026-04-02T13:33:27.909Z</time></trkpt><trkpt lat="42.5895013" lon="11.5195728"><ele>389.5</ele><time>2026-04-02T13:33:28.911Z</time></trkpt><trkpt lat="42.5893691" lon="11.51953"><ele>389.25</ele><time>2026-04-02T13:33:29.908Z</time></trkpt><trkpt lat="42.5892256" lon="11.5194906"><ele>389.0</ele><time>2026-04-02T13:33:30.919Z</time></trkpt><trkpt lat="42.5890878" lon="11.519452"><ele>389.0</ele><time>2026-04-02T13:33:31.925Z</time></trkpt><trkpt lat="42.5889667" lon="11.5194159"><ele>389.0</ele><time>2026-04-02T13:33:32.907Z</time></trkpt><trkpt lat="42.5888589" lon="11.5193856"><ele>389.0</ele><time>2026-04-02T13:33:33.907Z</time></trkpt><trkpt lat="42.5887656" lon="11.5193615"><ele>389.0</ele><time>2026-04-02T13:33:34.911Z</time></trkpt><trkpt lat="42.5886861" lon="11.5193351"><ele>389.0</ele><time>2026-04-02T13:33:35.908Z</time></trkpt><trkpt lat="42.5886228" lon="11.519307"><ele>389.6</ele><time>2026-04-02T13:33:36.909Z</time></trkpt><trkpt lat="42.588509" lon="11.5192323"><ele>390.2</ele><time>2026-04-02T13:33:38.909Z</time></trkpt><trkpt lat="42.5884528" lon="11.5191846"><ele>390.8</ele><time>2026-04-02T13:33:39.908Z</time></trkpt><trkpt lat="42.5883535" lon="11.519117"><ele>391.40000000000003</ele><time>2026-04-02T13:33:41.906Z</time></trkpt><trkpt lat="42.5882642" lon="11.5191322"><ele>392.0</ele><time>2026-04-02T13:33:43.908Z</time></trkpt><trkpt lat="42.5881769" lon="11.5192473"><ele>392.0</ele><time>2026-04-02T13:33:45.908Z</time></trkpt><trkpt lat="42.5881231" lon="11.5193423"><ele>392.0</ele><time>2026-04-02T13:33:46.911Z</time></trkpt><trkpt lat="42.5880499" lon="11.5194295"><ele>392.0</ele><time>2026-04-02T13:33:47.913Z</time></trkpt><trkpt lat="42.5879522" lon="11.5195076"><ele>392.0</ele><time>2026-04-02T13:33:48.909Z</time></trkpt><trkpt lat="42.5878579" lon="11.5195926"><ele>392.0</ele><time>2026-04-02T13:33:49.91Z</time></trkpt><trkpt lat="42.5876409" lon="11.5197348"><ele>392.75</ele><time>2026-04-02T13:33:51.913Z</time></trkpt><trkpt lat="42.5875334" lon="11.519785"><ele>393.5</ele><time>2026-04-02T13:33:52.907Z</time></trkpt><trkpt lat="42.5874145" lon="11.5198135"><ele>394.25</ele><time>2026-04-02T13:33:53.911Z</time></trkpt><trkpt lat="42.5872997" lon="11.5198169"><ele>395.0</ele><time>2026-04-02T13:33:54.911Z</time></trkpt><trkpt lat="42.5871892" lon="11.5198104"><ele>395.0</ele><time>2026-04-02T13:33:55.908Z</time></trkpt><trkpt lat="42.5870792" lon="11.5198022"><ele>395.0</ele><time>2026-04-02T13:33:56.91Z</time></trkpt><trkpt lat="42.5869751" lon="11.5197936"><ele>395.0</ele><time>2026-04-02T13:33:57.909Z</time></trkpt><trkpt lat="42.5868825" lon="11.5197779"><ele>395.0</ele><time>2026-04-02T13:33:58.91Z</time></trkpt><trkpt lat="42.586804" lon="11.5197686"><ele>395.0</ele><time>2026-04-02T13:33:59.908Z</time></trkpt><trkpt lat="42.58674" lon="11.5197615"><ele>394.66666666666663</ele><time>2026-04-02T13:34:00.909Z</time></trkpt><trkpt lat="42.5866348" lon="11.5197465"><ele>394.3333333333333</ele><time>2026-04-02T13:34:02.906Z</time></trkpt><trkpt lat="42.5865509" lon="11.5197412"><ele>394.0</ele><time>2026-04-02T13:34:04.907Z</time></trkpt><trkpt lat="42.5864487" lon="11.5197433"><ele>393.66666666666663</ele><time>2026-04-02T13:34:06.917Z</time></trkpt><trkpt lat="42.5863814" lon="11.519746"><ele>393.3333333333333</ele><time>2026-04-02T13:34:07.91Z</time></trkpt><trkpt lat="42.5862931" lon="11.5197384"><ele>393.0</ele><time>2026-04-02T13:34:08.909Z</time></trkpt><trkpt lat="42.586183" lon="11.5197179"><ele>393.5</ele><time>2026-04-02T13:34:09.907Z</time></trkpt><trkpt lat="42.5860743" lon="11.519691"><ele>394.0</ele><time>2026-04-02T13:34:10.91Z</time></trkpt><trkpt lat="42.5859507" lon="11.5196729"><ele>394.5</ele><time>2026-04-02T13:34:11.907Z</time></trkpt><trkpt lat="42.5858268" lon="11.519652"><ele>395.0</ele><time>2026-04-02T13:34:12.911Z</time></trkpt><trkpt lat="42.585674" lon="11.5196355"><ele>395.0</ele><time>2026-04-02T13:34:13.908Z</time></trkpt><trkpt lat="42.585527" lon="11.5196171"><ele>395.0</ele><time>2026-04-02T13:34:14.912Z</time></trkpt><trkpt lat="42.5853779" lon="11.5196"><ele>395.0</ele><time>2026-04-02T13:34:15.911Z</time></trkpt><trkpt lat="42.5852398" lon="11.5195775"><ele>395.0</ele><time>2026-04-02T13:34:16.909Z</time></trkpt><trkpt lat="42.5851057" lon="11.5195567"><ele>394.5</ele><time>2026-04-02T13:34:17.907Z</time></trkpt><trkpt lat="42.5849831" lon="11.5195404"><ele>394.0</ele><time>2026-04-02T13:34:18.914Z</time></trkpt><trkpt lat="42.5848577" lon="11.5195294"><ele>393.5</ele><time>2026-04-02T13:34:19.909Z</time></trkpt><trkpt lat="42.5847586" lon="11.5195765"><ele>393.0</ele><time>2026-04-02T13:34:20.909Z</time></trkpt><trkpt lat="42.5846533" lon="11.519654"><ele>393.0</ele><time>2026-04-02T13:34:21.908Z</time></trkpt><trkpt lat="42.5845707" lon="11.5197802"><ele>393.0</ele><time>2026-04-02T13:34:22.907Z</time></trkpt><trkpt lat="42.5845181" lon="11.5199201"><ele>393.0</ele><time>2026-04-02T13:34:23.907Z</time></trkpt><trkpt lat="42.5844975" lon="11.5200797"><ele>393.0</ele><time>2026-04-02T13:34:24.909Z</time></trkpt><trkpt lat="42.5845128" lon="11.5202437"><ele>391.75</ele><time>2026-04-02T13:34:25.907Z</time></trkpt><trkpt lat="42.5845646" lon="11.5204011"><ele>390.5</ele><time>2026-04-02T13:34:26.91Z</time></trkpt><trkpt lat="42.5846482" lon="11.5205539"><ele>389.25</ele><time>2026-04-02T13:34:27.913Z</time></trkpt><trkpt lat="42.5847522" lon="11.5206975"><ele>388.0</ele><time>2026-04-02T13:34:28.91Z</time></trkpt><trkpt lat="42.5848636" lon="11.5208368"><ele>388.0</ele><time>2026-04-02T13:34:29.907Z</time></trkpt><trkpt lat="42.5849667" lon="11.5209667"><ele>388.0</ele><time>2026-04-02T13:34:30.907Z</time></trkpt><trkpt lat="42.5851428" lon="11.5212111"><ele>388.0</ele><time>2026-04-02T13:34:32.906Z</time></trkpt><trkpt lat="42.5852113" lon="11.5213281"><ele>386.59999999999997</ele><time>2026-04-02T13:34:33.908Z</time></trkpt><trkpt lat="42.5852632" lon="11.5214456"><ele>385.2</ele><time>2026-04-02T13:34:34.906Z</time></trkpt><trkpt lat="42.5852973" lon="11.5215649"><ele>383.8</ele><time>2026-04-02T13:34:35.909Z</time></trkpt><trkpt lat="42.5853162" lon="11.521678"><ele>382.4</ele><time>2026-04-02T13:34:36.908Z</time></trkpt><trkpt lat="42.5853244" lon="11.5217898"><ele>381.0</ele><time>2026-04-02T13:34:37.908Z</time></trkpt><trkpt lat="42.585323" lon="11.5219102"><ele>381.0</ele><time>2026-04-02T13:34:38.909Z</time></trkpt><trkpt lat="42.5853128" lon="11.5220335"><ele>381.0</ele><time>2026-04-02T13:34:39.908Z</time></trkpt><trkpt lat="42.5853017" lon="11.5221492"><ele>381.0</ele><time>2026-04-02T13:34:40.915Z</time></trkpt><trkpt lat="42.5852847" lon="11.5222578"><ele>381.0</ele><time>2026-04-02T13:34:41.908Z</time></trkpt><trkpt lat="42.5852723" lon="11.5223625"><ele>381.0</ele><time>2026-04-02T13:34:42.911Z</time></trkpt><trkpt lat="42.5852566" lon="11.5224765"><ele>381.0</ele><time>2026-04-02T13:34:43.91Z</time></trkpt><trkpt lat="42.5852412" lon="11.5226065"><ele>381.25</ele><time>2026-04-02T13:34:44.909Z</time></trkpt><trkpt lat="42.5852112" lon="11.5227514"><ele>381.5</ele><time>2026-04-02T13:34:45.909Z</time></trkpt><trkpt lat="42.5851571" lon="11.5229195"><ele>381.75</ele><time>2026-04-02T13:34:46.907Z</time></trkpt><trkpt lat="42.5850759" lon="11.5231046"><ele>382.0</ele><time>2026-04-02T13:34:47.91Z</time></trkpt><trkpt lat="42.5849877" lon="11.5232712"><ele>382.0</ele><time>2026-04-02T13:34:48.91Z</time></trkpt><trkpt lat="42.5848962" lon="11.5234335"><ele>382.0</ele><time>2026-04-02T13:34:49.909Z</time></trkpt><trkpt lat="42.5848131" lon="11.5235932"><ele>382.0</ele><time>2026-04-02T13:34:50.909Z</time></trkpt><trkpt lat="42.5847411" lon="11.5237407"><ele>382.0</ele><time>2026-04-02T13:34:51.91Z</time></trkpt><trkpt lat="42.5846697" lon="11.523894"><ele>381.0</ele><time>2026-04-02T13:34:52.907Z</time></trkpt><trkpt lat="42.5845985" lon="11.5240471"><ele>380.0</ele><time>2026-04-02T13:34:53.907Z</time></trkpt><trkpt lat="42.584528" lon="11.524207"><ele>379.0</ele><time>2026-04-02T13:34:54.907Z</time></trkpt><trkpt lat="42.5844593" lon="11.524362"><ele>378.0</ele><time>2026-04-02T13:34:55.91Z</time></trkpt><trkpt lat="42.5843881" lon="11.5245086"><ele>373.6666666666667</ele><time>2026-04-02T13:34:56.909Z</time></trkpt><trkpt lat="42.5842913" lon="11.5246683"><ele>369.33333333333337</ele><time>2026-04-02T13:34:57.909Z</time></trkpt><trkpt lat="42.5841627" lon="11.524828"><ele>365.0</ele><time>2026-04-02T13:34:58.909Z</time></trkpt><trkpt lat="42.5840149" lon="11.5249911"><ele>365.0</ele><time>2026-04-02T13:34:59.907Z</time></trkpt><trkpt lat="42.5838604" lon="11.5251487"><ele>365.0</ele><time>2026-04-02T13:35:00.91Z</time></trkpt><trkpt lat="42.5837102" lon="11.5252957"><ele>365.0</ele><time>2026-04-02T13:35:01.907Z</time></trkpt><trkpt lat="42.5835704" lon="11.5254366"><ele>364.33333333333337</ele><time>2026-04-02T13:35:02.907Z</time></trkpt><trkpt lat="42.5834302" lon="11.5255734"><ele>363.6666666666667</ele><time>2026-04-02T13:35:03.907Z</time></trkpt><trkpt lat="42.5832886" lon="11.5256903"><ele>363.0</ele><time>2026-04-02T13:35:04.907Z</time></trkpt><trkpt lat="42.5831313" lon="11.5257736"><ele>363.0</ele><time>2026-04-02T13:35:05.909Z</time></trkpt><trkpt lat="42.5829683" lon="11.5258143"><ele>363.0</ele><time>2026-04-02T13:35:06.907Z</time></trkpt><trkpt lat="42.5828045" lon="11.5258146"><ele>363.0</ele><time>2026-04-02T13:35:07.907Z</time></trkpt><trkpt lat="42.5826526" lon="11.5258119"><ele>362.0</ele><time>2026-04-02T13:35:08.909Z</time></trkpt><trkpt lat="42.5825027" lon="11.5258066"><ele>361.0</ele><time>2026-04-02T13:35:09.909Z</time></trkpt><trkpt lat="42.582357" lon="11.5258127"><ele>360.0</ele><time>2026-04-02T13:35:10.915Z</time></trkpt><trkpt lat="42.5822119" lon="11.5258669"><ele>359.0</ele><time>2026-04-02T13:35:11.908Z</time></trkpt><trkpt lat="42.5820701" lon="11.5259717"><ele>355.33333333333337</ele><time>2026-04-02T13:35:12.907Z</time></trkpt><trkpt lat="42.5819397" lon="11.5261229"><ele>351.6666666666667</ele><time>2026-04-02T13:35:13.91Z</time></trkpt><trkpt lat="42.5818059" lon="11.5262898"><ele>348.0</ele><time>2026-04-02T13:35:14.906Z</time></trkpt><trkpt lat="42.581659" lon="11.5264676"><ele>347.0</ele><time>2026-04-02T13:35:15.908Z</time></trkpt><trkpt lat="42.5815046" lon="11.5266438"><ele>346.0</ele><time>2026-04-02T13:35:16.911Z</time></trkpt><trkpt lat="42.5813402" lon="11.5268193"><ele>345.0</ele><time>2026-04-02T13:35:17.909Z</time></trkpt><trkpt lat="42.5811707" lon="11.5269978"><ele>345.3333333333333</ele><time>2026-04-02T13:35:18.907Z</time></trkpt><trkpt lat="42.5809987" lon="11.5271792"><ele>345.66666666666663</ele><time>2026-04-02T13:35:19.912Z</time></trkpt><trkpt lat="42.5808346" lon="11.5273456"><ele>346.0</ele><time>2026-04-02T13:35:20.908Z</time></trkpt><trkpt lat="42.5806861" lon="11.5274977"><ele>346.0</ele><time>2026-04-02T13:35:21.907Z</time></trkpt><trkpt lat="42.5805443" lon="11.5276402"><ele>346.0</ele><time>2026-04-02T13:35:22.909Z</time></trkpt><trkpt lat="42.5804038" lon="11.5277636"><ele>346.0</ele><time>2026-04-02T13:35:23.91Z</time></trkpt><trkpt lat="42.5802566" lon="11.5278482"><ele>343.0</ele><time>2026-04-02T13:35:24.907Z</time></trkpt><trkpt lat="42.5801049" lon="11.527887"><ele>340.0</ele><time>2026-04-02T13:35:25.909Z</time></trkpt><trkpt lat="42.5799359" lon="11.527871"><ele>337.0</ele><time>2026-04-02T13:35:26.907Z</time></trkpt><trkpt lat="42.5797632" lon="11.5278226"><ele>337.0</ele><time>2026-04-02T13:35:27.91Z</time></trkpt><trkpt lat="42.5796033" lon="11.5277788"><ele>337.0</ele><time>2026-04-02T13:35:28.91Z</time></trkpt><trkpt lat="42.5794471" lon="11.5277265"><ele>337.0</ele><time>2026-04-02T13:35:29.921Z</time></trkpt><trkpt lat="42.5792772" lon="11.5276975"><ele>335.0</ele><time>2026-04-02T13:35:30.908Z</time></trkpt><trkpt lat="42.5790956" lon="11.5277213"><ele>333.0</ele><time>2026-04-02T13:35:31.909Z</time></trkpt><trkpt lat="42.5789131" lon="11.5277777"><ele>331.0</ele><time>2026-04-02T13:35:32.919Z</time></trkpt><trkpt lat="42.5787372" lon="11.5278205"><ele>328.66666666666663</ele><time>2026-04-02T13:35:33.908Z</time></trkpt><trkpt lat="42.5785634" lon="11.5278248"><ele>326.3333333333333</ele><time>2026-04-02T13:35:34.912Z</time></trkpt><trkpt lat="42.5784072" lon="11.5277867"><ele>324.0</ele><time>2026-04-02T13:35:35.91Z</time></trkpt><trkpt lat="42.5782638" lon="11.5277303"><ele>324.0</ele><time>2026-04-02T13:35:36.908Z</time></trkpt><trkpt lat="42.5781177" lon="11.5276923"><ele>324.0</ele><time>2026-04-02T13:35:37.909Z</time></trkpt><trkpt lat="42.5779674" lon="11.5276991"><ele>324.0</ele><time>2026-04-02T13:35:38.907Z</time></trkpt><trkpt lat="42.5778252" lon="11.527751"><ele>324.0</ele><time>2026-04-02T13:35:39.908Z</time></trkpt><trkpt lat="42.5776825" lon="11.5278703"><ele>327.6666666666667</ele><time>2026-04-02T13:35:40.909Z</time></trkpt><trkpt lat="42.5775488" lon="11.5280014"><ele>331.33333333333337</ele><time>2026-04-02T13:35:41.909Z</time></trkpt><trkpt lat="42.5774102" lon="11.5281005"><ele>335.0</ele><time>2026-04-02T13:35:42.908Z</time></trkpt><trkpt lat="42.5772628" lon="11.5281365"><ele>335.0</ele><time>2026-04-02T13:35:43.909Z</time></trkpt><trkpt lat="42.5771053" lon="11.5281192"><ele>335.0</ele><time>2026-04-02T13:35:44.909Z</time></trkpt><trkpt lat="42.5769299" lon="11.5280578"><ele>335.0</ele><time>2026-04-02T13:35:45.908Z</time></trkpt><trkpt lat="42.5767513" lon="11.5279868"><ele>332.6666666666667</ele><time>2026-04-02T13:35:46.909Z</time></trkpt><trkpt lat="42.5765863" lon="11.5279189"><ele>330.3333333333333</ele><time>2026-04-02T13:35:47.908Z</time></trkpt><trkpt lat="42.5764162" lon="11.5278651"><ele>328.0</ele><time>2026-04-02T13:35:48.911Z</time></trkpt><trkpt lat="42.5762181" lon="11.5278429"><ele>321.3333333333333</ele><time>2026-04-02T13:35:49.909Z</time></trkpt><trkpt lat="42.5759998" lon="11.52785"><ele>314.6666666666667</ele><time>2026-04-02T13:35:50.91Z</time></trkpt><trkpt lat="42.5757709" lon="11.5278701"><ele>308.0</ele><time>2026-04-02T13:35:51.906Z</time></trkpt><trkpt lat="42.5755612" lon="11.5278933"><ele>310.33333333333337</ele><time>2026-04-02T13:35:52.909Z</time></trkpt><trkpt lat="42.575375" lon="11.527906"><ele>312.6666666666667</ele><time>2026-04-02T13:35:53.912Z</time></trkpt><trkpt lat="42.5752124" lon="11.5279136"><ele>315.0</ele><time>2026-04-02T13:35:54.909Z</time></trkpt><trkpt lat="42.5750601" lon="11.5279358"><ele>315.0</ele><time>2026-04-02T13:35:55.911Z</time></trkpt><trkpt lat="42.5749092" lon="11.5279956"><ele>315.0</ele><time>2026-04-02T13:35:56.91Z</time></trkpt><trkpt lat="42.5747649" lon="11.5280997"><ele>315.0</ele><time>2026-04-02T13:35:57.907Z</time></trkpt><trkpt lat="42.5746332" lon="11.5282469"><ele>311.6666666666667</ele><time>2026-04-02T13:35:58.909Z</time></trkpt><trkpt lat="42.5745089" lon="11.5284377"><ele>308.33333333333337</ele><time>2026-04-02T13:35:59.91Z</time></trkpt><trkpt lat="42.574393" lon="11.5286295"><ele>305.0</ele><time>2026-04-02T13:36:00.913Z</time></trkpt><trkpt lat="42.5742791" lon="11.5288184"><ele>305.0</ele><time>2026-04-02T13:36:01.907Z</time></trkpt><trkpt lat="42.5741765" lon="11.5290459"><ele>305.0</ele><time>2026-04-02T13:36:02.907Z</time></trkpt><trkpt lat="42.5740914" lon="11.5293014"><ele>305.0</ele><time>2026-04-02T13:36:03.907Z</time></trkpt><trkpt lat="42.574016" lon="11.5295734"><ele>306.0</ele><time>2026-04-02T13:36:04.908Z</time></trkpt><trkpt lat="42.5739569" lon="11.5298556"><ele>307.0</ele><time>2026-04-02T13:36:05.907Z</time></trkpt><trkpt lat="42.5739082" lon="11.5301512"><ele>308.0</ele><time>2026-04-02T13:36:06.909Z</time></trkpt><trkpt lat="42.5738618" lon="11.5304434"><ele>308.0</ele><time>2026-04-02T13:36:07.909Z</time></trkpt><trkpt lat="42.5738134" lon="11.5307324"><ele>308.0</ele><time>2026-04-02T13:36:08.908Z</time></trkpt><trkpt lat="42.5737619" lon="11.5310081"><ele>308.0</ele><time>2026-04-02T13:36:09.909Z</time></trkpt><trkpt lat="42.5737159" lon="11.5312548"><ele>307.33333333333337</ele><time>2026-04-02T13:36:10.907Z</time></trkpt><trkpt lat="42.5736634" lon="11.5314796"><ele>306.6666666666667</ele><time>2026-04-02T13:36:11.91Z</time></trkpt><trkpt lat="42.5736005" lon="11.531685"><ele>306.0</ele><time>2026-04-02T13:36:12.907Z</time></trkpt><trkpt lat="42.5735174" lon="11.5318632"><ele>306.0</ele><time>2026-04-02T13:36:13.909Z</time></trkpt><trkpt lat="42.5734012" lon="11.5320054"><ele>306.0</ele><time>2026-04-02T13:36:14.911Z</time></trkpt><trkpt lat="42.5732488" lon="11.5320987"><ele>306.0</ele><time>2026-04-02T13:36:15.909Z</time></trkpt><trkpt lat="42.5730672" lon="11.5321557"><ele>305.6666666666667</ele><time>2026-04-02T13:36:16.908Z</time></trkpt><trkpt lat="42.5728596" lon="11.5321946"><ele>305.33333333333337</ele><time>2026-04-02T13:36:17.909Z</time></trkpt><trkpt lat="42.5726372" lon="11.5322386"><ele>305.0</ele><time>2026-04-02T13:36:18.907Z</time></trkpt><trkpt lat="42.572415" lon="11.5322831"><ele>305.0</ele><time>2026-04-02T13:36:19.914Z</time></trkpt><trkpt lat="42.5722088" lon="11.5323225"><ele>305.0</ele><time>2026-04-02T13:36:20.909Z</time></trkpt><trkpt lat="42.5720155" lon="11.5323567"><ele>305.0</ele><time>2026-04-02T13:36:21.908Z</time></trkpt><trkpt lat="42.5718276" lon="11.5323934"><ele>304.0</ele><time>2026-04-02T13:36:22.909Z</time></trkpt><trkpt lat="42.571642" lon="11.5324444"><ele>303.0</ele><time>2026-04-02T13:36:23.907Z</time></trkpt><trkpt lat="42.5714574" lon="11.5325313"><ele>302.0</ele><time>2026-04-02T13:36:24.908Z</time></trkpt><trkpt lat="42.5712729" lon="11.5326573"><ele>300.33333333333337</ele><time>2026-04-02T13:36:25.908Z</time></trkpt><trkpt lat="42.5710942" lon="11.5328088"><ele>298.6666666666667</ele><time>2026-04-02T13:36:26.914Z</time></trkpt><trkpt lat="42.5709275" lon="11.5329528"><ele>297.0</ele><time>2026-04-02T13:36:27.91Z</time></trkpt><trkpt lat="42.5707826" lon="11.5330843"><ele>297.0</ele><time>2026-04-02T13:36:28.91Z</time></trkpt><trkpt lat="42.5706635" lon="11.533237"><ele>297.0</ele><time>2026-04-02T13:36:29.91Z</time></trkpt><trkpt lat="42.5705781" lon="11.5334202"><ele>297.0</ele><time>2026-04-02T13:36:30.912Z</time></trkpt><trkpt lat="42.5705305" lon="11.5336239"><ele>296.3333333333333</ele><time>2026-04-02T13:36:31.909Z</time></trkpt><trkpt lat="42.5705261" lon="11.5338427"><ele>295.66666666666663</ele><time>2026-04-02T13:36:32.911Z</time></trkpt><trkpt lat="42.5705611" lon="11.5340594"><ele>295.0</ele><time>2026-04-02T13:36:33.908Z</time></trkpt><trkpt lat="42.5706315" lon="11.5342771"><ele>295.0</ele><time>2026-04-02T13:36:34.909Z</time></trkpt><trkpt lat="42.5707297" lon="11.5344722"><ele>295.0</ele><time>2026-04-02T13:36:35.912Z</time></trkpt><trkpt lat="42.5708486" lon="11.5346486"><ele>295.0</ele><time>2026-04-02T13:36:36.906Z</time></trkpt><trkpt lat="42.5709825" lon="11.5347829"><ele>294.25</ele><time>2026-04-02T13:36:37.908Z</time></trkpt><trkpt lat="42.5711163" lon="11.53489"><ele>293.5</ele><time>2026-04-02T13:36:38.907Z</time></trkpt><trkpt lat="42.571247" lon="11.534983"><ele>292.75</ele><time>2026-04-02T13:36:39.908Z</time></trkpt><trkpt lat="42.5713507" lon="11.5350698"><ele>292.0</ele><time>2026-04-02T13:36:40.911Z</time></trkpt><trkpt lat="42.5714297" lon="11.535151"><ele>292.3333333333333</ele><time>2026-04-02T13:36:41.909Z</time></trkpt><trkpt lat="42.571491" lon="11.5352382"><ele>292.66666666666663</ele><time>2026-04-02T13:36:42.907Z</time></trkpt><trkpt lat="42.5715202" lon="11.5353377"><ele>293.0</ele><time>2026-04-02T13:36:43.909Z</time></trkpt><trkpt lat="42.5715185" lon="11.5354455"><ele>293.3333333333333</ele><time>2026-04-02T13:36:44.912Z</time></trkpt><trkpt lat="42.5714896" lon="11.5355582"><ele>293.6666666666667</ele><time>2026-04-02T13:36:45.907Z</time></trkpt><trkpt lat="42.5714246" lon="11.5356597"><ele>294.0</ele><time>2026-04-02T13:36:46.91Z</time></trkpt><trkpt lat="42.5713427" lon="11.5357238"><ele>294.0</ele><time>2026-04-02T13:36:47.91Z</time></trkpt><trkpt lat="42.5712525" lon="11.5357342"><ele>294.0</ele><time>2026-04-02T13:36:48.909Z</time></trkpt><trkpt lat="42.5711564" lon="11.5356969"><ele>294.0</ele><time>2026-04-02T13:36:49.906Z</time></trkpt><trkpt lat="42.5710513" lon="11.5356136"><ele>294.0</ele><time>2026-04-02T13:36:50.913Z</time></trkpt><trkpt lat="42.5709316" lon="11.5354977"><ele>293.3333333333333</ele><time>2026-04-02T13:36:51.911Z</time></trkpt><trkpt lat="42.5707989" lon="11.5353648"><ele>292.66666666666663</ele><time>2026-04-02T13:36:52.911Z</time></trkpt><trkpt lat="42.570652" lon="11.5352157"><ele>292.0</ele><time>2026-04-02T13:36:53.914Z</time></trkpt><trkpt lat="42.5704901" lon="11.5350511"><ele>289.3333333333333</ele><time>2026-04-02T13:36:54.907Z</time></trkpt><trkpt lat="42.5703285" lon="11.5348853"><ele>286.6666666666667</ele><time>2026-04-02T13:36:55.908Z</time></trkpt><trkpt lat="42.570175" lon="11.5347319"><ele>284.0</ele><time>2026-04-02T13:36:56.91Z</time></trkpt><trkpt lat="42.5700291" lon="11.5345939"><ele>284.33333333333337</ele><time>2026-04-02T13:36:57.907Z</time></trkpt><trkpt lat="42.5698933" lon="11.5344295"><ele>284.6666666666667</ele><time>2026-04-02T13:36:58.908Z</time></trkpt><trkpt lat="42.5697775" lon="11.5342292"><ele>285.0</ele><time>2026-04-02T13:36:59.909Z</time></trkpt><trkpt lat="42.5696804" lon="11.5340005"><ele>285.0</ele><time>2026-04-02T13:37:00.91Z</time></trkpt><trkpt lat="42.569586" lon="11.5337663"><ele>285.0</ele><time>2026-04-02T13:37:01.911Z</time></trkpt><trkpt lat="42.5695113" lon="11.5335246"><ele>285.0</ele><time>2026-04-02T13:37:02.911Z</time></trkpt><trkpt lat="42.5694313" lon="11.5332952"><ele>280.6666666666667</ele><time>2026-04-02T13:37:03.91Z</time></trkpt><trkpt lat="42.5693572" lon="11.5330736"><ele>276.33333333333337</ele><time>2026-04-02T13:37:04.909Z</time></trkpt><trkpt lat="42.5692842" lon="11.5328703"><ele>272.0</ele><time>2026-04-02T13:37:05.91Z</time></trkpt><trkpt lat="42.5692194" lon="11.5326852"><ele>272.0</ele><time>2026-04-02T13:37:06.915Z</time></trkpt><trkpt lat="42.5691453" lon="11.5325097"><ele>272.0</ele><time>2026-04-02T13:37:07.913Z</time></trkpt><trkpt lat="42.5690352" lon="11.5323572"><ele>272.0</ele><time>2026-04-02T13:37:08.908Z</time></trkpt><trkpt lat="42.5689002" lon="11.5322273"><ele>272.0</ele><time>2026-04-02T13:37:09.909Z</time></trkpt><trkpt lat="42.5687357" lon="11.5321381"><ele>272.0</ele><time>2026-04-02T13:37:10.908Z</time></trkpt><trkpt lat="42.5685433" lon="11.5320781"><ele>272.0</ele><time>2026-04-02T13:37:11.912Z</time></trkpt><trkpt lat="42.5683332" lon="11.5320327"><ele>271.5</ele><time>2026-04-02T13:37:12.907Z</time></trkpt><trkpt lat="42.5681168" lon="11.5319853"><ele>271.0</ele><time>2026-04-02T13:37:13.908Z</time></trkpt><trkpt lat="42.5678885" lon="11.5319338"><ele>268.0</ele><time>2026-04-02T13:37:14.911Z</time></trkpt><trkpt lat="42.5676542" lon="11.5318849"><ele>265.0</ele><time>2026-04-02T13:37:15.91Z</time></trkpt><trkpt lat="42.5674234" lon="11.5318426"><ele>265.0</ele><time>2026-04-02T13:37:16.906Z</time></trkpt><trkpt lat="42.567202" lon="11.5317955"><ele>265.0</ele><time>2026-04-02T13:37:17.907Z</time></trkpt><trkpt lat="42.5669919" lon="11.5317467"><ele>265.0</ele><time>2026-04-02T13:37:18.912Z</time></trkpt><trkpt lat="42.5667938" lon="11.5317021"><ele>263.0</ele><time>2026-04-02T13:37:19.91Z</time></trkpt><trkpt lat="42.5666037" lon="11.5316566"><ele>261.0</ele><time>2026-04-02T13:37:20.91Z</time></trkpt><trkpt lat="42.5664226" lon="11.5316151"><ele>259.0</ele><time>2026-04-02T13:37:21.908Z</time></trkpt><trkpt lat="42.5662541" lon="11.5315432"><ele>257.3333333333333</ele><time>2026-04-02T13:37:22.914Z</time></trkpt><trkpt lat="42.5660987" lon="11.5314261"><ele>255.66666666666669</ele><time>2026-04-02T13:37:23.911Z</time></trkpt><trkpt lat="42.5659541" lon="11.5312671"><ele>254.0</ele><time>2026-04-02T13:37:24.912Z</time></trkpt><trkpt lat="42.5658296" lon="11.5310514"><ele>254.0</ele><time>2026-04-02T13:37:25.914Z</time></trkpt><trkpt lat="42.56572" lon="11.5308048"><ele>254.0</ele><time>2026-04-02T13:37:26.917Z</time></trkpt><trkpt lat="42.5656088" lon="11.5305312"><ele>254.0</ele><time>2026-04-02T13:37:27.915Z</time></trkpt><trkpt lat="42.5654864" lon="11.5302453"><ele>249.0</ele><time>2026-04-02T13:37:28.909Z</time></trkpt><trkpt lat="42.5653572" lon="11.529942"><ele>244.0</ele><time>2026-04-02T13:37:29.91Z</time></trkpt><trkpt lat="42.5652206" lon="11.5296279"><ele>245.0</ele><time>2026-04-02T13:37:30.913Z</time></trkpt><trkpt lat="42.5650843" lon="11.5293077"><ele>246.0</ele><time>2026-04-02T13:37:31.909Z</time></trkpt><trkpt lat="42.5649452" lon="11.5289809"><ele>245.5</ele><time>2026-04-02T13:37:32.906Z</time></trkpt><trkpt lat="42.5648032" lon="11.5286518"><ele>245.0</ele><time>2026-04-02T13:37:33.909Z</time></trkpt><trkpt lat="42.5646664" lon="11.528326"><ele>245.0</ele><time>2026-04-02T13:37:34.909Z</time></trkpt><trkpt lat="42.5645394" lon="11.5280192"><ele>245.0</ele><time>2026-04-02T13:37:35.91Z</time></trkpt><trkpt lat="42.5644248" lon="11.5277345"><ele>243.0</ele><time>2026-04-02T13:37:36.908Z</time></trkpt><trkpt lat="42.5643127" lon="11.5274635"><ele>241.0</ele><time>2026-04-02T13:37:37.909Z</time></trkpt><trkpt lat="42.564209" lon="11.5272166"><ele>239.0</ele><time>2026-04-02T13:37:38.91Z</time></trkpt><trkpt lat="42.5641057" lon="11.5269845"><ele>239.0</ele><time>2026-04-02T13:37:39.907Z</time></trkpt><trkpt lat="42.5639921" lon="11.5267679"><ele>239.0</ele><time>2026-04-02T13:37:40.909Z</time></trkpt><trkpt lat="42.5638607" lon="11.5265696"><ele>239.0</ele><time>2026-04-02T13:37:41.908Z</time></trkpt><trkpt lat="42.5637041" lon="11.5263926"><ele>239.33333333333334</ele><time>2026-04-02T13:37:42.909Z</time></trkpt><trkpt lat="42.5635223" lon="11.5262522"><ele>239.66666666666669</ele><time>2026-04-02T13:37:43.909Z</time></trkpt><trkpt lat="42.5633207" lon="11.5261514"><ele>240.0</ele><time>2026-04-02T13:37:44.908Z</time></trkpt><trkpt lat="42.5631016" lon="11.5260829"><ele>243.5</ele><time>2026-04-02T13:37:45.91Z</time></trkpt><trkpt lat="42.5628742" lon="11.5260301"><ele>247.0</ele><time>2026-04-02T13:37:46.908Z</time></trkpt><trkpt lat="42.5626458" lon="11.5259734"><ele>247.0</ele><time>2026-04-02T13:37:47.909Z</time></trkpt><trkpt lat="42.5624324" lon="11.5259255"><ele>247.0</ele><time>2026-04-02T13:37:48.907Z</time></trkpt><trkpt lat="42.5622143" lon="11.5258655"><ele>247.0</ele><time>2026-04-02T13:37:49.908Z</time></trkpt><trkpt lat="42.5619953" lon="11.5257904"><ele>247.0</ele><time>2026-04-02T13:37:50.908Z</time></trkpt><trkpt lat="42.5617832" lon="11.525689"><ele>247.0</ele><time>2026-04-02T13:37:51.909Z</time></trkpt><trkpt lat="42.5615714" lon="11.525562"><ele>247.0</ele><time>2026-04-02T13:37:52.909Z</time></trkpt><trkpt lat="42.5613606" lon="11.5254194"><ele>247.0</ele><time>2026-04-02T13:37:53.914Z</time></trkpt><trkpt lat="42.5611565" lon="11.5252495"><ele>246.0</ele><time>2026-04-02T13:37:54.908Z</time></trkpt><trkpt lat="42.5609562" lon="11.5250573"><ele>245.0</ele><time>2026-04-02T13:37:55.907Z</time></trkpt><trkpt lat="42.5607643" lon="11.524851"><ele>245.0</ele><time>2026-04-02T13:37:56.909Z</time></trkpt><trkpt lat="42.5605668" lon="11.5246541"><ele>245.0</ele><time>2026-04-02T13:37:57.909Z</time></trkpt><trkpt lat="42.5603545" lon="11.5244689"><ele>244.0</ele><time>2026-04-02T13:37:58.91Z</time></trkpt><trkpt lat="42.5601341" lon="11.5242976"><ele>243.0</ele><time>2026-04-02T13:37:59.908Z</time></trkpt><trkpt lat="42.5599036" lon="11.5241442"><ele>243.0</ele><time>2026-04-02T13:38:00.907Z</time></trkpt><trkpt lat="42.5596652" lon="11.524006"><ele>243.0</ele><time>2026-04-02T13:38:01.908Z</time></trkpt><trkpt lat="42.5594237" lon="11.5238649"><ele>240.5</ele><time>2026-04-02T13:38:02.911Z</time></trkpt><trkpt lat="42.5591846" lon="11.5237212"><ele>238.0</ele><time>2026-04-02T13:38:03.908Z</time></trkpt><trkpt lat="42.5589476" lon="11.5235751"><ele>238.0</ele><time>2026-04-02T13:38:04.908Z</time></trkpt><trkpt lat="42.5587164" lon="11.5234321"><ele>238.0</ele><time>2026-04-02T13:38:05.908Z</time></trkpt><trkpt lat="42.5584911" lon="11.5232925"><ele>236.0</ele><time>2026-04-02T13:38:06.909Z</time></trkpt><trkpt lat="42.5582666" lon="11.5231617"><ele>234.0</ele><time>2026-04-02T13:38:07.909Z</time></trkpt><trkpt lat="42.5580487" lon="11.5230311"><ele>233.5</ele><time>2026-04-02T13:38:08.908Z</time></trkpt><trkpt lat="42.5578438" lon="11.5229075"><ele>233.0</ele><time>2026-04-02T13:38:09.909Z</time></trkpt><trkpt lat="42.557444" lon="11.5226714"><ele>233.0</ele><time>2026-04-02T13:38:11.915Z</time></trkpt><trkpt lat="42.5572255" lon="11.5225787"><ele>233.0</ele><time>2026-04-02T13:38:12.909Z</time></trkpt><trkpt lat="42.5570004" lon="11.5225092"><ele>234.0</ele><time>2026-04-02T13:38:13.909Z</time></trkpt><trkpt lat="42.5567599" lon="11.5224605"><ele>235.0</ele><time>2026-04-02T13:38:14.908Z</time></trkpt><trkpt lat="42.5565055" lon="11.5224177"><ele>235.0</ele><time>2026-04-02T13:38:15.909Z</time></trkpt><trkpt lat="42.5562432" lon="11.5223804"><ele>235.0</ele><time>2026-04-02T13:38:16.907Z</time></trkpt><trkpt lat="42.5559785" lon="11.5223383"><ele>234.0</ele><time>2026-04-02T13:38:17.908Z</time></trkpt><trkpt lat="42.5557096" lon="11.5222988"><ele>233.0</ele><time>2026-04-02T13:38:18.91Z</time></trkpt><trkpt lat="42.5554386" lon="11.5222562"><ele>232.0</ele><time>2026-04-02T13:38:19.909Z</time></trkpt><trkpt lat="42.5551651" lon="11.5222129"><ele>231.0</ele><time>2026-04-02T13:38:20.909Z</time></trkpt><trkpt lat="42.5548895" lon="11.5221707"><ele>231.0</ele><time>2026-04-02T13:38:21.91Z</time></trkpt><trkpt lat="42.5546152" lon="11.5221279"><ele>231.0</ele><time>2026-04-02T13:38:22.923Z</time></trkpt><trkpt lat="42.5543363" lon="11.5220824"><ele>230.0</ele><time>2026-04-02T13:38:23.91Z</time></trkpt><trkpt lat="42.5540567" lon="11.5220359"><ele>229.0</ele><time>2026-04-02T13:38:24.91Z</time></trkpt><trkpt lat="42.5537794" lon="11.5219906"><ele>228.5</ele><time>2026-04-02T13:38:25.91Z</time></trkpt><trkpt lat="42.5535046" lon="11.5219432"><ele>228.0</ele><time>2026-04-02T13:38:26.908Z</time></trkpt><trkpt lat="42.5532276" lon="11.5218981"><ele>228.0</ele><time>2026-04-02T13:38:27.907Z</time></trkpt><trkpt lat="42.5529518" lon="11.5218494"><ele>228.0</ele><time>2026-04-02T13:38:28.908Z</time></trkpt><trkpt lat="42.552679" lon="11.5217964"><ele>228.5</ele><time>2026-04-02T13:38:29.907Z</time></trkpt><trkpt lat="42.5524198" lon="11.5217507"><ele>229.0</ele><time>2026-04-02T13:38:30.908Z</time></trkpt><trkpt lat="42.5521719" lon="11.5217047"><ele>229.0</ele><time>2026-04-02T13:38:31.91Z</time></trkpt><trkpt lat="42.5519468" lon="11.5216652"><ele>229.0</ele><time>2026-04-02T13:38:32.911Z</time></trkpt><trkpt lat="42.5517511" lon="11.521635"><ele>229.0</ele><time>2026-04-02T13:38:33.909Z</time></trkpt><trkpt lat="42.5515688" lon="11.5216268"><ele>229.0</ele><time>2026-04-02T13:38:34.909Z</time></trkpt><trkpt lat="42.5513925" lon="11.5216561"><ele>229.0</ele><time>2026-04-02T13:38:35.909Z</time></trkpt><trkpt lat="42.5512264" lon="11.5217419"><ele>229.0</ele><time>2026-04-02T13:38:36.908Z</time></trkpt><trkpt lat="42.5510745" lon="11.5218792"><ele>229.0</ele><time>2026-04-02T13:38:37.908Z</time></trkpt><trkpt lat="42.5509411" lon="11.5220649"><ele>229.0</ele><time>2026-04-02T13:38:38.909Z</time></trkpt><trkpt lat="42.5508239" lon="11.5222925"><ele>229.0</ele><time>2026-04-02T13:38:39.909Z</time></trkpt><trkpt lat="42.5507164" lon="11.5225487"><ele>224.0</ele><time>2026-04-02T13:38:40.909Z</time></trkpt><trkpt lat="42.5504926" lon="11.5231039"><ele>224.0</ele><time>2026-04-02T13:38:42.909Z</time></trkpt><trkpt lat="42.5503787" lon="11.5233898"><ele>224.0</ele><time>2026-04-02T13:38:43.909Z</time></trkpt><trkpt lat="42.5502677" lon="11.5236565"><ele>223.66666666666669</ele><time>2026-04-02T13:38:44.909Z</time></trkpt><trkpt lat="42.5501604" lon="11.5239109"><ele>223.33333333333331</ele><time>2026-04-02T13:38:45.909Z</time></trkpt><trkpt lat="42.5500639" lon="11.5241461"><ele>223.0</ele><time>2026-04-02T13:38:46.909Z</time></trkpt><trkpt lat="42.5499768" lon="11.5243688"><ele>222.33333333333331</ele><time>2026-04-02T13:38:47.917Z</time></trkpt><trkpt lat="42.5498881" lon="11.5245753"><ele>221.66666666666669</ele><time>2026-04-02T13:38:48.908Z</time></trkpt><trkpt lat="42.5497847" lon="11.5247513"><ele>221.0</ele><time>2026-04-02T13:38:49.91Z</time></trkpt><trkpt lat="42.5496566" lon="11.5249055"><ele>221.0</ele><time>2026-04-02T13:38:50.908Z</time></trkpt><trkpt lat="42.549503" lon="11.5250269"><ele>221.0</ele><time>2026-04-02T13:38:51.911Z</time></trkpt><trkpt lat="42.5493227" lon="11.5251074"><ele>221.0</ele><time>2026-04-02T13:38:52.907Z</time></trkpt><trkpt lat="42.5491259" lon="11.5251498"><ele>221.0</ele><time>2026-04-02T13:38:53.907Z</time></trkpt><trkpt lat="42.5489099" lon="11.5251789"><ele>221.0</ele><time>2026-04-02T13:38:54.922Z</time></trkpt><trkpt lat="42.5486843" lon="11.5252053"><ele>221.0</ele><time>2026-04-02T13:38:55.91Z</time></trkpt><trkpt lat="42.5484516" lon="11.5252356"><ele>220.0</ele><time>2026-04-02T13:38:56.907Z</time></trkpt><trkpt lat="42.5482091" lon="11.525262"><ele>219.0</ele><time>2026-04-02T13:38:57.913Z</time></trkpt><trkpt lat="42.5479648" lon="11.5252891"><ele>221.5</ele><time>2026-04-02T13:38:58.908Z</time></trkpt><trkpt lat="42.5477212" lon="11.5253132"><ele>224.0</ele><time>2026-04-02T13:38:59.907Z</time></trkpt><trkpt lat="42.5474806" lon="11.5253357"><ele>224.0</ele><time>2026-04-02T13:39:00.909Z</time></trkpt><trkpt lat="42.5472435" lon="11.5253624"><ele>224.0</ele><time>2026-04-02T13:39:01.908Z</time></trkpt><trkpt lat="42.5470072" lon="11.5253925"><ele>227.33333333333334</ele><time>2026-04-02T13:39:02.908Z</time></trkpt><trkpt lat="42.5467733" lon="11.5254211"><ele>230.66666666666669</ele><time>2026-04-02T13:39:03.908Z</time></trkpt><trkpt lat="42.5465594" lon="11.5254438"><ele>234.0</ele><time>2026-04-02T13:39:04.908Z</time></trkpt><trkpt lat="42.5463525" lon="11.5254705"><ele>235.66666666666669</ele><time>2026-04-02T13:39:05.91Z</time></trkpt><trkpt lat="42.5461476" lon="11.5255066"><ele>237.33333333333334</ele><time>2026-04-02T13:39:06.909Z</time></trkpt><trkpt lat="42.5459409" lon="11.525585"><ele>239.0</ele><time>2026-04-02T13:39:07.911Z</time></trkpt><trkpt lat="42.545733" lon="11.5257021"><ele>239.0</ele><time>2026-04-02T13:39:08.908Z</time></trkpt><trkpt lat="42.5455274" lon="11.5258472"><ele>239.0</ele><time>2026-04-02T13:39:09.909Z</time></trkpt><trkpt lat="42.5453142" lon="11.5260087"><ele>239.0</ele><time>2026-04-02T13:39:10.909Z</time></trkpt><trkpt lat="42.5451093" lon="11.5261653"><ele>239.0</ele><time>2026-04-02T13:39:11.913Z</time></trkpt><trkpt lat="42.5449177" lon="11.5263119"><ele>239.33333333333334</ele><time>2026-04-02T13:39:12.912Z</time></trkpt><trkpt lat="42.5447253" lon="11.5264413"><ele>239.66666666666669</ele><time>2026-04-02T13:39:13.91Z</time></trkpt><trkpt lat="42.5445173" lon="11.5265414"><ele>240.0</ele><time>2026-04-02T13:39:14.908Z</time></trkpt><trkpt lat="42.5442964" lon="11.5266197"><ele>242.5</ele><time>2026-04-02T13:39:15.91Z</time></trkpt><trkpt lat="42.5440614" lon="11.5266822"><ele>245.0</ele><time>2026-04-02T13:39:16.909Z</time></trkpt><trkpt lat="42.5438202" lon="11.5267301"><ele>246.0</ele><time>2026-04-02T13:39:17.909Z</time></trkpt><trkpt lat="42.5435945" lon="11.5267793"><ele>247.0</ele><time>2026-04-02T13:39:18.913Z</time></trkpt><trkpt lat="42.5433791" lon="11.5268234"><ele>248.0</ele><time>2026-04-02T13:39:19.911Z</time></trkpt><trkpt lat="42.5431641" lon="11.5268641"><ele>248.0</ele><time>2026-04-02T13:39:20.91Z</time></trkpt><trkpt lat="42.5429407" lon="11.5269071"><ele>248.0</ele><time>2026-04-02T13:39:21.909Z</time></trkpt><trkpt lat="42.5427202" lon="11.5269548"><ele>248.0</ele><time>2026-04-02T13:39:22.909Z</time></trkpt><trkpt lat="42.5422686" lon="11.527071"><ele>248.0</ele><time>2026-04-02T13:39:24.91Z</time></trkpt><trkpt lat="42.542034" lon="11.5271553"><ele>248.0</ele><time>2026-04-02T13:39:25.906Z</time></trkpt><trkpt lat="42.5417946" lon="11.5272533"><ele>248.0</ele><time>2026-04-02T13:39:26.909Z</time></trkpt><trkpt lat="42.5415524" lon="11.5273565"><ele>248.0</ele><time>2026-04-02T13:39:27.909Z</time></trkpt><trkpt lat="42.5413248" lon="11.5274539"><ele>247.0</ele><time>2026-04-02T13:39:28.909Z</time></trkpt><trkpt lat="42.5411107" lon="11.5275467"><ele>246.0</ele><time>2026-04-02T13:39:29.908Z</time></trkpt><trkpt lat="42.5409119" lon="11.5276319"><ele>245.0</ele><time>2026-04-02T13:39:30.909Z</time></trkpt><trkpt lat="42.5407343" lon="11.5277027"><ele>245.0</ele><time>2026-04-02T13:39:31.908Z</time></trkpt><trkpt lat="42.5405626" lon="11.5277428"><ele>245.0</ele><time>2026-04-02T13:39:32.911Z</time></trkpt><trkpt lat="42.5403851" lon="11.5277383"><ele>245.0</ele><time>2026-04-02T13:39:33.909Z</time></trkpt><trkpt lat="42.5400421" lon="11.5275813"><ele>244.0</ele><time>2026-04-02T13:39:35.912Z</time></trkpt><trkpt lat="42.5398965" lon="11.5274239"><ele>243.0</ele><time>2026-04-02T13:39:36.909Z</time></trkpt><trkpt lat="42.5397497" lon="11.5272314"><ele>242.0</ele><time>2026-04-02T13:39:37.909Z</time></trkpt><trkpt lat="42.5395797" lon="11.5270291"><ele>242.0</ele><time>2026-04-02T13:39:38.909Z</time></trkpt><trkpt lat="42.539399" lon="11.5268137"><ele>242.0</ele><time>2026-04-02T13:39:39.91Z</time></trkpt><trkpt lat="42.539211" lon="11.5265783"><ele>242.0</ele><time>2026-04-02T13:39:40.909Z</time></trkpt><trkpt lat="42.5390202" lon="11.5263367"><ele>242.0</ele><time>2026-04-02T13:39:41.907Z</time></trkpt><trkpt lat="42.5388149" lon="11.5260821"><ele>240.5</ele><time>2026-04-02T13:39:42.909Z</time></trkpt><trkpt lat="42.5386067" lon="11.5258166"><ele>239.0</ele><time>2026-04-02T13:39:43.907Z</time></trkpt><trkpt lat="42.5383882" lon="11.5255466"><ele>238.0</ele><time>2026-04-02T13:39:44.909Z</time></trkpt><trkpt lat="42.5381677" lon="11.5252697"><ele>237.0</ele><time>2026-04-02T13:39:45.907Z</time></trkpt><trkpt lat="42.5379419" lon="11.5249883"><ele>238.5</ele><time>2026-04-02T13:39:46.908Z</time></trkpt><trkpt lat="42.5377243" lon="11.5247222"><ele>240.0</ele><time>2026-04-02T13:39:47.913Z</time></trkpt><trkpt lat="42.5375228" lon="11.5244717"><ele>240.0</ele><time>2026-04-02T13:39:48.907Z</time></trkpt><trkpt lat="42.5373336" lon="11.5242361"><ele>240.0</ele><time>2026-04-02T13:39:49.909Z</time></trkpt><trkpt lat="42.5371543" lon="11.5240044"><ele>241.33333333333331</ele><time>2026-04-02T13:39:50.907Z</time></trkpt><trkpt lat="42.5369844" lon="11.5237904"><ele>242.66666666666666</ele><time>2026-04-02T13:39:51.906Z</time></trkpt><trkpt lat="42.5368255" lon="11.5235941"><ele>244.0</ele><time>2026-04-02T13:39:52.909Z</time></trkpt><trkpt lat="42.5366573" lon="11.5234069"><ele>245.0</ele><time>2026-04-02T13:39:53.908Z</time></trkpt><trkpt lat="42.5364754" lon="11.5232395"><ele>246.0</ele><time>2026-04-02T13:39:54.909Z</time></trkpt><trkpt lat="42.5360447" lon="11.5230031"><ele>247.5</ele><time>2026-04-02T13:39:56.909Z</time></trkpt><trkpt lat="42.535805" lon="11.5229285"><ele>249.0</ele><time>2026-04-02T13:39:57.912Z</time></trkpt><trkpt lat="42.5355549" lon="11.5228639"><ele>250.5</ele><time>2026-04-02T13:39:58.909Z</time></trkpt><trkpt lat="42.535297" lon="11.5228013"><ele>252.0</ele><time>2026-04-02T13:39:59.91Z</time></trkpt><trkpt lat="42.5350391" lon="11.5227408"><ele>252.0</ele><time>2026-04-02T13:40:00.909Z</time></trkpt><trkpt lat="42.5347763" lon="11.5226767"><ele>252.0</ele><time>2026-04-02T13:40:01.909Z</time></trkpt><trkpt lat="42.5345113" lon="11.5226117"><ele>254.0</ele><time>2026-04-02T13:40:02.91Z</time></trkpt><trkpt lat="42.534251" lon="11.5225278"><ele>256.0</ele><time>2026-04-02T13:40:03.909Z</time></trkpt><trkpt lat="42.5339885" lon="11.5224173"><ele>256.0</ele><time>2026-04-02T13:40:04.91Z</time></trkpt><trkpt lat="42.5337265" lon="11.5222926"><ele>256.0</ele><time>2026-04-02T13:40:05.91Z</time></trkpt><trkpt lat="42.53346" lon="11.5221573"><ele>260.0</ele><time>2026-04-02T13:40:06.907Z</time></trkpt><trkpt lat="42.533193" lon="11.5220226"><ele>264.0</ele><time>2026-04-02T13:40:07.91Z</time></trkpt><trkpt lat="42.5329258" lon="11.5218875"><ele>265.5</ele><time>2026-04-02T13:40:08.91Z</time></trkpt><trkpt lat="42.532661" lon="11.5217541"><ele>267.0</ele><time>2026-04-02T13:40:09.913Z</time></trkpt><trkpt lat="42.5323961" lon="11.5216196"><ele>267.0</ele><time>2026-04-02T13:40:10.913Z</time></trkpt><trkpt lat="42.532129" lon="11.5214872"><ele>267.0</ele><time>2026-04-02T13:40:11.914Z</time></trkpt><trkpt lat="42.5318679" lon="11.5213563"><ele>269.5</ele><time>2026-04-02T13:40:12.909Z</time></trkpt><trkpt lat="42.531621" lon="11.5212349"><ele>272.0</ele><time>2026-04-02T13:40:13.907Z</time></trkpt><trkpt lat="42.5313849" lon="11.5211166"><ele>271.5</ele><time>2026-04-02T13:40:14.914Z</time></trkpt><trkpt lat="42.5311548" lon="11.5209957"><ele>271.0</ele><time>2026-04-02T13:40:15.914Z</time></trkpt><trkpt lat="42.530708" lon="11.5207707"><ele>271.0</ele><time>2026-04-02T13:40:17.909Z</time></trkpt><trkpt lat="42.5304866" lon="11.520656"><ele>271.0</ele><time>2026-04-02T13:40:18.908Z</time></trkpt><trkpt lat="42.530265" lon="11.5205472"><ele>272.0</ele><time>2026-04-02T13:40:19.909Z</time></trkpt><trkpt lat="42.5300472" lon="11.5204372"><ele>273.0</ele><time>2026-04-02T13:40:20.909Z</time></trkpt><trkpt lat="42.5298441" lon="11.5203139"><ele>273.0</ele><time>2026-04-02T13:40:21.906Z</time></trkpt><trkpt lat="42.5296424" lon="11.5201604"><ele>273.0</ele><time>2026-04-02T13:40:22.909Z</time></trkpt><trkpt lat="42.5294487" lon="11.5199765"><ele>271.0</ele><time>2026-04-02T13:40:23.916Z</time></trkpt><trkpt lat="42.5292659" lon="11.5197432"><ele>269.0</ele><time>2026-04-02T13:40:24.908Z</time></trkpt><trkpt lat="42.529091" lon="11.5194789"><ele>267.0</ele><time>2026-04-02T13:40:25.91Z</time></trkpt><trkpt lat="42.5289059" lon="11.5191967"><ele>265.0</ele><time>2026-04-02T13:40:26.918Z</time></trkpt><trkpt lat="42.5287201" lon="11.5189061"><ele>257.0</ele><time>2026-04-02T13:40:27.911Z</time></trkpt><trkpt lat="42.5285136" lon="11.51861"><ele>249.0</ele><time>2026-04-02T13:40:28.909Z</time></trkpt><trkpt lat="42.5283041" lon="11.5183133"><ele>249.0</ele><time>2026-04-02T13:40:29.91Z</time></trkpt><trkpt lat="42.5280912" lon="11.5180291"><ele>249.0</ele><time>2026-04-02T13:40:30.909Z</time></trkpt><trkpt lat="42.5278931" lon="11.5177565"><ele>244.0</ele><time>2026-04-02T13:40:31.907Z</time></trkpt><trkpt lat="42.5277038" lon="11.5174985"><ele>239.0</ele><time>2026-04-02T13:40:32.909Z</time></trkpt><trkpt lat="42.5275198" lon="11.5172491"><ele>242.0</ele><time>2026-04-02T13:40:33.908Z</time></trkpt><trkpt lat="42.5273467" lon="11.5170136"><ele>245.0</ele><time>2026-04-02T13:40:34.91Z</time></trkpt><trkpt lat="42.5271802" lon="11.5167907"><ele>242.5</ele><time>2026-04-02T13:40:35.908Z</time></trkpt><trkpt lat="42.5270277" lon="11.5165788"><ele>240.0</ele><time>2026-04-02T13:40:36.909Z</time></trkpt><trkpt lat="42.5267527" lon="11.5161593"><ele>237.66666666666669</ele><time>2026-04-02T13:40:38.91Z</time></trkpt><trkpt lat="42.5266388" lon="11.5159212"><ele>235.33333333333334</ele><time>2026-04-02T13:40:39.909Z</time></trkpt><trkpt lat="42.526549" lon="11.5156521"><ele>233.0</ele><time>2026-04-02T13:40:40.909Z</time></trkpt><trkpt lat="42.5264847" lon="11.515365"><ele>232.0</ele><time>2026-04-02T13:40:41.91Z</time></trkpt><trkpt lat="42.5264336" lon="11.5150673"><ele>231.0</ele><time>2026-04-02T13:40:42.909Z</time></trkpt><trkpt lat="42.5263806" lon="11.5147675"><ele>230.33333333333331</ele><time>2026-04-02T13:40:43.91Z</time></trkpt><trkpt lat="42.5263258" lon="11.5144871"><ele>229.66666666666666</ele><time>2026-04-02T13:40:44.908Z</time></trkpt><trkpt lat="42.5262614" lon="11.5142269"><ele>229.0</ele><time>2026-04-02T13:40:45.909Z</time></trkpt><trkpt lat="42.5261719" lon="11.5140052"><ele>232.33333333333331</ele><time>2026-04-02T13:40:46.908Z</time></trkpt><trkpt lat="42.5260537" lon="11.5138172"><ele>235.66666666666669</ele><time>2026-04-02T13:40:47.908Z</time></trkpt><trkpt lat="42.5259041" lon="11.5136786"><ele>239.0</ele><time>2026-04-02T13:40:48.908Z</time></trkpt><trkpt lat="42.525727" lon="11.5135682"><ele>239.0</ele><time>2026-04-02T13:40:49.91Z</time></trkpt><trkpt lat="42.525532" lon="11.5134932"><ele>239.0</ele><time>2026-04-02T13:40:50.91Z</time></trkpt><trkpt lat="42.5253134" lon="11.5134395"><ele>239.0</ele><time>2026-04-02T13:40:51.91Z</time></trkpt><trkpt lat="42.5250777" lon="11.5133917"><ele>243.0</ele><time>2026-04-02T13:40:52.91Z</time></trkpt><trkpt lat="42.5248419" lon="11.513346"><ele>247.0</ele><time>2026-04-02T13:40:53.908Z</time></trkpt><trkpt lat="42.5246109" lon="11.5132979"><ele>244.5</ele><time>2026-04-02T13:40:54.908Z</time></trkpt><trkpt lat="42.5243864" lon="11.5132566"><ele>242.0</ele><time>2026-04-02T13:40:55.908Z</time></trkpt><trkpt lat="42.524162" lon="11.5132169"><ele>242.0</ele><time>2026-04-02T13:40:56.907Z</time></trkpt><trkpt lat="42.5239291" lon="11.5131601"><ele>242.0</ele><time>2026-04-02T13:40:57.907Z</time></trkpt><trkpt lat="42.5236967" lon="11.5130714"><ele>237.5</ele><time>2026-04-02T13:40:58.92Z</time></trkpt><trkpt lat="42.5234661" lon="11.5129508"><ele>233.0</ele><time>2026-04-02T13:40:59.908Z</time></trkpt><trkpt lat="42.5232302" lon="11.5128237"><ele>232.0</ele><time>2026-04-02T13:41:00.909Z</time></trkpt><trkpt lat="42.523001" lon="11.5126989"><ele>231.0</ele><time>2026-04-02T13:41:01.908Z</time></trkpt><trkpt lat="42.5227779" lon="11.5125776"><ele>227.0</ele><time>2026-04-02T13:41:02.911Z</time></trkpt><trkpt lat="42.5225625" lon="11.5124627"><ele>223.0</ele><time>2026-04-02T13:41:03.909Z</time></trkpt><trkpt lat="42.522345" lon="11.5123455"><ele>223.0</ele><time>2026-04-02T13:41:04.92Z</time></trkpt><trkpt lat="42.5221266" lon="11.51223"><ele>223.0</ele><time>2026-04-02T13:41:05.91Z</time></trkpt><trkpt lat="42.5219049" lon="11.5121124"><ele>217.5</ele><time>2026-04-02T13:41:06.912Z</time></trkpt><trkpt lat="42.521671" lon="11.5119939"><ele>212.0</ele><time>2026-04-02T13:41:07.909Z</time></trkpt><trkpt lat="42.5214416" lon="11.5118747"><ele>212.0</ele><time>2026-04-02T13:41:08.91Z</time></trkpt><trkpt lat="42.5212077" lon="11.5117516"><ele>212.0</ele><time>2026-04-02T13:41:09.909Z</time></trkpt><trkpt lat="42.5209691" lon="11.5116254"><ele>212.0</ele><time>2026-04-02T13:41:10.909Z</time></trkpt><trkpt lat="42.5207294" lon="11.5115004"><ele>212.0</ele><time>2026-04-02T13:41:11.909Z</time></trkpt><trkpt lat="42.5204886" lon="11.5113718"><ele>210.5</ele><time>2026-04-02T13:41:12.908Z</time></trkpt><trkpt lat="42.5202438" lon="11.5112434"><ele>209.0</ele><time>2026-04-02T13:41:13.909Z</time></trkpt><trkpt lat="42.5199969" lon="11.5111124"><ele>208.0</ele><time>2026-04-02T13:41:14.909Z</time></trkpt><trkpt lat="42.5197508" lon="11.5109826"><ele>207.0</ele><time>2026-04-02T13:41:15.93Z</time></trkpt><trkpt lat="42.5195014" lon="11.5108492"><ele>201.5</ele><time>2026-04-02T13:41:16.91Z</time></trkpt><trkpt lat="42.5192471" lon="11.5107213"><ele>196.0</ele><time>2026-04-02T13:41:17.909Z</time></trkpt><trkpt lat="42.5189935" lon="11.5105881"><ele>196.0</ele><time>2026-04-02T13:41:18.908Z</time></trkpt><trkpt lat="42.5187346" lon="11.510458"><ele>196.0</ele><time>2026-04-02T13:41:19.909Z</time></trkpt><trkpt lat="42.5184765" lon="11.5103227"><ele>193.0</ele><time>2026-04-02T13:41:20.915Z</time></trkpt><trkpt lat="42.5182246" lon="11.5101909"><ele>190.0</ele><time>2026-04-02T13:41:21.908Z</time></trkpt><trkpt lat="42.5179821" lon="11.5100576"><ele>186.5</ele><time>2026-04-02T13:41:22.91Z</time></trkpt><trkpt lat="42.5177466" lon="11.509927"><ele>183.0</ele><time>2026-04-02T13:41:23.913Z</time></trkpt><trkpt lat="42.5175126" lon="11.5098067"><ele>183.0</ele><time>2026-04-02T13:41:24.913Z</time></trkpt><trkpt lat="42.5172822" lon="11.5096868"><ele>183.0</ele><time>2026-04-02T13:41:25.916Z</time></trkpt><trkpt lat="42.5170579" lon="11.5095714"><ele>175.5</ele><time>2026-04-02T13:41:26.914Z</time></trkpt><trkpt lat="42.516841" lon="11.5094626"><ele>168.0</ele><time>2026-04-02T13:41:27.915Z</time></trkpt><trkpt lat="42.5166311" lon="11.5093664"><ele>168.0</ele><time>2026-04-02T13:41:28.908Z</time></trkpt><trkpt lat="42.5164294" lon="11.5092804"><ele>168.0</ele><time>2026-04-02T13:41:29.909Z</time></trkpt><trkpt lat="42.5162384" lon="11.5092041"><ele>168.0</ele><time>2026-04-02T13:41:30.907Z</time></trkpt><trkpt lat="42.5160461" lon="11.5091473"><ele>166.33333333333334</ele><time>2026-04-02T13:41:31.908Z</time></trkpt><trkpt lat="42.5158546" lon="11.5091345"><ele>164.66666666666669</ele><time>2026-04-02T13:41:32.909Z</time></trkpt><trkpt lat="42.5156669" lon="11.5091724"><ele>163.0</ele><time>2026-04-02T13:41:33.909Z</time></trkpt><trkpt lat="42.5154699" lon="11.5092606"><ele>163.5</ele><time>2026-04-02T13:41:34.908Z</time></trkpt><trkpt lat="42.5152748" lon="11.5094008"><ele>164.0</ele><time>2026-04-02T13:41:35.907Z</time></trkpt><trkpt lat="42.5150775" lon="11.5095617"><ele>165.0</ele><time>2026-04-02T13:41:36.908Z</time></trkpt><trkpt lat="42.5148734" lon="11.5097305"><ele>166.0</ele><time>2026-04-02T13:41:37.909Z</time></trkpt><trkpt lat="42.5146624" lon="11.5099076"><ele>163.0</ele><time>2026-04-02T13:41:38.908Z</time></trkpt><trkpt lat="42.5144497" lon="11.5100911"><ele>160.0</ele><time>2026-04-02T13:41:39.912Z</time></trkpt><trkpt lat="42.5142261" lon="11.510273"><ele>160.0</ele><time>2026-04-02T13:41:40.908Z</time></trkpt><trkpt lat="42.5140032" lon="11.5104676"><ele>160.0</ele><time>2026-04-02T13:41:41.908Z</time></trkpt><trkpt lat="42.5137729" lon="11.5106541"><ele>157.5</ele><time>2026-04-02T13:41:42.908Z</time></trkpt><trkpt lat="42.513542" lon="11.5108443"><ele>155.0</ele><time>2026-04-02T13:41:43.908Z</time></trkpt><trkpt lat="42.5133171" lon="11.5110315"><ele>155.0</ele><time>2026-04-02T13:41:44.909Z</time></trkpt><trkpt lat="42.5130878" lon="11.511213"><ele>155.0</ele><time>2026-04-02T13:41:45.909Z</time></trkpt><trkpt lat="42.5128523" lon="11.5113753"><ele>156.5</ele><time>2026-04-02T13:41:46.908Z</time></trkpt><trkpt lat="42.5126059" lon="11.5115164"><ele>158.0</ele><time>2026-04-02T13:41:47.908Z</time></trkpt><trkpt lat="42.5123519" lon="11.5116291"><ele>158.0</ele><time>2026-04-02T13:41:48.908Z</time></trkpt><trkpt lat="42.5120905" lon="11.5117113"><ele>158.0</ele><time>2026-04-02T13:41:49.909Z</time></trkpt><trkpt lat="42.5118278" lon="11.5117799"><ele>162.0</ele><time>2026-04-02T13:41:50.919Z</time></trkpt><trkpt lat="42.511578" lon="11.5118428"><ele>166.0</ele><time>2026-04-02T13:41:51.911Z</time></trkpt><trkpt lat="42.5113488" lon="11.5119058"><ele>169.33333333333334</ele><time>2026-04-02T13:41:52.912Z</time></trkpt><trkpt lat="42.5111368" lon="11.5119667"><ele>172.66666666666666</ele><time>2026-04-02T13:41:53.908Z</time></trkpt><trkpt lat="42.5109406" lon="11.5120347"><ele>176.0</ele><time>2026-04-02T13:41:54.908Z</time></trkpt><trkpt lat="42.5107564" lon="11.5121107"><ele>176.0</ele><time>2026-04-02T13:41:55.909Z</time></trkpt><trkpt lat="42.5105827" lon="11.5121977"><ele>176.0</ele><time>2026-04-02T13:41:56.909Z</time></trkpt><trkpt lat="42.5104256" lon="11.5123182"><ele>176.0</ele><time>2026-04-02T13:41:57.909Z</time></trkpt><trkpt lat="42.5102953" lon="11.5124803"><ele>178.5</ele><time>2026-04-02T13:41:58.91Z</time></trkpt><trkpt lat="42.5101749" lon="11.5126831"><ele>181.0</ele><time>2026-04-02T13:41:59.92Z</time></trkpt><trkpt lat="42.5099355" lon="11.513149"><ele>181.0</ele><time>2026-04-02T13:42:01.909Z</time></trkpt><trkpt lat="42.509802" lon="11.5134077"><ele>181.0</ele><time>2026-04-02T13:42:02.908Z</time></trkpt><trkpt lat="42.50966" lon="11.5136762"><ele>179.5</ele><time>2026-04-02T13:42:03.907Z</time></trkpt><trkpt lat="42.5095115" lon="11.5139552"><ele>178.0</ele><time>2026-04-02T13:42:04.909Z</time></trkpt><trkpt lat="42.5093584" lon="11.5142436"><ele>178.0</ele><time>2026-04-02T13:42:05.909Z</time></trkpt><trkpt lat="42.5092031" lon="11.5145318"><ele>178.0</ele><time>2026-04-02T13:42:06.913Z</time></trkpt><trkpt lat="42.5090489" lon="11.5148276"><ele>179.0</ele><time>2026-04-02T13:42:07.91Z</time></trkpt><trkpt lat="42.5088909" lon="11.5151222"><ele>180.0</ele><time>2026-04-02T13:42:08.908Z</time></trkpt><trkpt lat="42.508737" lon="11.5154232"><ele>177.5</ele><time>2026-04-02T13:42:09.911Z</time></trkpt><trkpt lat="42.5085806" lon="11.5157261"><ele>175.0</ele><time>2026-04-02T13:42:10.91Z</time></trkpt><trkpt lat="42.5082668" lon="11.5163332"><ele>175.0</ele><time>2026-04-02T13:42:12.915Z</time></trkpt><trkpt lat="42.5081085" lon="11.5166366"><ele>175.0</ele><time>2026-04-02T13:42:13.918Z</time></trkpt><trkpt lat="42.507947" lon="11.5169452"><ele>172.5</ele><time>2026-04-02T13:42:14.917Z</time></trkpt><trkpt lat="42.507785" lon="11.5172561"><ele>170.0</ele><time>2026-04-02T13:42:15.91Z</time></trkpt><trkpt lat="42.5076193" lon="11.5175699"><ele>170.0</ele><time>2026-04-02T13:42:16.91Z</time></trkpt><trkpt lat="42.5074552" lon="11.5178856"><ele>170.0</ele><time>2026-04-02T13:42:17.909Z</time></trkpt><trkpt lat="42.5072888" lon="11.5181989"><ele>170.0</ele><time>2026-04-02T13:42:18.908Z</time></trkpt><trkpt lat="42.5071208" lon="11.5185147"><ele>170.0</ele><time>2026-04-02T13:42:19.908Z</time></trkpt><trkpt lat="42.5069528" lon="11.5188199"><ele>170.0</ele><time>2026-04-02T13:42:20.908Z</time></trkpt><trkpt lat="42.5067742" lon="11.5191173"><ele>170.0</ele><time>2026-04-02T13:42:21.906Z</time></trkpt><trkpt lat="42.5063829" lon="11.5196543"><ele>170.5</ele><time>2026-04-02T13:42:23.909Z</time></trkpt><trkpt lat="42.5061899" lon="11.5198959"><ele>171.0</ele><time>2026-04-02T13:42:24.91Z</time></trkpt><trkpt lat="42.5059969" lon="11.5201335"><ele>171.0</ele><time>2026-04-02T13:42:25.911Z</time></trkpt><trkpt lat="42.5058069" lon="11.5203723"><ele>171.0</ele><time>2026-04-02T13:42:26.917Z</time></trkpt><trkpt lat="42.5056153" lon="11.5206089"><ele>173.0</ele><time>2026-04-02T13:42:27.909Z</time></trkpt><trkpt lat="42.5054303" lon="11.5208411"><ele>175.0</ele><time>2026-04-02T13:42:28.908Z</time></trkpt><trkpt lat="42.5052396" lon="11.5210824"><ele>173.5</ele><time>2026-04-02T13:42:29.912Z</time></trkpt><trkpt lat="42.5050494" lon="11.5213282"><ele>172.0</ele><time>2026-04-02T13:42:30.912Z</time></trkpt><trkpt lat="42.5048514" lon="11.5215793"><ele>172.0</ele><time>2026-04-02T13:42:31.911Z</time></trkpt><trkpt lat="42.5046507" lon="11.5218354"><ele>172.0</ele><time>2026-04-02T13:42:32.908Z</time></trkpt><trkpt lat="42.5044456" lon="11.5220996"><ele>170.0</ele><time>2026-04-02T13:42:33.911Z</time></trkpt><trkpt lat="42.504239" lon="11.5223636"><ele>168.0</ele><time>2026-04-02T13:42:34.91Z</time></trkpt><trkpt lat="42.5040307" lon="11.5226284"><ele>168.0</ele><time>2026-04-02T13:42:35.908Z</time></trkpt><trkpt lat="42.5038222" lon="11.5228938"><ele>168.0</ele><time>2026-04-02T13:42:36.912Z</time></trkpt><trkpt lat="42.5036144" lon="11.5231553"><ele>166.0</ele><time>2026-04-02T13:42:37.907Z</time></trkpt><trkpt lat="42.5034077" lon="11.5234197"><ele>164.0</ele><time>2026-04-02T13:42:38.908Z</time></trkpt><trkpt lat="42.503201" lon="11.5236808"><ele>164.0</ele><time>2026-04-02T13:42:39.909Z</time></trkpt><trkpt lat="42.5029951" lon="11.5239361"><ele>164.0</ele><time>2026-04-02T13:42:40.909Z</time></trkpt><trkpt lat="42.502796" lon="11.5241897"><ele>166.0</ele><time>2026-04-02T13:42:41.907Z</time></trkpt><trkpt lat="42.5026007" lon="11.5244415"><ele>168.0</ele><time>2026-04-02T13:42:42.908Z</time></trkpt><trkpt lat="42.5024084" lon="11.5246901"><ele>168.0</ele><time>2026-04-02T13:42:43.91Z</time></trkpt><trkpt lat="42.5022202" lon="11.5249275"><ele>168.0</ele><time>2026-04-02T13:42:44.909Z</time></trkpt><trkpt lat="42.5020375" lon="11.5251614"><ele>166.0</ele><time>2026-04-02T13:42:45.91Z</time></trkpt><trkpt lat="42.5018605" lon="11.5254021"><ele>164.0</ele><time>2026-04-02T13:42:46.908Z</time></trkpt><trkpt lat="42.5016994" lon="11.5256581"><ele>164.0</ele><time>2026-04-02T13:42:47.908Z</time></trkpt><trkpt lat="42.5015492" lon="11.525926"><ele>164.0</ele><time>2026-04-02T13:42:48.91Z</time></trkpt><trkpt lat="42.5014098" lon="11.5261849"><ele>163.33333333333331</ele><time>2026-04-02T13:42:49.91Z</time></trkpt><trkpt lat="42.5012862" lon="11.5264332"><ele>162.66666666666666</ele><time>2026-04-02T13:42:50.913Z</time></trkpt><trkpt lat="42.5011904" lon="11.5266731"><ele>162.0</ele><time>2026-04-02T13:42:51.908Z</time></trkpt><trkpt lat="42.5011242" lon="11.5269343"><ele>161.0</ele><time>2026-04-02T13:42:52.915Z</time></trkpt><trkpt lat="42.5010634" lon="11.52752"><ele>160.0</ele><time>2026-04-02T13:42:54.908Z</time></trkpt><trkpt lat="42.5010461" lon="11.5278341"><ele>158.0</ele><time>2026-04-02T13:42:55.909Z</time></trkpt><trkpt lat="42.5010313" lon="11.5281465"><ele>156.0</ele><time>2026-04-02T13:42:56.907Z</time></trkpt><trkpt lat="42.5010168" lon="11.5284473"><ele>156.0</ele><time>2026-04-02T13:42:57.907Z</time></trkpt><trkpt lat="42.5009905" lon="11.5287289"><ele>156.0</ele><time>2026-04-02T13:42:58.91Z</time></trkpt><trkpt lat="42.500952" lon="11.5289893"><ele>156.0</ele><time>2026-04-02T13:42:59.908Z</time></trkpt><trkpt lat="42.5008835" lon="11.5292344"><ele>156.0</ele><time>2026-04-02T13:43:00.911Z</time></trkpt><trkpt lat="42.5007929" lon="11.5294842"><ele>156.0</ele><time>2026-04-02T13:43:01.911Z</time></trkpt><trkpt lat="42.5006883" lon="11.5297391"><ele>156.0</ele><time>2026-04-02T13:43:02.909Z</time></trkpt><trkpt lat="42.5005784" lon="11.5299994"><ele>155.66666666666666</ele><time>2026-04-02T13:43:03.91Z</time></trkpt><trkpt lat="42.5004648" lon="11.5302578"><ele>155.33333333333331</ele><time>2026-04-02T13:43:04.908Z</time></trkpt><trkpt lat="42.5003603" lon="11.5305064"><ele>155.0</ele><time>2026-04-02T13:43:05.909Z</time></trkpt><trkpt lat="42.5002565" lon="11.5307474"><ele>155.0</ele><time>2026-04-02T13:43:06.909Z</time></trkpt><trkpt lat="42.5001603" lon="11.5309953"><ele>155.0</ele><time>2026-04-02T13:43:07.91Z</time></trkpt><trkpt lat="42.5000615" lon="11.5312458"><ele>155.0</ele><time>2026-04-02T13:43:08.907Z</time></trkpt><trkpt lat="42.4999569" lon="11.5314989"><ele>155.0</ele><time>2026-04-02T13:43:09.912Z</time></trkpt><trkpt lat="42.4998419" lon="11.5317506"><ele>155.0</ele><time>2026-04-02T13:43:10.915Z</time></trkpt><trkpt lat="42.4997208" lon="11.5320133"><ele>155.0</ele><time>2026-04-02T13:43:11.915Z</time></trkpt><trkpt lat="42.499583" lon="11.5322789"><ele>155.0</ele><time>2026-04-02T13:43:12.909Z</time></trkpt><trkpt lat="42.49943" lon="11.532553"><ele>155.0</ele><time>2026-04-02T13:43:13.91Z</time></trkpt><trkpt lat="42.499269" lon="11.5328195"><ele>155.5</ele><time>2026-04-02T13:43:14.91Z</time></trkpt><trkpt lat="42.4991101" lon="11.5330924"><ele>156.0</ele><time>2026-04-02T13:43:15.91Z</time></trkpt><trkpt lat="42.4989561" lon="11.5333771"><ele>156.0</ele><time>2026-04-02T13:43:16.909Z</time></trkpt><trkpt lat="42.498808" lon="11.5336737"><ele>156.0</ele><time>2026-04-02T13:43:17.91Z</time></trkpt><trkpt lat="42.498668" lon="11.5339755"><ele>156.0</ele><time>2026-04-02T13:43:18.911Z</time></trkpt><trkpt lat="42.4985323" lon="11.5342911"><ele>156.0</ele><time>2026-04-02T13:43:19.907Z</time></trkpt><trkpt lat="42.4984012" lon="11.5345983"><ele>156.0</ele><time>2026-04-02T13:43:20.911Z</time></trkpt><trkpt lat="42.4982759" lon="11.5348974"><ele>156.0</ele><time>2026-04-02T13:43:21.912Z</time></trkpt><trkpt lat="42.4981497" lon="11.5352061"><ele>158.0</ele><time>2026-04-02T13:43:22.909Z</time></trkpt><trkpt lat="42.4980239" lon="11.5355158"><ele>160.0</ele><time>2026-04-02T13:43:23.91Z</time></trkpt><trkpt lat="42.4978981" lon="11.535836"><ele>153.0</ele><time>2026-04-02T13:43:24.91Z</time></trkpt><trkpt lat="42.4977778" lon="11.5361691"><ele>146.0</ele><time>2026-04-02T13:43:25.908Z</time></trkpt><trkpt lat="42.4976667" lon="11.536515"><ele>146.0</ele><time>2026-04-02T13:43:26.909Z</time></trkpt><trkpt lat="42.4975582" lon="11.536869"><ele>146.0</ele><time>2026-04-02T13:43:27.909Z</time></trkpt><trkpt lat="42.4974505" lon="11.5372272"><ele>148.0</ele><time>2026-04-02T13:43:28.909Z</time></trkpt><trkpt lat="42.4973383" lon="11.5375931"><ele>150.0</ele><time>2026-04-02T13:43:29.91Z</time></trkpt><trkpt lat="42.4972153" lon="11.5379658"><ele>151.5</ele><time>2026-04-02T13:43:30.909Z</time></trkpt><trkpt lat="42.4970944" lon="11.5383187"><ele>153.0</ele><time>2026-04-02T13:43:31.908Z</time></trkpt><trkpt lat="42.4969803" lon="11.5386517"><ele>148.0</ele><time>2026-04-02T13:43:32.909Z</time></trkpt><trkpt lat="42.4968683" lon="11.5389598"><ele>143.0</ele><time>2026-04-02T13:43:33.918Z</time></trkpt><trkpt lat="42.4967659" lon="11.5392446"><ele>143.0</ele><time>2026-04-02T13:43:34.907Z</time></trkpt><trkpt lat="42.4966688" lon="11.5395085"><ele>143.0</ele><time>2026-04-02T13:43:35.909Z</time></trkpt><trkpt lat="42.496564" lon="11.5397472"><ele>143.0</ele><time>2026-04-02T13:43:36.908Z</time></trkpt><trkpt lat="42.4964458" lon="11.5399702"><ele>143.33333333333331</ele><time>2026-04-02T13:43:37.91Z</time></trkpt><trkpt lat="42.4963032" lon="11.5401688"><ele>143.66666666666666</ele><time>2026-04-02T13:43:38.908Z</time></trkpt><trkpt lat="42.4961349" lon="11.5403481"><ele>144.0</ele><time>2026-04-02T13:43:39.914Z</time></trkpt><trkpt lat="42.495961" lon="11.5405287"><ele>147.0</ele><time>2026-04-02T13:43:40.908Z</time></trkpt><trkpt lat="42.4957791" lon="11.5407107"><ele>150.0</ele><time>2026-04-02T13:43:41.911Z</time></trkpt><trkpt lat="42.4955921" lon="11.5408957"><ele>149.0</ele><time>2026-04-02T13:43:42.913Z</time></trkpt><trkpt lat="42.4954046" lon="11.5410792"><ele>148.0</ele><time>2026-04-02T13:43:43.908Z</time></trkpt><trkpt lat="42.495216" lon="11.5412688"><ele>148.0</ele><time>2026-04-02T13:43:44.908Z</time></trkpt><trkpt lat="42.4950264" lon="11.5414601"><ele>148.0</ele><time>2026-04-02T13:43:45.911Z</time></trkpt><trkpt lat="42.4948353" lon="11.5416642"><ele>148.0</ele><time>2026-04-02T13:43:46.909Z</time></trkpt><trkpt lat="42.4946486" lon="11.541882"><ele>148.0</ele><time>2026-04-02T13:43:47.908Z</time></trkpt><trkpt lat="42.4944657" lon="11.5421157"><ele>144.5</ele><time>2026-04-02T13:43:48.907Z</time></trkpt><trkpt lat="42.4942855" lon="11.5423666"><ele>141.0</ele><time>2026-04-02T13:43:49.907Z</time></trkpt><trkpt lat="42.4941111" lon="11.5426356"><ele>139.0</ele><time>2026-04-02T13:43:50.908Z</time></trkpt><trkpt lat="42.4939312" lon="11.5429075"><ele>137.0</ele><time>2026-04-02T13:43:51.907Z</time></trkpt><trkpt lat="42.493749" lon="11.543179"><ele>137.0</ele><time>2026-04-02T13:43:52.909Z</time></trkpt><trkpt lat="42.4935811" lon="11.543435"><ele>137.0</ele><time>2026-04-02T13:43:53.909Z</time></trkpt><trkpt lat="42.4934271" lon="11.543665"><ele>140.0</ele><time>2026-04-02T13:43:54.908Z</time></trkpt><trkpt lat="42.4931233" lon="11.5440637"><ele>143.0</ele><time>2026-04-02T13:43:56.911Z</time></trkpt><trkpt lat="42.4929469" lon="11.5441912"><ele>141.66666666666666</ele><time>2026-04-02T13:43:57.909Z</time></trkpt><trkpt lat="42.4927498" lon="11.5442782"><ele>140.33333333333334</ele><time>2026-04-02T13:43:58.911Z</time></trkpt><trkpt lat="42.492541" lon="11.5443439"><ele>139.0</ele><time>2026-04-02T13:43:59.907Z</time></trkpt><trkpt lat="42.4923399" lon="11.5444037"><ele>139.0</ele><time>2026-04-02T13:44:00.909Z</time></trkpt><trkpt lat="42.4921516" lon="11.5444609"><ele>139.0</ele><time>2026-04-02T13:44:01.914Z</time></trkpt><trkpt lat="42.4919792" lon="11.5445135"><ele>139.0</ele><time>2026-04-02T13:44:02.91Z</time></trkpt><trkpt lat="42.4918142" lon="11.5445705"><ele>140.0</ele><time>2026-04-02T13:44:03.907Z</time></trkpt><trkpt lat="42.491656" lon="11.5446772"><ele>141.0</ele><time>2026-04-02T13:44:04.91Z</time></trkpt><trkpt lat="42.4915034" lon="11.5448243"><ele>142.0</ele><time>2026-04-02T13:44:05.909Z</time></trkpt><trkpt lat="42.4913505" lon="11.5450143"><ele>139.0</ele><time>2026-04-02T13:44:06.908Z</time></trkpt><trkpt lat="42.4911881" lon="11.5452385"><ele>136.0</ele><time>2026-04-02T13:44:07.909Z</time></trkpt><trkpt lat="42.4910124" lon="11.5454723"><ele>136.0</ele><time>2026-04-02T13:44:08.908Z</time></trkpt><trkpt lat="42.4908272" lon="11.5457102"><ele>136.0</ele><time>2026-04-02T13:44:09.909Z</time></trkpt><trkpt lat="42.4906345" lon="11.5459672"><ele>135.0</ele><time>2026-04-02T13:44:10.909Z</time></trkpt><trkpt lat="42.490432" lon="11.5462358"><ele>134.0</ele><time>2026-04-02T13:44:11.909Z</time></trkpt><trkpt lat="42.4902189" lon="11.5465147"><ele>134.0</ele><time>2026-04-02T13:44:12.908Z</time></trkpt><trkpt lat="42.4900013" lon="11.5467955"><ele>134.0</ele><time>2026-04-02T13:44:13.909Z</time></trkpt><trkpt lat="42.4897797" lon="11.5470791"><ele>133.0</ele><time>2026-04-02T13:44:14.91Z</time></trkpt><trkpt lat="42.4895592" lon="11.5473718"><ele>132.0</ele><time>2026-04-02T13:44:15.908Z</time></trkpt><trkpt lat="42.4893416" lon="11.5476573"><ele>133.0</ele><time>2026-04-02T13:44:16.907Z</time></trkpt><trkpt lat="42.4891275" lon="11.5479328"><ele>134.0</ele><time>2026-04-02T13:44:17.907Z</time></trkpt><trkpt lat="42.4889137" lon="11.5482121"><ele>134.0</ele><time>2026-04-02T13:44:18.92Z</time></trkpt><trkpt lat="42.4886984" lon="11.5484923"><ele>134.0</ele><time>2026-04-02T13:44:19.909Z</time></trkpt><trkpt lat="42.4884853" lon="11.5487684"><ele>134.0</ele><time>2026-04-02T13:44:20.914Z</time></trkpt><trkpt lat="42.4882749" lon="11.5490407"><ele>134.0</ele><time>2026-04-02T13:44:21.939Z</time></trkpt><trkpt lat="42.488062" lon="11.5493138"><ele>131.5</ele><time>2026-04-02T13:44:22.913Z</time></trkpt><trkpt lat="42.4878476" lon="11.5495853"><ele>129.0</ele><time>2026-04-02T13:44:23.916Z</time></trkpt><trkpt lat="42.4876288" lon="11.5498504"><ele>129.0</ele><time>2026-04-02T13:44:24.915Z</time></trkpt><trkpt lat="42.4873977" lon="11.5501111"><ele>129.0</ele><time>2026-04-02T13:44:25.915Z</time></trkpt><trkpt lat="42.4871536" lon="11.5503595"><ele>130.5</ele><time>2026-04-02T13:44:26.913Z</time></trkpt><trkpt lat="42.4869096" lon="11.5506025"><ele>132.0</ele><time>2026-04-02T13:44:27.909Z</time></trkpt><trkpt lat="42.4866733" lon="11.5508295"><ele>132.0</ele><time>2026-04-02T13:44:28.91Z</time></trkpt><trkpt lat="42.4864542" lon="11.5510399"><ele>132.0</ele><time>2026-04-02T13:44:29.915Z</time></trkpt><trkpt lat="42.4862465" lon="11.5512397"><ele>133.5</ele><time>2026-04-02T13:44:30.908Z</time></trkpt><trkpt lat="42.486045" lon="11.5514337"><ele>135.0</ele><time>2026-04-02T13:44:31.907Z</time></trkpt><trkpt lat="42.4858597" lon="11.5516205"><ele>135.0</ele><time>2026-04-02T13:44:32.909Z</time></trkpt><trkpt lat="42.4857004" lon="11.5517963"><ele>135.0</ele><time>2026-04-02T13:44:33.915Z</time></trkpt><trkpt lat="42.4855567" lon="11.5519986"><ele>135.0</ele><time>2026-04-02T13:44:34.911Z</time></trkpt><trkpt lat="42.4854389" lon="11.5522235"><ele>133.5</ele><time>2026-04-02T13:44:35.912Z</time></trkpt><trkpt lat="42.4853344" lon="11.5524767"><ele>132.0</ele><time>2026-04-02T13:44:36.909Z</time></trkpt><trkpt lat="42.4851774" lon="11.5530512"><ele>134.33333333333334</ele><time>2026-04-02T13:44:38.908Z</time></trkpt><trkpt lat="42.4851138" lon="11.553344"><ele>136.66666666666669</ele><time>2026-04-02T13:44:39.909Z</time></trkpt><trkpt lat="42.4850494" lon="11.5536273"><ele>139.0</ele><time>2026-04-02T13:44:40.907Z</time></trkpt><trkpt lat="42.4849743" lon="11.5538947"><ele>141.0</ele><time>2026-04-02T13:44:41.908Z</time></trkpt><trkpt lat="42.4848784" lon="11.5541591"><ele>143.0</ele><time>2026-04-02T13:44:42.909Z</time></trkpt><trkpt lat="42.4847757" lon="11.55442"><ele>145.0</ele><time>2026-04-02T13:44:43.911Z</time></trkpt><trkpt lat="42.4846605" lon="11.5546643"><ele>145.0</ele><time>2026-04-02T13:44:44.915Z</time></trkpt><trkpt lat="42.4845377" lon="11.5548874"><ele>145.0</ele><time>2026-04-02T13:44:45.928Z</time></trkpt><trkpt lat="42.4844073" lon="11.5550809"><ele>145.0</ele><time>2026-04-02T13:44:46.915Z</time></trkpt><trkpt lat="42.4842664" lon="11.5552339"><ele>144.66666666666669</ele><time>2026-04-02T13:44:47.909Z</time></trkpt><trkpt lat="42.4841256" lon="11.555382"><ele>144.33333333333334</ele><time>2026-04-02T13:44:48.909Z</time></trkpt><trkpt lat="42.4839841" lon="11.5555123"><ele>144.0</ele><time>2026-04-02T13:44:49.917Z</time></trkpt><trkpt lat="42.4838392" lon="11.5556354"><ele>143.0</ele><time>2026-04-02T13:44:50.91Z</time></trkpt><trkpt lat="42.4836915" lon="11.5557591"><ele>142.0</ele><time>2026-04-02T13:44:51.911Z</time></trkpt><trkpt lat="42.4835336" lon="11.5558822"><ele>141.0</ele><time>2026-04-02T13:44:52.911Z</time></trkpt><trkpt lat="42.483383" lon="11.5560094"><ele>141.0</ele><time>2026-04-02T13:44:53.91Z</time></trkpt><trkpt lat="42.4832251" lon="11.5561309"><ele>141.0</ele><time>2026-04-02T13:44:54.908Z</time></trkpt><trkpt lat="42.4830688" lon="11.5562603"><ele>141.0</ele><time>2026-04-02T13:44:55.909Z</time></trkpt><trkpt lat="42.4829034" lon="11.5563842"><ele>137.5</ele><time>2026-04-02T13:44:56.908Z</time></trkpt><trkpt lat="42.482741" lon="11.5565199"><ele>134.0</ele><time>2026-04-02T13:44:57.909Z</time></trkpt><trkpt lat="42.4823829" lon="11.5568144"><ele>134.0</ele><time>2026-04-02T13:44:59.912Z</time></trkpt><trkpt lat="42.4821914" lon="11.5569732"><ele>134.0</ele><time>2026-04-02T13:45:00.909Z</time></trkpt><trkpt lat="42.4819907" lon="11.5571425"><ele>132.5</ele><time>2026-04-02T13:45:01.911Z</time></trkpt><trkpt lat="42.4817841" lon="11.5573137"><ele>131.0</ele><time>2026-04-02T13:45:02.91Z</time></trkpt><trkpt lat="42.4815743" lon="11.5574858"><ele>131.0</ele><time>2026-04-02T13:45:03.909Z</time></trkpt><trkpt lat="42.4813564" lon="11.5576622"><ele>131.0</ele><time>2026-04-02T13:45:04.91Z</time></trkpt><trkpt lat="42.481138" lon="11.5578411"><ele>130.5</ele><time>2026-04-02T13:45:05.91Z</time></trkpt><trkpt lat="42.4809154" lon="11.5580219"><ele>130.0</ele><time>2026-04-02T13:45:06.909Z</time></trkpt><trkpt lat="42.4806949" lon="11.5581961"><ele>130.0</ele><time>2026-04-02T13:45:07.91Z</time></trkpt><trkpt lat="42.4804761" lon="11.5583699"><ele>130.0</ele><time>2026-04-02T13:45:08.91Z</time></trkpt><trkpt lat="42.4802595" lon="11.5585476"><ele>127.5</ele><time>2026-04-02T13:45:09.909Z</time></trkpt><trkpt lat="42.4800442" lon="11.5587213"><ele>125.0</ele><time>2026-04-02T13:45:10.909Z</time></trkpt><trkpt lat="42.479831" lon="11.558897"><ele>125.0</ele><time>2026-04-02T13:45:11.91Z</time></trkpt><trkpt lat="42.4796228" lon="11.5590663"><ele>125.0</ele><time>2026-04-02T13:45:12.91Z</time></trkpt><trkpt lat="42.4794258" lon="11.5592275"><ele>124.0</ele><time>2026-04-02T13:45:13.908Z</time></trkpt><trkpt lat="42.4792356" lon="11.5593838"><ele>123.0</ele><time>2026-04-02T13:45:14.909Z</time></trkpt><trkpt lat="42.4790588" lon="11.5595344"><ele>122.0</ele><time>2026-04-02T13:45:15.908Z</time></trkpt><trkpt lat="42.4788898" lon="11.5596779"><ele>120.33333333333333</ele><time>2026-04-02T13:45:16.909Z</time></trkpt><trkpt lat="42.4787137" lon="11.5598129"><ele>118.66666666666666</ele><time>2026-04-02T13:45:17.908Z</time></trkpt><trkpt lat="42.4785283" lon="11.5599355"><ele>117.0</ele><time>2026-04-02T13:45:18.912Z</time></trkpt><trkpt lat="42.4781372" lon="11.5601228"><ele>116.33333333333334</ele><time>2026-04-02T13:45:20.909Z</time></trkpt><trkpt lat="42.4779343" lon="11.5601965"><ele>115.66666666666667</ele><time>2026-04-02T13:45:21.912Z</time></trkpt><trkpt lat="42.4777251" lon="11.5602574"><ele>115.0</ele><time>2026-04-02T13:45:22.908Z</time></trkpt><trkpt lat="42.477511" lon="11.5603024"><ele>115.0</ele><time>2026-04-02T13:45:23.908Z</time></trkpt><trkpt lat="42.477291" lon="11.560318"><ele>115.0</ele><time>2026-04-02T13:45:24.91Z</time></trkpt><trkpt lat="42.4770619" lon="11.5603093"><ele>115.0</ele><time>2026-04-02T13:45:25.919Z</time></trkpt><trkpt lat="42.476832" lon="11.5602846"><ele>114.0</ele><time>2026-04-02T13:45:26.908Z</time></trkpt><trkpt lat="42.4765974" lon="11.5602456"><ele>113.0</ele><time>2026-04-02T13:45:27.91Z</time></trkpt><trkpt lat="42.4763756" lon="11.5601927"><ele>113.0</ele><time>2026-04-02T13:45:28.909Z</time></trkpt><trkpt lat="42.4761456" lon="11.5601493"><ele>113.0</ele><time>2026-04-02T13:45:29.91Z</time></trkpt><trkpt lat="42.4759198" lon="11.5601003"><ele>113.0</ele><time>2026-04-02T13:45:30.91Z</time></trkpt><trkpt lat="42.4756954" lon="11.5600573"><ele>113.0</ele><time>2026-04-02T13:45:31.908Z</time></trkpt><trkpt lat="42.4754727" lon="11.5600133"><ele>113.0</ele><time>2026-04-02T13:45:32.909Z</time></trkpt><trkpt lat="42.4752619" lon="11.5599724"><ele>113.0</ele><time>2026-04-02T13:45:33.908Z</time></trkpt><trkpt lat="42.4750509" lon="11.5599364"><ele>113.0</ele><time>2026-04-02T13:45:34.908Z</time></trkpt><trkpt lat="42.4748271" lon="11.5599389"><ele>112.0</ele><time>2026-04-02T13:45:35.907Z</time></trkpt><trkpt lat="42.4745896" lon="11.5599727"><ele>111.0</ele><time>2026-04-02T13:45:36.908Z</time></trkpt><trkpt lat="42.4743435" lon="11.5600252"><ele>111.0</ele><time>2026-04-02T13:45:37.906Z</time></trkpt><trkpt lat="42.4740933" lon="11.5600869"><ele>111.0</ele><time>2026-04-02T13:45:38.911Z</time></trkpt><trkpt lat="42.4738403" lon="11.560151"><ele>109.0</ele><time>2026-04-02T13:45:39.908Z</time></trkpt><trkpt lat="42.4735878" lon="11.56021"><ele>107.0</ele><time>2026-04-02T13:45:40.908Z</time></trkpt><trkpt lat="42.4733462" lon="11.5602646"><ele>107.0</ele><time>2026-04-02T13:45:41.909Z</time></trkpt><trkpt lat="42.4731237" lon="11.5603132"><ele>107.0</ele><time>2026-04-02T13:45:42.908Z</time></trkpt><trkpt lat="42.4729113" lon="11.5603709"><ele>107.0</ele><time>2026-04-02T13:45:43.914Z</time></trkpt><trkpt lat="42.4727161" lon="11.5604608"><ele>106.0</ele><time>2026-04-02T13:45:44.909Z</time></trkpt><trkpt lat="42.4725236" lon="11.5605871"><ele>105.0</ele><time>2026-04-02T13:45:45.907Z</time></trkpt><trkpt lat="42.4723341" lon="11.5607646"><ele>104.0</ele><time>2026-04-02T13:45:46.907Z</time></trkpt><trkpt lat="42.4721437" lon="11.5609779"><ele>102.0</ele><time>2026-04-02T13:45:47.908Z</time></trkpt><trkpt lat="42.4719451" lon="11.5612026"><ele>100.0</ele><time>2026-04-02T13:45:48.909Z</time></trkpt><trkpt lat="42.4717345" lon="11.5614348"><ele>100.0</ele><time>2026-04-02T13:45:49.911Z</time></trkpt><trkpt lat="42.4715183" lon="11.5616721"><ele>100.0</ele><time>2026-04-02T13:45:50.909Z</time></trkpt><trkpt lat="42.471296" lon="11.56191"><ele>100.0</ele><time>2026-04-02T13:45:51.908Z</time></trkpt><trkpt lat="42.4710766" lon="11.5621439"><ele>100.0</ele><time>2026-04-02T13:45:52.909Z</time></trkpt><trkpt lat="42.4708749" lon="11.5623616"><ele>100.0</ele><time>2026-04-02T13:45:53.907Z</time></trkpt><trkpt lat="42.4706814" lon="11.562568"><ele>100.0</ele><time>2026-04-02T13:45:54.909Z</time></trkpt><trkpt lat="42.4705075" lon="11.562765"><ele>99.0</ele><time>2026-04-02T13:45:55.909Z</time></trkpt><trkpt lat="42.4703477" lon="11.5629794"><ele>98.0</ele><time>2026-04-02T13:45:56.917Z</time></trkpt><trkpt lat="42.4702103" lon="11.5632158"><ele>97.0</ele><time>2026-04-02T13:45:57.909Z</time></trkpt><trkpt lat="42.4700939" lon="11.5634844"><ele>100.0</ele><time>2026-04-02T13:45:58.912Z</time></trkpt><trkpt lat="42.4699883" lon="11.5637845"><ele>103.0</ele><time>2026-04-02T13:45:59.909Z</time></trkpt><trkpt lat="42.4698826" lon="11.5640982"><ele>103.0</ele><time>2026-04-02T13:46:00.914Z</time></trkpt><trkpt lat="42.4697742" lon="11.5644297"><ele>103.0</ele><time>2026-04-02T13:46:01.909Z</time></trkpt><trkpt lat="42.4696611" lon="11.5647651"><ele>99.5</ele><time>2026-04-02T13:46:02.907Z</time></trkpt><trkpt lat="42.4695422" lon="11.5651042"><ele>96.0</ele><time>2026-04-02T13:46:03.913Z</time></trkpt><trkpt lat="42.4694228" lon="11.5654413"><ele>96.0</ele><time>2026-04-02T13:46:04.914Z</time></trkpt><trkpt lat="42.4693085" lon="11.5657851"><ele>96.0</ele><time>2026-04-02T13:46:05.913Z</time></trkpt><trkpt lat="42.4691938" lon="11.5661157"><ele>99.5</ele><time>2026-04-02T13:46:06.908Z</time></trkpt><trkpt lat="42.4690926" lon="11.5664231"><ele>103.0</ele><time>2026-04-02T13:46:07.909Z</time></trkpt><trkpt lat="42.4689944" lon="11.5667202"><ele>103.0</ele><time>2026-04-02T13:46:08.909Z</time></trkpt><trkpt lat="42.468899" lon="11.5669985"><ele>103.0</ele><time>2026-04-02T13:46:09.913Z</time></trkpt><trkpt lat="42.4688079" lon="11.5672551"><ele>103.0</ele><time>2026-04-02T13:46:10.913Z</time></trkpt><trkpt lat="42.468725" lon="11.5674942"><ele>104.66666666666667</ele><time>2026-04-02T13:46:11.915Z</time></trkpt><trkpt lat="42.4686461" lon="11.5677189"><ele>106.33333333333334</ele><time>2026-04-02T13:46:12.915Z</time></trkpt><trkpt lat="42.4685789" lon="11.5679204"><ele>108.0</ele><time>2026-04-02T13:46:13.908Z</time></trkpt><trkpt lat="42.4685271" lon="11.568112"><ele>109.75</ele><time>2026-04-02T13:46:14.909Z</time></trkpt><trkpt lat="42.4685024" lon="11.568298"><ele>111.5</ele><time>2026-04-02T13:46:15.91Z</time></trkpt><trkpt lat="42.4685129" lon="11.5684825"><ele>113.25</ele><time>2026-04-02T13:46:16.91Z</time></trkpt><trkpt lat="42.4685665" lon="11.5686617"><ele>115.0</ele><time>2026-04-02T13:46:17.91Z</time></trkpt><trkpt lat="42.4686596" lon="11.5688355"><ele>115.66666666666667</ele><time>2026-04-02T13:46:18.907Z</time></trkpt><trkpt lat="42.4687814" lon="11.5690104"><ele>116.33333333333334</ele><time>2026-04-02T13:46:19.908Z</time></trkpt><trkpt lat="42.4689167" lon="11.5692013"><ele>117.0</ele><time>2026-04-02T13:46:20.911Z</time></trkpt><trkpt lat="42.4690672" lon="11.5694015"><ele>117.0</ele><time>2026-04-02T13:46:21.91Z</time></trkpt><trkpt lat="42.4692248" lon="11.5696098"><ele>117.0</ele><time>2026-04-02T13:46:22.909Z</time></trkpt><trkpt lat="42.4693866" lon="11.5698181"><ele>117.0</ele><time>2026-04-02T13:46:23.907Z</time></trkpt><trkpt lat="42.4695612" lon="11.5700374"><ele>119.0</ele><time>2026-04-02T13:46:24.908Z</time></trkpt><trkpt lat="42.4697374" lon="11.5702636"><ele>121.0</ele><time>2026-04-02T13:46:25.909Z</time></trkpt><trkpt lat="42.4699172" lon="11.5704879"><ele>121.0</ele><time>2026-04-02T13:46:26.915Z</time></trkpt><trkpt lat="42.470098" lon="11.5707239"><ele>121.0</ele><time>2026-04-02T13:46:27.908Z</time></trkpt><trkpt lat="42.4702819" lon="11.5709604"><ele>123.5</ele><time>2026-04-02T13:46:28.908Z</time></trkpt><trkpt lat="42.4704619" lon="11.5711899"><ele>126.0</ele><time>2026-04-02T13:46:29.91Z</time></trkpt><trkpt lat="42.4706419" lon="11.5714158"><ele>126.0</ele><time>2026-04-02T13:46:30.91Z</time></trkpt><trkpt lat="42.4708117" lon="11.5716261"><ele>126.0</ele><time>2026-04-02T13:46:31.909Z</time></trkpt><trkpt lat="42.4709752" lon="11.571832"><ele>125.66666666666666</ele><time>2026-04-02T13:46:32.909Z</time></trkpt><trkpt lat="42.4711262" lon="11.5720329"><ele>125.33333333333333</ele><time>2026-04-02T13:46:33.908Z</time></trkpt><trkpt lat="42.4712667" lon="11.5722174"><ele>125.0</ele><time>2026-04-02T13:46:34.909Z</time></trkpt><trkpt lat="42.4714" lon="11.5723994"><ele>125.5</ele><time>2026-04-02T13:46:35.91Z</time></trkpt><trkpt lat="42.4715114" lon="11.5725683"><ele>126.0</ele><time>2026-04-02T13:46:36.912Z</time></trkpt><trkpt lat="42.4715871" lon="11.5727331"><ele>126.5</ele><time>2026-04-02T13:46:37.91Z</time></trkpt><trkpt lat="42.4716407" lon="11.5729024"><ele>127.0</ele><time>2026-04-02T13:46:38.908Z</time></trkpt><trkpt lat="42.4716585" lon="11.5730831"><ele>127.0</ele><time>2026-04-02T13:46:39.908Z</time></trkpt><trkpt lat="42.4716384" lon="11.573293"><ele>127.0</ele><time>2026-04-02T13:46:40.91Z</time></trkpt><trkpt lat="42.4716033" lon="11.5735254"><ele>127.0</ele><time>2026-04-02T13:46:41.91Z</time></trkpt><trkpt lat="42.4715604" lon="11.5737834"><ele>124.66666666666667</ele><time>2026-04-02T13:46:42.914Z</time></trkpt><trkpt lat="42.4715129" lon="11.574066"><ele>122.33333333333334</ele><time>2026-04-02T13:46:43.908Z</time></trkpt><trkpt lat="42.4714637" lon="11.574369"><ele>120.0</ele><time>2026-04-02T13:46:44.91Z</time></trkpt><trkpt lat="42.4714123" lon="11.5746867"><ele>118.0</ele><time>2026-04-02T13:46:45.907Z</time></trkpt><trkpt lat="42.471357" lon="11.5750191"><ele>116.0</ele><time>2026-04-02T13:46:46.909Z</time></trkpt><trkpt lat="42.4713003" lon="11.5753582"><ele>113.5</ele><time>2026-04-02T13:46:47.906Z</time></trkpt><trkpt lat="42.4712392" lon="11.5756959"><ele>111.0</ele><time>2026-04-02T13:46:48.909Z</time></trkpt><trkpt lat="42.4711817" lon="11.5760324"><ele>109.5</ele><time>2026-04-02T13:46:49.908Z</time></trkpt><trkpt lat="42.4711292" lon="11.5763512"><ele>108.0</ele><time>2026-04-02T13:46:50.91Z</time></trkpt><trkpt lat="42.4710788" lon="11.5766549"><ele>108.0</ele><time>2026-04-02T13:46:51.91Z</time></trkpt><trkpt lat="42.4710342" lon="11.5769389"><ele>108.0</ele><time>2026-04-02T13:46:52.906Z</time></trkpt><trkpt lat="42.4709903" lon="11.5772018"><ele>108.0</ele><time>2026-04-02T13:46:53.907Z</time></trkpt><trkpt lat="42.4709353" lon="11.5774408"><ele>108.0</ele><time>2026-04-02T13:46:54.908Z</time></trkpt><trkpt lat="42.4708562" lon="11.5776599"><ele>108.0</ele><time>2026-04-02T13:46:55.907Z</time></trkpt><trkpt lat="42.470612" lon="11.5780112"><ele>108.0</ele><time>2026-04-02T13:46:57.911Z</time></trkpt><trkpt lat="42.4704533" lon="11.5781774"><ele>108.0</ele><time>2026-04-02T13:46:58.909Z</time></trkpt><trkpt lat="42.4702845" lon="11.5783562"><ele>108.0</ele><time>2026-04-02T13:46:59.907Z</time></trkpt><trkpt lat="42.4700987" lon="11.5785491"><ele>108.0</ele><time>2026-04-02T13:47:00.908Z</time></trkpt><trkpt lat="42.469911" lon="11.578746"><ele>108.0</ele><time>2026-04-02T13:47:01.91Z</time></trkpt><trkpt lat="42.469716" lon="11.5789465"><ele>107.0</ele><time>2026-04-02T13:47:02.909Z</time></trkpt><trkpt lat="42.4695149" lon="11.5791484"><ele>106.0</ele><time>2026-04-02T13:47:03.907Z</time></trkpt><trkpt lat="42.469329" lon="11.5793342"><ele>107.0</ele><time>2026-04-02T13:47:04.908Z</time></trkpt><trkpt lat="42.4691501" lon="11.5795178"><ele>108.0</ele><time>2026-04-02T13:47:05.911Z</time></trkpt><trkpt lat="42.4689643" lon="11.5796871"><ele>109.0</ele><time>2026-04-02T13:47:06.907Z</time></trkpt><trkpt lat="42.4687587" lon="11.5798317"><ele>111.5</ele><time>2026-04-02T13:47:07.909Z</time></trkpt><trkpt lat="42.4685351" lon="11.579947"><ele>114.0</ele><time>2026-04-02T13:47:08.908Z</time></trkpt><trkpt lat="42.4682945" lon="11.5800442"><ele>114.0</ele><time>2026-04-02T13:47:09.908Z</time></trkpt><trkpt lat="42.4680401" lon="11.5801351"><ele>114.0</ele><time>2026-04-02T13:47:10.909Z</time></trkpt><trkpt lat="42.4678009" lon="11.5802144"><ele>116.0</ele><time>2026-04-02T13:47:11.923Z</time></trkpt><trkpt lat="42.4675706" lon="11.580287"><ele>118.0</ele><time>2026-04-02T13:47:12.909Z</time></trkpt><trkpt lat="42.4673573" lon="11.5803588"><ele>120.0</ele><time>2026-04-02T13:47:13.911Z</time></trkpt><trkpt lat="42.4671642" lon="11.5804403"><ele>122.0</ele><time>2026-04-02T13:47:14.909Z</time></trkpt><trkpt lat="42.466979" lon="11.5805401"><ele>124.0</ele><time>2026-04-02T13:47:15.908Z</time></trkpt><trkpt lat="42.4668145" lon="11.5806744"><ele>125.33333333333334</ele><time>2026-04-02T13:47:16.909Z</time></trkpt><trkpt lat="42.4666766" lon="11.5808566"><ele>126.66666666666666</ele><time>2026-04-02T13:47:17.908Z</time></trkpt><trkpt lat="42.4665589" lon="11.5810725"><ele>128.0</ele><time>2026-04-02T13:47:18.909Z</time></trkpt><trkpt lat="42.466455" lon="11.5812837"><ele>128.33333333333331</ele><time>2026-04-02T13:47:19.907Z</time></trkpt><trkpt lat="42.4663515" lon="11.581502"><ele>128.66666666666666</ele><time>2026-04-02T13:47:20.91Z</time></trkpt><trkpt lat="42.4662448" lon="11.5817361"><ele>129.0</ele><time>2026-04-02T13:47:21.907Z</time></trkpt><trkpt lat="42.4661291" lon="11.5819864"><ele>128.0</ele><time>2026-04-02T13:47:22.908Z</time></trkpt><trkpt lat="42.4660009" lon="11.5822508"><ele>127.0</ele><time>2026-04-02T13:47:23.908Z</time></trkpt><trkpt lat="42.4657268" lon="11.5828194"><ele>126.0</ele><time>2026-04-02T13:47:25.907Z</time></trkpt><trkpt lat="42.4655824" lon="11.5831219"><ele>125.0</ele><time>2026-04-02T13:47:26.907Z</time></trkpt><trkpt lat="42.4654295" lon="11.5834417"><ele>124.0</ele><time>2026-04-02T13:47:27.908Z</time></trkpt><trkpt lat="42.4652735" lon="11.5837683"><ele>123.0</ele><time>2026-04-02T13:47:28.908Z</time></trkpt><trkpt lat="42.465116" lon="11.5840971"><ele>123.0</ele><time>2026-04-02T13:47:29.908Z</time></trkpt><trkpt lat="42.4649701" lon="11.5844147"><ele>123.0</ele><time>2026-04-02T13:47:30.909Z</time></trkpt><trkpt lat="42.4648409" lon="11.5847034"><ele>122.33333333333334</ele><time>2026-04-02T13:47:31.909Z</time></trkpt><trkpt lat="42.4647199" lon="11.5849697"><ele>121.66666666666667</ele><time>2026-04-02T13:47:32.908Z</time></trkpt><trkpt lat="42.4646045" lon="11.5852073"><ele>121.0</ele><time>2026-04-02T13:47:33.911Z</time></trkpt><trkpt lat="42.4644888" lon="11.58541"><ele>121.0</ele><time>2026-04-02T13:47:34.907Z</time></trkpt><trkpt lat="42.4641921" lon="11.5857126"><ele>121.0</ele><time>2026-04-02T13:47:36.911Z</time></trkpt><trkpt lat="42.4639948" lon="11.5858031"><ele>120.66666666666667</ele><time>2026-04-02T13:47:37.908Z</time></trkpt><trkpt lat="42.4637795" lon="11.5858716"><ele>120.33333333333334</ele><time>2026-04-02T13:47:38.911Z</time></trkpt><trkpt lat="42.4635659" lon="11.5859422"><ele>120.0</ele><time>2026-04-02T13:47:39.91Z</time></trkpt><trkpt lat="42.4633589" lon="11.5860113"><ele>120.0</ele><time>2026-04-02T13:47:40.909Z</time></trkpt><trkpt lat="42.4631612" lon="11.5860776"><ele>120.0</ele><time>2026-04-02T13:47:41.911Z</time></trkpt><trkpt lat="42.4629694" lon="11.5861536"><ele>120.0</ele><time>2026-04-02T13:47:42.909Z</time></trkpt><trkpt lat="42.4627763" lon="11.5862639"><ele>119.0</ele><time>2026-04-02T13:47:43.909Z</time></trkpt><trkpt lat="42.4625775" lon="11.5864121"><ele>118.0</ele><time>2026-04-02T13:47:44.909Z</time></trkpt><trkpt lat="42.4623764" lon="11.5865873"><ele>118.0</ele><time>2026-04-02T13:47:45.909Z</time></trkpt><trkpt lat="42.4621695" lon="11.5867856"><ele>118.0</ele><time>2026-04-02T13:47:46.908Z</time></trkpt><trkpt lat="42.4619505" lon="11.5870007"><ele>112.5</ele><time>2026-04-02T13:47:47.909Z</time></trkpt><trkpt lat="42.4617216" lon="11.5872266"><ele>107.0</ele><time>2026-04-02T13:47:48.911Z</time></trkpt><trkpt lat="42.4614814" lon="11.587453"><ele>107.0</ele><time>2026-04-02T13:47:49.91Z</time></trkpt><trkpt lat="42.4612289" lon="11.5876818"><ele>107.0</ele><time>2026-04-02T13:47:50.909Z</time></trkpt><trkpt lat="42.4609774" lon="11.5879106"><ele>109.5</ele><time>2026-04-02T13:47:51.91Z</time></trkpt><trkpt lat="42.4607267" lon="11.5881419"><ele>112.0</ele><time>2026-04-02T13:47:52.908Z</time></trkpt><trkpt lat="42.4604815" lon="11.5883712"><ele>112.5</ele><time>2026-04-02T13:47:53.91Z</time></trkpt><trkpt lat="42.4602385" lon="11.5886032"><ele>113.0</ele><time>2026-04-02T13:47:54.911Z</time></trkpt><trkpt lat="42.4600003" lon="11.5888284"><ele>113.0</ele><time>2026-04-02T13:47:55.912Z</time></trkpt><trkpt lat="42.4597697" lon="11.5890419"><ele>113.0</ele><time>2026-04-02T13:47:56.913Z</time></trkpt><trkpt lat="42.4595436" lon="11.5892532"><ele>114.0</ele><time>2026-04-02T13:47:57.917Z</time></trkpt><trkpt lat="42.4593228" lon="11.5894578"><ele>115.0</ele><time>2026-04-02T13:47:58.918Z</time></trkpt><trkpt lat="42.4591088" lon="11.5896575"><ele>115.0</ele><time>2026-04-02T13:47:59.911Z</time></trkpt><trkpt lat="42.4588998" lon="11.5898539"><ele>115.0</ele><time>2026-04-02T13:48:00.91Z</time></trkpt><trkpt lat="42.458697" lon="11.5900434"><ele>115.0</ele><time>2026-04-02T13:48:01.911Z</time></trkpt><trkpt lat="42.4584961" lon="11.5902306"><ele>115.0</ele><time>2026-04-02T13:48:02.911Z</time></trkpt><trkpt lat="42.4582985" lon="11.5904138"><ele>115.0</ele><time>2026-04-02T13:48:03.911Z</time></trkpt><trkpt lat="42.4581051" lon="11.5905943"><ele>115.0</ele><time>2026-04-02T13:48:04.91Z</time></trkpt><trkpt lat="42.4579126" lon="11.5907746"><ele>115.0</ele><time>2026-04-02T13:48:05.91Z</time></trkpt><trkpt lat="42.4577236" lon="11.5909566"><ele>115.0</ele><time>2026-04-02T13:48:06.909Z</time></trkpt><trkpt lat="42.4575359" lon="11.5911331"><ele>115.5</ele><time>2026-04-02T13:48:07.909Z</time></trkpt><trkpt lat="42.4573455" lon="11.5913124"><ele>116.0</ele><time>2026-04-02T13:48:08.911Z</time></trkpt><trkpt lat="42.4571512" lon="11.5914959"><ele>115.5</ele><time>2026-04-02T13:48:09.908Z</time></trkpt><trkpt lat="42.4569593" lon="11.5916798"><ele>115.0</ele><time>2026-04-02T13:48:10.913Z</time></trkpt><trkpt lat="42.456771" lon="11.5918582"><ele>116.5</ele><time>2026-04-02T13:48:11.909Z</time></trkpt><trkpt lat="42.4565759" lon="11.5920255"><ele>118.0</ele><time>2026-04-02T13:48:12.909Z</time></trkpt><trkpt lat="42.4563765" lon="11.5921752"><ele>117.33333333333334</ele><time>2026-04-02T13:48:13.91Z</time></trkpt><trkpt lat="42.4561764" lon="11.5923075"><ele>116.66666666666666</ele><time>2026-04-02T13:48:14.909Z</time></trkpt><trkpt lat="42.4559853" lon="11.5924264"><ele>116.0</ele><time>2026-04-02T13:48:15.909Z</time></trkpt><trkpt lat="42.4557938" lon="11.5925518"><ele>116.0</ele><time>2026-04-02T13:48:16.91Z</time></trkpt><trkpt lat="42.4556052" lon="11.5926718"><ele>116.0</ele><time>2026-04-02T13:48:17.908Z</time></trkpt><trkpt lat="42.4554157" lon="11.5927947"><ele>116.0</ele><time>2026-04-02T13:48:18.909Z</time></trkpt><trkpt lat="42.4552237" lon="11.5929189"><ele>116.66666666666666</ele><time>2026-04-02T13:48:19.909Z</time></trkpt><trkpt lat="42.4550277" lon="11.5930411"><ele>117.33333333333334</ele><time>2026-04-02T13:48:20.909Z</time></trkpt><trkpt lat="42.4548313" lon="11.5931741"><ele>118.0</ele><time>2026-04-02T13:48:21.915Z</time></trkpt><trkpt lat="42.4546377" lon="11.593299"><ele>116.0</ele><time>2026-04-02T13:48:22.908Z</time></trkpt><trkpt lat="42.4544343" lon="11.5934355"><ele>114.0</ele><time>2026-04-02T13:48:23.909Z</time></trkpt><trkpt lat="42.4542138" lon="11.5935885"><ele>113.5</ele><time>2026-04-02T13:48:24.917Z</time></trkpt><trkpt lat="42.4539764" lon="11.5937454"><ele>113.0</ele><time>2026-04-02T13:48:25.907Z</time></trkpt><trkpt lat="42.4537229" lon="11.5939104"><ele>113.0</ele><time>2026-04-02T13:48:26.909Z</time></trkpt><trkpt lat="42.4534568" lon="11.5940781"><ele>113.0</ele><time>2026-04-02T13:48:27.913Z</time></trkpt><trkpt lat="42.4531927" lon="11.5942428"><ele>112.0</ele><time>2026-04-02T13:48:28.911Z</time></trkpt><trkpt lat="42.4529414" lon="11.5943924"><ele>111.0</ele><time>2026-04-02T13:48:29.91Z</time></trkpt><trkpt lat="42.4526943" lon="11.5945434"><ele>111.0</ele><time>2026-04-02T13:48:30.914Z</time></trkpt><trkpt lat="42.4524547" lon="11.5946925"><ele>111.0</ele><time>2026-04-02T13:48:31.909Z</time></trkpt><trkpt lat="42.452226" lon="11.5948394"><ele>110.0</ele><time>2026-04-02T13:48:32.91Z</time></trkpt><trkpt lat="42.4520101" lon="11.5949749"><ele>109.0</ele><time>2026-04-02T13:48:33.909Z</time></trkpt><trkpt lat="42.4518048" lon="11.5951001"><ele>109.0</ele><time>2026-04-02T13:48:34.909Z</time></trkpt><trkpt lat="42.4516069" lon="11.5952412"><ele>109.0</ele><time>2026-04-02T13:48:35.912Z</time></trkpt><trkpt lat="42.4514173" lon="11.595403"><ele>109.0</ele><time>2026-04-02T13:48:36.91Z</time></trkpt><trkpt lat="42.4512316" lon="11.5955908"><ele>109.0</ele><time>2026-04-02T13:48:37.909Z</time></trkpt><trkpt lat="42.4508634" lon="11.596031"><ele>110.5</ele><time>2026-04-02T13:48:39.912Z</time></trkpt><trkpt lat="42.4506772" lon="11.5962729"><ele>112.0</ele><time>2026-04-02T13:48:40.912Z</time></trkpt><trkpt lat="42.4504885" lon="11.5965196"><ele>111.5</ele><time>2026-04-02T13:48:41.908Z</time></trkpt><trkpt lat="42.4502957" lon="11.5967639"><ele>111.0</ele><time>2026-04-02T13:48:42.911Z</time></trkpt><trkpt lat="42.4500999" lon="11.5970071"><ele>111.0</ele><time>2026-04-02T13:48:43.908Z</time></trkpt><trkpt lat="42.4499094" lon="11.597253"><ele>111.0</ele><time>2026-04-02T13:48:44.91Z</time></trkpt><trkpt lat="42.4497229" lon="11.597493"><ele>108.5</ele><time>2026-04-02T13:48:45.908Z</time></trkpt><trkpt lat="42.4495412" lon="11.5977243"><ele>106.0</ele><time>2026-04-02T13:48:46.912Z</time></trkpt><trkpt lat="42.4493723" lon="11.597938"><ele>105.66666666666667</ele><time>2026-04-02T13:48:47.909Z</time></trkpt><trkpt lat="42.449211" lon="11.5981423"><ele>105.33333333333334</ele><time>2026-04-02T13:48:48.91Z</time></trkpt><trkpt lat="42.4490527" lon="11.5983402"><ele>105.0</ele><time>2026-04-02T13:48:49.911Z</time></trkpt><trkpt lat="42.4489054" lon="11.5985293"><ele>104.33333333333334</ele><time>2026-04-02T13:48:50.911Z</time></trkpt><trkpt lat="42.4487659" lon="11.5987101"><ele>103.66666666666667</ele><time>2026-04-02T13:48:51.909Z</time></trkpt><trkpt lat="42.4486414" lon="11.5988802"><ele>103.0</ele><time>2026-04-02T13:48:52.91Z</time></trkpt><trkpt lat="42.448535" lon="11.5990431"><ele>103.0</ele><time>2026-04-02T13:48:53.91Z</time></trkpt><trkpt lat="42.4484373" lon="11.5992109"><ele>103.0</ele><time>2026-04-02T13:48:54.907Z</time></trkpt><trkpt lat="42.4483605" lon="11.5993994"><ele>103.0</ele><time>2026-04-02T13:48:55.909Z</time></trkpt><trkpt lat="42.4483054" lon="11.59962"><ele>103.0</ele><time>2026-04-02T13:48:56.909Z</time></trkpt><trkpt lat="42.448268" lon="11.5998711"><ele>103.0</ele><time>2026-04-02T13:48:57.91Z</time></trkpt><trkpt lat="42.4482374" lon="11.6001497"><ele>103.0</ele><time>2026-04-02T13:48:58.91Z</time></trkpt><trkpt lat="42.4481953" lon="11.6007599"><ele>101.5</ele><time>2026-04-02T13:49:00.911Z</time></trkpt><trkpt lat="42.4481715" lon="11.6010805"><ele>100.0</ele><time>2026-04-02T13:49:01.911Z</time></trkpt><trkpt lat="42.4481449" lon="11.601393"><ele>99.33333333333334</ele><time>2026-04-02T13:49:02.91Z</time></trkpt><trkpt lat="42.4481222" lon="11.6016802"><ele>98.66666666666666</ele><time>2026-04-02T13:49:03.91Z</time></trkpt><trkpt lat="42.4480957" lon="11.6019464"><ele>98.0</ele><time>2026-04-02T13:49:04.914Z</time></trkpt><trkpt lat="42.4480492" lon="11.602195"><ele>97.0</ele><time>2026-04-02T13:49:05.91Z</time></trkpt><trkpt lat="42.4479758" lon="11.6024315"><ele>96.0</ele><time>2026-04-02T13:49:06.91Z</time></trkpt><trkpt lat="42.447867" lon="11.6026599"><ele>95.0</ele><time>2026-04-02T13:49:07.911Z</time></trkpt><trkpt lat="42.4477228" lon="11.6028809"><ele>94.0</ele><time>2026-04-02T13:49:08.91Z</time></trkpt><trkpt lat="42.4475673" lon="11.6031168"><ele>93.0</ele><time>2026-04-02T13:49:09.917Z</time></trkpt><trkpt lat="42.4474068" lon="11.6033496"><ele>93.0</ele><time>2026-04-02T13:49:10.909Z</time></trkpt><trkpt lat="42.4472424" lon="11.6035891"><ele>93.0</ele><time>2026-04-02T13:49:11.911Z</time></trkpt><trkpt lat="42.4470801" lon="11.6038277"><ele>94.0</ele><time>2026-04-02T13:49:12.908Z</time></trkpt><trkpt lat="42.4469217" lon="11.6040584"><ele>95.0</ele><time>2026-04-02T13:49:13.911Z</time></trkpt><trkpt lat="42.4467717" lon="11.6042672"><ele>96.0</ele><time>2026-04-02T13:49:14.913Z</time></trkpt><trkpt lat="42.4466283" lon="11.6044652"><ele>95.33333333333333</ele><time>2026-04-02T13:49:15.909Z</time></trkpt><trkpt lat="42.4464838" lon="11.6046414"><ele>94.66666666666666</ele><time>2026-04-02T13:49:16.911Z</time></trkpt><trkpt lat="42.4463208" lon="11.6047963"><ele>94.0</ele><time>2026-04-02T13:49:17.91Z</time></trkpt><trkpt lat="42.4461372" lon="11.6049348"><ele>94.0</ele><time>2026-04-02T13:49:18.909Z</time></trkpt><trkpt lat="42.4459402" lon="11.6050736"><ele>94.0</ele><time>2026-04-02T13:49:19.91Z</time></trkpt><trkpt lat="42.4455102" lon="11.6053589"><ele>93.0</ele><time>2026-04-02T13:49:21.909Z</time></trkpt><trkpt lat="42.4452792" lon="11.605508"><ele>92.0</ele><time>2026-04-02T13:49:22.921Z</time></trkpt><trkpt lat="42.4450382" lon="11.6056702"><ele>92.0</ele><time>2026-04-02T13:49:23.91Z</time></trkpt><trkpt lat="42.4447944" lon="11.605839"><ele>92.0</ele><time>2026-04-02T13:49:24.91Z</time></trkpt><trkpt lat="42.4445425" lon="11.6060116"><ele>90.0</ele><time>2026-04-02T13:49:25.912Z</time></trkpt><trkpt lat="42.4442855" lon="11.6061916"><ele>88.0</ele><time>2026-04-02T13:49:26.912Z</time></trkpt><trkpt lat="42.4440202" lon="11.6063693"><ele>86.5</ele><time>2026-04-02T13:49:27.91Z</time></trkpt><trkpt lat="42.4437555" lon="11.6065505"><ele>85.0</ele><time>2026-04-02T13:49:28.91Z</time></trkpt><trkpt lat="42.4434901" lon="11.6067219"><ele>85.0</ele><time>2026-04-02T13:49:29.913Z</time></trkpt><trkpt lat="42.4432251" lon="11.6068958"><ele>85.0</ele><time>2026-04-02T13:49:30.91Z</time></trkpt><trkpt lat="42.4429608" lon="11.6070757"><ele>85.5</ele><time>2026-04-02T13:49:31.913Z</time></trkpt><trkpt lat="42.4427037" lon="11.6072568"><ele>86.0</ele><time>2026-04-02T13:49:32.916Z</time></trkpt><trkpt lat="42.4424486" lon="11.6074491"><ele>86.0</ele><time>2026-04-02T13:49:33.909Z</time></trkpt><trkpt lat="42.4421917" lon="11.6076597"><ele>86.0</ele><time>2026-04-02T13:49:34.911Z</time></trkpt><trkpt lat="42.4419369" lon="11.6078822"><ele>85.5</ele><time>2026-04-02T13:49:35.912Z</time></trkpt><trkpt lat="42.4416858" lon="11.6081082"><ele>85.0</ele><time>2026-04-02T13:49:36.91Z</time></trkpt><trkpt lat="42.4414363" lon="11.6083339"><ele>85.5</ele><time>2026-04-02T13:49:37.909Z</time></trkpt><trkpt lat="42.4411934" lon="11.6085576"><ele>86.0</ele><time>2026-04-02T13:49:38.913Z</time></trkpt><trkpt lat="42.4409552" lon="11.6087802"><ele>86.5</ele><time>2026-04-02T13:49:39.909Z</time></trkpt><trkpt lat="42.4407197" lon="11.6089985"><ele>87.0</ele><time>2026-04-02T13:49:40.914Z</time></trkpt><trkpt lat="42.4404886" lon="11.6092113"><ele>87.5</ele><time>2026-04-02T13:49:41.909Z</time></trkpt><trkpt lat="42.4402644" lon="11.6094237"><ele>88.0</ele><time>2026-04-02T13:49:42.909Z</time></trkpt><trkpt lat="42.4400456" lon="11.6096303"><ele>89.5</ele><time>2026-04-02T13:49:43.909Z</time></trkpt><trkpt lat="42.4398378" lon="11.6098226"><ele>91.0</ele><time>2026-04-02T13:49:44.909Z</time></trkpt><trkpt lat="42.439641" lon="11.6100055"><ele>90.0</ele><time>2026-04-02T13:49:45.91Z</time></trkpt><trkpt lat="42.4394493" lon="11.6101885"><ele>89.0</ele><time>2026-04-02T13:49:46.909Z</time></trkpt><trkpt lat="42.4392586" lon="11.6103642"><ele>89.0</ele><time>2026-04-02T13:49:47.911Z</time></trkpt><trkpt lat="42.4390756" lon="11.610536"><ele>89.0</ele><time>2026-04-02T13:49:48.913Z</time></trkpt><trkpt lat="42.4389005" lon="11.6106958"><ele>89.0</ele><time>2026-04-02T13:49:49.911Z</time></trkpt><trkpt lat="42.4387254" lon="11.6108513"><ele>89.66666666666667</ele><time>2026-04-02T13:49:50.913Z</time></trkpt><trkpt lat="42.4385523" lon="11.6110018"><ele>90.33333333333333</ele><time>2026-04-02T13:49:51.909Z</time></trkpt><trkpt lat="42.4383844" lon="11.611141"><ele>91.0</ele><time>2026-04-02T13:49:52.91Z</time></trkpt><trkpt lat="42.4382245" lon="11.6112752"><ele>91.0</ele><time>2026-04-02T13:49:53.912Z</time></trkpt><trkpt lat="42.4380599" lon="11.6114038"><ele>91.0</ele><time>2026-04-02T13:49:54.912Z</time></trkpt><trkpt lat="42.4378945" lon="11.6115361"><ele>91.0</ele><time>2026-04-02T13:49:55.908Z</time></trkpt><trkpt lat="42.4377234" lon="11.6116756"><ele>91.0</ele><time>2026-04-02T13:49:56.911Z</time></trkpt><trkpt lat="42.437545" lon="11.611817"><ele>91.0</ele><time>2026-04-02T13:49:57.909Z</time></trkpt><trkpt lat="42.4373607" lon="11.6119621"><ele>91.0</ele><time>2026-04-02T13:49:58.909Z</time></trkpt><trkpt lat="42.4371726" lon="11.6121116"><ele>89.5</ele><time>2026-04-02T13:49:59.909Z</time></trkpt><trkpt lat="42.4369766" lon="11.612263"><ele>88.0</ele><time>2026-04-02T13:50:00.909Z</time></trkpt><trkpt lat="42.4367754" lon="11.6124186"><ele>88.0</ele><time>2026-04-02T13:50:01.909Z</time></trkpt><trkpt lat="42.4365687" lon="11.6125815"><ele>88.0</ele><time>2026-04-02T13:50:02.909Z</time></trkpt><trkpt lat="42.4363613" lon="11.6127609"><ele>87.5</ele><time>2026-04-02T13:50:03.91Z</time></trkpt><trkpt lat="42.4361556" lon="11.6129521"><ele>87.0</ele><time>2026-04-02T13:50:04.911Z</time></trkpt><trkpt lat="42.4359493" lon="11.6131466"><ele>87.0</ele><time>2026-04-02T13:50:05.909Z</time></trkpt><trkpt lat="42.4357434" lon="11.6133438"><ele>87.0</ele><time>2026-04-02T13:50:06.909Z</time></trkpt><trkpt lat="42.4355361" lon="11.6135422"><ele>85.5</ele><time>2026-04-02T13:50:07.909Z</time></trkpt><trkpt lat="42.4353295" lon="11.6137404"><ele>84.0</ele><time>2026-04-02T13:50:08.91Z</time></trkpt><trkpt lat="42.4351241" lon="11.6139368"><ele>84.0</ele><time>2026-04-02T13:50:09.909Z</time></trkpt><trkpt lat="42.4349232" lon="11.6141344"><ele>84.0</ele><time>2026-04-02T13:50:10.915Z</time></trkpt><trkpt lat="42.4347255" lon="11.6143308"><ele>82.0</ele><time>2026-04-02T13:50:11.909Z</time></trkpt><trkpt lat="42.4343295" lon="11.6147179"><ele>82.0</ele><time>2026-04-02T13:50:13.909Z</time></trkpt><trkpt lat="42.4341385" lon="11.6149049"><ele>82.0</ele><time>2026-04-02T13:50:14.913Z</time></trkpt><trkpt lat="42.4339491" lon="11.6150882"><ele>82.33333333333333</ele><time>2026-04-02T13:50:15.909Z</time></trkpt><trkpt lat="42.4337659" lon="11.6152635"><ele>82.66666666666667</ele><time>2026-04-02T13:50:16.91Z</time></trkpt><trkpt lat="42.4335893" lon="11.6154295"><ele>83.0</ele><time>2026-04-02T13:50:17.91Z</time></trkpt><trkpt lat="42.4334182" lon="11.6155852"><ele>81.66666666666667</ele><time>2026-04-02T13:50:18.93Z</time></trkpt><trkpt lat="42.4332577" lon="11.6157346"><ele>80.33333333333333</ele><time>2026-04-02T13:50:19.911Z</time></trkpt><trkpt lat="42.4331062" lon="11.6158738"><ele>79.0</ele><time>2026-04-02T13:50:20.911Z</time></trkpt><trkpt lat="42.4329669" lon="11.6160097"><ele>79.0</ele><time>2026-04-02T13:50:21.908Z</time></trkpt><trkpt lat="42.4328461" lon="11.6161305"><ele>79.0</ele><time>2026-04-02T13:50:22.911Z</time></trkpt><trkpt lat="42.4327437" lon="11.6162511"><ele>79.0</ele><time>2026-04-02T13:50:23.909Z</time></trkpt><trkpt lat="42.4326619" lon="11.6163739"><ele>79.0</ele><time>2026-04-02T13:50:24.91Z</time></trkpt><trkpt lat="42.4325982" lon="11.6164939"><ele>78.60000000000001</ele><time>2026-04-02T13:50:25.909Z</time></trkpt><trkpt lat="42.4325472" lon="11.6165948"><ele>78.2</ele><time>2026-04-02T13:50:26.913Z</time></trkpt><trkpt lat="42.4324924" lon="11.6166664"><ele>77.80000000000001</ele><time>2026-04-02T13:50:27.909Z</time></trkpt><trkpt lat="42.4323757" lon="11.6166916"><ele>77.4</ele><time>2026-04-02T13:50:29.91Z</time></trkpt><trkpt lat="42.432296" lon="11.6166496"><ele>77.0</ele><time>2026-04-02T13:50:30.916Z</time></trkpt><trkpt lat="42.4321957" lon="11.6165836"><ele>76.0</ele><time>2026-04-02T13:50:31.911Z</time></trkpt><trkpt lat="42.4320756" lon="11.6164814"><ele>75.0</ele><time>2026-04-02T13:50:32.911Z</time></trkpt><trkpt lat="42.431939" lon="11.6163628"><ele>74.0</ele><time>2026-04-02T13:50:33.911Z</time></trkpt><trkpt lat="42.4317825" lon="11.6162193"><ele>74.33333333333334</ele><time>2026-04-02T13:50:34.91Z</time></trkpt><trkpt lat="42.4316052" lon="11.6160712"><ele>74.66666666666667</ele><time>2026-04-02T13:50:35.909Z</time></trkpt><trkpt lat="42.4314195" lon="11.6159121"><ele>75.0</ele><time>2026-04-02T13:50:36.91Z</time></trkpt><trkpt lat="42.4312216" lon="11.6157396"><ele>75.0</ele><time>2026-04-02T13:50:37.909Z</time></trkpt><trkpt lat="42.4310307" lon="11.6155737"><ele>75.0</ele><time>2026-04-02T13:50:38.91Z</time></trkpt><trkpt lat="42.4308601" lon="11.6154274"><ele>75.0</ele><time>2026-04-02T13:50:39.909Z</time></trkpt><trkpt lat="42.4307118" lon="11.6153015"><ele>76.0</ele><time>2026-04-02T13:50:40.91Z</time></trkpt><trkpt lat="42.4305662" lon="11.6152049"><ele>77.0</ele><time>2026-04-02T13:50:41.911Z</time></trkpt><trkpt lat="42.430407" lon="11.6151486"><ele>78.0</ele><time>2026-04-02T13:50:42.909Z</time></trkpt><trkpt lat="42.4302394" lon="11.615141"><ele>78.0</ele><time>2026-04-02T13:50:43.91Z</time></trkpt><trkpt lat="42.4300624" lon="11.6151783"><ele>78.0</ele><time>2026-04-02T13:50:44.91Z</time></trkpt><trkpt lat="42.4298704" lon="11.6152427"><ele>78.0</ele><time>2026-04-02T13:50:45.916Z</time></trkpt><trkpt lat="42.4296585" lon="11.6153326"><ele>79.5</ele><time>2026-04-02T13:50:46.911Z</time></trkpt><trkpt lat="42.4294461" lon="11.6154173"><ele>81.0</ele><time>2026-04-02T13:50:47.91Z</time></trkpt><trkpt lat="42.42922" lon="11.6155029"><ele>81.0</ele><time>2026-04-02T13:50:48.91Z</time></trkpt><trkpt lat="42.4289936" lon="11.6155909"><ele>81.0</ele><time>2026-04-02T13:50:49.913Z</time></trkpt><trkpt lat="42.4287656" lon="11.615682"><ele>82.5</ele><time>2026-04-02T13:50:50.91Z</time></trkpt><trkpt lat="42.4285431" lon="11.615769"><ele>84.0</ele><time>2026-04-02T13:50:51.909Z</time></trkpt><trkpt lat="42.4283085" lon="11.6158445"><ele>84.0</ele><time>2026-04-02T13:50:52.911Z</time></trkpt><trkpt lat="42.4280573" lon="11.6159034"><ele>84.0</ele><time>2026-04-02T13:50:53.91Z</time></trkpt><trkpt lat="42.4277953" lon="11.6159482"><ele>83.5</ele><time>2026-04-02T13:50:54.91Z</time></trkpt><trkpt lat="42.4275203" lon="11.6159891"><ele>83.0</ele><time>2026-04-02T13:50:55.91Z</time></trkpt><trkpt lat="42.4272319" lon="11.6160337"><ele>83.0</ele><time>2026-04-02T13:50:56.912Z</time></trkpt><trkpt lat="42.4269422" lon="11.6160786"><ele>83.0</ele><time>2026-04-02T13:50:57.912Z</time></trkpt><trkpt lat="42.4266426" lon="11.6161284"><ele>81.5</ele><time>2026-04-02T13:50:58.91Z</time></trkpt><trkpt lat="42.4263412" lon="11.6161838"><ele>80.0</ele><time>2026-04-02T13:50:59.909Z</time></trkpt><trkpt lat="42.4260401" lon="11.6162349"><ele>79.5</ele><time>2026-04-02T13:51:00.909Z</time></trkpt><trkpt lat="42.4257516" lon="11.6162872"><ele>79.0</ele><time>2026-04-02T13:51:01.91Z</time></trkpt><trkpt lat="42.4254731" lon="11.6163419"><ele>79.0</ele><time>2026-04-02T13:51:02.91Z</time></trkpt><trkpt lat="42.4251958" lon="11.6163772"><ele>79.0</ele><time>2026-04-02T13:51:03.909Z</time></trkpt><trkpt lat="42.4246276" lon="11.6163514"><ele>79.0</ele><time>2026-04-02T13:51:05.914Z</time></trkpt><trkpt lat="42.4243387" lon="11.6163057"><ele>79.0</ele><time>2026-04-02T13:51:06.91Z</time></trkpt><trkpt lat="42.4240406" lon="11.6162465"><ele>78.5</ele><time>2026-04-02T13:51:07.91Z</time></trkpt><trkpt lat="42.4237459" lon="11.6161835"><ele>78.0</ele><time>2026-04-02T13:51:08.91Z</time></trkpt><trkpt lat="42.4234514" lon="11.6161326"><ele>76.5</ele><time>2026-04-02T13:51:09.912Z</time></trkpt><trkpt lat="42.423154" lon="11.6160828"><ele>75.0</ele><time>2026-04-02T13:51:10.909Z</time></trkpt><trkpt lat="42.422862" lon="11.6160148"><ele>73.5</ele><time>2026-04-02T13:51:11.911Z</time></trkpt><trkpt lat="42.4225688" lon="11.6159231"><ele>72.0</ele><time>2026-04-02T13:51:12.909Z</time></trkpt><trkpt lat="42.4222778" lon="11.6158063"><ele>73.5</ele><time>2026-04-02T13:51:13.91Z</time></trkpt><trkpt lat="42.4219956" lon="11.6156775"><ele>75.0</ele><time>2026-04-02T13:51:14.91Z</time></trkpt><trkpt lat="42.4217291" lon="11.6155517"><ele>75.0</ele><time>2026-04-02T13:51:15.908Z</time></trkpt><trkpt lat="42.4214734" lon="11.615434"><ele>75.0</ele><time>2026-04-02T13:51:16.908Z</time></trkpt><trkpt lat="42.4212244" lon="11.6153187"><ele>74.0</ele><time>2026-04-02T13:51:17.912Z</time></trkpt><trkpt lat="42.4209733" lon="11.6152038"><ele>73.0</ele><time>2026-04-02T13:51:18.909Z</time></trkpt><trkpt lat="42.4207212" lon="11.6150818"><ele>71.0</ele><time>2026-04-02T13:51:19.912Z</time></trkpt><trkpt lat="42.4204631" lon="11.6149523"><ele>69.0</ele><time>2026-04-02T13:51:20.909Z</time></trkpt><trkpt lat="42.4201999" lon="11.6148046"><ele>69.0</ele><time>2026-04-02T13:51:21.91Z</time></trkpt><trkpt lat="42.4199385" lon="11.6146449"><ele>69.0</ele><time>2026-04-02T13:51:22.909Z</time></trkpt><trkpt lat="42.4196697" lon="11.6144837"><ele>68.0</ele><time>2026-04-02T13:51:23.91Z</time></trkpt><trkpt lat="42.4193991" lon="11.6143165"><ele>67.0</ele><time>2026-04-02T13:51:24.91Z</time></trkpt><trkpt lat="42.4188473" lon="11.6139812"><ele>66.5</ele><time>2026-04-02T13:51:26.911Z</time></trkpt><trkpt lat="42.4185699" lon="11.6138163"><ele>66.0</ele><time>2026-04-02T13:51:27.908Z</time></trkpt><trkpt lat="42.4182998" lon="11.6136471"><ele>66.0</ele><time>2026-04-02T13:51:28.908Z</time></trkpt><trkpt lat="42.4180423" lon="11.6134906"><ele>66.0</ele><time>2026-04-02T13:51:29.91Z</time></trkpt><trkpt lat="42.4177992" lon="11.6133425"><ele>66.0</ele><time>2026-04-02T13:51:30.909Z</time></trkpt><trkpt lat="42.4175627" lon="11.6132122"><ele>66.0</ele><time>2026-04-02T13:51:31.911Z</time></trkpt><trkpt lat="42.4173122" lon="11.6130992"><ele>64.5</ele><time>2026-04-02T13:51:32.91Z</time></trkpt><trkpt lat="42.4170447" lon="11.6130259"><ele>63.0</ele><time>2026-04-02T13:51:33.908Z</time></trkpt><trkpt lat="42.4167637" lon="11.6129797"><ele>63.0</ele><time>2026-04-02T13:51:34.908Z</time></trkpt><trkpt lat="42.4164709" lon="11.6129392"><ele>63.0</ele><time>2026-04-02T13:51:35.91Z</time></trkpt><trkpt lat="42.4161678" lon="11.612901"><ele>62.5</ele><time>2026-04-02T13:51:36.91Z</time></trkpt><trkpt lat="42.4158528" lon="11.6128658"><ele>62.0</ele><time>2026-04-02T13:51:37.911Z</time></trkpt><trkpt lat="42.4155263" lon="11.6128271"><ele>62.5</ele><time>2026-04-02T13:51:38.91Z</time></trkpt><trkpt lat="42.4151866" lon="11.6127917"><ele>63.0</ele><time>2026-04-02T13:51:39.91Z</time></trkpt><trkpt lat="42.4148422" lon="11.612748"><ele>63.5</ele><time>2026-04-02T13:51:40.91Z</time></trkpt><trkpt lat="42.4145179" lon="11.6127084"><ele>64.0</ele><time>2026-04-02T13:51:41.909Z</time></trkpt><trkpt lat="42.4142081" lon="11.6126696"><ele>64.0</ele><time>2026-04-02T13:51:42.91Z</time></trkpt><trkpt lat="42.4139147" lon="11.6126329"><ele>64.0</ele><time>2026-04-02T13:51:43.913Z</time></trkpt><trkpt lat="42.4136396" lon="11.6125965"><ele>65.5</ele><time>2026-04-02T13:51:44.91Z</time></trkpt><trkpt lat="42.4133763" lon="11.6125625"><ele>67.0</ele><time>2026-04-02T13:51:45.91Z</time></trkpt><trkpt lat="42.4131224" lon="11.6125194"><ele>68.0</ele><time>2026-04-02T13:51:46.913Z</time></trkpt><trkpt lat="42.4128772" lon="11.6124566"><ele>69.0</ele><time>2026-04-02T13:51:47.911Z</time></trkpt><trkpt lat="42.4126323" lon="11.6123682"><ele>69.0</ele><time>2026-04-02T13:51:48.91Z</time></trkpt><trkpt lat="42.4124018" lon="11.6122682"><ele>69.0</ele><time>2026-04-02T13:51:49.913Z</time></trkpt><trkpt lat="42.4121751" lon="11.612189"><ele>70.0</ele><time>2026-04-02T13:51:50.911Z</time></trkpt><trkpt lat="42.4119373" lon="11.6121394"><ele>71.0</ele><time>2026-04-02T13:51:51.909Z</time></trkpt><trkpt lat="42.4116911" lon="11.6121326"><ele>71.0</ele><time>2026-04-02T13:51:52.913Z</time></trkpt><trkpt lat="42.411437" lon="11.6121402"><ele>71.0</ele><time>2026-04-02T13:51:53.908Z</time></trkpt><trkpt lat="42.4111787" lon="11.6121556"><ele>72.5</ele><time>2026-04-02T13:51:54.911Z</time></trkpt><trkpt lat="42.4109202" lon="11.6121752"><ele>74.0</ele><time>2026-04-02T13:51:55.915Z</time></trkpt><trkpt lat="42.4106661" lon="11.6121919"><ele>73.5</ele><time>2026-04-02T13:51:56.916Z</time></trkpt><trkpt lat="42.4104211" lon="11.6122075"><ele>73.0</ele><time>2026-04-02T13:51:57.911Z</time></trkpt><trkpt lat="42.4101785" lon="11.6122222"><ele>73.0</ele><time>2026-04-02T13:51:58.911Z</time></trkpt><trkpt lat="42.4099354" lon="11.6122375"><ele>73.0</ele><time>2026-04-02T13:51:59.911Z</time></trkpt><trkpt lat="42.4096942" lon="11.6122528"><ele>73.0</ele><time>2026-04-02T13:52:00.91Z</time></trkpt><trkpt lat="42.4094516" lon="11.6122698"><ele>73.0</ele><time>2026-04-02T13:52:01.91Z</time></trkpt><trkpt lat="42.4092053" lon="11.6122897"><ele>73.0</ele><time>2026-04-02T13:52:02.911Z</time></trkpt><trkpt lat="42.4089561" lon="11.6123047"><ele>73.0</ele><time>2026-04-02T13:52:03.909Z</time></trkpt><trkpt lat="42.4087029" lon="11.6123221"><ele>73.0</ele><time>2026-04-02T13:52:04.911Z</time></trkpt><trkpt lat="42.408451" lon="11.6123325"><ele>73.0</ele><time>2026-04-02T13:52:05.916Z</time></trkpt><trkpt lat="42.4082027" lon="11.6123456"><ele>73.0</ele><time>2026-04-02T13:52:06.908Z</time></trkpt><trkpt lat="42.4077403" lon="11.612374"><ele>73.0</ele><time>2026-04-02T13:52:08.91Z</time></trkpt><trkpt lat="42.4075173" lon="11.6123926"><ele>73.0</ele><time>2026-04-02T13:52:09.911Z</time></trkpt><trkpt lat="42.4072911" lon="11.612408"><ele>72.0</ele><time>2026-04-02T13:52:10.911Z</time></trkpt><trkpt lat="42.4070599" lon="11.612444"><ele>71.0</ele><time>2026-04-02T13:52:11.909Z</time></trkpt><trkpt lat="42.4068256" lon="11.6125095"><ele>71.0</ele><time>2026-04-02T13:52:12.91Z</time></trkpt><trkpt lat="42.4065867" lon="11.6126015"><ele>71.0</ele><time>2026-04-02T13:52:13.91Z</time></trkpt><trkpt lat="42.4063458" lon="11.6127218"><ele>70.5</ele><time>2026-04-02T13:52:14.909Z</time></trkpt><trkpt lat="42.4060973" lon="11.6128548"><ele>70.0</ele><time>2026-04-02T13:52:15.91Z</time></trkpt><trkpt lat="42.4058445" lon="11.6129878"><ele>70.0</ele><time>2026-04-02T13:52:16.913Z</time></trkpt><trkpt lat="42.4055927" lon="11.6131245"><ele>70.0</ele><time>2026-04-02T13:52:17.913Z</time></trkpt><trkpt lat="42.405353" lon="11.6132529"><ele>70.0</ele><time>2026-04-02T13:52:18.912Z</time></trkpt><trkpt lat="42.4051148" lon="11.6133836"><ele>70.0</ele><time>2026-04-02T13:52:19.908Z</time></trkpt><trkpt lat="42.4048792" lon="11.6135062"><ele>70.5</ele><time>2026-04-02T13:52:20.91Z</time></trkpt><trkpt lat="42.4046438" lon="11.6136317"><ele>71.0</ele><time>2026-04-02T13:52:21.909Z</time></trkpt><trkpt lat="42.4044053" lon="11.6137533"><ele>71.5</ele><time>2026-04-02T13:52:22.914Z</time></trkpt><trkpt lat="42.4041646" lon="11.613879"><ele>72.0</ele><time>2026-04-02T13:52:23.908Z</time></trkpt><trkpt lat="42.403915" lon="11.6140064"><ele>71.5</ele><time>2026-04-02T13:52:24.91Z</time></trkpt><trkpt lat="42.4036554" lon="11.6141372"><ele>71.0</ele><time>2026-04-02T13:52:25.91Z</time></trkpt><trkpt lat="42.4033942" lon="11.614275"><ele>71.0</ele><time>2026-04-02T13:52:26.91Z</time></trkpt><trkpt lat="42.403129" lon="11.6144184"><ele>71.0</ele><time>2026-04-02T13:52:27.91Z</time></trkpt><trkpt lat="42.4028621" lon="11.6145595"><ele>70.5</ele><time>2026-04-02T13:52:28.91Z</time></trkpt><trkpt lat="42.4026079" lon="11.6146884"><ele>70.0</ele><time>2026-04-02T13:52:29.917Z</time></trkpt><trkpt lat="42.4023541" lon="11.6148096"><ele>69.5</ele><time>2026-04-02T13:52:30.909Z</time></trkpt><trkpt lat="42.4020995" lon="11.6149405"><ele>69.0</ele><time>2026-04-02T13:52:31.909Z</time></trkpt><trkpt lat="42.4018456" lon="11.6150703"><ele>69.0</ele><time>2026-04-02T13:52:32.909Z</time></trkpt><trkpt lat="42.4015964" lon="11.6151945"><ele>69.0</ele><time>2026-04-02T13:52:33.91Z</time></trkpt><trkpt lat="42.4013499" lon="11.6153256"><ele>66.0</ele><time>2026-04-02T13:52:34.91Z</time></trkpt><trkpt lat="42.4011067" lon="11.6154543"><ele>63.0</ele><time>2026-04-02T13:52:35.911Z</time></trkpt><trkpt lat="42.400859" lon="11.6155851"><ele>63.0</ele><time>2026-04-02T13:52:36.909Z</time></trkpt><trkpt lat="42.4006101" lon="11.6157133"><ele>63.0</ele><time>2026-04-02T13:52:37.909Z</time></trkpt><trkpt lat="42.4003681" lon="11.6158463"><ele>62.5</ele><time>2026-04-02T13:52:38.91Z</time></trkpt><trkpt lat="42.4001286" lon="11.6159681"><ele>62.0</ele><time>2026-04-02T13:52:39.91Z</time></trkpt><trkpt lat="42.3998925" lon="11.6160887"><ele>64.5</ele><time>2026-04-02T13:52:40.91Z</time></trkpt><trkpt lat="42.3996698" lon="11.6162067"><ele>67.0</ele><time>2026-04-02T13:52:41.909Z</time></trkpt><trkpt lat="42.3994579" lon="11.6163115"><ele>67.0</ele><time>2026-04-02T13:52:42.911Z</time></trkpt><trkpt lat="42.3992565" lon="11.6163733"><ele>67.0</ele><time>2026-04-02T13:52:43.91Z</time></trkpt><trkpt lat="42.3990584" lon="11.6163897"><ele>67.0</ele><time>2026-04-02T13:52:44.909Z</time></trkpt><trkpt lat="42.3988529" lon="11.6163682"><ele>66.33333333333333</ele><time>2026-04-02T13:52:45.91Z</time></trkpt><trkpt lat="42.3986394" lon="11.6163184"><ele>65.66666666666667</ele><time>2026-04-02T13:52:46.911Z</time></trkpt><trkpt lat="42.3984228" lon="11.6162535"><ele>65.0</ele><time>2026-04-02T13:52:47.912Z</time></trkpt><trkpt lat="42.3981968" lon="11.616184"><ele>65.0</ele><time>2026-04-02T13:52:48.91Z</time></trkpt><trkpt lat="42.3977159" lon="11.6160418"><ele>65.0</ele><time>2026-04-02T13:52:50.912Z</time></trkpt><trkpt lat="42.3974608" lon="11.6159718"><ele>65.0</ele><time>2026-04-02T13:52:51.908Z</time></trkpt><trkpt lat="42.3972032" lon="11.6159023"><ele>66.0</ele><time>2026-04-02T13:52:52.915Z</time></trkpt><trkpt lat="42.396931" lon="11.6158324"><ele>67.0</ele><time>2026-04-02T13:52:53.911Z</time></trkpt><trkpt lat="42.3966565" lon="11.6157612"><ele>67.0</ele><time>2026-04-02T13:52:54.912Z</time></trkpt><trkpt lat="42.3963827" lon="11.6156872"><ele>67.0</ele><time>2026-04-02T13:52:55.908Z</time></trkpt><trkpt lat="42.3961068" lon="11.6156138"><ele>65.5</ele><time>2026-04-02T13:52:56.909Z</time></trkpt><trkpt lat="42.395835" lon="11.6155404"><ele>64.0</ele><time>2026-04-02T13:52:57.912Z</time></trkpt><trkpt lat="42.3955679" lon="11.6154662"><ele>63.5</ele><time>2026-04-02T13:52:58.91Z</time></trkpt><trkpt lat="42.3953025" lon="11.6153906"><ele>63.0</ele><time>2026-04-02T13:52:59.912Z</time></trkpt><trkpt lat="42.3950391" lon="11.6153181"><ele>63.0</ele><time>2026-04-02T13:53:00.911Z</time></trkpt><trkpt lat="42.3947789" lon="11.6152496"><ele>63.0</ele><time>2026-04-02T13:53:01.909Z</time></trkpt><trkpt lat="42.39452" lon="11.6151812"><ele>62.5</ele><time>2026-04-02T13:53:02.91Z</time></trkpt><trkpt lat="42.3942584" lon="11.6151107"><ele>62.0</ele><time>2026-04-02T13:53:03.908Z</time></trkpt><trkpt lat="42.3939985" lon="11.61504"><ele>62.0</ele><time>2026-04-02T13:53:04.909Z</time></trkpt><trkpt lat="42.3937392" lon="11.6149678"><ele>62.0</ele><time>2026-04-02T13:53:05.909Z</time></trkpt><trkpt lat="42.3934838" lon="11.6148927"><ele>62.0</ele><time>2026-04-02T13:53:06.909Z</time></trkpt><trkpt lat="42.3932291" lon="11.6148254"><ele>62.0</ele><time>2026-04-02T13:53:07.908Z</time></trkpt><trkpt lat="42.3929745" lon="11.6147588"><ele>62.0</ele><time>2026-04-02T13:53:08.91Z</time></trkpt><trkpt lat="42.3927204" lon="11.6146895"><ele>62.0</ele><time>2026-04-02T13:53:09.909Z</time></trkpt><trkpt lat="42.392467" lon="11.6146217"><ele>62.0</ele><time>2026-04-02T13:53:10.912Z</time></trkpt><trkpt lat="42.3922143" lon="11.6145529"><ele>62.0</ele><time>2026-04-02T13:53:11.909Z</time></trkpt><trkpt lat="42.391958" lon="11.6144863"><ele>59.5</ele><time>2026-04-02T13:53:12.909Z</time></trkpt><trkpt lat="42.3917042" lon="11.6144161"><ele>57.0</ele><time>2026-04-02T13:53:13.91Z</time></trkpt><trkpt lat="42.3914509" lon="11.6143475"><ele>58.0</ele><time>2026-04-02T13:53:14.911Z</time></trkpt><trkpt lat="42.3911941" lon="11.6142757"><ele>59.0</ele><time>2026-04-02T13:53:15.91Z</time></trkpt><trkpt lat="42.3909357" lon="11.6142035"><ele>59.0</ele><time>2026-04-02T13:53:16.912Z</time></trkpt><trkpt lat="42.3906766" lon="11.6141375"><ele>59.0</ele><time>2026-04-02T13:53:17.91Z</time></trkpt><trkpt lat="42.3904171" lon="11.614072"><ele>57.5</ele><time>2026-04-02T13:53:18.911Z</time></trkpt><trkpt lat="42.3901677" lon="11.6140024"><ele>56.0</ele><time>2026-04-02T13:53:19.91Z</time></trkpt><trkpt lat="42.3899314" lon="11.613935"><ele>56.0</ele><time>2026-04-02T13:53:20.91Z</time></trkpt><trkpt lat="42.3897093" lon="11.613872"><ele>56.0</ele><time>2026-04-02T13:53:21.912Z</time></trkpt><trkpt lat="42.3894973" lon="11.6138213"><ele>56.0</ele><time>2026-04-02T13:53:22.91Z</time></trkpt><trkpt lat="42.3892817" lon="11.6137731"><ele>56.333333333333336</ele><time>2026-04-02T13:53:23.911Z</time></trkpt><trkpt lat="42.3890603" lon="11.6137382"><ele>56.66666666666667</ele><time>2026-04-02T13:53:24.911Z</time></trkpt><trkpt lat="42.3888387" lon="11.6137123"><ele>57.0</ele><time>2026-04-02T13:53:25.911Z</time></trkpt><trkpt lat="42.3886128" lon="11.6136986"><ele>57.5</ele><time>2026-04-02T13:53:26.91Z</time></trkpt><trkpt lat="42.3883847" lon="11.6136818"><ele>58.0</ele><time>2026-04-02T13:53:27.911Z</time></trkpt><trkpt lat="42.3881471" lon="11.6136723"><ele>58.5</ele><time>2026-04-02T13:53:28.91Z</time></trkpt><trkpt lat="42.3879054" lon="11.6136575"><ele>59.0</ele><time>2026-04-02T13:53:29.91Z</time></trkpt><trkpt lat="42.3876553" lon="11.6136485"><ele>55.0</ele><time>2026-04-02T13:53:30.91Z</time></trkpt><trkpt lat="42.3871495" lon="11.6136191"><ele>55.0</ele><time>2026-04-02T13:53:32.909Z</time></trkpt><trkpt lat="42.3868943" lon="11.6136064"><ele>55.0</ele><time>2026-04-02T13:53:33.91Z</time></trkpt><trkpt lat="42.3866345" lon="11.6135895"><ele>55.0</ele><time>2026-04-02T13:53:34.91Z</time></trkpt><trkpt lat="42.3863692" lon="11.6135742"><ele>55.0</ele><time>2026-04-02T13:53:35.912Z</time></trkpt><trkpt lat="42.3860963" lon="11.6135657"><ele>55.0</ele><time>2026-04-02T13:53:36.911Z</time></trkpt><trkpt lat="42.3858242" lon="11.613554"><ele>55.0</ele><time>2026-04-02T13:53:37.91Z</time></trkpt><trkpt lat="42.3855548" lon="11.6135403"><ele>55.0</ele><time>2026-04-02T13:53:38.913Z</time></trkpt><trkpt lat="42.3852855" lon="11.6135269"><ele>55.0</ele><time>2026-04-02T13:53:39.924Z</time></trkpt><trkpt lat="42.3850185" lon="11.6135099"><ele>55.0</ele><time>2026-04-02T13:53:40.91Z</time></trkpt><trkpt lat="42.38475" lon="11.6135024"><ele>55.0</ele><time>2026-04-02T13:53:41.91Z</time></trkpt><trkpt lat="42.3844813" lon="11.6134916"><ele>54.5</ele><time>2026-04-02T13:53:42.91Z</time></trkpt><trkpt lat="42.3842076" lon="11.6134806"><ele>54.0</ele><time>2026-04-02T13:53:43.912Z</time></trkpt><trkpt lat="42.3839302" lon="11.6134686"><ele>53.5</ele><time>2026-04-02T13:53:44.911Z</time></trkpt><trkpt lat="42.3836442" lon="11.6134612"><ele>53.0</ele><time>2026-04-02T13:53:45.91Z</time></trkpt><trkpt lat="42.383355" lon="11.6134523"><ele>53.0</ele><time>2026-04-02T13:53:46.913Z</time></trkpt><trkpt lat="42.3830605" lon="11.6134426"><ele>53.0</ele><time>2026-04-02T13:53:47.911Z</time></trkpt><trkpt lat="42.382764" lon="11.6134321"><ele>53.0</ele><time>2026-04-02T13:53:48.911Z</time></trkpt><trkpt lat="42.3824718" lon="11.6134128"><ele>53.0</ele><time>2026-04-02T13:53:49.91Z</time></trkpt><trkpt lat="42.3821799" lon="11.6133952"><ele>52.0</ele><time>2026-04-02T13:53:50.91Z</time></trkpt><trkpt lat="42.3818896" lon="11.6133759"><ele>51.0</ele><time>2026-04-02T13:53:51.911Z</time></trkpt><trkpt lat="42.3813593" lon="11.6133438"><ele>49.5</ele><time>2026-04-02T13:53:53.909Z</time></trkpt><trkpt lat="42.3811163" lon="11.6133287"><ele>48.0</ele><time>2026-04-02T13:53:54.911Z</time></trkpt><trkpt lat="42.3808804" lon="11.6133128"><ele>48.0</ele><time>2026-04-02T13:53:55.914Z</time></trkpt><trkpt lat="42.3806708" lon="11.6132982"><ele>48.0</ele><time>2026-04-02T13:53:56.909Z</time></trkpt><trkpt lat="42.3804646" lon="11.613273"><ele>48.0</ele><time>2026-04-02T13:53:57.911Z</time></trkpt><trkpt lat="42.3802648" lon="11.6132184"><ele>48.33333333333333</ele><time>2026-04-02T13:53:58.91Z</time></trkpt><trkpt lat="42.3800702" lon="11.6131282"><ele>48.666666666666664</ele><time>2026-04-02T13:53:59.91Z</time></trkpt><trkpt lat="42.3798786" lon="11.6129891"><ele>49.0</ele><time>2026-04-02T13:54:00.91Z</time></trkpt><trkpt lat="42.3796844" lon="11.612823"><ele>49.0</ele><time>2026-04-02T13:54:01.91Z</time></trkpt><trkpt lat="42.3794862" lon="11.6126423"><ele>49.0</ele><time>2026-04-02T13:54:02.91Z</time></trkpt><trkpt lat="42.3792818" lon="11.6124587"><ele>49.0</ele><time>2026-04-02T13:54:03.913Z</time></trkpt><trkpt lat="42.3790865" lon="11.6122843"><ele>49.0</ele><time>2026-04-02T13:54:04.911Z</time></trkpt><trkpt lat="42.3788903" lon="11.6121142"><ele>50.0</ele><time>2026-04-02T13:54:05.908Z</time></trkpt><trkpt lat="42.3786967" lon="11.6119463"><ele>51.0</ele><time>2026-04-02T13:54:06.91Z</time></trkpt><trkpt lat="42.3785048" lon="11.6117795"><ele>51.0</ele><time>2026-04-02T13:54:07.909Z</time></trkpt><trkpt lat="42.3783146" lon="11.6116161"><ele>51.0</ele><time>2026-04-02T13:54:08.916Z</time></trkpt><trkpt lat="42.3781267" lon="11.6114428"><ele>50.0</ele><time>2026-04-02T13:54:09.909Z</time></trkpt><trkpt lat="42.3779414" lon="11.6112546"><ele>49.0</ele><time>2026-04-02T13:54:10.91Z</time></trkpt><trkpt lat="42.3777576" lon="11.6110716"><ele>48.666666666666664</ele><time>2026-04-02T13:54:11.91Z</time></trkpt><trkpt lat="42.3775851" lon="11.6108977"><ele>48.33333333333333</ele><time>2026-04-02T13:54:12.91Z</time></trkpt><trkpt lat="42.377426" lon="11.6107314"><ele>48.0</ele><time>2026-04-02T13:54:13.909Z</time></trkpt><trkpt lat="42.3772724" lon="11.6105741"><ele>47.333333333333336</ele><time>2026-04-02T13:54:14.912Z</time></trkpt><trkpt lat="42.3771232" lon="11.6104277"><ele>46.66666666666667</ele><time>2026-04-02T13:54:15.911Z</time></trkpt><trkpt lat="42.3769714" lon="11.6102942"><ele>46.0</ele><time>2026-04-02T13:54:16.913Z</time></trkpt><trkpt lat="42.3768082" lon="11.6101706"><ele>46.0</ele><time>2026-04-02T13:54:17.91Z</time></trkpt><trkpt lat="42.3766324" lon="11.6100662"><ele>46.0</ele><time>2026-04-02T13:54:18.909Z</time></trkpt><trkpt lat="42.3764402" lon="11.6099825"><ele>46.0</ele><time>2026-04-02T13:54:19.908Z</time></trkpt><trkpt lat="42.3762375" lon="11.6099072"><ele>45.333333333333336</ele><time>2026-04-02T13:54:20.909Z</time></trkpt><trkpt lat="42.3760373" lon="11.6098463"><ele>44.666666666666664</ele><time>2026-04-02T13:54:21.91Z</time></trkpt><trkpt lat="42.3758454" lon="11.6097917"><ele>44.0</ele><time>2026-04-02T13:54:22.914Z</time></trkpt><trkpt lat="42.3754798" lon="11.6097238"><ele>44.0</ele><time>2026-04-02T13:54:24.915Z</time></trkpt><trkpt lat="42.3753115" lon="11.6097177"><ele>44.0</ele><time>2026-04-02T13:54:25.911Z</time></trkpt><trkpt lat="42.3751657" lon="11.6097178"><ele>44.0</ele><time>2026-04-02T13:54:26.91Z</time></trkpt><trkpt lat="42.375034" lon="11.6097254"><ele>44.0</ele><time>2026-04-02T13:54:27.91Z</time></trkpt><trkpt lat="42.3749142" lon="11.6097379"><ele>44.0</ele><time>2026-04-02T13:54:28.913Z</time></trkpt><trkpt lat="42.3748037" lon="11.6097471"><ele>44.0</ele><time>2026-04-02T13:54:29.91Z</time></trkpt><trkpt lat="42.3746996" lon="11.6097541"><ele>44.0</ele><time>2026-04-02T13:54:30.911Z</time></trkpt><trkpt lat="42.3746035" lon="11.6097623"><ele>44.0</ele><time>2026-04-02T13:54:31.911Z</time></trkpt><trkpt lat="42.3745128" lon="11.6097761"><ele>44.0</ele><time>2026-04-02T13:54:32.912Z</time></trkpt><trkpt lat="42.3744348" lon="11.6097867"><ele>44.0</ele><time>2026-04-02T13:54:33.914Z</time></trkpt><trkpt lat="42.3743596" lon="11.6097828"><ele>44.0</ele><time>2026-04-02T13:54:34.914Z</time></trkpt><trkpt lat="42.3742895" lon="11.6097721"><ele>44.0</ele><time>2026-04-02T13:54:35.909Z</time></trkpt><trkpt lat="42.3742106" lon="11.6097515"><ele>44.0</ele><time>2026-04-02T13:54:36.91Z</time></trkpt><trkpt lat="42.3741139" lon="11.609701"><ele>44.0</ele><time>2026-04-02T13:54:37.909Z</time></trkpt><trkpt lat="42.3740044" lon="11.6096106"><ele>44.0</ele><time>2026-04-02T13:54:38.911Z</time></trkpt><trkpt lat="42.3738848" lon="11.6094829"><ele>44.0</ele><time>2026-04-02T13:54:39.909Z</time></trkpt><trkpt lat="42.3737475" lon="11.609323"><ele>44.0</ele><time>2026-04-02T13:54:40.91Z</time></trkpt><trkpt lat="42.3736072" lon="11.6091435"><ele>43.33333333333333</ele><time>2026-04-02T13:54:41.911Z</time></trkpt><trkpt lat="42.3734614" lon="11.608957"><ele>42.666666666666664</ele><time>2026-04-02T13:54:42.911Z</time></trkpt><trkpt lat="42.3733156" lon="11.6087651"><ele>42.0</ele><time>2026-04-02T13:54:43.91Z</time></trkpt><trkpt lat="42.3731602" lon="11.6085711"><ele>41.666666666666664</ele><time>2026-04-02T13:54:44.913Z</time></trkpt><trkpt lat="42.3729932" lon="11.6083719"><ele>41.33333333333333</ele><time>2026-04-02T13:54:45.915Z</time></trkpt><trkpt lat="42.372823" lon="11.6081746"><ele>41.0</ele><time>2026-04-02T13:54:46.911Z</time></trkpt><trkpt lat="42.3726529" lon="11.6079726"><ele>39.5</ele><time>2026-04-02T13:54:47.91Z</time></trkpt><trkpt lat="42.3724735" lon="11.6077645"><ele>38.0</ele><time>2026-04-02T13:54:48.911Z</time></trkpt><trkpt lat="42.3722925" lon="11.6075549"><ele>41.0</ele><time>2026-04-02T13:54:49.91Z</time></trkpt><trkpt lat="42.3721123" lon="11.6073468"><ele>44.0</ele><time>2026-04-02T13:54:50.911Z</time></trkpt><trkpt lat="42.371931" lon="11.6071324"><ele>41.5</ele><time>2026-04-02T13:54:51.91Z</time></trkpt><trkpt lat="42.3717537" lon="11.6069171"><ele>39.0</ele><time>2026-04-02T13:54:52.912Z</time></trkpt><trkpt lat="42.3715749" lon="11.6067033"><ele>39.0</ele><time>2026-04-02T13:54:53.909Z</time></trkpt><trkpt lat="42.371388" lon="11.6064842"><ele>39.0</ele><time>2026-04-02T13:54:54.914Z</time></trkpt><trkpt lat="42.3711989" lon="11.6062506"><ele>39.0</ele><time>2026-04-02T13:54:55.918Z</time></trkpt><trkpt lat="42.3710007" lon="11.6060157"><ele>39.0</ele><time>2026-04-02T13:54:56.91Z</time></trkpt><trkpt lat="42.3707947" lon="11.6057697"><ele>39.0</ele><time>2026-04-02T13:54:57.909Z</time></trkpt><trkpt lat="42.3705879" lon="11.605523"><ele>39.0</ele><time>2026-04-02T13:54:58.911Z</time></trkpt><trkpt lat="42.3703762" lon="11.6052715"><ele>38.5</ele><time>2026-04-02T13:54:59.908Z</time></trkpt><trkpt lat="42.3701619" lon="11.605017"><ele>38.0</ele><time>2026-04-02T13:55:00.913Z</time></trkpt><trkpt lat="42.3699467" lon="11.6047609"><ele>38.0</ele><time>2026-04-02T13:55:01.908Z</time></trkpt><trkpt lat="42.3697292" lon="11.6045088"><ele>38.0</ele><time>2026-04-02T13:55:02.912Z</time></trkpt><trkpt lat="42.3695066" lon="11.6042497"><ele>37.5</ele><time>2026-04-02T13:55:03.912Z</time></trkpt><trkpt lat="42.3692858" lon="11.6039877"><ele>37.0</ele><time>2026-04-02T13:55:04.911Z</time></trkpt><trkpt lat="42.3690642" lon="11.6037282"><ele>36.0</ele><time>2026-04-02T13:55:05.908Z</time></trkpt><trkpt lat="42.3688417" lon="11.6034624"><ele>35.0</ele><time>2026-04-02T13:55:06.91Z</time></trkpt><trkpt lat="42.3686174" lon="11.6031963"><ele>35.0</ele><time>2026-04-02T13:55:07.91Z</time></trkpt><trkpt lat="42.3683929" lon="11.6029294"><ele>35.0</ele><time>2026-04-02T13:55:08.91Z</time></trkpt><trkpt lat="42.3681699" lon="11.6026638"><ele>35.0</ele><time>2026-04-02T13:55:09.91Z</time></trkpt><trkpt lat="42.3679414" lon="11.6023923"><ele>35.0</ele><time>2026-04-02T13:55:10.91Z</time></trkpt><trkpt lat="42.3677119" lon="11.6021216"><ele>35.5</ele><time>2026-04-02T13:55:11.911Z</time></trkpt><trkpt lat="42.3674839" lon="11.6018479"><ele>36.0</ele><time>2026-04-02T13:55:12.91Z</time></trkpt><trkpt lat="42.3672542" lon="11.6015764"><ele>37.0</ele><time>2026-04-02T13:55:13.917Z</time></trkpt><trkpt lat="42.3670222" lon="11.6012996"><ele>38.0</ele><time>2026-04-02T13:55:14.909Z</time></trkpt><trkpt lat="42.3665495" lon="11.6007546"><ele>37.0</ele><time>2026-04-02T13:55:16.909Z</time></trkpt><trkpt lat="42.366312" lon="11.6004777"><ele>36.0</ele><time>2026-04-02T13:55:17.91Z</time></trkpt><trkpt lat="42.366079" lon="11.6002013"><ele>35.5</ele><time>2026-04-02T13:55:18.91Z</time></trkpt><trkpt lat="42.3658545" lon="11.5999319"><ele>35.0</ele><time>2026-04-02T13:55:19.909Z</time></trkpt><trkpt lat="42.3656418" lon="11.5996768"><ele>36.0</ele><time>2026-04-02T13:55:20.912Z</time></trkpt><trkpt lat="42.365434" lon="11.5994244"><ele>37.0</ele><time>2026-04-02T13:55:21.913Z</time></trkpt><trkpt lat="42.3652317" lon="11.5991821"><ele>37.0</ele><time>2026-04-02T13:55:22.91Z</time></trkpt><trkpt lat="42.365024" lon="11.5989415"><ele>37.0</ele><time>2026-04-02T13:55:23.91Z</time></trkpt><trkpt lat="42.364815" lon="11.5986969"><ele>36.5</ele><time>2026-04-02T13:55:24.912Z</time></trkpt><trkpt lat="42.3645998" lon="11.5984473"><ele>36.0</ele><time>2026-04-02T13:55:25.909Z</time></trkpt><trkpt lat="42.3643834" lon="11.5981933"><ele>36.0</ele><time>2026-04-02T13:55:26.908Z</time></trkpt><trkpt lat="42.3641588" lon="11.5979331"><ele>36.0</ele><time>2026-04-02T13:55:27.908Z</time></trkpt><trkpt lat="42.3639333" lon="11.5976666"><ele>35.5</ele><time>2026-04-02T13:55:28.909Z</time></trkpt><trkpt lat="42.3636999" lon="11.597393"><ele>35.0</ele><time>2026-04-02T13:55:29.909Z</time></trkpt><trkpt lat="42.3634659" lon="11.597122"><ele>34.5</ele><time>2026-04-02T13:55:30.91Z</time></trkpt><trkpt lat="42.3632348" lon="11.5968454"><ele>34.0</ele><time>2026-04-02T13:55:31.91Z</time></trkpt><trkpt lat="42.3630006" lon="11.5965672"><ele>34.0</ele><time>2026-04-02T13:55:32.91Z</time></trkpt><trkpt lat="42.3627637" lon="11.5962918"><ele>34.0</ele><time>2026-04-02T13:55:33.91Z</time></trkpt><trkpt lat="42.3625331" lon="11.596019"><ele>33.5</ele><time>2026-04-02T13:55:34.91Z</time></trkpt><trkpt lat="42.3623121" lon="11.5957529"><ele>33.0</ele><time>2026-04-02T13:55:35.91Z</time></trkpt><trkpt lat="42.3621" lon="11.5954946"><ele>32.0</ele><time>2026-04-02T13:55:36.91Z</time></trkpt><trkpt lat="42.3618932" lon="11.595245"><ele>31.0</ele><time>2026-04-02T13:55:37.913Z</time></trkpt><trkpt lat="42.361692" lon="11.5949999"><ele>31.0</ele><time>2026-04-02T13:55:38.909Z</time></trkpt><trkpt lat="42.3615017" lon="11.5947706"><ele>31.0</ele><time>2026-04-02T13:55:39.91Z</time></trkpt><trkpt lat="42.361318" lon="11.5945387"><ele>30.5</ele><time>2026-04-02T13:55:40.911Z</time></trkpt><trkpt lat="42.3611296" lon="11.5943213"><ele>30.0</ele><time>2026-04-02T13:55:41.91Z</time></trkpt><trkpt lat="42.360933" lon="11.5941119"><ele>30.0</ele><time>2026-04-02T13:55:42.91Z</time></trkpt><trkpt lat="42.3607299" lon="11.5939154"><ele>30.0</ele><time>2026-04-02T13:55:43.91Z</time></trkpt><trkpt lat="42.3605114" lon="11.5937374"><ele>29.5</ele><time>2026-04-02T13:55:44.913Z</time></trkpt><trkpt lat="42.360288" lon="11.5935884"><ele>29.0</ele><time>2026-04-02T13:55:45.91Z</time></trkpt><trkpt lat="42.3600672" lon="11.5934744"><ele>29.0</ele><time>2026-04-02T13:55:46.909Z</time></trkpt><trkpt lat="42.3598382" lon="11.5933754"><ele>29.0</ele><time>2026-04-02T13:55:47.909Z</time></trkpt><trkpt lat="42.3596075" lon="11.5932817"><ele>28.0</ele><time>2026-04-02T13:55:48.911Z</time></trkpt><trkpt lat="42.3593718" lon="11.5931877"><ele>27.0</ele><time>2026-04-02T13:55:49.91Z</time></trkpt><trkpt lat="42.359139" lon="11.593108"><ele>27.0</ele><time>2026-04-02T13:55:50.911Z</time></trkpt><trkpt lat="42.3589146" lon="11.5930368"><ele>27.0</ele><time>2026-04-02T13:55:51.915Z</time></trkpt><trkpt lat="42.3586959" lon="11.5929766"><ele>27.333333333333336</ele><time>2026-04-02T13:55:52.91Z</time></trkpt><trkpt lat="42.3584825" lon="11.5929309"><ele>27.666666666666668</ele><time>2026-04-02T13:55:53.91Z</time></trkpt><trkpt lat="42.3582748" lon="11.5928938"><ele>28.0</ele><time>2026-04-02T13:55:54.912Z</time></trkpt><trkpt lat="42.3580838" lon="11.5928741"><ele>27.799999999999997</ele><time>2026-04-02T13:55:55.91Z</time></trkpt><trkpt lat="42.35793" lon="11.5928605"><ele>27.599999999999998</ele><time>2026-04-02T13:55:56.909Z</time></trkpt><trkpt lat="42.3578071" lon="11.5928477"><ele>27.400000000000002</ele><time>2026-04-02T13:55:57.909Z</time></trkpt><trkpt lat="42.3577126" lon="11.5928333"><ele>27.200000000000003</ele><time>2026-04-02T13:55:58.91Z</time></trkpt><trkpt lat="42.3576453" lon="11.5928244"><ele>27.0</ele><time>2026-04-02T13:55:59.909Z</time></trkpt><trkpt lat="42.3575457" lon="11.5928795"><ele>27.6</ele><time>2026-04-02T13:56:01.91Z</time></trkpt><trkpt lat="42.3574682" lon="11.5930121"><ele>28.200000000000003</ele><time>2026-04-02T13:56:03.916Z</time></trkpt><trkpt lat="42.3573951" lon="11.5930608"><ele>28.8</ele><time>2026-04-02T13:56:04.91Z</time></trkpt><trkpt lat="42.3573076" lon="11.5931151"><ele>29.4</ele><time>2026-04-02T13:56:05.91Z</time></trkpt><trkpt lat="42.3571781" lon="11.5931569"><ele>30.0</ele><time>2026-04-02T13:56:06.913Z</time></trkpt><trkpt lat="42.3568813" lon="11.5932833"><ele>26.333333333333332</ele><time>2026-04-02T13:56:08.909Z</time></trkpt><trkpt lat="42.3567226" lon="11.5933482"><ele>22.666666666666664</ele><time>2026-04-02T13:56:09.909Z</time></trkpt><trkpt lat="42.3565702" lon="11.5934086"><ele>19.0</ele><time>2026-04-02T13:56:10.909Z</time></trkpt><trkpt lat="42.3564193" lon="11.5934665"><ele>15.666666666666666</ele><time>2026-04-02T13:56:11.909Z</time></trkpt><trkpt lat="42.3562793" lon="11.5935245"><ele>12.333333333333332</ele><time>2026-04-02T13:56:12.909Z</time></trkpt><trkpt lat="42.3561347" lon="11.5935979"><ele>9.0</ele><time>2026-04-02T13:56:13.909Z</time></trkpt><trkpt lat="42.3559865" lon="11.5936849"><ele>8.666666666666666</ele><time>2026-04-02T13:56:14.911Z</time></trkpt><trkpt lat="42.3558402" lon="11.5937922"><ele>8.333333333333332</ele><time>2026-04-02T13:56:15.909Z</time></trkpt><trkpt lat="42.3556934" lon="11.5939329"><ele>8.0</ele><time>2026-04-02T13:56:16.913Z</time></trkpt><trkpt lat="42.3555535" lon="11.594103"><ele>8.0</ele><time>2026-04-02T13:56:17.908Z</time></trkpt><trkpt lat="42.3554278" lon="11.5943082"><ele>8.0</ele><time>2026-04-02T13:56:18.911Z</time></trkpt><trkpt lat="42.3553139" lon="11.5945272"><ele>8.0</ele><time>2026-04-02T13:56:19.919Z</time></trkpt><trkpt lat="42.3552085" lon="11.5947598"><ele>8.0</ele><time>2026-04-02T13:56:20.91Z</time></trkpt><trkpt lat="42.3551054" lon="11.5949913"><ele>8.0</ele><time>2026-04-02T13:56:21.908Z</time></trkpt><trkpt lat="42.3549966" lon="11.5952302"><ele>8.0</ele><time>2026-04-02T13:56:22.911Z</time></trkpt><trkpt lat="42.3548881" lon="11.5954732"><ele>8.0</ele><time>2026-04-02T13:56:23.913Z</time></trkpt><trkpt lat="42.3547809" lon="11.5957151"><ele>8.0</ele><time>2026-04-02T13:56:24.911Z</time></trkpt><trkpt lat="42.3546777" lon="11.595955"><ele>8.0</ele><time>2026-04-02T13:56:25.91Z</time></trkpt><trkpt lat="42.3545772" lon="11.5961789"><ele>7.666666666666666</ele><time>2026-04-02T13:56:26.913Z</time></trkpt><trkpt lat="42.3544884" lon="11.5963837"><ele>7.333333333333334</ele><time>2026-04-02T13:56:27.909Z</time></trkpt><trkpt lat="42.3544109" lon="11.5965579"><ele>7.0</ele><time>2026-04-02T13:56:28.908Z</time></trkpt><trkpt lat="42.3543387" lon="11.5967171"><ele>7.0</ele><time>2026-04-02T13:56:29.909Z</time></trkpt><trkpt lat="42.3542682" lon="11.5968746"><ele>7.0</ele><time>2026-04-02T13:56:30.909Z</time></trkpt><trkpt lat="42.3541949" lon="11.5970381"><ele>7.0</ele><time>2026-04-02T13:56:31.91Z</time></trkpt><trkpt lat="42.3541328" lon="11.5971849"><ele>7.0</ele><time>2026-04-02T13:56:32.909Z</time></trkpt><trkpt lat="42.3540745" lon="11.5973245"><ele>6.833333333333334</ele><time>2026-04-02T13:56:33.907Z</time></trkpt><trkpt lat="42.3540254" lon="11.5974503"><ele>6.666666666666667</ele><time>2026-04-02T13:56:34.91Z</time></trkpt><trkpt lat="42.3539867" lon="11.5975614"><ele>6.5</ele><time>2026-04-02T13:56:35.91Z</time></trkpt><trkpt lat="42.3539579" lon="11.5976638"><ele>6.333333333333334</ele><time>2026-04-02T13:56:36.914Z</time></trkpt><trkpt lat="42.3539353" lon="11.5977527"><ele>6.166666666666667</ele><time>2026-04-02T13:56:38.909Z</time></trkpt><trkpt lat="42.3539017" lon="11.5978332"><ele>6.0</ele><time>2026-04-02T13:56:40.909Z</time></trkpt><trkpt lat="42.3538859" lon="11.5979315"><ele>6.0</ele><time>2026-04-02T13:56:41.915Z</time></trkpt><trkpt lat="42.3538797" lon="11.5980639"><ele>6.0</ele><time>2026-04-02T13:56:42.91Z</time></trkpt><trkpt lat="42.3538814" lon="11.5982268"><ele>6.0</ele><time>2026-04-02T13:56:43.909Z</time></trkpt><trkpt lat="42.353893" lon="11.5984146"><ele>6.0</ele><time>2026-04-02T13:56:44.909Z</time></trkpt><trkpt lat="42.3539046" lon="11.5986279"><ele>6.666666666666666</ele><time>2026-04-02T13:56:45.911Z</time></trkpt><trkpt lat="42.3539155" lon="11.5988621"><ele>7.333333333333333</ele><time>2026-04-02T13:56:46.91Z</time></trkpt><trkpt lat="42.3539278" lon="11.5991075"><ele>8.0</ele><time>2026-04-02T13:56:47.91Z</time></trkpt><trkpt lat="42.3539432" lon="11.5993615"><ele>8.0</ele><time>2026-04-02T13:56:48.91Z</time></trkpt><trkpt lat="42.3539593" lon="11.5996124"><ele>8.0</ele><time>2026-04-02T13:56:49.911Z</time></trkpt><trkpt lat="42.3539688" lon="11.5998772"><ele>8.0</ele><time>2026-04-02T13:56:50.91Z</time></trkpt><trkpt lat="42.3539771" lon="11.6001326"><ele>8.0</ele><time>2026-04-02T13:56:51.911Z</time></trkpt><trkpt lat="42.3539636" lon="11.6003975"><ele>8.0</ele><time>2026-04-02T13:56:52.911Z</time></trkpt><trkpt lat="42.3539266" lon="11.6006653"><ele>8.0</ele><time>2026-04-02T13:56:53.911Z</time></trkpt><trkpt lat="42.3538721" lon="11.600935"><ele>8.0</ele><time>2026-04-02T13:56:54.91Z</time></trkpt><trkpt lat="42.3538075" lon="11.6012032"><ele>8.0</ele><time>2026-04-02T13:56:55.912Z</time></trkpt><trkpt lat="42.353741" lon="11.6014752"><ele>8.0</ele><time>2026-04-02T13:56:56.911Z</time></trkpt><trkpt lat="42.3536684" lon="11.6017486"><ele>9.333333333333332</ele><time>2026-04-02T13:56:57.912Z</time></trkpt><trkpt lat="42.3535925" lon="11.6020208"><ele>10.666666666666666</ele><time>2026-04-02T13:56:58.911Z</time></trkpt><trkpt lat="42.3535124" lon="11.6022834"><ele>12.0</ele><time>2026-04-02T13:56:59.912Z</time></trkpt><trkpt lat="42.3534301" lon="11.6025446"><ele>12.0</ele><time>2026-04-02T13:57:00.909Z</time></trkpt><trkpt lat="42.3533443" lon="11.6027899"><ele>12.0</ele><time>2026-04-02T13:57:01.909Z</time></trkpt><trkpt lat="42.3532554" lon="11.6030254"><ele>12.0</ele><time>2026-04-02T13:57:02.915Z</time></trkpt><trkpt lat="42.3531708" lon="11.6032364"><ele>14.5</ele><time>2026-04-02T13:57:03.91Z</time></trkpt><trkpt lat="42.3530924" lon="11.6034264"><ele>17.0</ele><time>2026-04-02T13:57:04.911Z</time></trkpt><trkpt lat="42.3530274" lon="11.6036063"><ele>19.5</ele><time>2026-04-02T13:57:05.914Z</time></trkpt><trkpt lat="42.3529832" lon="11.6037841"><ele>22.0</ele><time>2026-04-02T13:57:06.91Z</time></trkpt><trkpt lat="42.3529629" lon="11.6039706"><ele>22.75</ele><time>2026-04-02T13:57:07.915Z</time></trkpt><trkpt lat="42.3529674" lon="11.604159"><ele>23.5</ele><time>2026-04-02T13:57:08.911Z</time></trkpt><trkpt lat="42.3529858" lon="11.6043468"><ele>24.25</ele><time>2026-04-02T13:57:09.914Z</time></trkpt><trkpt lat="42.3530008" lon="11.6045141"><ele>25.0</ele><time>2026-04-02T13:57:10.909Z</time></trkpt><trkpt lat="42.3530068" lon="11.6046721"><ele>27.25</ele><time>2026-04-02T13:57:11.907Z</time></trkpt><trkpt lat="42.3530027" lon="11.6048359"><ele>29.5</ele><time>2026-04-02T13:57:12.912Z</time></trkpt><trkpt lat="42.3529904" lon="11.6049957"><ele>31.75</ele><time>2026-04-02T13:57:13.909Z</time></trkpt><trkpt lat="42.3529779" lon="11.605159"><ele>34.0</ele><time>2026-04-02T13:57:14.908Z</time></trkpt><trkpt lat="42.3529654" lon="11.6053272"><ele>34.6</ele><time>2026-04-02T13:57:15.909Z</time></trkpt><trkpt lat="42.3529502" lon="11.6054929"><ele>35.2</ele><time>2026-04-02T13:57:16.909Z</time></trkpt><trkpt lat="42.3529355" lon="11.605637"><ele>35.800000000000004</ele><time>2026-04-02T13:57:17.909Z</time></trkpt><trkpt lat="42.3529225" lon="11.6057505"><ele>36.4</ele><time>2026-04-02T13:57:18.91Z</time></trkpt><trkpt lat="42.3529064" lon="11.6058504"><ele>37.0</ele><time>2026-04-02T13:57:19.909Z</time></trkpt><trkpt lat="42.3528853" lon="11.6059324"><ele>37.0</ele><time>2026-04-02T13:57:20.91Z</time></trkpt><trkpt lat="42.3528516" lon="11.6060609"><ele>37.0</ele><time>2026-04-02T13:57:22.91Z</time></trkpt><trkpt lat="42.3527905" lon="11.6060979"><ele>37.0</ele><time>2026-04-02T13:57:25.911Z</time></trkpt><trkpt lat="42.3527211" lon="11.6061102"><ele>37.0</ele><time>2026-04-02T13:58:43.909Z</time></trkpt><trkpt lat="42.3526544" lon="11.6061449"><ele>37.0</ele><time>2026-04-02T13:59:08.908Z</time></trkpt><trkpt lat="42.3527473" lon="11.6061087"><ele>37.0</ele><time>2026-04-02T14:08:22.908Z</time></trkpt><trkpt lat="42.3527891" lon="11.6060432"><ele>37.0</ele><time>2026-04-02T14:08:32.91Z</time></trkpt><trkpt lat="42.3527258" lon="11.6060507"><ele>37.0</ele><time>2026-04-02T14:08:40.91Z</time></trkpt><trkpt lat="42.3527898" lon="11.6060489"><ele>37.0</ele><time>2026-04-02T14:11:07.918Z</time></trkpt><trkpt lat="42.352841" lon="11.6059836"><ele>37.0</ele><time>2026-04-02T14:15:50.913Z</time></trkpt><trkpt lat="42.3528642" lon="11.6060665"><ele>37.0</ele><time>2026-04-02T14:15:54.91Z</time></trkpt><trkpt lat="42.3528802" lon="11.606188"><ele>37.0</ele><time>2026-04-02T14:15:56.912Z</time></trkpt><trkpt lat="42.3529048" lon="11.6062699"><ele>37.0</ele><time>2026-04-02T14:15:57.909Z</time></trkpt><trkpt lat="42.352922" lon="11.606367"><ele>37.0</ele><time>2026-04-02T14:15:58.909Z</time></trkpt><trkpt lat="42.3529272" lon="11.6064832"><ele>37.0</ele><time>2026-04-02T14:15:59.916Z</time></trkpt><trkpt lat="42.3529263" lon="11.6066024"><ele>37.0</ele><time>2026-04-02T14:16:00.917Z</time></trkpt><trkpt lat="42.3529136" lon="11.6067199"><ele>37.0</ele><time>2026-04-02T14:16:01.909Z</time></trkpt><trkpt lat="42.3528943" lon="11.6068222"><ele>37.0</ele><time>2026-04-02T14:16:02.911Z</time></trkpt><trkpt lat="42.3528685" lon="11.6069389"><ele>37.0</ele><time>2026-04-02T14:16:03.911Z</time></trkpt><trkpt lat="42.3528353" lon="11.6070477"><ele>37.66666666666667</ele><time>2026-04-02T14:16:04.911Z</time></trkpt><trkpt lat="42.3528037" lon="11.6071588"><ele>38.333333333333336</ele><time>2026-04-02T14:16:05.912Z</time></trkpt><trkpt lat="42.3527617" lon="11.6072607"><ele>39.0</ele><time>2026-04-02T14:16:06.911Z</time></trkpt><trkpt lat="42.3527204" lon="11.6073651"><ele>39.666666666666664</ele><time>2026-04-02T14:16:07.907Z</time></trkpt><trkpt lat="42.3526718" lon="11.6074509"><ele>40.33333333333333</ele><time>2026-04-02T14:16:08.912Z</time></trkpt><trkpt lat="42.3526183" lon="11.6075352"><ele>41.0</ele><time>2026-04-02T14:16:09.911Z</time></trkpt><trkpt lat="42.3525563" lon="11.6076096"><ele>41.0</ele><time>2026-04-02T14:16:10.91Z</time></trkpt><trkpt lat="42.3524935" lon="11.607676"><ele>41.0</ele><time>2026-04-02T14:16:11.912Z</time></trkpt><trkpt lat="42.3524267" lon="11.6077433"><ele>41.0</ele><time>2026-04-02T14:16:12.91Z</time></trkpt><trkpt lat="42.3523554" lon="11.6078127"><ele>41.0</ele><time>2026-04-02T14:16:13.909Z</time></trkpt><trkpt lat="42.3522653" lon="11.607877"><ele>41.0</ele><time>2026-04-02T14:16:14.913Z</time></trkpt><trkpt lat="42.3521841" lon="11.607931"><ele>41.0</ele><time>2026-04-02T14:16:15.91Z</time></trkpt><trkpt lat="42.3521008" lon="11.6079819"><ele>41.0</ele><time>2026-04-02T14:16:16.911Z</time></trkpt><trkpt lat="42.3520148" lon="11.6080209"><ele>41.0</ele><time>2026-04-02T14:16:17.912Z</time></trkpt><trkpt lat="42.351938" lon="11.608047"><ele>41.0</ele><time>2026-04-02T14:16:18.918Z</time></trkpt><trkpt lat="42.3518648" lon="11.6080633"><ele>41.0</ele><time>2026-04-02T14:16:19.911Z</time></trkpt><trkpt lat="42.3517952" lon="11.608074"><ele>41.0</ele><time>2026-04-02T14:16:20.912Z</time></trkpt><trkpt lat="42.3517209" lon="11.6080826"><ele>41.0</ele><time>2026-04-02T14:16:21.91Z</time></trkpt><trkpt lat="42.351639" lon="11.6080778"><ele>41.0</ele><time>2026-04-02T14:16:22.911Z</time></trkpt><trkpt lat="42.3515579" lon="11.6080596"><ele>41.0</ele><time>2026-04-02T14:16:23.911Z</time></trkpt><trkpt lat="42.3514783" lon="11.608032"><ele>41.0</ele><time>2026-04-02T14:16:24.909Z</time></trkpt><trkpt lat="42.3514106" lon="11.6080056"><ele>41.0</ele><time>2026-04-02T14:16:25.912Z</time></trkpt><trkpt lat="42.3513138" lon="11.6079708"><ele>41.0</ele><time>2026-04-02T14:16:27.909Z</time></trkpt><trkpt lat="42.3512462" lon="11.6079397"><ele>41.0</ele><time>2026-04-02T14:16:39.911Z</time></trkpt><trkpt lat="42.3511668" lon="11.6080231"><ele>41.0</ele><time>2026-04-02T14:16:41.916Z</time></trkpt><trkpt lat="42.3510872" lon="11.6081906"><ele>41.0</ele><time>2026-04-02T14:16:43.911Z</time></trkpt><trkpt lat="42.3510463" lon="11.6082959"><ele>41.0</ele><time>2026-04-02T14:16:44.91Z</time></trkpt><trkpt lat="42.3509999" lon="11.6084012"><ele>41.0</ele><time>2026-04-02T14:16:45.914Z</time></trkpt><trkpt lat="42.3509461" lon="11.6085094"><ele>41.0</ele><time>2026-04-02T14:16:46.911Z</time></trkpt><trkpt lat="42.3508817" lon="11.6086217"><ele>40.75</ele><time>2026-04-02T14:16:47.91Z</time></trkpt><trkpt lat="42.3508105" lon="11.6087281"><ele>40.5</ele><time>2026-04-02T14:16:48.913Z</time></trkpt><trkpt lat="42.3507285" lon="11.6088353"><ele>40.25</ele><time>2026-04-02T14:16:49.912Z</time></trkpt><trkpt lat="42.3506408" lon="11.6089474"><ele>40.0</ele><time>2026-04-02T14:16:50.91Z</time></trkpt><trkpt lat="42.3505532" lon="11.6090624"><ele>39.6</ele><time>2026-04-02T14:16:51.909Z</time></trkpt><trkpt lat="42.350468" lon="11.6091676"><ele>39.2</ele><time>2026-04-02T14:16:52.909Z</time></trkpt><trkpt lat="42.3503886" lon="11.609265"><ele>38.8</ele><time>2026-04-02T14:16:53.91Z</time></trkpt><trkpt lat="42.3503188" lon="11.6093591"><ele>38.4</ele><time>2026-04-02T14:16:54.91Z</time></trkpt><trkpt lat="42.3502486" lon="11.6094368"><ele>38.0</ele><time>2026-04-02T14:16:55.91Z</time></trkpt><trkpt lat="42.3501772" lon="11.6095274"><ele>37.8</ele><time>2026-04-02T14:16:56.911Z</time></trkpt><trkpt lat="42.3501037" lon="11.6096245"><ele>37.599999999999994</ele><time>2026-04-02T14:16:57.909Z</time></trkpt><trkpt lat="42.3500328" lon="11.6097223"><ele>37.400000000000006</ele><time>2026-04-02T14:16:58.909Z</time></trkpt><trkpt lat="42.3499615" lon="11.6098152"><ele>37.2</ele><time>2026-04-02T14:16:59.911Z</time></trkpt><trkpt lat="42.349892" lon="11.6098901"><ele>37.0</ele><time>2026-04-02T14:17:00.91Z</time></trkpt><trkpt lat="42.3498203" lon="11.6099823"><ele>37.0</ele><time>2026-04-02T14:17:01.909Z</time></trkpt><trkpt lat="42.3497471" lon="11.6100748"><ele>37.0</ele><time>2026-04-02T14:17:02.909Z</time></trkpt><trkpt lat="42.3496818" lon="11.6101569"><ele>37.0</ele><time>2026-04-02T14:17:03.91Z</time></trkpt><trkpt lat="42.3496223" lon="11.610238"><ele>37.0</ele><time>2026-04-02T14:17:04.911Z</time></trkpt><trkpt lat="42.3495608" lon="11.6103043"><ele>37.0</ele><time>2026-04-02T14:17:05.908Z</time></trkpt><trkpt lat="42.3494917" lon="11.6103424"><ele>37.0</ele><time>2026-04-02T14:17:06.91Z</time></trkpt><trkpt lat="42.349426" lon="11.6103572"><ele>37.0</ele><time>2026-04-02T14:17:07.909Z</time></trkpt><trkpt lat="42.3493631" lon="11.6103641"><ele>37.0</ele><time>2026-04-02T14:17:08.921Z</time></trkpt><trkpt lat="42.3492492" lon="11.610369"><ele>37.0</ele><time>2026-04-02T14:17:10.914Z</time></trkpt><trkpt lat="42.3491934" lon="11.6103248"><ele>37.0</ele><time>2026-04-02T14:17:15.909Z</time></trkpt><trkpt lat="42.3491476" lon="11.6102509"><ele>37.0</ele><time>2026-04-02T14:17:17.913Z</time></trkpt><trkpt lat="42.3490824" lon="11.6100885"><ele>36.75</ele><time>2026-04-02T14:17:19.91Z</time></trkpt><trkpt lat="42.3490459" lon="11.6099701"><ele>36.5</ele><time>2026-04-02T14:17:20.909Z</time></trkpt><trkpt lat="42.3490129" lon="11.6098355"><ele>36.25</ele><time>2026-04-02T14:17:21.911Z</time></trkpt><trkpt lat="42.3489756" lon="11.6096795"><ele>36.0</ele><time>2026-04-02T14:17:22.909Z</time></trkpt><trkpt lat="42.3489352" lon="11.6095104"><ele>36.333333333333336</ele><time>2026-04-02T14:17:23.91Z</time></trkpt><trkpt lat="42.3488892" lon="11.6093257"><ele>36.66666666666667</ele><time>2026-04-02T14:17:24.91Z</time></trkpt><trkpt lat="42.3488401" lon="11.6091241"><ele>37.0</ele><time>2026-04-02T14:17:25.909Z</time></trkpt><trkpt lat="42.3487911" lon="11.6089207"><ele>36.0</ele><time>2026-04-02T14:17:26.912Z</time></trkpt><trkpt lat="42.3487395" lon="11.6087015"><ele>35.0</ele><time>2026-04-02T14:17:27.912Z</time></trkpt><trkpt lat="42.3486811" lon="11.6084756"><ele>34.0</ele><time>2026-04-02T14:17:28.911Z</time></trkpt><trkpt lat="42.3486184" lon="11.6082424"><ele>33.66666666666667</ele><time>2026-04-02T14:17:29.913Z</time></trkpt><trkpt lat="42.3485546" lon="11.6080088"><ele>33.333333333333336</ele><time>2026-04-02T14:17:30.919Z</time></trkpt><trkpt lat="42.3484929" lon="11.6077767"><ele>33.0</ele><time>2026-04-02T14:17:31.912Z</time></trkpt><trkpt lat="42.34843" lon="11.6075525"><ele>32.666666666666664</ele><time>2026-04-02T14:17:32.912Z</time></trkpt><trkpt lat="42.3483685" lon="11.6073326"><ele>32.33333333333333</ele><time>2026-04-02T14:17:33.912Z</time></trkpt><trkpt lat="42.3483087" lon="11.6071203"><ele>32.0</ele><time>2026-04-02T14:17:34.912Z</time></trkpt><trkpt lat="42.3482493" lon="11.6069115"><ele>32.0</ele><time>2026-04-02T14:17:35.908Z</time></trkpt><trkpt lat="42.3481889" lon="11.6067084"><ele>32.0</ele><time>2026-04-02T14:17:36.913Z</time></trkpt><trkpt lat="42.3481219" lon="11.6065058"><ele>32.0</ele><time>2026-04-02T14:17:37.912Z</time></trkpt><trkpt lat="42.3480516" lon="11.6063067"><ele>32.0</ele><time>2026-04-02T14:17:38.911Z</time></trkpt><trkpt lat="42.3479808" lon="11.6061007"><ele>32.0</ele><time>2026-04-02T14:17:39.914Z</time></trkpt><trkpt lat="42.3479068" lon="11.6058971"><ele>32.0</ele><time>2026-04-02T14:17:40.911Z</time></trkpt><trkpt lat="42.3478312" lon="11.6056961"><ele>32.0</ele><time>2026-04-02T14:17:41.91Z</time></trkpt><trkpt lat="42.3477563" lon="11.6054893"><ele>32.0</ele><time>2026-04-02T14:17:42.912Z</time></trkpt><trkpt lat="42.347682" lon="11.6052826"><ele>32.0</ele><time>2026-04-02T14:17:43.913Z</time></trkpt><trkpt lat="42.3476044" lon="11.6050741"><ele>32.666666666666664</ele><time>2026-04-02T14:17:44.921Z</time></trkpt><trkpt lat="42.3475289" lon="11.6048615"><ele>33.333333333333336</ele><time>2026-04-02T14:17:45.912Z</time></trkpt><trkpt lat="42.3474535" lon="11.6046498"><ele>34.0</ele><time>2026-04-02T14:17:46.912Z</time></trkpt><trkpt lat="42.347383" lon="11.6044346"><ele>34.0</ele><time>2026-04-02T14:17:47.909Z</time></trkpt><trkpt lat="42.3473076" lon="11.6042203"><ele>34.0</ele><time>2026-04-02T14:17:48.913Z</time></trkpt><trkpt lat="42.3472388" lon="11.6040167"><ele>34.0</ele><time>2026-04-02T14:17:49.909Z</time></trkpt><trkpt lat="42.3471763" lon="11.6038242"><ele>34.0</ele><time>2026-04-02T14:17:50.91Z</time></trkpt><trkpt lat="42.3471302" lon="11.6036634"><ele>34.0</ele><time>2026-04-02T14:17:51.911Z</time></trkpt><trkpt lat="42.3470988" lon="11.6035149"><ele>34.0</ele><time>2026-04-02T14:17:52.91Z</time></trkpt><trkpt lat="42.347083" lon="11.6033888"><ele>34.0</ele><time>2026-04-02T14:17:53.913Z</time></trkpt><trkpt lat="42.3470903" lon="11.6032802"><ele>34.0</ele><time>2026-04-02T14:17:54.91Z</time></trkpt><trkpt lat="42.3471241" lon="11.6031801"><ele>34.0</ele><time>2026-04-02T14:17:55.909Z</time></trkpt><trkpt lat="42.3471763" lon="11.6030899"><ele>34.0</ele><time>2026-04-02T14:17:56.91Z</time></trkpt><trkpt lat="42.3472587" lon="11.6030232"><ele>34.0</ele><time>2026-04-02T14:17:57.912Z</time></trkpt><trkpt lat="42.3473536" lon="11.602982"><ele>34.0</ele><time>2026-04-02T14:17:58.909Z</time></trkpt><trkpt lat="42.3474621" lon="11.6029766"><ele>34.0</ele><time>2026-04-02T14:17:59.913Z</time></trkpt><trkpt lat="42.3475672" lon="11.6030143"><ele>33.6</ele><time>2026-04-02T14:18:00.91Z</time></trkpt><trkpt lat="42.3476647" lon="11.6030862"><ele>33.2</ele><time>2026-04-02T14:18:01.91Z</time></trkpt><trkpt lat="42.3477482" lon="11.6031852"><ele>32.800000000000004</ele><time>2026-04-02T14:18:02.911Z</time></trkpt><trkpt lat="42.3478098" lon="11.6033111"><ele>32.4</ele><time>2026-04-02T14:18:03.911Z</time></trkpt><trkpt lat="42.3478501" lon="11.6034578"><ele>32.0</ele><time>2026-04-02T14:18:04.91Z</time></trkpt><trkpt lat="42.3478615" lon="11.6036134"><ele>32.5</ele><time>2026-04-02T14:18:05.911Z</time></trkpt><trkpt lat="42.347837" lon="11.6037765"><ele>33.0</ele><time>2026-04-02T14:18:06.91Z</time></trkpt><trkpt lat="42.3477893" lon="11.6039483"><ele>33.5</ele><time>2026-04-02T14:18:07.911Z</time></trkpt><trkpt lat="42.3477294" lon="11.6041347"><ele>34.0</ele><time>2026-04-02T14:18:08.909Z</time></trkpt><trkpt lat="42.3476625" lon="11.6043488"><ele>34.0</ele><time>2026-04-02T14:18:09.922Z</time></trkpt><trkpt lat="42.347593" lon="11.6045934"><ele>34.0</ele><time>2026-04-02T14:18:10.91Z</time></trkpt><trkpt lat="42.3475142" lon="11.6048667"><ele>34.0</ele><time>2026-04-02T14:18:11.91Z</time></trkpt><trkpt lat="42.3474293" lon="11.6051502"><ele>33.0</ele><time>2026-04-02T14:18:12.909Z</time></trkpt><trkpt lat="42.3473496" lon="11.6054877"><ele>32.0</ele><time>2026-04-02T14:18:13.908Z</time></trkpt><trkpt lat="42.3472669" lon="11.6058463"><ele>32.0</ele><time>2026-04-02T14:18:14.912Z</time></trkpt><trkpt lat="42.3471844" lon="11.6062054"><ele>32.0</ele><time>2026-04-02T14:18:15.91Z</time></trkpt><trkpt lat="42.347106" lon="11.6065586"><ele>32.0</ele><time>2026-04-02T14:18:16.908Z</time></trkpt><trkpt lat="42.3470241" lon="11.6069075"><ele>32.0</ele><time>2026-04-02T14:18:17.908Z</time></trkpt><trkpt lat="42.346946" lon="11.6072532"><ele>32.0</ele><time>2026-04-02T14:18:18.911Z</time></trkpt><trkpt lat="42.3468724" lon="11.6075974"><ele>32.0</ele><time>2026-04-02T14:18:19.909Z</time></trkpt><trkpt lat="42.3467991" lon="11.6079304"><ele>32.0</ele><time>2026-04-02T14:18:20.908Z</time></trkpt><trkpt lat="42.3467235" lon="11.6082616"><ele>32.0</ele><time>2026-04-02T14:18:21.91Z</time></trkpt><trkpt lat="42.3466485" lon="11.6085888"><ele>33.0</ele><time>2026-04-02T14:18:22.911Z</time></trkpt><trkpt lat="42.3465765" lon="11.6089228"><ele>34.0</ele><time>2026-04-02T14:18:23.913Z</time></trkpt><trkpt lat="42.3465102" lon="11.6092379"><ele>34.333333333333336</ele><time>2026-04-02T14:18:24.908Z</time></trkpt><trkpt lat="42.3464444" lon="11.609533"><ele>34.666666666666664</ele><time>2026-04-02T14:18:25.908Z</time></trkpt><trkpt lat="42.346381" lon="11.6098128"><ele>35.0</ele><time>2026-04-02T14:18:26.909Z</time></trkpt><trkpt lat="42.3463231" lon="11.6100776"><ele>35.666666666666664</ele><time>2026-04-02T14:18:27.909Z</time></trkpt><trkpt lat="42.3462634" lon="11.6103537"><ele>36.333333333333336</ele><time>2026-04-02T14:18:28.911Z</time></trkpt><trkpt lat="42.346202" lon="11.6106319"><ele>37.0</ele><time>2026-04-02T14:18:29.91Z</time></trkpt><trkpt lat="42.3461386" lon="11.6109143"><ele>36.0</ele><time>2026-04-02T14:18:30.916Z</time></trkpt><trkpt lat="42.3460714" lon="11.611208"><ele>35.0</ele><time>2026-04-02T14:18:31.914Z</time></trkpt><trkpt lat="42.3460014" lon="11.611506"><ele>35.0</ele><time>2026-04-02T14:18:32.909Z</time></trkpt><trkpt lat="42.3459307" lon="11.6118099"><ele>35.0</ele><time>2026-04-02T14:18:33.907Z</time></trkpt><trkpt lat="42.3458601" lon="11.612113"><ele>35.0</ele><time>2026-04-02T14:18:34.909Z</time></trkpt><trkpt lat="42.3457837" lon="11.612421"><ele>35.0</ele><time>2026-04-02T14:18:35.908Z</time></trkpt><trkpt lat="42.3456963" lon="11.612724"><ele>34.5</ele><time>2026-04-02T14:18:36.911Z</time></trkpt><trkpt lat="42.3455981" lon="11.6130226"><ele>34.0</ele><time>2026-04-02T14:18:37.91Z</time></trkpt><trkpt lat="42.3454869" lon="11.6133149"><ele>35.5</ele><time>2026-04-02T14:18:38.91Z</time></trkpt><trkpt lat="42.3453616" lon="11.6135987"><ele>37.0</ele><time>2026-04-02T14:18:39.909Z</time></trkpt><trkpt lat="42.3452258" lon="11.6138766"><ele>37.0</ele><time>2026-04-02T14:18:40.909Z</time></trkpt><trkpt lat="42.3450757" lon="11.6141529"><ele>37.0</ele><time>2026-04-02T14:18:41.909Z</time></trkpt><trkpt lat="42.3449113" lon="11.6144193"><ele>38.0</ele><time>2026-04-02T14:18:42.909Z</time></trkpt><trkpt lat="42.3447266" lon="11.6146668"><ele>39.0</ele><time>2026-04-02T14:18:43.909Z</time></trkpt><trkpt lat="42.344527" lon="11.6148983"><ele>39.0</ele><time>2026-04-02T14:18:44.908Z</time></trkpt><trkpt lat="42.344317" lon="11.6151154"><ele>39.0</ele><time>2026-04-02T14:18:45.909Z</time></trkpt><trkpt lat="42.344096" lon="11.6153189"><ele>39.0</ele><time>2026-04-02T14:18:46.909Z</time></trkpt><trkpt lat="42.3438647" lon="11.6155109"><ele>39.0</ele><time>2026-04-02T14:18:47.908Z</time></trkpt><trkpt lat="42.3436292" lon="11.6156881"><ele>39.0</ele><time>2026-04-02T14:18:48.91Z</time></trkpt><trkpt lat="42.3433826" lon="11.615868"><ele>39.0</ele><time>2026-04-02T14:18:49.908Z</time></trkpt><trkpt lat="42.3431337" lon="11.6160508"><ele>39.5</ele><time>2026-04-02T14:18:50.91Z</time></trkpt><trkpt lat="42.3428845" lon="11.6162323"><ele>40.0</ele><time>2026-04-02T14:18:51.91Z</time></trkpt><trkpt lat="42.3426292" lon="11.6164165"><ele>40.0</ele><time>2026-04-02T14:18:52.909Z</time></trkpt><trkpt lat="42.3423656" lon="11.6165979"><ele>40.0</ele><time>2026-04-02T14:18:53.907Z</time></trkpt><trkpt lat="42.3421033" lon="11.6167815"><ele>40.0</ele><time>2026-04-02T14:18:54.909Z</time></trkpt><trkpt lat="42.3415723" lon="11.6171542"><ele>39.5</ele><time>2026-04-02T14:18:56.91Z</time></trkpt><trkpt lat="42.3413033" lon="11.6173422"><ele>39.0</ele><time>2026-04-02T14:18:57.909Z</time></trkpt><trkpt lat="42.3410332" lon="11.6175331"><ele>39.0</ele><time>2026-04-02T14:18:58.909Z</time></trkpt><trkpt lat="42.3407636" lon="11.6177263"><ele>39.0</ele><time>2026-04-02T14:18:59.909Z</time></trkpt><trkpt lat="42.3404952" lon="11.6179236"><ele>39.0</ele><time>2026-04-02T14:19:00.913Z</time></trkpt><trkpt lat="42.3402296" lon="11.618119"><ele>39.0</ele><time>2026-04-02T14:19:01.911Z</time></trkpt><trkpt lat="42.3399679" lon="11.6183157"><ele>38.5</ele><time>2026-04-02T14:19:02.91Z</time></trkpt><trkpt lat="42.3397118" lon="11.6185242"><ele>38.0</ele><time>2026-04-02T14:19:03.911Z</time></trkpt><trkpt lat="42.3394571" lon="11.6187372"><ele>38.0</ele><time>2026-04-02T14:19:04.909Z</time></trkpt><trkpt lat="42.3392085" lon="11.6189651"><ele>38.0</ele><time>2026-04-02T14:19:05.908Z</time></trkpt><trkpt lat="42.338966" lon="11.6191971"><ele>38.0</ele><time>2026-04-02T14:19:06.909Z</time></trkpt><trkpt lat="42.3387294" lon="11.6194432"><ele>38.0</ele><time>2026-04-02T14:19:07.909Z</time></trkpt><trkpt lat="42.3384944" lon="11.6196945"><ele>38.0</ele><time>2026-04-02T14:19:08.91Z</time></trkpt><trkpt lat="42.3382668" lon="11.6199528"><ele>38.0</ele><time>2026-04-02T14:19:09.909Z</time></trkpt><trkpt lat="42.3380417" lon="11.6202192"><ele>36.0</ele><time>2026-04-02T14:19:10.912Z</time></trkpt><trkpt lat="42.3378192" lon="11.6204855"><ele>34.0</ele><time>2026-04-02T14:19:11.912Z</time></trkpt><trkpt lat="42.3375939" lon="11.6207507"><ele>34.0</ele><time>2026-04-02T14:19:12.909Z</time></trkpt><trkpt lat="42.3373722" lon="11.6210164"><ele>34.0</ele><time>2026-04-02T14:19:13.911Z</time></trkpt><trkpt lat="42.3371544" lon="11.6212815"><ele>31.5</ele><time>2026-04-02T14:19:14.91Z</time></trkpt><trkpt lat="42.3369337" lon="11.6215429"><ele>29.0</ele><time>2026-04-02T14:19:15.913Z</time></trkpt><trkpt lat="42.3367174" lon="11.6218051"><ele>27.5</ele><time>2026-04-02T14:19:16.909Z</time></trkpt><trkpt lat="42.3365023" lon="11.6220691"><ele>26.0</ele><time>2026-04-02T14:19:17.91Z</time></trkpt><trkpt lat="42.336289" lon="11.6223293"><ele>25.0</ele><time>2026-04-02T14:19:18.91Z</time></trkpt><trkpt lat="42.3360731" lon="11.6225907"><ele>24.0</ele><time>2026-04-02T14:19:19.909Z</time></trkpt><trkpt lat="42.3358606" lon="11.6228535"><ele>24.0</ele><time>2026-04-02T14:19:20.91Z</time></trkpt><trkpt lat="42.335647" lon="11.6231138"><ele>24.0</ele><time>2026-04-02T14:19:21.91Z</time></trkpt><trkpt lat="42.3354319" lon="11.623364"><ele>24.0</ele><time>2026-04-02T14:19:22.91Z</time></trkpt><trkpt lat="42.3352156" lon="11.623621"><ele>24.0</ele><time>2026-04-02T14:19:23.909Z</time></trkpt><trkpt lat="42.335003" lon="11.6238799"><ele>25.0</ele><time>2026-04-02T14:19:24.911Z</time></trkpt><trkpt lat="42.3347909" lon="11.6241369"><ele>26.0</ele><time>2026-04-02T14:19:25.911Z</time></trkpt><trkpt lat="42.3345768" lon="11.6243981"><ele>28.5</ele><time>2026-04-02T14:19:26.909Z</time></trkpt><trkpt lat="42.3343655" lon="11.6246568"><ele>31.0</ele><time>2026-04-02T14:19:27.908Z</time></trkpt><trkpt lat="42.3341517" lon="11.6249141"><ele>31.0</ele><time>2026-04-02T14:19:28.909Z</time></trkpt><trkpt lat="42.3339407" lon="11.6251723"><ele>31.0</ele><time>2026-04-02T14:19:29.908Z</time></trkpt><trkpt lat="42.3337281" lon="11.6254259"><ele>32.0</ele><time>2026-04-02T14:19:30.913Z</time></trkpt><trkpt lat="42.3335198" lon="11.6256754"><ele>33.0</ele><time>2026-04-02T14:19:31.91Z</time></trkpt><trkpt lat="42.3333146" lon="11.625923"><ele>33.0</ele><time>2026-04-02T14:19:32.909Z</time></trkpt><trkpt lat="42.3331116" lon="11.626173"><ele>33.0</ele><time>2026-04-02T14:19:33.909Z</time></trkpt><trkpt lat="42.3329118" lon="11.62642"><ele>33.5</ele><time>2026-04-02T14:19:34.908Z</time></trkpt><trkpt lat="42.3327119" lon="11.6266666"><ele>34.0</ele><time>2026-04-02T14:19:35.909Z</time></trkpt><trkpt lat="42.3325135" lon="11.6269193"><ele>34.0</ele><time>2026-04-02T14:19:36.911Z</time></trkpt><trkpt lat="42.3323085" lon="11.6271774"><ele>34.0</ele><time>2026-04-02T14:19:37.91Z</time></trkpt><trkpt lat="42.332104" lon="11.6274357"><ele>34.0</ele><time>2026-04-02T14:19:38.91Z</time></trkpt><trkpt lat="42.3318979" lon="11.6276859"><ele>34.0</ele><time>2026-04-02T14:19:39.911Z</time></trkpt><trkpt lat="42.331688" lon="11.6279419"><ele>34.0</ele><time>2026-04-02T14:19:40.91Z</time></trkpt><trkpt lat="42.3314746" lon="11.6281996"><ele>34.0</ele><time>2026-04-02T14:19:41.91Z</time></trkpt><trkpt lat="42.3312606" lon="11.6284616"><ele>34.0</ele><time>2026-04-02T14:19:42.919Z</time></trkpt><trkpt lat="42.3310464" lon="11.6287177"><ele>34.0</ele><time>2026-04-02T14:19:43.917Z</time></trkpt><trkpt lat="42.3308367" lon="11.6289772"><ele>34.0</ele><time>2026-04-02T14:19:44.909Z</time></trkpt><trkpt lat="42.3306261" lon="11.6292327"><ele>34.0</ele><time>2026-04-02T14:19:45.911Z</time></trkpt><trkpt lat="42.3304165" lon="11.6294804"><ele>34.5</ele><time>2026-04-02T14:19:46.914Z</time></trkpt><trkpt lat="42.3302052" lon="11.6297273"><ele>35.0</ele><time>2026-04-02T14:19:47.911Z</time></trkpt><trkpt lat="42.3299902" lon="11.6299779"><ele>35.0</ele><time>2026-04-02T14:19:48.91Z</time></trkpt><trkpt lat="42.329773" lon="11.6302286"><ele>35.0</ele><time>2026-04-02T14:19:49.909Z</time></trkpt><trkpt lat="42.3295564" lon="11.6304741"><ele>34.0</ele><time>2026-04-02T14:19:50.909Z</time></trkpt><trkpt lat="42.3293374" lon="11.6307187"><ele>33.0</ele><time>2026-04-02T14:19:51.909Z</time></trkpt><trkpt lat="42.3291211" lon="11.6309539"><ele>33.0</ele><time>2026-04-02T14:19:52.909Z</time></trkpt><trkpt lat="42.3288945" lon="11.631192"><ele>33.0</ele><time>2026-04-02T14:19:53.911Z</time></trkpt><trkpt lat="42.3286626" lon="11.6314269"><ele>33.0</ele><time>2026-04-02T14:19:54.91Z</time></trkpt><trkpt lat="42.3284257" lon="11.6316566"><ele>33.0</ele><time>2026-04-02T14:19:55.911Z</time></trkpt><trkpt lat="42.3281879" lon="11.6318806"><ele>33.5</ele><time>2026-04-02T14:19:56.912Z</time></trkpt><trkpt lat="42.3279471" lon="11.6321021"><ele>34.0</ele><time>2026-04-02T14:19:57.91Z</time></trkpt><trkpt lat="42.3277052" lon="11.6323268"><ele>34.0</ele><time>2026-04-02T14:19:58.909Z</time></trkpt><trkpt lat="42.3274614" lon="11.6325547"><ele>34.0</ele><time>2026-04-02T14:19:59.911Z</time></trkpt><trkpt lat="42.3272182" lon="11.6327814"><ele>33.5</ele><time>2026-04-02T14:20:00.91Z</time></trkpt><trkpt lat="42.3269837" lon="11.6330025"><ele>33.0</ele><time>2026-04-02T14:20:01.915Z</time></trkpt><trkpt lat="42.3267581" lon="11.6332245"><ele>33.0</ele><time>2026-04-02T14:20:02.91Z</time></trkpt><trkpt lat="42.3265381" lon="11.6334644"><ele>33.0</ele><time>2026-04-02T14:20:03.912Z</time></trkpt><trkpt lat="42.3263343" lon="11.6337236"><ele>34.0</ele><time>2026-04-02T14:20:04.914Z</time></trkpt><trkpt lat="42.3261494" lon="11.6339997"><ele>35.0</ele><time>2026-04-02T14:20:05.915Z</time></trkpt><trkpt lat="42.3259852" lon="11.6342931"><ele>34.5</ele><time>2026-04-02T14:20:06.913Z</time></trkpt><trkpt lat="42.3258414" lon="11.6346073"><ele>34.0</ele><time>2026-04-02T14:20:07.912Z</time></trkpt><trkpt lat="42.3257185" lon="11.6349404"><ele>34.0</ele><time>2026-04-02T14:20:08.913Z</time></trkpt><trkpt lat="42.3256134" lon="11.6352798"><ele>34.0</ele><time>2026-04-02T14:20:09.911Z</time></trkpt><trkpt lat="42.325528" lon="11.6356326"><ele>33.5</ele><time>2026-04-02T14:20:10.913Z</time></trkpt><trkpt lat="42.3254608" lon="11.6359985"><ele>33.0</ele><time>2026-04-02T14:20:11.913Z</time></trkpt><trkpt lat="42.325394" lon="11.63637"><ele>31.5</ele><time>2026-04-02T14:20:12.918Z</time></trkpt><trkpt lat="42.325327" lon="11.6367378"><ele>30.0</ele><time>2026-04-02T14:20:13.933Z</time></trkpt><trkpt lat="42.3252605" lon="11.6371023"><ele>29.0</ele><time>2026-04-02T14:20:14.912Z</time></trkpt><trkpt lat="42.3251884" lon="11.6374713"><ele>28.0</ele><time>2026-04-02T14:20:15.918Z</time></trkpt><trkpt lat="42.3251068" lon="11.6378364"><ele>28.0</ele><time>2026-04-02T14:20:16.911Z</time></trkpt><trkpt lat="42.3250061" lon="11.638183"><ele>28.0</ele><time>2026-04-02T14:20:17.915Z</time></trkpt><trkpt lat="42.3248852" lon="11.6385289"><ele>28.5</ele><time>2026-04-02T14:20:18.912Z</time></trkpt><trkpt lat="42.3247478" lon="11.6388589"><ele>29.0</ele><time>2026-04-02T14:20:19.912Z</time></trkpt><trkpt lat="42.3245861" lon="11.6391721"><ele>25.5</ele><time>2026-04-02T14:20:20.912Z</time></trkpt><trkpt lat="42.3243986" lon="11.6394708"><ele>22.0</ele><time>2026-04-02T14:20:21.91Z</time></trkpt><trkpt lat="42.3241928" lon="11.6397505"><ele>22.0</ele><time>2026-04-02T14:20:22.914Z</time></trkpt><trkpt lat="42.3239777" lon="11.6400177"><ele>22.0</ele><time>2026-04-02T14:20:23.912Z</time></trkpt><trkpt lat="42.3237587" lon="11.640287"><ele>19.5</ele><time>2026-04-02T14:20:24.911Z</time></trkpt><trkpt lat="42.3235389" lon="11.640561"><ele>17.0</ele><time>2026-04-02T14:20:25.913Z</time></trkpt><trkpt lat="42.3233202" lon="11.6408307"><ele>17.0</ele><time>2026-04-02T14:20:26.914Z</time></trkpt><trkpt lat="42.3230974" lon="11.6411023"><ele>17.0</ele><time>2026-04-02T14:20:27.911Z</time></trkpt><trkpt lat="42.322877" lon="11.6413839"><ele>17.5</ele><time>2026-04-02T14:20:28.911Z</time></trkpt><trkpt lat="42.3226555" lon="11.6416681"><ele>18.0</ele><time>2026-04-02T14:20:29.909Z</time></trkpt><trkpt lat="42.3224354" lon="11.6419525"><ele>17.0</ele><time>2026-04-02T14:20:30.913Z</time></trkpt><trkpt lat="42.3222208" lon="11.6422378"><ele>16.0</ele><time>2026-04-02T14:20:31.912Z</time></trkpt><trkpt lat="42.3220147" lon="11.6425318"><ele>16.0</ele><time>2026-04-02T14:20:32.914Z</time></trkpt><trkpt lat="42.3218246" lon="11.6428431"><ele>16.0</ele><time>2026-04-02T14:20:33.916Z</time></trkpt><trkpt lat="42.3216545" lon="11.6431695"><ele>16.0</ele><time>2026-04-02T14:20:34.912Z</time></trkpt><trkpt lat="42.3215087" lon="11.6435193"><ele>16.0</ele><time>2026-04-02T14:20:35.917Z</time></trkpt><trkpt lat="42.3213845" lon="11.6438863"><ele>14.5</ele><time>2026-04-02T14:20:36.913Z</time></trkpt><trkpt lat="42.3212818" lon="11.6442749"><ele>13.0</ele><time>2026-04-02T14:20:37.91Z</time></trkpt><trkpt lat="42.3211948" lon="11.6446806"><ele>13.0</ele><time>2026-04-02T14:20:38.91Z</time></trkpt><trkpt lat="42.3211122" lon="11.6450961"><ele>13.0</ele><time>2026-04-02T14:20:39.913Z</time></trkpt><trkpt lat="42.3210262" lon="11.6455175"><ele>14.0</ele><time>2026-04-02T14:20:40.913Z</time></trkpt><trkpt lat="42.320941" lon="11.6459444"><ele>15.0</ele><time>2026-04-02T14:20:41.911Z</time></trkpt><trkpt lat="42.3208541" lon="11.6463745"><ele>16.0</ele><time>2026-04-02T14:20:42.913Z</time></trkpt><trkpt lat="42.320766" lon="11.6467955"><ele>17.0</ele><time>2026-04-02T14:20:43.912Z</time></trkpt><trkpt lat="42.3206681" lon="11.647196"><ele>16.5</ele><time>2026-04-02T14:20:44.912Z</time></trkpt><trkpt lat="42.3205541" lon="11.6475829"><ele>16.0</ele><time>2026-04-02T14:20:45.91Z</time></trkpt><trkpt lat="42.3204334" lon="11.6479705"><ele>15.5</ele><time>2026-04-02T14:20:46.915Z</time></trkpt><trkpt lat="42.3202963" lon="11.6483484"><ele>15.0</ele><time>2026-04-02T14:20:47.912Z</time></trkpt><trkpt lat="42.3201433" lon="11.6487247"><ele>14.5</ele><time>2026-04-02T14:20:48.91Z</time></trkpt><trkpt lat="42.3199736" lon="11.6490939"><ele>14.0</ele><time>2026-04-02T14:20:49.916Z</time></trkpt><trkpt lat="42.3197863" lon="11.6494442"><ele>13.5</ele><time>2026-04-02T14:20:50.913Z</time></trkpt><trkpt lat="42.3195844" lon="11.6497873"><ele>13.0</ele><time>2026-04-02T14:20:51.913Z</time></trkpt><trkpt lat="42.3193721" lon="11.6501214"><ele>15.5</ele><time>2026-04-02T14:20:52.912Z</time></trkpt><trkpt lat="42.3191539" lon="11.6504448"><ele>18.0</ele><time>2026-04-02T14:20:53.908Z</time></trkpt><trkpt lat="42.3189315" lon="11.6507659"><ele>16.5</ele><time>2026-04-02T14:20:54.907Z</time></trkpt><trkpt lat="42.3187139" lon="11.6510868"><ele>15.0</ele><time>2026-04-02T14:20:55.916Z</time></trkpt><trkpt lat="42.3184941" lon="11.6514098"><ele>15.0</ele><time>2026-04-02T14:20:56.91Z</time></trkpt><trkpt lat="42.3182703" lon="11.6517214"><ele>15.0</ele><time>2026-04-02T14:20:57.919Z</time></trkpt><trkpt lat="42.3180335" lon="11.6520117"><ele>14.5</ele><time>2026-04-02T14:20:58.913Z</time></trkpt><trkpt lat="42.3177878" lon="11.6522718"><ele>14.0</ele><time>2026-04-02T14:20:59.913Z</time></trkpt><trkpt lat="42.3175362" lon="11.652512"><ele>14.0</ele><time>2026-04-02T14:21:00.922Z</time></trkpt><trkpt lat="42.3172744" lon="11.6527343"><ele>14.0</ele><time>2026-04-02T14:21:01.91Z</time></trkpt><trkpt lat="42.3170094" lon="11.6529298"><ele>15.0</ele><time>2026-04-02T14:21:02.911Z</time></trkpt><trkpt lat="42.3167368" lon="11.653099"><ele>16.0</ele><time>2026-04-02T14:21:03.916Z</time></trkpt><trkpt lat="42.3164556" lon="11.6532508"><ele>15.5</ele><time>2026-04-02T14:21:04.913Z</time></trkpt><trkpt lat="42.316163" lon="11.6533769"><ele>15.0</ele><time>2026-04-02T14:21:05.912Z</time></trkpt><trkpt lat="42.3158656" lon="11.6534803"><ele>14.5</ele><time>2026-04-02T14:21:06.915Z</time></trkpt><trkpt lat="42.3155604" lon="11.65356"><ele>14.0</ele><time>2026-04-02T14:21:07.913Z</time></trkpt><trkpt lat="42.3152514" lon="11.6536145"><ele>16.0</ele><time>2026-04-02T14:21:08.919Z</time></trkpt><trkpt lat="42.3149371" lon="11.6536471"><ele>18.0</ele><time>2026-04-02T14:21:09.913Z</time></trkpt><trkpt lat="42.3146265" lon="11.6536708"><ele>18.0</ele><time>2026-04-02T14:21:10.914Z</time></trkpt><trkpt lat="42.3143204" lon="11.6536905"><ele>18.0</ele><time>2026-04-02T14:21:11.912Z</time></trkpt><trkpt lat="42.3137338" lon="11.6537169"><ele>17.0</ele><time>2026-04-02T14:21:13.911Z</time></trkpt><trkpt lat="42.3134509" lon="11.6537327"><ele>16.0</ele><time>2026-04-02T14:21:14.912Z</time></trkpt><trkpt lat="42.3131667" lon="11.6537462"><ele>18.5</ele><time>2026-04-02T14:21:15.908Z</time></trkpt><trkpt lat="42.3128848" lon="11.6537604"><ele>21.0</ele><time>2026-04-02T14:21:16.912Z</time></trkpt><trkpt lat="42.312604" lon="11.653777"><ele>21.0</ele><time>2026-04-02T14:21:17.911Z</time></trkpt><trkpt lat="42.312321" lon="11.6537986"><ele>21.0</ele><time>2026-04-02T14:21:18.911Z</time></trkpt><trkpt lat="42.3120381" lon="11.6538198"><ele>24.5</ele><time>2026-04-02T14:21:19.914Z</time></trkpt><trkpt lat="42.3117506" lon="11.6538533"><ele>28.0</ele><time>2026-04-02T14:21:20.913Z</time></trkpt><trkpt lat="42.311463" lon="11.653905"><ele>29.5</ele><time>2026-04-02T14:21:21.917Z</time></trkpt><trkpt lat="42.3111795" lon="11.6539783"><ele>31.0</ele><time>2026-04-02T14:21:22.914Z</time></trkpt><trkpt lat="42.3108994" lon="11.6540744"><ele>31.0</ele><time>2026-04-02T14:21:23.917Z</time></trkpt><trkpt lat="42.3106332" lon="11.6541955"><ele>31.0</ele><time>2026-04-02T14:21:24.918Z</time></trkpt><trkpt lat="42.3103794" lon="11.6543411"><ele>29.5</ele><time>2026-04-02T14:21:25.912Z</time></trkpt><trkpt lat="42.3101312" lon="11.6545114"><ele>28.0</ele><time>2026-04-02T14:21:26.913Z</time></trkpt><trkpt lat="42.3098879" lon="11.6546994"><ele>27.5</ele><time>2026-04-02T14:21:27.91Z</time></trkpt><trkpt lat="42.3096503" lon="11.6548965"><ele>27.0</ele><time>2026-04-02T14:21:28.914Z</time></trkpt><trkpt lat="42.3094194" lon="11.6551089"><ele>26.0</ele><time>2026-04-02T14:21:29.913Z</time></trkpt><trkpt lat="42.3092011" lon="11.6553444"><ele>25.0</ele><time>2026-04-02T14:21:30.915Z</time></trkpt><trkpt lat="42.3089928" lon="11.6555875"><ele>24.5</ele><time>2026-04-02T14:21:31.913Z</time></trkpt><trkpt lat="42.308794" lon="11.6558413"><ele>24.0</ele><time>2026-04-02T14:21:32.912Z</time></trkpt><trkpt lat="42.3086067" lon="11.6561034"><ele>23.5</ele><time>2026-04-02T14:21:33.915Z</time></trkpt><trkpt lat="42.3084332" lon="11.6563917"><ele>23.0</ele><time>2026-04-02T14:21:34.913Z</time></trkpt><trkpt lat="42.3082733" lon="11.6566879"><ele>24.5</ele><time>2026-04-02T14:21:35.911Z</time></trkpt><trkpt lat="42.3081202" lon="11.6569878"><ele>26.0</ele><time>2026-04-02T14:21:36.915Z</time></trkpt><trkpt lat="42.3079764" lon="11.6572922"><ele>26.0</ele><time>2026-04-02T14:21:37.91Z</time></trkpt><trkpt lat="42.3078311" lon="11.6575977"><ele>26.0</ele><time>2026-04-02T14:21:38.913Z</time></trkpt><trkpt lat="42.3076883" lon="11.6579029"><ele>27.5</ele><time>2026-04-02T14:21:39.912Z</time></trkpt><trkpt lat="42.3075453" lon="11.6582034"><ele>29.0</ele><time>2026-04-02T14:21:40.913Z</time></trkpt><trkpt lat="42.3074022" lon="11.658503"><ele>29.5</ele><time>2026-04-02T14:21:41.915Z</time></trkpt><trkpt lat="42.3072611" lon="11.6588067"><ele>30.0</ele><time>2026-04-02T14:21:42.91Z</time></trkpt><trkpt lat="42.3071178" lon="11.6591118"><ele>30.0</ele><time>2026-04-02T14:21:43.918Z</time></trkpt><trkpt lat="42.3069761" lon="11.6594158"><ele>30.0</ele><time>2026-04-02T14:21:44.915Z</time></trkpt><trkpt lat="42.306832" lon="11.6597166"><ele>30.5</ele><time>2026-04-02T14:21:45.911Z</time></trkpt><trkpt lat="42.3066872" lon="11.6600157"><ele>31.0</ele><time>2026-04-02T14:21:46.912Z</time></trkpt><trkpt lat="42.3065443" lon="11.6603144"><ele>32.0</ele><time>2026-04-02T14:21:47.917Z</time></trkpt><trkpt lat="42.3064025" lon="11.6606132"><ele>33.0</ele><time>2026-04-02T14:21:48.911Z</time></trkpt><trkpt lat="42.3062583" lon="11.6609136"><ele>32.0</ele><time>2026-04-02T14:21:49.912Z</time></trkpt><trkpt lat="42.3061127" lon="11.6612171"><ele>31.0</ele><time>2026-04-02T14:21:50.911Z</time></trkpt><trkpt lat="42.3059671" lon="11.6615226"><ele>31.0</ele><time>2026-04-02T14:21:51.912Z</time></trkpt><trkpt lat="42.3058212" lon="11.6618352"><ele>31.0</ele><time>2026-04-02T14:21:52.91Z</time></trkpt><trkpt lat="42.3056797" lon="11.6621523"><ele>31.0</ele><time>2026-04-02T14:21:53.908Z</time></trkpt><trkpt lat="42.3055368" lon="11.6624748"><ele>31.0</ele><time>2026-04-02T14:21:54.91Z</time></trkpt><trkpt lat="42.305392" lon="11.6627946"><ele>31.0</ele><time>2026-04-02T14:21:55.91Z</time></trkpt><trkpt lat="42.3052416" lon="11.6631115"><ele>31.0</ele><time>2026-04-02T14:21:56.907Z</time></trkpt><trkpt lat="42.3050831" lon="11.6634189"><ele>31.0</ele><time>2026-04-02T14:21:57.911Z</time></trkpt><trkpt lat="42.3049162" lon="11.6637206"><ele>31.0</ele><time>2026-04-02T14:21:58.91Z</time></trkpt><trkpt lat="42.3047437" lon="11.6640078"><ele>31.0</ele><time>2026-04-02T14:21:59.912Z</time></trkpt><trkpt lat="42.3045686" lon="11.6642846"><ele>31.0</ele><time>2026-04-02T14:22:00.912Z</time></trkpt><trkpt lat="42.3043944" lon="11.6645624"><ele>29.0</ele><time>2026-04-02T14:22:01.912Z</time></trkpt><trkpt lat="42.3042166" lon="11.6648366"><ele>27.0</ele><time>2026-04-02T14:22:02.912Z</time></trkpt><trkpt lat="42.3040353" lon="11.6651102"><ele>26.5</ele><time>2026-04-02T14:22:03.912Z</time></trkpt><trkpt lat="42.3038515" lon="11.6653848"><ele>26.0</ele><time>2026-04-02T14:22:04.916Z</time></trkpt><trkpt lat="42.3036712" lon="11.6656619"><ele>26.0</ele><time>2026-04-02T14:22:05.912Z</time></trkpt><trkpt lat="42.3034943" lon="11.6659388"><ele>26.0</ele><time>2026-04-02T14:22:06.914Z</time></trkpt><trkpt lat="42.3033139" lon="11.66622"><ele>27.0</ele><time>2026-04-02T14:22:07.913Z</time></trkpt><trkpt lat="42.3031315" lon="11.6664933"><ele>28.0</ele><time>2026-04-02T14:22:08.908Z</time></trkpt><trkpt lat="42.3029526" lon="11.6667663"><ele>29.5</ele><time>2026-04-02T14:22:09.911Z</time></trkpt><trkpt lat="42.302772" lon="11.6670384"><ele>31.0</ele><time>2026-04-02T14:22:10.913Z</time></trkpt><trkpt lat="42.3025926" lon="11.667308"><ele>31.0</ele><time>2026-04-02T14:22:11.914Z</time></trkpt><trkpt lat="42.3024144" lon="11.6675764"><ele>31.0</ele><time>2026-04-02T14:22:12.924Z</time></trkpt><trkpt lat="42.3022347" lon="11.6678458"><ele>32.0</ele><time>2026-04-02T14:22:13.911Z</time></trkpt><trkpt lat="42.3020551" lon="11.6681116"><ele>33.0</ele><time>2026-04-02T14:22:14.912Z</time></trkpt><trkpt lat="42.3018745" lon="11.6683828"><ele>33.0</ele><time>2026-04-02T14:22:15.912Z</time></trkpt><trkpt lat="42.3016963" lon="11.6686565"><ele>33.0</ele><time>2026-04-02T14:22:16.913Z</time></trkpt><trkpt lat="42.3015181" lon="11.6689236"><ele>33.5</ele><time>2026-04-02T14:22:17.912Z</time></trkpt><trkpt lat="42.3013468" lon="11.6691799"><ele>34.0</ele><time>2026-04-02T14:22:18.916Z</time></trkpt><trkpt lat="42.3011807" lon="11.6694252"><ele>33.5</ele><time>2026-04-02T14:22:19.913Z</time></trkpt><trkpt lat="42.3010148" lon="11.6696772"><ele>33.0</ele><time>2026-04-02T14:22:20.911Z</time></trkpt><trkpt lat="42.3008483" lon="11.6699429"><ele>33.0</ele><time>2026-04-02T14:22:21.918Z</time></trkpt><trkpt lat="42.3006829" lon="11.6702115"><ele>33.0</ele><time>2026-04-02T14:22:22.911Z</time></trkpt><trkpt lat="42.3005133" lon="11.6704798"><ele>31.5</ele><time>2026-04-02T14:22:23.912Z</time></trkpt><trkpt lat="42.3003396" lon="11.6707485"><ele>30.0</ele><time>2026-04-02T14:22:24.913Z</time></trkpt><trkpt lat="42.3001649" lon="11.6710251"><ele>31.5</ele><time>2026-04-02T14:22:25.917Z</time></trkpt><trkpt lat="42.2999848" lon="11.6713029"><ele>33.0</ele><time>2026-04-02T14:22:26.911Z</time></trkpt><trkpt lat="42.2998037" lon="11.6715792"><ele>31.5</ele><time>2026-04-02T14:22:27.91Z</time></trkpt><trkpt lat="42.299622" lon="11.6718577"><ele>30.0</ele><time>2026-04-02T14:22:28.911Z</time></trkpt><trkpt lat="42.2994392" lon="11.6721371"><ele>30.0</ele><time>2026-04-02T14:22:29.926Z</time></trkpt><trkpt lat="42.2992522" lon="11.6724218"><ele>30.0</ele><time>2026-04-02T14:22:30.911Z</time></trkpt><trkpt lat="42.2990617" lon="11.6727032"><ele>30.5</ele><time>2026-04-02T14:22:31.911Z</time></trkpt><trkpt lat="42.2988721" lon="11.6729902"><ele>31.0</ele><time>2026-04-02T14:22:32.911Z</time></trkpt><trkpt lat="42.2986837" lon="11.6732735"><ele>31.0</ele><time>2026-04-02T14:22:33.912Z</time></trkpt><trkpt lat="42.2984902" lon="11.6735618"><ele>31.0</ele><time>2026-04-02T14:22:34.912Z</time></trkpt><trkpt lat="42.2982911" lon="11.6738433"><ele>31.5</ele><time>2026-04-02T14:22:35.912Z</time></trkpt><trkpt lat="42.2980939" lon="11.6741174"><ele>32.0</ele><time>2026-04-02T14:22:36.912Z</time></trkpt><trkpt lat="42.2978912" lon="11.6743876"><ele>30.5</ele><time>2026-04-02T14:22:37.911Z</time></trkpt><trkpt lat="42.297685" lon="11.6746528"><ele>29.0</ele><time>2026-04-02T14:22:38.912Z</time></trkpt><trkpt lat="42.2974736" lon="11.6749128"><ele>29.0</ele><time>2026-04-02T14:22:39.911Z</time></trkpt><trkpt lat="42.2972613" lon="11.6751711"><ele>29.0</ele><time>2026-04-02T14:22:40.91Z</time></trkpt><trkpt lat="42.2970493" lon="11.6754302"><ele>27.0</ele><time>2026-04-02T14:22:41.912Z</time></trkpt><trkpt lat="42.2966161" lon="11.675947"><ele>26.0</ele><time>2026-04-02T14:22:43.915Z</time></trkpt><trkpt lat="42.2963981" lon="11.6762084"><ele>25.0</ele><time>2026-04-02T14:22:44.918Z</time></trkpt><trkpt lat="42.296181" lon="11.6764721"><ele>25.0</ele><time>2026-04-02T14:22:45.91Z</time></trkpt><trkpt lat="42.2959623" lon="11.6767341"><ele>25.0</ele><time>2026-04-02T14:22:46.918Z</time></trkpt><trkpt lat="42.2957466" lon="11.6769925"><ele>26.0</ele><time>2026-04-02T14:22:47.913Z</time></trkpt><trkpt lat="42.2955299" lon="11.6772524"><ele>27.0</ele><time>2026-04-02T14:22:48.911Z</time></trkpt><trkpt lat="42.2953151" lon="11.6775133"><ele>28.5</ele><time>2026-04-02T14:22:49.913Z</time></trkpt><trkpt lat="42.2950979" lon="11.6777698"><ele>30.0</ele><time>2026-04-02T14:22:50.909Z</time></trkpt><trkpt lat="42.2948878" lon="11.6780215"><ele>29.5</ele><time>2026-04-02T14:22:51.913Z</time></trkpt><trkpt lat="42.2946917" lon="11.6782598"><ele>29.0</ele><time>2026-04-02T14:22:52.914Z</time></trkpt><trkpt lat="42.2944967" lon="11.6784974"><ele>29.5</ele><time>2026-04-02T14:22:53.91Z</time></trkpt><trkpt lat="42.2943011" lon="11.6787356"><ele>30.0</ele><time>2026-04-02T14:22:54.911Z</time></trkpt><trkpt lat="42.2940991" lon="11.6789743"><ele>30.0</ele><time>2026-04-02T14:22:55.909Z</time></trkpt><trkpt lat="42.2938959" lon="11.6792182"><ele>30.0</ele><time>2026-04-02T14:22:56.912Z</time></trkpt><trkpt lat="42.293689" lon="11.6794669"><ele>30.0</ele><time>2026-04-02T14:22:57.92Z</time></trkpt><trkpt lat="42.2934835" lon="11.6797138"><ele>30.0</ele><time>2026-04-02T14:22:58.913Z</time></trkpt><trkpt lat="42.2932749" lon="11.6799667"><ele>30.0</ele><time>2026-04-02T14:22:59.911Z</time></trkpt><trkpt lat="42.2930677" lon="11.6802209"><ele>30.0</ele><time>2026-04-02T14:23:00.91Z</time></trkpt><trkpt lat="42.2928566" lon="11.6804882"><ele>30.0</ele><time>2026-04-02T14:23:01.911Z</time></trkpt><trkpt lat="42.2926436" lon="11.6807558"><ele>30.0</ele><time>2026-04-02T14:23:02.911Z</time></trkpt><trkpt lat="42.2924307" lon="11.6810152"><ele>29.5</ele><time>2026-04-02T14:23:03.91Z</time></trkpt><trkpt lat="42.2922151" lon="11.6812758"><ele>29.0</ele><time>2026-04-02T14:23:04.925Z</time></trkpt><trkpt lat="42.2919942" lon="11.6815369"><ele>29.0</ele><time>2026-04-02T14:23:05.914Z</time></trkpt><trkpt lat="42.2917756" lon="11.6817944"><ele>29.0</ele><time>2026-04-02T14:23:06.912Z</time></trkpt><trkpt lat="42.2915622" lon="11.6820394"><ele>29.5</ele><time>2026-04-02T14:23:07.913Z</time></trkpt><trkpt lat="42.2913467" lon="11.6822863"><ele>30.0</ele><time>2026-04-02T14:23:08.911Z</time></trkpt><trkpt lat="42.2911369" lon="11.6825311"><ele>30.0</ele><time>2026-04-02T14:23:09.911Z</time></trkpt><trkpt lat="42.2909271" lon="11.6827772"><ele>30.0</ele><time>2026-04-02T14:23:10.912Z</time></trkpt><trkpt lat="42.2907197" lon="11.6830214"><ele>31.0</ele><time>2026-04-02T14:23:11.912Z</time></trkpt><trkpt lat="42.2903125" lon="11.6835186"><ele>31.0</ele><time>2026-04-02T14:23:13.909Z</time></trkpt><trkpt lat="42.2901064" lon="11.6837682"><ele>31.0</ele><time>2026-04-02T14:23:14.913Z</time></trkpt><trkpt lat="42.2899008" lon="11.6840175"><ele>31.0</ele><time>2026-04-02T14:23:15.911Z</time></trkpt><trkpt lat="42.2896986" lon="11.6842653"><ele>31.0</ele><time>2026-04-02T14:23:16.91Z</time></trkpt><trkpt lat="42.2894924" lon="11.6845148"><ele>31.0</ele><time>2026-04-02T14:23:17.912Z</time></trkpt><trkpt lat="42.2892882" lon="11.6847593"><ele>31.0</ele><time>2026-04-02T14:23:18.91Z</time></trkpt><trkpt lat="42.2890826" lon="11.6850032"><ele>31.0</ele><time>2026-04-02T14:23:19.911Z</time></trkpt><trkpt lat="42.2888801" lon="11.6852447"><ele>31.0</ele><time>2026-04-02T14:23:20.909Z</time></trkpt><trkpt lat="42.2886779" lon="11.6854854"><ele>31.0</ele><time>2026-04-02T14:23:21.914Z</time></trkpt><trkpt lat="42.2884756" lon="11.6857292"><ele>31.0</ele><time>2026-04-02T14:23:22.912Z</time></trkpt><trkpt lat="42.2882747" lon="11.6859727"><ele>30.0</ele><time>2026-04-02T14:23:23.912Z</time></trkpt><trkpt lat="42.2880684" lon="11.6862205"><ele>29.0</ele><time>2026-04-02T14:23:24.913Z</time></trkpt><trkpt lat="42.2878652" lon="11.6864648"><ele>29.0</ele><time>2026-04-02T14:23:25.922Z</time></trkpt><trkpt lat="42.2876624" lon="11.6867039"><ele>29.0</ele><time>2026-04-02T14:23:26.913Z</time></trkpt><trkpt lat="42.2874575" lon="11.6869529"><ele>27.5</ele><time>2026-04-02T14:23:27.912Z</time></trkpt><trkpt lat="42.2872543" lon="11.6872007"><ele>26.0</ele><time>2026-04-02T14:23:28.911Z</time></trkpt><trkpt lat="42.2870498" lon="11.6874443"><ele>26.0</ele><time>2026-04-02T14:23:29.913Z</time></trkpt><trkpt lat="42.2868446" lon="11.6876872"><ele>26.0</ele><time>2026-04-02T14:23:30.914Z</time></trkpt><trkpt lat="42.2866415" lon="11.6879285"><ele>25.5</ele><time>2026-04-02T14:23:31.914Z</time></trkpt><trkpt lat="42.2864417" lon="11.6881664"><ele>25.0</ele><time>2026-04-02T14:23:32.911Z</time></trkpt><trkpt lat="42.2862404" lon="11.6884141"><ele>26.0</ele><time>2026-04-02T14:23:33.91Z</time></trkpt><trkpt lat="42.2860362" lon="11.6886605"><ele>27.0</ele><time>2026-04-02T14:23:34.912Z</time></trkpt><trkpt lat="42.2858302" lon="11.6889042"><ele>27.0</ele><time>2026-04-02T14:23:35.919Z</time></trkpt><trkpt lat="42.2856223" lon="11.6891529"><ele>27.0</ele><time>2026-04-02T14:23:36.913Z</time></trkpt><trkpt lat="42.2854147" lon="11.689399"><ele>29.0</ele><time>2026-04-02T14:23:37.916Z</time></trkpt><trkpt lat="42.2852104" lon="11.6896427"><ele>31.0</ele><time>2026-04-02T14:23:38.913Z</time></trkpt><trkpt lat="42.2850069" lon="11.6898821"><ele>31.0</ele><time>2026-04-02T14:23:39.912Z</time></trkpt><trkpt lat="42.2848059" lon="11.6901219"><ele>31.0</ele><time>2026-04-02T14:23:40.911Z</time></trkpt><trkpt lat="42.2846031" lon="11.6903633"><ele>31.5</ele><time>2026-04-02T14:23:41.912Z</time></trkpt><trkpt lat="42.2844022" lon="11.6906079"><ele>32.0</ele><time>2026-04-02T14:23:42.91Z</time></trkpt><trkpt lat="42.2842042" lon="11.6908471"><ele>32.0</ele><time>2026-04-02T14:23:43.914Z</time></trkpt><trkpt lat="42.2840081" lon="11.6910804"><ele>32.0</ele><time>2026-04-02T14:23:44.918Z</time></trkpt><trkpt lat="42.2838193" lon="11.6913088"><ele>31.5</ele><time>2026-04-02T14:23:45.912Z</time></trkpt><trkpt lat="42.2836278" lon="11.6915354"><ele>31.0</ele><time>2026-04-02T14:23:46.912Z</time></trkpt><trkpt lat="42.2834378" lon="11.6917609"><ele>31.5</ele><time>2026-04-02T14:23:47.913Z</time></trkpt><trkpt lat="42.2832495" lon="11.691986"><ele>32.0</ele><time>2026-04-02T14:23:48.913Z</time></trkpt><trkpt lat="42.2830612" lon="11.6922142"><ele>30.5</ele><time>2026-04-02T14:23:49.912Z</time></trkpt><trkpt lat="42.282875" lon="11.6924444"><ele>29.0</ele><time>2026-04-02T14:23:50.912Z</time></trkpt><trkpt lat="42.2826856" lon="11.6926838"><ele>28.0</ele><time>2026-04-02T14:23:51.912Z</time></trkpt><trkpt lat="42.282495" lon="11.6929293"><ele>27.0</ele><time>2026-04-02T14:23:52.911Z</time></trkpt><trkpt lat="42.2823106" lon="11.6931957"><ele>27.0</ele><time>2026-04-02T14:23:53.913Z</time></trkpt><trkpt lat="42.2821285" lon="11.6934761"><ele>27.0</ele><time>2026-04-02T14:23:54.909Z</time></trkpt><trkpt lat="42.2819465" lon="11.6937615"><ele>27.0</ele><time>2026-04-02T14:23:55.911Z</time></trkpt><trkpt lat="42.2817706" lon="11.6940464"><ele>27.0</ele><time>2026-04-02T14:23:56.914Z</time></trkpt><trkpt lat="42.2815992" lon="11.694331"><ele>28.5</ele><time>2026-04-02T14:23:57.912Z</time></trkpt><trkpt lat="42.2814306" lon="11.6946175"><ele>30.0</ele><time>2026-04-02T14:23:58.914Z</time></trkpt><trkpt lat="42.2812658" lon="11.6949061"><ele>30.0</ele><time>2026-04-02T14:23:59.917Z</time></trkpt><trkpt lat="42.2811035" lon="11.6951944"><ele>30.0</ele><time>2026-04-02T14:24:00.911Z</time></trkpt><trkpt lat="42.2809442" lon="11.6954829"><ele>31.0</ele><time>2026-04-02T14:24:01.911Z</time></trkpt><trkpt lat="42.2807848" lon="11.6957678"><ele>32.0</ele><time>2026-04-02T14:24:02.912Z</time></trkpt><trkpt lat="42.2806237" lon="11.6960516"><ele>32.5</ele><time>2026-04-02T14:24:03.912Z</time></trkpt><trkpt lat="42.2804642" lon="11.6963338"><ele>33.0</ele><time>2026-04-02T14:24:04.911Z</time></trkpt><trkpt lat="42.2803049" lon="11.6966172"><ele>33.0</ele><time>2026-04-02T14:24:05.913Z</time></trkpt><trkpt lat="42.2801447" lon="11.6969035"><ele>33.0</ele><time>2026-04-02T14:24:06.913Z</time></trkpt><trkpt lat="42.2799855" lon="11.6971901"><ele>33.0</ele><time>2026-04-02T14:24:07.91Z</time></trkpt><trkpt lat="42.2798283" lon="11.6974843"><ele>33.0</ele><time>2026-04-02T14:24:08.923Z</time></trkpt><trkpt lat="42.2796688" lon="11.6977797"><ele>32.5</ele><time>2026-04-02T14:24:09.911Z</time></trkpt><trkpt lat="42.2795077" lon="11.6980755"><ele>32.0</ele><time>2026-04-02T14:24:10.911Z</time></trkpt><trkpt lat="42.2793459" lon="11.698374"><ele>32.5</ele><time>2026-04-02T14:24:11.914Z</time></trkpt><trkpt lat="42.2791869" lon="11.6986686"><ele>33.0</ele><time>2026-04-02T14:24:12.914Z</time></trkpt><trkpt lat="42.2788713" lon="11.6992584"><ele>32.0</ele><time>2026-04-02T14:24:14.913Z</time></trkpt><trkpt lat="42.2787068" lon="11.699554"><ele>31.0</ele><time>2026-04-02T14:24:15.913Z</time></trkpt><trkpt lat="42.2785461" lon="11.69985"><ele>31.0</ele><time>2026-04-02T14:24:16.92Z</time></trkpt><trkpt lat="42.2783875" lon="11.7001441"><ele>31.0</ele><time>2026-04-02T14:24:17.91Z</time></trkpt><trkpt lat="42.2782273" lon="11.7004387"><ele>32.0</ele><time>2026-04-02T14:24:18.91Z</time></trkpt><trkpt lat="42.278066" lon="11.7007381"><ele>33.0</ele><time>2026-04-02T14:24:19.912Z</time></trkpt><trkpt lat="42.2779041" lon="11.7010335"><ele>33.5</ele><time>2026-04-02T14:24:20.912Z</time></trkpt><trkpt lat="42.2777445" lon="11.7013225"><ele>34.0</ele><time>2026-04-02T14:24:21.916Z</time></trkpt><trkpt lat="42.2775873" lon="11.7016126"><ele>34.0</ele><time>2026-04-02T14:24:22.912Z</time></trkpt><trkpt lat="42.2774344" lon="11.7019046"><ele>34.0</ele><time>2026-04-02T14:24:23.912Z</time></trkpt><trkpt lat="42.2772812" lon="11.7021961"><ele>34.0</ele><time>2026-04-02T14:24:24.911Z</time></trkpt><trkpt lat="42.2771276" lon="11.7024821"><ele>34.0</ele><time>2026-04-02T14:24:25.91Z</time></trkpt><trkpt lat="42.2769707" lon="11.7027701"><ele>34.0</ele><time>2026-04-02T14:24:26.91Z</time></trkpt><trkpt lat="42.2768105" lon="11.7030622"><ele>34.0</ele><time>2026-04-02T14:24:27.91Z</time></trkpt><trkpt lat="42.2766507" lon="11.7033527"><ele>34.0</ele><time>2026-04-02T14:24:28.909Z</time></trkpt><trkpt lat="42.2764905" lon="11.7036487"><ele>34.0</ele><time>2026-04-02T14:24:29.911Z</time></trkpt><trkpt lat="42.2763301" lon="11.7039476"><ele>34.0</ele><time>2026-04-02T14:24:30.913Z</time></trkpt><trkpt lat="42.2761674" lon="11.7042468"><ele>34.0</ele><time>2026-04-02T14:24:31.91Z</time></trkpt><trkpt lat="42.2760041" lon="11.7045442"><ele>34.5</ele><time>2026-04-02T14:24:32.913Z</time></trkpt><trkpt lat="42.2758455" lon="11.7048423"><ele>35.0</ele><time>2026-04-02T14:24:33.909Z</time></trkpt><trkpt lat="42.2756851" lon="11.7051483"><ele>34.5</ele><time>2026-04-02T14:24:34.916Z</time></trkpt><trkpt lat="42.2755222" lon="11.7054543"><ele>34.0</ele><time>2026-04-02T14:24:35.911Z</time></trkpt><trkpt lat="42.2753599" lon="11.7057592"><ele>34.0</ele><time>2026-04-02T14:24:36.915Z</time></trkpt><trkpt lat="42.2751922" lon="11.7060654"><ele>34.0</ele><time>2026-04-02T14:24:37.912Z</time></trkpt><trkpt lat="42.2750263" lon="11.7063625"><ele>34.5</ele><time>2026-04-02T14:24:38.918Z</time></trkpt><trkpt lat="42.2748624" lon="11.7066614"><ele>35.0</ele><time>2026-04-02T14:24:39.912Z</time></trkpt><trkpt lat="42.2746982" lon="11.706956"><ele>35.0</ele><time>2026-04-02T14:24:40.918Z</time></trkpt><trkpt lat="42.2745351" lon="11.7072516"><ele>35.0</ele><time>2026-04-02T14:24:41.91Z</time></trkpt><trkpt lat="42.2743749" lon="11.7075451"><ele>36.0</ele><time>2026-04-02T14:24:42.914Z</time></trkpt><trkpt lat="42.2742169" lon="11.7078395"><ele>37.0</ele><time>2026-04-02T14:24:43.909Z</time></trkpt><trkpt lat="42.2740575" lon="11.7081252"><ele>36.0</ele><time>2026-04-02T14:24:44.913Z</time></trkpt><trkpt lat="42.2739001" lon="11.7084171"><ele>35.0</ele><time>2026-04-02T14:24:45.912Z</time></trkpt><trkpt lat="42.2737427" lon="11.7087075"><ele>35.0</ele><time>2026-04-02T14:24:46.913Z</time></trkpt><trkpt lat="42.2735844" lon="11.7090009"><ele>35.0</ele><time>2026-04-02T14:24:47.912Z</time></trkpt><trkpt lat="42.2734249" lon="11.7092953"><ele>36.0</ele><time>2026-04-02T14:24:48.91Z</time></trkpt><trkpt lat="42.2732686" lon="11.7095882"><ele>37.0</ele><time>2026-04-02T14:24:49.917Z</time></trkpt><trkpt lat="42.2731079" lon="11.7098806"><ele>37.5</ele><time>2026-04-02T14:24:50.914Z</time></trkpt><trkpt lat="42.2729515" lon="11.7101719"><ele>38.0</ele><time>2026-04-02T14:24:51.909Z</time></trkpt><trkpt lat="42.2727908" lon="11.7104701"><ele>38.0</ele><time>2026-04-02T14:24:52.911Z</time></trkpt><trkpt lat="42.2726294" lon="11.7107706"><ele>38.0</ele><time>2026-04-02T14:24:53.908Z</time></trkpt><trkpt lat="42.2724665" lon="11.7110722"><ele>38.5</ele><time>2026-04-02T14:24:54.908Z</time></trkpt><trkpt lat="42.2723038" lon="11.7113775"><ele>39.0</ele><time>2026-04-02T14:24:55.909Z</time></trkpt><trkpt lat="42.2721364" lon="11.7116788"><ele>39.0</ele><time>2026-04-02T14:24:56.908Z</time></trkpt><trkpt lat="42.2719661" lon="11.7119837"><ele>39.0</ele><time>2026-04-02T14:24:57.908Z</time></trkpt><trkpt lat="42.2717961" lon="11.7122946"><ele>39.0</ele><time>2026-04-02T14:24:58.908Z</time></trkpt><trkpt lat="42.2716262" lon="11.7126051"><ele>39.0</ele><time>2026-04-02T14:24:59.91Z</time></trkpt><trkpt lat="42.2714558" lon="11.7129181"><ele>37.0</ele><time>2026-04-02T14:25:00.911Z</time></trkpt><trkpt lat="42.2712854" lon="11.7132375"><ele>35.0</ele><time>2026-04-02T14:25:01.909Z</time></trkpt><trkpt lat="42.2711142" lon="11.7135537"><ele>37.0</ele><time>2026-04-02T14:25:02.908Z</time></trkpt><trkpt lat="42.2709426" lon="11.7138606"><ele>39.0</ele><time>2026-04-02T14:25:03.907Z</time></trkpt><trkpt lat="42.2707738" lon="11.7141657"><ele>38.0</ele><time>2026-04-02T14:25:04.908Z</time></trkpt><trkpt lat="42.2706066" lon="11.7144633"><ele>37.0</ele><time>2026-04-02T14:25:05.909Z</time></trkpt><trkpt lat="42.2704413" lon="11.7147646"><ele>37.0</ele><time>2026-04-02T14:25:06.909Z</time></trkpt><trkpt lat="42.270275" lon="11.7150623"><ele>37.0</ele><time>2026-04-02T14:25:07.907Z</time></trkpt><trkpt lat="42.2701099" lon="11.7153581"><ele>38.5</ele><time>2026-04-02T14:25:08.909Z</time></trkpt><trkpt lat="42.2699473" lon="11.7156585"><ele>40.0</ele><time>2026-04-02T14:25:09.909Z</time></trkpt><trkpt lat="42.269783" lon="11.7159589"><ele>40.5</ele><time>2026-04-02T14:25:10.913Z</time></trkpt><trkpt lat="42.2696159" lon="11.7162598"><ele>41.0</ele><time>2026-04-02T14:25:11.91Z</time></trkpt><trkpt lat="42.2694493" lon="11.7165623"><ele>41.0</ele><time>2026-04-02T14:25:12.911Z</time></trkpt><trkpt lat="42.2692853" lon="11.7168597"><ele>41.0</ele><time>2026-04-02T14:25:13.912Z</time></trkpt><trkpt lat="42.2691209" lon="11.7171604"><ele>41.0</ele><time>2026-04-02T14:25:14.91Z</time></trkpt><trkpt lat="42.2689587" lon="11.7174589"><ele>41.0</ele><time>2026-04-02T14:25:15.911Z</time></trkpt><trkpt lat="42.2687992" lon="11.717758"><ele>41.0</ele><time>2026-04-02T14:25:16.923Z</time></trkpt><trkpt lat="42.2686369" lon="11.7180517"><ele>41.0</ele><time>2026-04-02T14:25:17.908Z</time></trkpt><trkpt lat="42.2684733" lon="11.7183487"><ele>41.5</ele><time>2026-04-02T14:25:18.911Z</time></trkpt><trkpt lat="42.2682996" lon="11.718639"><ele>42.0</ele><time>2026-04-02T14:25:19.92Z</time></trkpt><trkpt lat="42.2681149" lon="11.7189183"><ele>42.0</ele><time>2026-04-02T14:25:20.907Z</time></trkpt><trkpt lat="42.2679182" lon="11.7191967"><ele>42.0</ele><time>2026-04-02T14:25:21.913Z</time></trkpt><trkpt lat="42.267709" lon="11.719465"><ele>42.5</ele><time>2026-04-02T14:25:22.911Z</time></trkpt><trkpt lat="42.2674928" lon="11.7197158"><ele>43.0</ele><time>2026-04-02T14:25:23.909Z</time></trkpt><trkpt lat="42.2672687" lon="11.7199647"><ele>42.0</ele><time>2026-04-02T14:25:24.91Z</time></trkpt><trkpt lat="42.2670332" lon="11.720204"><ele>41.0</ele><time>2026-04-02T14:25:25.913Z</time></trkpt><trkpt lat="42.2667903" lon="11.7204344"><ele>40.5</ele><time>2026-04-02T14:25:26.908Z</time></trkpt><trkpt lat="42.2665421" lon="11.7206611"><ele>40.0</ele><time>2026-04-02T14:25:27.914Z</time></trkpt><trkpt lat="42.2662759" lon="11.7208924"><ele>40.0</ele><time>2026-04-02T14:25:28.908Z</time></trkpt><trkpt lat="42.2660016" lon="11.7211232"><ele>40.0</ele><time>2026-04-02T14:25:29.91Z</time></trkpt><trkpt lat="42.2654068" lon="11.7215708"><ele>38.5</ele><time>2026-04-02T14:25:31.91Z</time></trkpt><trkpt lat="42.2650875" lon="11.7217811"><ele>37.0</ele><time>2026-04-02T14:25:32.909Z</time></trkpt><trkpt lat="42.2647613" lon="11.7219881"><ele>37.0</ele><time>2026-04-02T14:25:33.909Z</time></trkpt><trkpt lat="42.2644296" lon="11.7221933"><ele>37.0</ele><time>2026-04-02T14:25:34.918Z</time></trkpt><trkpt lat="42.264097" lon="11.7223901"><ele>36.5</ele><time>2026-04-02T14:25:35.909Z</time></trkpt><trkpt lat="42.263768" lon="11.722579"><ele>36.0</ele><time>2026-04-02T14:25:36.909Z</time></trkpt><trkpt lat="42.2634501" lon="11.7227644"><ele>36.0</ele><time>2026-04-02T14:25:37.908Z</time></trkpt><trkpt lat="42.2631371" lon="11.7229506"><ele>36.0</ele><time>2026-04-02T14:25:38.91Z</time></trkpt><trkpt lat="42.262831" lon="11.7231371"><ele>35.0</ele><time>2026-04-02T14:25:39.907Z</time></trkpt><trkpt lat="42.2625343" lon="11.7233239"><ele>34.0</ele><time>2026-04-02T14:25:40.91Z</time></trkpt><trkpt lat="42.2622497" lon="11.7235117"><ele>33.0</ele><time>2026-04-02T14:25:41.915Z</time></trkpt><trkpt lat="42.261972" lon="11.7237052"><ele>32.0</ele><time>2026-04-02T14:25:42.91Z</time></trkpt><trkpt lat="42.261702" lon="11.7238975"><ele>31.5</ele><time>2026-04-02T14:25:43.911Z</time></trkpt><trkpt lat="42.2614394" lon="11.7240932"><ele>31.0</ele><time>2026-04-02T14:25:44.912Z</time></trkpt><trkpt lat="42.2611755" lon="11.724294"><ele>32.0</ele><time>2026-04-02T14:25:45.91Z</time></trkpt><trkpt lat="42.2609166" lon="11.7244958"><ele>33.0</ele><time>2026-04-02T14:25:46.909Z</time></trkpt><trkpt lat="42.2606682" lon="11.72469"><ele>31.0</ele><time>2026-04-02T14:25:47.91Z</time></trkpt><trkpt lat="42.2604304" lon="11.7248867"><ele>29.0</ele><time>2026-04-02T14:25:48.91Z</time></trkpt><trkpt lat="42.260205" lon="11.7250722"><ele>29.5</ele><time>2026-04-02T14:25:49.908Z</time></trkpt><trkpt lat="42.259987" lon="11.7252504"><ele>30.0</ele><time>2026-04-02T14:25:50.909Z</time></trkpt><trkpt lat="42.2597775" lon="11.7254238"><ele>27.5</ele><time>2026-04-02T14:25:51.909Z</time></trkpt><trkpt lat="42.2595759" lon="11.7255834"><ele>25.0</ele><time>2026-04-02T14:25:52.908Z</time></trkpt><trkpt lat="42.2593827" lon="11.7257407"><ele>25.0</ele><time>2026-04-02T14:25:53.909Z</time></trkpt><trkpt lat="42.2591986" lon="11.7258955"><ele>25.0</ele><time>2026-04-02T14:25:54.909Z</time></trkpt><trkpt lat="42.2590217" lon="11.7260436"><ele>25.0</ele><time>2026-04-02T14:25:55.91Z</time></trkpt><trkpt lat="42.2588478" lon="11.7261901"><ele>24.333333333333336</ele><time>2026-04-02T14:25:56.91Z</time></trkpt><trkpt lat="42.2586752" lon="11.7263323"><ele>23.666666666666668</ele><time>2026-04-02T14:25:57.91Z</time></trkpt><trkpt lat="42.2585078" lon="11.726468"><ele>23.0</ele><time>2026-04-02T14:25:58.91Z</time></trkpt><trkpt lat="42.2583449" lon="11.7266012"><ele>23.0</ele><time>2026-04-02T14:25:59.909Z</time></trkpt><trkpt lat="42.258186" lon="11.7267255"><ele>23.0</ele><time>2026-04-02T14:26:00.908Z</time></trkpt><trkpt lat="42.2580328" lon="11.7268464"><ele>23.0</ele><time>2026-04-02T14:26:01.911Z</time></trkpt><trkpt lat="42.257885" lon="11.7269662"><ele>21.333333333333336</ele><time>2026-04-02T14:26:02.909Z</time></trkpt><trkpt lat="42.2577454" lon="11.7270772"><ele>19.666666666666668</ele><time>2026-04-02T14:26:03.909Z</time></trkpt><trkpt lat="42.2576144" lon="11.7271882"><ele>18.0</ele><time>2026-04-02T14:26:04.908Z</time></trkpt><trkpt lat="42.2574979" lon="11.7272879"><ele>18.0</ele><time>2026-04-02T14:26:05.908Z</time></trkpt><trkpt lat="42.2573959" lon="11.7273745"><ele>18.0</ele><time>2026-04-02T14:26:06.91Z</time></trkpt><trkpt lat="42.2573042" lon="11.7274536"><ele>18.0</ele><time>2026-04-02T14:26:07.909Z</time></trkpt><trkpt lat="42.257223" lon="11.7275221"><ele>18.0</ele><time>2026-04-02T14:26:08.909Z</time></trkpt><trkpt lat="42.2571476" lon="11.7275821"><ele>18.0</ele><time>2026-04-02T14:26:09.909Z</time></trkpt><trkpt lat="42.2570864" lon="11.7276334"><ele>18.0</ele><time>2026-04-02T14:26:10.912Z</time></trkpt><trkpt lat="42.2569959" lon="11.7277002"><ele>18.0</ele><time>2026-04-02T14:26:12.908Z</time></trkpt><trkpt lat="42.25692" lon="11.7277577"><ele>18.0</ele><time>2026-04-02T14:26:14.908Z</time></trkpt><trkpt lat="42.2568407" lon="11.7278192"><ele>18.0</ele><time>2026-04-02T14:26:16.915Z</time></trkpt><trkpt lat="42.256725" lon="11.727929"><ele>18.0</ele><time>2026-04-02T14:26:18.91Z</time></trkpt><trkpt lat="42.256516" lon="11.7281051"><ele>17.333333333333332</ele><time>2026-04-02T14:26:20.91Z</time></trkpt><trkpt lat="42.2563815" lon="11.7282119"><ele>16.666666666666664</ele><time>2026-04-02T14:26:21.907Z</time></trkpt><trkpt lat="42.2562119" lon="11.7283569"><ele>16.0</ele><time>2026-04-02T14:26:22.908Z</time></trkpt><trkpt lat="42.256027" lon="11.728519"><ele>15.5</ele><time>2026-04-02T14:26:23.912Z</time></trkpt><trkpt lat="42.2558286" lon="11.7286879"><ele>15.0</ele><time>2026-04-02T14:26:24.909Z</time></trkpt><trkpt lat="42.2556182" lon="11.7288612"><ele>15.0</ele><time>2026-04-02T14:26:25.911Z</time></trkpt><trkpt lat="42.2553986" lon="11.7290405"><ele>15.0</ele><time>2026-04-02T14:26:26.912Z</time></trkpt><trkpt lat="42.2551733" lon="11.7292229"><ele>13.5</ele><time>2026-04-02T14:26:27.908Z</time></trkpt><trkpt lat="42.2549446" lon="11.7294069"><ele>12.0</ele><time>2026-04-02T14:26:28.909Z</time></trkpt><trkpt lat="42.2547157" lon="11.7295949"><ele>12.0</ele><time>2026-04-02T14:26:29.908Z</time></trkpt><trkpt lat="42.2544807" lon="11.7297982"><ele>12.0</ele><time>2026-04-02T14:26:30.909Z</time></trkpt><trkpt lat="42.254235" lon="11.7300131"><ele>11.5</ele><time>2026-04-02T14:26:31.908Z</time></trkpt><trkpt lat="42.253975" lon="11.7302394"><ele>11.0</ele><time>2026-04-02T14:26:32.911Z</time></trkpt><trkpt lat="42.2537097" lon="11.7304662"><ele>11.0</ele><time>2026-04-02T14:26:33.908Z</time></trkpt><trkpt lat="42.2534445" lon="11.7306925"><ele>11.0</ele><time>2026-04-02T14:26:34.909Z</time></trkpt><trkpt lat="42.2531736" lon="11.7309183"><ele>11.0</ele><time>2026-04-02T14:26:35.909Z</time></trkpt><trkpt lat="42.2528975" lon="11.7311509"><ele>11.0</ele><time>2026-04-02T14:26:36.909Z</time></trkpt><trkpt lat="42.2526183" lon="11.7313837"><ele>11.0</ele><time>2026-04-02T14:26:37.91Z</time></trkpt><trkpt lat="42.2523427" lon="11.7316146"><ele>11.0</ele><time>2026-04-02T14:26:38.909Z</time></trkpt><trkpt lat="42.2520663" lon="11.7318451"><ele>10.5</ele><time>2026-04-02T14:26:39.909Z</time></trkpt><trkpt lat="42.2517921" lon="11.7320951"><ele>10.0</ele><time>2026-04-02T14:26:40.908Z</time></trkpt><trkpt lat="42.2515233" lon="11.7323584"><ele>9.5</ele><time>2026-04-02T14:26:41.922Z</time></trkpt><trkpt lat="42.2512716" lon="11.7326176"><ele>9.0</ele><time>2026-04-02T14:26:42.908Z</time></trkpt><trkpt lat="42.2510293" lon="11.7328816"><ele>8.5</ele><time>2026-04-02T14:26:43.909Z</time></trkpt><trkpt lat="42.2507945" lon="11.7331569"><ele>8.0</ele><time>2026-04-02T14:26:44.91Z</time></trkpt><trkpt lat="42.2505553" lon="11.7334407"><ele>9.5</ele><time>2026-04-02T14:26:45.909Z</time></trkpt><trkpt lat="42.2503159" lon="11.7337263"><ele>11.0</ele><time>2026-04-02T14:26:46.908Z</time></trkpt><trkpt lat="42.25008" lon="11.7340083"><ele>11.0</ele><time>2026-04-02T14:26:47.908Z</time></trkpt><trkpt lat="42.2498451" lon="11.7342887"><ele>11.0</ele><time>2026-04-02T14:26:48.91Z</time></trkpt><trkpt lat="42.2496021" lon="11.734571"><ele>11.5</ele><time>2026-04-02T14:26:49.909Z</time></trkpt><trkpt lat="42.2493511" lon="11.7348582"><ele>12.0</ele><time>2026-04-02T14:26:50.909Z</time></trkpt><trkpt lat="42.2490998" lon="11.7351481"><ele>12.5</ele><time>2026-04-02T14:26:51.908Z</time></trkpt><trkpt lat="42.2488398" lon="11.7354457"><ele>13.0</ele><time>2026-04-02T14:26:52.908Z</time></trkpt><trkpt lat="42.2485715" lon="11.7357562"><ele>16.0</ele><time>2026-04-02T14:26:53.909Z</time></trkpt><trkpt lat="42.2483034" lon="11.7360719"><ele>19.0</ele><time>2026-04-02T14:26:54.909Z</time></trkpt><trkpt lat="42.2480457" lon="11.7363898"><ele>19.0</ele><time>2026-04-02T14:26:55.909Z</time></trkpt><trkpt lat="42.2477901" lon="11.7367146"><ele>19.0</ele><time>2026-04-02T14:26:56.91Z</time></trkpt><trkpt lat="42.247548" lon="11.7370382"><ele>21.5</ele><time>2026-04-02T14:26:57.908Z</time></trkpt><trkpt lat="42.2473131" lon="11.7373548"><ele>24.0</ele><time>2026-04-02T14:26:58.907Z</time></trkpt><trkpt lat="42.24709" lon="11.7376662"><ele>25.5</ele><time>2026-04-02T14:26:59.909Z</time></trkpt><trkpt lat="42.2468796" lon="11.7379771"><ele>27.0</ele><time>2026-04-02T14:27:00.909Z</time></trkpt><trkpt lat="42.2466792" lon="11.7382852"><ele>27.5</ele><time>2026-04-02T14:27:01.908Z</time></trkpt><trkpt lat="42.2464874" lon="11.7385908"><ele>28.0</ele><time>2026-04-02T14:27:02.908Z</time></trkpt><trkpt lat="42.2462957" lon="11.7389007"><ele>28.0</ele><time>2026-04-02T14:27:03.909Z</time></trkpt><trkpt lat="42.2460977" lon="11.7392173"><ele>28.0</ele><time>2026-04-02T14:27:04.909Z</time></trkpt><trkpt lat="42.2458974" lon="11.7395385"><ele>28.0</ele><time>2026-04-02T14:27:05.908Z</time></trkpt><trkpt lat="42.2456889" lon="11.7398661"><ele>28.0</ele><time>2026-04-02T14:27:06.91Z</time></trkpt><trkpt lat="42.2454741" lon="11.7402016"><ele>28.0</ele><time>2026-04-02T14:27:07.908Z</time></trkpt><trkpt lat="42.2452537" lon="11.7405448"><ele>28.0</ele><time>2026-04-02T14:27:08.909Z</time></trkpt><trkpt lat="42.245027" lon="11.7409007"><ele>29.0</ele><time>2026-04-02T14:27:09.911Z</time></trkpt><trkpt lat="42.2447987" lon="11.7412589"><ele>30.0</ele><time>2026-04-02T14:27:10.907Z</time></trkpt><trkpt lat="42.2445746" lon="11.7416195"><ele>30.5</ele><time>2026-04-02T14:27:11.91Z</time></trkpt><trkpt lat="42.2443539" lon="11.7419829"><ele>31.0</ele><time>2026-04-02T14:27:12.909Z</time></trkpt><trkpt lat="42.2441336" lon="11.742356"><ele>31.5</ele><time>2026-04-02T14:27:13.909Z</time></trkpt><trkpt lat="42.2439219" lon="11.7427445"><ele>32.0</ele><time>2026-04-02T14:27:14.907Z</time></trkpt><trkpt lat="42.2437222" lon="11.7431378"><ele>32.0</ele><time>2026-04-02T14:27:15.908Z</time></trkpt><trkpt lat="42.2435333" lon="11.7435373"><ele>32.0</ele><time>2026-04-02T14:27:16.909Z</time></trkpt><trkpt lat="42.2433576" lon="11.7439493"><ele>32.5</ele><time>2026-04-02T14:27:17.909Z</time></trkpt><trkpt lat="42.2432005" lon="11.7443764"><ele>33.0</ele><time>2026-04-02T14:27:18.908Z</time></trkpt><trkpt lat="42.2430539" lon="11.7448119"><ele>34.5</ele><time>2026-04-02T14:27:19.91Z</time></trkpt><trkpt lat="42.2429227" lon="11.7452598"><ele>36.0</ele><time>2026-04-02T14:27:20.908Z</time></trkpt><trkpt lat="42.2428006" lon="11.7457181"><ele>36.5</ele><time>2026-04-02T14:27:21.908Z</time></trkpt><trkpt lat="42.2426901" lon="11.7461831"><ele>37.0</ele><time>2026-04-02T14:27:22.911Z</time></trkpt><trkpt lat="42.242588" lon="11.7466536"><ele>36.0</ele><time>2026-04-02T14:27:23.91Z</time></trkpt><trkpt lat="42.2424832" lon="11.7471266"><ele>35.0</ele><time>2026-04-02T14:27:24.909Z</time></trkpt><trkpt lat="42.2423803" lon="11.7476031"><ele>35.0</ele><time>2026-04-02T14:27:25.909Z</time></trkpt><trkpt lat="42.242276" lon="11.7480814"><ele>35.0</ele><time>2026-04-02T14:27:26.908Z</time></trkpt><trkpt lat="42.2421694" lon="11.7485672"><ele>35.5</ele><time>2026-04-02T14:27:27.909Z</time></trkpt><trkpt lat="42.2420643" lon="11.7490503"><ele>36.0</ele><time>2026-04-02T14:27:28.908Z</time></trkpt><trkpt lat="42.2419562" lon="11.7495278"><ele>37.0</ele><time>2026-04-02T14:27:29.907Z</time></trkpt><trkpt lat="42.2418505" lon="11.7500134"><ele>38.0</ele><time>2026-04-02T14:27:30.91Z</time></trkpt><trkpt lat="42.2417422" lon="11.7504972"><ele>38.5</ele><time>2026-04-02T14:27:31.909Z</time></trkpt><trkpt lat="42.2416342" lon="11.7509761"><ele>39.0</ele><time>2026-04-02T14:27:32.908Z</time></trkpt><trkpt lat="42.2415283" lon="11.751453"><ele>38.0</ele><time>2026-04-02T14:27:33.908Z</time></trkpt><trkpt lat="42.2414239" lon="11.7519145"><ele>37.0</ele><time>2026-04-02T14:27:34.908Z</time></trkpt><trkpt lat="42.2413219" lon="11.7523743"><ele>38.0</ele><time>2026-04-02T14:27:35.908Z</time></trkpt><trkpt lat="42.2412231" lon="11.7528269"><ele>39.0</ele><time>2026-04-02T14:27:36.908Z</time></trkpt><trkpt lat="42.2411214" lon="11.7532603"><ele>40.0</ele><time>2026-04-02T14:27:37.909Z</time></trkpt><trkpt lat="42.2410212" lon="11.7536925"><ele>41.0</ele><time>2026-04-02T14:27:38.916Z</time></trkpt><trkpt lat="42.2409249" lon="11.754114"><ele>41.5</ele><time>2026-04-02T14:27:39.908Z</time></trkpt><trkpt lat="42.2408354" lon="11.7545254"><ele>42.0</ele><time>2026-04-02T14:27:40.91Z</time></trkpt><trkpt lat="42.2407452" lon="11.7549377"><ele>42.0</ele><time>2026-04-02T14:27:41.908Z</time></trkpt><trkpt lat="42.2406492" lon="11.7553502"><ele>42.0</ele><time>2026-04-02T14:27:42.908Z</time></trkpt><trkpt lat="42.2405483" lon="11.7557528"><ele>42.0</ele><time>2026-04-02T14:27:43.908Z</time></trkpt><trkpt lat="42.2404433" lon="11.7561527"><ele>42.0</ele><time>2026-04-02T14:27:44.91Z</time></trkpt><trkpt lat="42.2403222" lon="11.7565368"><ele>43.0</ele><time>2026-04-02T14:27:45.909Z</time></trkpt><trkpt lat="42.2401961" lon="11.7569221"><ele>44.0</ele><time>2026-04-02T14:27:46.907Z</time></trkpt><trkpt lat="42.2400558" lon="11.7572911"><ele>44.0</ele><time>2026-04-02T14:27:47.908Z</time></trkpt><trkpt lat="42.2399061" lon="11.7576552"><ele>44.0</ele><time>2026-04-02T14:27:48.908Z</time></trkpt><trkpt lat="42.2397473" lon="11.7580129"><ele>45.0</ele><time>2026-04-02T14:27:49.909Z</time></trkpt><trkpt lat="42.2395778" lon="11.7583544"><ele>46.0</ele><time>2026-04-02T14:27:50.908Z</time></trkpt><trkpt lat="42.2393997" lon="11.7586859"><ele>47.0</ele><time>2026-04-02T14:27:51.907Z</time></trkpt><trkpt lat="42.2392061" lon="11.7589986"><ele>48.0</ele><time>2026-04-02T14:27:52.91Z</time></trkpt><trkpt lat="42.2389996" lon="11.7592979"><ele>47.5</ele><time>2026-04-02T14:27:53.908Z</time></trkpt><trkpt lat="42.2387784" lon="11.7595868"><ele>47.0</ele><time>2026-04-02T14:27:54.908Z</time></trkpt><trkpt lat="42.2385505" lon="11.7598567"><ele>47.0</ele><time>2026-04-02T14:27:55.918Z</time></trkpt><trkpt lat="42.2383099" lon="11.7601086"><ele>47.0</ele><time>2026-04-02T14:27:56.909Z</time></trkpt><trkpt lat="42.2380572" lon="11.760337"><ele>46.5</ele><time>2026-04-02T14:27:57.908Z</time></trkpt><trkpt lat="42.2377944" lon="11.7605391"><ele>46.0</ele><time>2026-04-02T14:27:58.908Z</time></trkpt><trkpt lat="42.2375247" lon="11.7607298"><ele>45.5</ele><time>2026-04-02T14:27:59.908Z</time></trkpt><trkpt lat="42.2372511" lon="11.7609103"><ele>45.0</ele><time>2026-04-02T14:28:00.909Z</time></trkpt><trkpt lat="42.236977" lon="11.761091"><ele>45.5</ele><time>2026-04-02T14:28:01.909Z</time></trkpt><trkpt lat="42.2367003" lon="11.7612688"><ele>46.0</ele><time>2026-04-02T14:28:02.909Z</time></trkpt><trkpt lat="42.2364202" lon="11.7614459"><ele>46.0</ele><time>2026-04-02T14:28:03.91Z</time></trkpt><trkpt lat="42.2361412" lon="11.7616362"><ele>46.0</ele><time>2026-04-02T14:28:04.909Z</time></trkpt><trkpt lat="42.2358665" lon="11.7618379"><ele>45.5</ele><time>2026-04-02T14:28:05.908Z</time></trkpt><trkpt lat="42.235595" lon="11.7620566"><ele>45.0</ele><time>2026-04-02T14:28:06.908Z</time></trkpt><trkpt lat="42.2353304" lon="11.762296"><ele>45.0</ele><time>2026-04-02T14:28:07.908Z</time></trkpt><trkpt lat="42.2350726" lon="11.7625555"><ele>45.0</ele><time>2026-04-02T14:28:08.908Z</time></trkpt><trkpt lat="42.2348138" lon="11.7628304"><ele>45.0</ele><time>2026-04-02T14:28:09.913Z</time></trkpt><trkpt lat="42.2345561" lon="11.7631065"><ele>45.0</ele><time>2026-04-02T14:28:10.909Z</time></trkpt><trkpt lat="42.234297" lon="11.7633826"><ele>45.0</ele><time>2026-04-02T14:28:11.908Z</time></trkpt><trkpt lat="42.234041" lon="11.7636497"><ele>45.0</ele><time>2026-04-02T14:28:12.907Z</time></trkpt><trkpt lat="42.2337911" lon="11.7639063"><ele>45.0</ele><time>2026-04-02T14:28:13.908Z</time></trkpt><trkpt lat="42.2335477" lon="11.7641386"><ele>45.0</ele><time>2026-04-02T14:28:14.913Z</time></trkpt><trkpt lat="42.2333119" lon="11.7643554"><ele>45.5</ele><time>2026-04-02T14:28:15.908Z</time></trkpt><trkpt lat="42.2330752" lon="11.7645656"><ele>46.0</ele><time>2026-04-02T14:28:16.908Z</time></trkpt><trkpt lat="42.2326031" lon="11.7649668"><ele>46.0</ele><time>2026-04-02T14:28:18.911Z</time></trkpt><trkpt lat="42.2323619" lon="11.7651503"><ele>46.0</ele><time>2026-04-02T14:28:19.909Z</time></trkpt><trkpt lat="42.2321206" lon="11.7653149"><ele>44.5</ele><time>2026-04-02T14:28:20.911Z</time></trkpt><trkpt lat="42.2318757" lon="11.7654764"><ele>43.0</ele><time>2026-04-02T14:28:21.909Z</time></trkpt><trkpt lat="42.231632" lon="11.7656223"><ele>42.5</ele><time>2026-04-02T14:28:22.909Z</time></trkpt><trkpt lat="42.2313858" lon="11.7657631"><ele>42.0</ele><time>2026-04-02T14:28:23.909Z</time></trkpt><trkpt lat="42.2311441" lon="11.765899"><ele>43.0</ele><time>2026-04-02T14:28:24.909Z</time></trkpt><trkpt lat="42.2309048" lon="11.7660323"><ele>44.0</ele><time>2026-04-02T14:28:25.909Z</time></trkpt><trkpt lat="42.230663" lon="11.7661652"><ele>43.5</ele><time>2026-04-02T14:28:26.908Z</time></trkpt><trkpt lat="42.2304226" lon="11.7662914"><ele>43.0</ele><time>2026-04-02T14:28:27.913Z</time></trkpt><trkpt lat="42.2301844" lon="11.7664177"><ele>43.0</ele><time>2026-04-02T14:28:28.912Z</time></trkpt><trkpt lat="42.2299477" lon="11.7665439"><ele>43.0</ele><time>2026-04-02T14:28:29.908Z</time></trkpt><trkpt lat="42.2297119" lon="11.7666748"><ele>43.0</ele><time>2026-04-02T14:28:30.908Z</time></trkpt><trkpt lat="42.229481" lon="11.7668049"><ele>43.0</ele><time>2026-04-02T14:28:31.908Z</time></trkpt><trkpt lat="42.2292531" lon="11.766933"><ele>43.0</ele><time>2026-04-02T14:28:32.908Z</time></trkpt><trkpt lat="42.2290217" lon="11.7670584"><ele>43.0</ele><time>2026-04-02T14:28:33.91Z</time></trkpt><trkpt lat="42.2287889" lon="11.7671811"><ele>43.0</ele><time>2026-04-02T14:28:34.915Z</time></trkpt><trkpt lat="42.2285502" lon="11.7673024"><ele>43.0</ele><time>2026-04-02T14:28:35.909Z</time></trkpt><trkpt lat="42.2283082" lon="11.7674194"><ele>42.5</ele><time>2026-04-02T14:28:36.908Z</time></trkpt><trkpt lat="42.2280638" lon="11.7675412"><ele>42.0</ele><time>2026-04-02T14:28:37.909Z</time></trkpt><trkpt lat="42.2275546" lon="11.7677983"><ele>42.5</ele><time>2026-04-02T14:28:39.91Z</time></trkpt><trkpt lat="42.2272898" lon="11.7679391"><ele>43.0</ele><time>2026-04-02T14:28:40.908Z</time></trkpt><trkpt lat="42.2270219" lon="11.7680768"><ele>43.0</ele><time>2026-04-02T14:28:41.909Z</time></trkpt><trkpt lat="42.2267495" lon="11.7682085"><ele>43.0</ele><time>2026-04-02T14:28:42.909Z</time></trkpt><trkpt lat="42.2264695" lon="11.7683427"><ele>42.5</ele><time>2026-04-02T14:28:43.908Z</time></trkpt><trkpt lat="42.2261889" lon="11.7684777"><ele>42.0</ele><time>2026-04-02T14:28:44.909Z</time></trkpt><trkpt lat="42.2259018" lon="11.7686199"><ele>41.5</ele><time>2026-04-02T14:28:45.908Z</time></trkpt><trkpt lat="42.2256114" lon="11.7687737"><ele>41.0</ele><time>2026-04-02T14:28:46.908Z</time></trkpt><trkpt lat="42.2253151" lon="11.7689269"><ele>41.0</ele><time>2026-04-02T14:28:47.909Z</time></trkpt><trkpt lat="42.2250152" lon="11.7690867"><ele>41.0</ele><time>2026-04-02T14:28:48.91Z</time></trkpt><trkpt lat="42.2247119" lon="11.7692477"><ele>41.5</ele><time>2026-04-02T14:28:49.908Z</time></trkpt><trkpt lat="42.2244061" lon="11.7694056"><ele>42.0</ele><time>2026-04-02T14:28:50.908Z</time></trkpt><trkpt lat="42.2241013" lon="11.769554"><ele>41.5</ele><time>2026-04-02T14:28:51.908Z</time></trkpt><trkpt lat="42.2237943" lon="11.769704"><ele>41.0</ele><time>2026-04-02T14:28:52.91Z</time></trkpt><trkpt lat="42.2234872" lon="11.7698504"><ele>41.0</ele><time>2026-04-02T14:28:53.909Z</time></trkpt><trkpt lat="42.2231817" lon="11.7699816"><ele>41.0</ele><time>2026-04-02T14:28:54.91Z</time></trkpt><trkpt lat="42.2228786" lon="11.7701152"><ele>40.5</ele><time>2026-04-02T14:28:55.909Z</time></trkpt><trkpt lat="42.222583" lon="11.770248"><ele>40.0</ele><time>2026-04-02T14:28:56.909Z</time></trkpt><trkpt lat="42.2222882" lon="11.7703816"><ele>40.0</ele><time>2026-04-02T14:28:57.907Z</time></trkpt><trkpt lat="42.2219929" lon="11.7705216"><ele>40.0</ele><time>2026-04-02T14:28:58.909Z</time></trkpt><trkpt lat="42.2216948" lon="11.7706627"><ele>39.0</ele><time>2026-04-02T14:28:59.909Z</time></trkpt><trkpt lat="42.221389" lon="11.7708139"><ele>38.0</ele><time>2026-04-02T14:29:00.908Z</time></trkpt><trkpt lat="42.2210862" lon="11.7709705"><ele>39.0</ele><time>2026-04-02T14:29:01.908Z</time></trkpt><trkpt lat="42.2207816" lon="11.7711343"><ele>40.0</ele><time>2026-04-02T14:29:02.908Z</time></trkpt><trkpt lat="42.2204753" lon="11.771302"><ele>40.0</ele><time>2026-04-02T14:29:03.909Z</time></trkpt><trkpt lat="42.2201702" lon="11.7714765"><ele>40.0</ele><time>2026-04-02T14:29:04.91Z</time></trkpt><trkpt lat="42.2198661" lon="11.7716529"><ele>39.5</ele><time>2026-04-02T14:29:05.909Z</time></trkpt><trkpt lat="42.2195651" lon="11.7718376"><ele>39.0</ele><time>2026-04-02T14:29:06.908Z</time></trkpt><trkpt lat="42.2192685" lon="11.7720322"><ele>37.5</ele><time>2026-04-02T14:29:07.908Z</time></trkpt><trkpt lat="42.2189753" lon="11.7722346"><ele>36.0</ele><time>2026-04-02T14:29:08.909Z</time></trkpt><trkpt lat="42.2186788" lon="11.7724487"><ele>36.0</ele><time>2026-04-02T14:29:09.908Z</time></trkpt><trkpt lat="42.2183807" lon="11.7726678"><ele>36.0</ele><time>2026-04-02T14:29:10.909Z</time></trkpt><trkpt lat="42.2180844" lon="11.7728881"><ele>35.5</ele><time>2026-04-02T14:29:11.908Z</time></trkpt><trkpt lat="42.2177936" lon="11.7731145"><ele>35.0</ele><time>2026-04-02T14:29:12.907Z</time></trkpt><trkpt lat="42.2175" lon="11.773345"><ele>36.5</ele><time>2026-04-02T14:29:13.91Z</time></trkpt><trkpt lat="42.2172115" lon="11.7735724"><ele>38.0</ele><time>2026-04-02T14:29:14.908Z</time></trkpt><trkpt lat="42.2169296" lon="11.7738043"><ele>38.0</ele><time>2026-04-02T14:29:15.909Z</time></trkpt><trkpt lat="42.2166505" lon="11.7740549"><ele>38.0</ele><time>2026-04-02T14:29:16.908Z</time></trkpt><trkpt lat="42.2163754" lon="11.7743097"><ele>38.0</ele><time>2026-04-02T14:29:17.91Z</time></trkpt><trkpt lat="42.2161074" lon="11.7745707"><ele>38.0</ele><time>2026-04-02T14:29:18.909Z</time></trkpt><trkpt lat="42.2158486" lon="11.774834"><ele>38.0</ele><time>2026-04-02T14:29:19.908Z</time></trkpt><trkpt lat="42.2155952" lon="11.7750954"><ele>38.0</ele><time>2026-04-02T14:29:20.909Z</time></trkpt><trkpt lat="42.2153461" lon="11.7753598"><ele>38.0</ele><time>2026-04-02T14:29:21.91Z</time></trkpt><trkpt lat="42.2150982" lon="11.7756386"><ele>38.0</ele><time>2026-04-02T14:29:22.909Z</time></trkpt><trkpt lat="42.2148561" lon="11.7759222"><ele>38.0</ele><time>2026-04-02T14:29:23.908Z</time></trkpt><trkpt lat="42.2146146" lon="11.7762108"><ele>38.0</ele><time>2026-04-02T14:29:24.91Z</time></trkpt><trkpt lat="42.2143826" lon="11.7765002"><ele>38.0</ele><time>2026-04-02T14:29:25.913Z</time></trkpt><trkpt lat="42.2141535" lon="11.7767862"><ele>38.0</ele><time>2026-04-02T14:29:26.909Z</time></trkpt><trkpt lat="42.2139276" lon="11.7770703"><ele>37.0</ele><time>2026-04-02T14:29:27.909Z</time></trkpt><trkpt lat="42.2137079" lon="11.7773584"><ele>36.0</ele><time>2026-04-02T14:29:28.91Z</time></trkpt><trkpt lat="42.2134886" lon="11.7776473"><ele>36.0</ele><time>2026-04-02T14:29:29.911Z</time></trkpt><trkpt lat="42.2132713" lon="11.7779369"><ele>36.0</ele><time>2026-04-02T14:29:30.909Z</time></trkpt><trkpt lat="42.2130541" lon="11.778227"><ele>36.0</ele><time>2026-04-02T14:29:31.908Z</time></trkpt><trkpt lat="42.2128354" lon="11.7785146"><ele>36.0</ele><time>2026-04-02T14:29:32.914Z</time></trkpt><trkpt lat="42.2126179" lon="11.7788075"><ele>36.0</ele><time>2026-04-02T14:29:33.909Z</time></trkpt><trkpt lat="42.2123973" lon="11.7790991"><ele>36.0</ele><time>2026-04-02T14:29:34.908Z</time></trkpt><trkpt lat="42.2121745" lon="11.7793885"><ele>37.0</ele><time>2026-04-02T14:29:35.91Z</time></trkpt><trkpt lat="42.211947" lon="11.7796732"><ele>38.0</ele><time>2026-04-02T14:29:36.908Z</time></trkpt><trkpt lat="42.2117065" lon="11.7799558"><ele>38.0</ele><time>2026-04-02T14:29:37.912Z</time></trkpt><trkpt lat="42.211461" lon="11.7802435"><ele>38.0</ele><time>2026-04-02T14:29:38.909Z</time></trkpt><trkpt lat="42.2112018" lon="11.7805364"><ele>38.0</ele><time>2026-04-02T14:29:39.908Z</time></trkpt><trkpt lat="42.2109413" lon="11.7808297"><ele>38.0</ele><time>2026-04-02T14:29:40.908Z</time></trkpt><trkpt lat="42.210672" lon="11.7811187"><ele>38.0</ele><time>2026-04-02T14:29:41.909Z</time></trkpt><trkpt lat="42.2103932" lon="11.7813928"><ele>38.0</ele><time>2026-04-02T14:29:42.912Z</time></trkpt><trkpt lat="42.2101102" lon="11.7816528"><ele>36.5</ele><time>2026-04-02T14:29:43.908Z</time></trkpt><trkpt lat="42.2098204" lon="11.7819096"><ele>35.0</ele><time>2026-04-02T14:29:44.909Z</time></trkpt><trkpt lat="42.2095202" lon="11.7821626"><ele>35.0</ele><time>2026-04-02T14:29:45.913Z</time></trkpt><trkpt lat="42.2092314" lon="11.7824035"><ele>35.0</ele><time>2026-04-02T14:29:46.91Z</time></trkpt><trkpt lat="42.2089417" lon="11.7826279"><ele>35.5</ele><time>2026-04-02T14:29:47.91Z</time></trkpt><trkpt lat="42.208646" lon="11.7828468"><ele>36.0</ele><time>2026-04-02T14:29:48.909Z</time></trkpt><trkpt lat="42.2083504" lon="11.7830572"><ele>36.5</ele><time>2026-04-02T14:29:49.908Z</time></trkpt><trkpt lat="42.2080504" lon="11.7832549"><ele>37.0</ele><time>2026-04-02T14:29:50.909Z</time></trkpt><trkpt lat="42.2077485" lon="11.7834453"><ele>34.5</ele><time>2026-04-02T14:29:51.907Z</time></trkpt><trkpt lat="42.2074405" lon="11.7836301"><ele>32.0</ele><time>2026-04-02T14:29:52.91Z</time></trkpt><trkpt lat="42.207129" lon="11.7837987"><ele>32.0</ele><time>2026-04-02T14:29:53.908Z</time></trkpt><trkpt lat="42.2068188" lon="11.7839585"><ele>32.0</ele><time>2026-04-02T14:29:54.911Z</time></trkpt><trkpt lat="42.2065049" lon="11.784094"><ele>33.5</ele><time>2026-04-02T14:29:55.908Z</time></trkpt><trkpt lat="42.2061904" lon="11.784225"><ele>35.0</ele><time>2026-04-02T14:29:56.909Z</time></trkpt><trkpt lat="42.2058792" lon="11.7843486"><ele>27.0</ele><time>2026-04-02T14:29:57.908Z</time></trkpt><trkpt lat="42.205568" lon="11.7844696"><ele>19.0</ele><time>2026-04-02T14:29:58.909Z</time></trkpt><trkpt lat="42.2052594" lon="11.7845841"><ele>19.0</ele><time>2026-04-02T14:29:59.909Z</time></trkpt><trkpt lat="42.2049573" lon="11.7846877"><ele>19.0</ele><time>2026-04-02T14:30:00.909Z</time></trkpt><trkpt lat="42.2046542" lon="11.7847842"><ele>19.0</ele><time>2026-04-02T14:30:01.909Z</time></trkpt><trkpt lat="42.2043452" lon="11.7848739"><ele>19.0</ele><time>2026-04-02T14:30:02.908Z</time></trkpt><trkpt lat="42.204033" lon="11.7849569"><ele>17.5</ele><time>2026-04-02T14:30:03.908Z</time></trkpt><trkpt lat="42.2037206" lon="11.7850331"><ele>16.0</ele><time>2026-04-02T14:30:04.91Z</time></trkpt><trkpt lat="42.2034091" lon="11.7850967"><ele>14.5</ele><time>2026-04-02T14:30:05.908Z</time></trkpt><trkpt lat="42.2030989" lon="11.7851549"><ele>13.0</ele><time>2026-04-02T14:30:06.909Z</time></trkpt><trkpt lat="42.2027906" lon="11.7852016"><ele>11.5</ele><time>2026-04-02T14:30:07.913Z</time></trkpt><trkpt lat="42.2024846" lon="11.7852379"><ele>10.0</ele><time>2026-04-02T14:30:08.908Z</time></trkpt><trkpt lat="42.2018677" lon="11.785304"><ele>8.5</ele><time>2026-04-02T14:30:10.908Z</time></trkpt><trkpt lat="42.2015651" lon="11.7853354"><ele>7.0</ele><time>2026-04-02T14:30:11.915Z</time></trkpt><trkpt lat="42.2012632" lon="11.7853683"><ele>7.0</ele><time>2026-04-02T14:30:12.91Z</time></trkpt><trkpt lat="42.2009608" lon="11.7853961"><ele>7.0</ele><time>2026-04-02T14:30:13.909Z</time></trkpt><trkpt lat="42.2006616" lon="11.7854262"><ele>7.5</ele><time>2026-04-02T14:30:14.908Z</time></trkpt><trkpt lat="42.2003575" lon="11.7854581"><ele>8.0</ele><time>2026-04-02T14:30:15.909Z</time></trkpt><trkpt lat="42.2000556" lon="11.7854909"><ele>7.5</ele><time>2026-04-02T14:30:16.91Z</time></trkpt><trkpt lat="42.1997519" lon="11.7855182"><ele>7.0</ele><time>2026-04-02T14:30:17.909Z</time></trkpt><trkpt lat="42.1994519" lon="11.7855424"><ele>7.0</ele><time>2026-04-02T14:30:18.909Z</time></trkpt><trkpt lat="42.1991511" lon="11.785567"><ele>7.0</ele><time>2026-04-02T14:30:19.908Z</time></trkpt><trkpt lat="42.1985458" lon="11.7856264"><ele>6.5</ele><time>2026-04-02T14:30:21.909Z</time></trkpt><trkpt lat="42.1982443" lon="11.7856594"><ele>6.0</ele><time>2026-04-02T14:30:22.909Z</time></trkpt><trkpt lat="42.1979419" lon="11.7856938"><ele>6.0</ele><time>2026-04-02T14:30:23.908Z</time></trkpt><trkpt lat="42.1976404" lon="11.7857206"><ele>6.0</ele><time>2026-04-02T14:30:24.91Z</time></trkpt><trkpt lat="42.1973427" lon="11.7857452"><ele>6.0</ele><time>2026-04-02T14:30:25.909Z</time></trkpt><trkpt lat="42.1970396" lon="11.7857729"><ele>6.0</ele><time>2026-04-02T14:30:26.908Z</time></trkpt><trkpt lat="42.1967403" lon="11.7858004"><ele>7.0</ele><time>2026-04-02T14:30:27.91Z</time></trkpt><trkpt lat="42.1964408" lon="11.7858328"><ele>8.0</ele><time>2026-04-02T14:30:28.909Z</time></trkpt><trkpt lat="42.19614" lon="11.7858691"><ele>8.0</ele><time>2026-04-02T14:30:29.909Z</time></trkpt><trkpt lat="42.1958397" lon="11.7858999"><ele>8.0</ele><time>2026-04-02T14:30:30.908Z</time></trkpt><trkpt lat="42.195229" lon="11.7859633"><ele>6.5</ele><time>2026-04-02T14:30:32.91Z</time></trkpt><trkpt lat="42.1949206" lon="11.7859942"><ele>5.0</ele><time>2026-04-02T14:30:33.908Z</time></trkpt><trkpt lat="42.194611" lon="11.7860237"><ele>5.0</ele><time>2026-04-02T14:30:34.908Z</time></trkpt><trkpt lat="42.1943012" lon="11.7860545"><ele>5.0</ele><time>2026-04-02T14:30:35.909Z</time></trkpt><trkpt lat="42.1939887" lon="11.7860867"><ele>5.0</ele><time>2026-04-02T14:30:36.915Z</time></trkpt><trkpt lat="42.1936766" lon="11.7861149"><ele>5.0</ele><time>2026-04-02T14:30:37.908Z</time></trkpt><trkpt lat="42.1933643" lon="11.7861411"><ele>4.5</ele><time>2026-04-02T14:30:38.908Z</time></trkpt><trkpt lat="42.1930503" lon="11.7861713"><ele>4.0</ele><time>2026-04-02T14:30:39.909Z</time></trkpt><trkpt lat="42.1927405" lon="11.7861998"><ele>4.0</ele><time>2026-04-02T14:30:40.912Z</time></trkpt><trkpt lat="42.1924303" lon="11.7862263"><ele>4.0</ele><time>2026-04-02T14:30:41.909Z</time></trkpt><trkpt lat="42.1921165" lon="11.7862548"><ele>4.0</ele><time>2026-04-02T14:30:42.909Z</time></trkpt><trkpt lat="42.1918026" lon="11.7862883"><ele>4.0</ele><time>2026-04-02T14:30:43.909Z</time></trkpt><trkpt lat="42.1914893" lon="11.7863204"><ele>4.0</ele><time>2026-04-02T14:30:44.91Z</time></trkpt><trkpt lat="42.1911774" lon="11.7863556"><ele>4.0</ele><time>2026-04-02T14:30:45.908Z</time></trkpt><trkpt lat="42.1908609" lon="11.7863995"><ele>4.5</ele><time>2026-04-02T14:30:46.907Z</time></trkpt><trkpt lat="42.190544" lon="11.7864468"><ele>5.0</ele><time>2026-04-02T14:30:47.916Z</time></trkpt><trkpt lat="42.1902244" lon="11.7864873"><ele>5.0</ele><time>2026-04-02T14:30:48.915Z</time></trkpt><trkpt lat="42.189903" lon="11.7865304"><ele>5.0</ele><time>2026-04-02T14:30:49.909Z</time></trkpt><trkpt lat="42.1895871" lon="11.7865653"><ele>6.5</ele><time>2026-04-02T14:30:50.912Z</time></trkpt><trkpt lat="42.1892808" lon="11.7866007"><ele>8.0</ele><time>2026-04-02T14:30:51.912Z</time></trkpt><trkpt lat="42.1889754" lon="11.7866374"><ele>15.0</ele><time>2026-04-02T14:30:52.913Z</time></trkpt><trkpt lat="42.1886785" lon="11.7866725"><ele>22.0</ele><time>2026-04-02T14:30:53.91Z</time></trkpt><trkpt lat="42.1883862" lon="11.7867149"><ele>25.0</ele><time>2026-04-02T14:30:54.91Z</time></trkpt><trkpt lat="42.1880975" lon="11.7867613"><ele>28.0</ele><time>2026-04-02T14:30:55.911Z</time></trkpt><trkpt lat="42.1878145" lon="11.7868125"><ele>30.5</ele><time>2026-04-02T14:30:56.913Z</time></trkpt><trkpt lat="42.1875349" lon="11.7868746"><ele>33.0</ele><time>2026-04-02T14:30:57.914Z</time></trkpt><trkpt lat="42.1872612" lon="11.7869496"><ele>34.0</ele><time>2026-04-02T14:30:58.914Z</time></trkpt><trkpt lat="42.1869859" lon="11.78704"><ele>35.0</ele><time>2026-04-02T14:30:59.917Z</time></trkpt><trkpt lat="42.1867117" lon="11.7871531"><ele>35.0</ele><time>2026-04-02T14:31:00.914Z</time></trkpt><trkpt lat="42.1864431" lon="11.7872845"><ele>35.0</ele><time>2026-04-02T14:31:01.918Z</time></trkpt><trkpt lat="42.1861714" lon="11.7874251"><ele>35.0</ele><time>2026-04-02T14:31:02.913Z</time></trkpt><trkpt lat="42.1859035" lon="11.7875728"><ele>35.0</ele><time>2026-04-02T14:31:03.91Z</time></trkpt><trkpt lat="42.1856334" lon="11.7877318"><ele>37.0</ele><time>2026-04-02T14:31:04.913Z</time></trkpt><trkpt lat="42.185364" lon="11.7878982"><ele>39.0</ele><time>2026-04-02T14:31:05.911Z</time></trkpt><trkpt lat="42.1850937" lon="11.7880632"><ele>39.5</ele><time>2026-04-02T14:31:06.916Z</time></trkpt><trkpt lat="42.184819" lon="11.7882374"><ele>40.0</ele><time>2026-04-02T14:31:07.914Z</time></trkpt><trkpt lat="42.1845412" lon="11.7884076"><ele>41.0</ele><time>2026-04-02T14:31:08.915Z</time></trkpt><trkpt lat="42.1839733" lon="11.7887213"><ele>41.0</ele><time>2026-04-02T14:31:10.917Z</time></trkpt><trkpt lat="42.1836815" lon="11.7888553"><ele>41.0</ele><time>2026-04-02T14:31:11.911Z</time></trkpt><trkpt lat="42.1833828" lon="11.7889633"><ele>40.0</ele><time>2026-04-02T14:31:12.912Z</time></trkpt><trkpt lat="42.1830815" lon="11.7890476"><ele>39.0</ele><time>2026-04-02T14:31:13.91Z</time></trkpt><trkpt lat="42.1827735" lon="11.7891036"><ele>39.0</ele><time>2026-04-02T14:31:14.912Z</time></trkpt><trkpt lat="42.1824593" lon="11.7891342"><ele>39.0</ele><time>2026-04-02T14:31:15.917Z</time></trkpt><trkpt lat="42.1821469" lon="11.7891372"><ele>38.5</ele><time>2026-04-02T14:31:16.913Z</time></trkpt><trkpt lat="42.181836" lon="11.7891165"><ele>38.0</ele><time>2026-04-02T14:31:17.912Z</time></trkpt><trkpt lat="42.1815227" lon="11.7890683"><ele>36.0</ele><time>2026-04-02T14:31:18.911Z</time></trkpt><trkpt lat="42.1812109" lon="11.7889945"><ele>34.0</ele><time>2026-04-02T14:31:19.909Z</time></trkpt><trkpt lat="42.1808975" lon="11.7888988"><ele>34.5</ele><time>2026-04-02T14:31:20.912Z</time></trkpt><trkpt lat="42.1805891" lon="11.7887814"><ele>35.0</ele><time>2026-04-02T14:31:21.912Z</time></trkpt><trkpt lat="42.1802818" lon="11.7886539"><ele>35.0</ele><time>2026-04-02T14:31:22.913Z</time></trkpt><trkpt lat="42.1799728" lon="11.7885142"><ele>35.0</ele><time>2026-04-02T14:31:23.91Z</time></trkpt><trkpt lat="42.1796705" lon="11.7883715"><ele>35.0</ele><time>2026-04-02T14:31:24.912Z</time></trkpt><trkpt lat="42.1793786" lon="11.7882266"><ele>35.0</ele><time>2026-04-02T14:31:25.911Z</time></trkpt><trkpt lat="42.179089" lon="11.7880897"><ele>37.5</ele><time>2026-04-02T14:31:26.925Z</time></trkpt><trkpt lat="42.1787986" lon="11.787958"><ele>40.0</ele><time>2026-04-02T14:31:27.912Z</time></trkpt><trkpt lat="42.1785073" lon="11.7878358"><ele>40.0</ele><time>2026-04-02T14:31:28.911Z</time></trkpt><trkpt lat="42.1782205" lon="11.7877257"><ele>40.0</ele><time>2026-04-02T14:31:29.914Z</time></trkpt><trkpt lat="42.1779292" lon="11.7876366"><ele>39.0</ele><time>2026-04-02T14:31:30.91Z</time></trkpt><trkpt lat="42.1776311" lon="11.787562"><ele>38.0</ele><time>2026-04-02T14:31:31.909Z</time></trkpt><trkpt lat="42.1773265" lon="11.7875037"><ele>37.5</ele><time>2026-04-02T14:31:32.912Z</time></trkpt><trkpt lat="42.1770181" lon="11.7874603"><ele>37.0</ele><time>2026-04-02T14:31:33.91Z</time></trkpt><trkpt lat="42.1767014" lon="11.7874349"><ele>36.5</ele><time>2026-04-02T14:31:34.91Z</time></trkpt><trkpt lat="42.1763831" lon="11.7874246"><ele>36.0</ele><time>2026-04-02T14:31:35.914Z</time></trkpt><trkpt lat="42.1760652" lon="11.7874233"><ele>36.0</ele><time>2026-04-02T14:31:36.914Z</time></trkpt><trkpt lat="42.1757479" lon="11.7874308"><ele>36.0</ele><time>2026-04-02T14:31:37.91Z</time></trkpt><trkpt lat="42.1754295" lon="11.7874517"><ele>35.5</ele><time>2026-04-02T14:31:38.911Z</time></trkpt><trkpt lat="42.1751112" lon="11.787479"><ele>35.0</ele><time>2026-04-02T14:31:39.914Z</time></trkpt><trkpt lat="42.1747987" lon="11.7875089"><ele>34.0</ele><time>2026-04-02T14:31:40.911Z</time></trkpt><trkpt lat="42.1741735" lon="11.7875723"><ele>34.5</ele><time>2026-04-02T14:31:42.912Z</time></trkpt><trkpt lat="42.1738609" lon="11.7876002"><ele>35.0</ele><time>2026-04-02T14:31:43.91Z</time></trkpt><trkpt lat="42.1735456" lon="11.7876259"><ele>35.0</ele><time>2026-04-02T14:31:44.912Z</time></trkpt><trkpt lat="42.1732306" lon="11.78765"><ele>35.0</ele><time>2026-04-02T14:31:45.912Z</time></trkpt><trkpt lat="42.1729111" lon="11.7876798"><ele>35.5</ele><time>2026-04-02T14:31:46.914Z</time></trkpt><trkpt lat="42.1725914" lon="11.7877082"><ele>36.0</ele><time>2026-04-02T14:31:47.914Z</time></trkpt><trkpt lat="42.1722703" lon="11.7877375"><ele>36.0</ele><time>2026-04-02T14:31:48.914Z</time></trkpt><trkpt lat="42.17195" lon="11.787769"><ele>36.0</ele><time>2026-04-02T14:31:49.915Z</time></trkpt><trkpt lat="42.171632" lon="11.7877961"><ele>35.0</ele><time>2026-04-02T14:31:50.911Z</time></trkpt><trkpt lat="42.1713168" lon="11.787823"><ele>34.0</ele><time>2026-04-02T14:31:51.909Z</time></trkpt><trkpt lat="42.1710038" lon="11.7878537"><ele>34.0</ele><time>2026-04-02T14:31:52.917Z</time></trkpt><trkpt lat="42.1706909" lon="11.7878821"><ele>34.0</ele><time>2026-04-02T14:31:53.913Z</time></trkpt><trkpt lat="42.1703799" lon="11.787906"><ele>34.0</ele><time>2026-04-02T14:31:54.916Z</time></trkpt><trkpt lat="42.1700696" lon="11.7879309"><ele>34.0</ele><time>2026-04-02T14:31:55.911Z</time></trkpt><trkpt lat="42.1697585" lon="11.7879538"><ele>33.5</ele><time>2026-04-02T14:31:56.91Z</time></trkpt><trkpt lat="42.1694425" lon="11.7879835"><ele>33.0</ele><time>2026-04-02T14:31:57.913Z</time></trkpt><trkpt lat="42.1691255" lon="11.7880145"><ele>34.0</ele><time>2026-04-02T14:31:58.91Z</time></trkpt><trkpt lat="42.1688073" lon="11.7880383"><ele>35.0</ele><time>2026-04-02T14:31:59.913Z</time></trkpt><trkpt lat="42.1684865" lon="11.7880614"><ele>36.5</ele><time>2026-04-02T14:32:00.912Z</time></trkpt><trkpt lat="42.1681651" lon="11.7880872"><ele>38.0</ele><time>2026-04-02T14:32:01.912Z</time></trkpt><trkpt lat="42.1678452" lon="11.7881061"><ele>38.0</ele><time>2026-04-02T14:32:02.911Z</time></trkpt><trkpt lat="42.1675225" lon="11.7881313"><ele>38.0</ele><time>2026-04-02T14:32:03.911Z</time></trkpt><trkpt lat="42.1672023" lon="11.7881607"><ele>36.5</ele><time>2026-04-02T14:32:04.911Z</time></trkpt><trkpt lat="42.166883" lon="11.7881889"><ele>35.0</ele><time>2026-04-02T14:32:05.912Z</time></trkpt><trkpt lat="42.1665595" lon="11.7882215"><ele>35.0</ele><time>2026-04-02T14:32:06.911Z</time></trkpt><trkpt lat="42.1662353" lon="11.7882605"><ele>35.0</ele><time>2026-04-02T14:32:07.91Z</time></trkpt><trkpt lat="42.1659136" lon="11.7883096"><ele>34.5</ele><time>2026-04-02T14:32:08.913Z</time></trkpt><trkpt lat="42.165595" lon="11.7883702"><ele>34.0</ele><time>2026-04-02T14:32:09.912Z</time></trkpt><trkpt lat="42.1649682" lon="11.7885374"><ele>34.5</ele><time>2026-04-02T14:32:11.913Z</time></trkpt><trkpt lat="42.1646612" lon="11.7886462"><ele>35.0</ele><time>2026-04-02T14:32:12.913Z</time></trkpt><trkpt lat="42.1643563" lon="11.7887757"><ele>35.0</ele><time>2026-04-02T14:32:13.911Z</time></trkpt><trkpt lat="42.1640574" lon="11.7889235"><ele>35.0</ele><time>2026-04-02T14:32:14.911Z</time></trkpt><trkpt lat="42.1637642" lon="11.7890825"><ele>36.0</ele><time>2026-04-02T14:32:15.912Z</time></trkpt><trkpt lat="42.1634874" lon="11.7892511"><ele>37.0</ele><time>2026-04-02T14:32:16.912Z</time></trkpt><trkpt lat="42.1632244" lon="11.7894208"><ele>38.0</ele><time>2026-04-02T14:32:17.912Z</time></trkpt><trkpt lat="42.1629749" lon="11.7895979"><ele>39.0</ele><time>2026-04-02T14:32:18.916Z</time></trkpt><trkpt lat="42.1627342" lon="11.7897849"><ele>39.0</ele><time>2026-04-02T14:32:19.912Z</time></trkpt><trkpt lat="42.162497" lon="11.7899796"><ele>39.0</ele><time>2026-04-02T14:32:20.911Z</time></trkpt><trkpt lat="42.1622677" lon="11.790181"><ele>37.5</ele><time>2026-04-02T14:32:21.912Z</time></trkpt><trkpt lat="42.1620412" lon="11.7903937"><ele>36.0</ele><time>2026-04-02T14:32:22.911Z</time></trkpt><trkpt lat="42.161816" lon="11.7906101"><ele>36.0</ele><time>2026-04-02T14:32:23.916Z</time></trkpt><trkpt lat="42.1615874" lon="11.7908289"><ele>36.0</ele><time>2026-04-02T14:32:24.912Z</time></trkpt><trkpt lat="42.1613603" lon="11.7910576"><ele>32.5</ele><time>2026-04-02T14:32:25.912Z</time></trkpt><trkpt lat="42.1611298" lon="11.7912914"><ele>29.0</ele><time>2026-04-02T14:32:26.909Z</time></trkpt><trkpt lat="42.1608979" lon="11.7915242"><ele>28.0</ele><time>2026-04-02T14:32:27.917Z</time></trkpt><trkpt lat="42.1606628" lon="11.7917581"><ele>27.0</ele><time>2026-04-02T14:32:28.914Z</time></trkpt><trkpt lat="42.1604271" lon="11.7919924"><ele>27.0</ele><time>2026-04-02T14:32:29.912Z</time></trkpt><trkpt lat="42.1601919" lon="11.7922192"><ele>27.0</ele><time>2026-04-02T14:32:30.91Z</time></trkpt><trkpt lat="42.1599586" lon="11.7924466"><ele>26.5</ele><time>2026-04-02T14:32:31.913Z</time></trkpt><trkpt lat="42.1597252" lon="11.7926683"><ele>26.0</ele><time>2026-04-02T14:32:32.913Z</time></trkpt><trkpt lat="42.1594898" lon="11.7928885"><ele>27.0</ele><time>2026-04-02T14:32:33.913Z</time></trkpt><trkpt lat="42.1592539" lon="11.7931166"><ele>28.0</ele><time>2026-04-02T14:32:34.911Z</time></trkpt><trkpt lat="42.1590156" lon="11.7933444"><ele>31.0</ele><time>2026-04-02T14:32:35.913Z</time></trkpt><trkpt lat="42.1587799" lon="11.7935691"><ele>34.0</ele><time>2026-04-02T14:32:36.912Z</time></trkpt><trkpt lat="42.1585465" lon="11.7937903"><ele>34.0</ele><time>2026-04-02T14:32:37.917Z</time></trkpt><trkpt lat="42.1583064" lon="11.7940156"><ele>34.0</ele><time>2026-04-02T14:32:38.914Z</time></trkpt><trkpt lat="42.1580672" lon="11.7942432"><ele>37.0</ele><time>2026-04-02T14:32:39.911Z</time></trkpt><trkpt lat="42.1578243" lon="11.794472"><ele>40.0</ele><time>2026-04-02T14:32:40.911Z</time></trkpt><trkpt lat="42.1575817" lon="11.7946999"><ele>48.0</ele><time>2026-04-02T14:32:41.911Z</time></trkpt><trkpt lat="42.157093" lon="11.7951583"><ele>47.5</ele><time>2026-04-02T14:32:43.913Z</time></trkpt><trkpt lat="42.1568476" lon="11.7953955"><ele>47.0</ele><time>2026-04-02T14:32:44.912Z</time></trkpt><trkpt lat="42.1566003" lon="11.7956335"><ele>48.0</ele><time>2026-04-02T14:32:45.915Z</time></trkpt><trkpt lat="42.156353" lon="11.7958594"><ele>49.0</ele><time>2026-04-02T14:32:46.91Z</time></trkpt><trkpt lat="42.156104" lon="11.7960821"><ele>49.0</ele><time>2026-04-02T14:32:47.913Z</time></trkpt><trkpt lat="42.155855" lon="11.7963014"><ele>49.0</ele><time>2026-04-02T14:32:48.915Z</time></trkpt><trkpt lat="42.1556153" lon="11.7965175"><ele>50.5</ele><time>2026-04-02T14:32:49.91Z</time></trkpt><trkpt lat="42.1553727" lon="11.7967345"><ele>52.0</ele><time>2026-04-02T14:32:50.916Z</time></trkpt><trkpt lat="42.1551319" lon="11.7969559"><ele>53.0</ele><time>2026-04-02T14:32:51.918Z</time></trkpt><trkpt lat="42.1548924" lon="11.7971787"><ele>54.0</ele><time>2026-04-02T14:32:52.911Z</time></trkpt><trkpt lat="42.1546546" lon="11.7974054"><ele>54.0</ele><time>2026-04-02T14:32:53.914Z</time></trkpt><trkpt lat="42.1544177" lon="11.7976316"><ele>54.0</ele><time>2026-04-02T14:32:54.91Z</time></trkpt><trkpt lat="42.1541835" lon="11.7978593"><ele>55.5</ele><time>2026-04-02T14:32:55.912Z</time></trkpt><trkpt lat="42.1539555" lon="11.7980874"><ele>57.0</ele><time>2026-04-02T14:32:56.911Z</time></trkpt><trkpt lat="42.1537333" lon="11.7983198"><ele>57.0</ele><time>2026-04-02T14:32:57.914Z</time></trkpt><trkpt lat="42.1535163" lon="11.7985565"><ele>57.0</ele><time>2026-04-02T14:32:58.914Z</time></trkpt><trkpt lat="42.1533039" lon="11.7988026"><ele>57.5</ele><time>2026-04-02T14:32:59.917Z</time></trkpt><trkpt lat="42.1530895" lon="11.7990658"><ele>58.0</ele><time>2026-04-02T14:33:00.912Z</time></trkpt><trkpt lat="42.1528784" lon="11.7993497"><ele>58.0</ele><time>2026-04-02T14:33:01.912Z</time></trkpt><trkpt lat="42.1526657" lon="11.7996498"><ele>58.0</ele><time>2026-04-02T14:33:02.913Z</time></trkpt><trkpt lat="42.1524523" lon="11.7999556"><ele>57.5</ele><time>2026-04-02T14:33:03.914Z</time></trkpt><trkpt lat="42.152246" lon="11.800271"><ele>57.0</ele><time>2026-04-02T14:33:04.913Z</time></trkpt><trkpt lat="42.1520434" lon="11.8005971"><ele>57.0</ele><time>2026-04-02T14:33:05.912Z</time></trkpt><trkpt lat="42.1518485" lon="11.8009279"><ele>57.0</ele><time>2026-04-02T14:33:06.912Z</time></trkpt><trkpt lat="42.1516641" lon="11.8012649"><ele>57.5</ele><time>2026-04-02T14:33:07.91Z</time></trkpt><trkpt lat="42.1514882" lon="11.8016177"><ele>58.0</ele><time>2026-04-02T14:33:08.912Z</time></trkpt><trkpt lat="42.1513205" lon="11.8019816"><ele>58.5</ele><time>2026-04-02T14:33:09.913Z</time></trkpt><trkpt lat="42.1511627" lon="11.8023582"><ele>59.0</ele><time>2026-04-02T14:33:10.913Z</time></trkpt><trkpt lat="42.1510141" lon="11.8027375"><ele>60.5</ele><time>2026-04-02T14:33:11.913Z</time></trkpt><trkpt lat="42.1508753" lon="11.8031269"><ele>62.0</ele><time>2026-04-02T14:33:12.916Z</time></trkpt><trkpt lat="42.1507449" lon="11.8035195"><ele>62.0</ele><time>2026-04-02T14:33:13.913Z</time></trkpt><trkpt lat="42.15062" lon="11.8039163"><ele>62.0</ele><time>2026-04-02T14:33:14.911Z</time></trkpt><trkpt lat="42.150502" lon="11.8043119"><ele>63.0</ele><time>2026-04-02T14:33:15.918Z</time></trkpt><trkpt lat="42.150381" lon="11.8047126"><ele>64.0</ele><time>2026-04-02T14:33:16.911Z</time></trkpt><trkpt lat="42.1502644" lon="11.8051172"><ele>65.5</ele><time>2026-04-02T14:33:17.912Z</time></trkpt><trkpt lat="42.1501454" lon="11.8055226"><ele>67.0</ele><time>2026-04-02T14:33:18.912Z</time></trkpt><trkpt lat="42.1500296" lon="11.8059325"><ele>67.0</ele><time>2026-04-02T14:33:19.913Z</time></trkpt><trkpt lat="42.1499127" lon="11.8063437"><ele>67.0</ele><time>2026-04-02T14:33:20.914Z</time></trkpt><trkpt lat="42.1497961" lon="11.8067469"><ele>68.5</ele><time>2026-04-02T14:33:21.912Z</time></trkpt><trkpt lat="42.1496818" lon="11.8071456"><ele>70.0</ele><time>2026-04-02T14:33:22.913Z</time></trkpt><trkpt lat="42.1495665" lon="11.8075378"><ele>71.5</ele><time>2026-04-02T14:33:23.915Z</time></trkpt><trkpt lat="42.1494496" lon="11.8079324"><ele>73.0</ele><time>2026-04-02T14:33:24.917Z</time></trkpt><trkpt lat="42.1493348" lon="11.8083239"><ele>74.5</ele><time>2026-04-02T14:33:25.916Z</time></trkpt><trkpt lat="42.1492205" lon="11.8087119"><ele>76.0</ele><time>2026-04-02T14:33:26.911Z</time></trkpt><trkpt lat="42.1491056" lon="11.8090994"><ele>79.0</ele><time>2026-04-02T14:33:27.912Z</time></trkpt><trkpt lat="42.1489899" lon="11.8094876"><ele>82.0</ele><time>2026-04-02T14:33:28.91Z</time></trkpt><trkpt lat="42.1488738" lon="11.8098736"><ele>83.5</ele><time>2026-04-02T14:33:29.911Z</time></trkpt><trkpt lat="42.1487576" lon="11.810255"><ele>85.0</ele><time>2026-04-02T14:33:30.912Z</time></trkpt><trkpt lat="42.1486438" lon="11.8106379"><ele>87.0</ele><time>2026-04-02T14:33:31.91Z</time></trkpt><trkpt lat="42.1485306" lon="11.811014"><ele>89.0</ele><time>2026-04-02T14:33:32.911Z</time></trkpt><trkpt lat="42.1484186" lon="11.8113909"><ele>89.0</ele><time>2026-04-02T14:33:33.912Z</time></trkpt><trkpt lat="42.1483045" lon="11.8117654"><ele>89.0</ele><time>2026-04-02T14:33:34.912Z</time></trkpt><trkpt lat="42.1481841" lon="11.8121417"><ele>89.5</ele><time>2026-04-02T14:33:35.911Z</time></trkpt><trkpt lat="42.1480557" lon="11.8125129"><ele>90.0</ele><time>2026-04-02T14:33:36.912Z</time></trkpt><trkpt lat="42.1479168" lon="11.8128828"><ele>92.5</ele><time>2026-04-02T14:33:37.913Z</time></trkpt><trkpt lat="42.1477683" lon="11.813249"><ele>95.0</ele><time>2026-04-02T14:33:38.913Z</time></trkpt><trkpt lat="42.1476062" lon="11.8136056"><ele>95.0</ele><time>2026-04-02T14:33:39.913Z</time></trkpt><trkpt lat="42.1474328" lon="11.813952"><ele>95.0</ele><time>2026-04-02T14:33:40.914Z</time></trkpt><trkpt lat="42.1472484" lon="11.8142878"><ele>97.0</ele><time>2026-04-02T14:33:41.91Z</time></trkpt><trkpt lat="42.1470572" lon="11.8146083"><ele>99.0</ele><time>2026-04-02T14:33:42.908Z</time></trkpt><trkpt lat="42.1468526" lon="11.8149177"><ele>99.0</ele><time>2026-04-02T14:33:43.913Z</time></trkpt><trkpt lat="42.1466358" lon="11.815211"><ele>99.0</ele><time>2026-04-02T14:33:44.912Z</time></trkpt><trkpt lat="42.1464107" lon="11.8154951"><ele>99.0</ele><time>2026-04-02T14:33:45.913Z</time></trkpt><trkpt lat="42.1461767" lon="11.815772"><ele>99.0</ele><time>2026-04-02T14:33:46.913Z</time></trkpt><trkpt lat="42.1459374" lon="11.8160288"><ele>98.5</ele><time>2026-04-02T14:33:47.911Z</time></trkpt><trkpt lat="42.1456864" lon="11.8162748"><ele>98.0</ele><time>2026-04-02T14:33:48.912Z</time></trkpt><trkpt lat="42.145429" lon="11.8165014"><ele>98.0</ele><time>2026-04-02T14:33:49.912Z</time></trkpt><trkpt lat="42.1451601" lon="11.8167185"><ele>98.0</ele><time>2026-04-02T14:33:50.911Z</time></trkpt><trkpt lat="42.1448794" lon="11.8169287"><ele>99.5</ele><time>2026-04-02T14:33:51.911Z</time></trkpt><trkpt lat="42.1445961" lon="11.8171225"><ele>101.0</ele><time>2026-04-02T14:33:52.911Z</time></trkpt><trkpt lat="42.1443044" lon="11.8172953"><ele>104.0</ele><time>2026-04-02T14:33:53.91Z</time></trkpt><trkpt lat="42.1440035" lon="11.8174483"><ele>107.0</ele><time>2026-04-02T14:33:54.911Z</time></trkpt><trkpt lat="42.1436978" lon="11.8175851"><ele>106.5</ele><time>2026-04-02T14:33:55.913Z</time></trkpt><trkpt lat="42.1433832" lon="11.8177062"><ele>106.0</ele><time>2026-04-02T14:33:56.91Z</time></trkpt><trkpt lat="42.1430604" lon="11.8178091"><ele>108.5</ele><time>2026-04-02T14:33:57.91Z</time></trkpt><trkpt lat="42.1427341" lon="11.8179074"><ele>111.0</ele><time>2026-04-02T14:33:58.913Z</time></trkpt><trkpt lat="42.1423991" lon="11.8179691"><ele>111.0</ele><time>2026-04-02T14:33:59.914Z</time></trkpt><trkpt lat="42.1420663" lon="11.8180378"><ele>111.0</ele><time>2026-04-02T14:34:00.915Z</time></trkpt><trkpt lat="42.1417295" lon="11.8180973"><ele>111.0</ele><time>2026-04-02T14:34:01.912Z</time></trkpt><trkpt lat="42.1413929" lon="11.8181555"><ele>111.0</ele><time>2026-04-02T14:34:02.912Z</time></trkpt><trkpt lat="42.1410544" lon="11.8182159"><ele>111.0</ele><time>2026-04-02T14:34:03.915Z</time></trkpt><trkpt lat="42.1407167" lon="11.8182793"><ele>111.0</ele><time>2026-04-02T14:34:04.915Z</time></trkpt><trkpt lat="42.1403852" lon="11.8183468"><ele>114.0</ele><time>2026-04-02T14:34:05.911Z</time></trkpt><trkpt lat="42.1400574" lon="11.818409"><ele>117.0</ele><time>2026-04-02T14:34:06.912Z</time></trkpt><trkpt lat="42.1397381" lon="11.8184663"><ele>119.0</ele><time>2026-04-02T14:34:07.913Z</time></trkpt><trkpt lat="42.1394259" lon="11.818527"><ele>121.0</ele><time>2026-04-02T14:34:08.911Z</time></trkpt><trkpt lat="42.1391171" lon="11.8185849"><ele>122.5</ele><time>2026-04-02T14:34:09.913Z</time></trkpt><trkpt lat="42.1388129" lon="11.818644"><ele>124.0</ele><time>2026-04-02T14:34:10.919Z</time></trkpt><trkpt lat="42.138509" lon="11.8187033"><ele>125.5</ele><time>2026-04-02T14:34:11.912Z</time></trkpt><trkpt lat="42.1382124" lon="11.8187615"><ele>127.0</ele><time>2026-04-02T14:34:12.917Z</time></trkpt><trkpt lat="42.1379213" lon="11.8188183"><ele>127.0</ele><time>2026-04-02T14:34:13.91Z</time></trkpt><trkpt lat="42.1376347" lon="11.8188671"><ele>127.0</ele><time>2026-04-02T14:34:14.914Z</time></trkpt><trkpt lat="42.1373521" lon="11.8189212"><ele>128.5</ele><time>2026-04-02T14:34:15.912Z</time></trkpt><trkpt lat="42.1370718" lon="11.8189756"><ele>130.0</ele><time>2026-04-02T14:34:16.913Z</time></trkpt><trkpt lat="42.136793" lon="11.8190287"><ele>129.5</ele><time>2026-04-02T14:34:17.914Z</time></trkpt><trkpt lat="42.1365124" lon="11.8190868"><ele>129.0</ele><time>2026-04-02T14:34:18.913Z</time></trkpt><trkpt lat="42.1362289" lon="11.8191456"><ele>129.0</ele><time>2026-04-02T14:34:19.917Z</time></trkpt><trkpt lat="42.1359451" lon="11.8192084"><ele>129.0</ele><time>2026-04-02T14:34:20.912Z</time></trkpt><trkpt lat="42.135375" lon="11.8193525"><ele>129.5</ele><time>2026-04-02T14:34:22.911Z</time></trkpt><trkpt lat="42.1350902" lon="11.819445"><ele>130.0</ele><time>2026-04-02T14:34:23.913Z</time></trkpt><trkpt lat="42.1348035" lon="11.8195424"><ele>130.0</ele><time>2026-04-02T14:34:24.915Z</time></trkpt><trkpt lat="42.1345179" lon="11.8196517"><ele>130.0</ele><time>2026-04-02T14:34:25.914Z</time></trkpt><trkpt lat="42.1342345" lon="11.8197688"><ele>129.5</ele><time>2026-04-02T14:34:26.913Z</time></trkpt><trkpt lat="42.1339534" lon="11.8198908"><ele>129.0</ele><time>2026-04-02T14:34:27.916Z</time></trkpt><trkpt lat="42.1336744" lon="11.8200242"><ele>130.0</ele><time>2026-04-02T14:34:28.915Z</time></trkpt><trkpt lat="42.133396" lon="11.8201645"><ele>131.0</ele><time>2026-04-02T14:34:29.91Z</time></trkpt><trkpt lat="42.1331211" lon="11.8203075"><ele>131.0</ele><time>2026-04-02T14:34:30.913Z</time></trkpt><trkpt lat="42.1328481" lon="11.8204493"><ele>131.0</ele><time>2026-04-02T14:34:31.913Z</time></trkpt><trkpt lat="42.1325772" lon="11.8205913"><ele>128.5</ele><time>2026-04-02T14:34:32.912Z</time></trkpt><trkpt lat="42.1323092" lon="11.820736"><ele>126.0</ele><time>2026-04-02T14:34:33.914Z</time></trkpt><trkpt lat="42.1320455" lon="11.8208755"><ele>124.5</ele><time>2026-04-02T14:34:34.913Z</time></trkpt><trkpt lat="42.1317672" lon="11.8210242"><ele>123.0</ele><time>2026-04-02T14:34:35.916Z</time></trkpt><trkpt lat="42.1314899" lon="11.8211702"><ele>122.0</ele><time>2026-04-02T14:34:36.914Z</time></trkpt><trkpt lat="42.1312114" lon="11.8213141"><ele>121.0</ele><time>2026-04-02T14:34:37.913Z</time></trkpt><trkpt lat="42.1309341" lon="11.8214633"><ele>121.5</ele><time>2026-04-02T14:34:38.912Z</time></trkpt><trkpt lat="42.1306556" lon="11.8216114"><ele>122.0</ele><time>2026-04-02T14:34:39.91Z</time></trkpt><trkpt lat="42.1303804" lon="11.8217627"><ele>116.0</ele><time>2026-04-02T14:34:40.914Z</time></trkpt><trkpt lat="42.1301001" lon="11.821907"><ele>110.0</ele><time>2026-04-02T14:34:41.912Z</time></trkpt><trkpt lat="42.1298193" lon="11.8220532"><ele>109.5</ele><time>2026-04-02T14:34:42.913Z</time></trkpt><trkpt lat="42.1295368" lon="11.8221977"><ele>109.0</ele><time>2026-04-02T14:34:43.91Z</time></trkpt><trkpt lat="42.1292512" lon="11.8223425"><ele>110.0</ele><time>2026-04-02T14:34:44.912Z</time></trkpt><trkpt lat="42.1289685" lon="11.8224873"><ele>111.0</ele><time>2026-04-02T14:34:45.917Z</time></trkpt><trkpt lat="42.128684" lon="11.822633"><ele>105.0</ele><time>2026-04-02T14:34:46.91Z</time></trkpt><trkpt lat="42.1284032" lon="11.8227814"><ele>99.0</ele><time>2026-04-02T14:34:47.91Z</time></trkpt><trkpt lat="42.1281219" lon="11.8229349"><ele>99.0</ele><time>2026-04-02T14:34:48.912Z</time></trkpt><trkpt lat="42.1278416" lon="11.823078"><ele>99.0</ele><time>2026-04-02T14:34:49.915Z</time></trkpt><trkpt lat="42.1275624" lon="11.8232203"><ele>95.5</ele><time>2026-04-02T14:34:50.912Z</time></trkpt><trkpt lat="42.1272796" lon="11.8233574"><ele>92.0</ele><time>2026-04-02T14:34:51.911Z</time></trkpt><trkpt lat="42.1269881" lon="11.8234738"><ele>91.5</ele><time>2026-04-02T14:34:52.911Z</time></trkpt><trkpt lat="42.1266964" lon="11.8235806"><ele>91.0</ele><time>2026-04-02T14:34:53.91Z</time></trkpt><trkpt lat="42.1263996" lon="11.8236737"><ele>95.5</ele><time>2026-04-02T14:34:54.915Z</time></trkpt><trkpt lat="42.1261016" lon="11.8237494"><ele>100.0</ele><time>2026-04-02T14:34:55.914Z</time></trkpt><trkpt lat="42.1258029" lon="11.8238091"><ele>102.5</ele><time>2026-04-02T14:34:56.913Z</time></trkpt><trkpt lat="42.1255063" lon="11.8238573"><ele>105.0</ele><time>2026-04-02T14:34:57.913Z</time></trkpt><trkpt lat="42.1252079" lon="11.8238916"><ele>105.0</ele><time>2026-04-02T14:34:58.912Z</time></trkpt><trkpt lat="42.1249119" lon="11.8239094"><ele>105.0</ele><time>2026-04-02T14:34:59.91Z</time></trkpt><trkpt lat="42.1246141" lon="11.8239236"><ele>107.0</ele><time>2026-04-02T14:35:00.91Z</time></trkpt><trkpt lat="42.1243188" lon="11.8239187"><ele>109.0</ele><time>2026-04-02T14:35:01.91Z</time></trkpt><trkpt lat="42.1240213" lon="11.8239013"><ele>110.0</ele><time>2026-04-02T14:35:02.91Z</time></trkpt><trkpt lat="42.1237264" lon="11.8238698"><ele>111.0</ele><time>2026-04-02T14:35:03.91Z</time></trkpt><trkpt lat="42.123429" lon="11.8238291"><ele>113.0</ele><time>2026-04-02T14:35:04.911Z</time></trkpt><trkpt lat="42.1231332" lon="11.8237775"><ele>115.0</ele><time>2026-04-02T14:35:05.922Z</time></trkpt><trkpt lat="42.1228363" lon="11.8237127"><ele>115.0</ele><time>2026-04-02T14:35:06.912Z</time></trkpt><trkpt lat="42.1225419" lon="11.8236372"><ele>115.0</ele><time>2026-04-02T14:35:07.91Z</time></trkpt><trkpt lat="42.1222496" lon="11.8235531"><ele>115.0</ele><time>2026-04-02T14:35:08.91Z</time></trkpt><trkpt lat="42.1219603" lon="11.8234621"><ele>115.0</ele><time>2026-04-02T14:35:09.909Z</time></trkpt><trkpt lat="42.1216724" lon="11.8233736"><ele>116.5</ele><time>2026-04-02T14:35:10.91Z</time></trkpt><trkpt lat="42.121384" lon="11.8232864"><ele>118.0</ele><time>2026-04-02T14:35:11.908Z</time></trkpt><trkpt lat="42.1210981" lon="11.8232033"><ele>118.0</ele><time>2026-04-02T14:35:12.91Z</time></trkpt><trkpt lat="42.1208136" lon="11.8231187"><ele>118.0</ele><time>2026-04-02T14:35:13.911Z</time></trkpt><trkpt lat="42.1205289" lon="11.8230387"><ele>121.0</ele><time>2026-04-02T14:35:14.91Z</time></trkpt><trkpt lat="42.120246" lon="11.8229561"><ele>124.0</ele><time>2026-04-02T14:35:15.91Z</time></trkpt><trkpt lat="42.1199626" lon="11.8228772"><ele>125.0</ele><time>2026-04-02T14:35:16.913Z</time></trkpt><trkpt lat="42.1196837" lon="11.8228081"><ele>126.0</ele><time>2026-04-02T14:35:17.912Z</time></trkpt><trkpt lat="42.1194051" lon="11.8227452"><ele>126.0</ele><time>2026-04-02T14:35:18.912Z</time></trkpt><trkpt lat="42.1191251" lon="11.8227073"><ele>126.0</ele><time>2026-04-02T14:35:19.913Z</time></trkpt><trkpt lat="42.1188448" lon="11.8226933"><ele>130.5</ele><time>2026-04-02T14:35:20.911Z</time></trkpt><trkpt lat="42.118569" lon="11.8227003"><ele>135.0</ele><time>2026-04-02T14:35:21.914Z</time></trkpt><trkpt lat="42.1182944" lon="11.8227297"><ele>138.5</ele><time>2026-04-02T14:35:22.91Z</time></trkpt><trkpt lat="42.118026" lon="11.8227905"><ele>142.0</ele><time>2026-04-02T14:35:23.91Z</time></trkpt><trkpt lat="42.1177581" lon="11.8228765"><ele>142.0</ele><time>2026-04-02T14:35:24.912Z</time></trkpt></trkseg></trk></gpx>